dateString,timestamp[ms],longitude,latitude,height[m],altitude[m a.s.l.],speed[m/s],runID
2025-04-01T10:32:04.850,1743496324850,11.8239213990113,46.3789810186928,21.97608,1895.856,3.30000547008,1
2025-04-01T10:32:04.950,1743496324950,11.8239171791623,46.3789810567123,21.88464,1895.5512,3.10000513856,1
2025-04-01T10:32:05.020,1743496325020,11.8239135164644,46.3789811297528,21.88464,1895.5512,2.70000447552,1
2025-04-01T10:32:05.150,1743496325150,11.8239101177429,46.3789811834591,21.88464,1895.5512,2.40000397824,1
2025-04-01T10:32:05.220,1743496325220,11.8239068926222,46.3789813244763,21.7932,1895.5512,2.10000348096,1
2025-04-01T10:32:05.320,1743496325320,11.8239042971519,46.3789813952932,21.7932,1895.5512,1.80000298368,1
2025-04-01T10:32:05.430,1743496325430,11.8239022054018,46.3789814575028,21.7932,1895.5512,1.5000024864,1
2025-04-01T10:32:05.530,1743496325530,11.8239004517164,46.3789815242474,21.7932,1895.5512,1.20000198912,1
2025-04-01T10:32:05.630,1743496325630,11.8238988374678,46.3789815119029,21.7932,1895.5512,0.90000149184,1
2025-04-01T10:32:05.740,1743496325740,11.8238978028152,46.378981525987,21.7932,1895.5512,0.60000099456,1
2025-04-01T10:32:05.840,1743496325840,11.8238973586834,46.3789816101869,21.7932,1895.5512,0.40000066304,1
2025-04-01T10:32:05.940,1743496325940,11.823896983674,46.3789816170395,21.7932,1895.5512,0.10000016576,1
2025-04-01T10:32:06.050,1743496326050,11.8238968537715,46.3789813926543,21.7932,1895.5512,0.10000016576,1
2025-04-01T10:32:06.150,1743496326150,11.8238972790339,46.378981375518,21.7932,1895.5512,0.40000066304,1
2025-04-01T10:32:06.250,1743496326250,11.8238976488791,46.3789815717659,21.7932,1895.5512,0.70000116032,1
2025-04-01T10:32:06.350,1743496326350,11.8238989373782,46.3789815554025,21.88464,1895.5512,1.10000182336,1
2025-04-01T10:32:06.450,1743496326450,11.8239007589945,46.3789816466252,21.88464,1895.5512,1.40000232064,1
2025-04-01T10:32:06.550,1743496326550,11.8239028497516,46.3789816036008,21.88464,1895.5512,1.60000265216,1
2025-04-01T10:32:06.650,1743496326650,11.8239052732104,46.3789815159249,21.97608,1895.856,1.80000298368,1
2025-04-01T10:32:06.760,1743496326760,11.8239078086952,46.3789814225344,21.97608,1895.856,1.90000314944,1
2025-04-01T10:32:06.860,1743496326860,11.8239107952639,46.3789811731336,21.97608,1895.856,2.00250137472,1
2025-04-01T10:32:06.960,1743496326960,11.8239135242123,46.3789810176726,22.098,1895.856,2.10238307488,1
2025-04-01T10:32:07.060,1743496327060,11.8239159063564,46.378980793647,22.098,1895.856,2.10238307488,1
2025-04-01T10:32:07.160,1743496327160,11.8239186861535,46.3789806337614,22.098,1895.856,2.10238307488,1
2025-04-01T10:32:07.270,1743496327270,11.8239218798911,46.3789803239147,22.18944,1895.856,2.10238307488,1
2025-04-01T10:32:07.370,1743496327370,11.8239247605912,46.3789801411268,22.18944,1895.856,2.20227505696,1
2025-04-01T10:32:07.470,1743496327470,11.8239277779472,46.3789800589824,22.18944,1895.856,2.20907542944,1
2025-04-01T10:32:07.570,1743496327570,11.8239306775169,46.3789798445276,22.18944,1895.856,2.20907542944,1
2025-04-01T10:32:07.670,1743496327670,11.8239337498929,46.3789796161262,22.28088,1896.1608,2.20907542944,1
2025-04-01T10:32:07.770,1743496327770,11.8239366472777,46.3789793953257,22.28088,1896.1608,2.20907542944,1
2025-04-01T10:32:07.880,1743496327880,11.8239392993571,46.3789792377338,22.28088,1896.1608,2.20907542944,1
2025-04-01T10:32:07.980,1743496327980,11.8239421679408,46.3789790901776,22.28088,1896.1608,2.20907542944,1
2025-04-01T10:32:08.080,1743496328080,11.8239455986415,46.3789789815826,22.28088,1896.1608,2.20227505696,1
2025-04-01T10:32:08.180,1743496328180,11.8239486100387,46.3789788738328,22.28088,1896.1608,2.20227505696,1
2025-04-01T10:32:08.280,1743496328280,11.8239515620462,46.378979005397,22.37232,1896.1608,2.40208629056,1
2025-04-01T10:32:08.350,1743496328350,11.8239548346391,46.3789789044859,22.37232,1896.1608,2.50200330688,1
2025-04-01T10:32:08.450,1743496328450,11.8239579542885,46.3789788095992,22.37232,1896.1608,2.70185566816,1
2025-04-01T10:32:08.550,1743496328550,11.8239616257262,46.3789786909378,22.49424,1896.1608,2.90172814624,1
2025-04-01T10:32:08.650,1743496328650,11.8239656630364,46.3789785704474,22.49424,1896.1608,3.00666408064,1
2025-04-01T10:32:08.750,1743496328750,11.8239697146478,46.3789784345876,22.58568,1896.4656,3.1064496672,1
2025-04-01T10:32:08.850,1743496328850,11.8239737575196,46.3789783226632,22.58568,1896.4656,3.206249112,1
2025-04-01T10:32:08.950,1743496328950,11.8239780184848,46.3789781815384,22.67712,1896.4656,3.30606017984,1
2025-04-01T10:32:09.050,1743496329050,11.8239822115192,46.3789780772909,22.67712,1896.4656,3.30606017984,1
2025-04-01T10:32:09.150,1743496329150,11.8239866858107,46.3789779286262,22.79904,1896.4656,3.40588287072,1
2025-04-01T10:32:09.250,1743496329250,11.8239909392281,46.3789778674876,22.79904,1896.4656,3.50571539648,1
2025-04-01T10:32:09.350,1743496329350,11.8239956520717,46.3789777217482,22.89048,1896.7704,3.60555686304,1
2025-04-01T10:32:09.450,1743496329450,11.8240008167937,46.378977502172,22.89048,1896.7704,3.7054072704,1
2025-04-01T10:32:09.550,1743496329550,11.8240058420789,46.37897734288,22.98192,1896.7704,3.80526572448,1
2025-04-01T10:32:09.650,1743496329650,11.8240108870283,46.3789770306116,23.07336,1896.7704,3.90513088416,1
2025-04-01T10:32:09.750,1743496329750,11.8240161204756,46.3789768557758,23.07336,1896.7704,4.00500319648,1
2025-04-01T10:32:09.810,1743496329810,11.8240212901633,46.3789767465175,23.19528,1897.0752,4.10488176736,1
2025-04-01T10:32:09.950,1743496329950,11.8240267417039,46.3789765841327,23.19528,1897.0752,4.20476614976,1
2025-04-01T10:32:10.010,1743496330010,11.8240323436059,46.3789763263458,23.28672,1897.0752,4.3046554496,1
2025-04-01T10:32:10.110,1743496330110,11.8240380338972,46.3789761590819,23.28672,1897.0752,4.40455011392,1
2025-04-01T10:32:10.250,1743496330250,11.8240433630831,46.3789759245664,23.37816,1897.0752,4.40455011392,1
2025-04-01T10:32:10.320,1743496330320,11.8240492087015,46.378975752925,23.37816,1897.0752,4.50444969568,1
2025-04-01T10:32:10.450,1743496330450,11.8240558279754,46.378975487652,23.4696,1897.38,4.6043533008,1
2025-04-01T10:32:10.550,1743496330550,11.8240619389606,46.3789753116404,23.59152,1897.38,4.70426092928,1
2025-04-01T10:32:10.650,1743496330650,11.8240681945469,46.3789750800427,23.59152,1897.38,4.80417258112,1
2025-04-01T10:32:10.720,1743496330720,11.8240744944272,46.3789749139923,23.68296,1897.38,4.80417258112,1
2025-04-01T10:32:10.830,1743496330830,11.8240809158678,46.3789748613956,23.68296,1897.38,4.90408780928,1
2025-04-01T10:32:10.950,1743496330950,11.8240874390058,46.3789747128249,23.7744,1897.6848,5.00400661376,1
2025-04-01T10:32:11.030,1743496331030,11.8240940856904,46.3789744659787,23.89632,1897.6848,5.10392810048,1
2025-04-01T10:32:11.130,1743496331130,11.8241008366546,46.3789743005375,23.89632,1897.6848,5.20385316352,1
2025-04-01T10:32:11.250,1743496331250,11.8241072211504,46.3789741631168,23.98776,1897.6848,5.3037809088,1
2025-04-01T10:32:11.330,1743496331330,11.8241141280374,46.3789739855063,24.0792,1897.9896,5.3037809088,1
2025-04-01T10:32:11.430,1743496331430,11.8241216733145,46.3789736492794,24.17064,1897.9896,5.40371133632,1
2025-04-01T10:32:11.550,1743496331550,11.8241287412888,46.3789734453256,24.17064,1897.9896,5.40371133632,1
2025-04-01T10:32:11.640,1743496331640,11.8241351909345,46.3789731985703,24.29256,1897.9896,5.40371133632,1
2025-04-01T10:32:11.740,1743496331740,11.8241422239502,46.3789729799775,24.384,1898.2944,5.40371133632,1
2025-04-01T10:32:11.840,1743496331840,11.8241500711417,46.3789727398553,24.384,1898.2944,5.40371133632,1
2025-04-01T10:32:11.940,1743496331940,11.8241571093217,46.3789725285501,24.47544,1898.2944,5.40371133632,1
2025-04-01T10:32:12.050,1743496332050,11.8241639925721,46.378972198312,24.59736,1898.2944,5.3037809088,1
2025-04-01T10:32:12.150,1743496332150,11.8241709149521,46.3789719875435,24.59736,1898.2944,5.3037809088,1
2025-04-01T10:32:12.250,1743496332250,11.8241773274544,46.3789718714213,24.6888,1898.5992,5.20385316352,1
2025-04-01T10:32:12.360,1743496332360,11.8241841074182,46.3789716805183,24.78024,1898.5992,5.20385316352,1
2025-04-01T10:32:12.460,1743496332460,11.8241908573893,46.3789715362752,24.87168,1898.5992,5.20385316352,1
2025-04-01T10:32:12.560,1743496332560,11.8241975825318,46.378971363002,24.87168,1898.5992,5.20385316352,1
2025-04-01T10:32:12.660,1743496332660,11.8242044796861,46.3789711989052,24.9936,1898.904,5.20096975552,1
2025-04-01T10:32:12.760,1743496332760,11.82421120463,46.3789710385771,25.08504,1898.904,5.20096975552,1
2025-04-01T10:32:12.870,1743496332870,11.8242186716477,46.3789708171897,25.17648,1898.904,5.20096975552,1
2025-04-01T10:32:12.970,1743496332970,11.8242254317488,46.3789706737763,25.17648,1898.904,5.10098836544,1
2025-04-01T10:32:13.070,1743496333070,11.8242320071259,46.3789706230727,25.2984,1899.2088,5.10098836544,1
2025-04-01T10:32:13.170,1743496333170,11.8242386790362,46.3789704896691,25.38984,1899.2088,5.10098836544,1
2025-04-01T10:32:13.270,1743496333270,11.8242457913044,46.3789701875886,25.48128,1899.2088,5.00100786944,1
2025-04-01T10:32:13.380,1743496333380,11.8242524427561,46.3789700293973,25.48128,1899.2088,5.00100786944,1
2025-04-01T10:32:13.480,1743496333480,11.8242580281719,46.3789700243399,25.57272,1899.5136,5.00100786944,1
2025-04-01T10:32:13.580,1743496333580,11.8242645223102,46.3789698792165,25.69464,1899.5136,5.00100786944,1
2025-04-01T10:32:13.680,1743496333680,11.8242711501251,46.3789696947591,25.69464,1899.5136,5.00100786944,1
2025-04-01T10:32:13.780,1743496333780,11.8242776089077,46.3789695642542,25.78608,1899.5136,5.00100786944,1
2025-04-01T10:32:13.880,1743496333880,11.8242845442979,46.3789694398632,25.87752,1899.8184,5.00100786944,1
2025-04-01T10:32:13.950,1743496333950,11.824290998214,46.37896933331,25.87752,1899.8184,4.90102826752,1
2025-04-01T10:32:14.050,1743496334050,11.8242969493038,46.3789693889224,25.99944,1899.8184,4.90102826752,1
2025-04-01T10:32:14.150,1743496334150,11.8243032722249,46.3789693028516,26.09088,1899.8184,4.80104911264,1
2025-04-01T10:32:14.250,1743496334250,11.8243097188911,46.3789690998721,26.09088,1899.8184,4.80104911264,1
2025-04-01T10:32:14.350,1743496334350,11.82431600884,46.3789690135691,26.18232,1900.1232,4.80104911264,1
2025-04-01T10:32:14.450,1743496334450,11.8243218599206,46.3789690862541,26.27376,1900.1232,4.80104911264,1
2025-04-01T10:32:14.550,1743496334550,11.824328118387,46.3789690229854,26.27376,1900.1232,4.80000795648,1
2025-04-01T10:32:14.650,1743496334650,11.8243350764207,46.378968899104,26.39568,1900.1232,4.80000795648,1
2025-04-01T10:32:14.750,1743496334750,11.8243414266532,46.3789688273929,26.48712,1900.428,4.80000795648,1
2025-04-01T10:32:14.850,1743496334850,11.8243483840911,46.3789688326445,26.48712,1900.428,4.90102826752,1
2025-04-01T10:32:14.950,1743496334950,11.8243548123843,46.3789687595968,26.57856,1900.428,4.90102826752,1
2025-04-01T10:32:15.050,1743496335050,11.824361179798,46.3789685584937,26.67,1900.428,4.90102826752,1
2025-04-01T10:32:15.110,1743496335110,11.8243676240808,46.3789684721559,26.67,1900.428,4.90102826752,1
2025-04-01T10:32:15.210,1743496335210,11.8243735783485,46.3789684675729,26.79192,1900.7328,4.90102826752,1
2025-04-01T10:32:15.320,1743496335320,11.8243799865803,46.3789683971229,26.88336,1900.7328,4.90000812224,1
2025-04-01T10:32:15.450,1743496335450,11.8243869209774,46.3789682792002,26.88336,1900.7328,4.90000812224,1
2025-04-01T10:32:15.550,1743496335550,11.8243933877051,46.3789682272057,26.9748,1900.7328,4.90000812224,1
2025-04-01T10:32:15.650,1743496335650,11.824399861484,46.3789679655587,27.09672,1900.7328,4.90000812224,1
2025-04-01T10:32:15.720,1743496335720,11.8244063246364,46.3789678709964,27.18816,1901.0376,4.90102826752,1
2025-04-01T10:32:15.820,1743496335820,11.8244125997875,46.3789678516106,27.18816,1901.0376,4.90102826752,1
2025-04-01T10:32:15.950,1743496335950,11.8244190142761,46.3789677577046,27.2796,1901.0376,4.90102826752,1
2025-04-01T10:32:16.050,1743496336050,11.8244254109875,46.378967573525,27.2796,1901.0376,4.80104911264,1
2025-04-01T10:32:16.130,1743496336130,11.8244317918086,46.378967492946,27.37104,1901.0376,4.80000795648,1
2025-04-01T10:32:16.250,1743496336250,11.8244376648376,46.3789674596246,27.49296,1901.3424,4.80000795648,1
2025-04-01T10:32:16.330,1743496336330,11.8244439842827,46.3789673977082,27.5844,1901.3424,4.80000795648,1
2025-04-01T10:32:16.430,1743496336430,11.8244505623413,46.3789673263983,27.5844,1901.3424,4.80000795648,1
2025-04-01T10:32:16.550,1743496336550,11.824456932238,46.3789672737083,27.67584,1901.3424,4.90000812224,1
2025-04-01T10:32:16.640,1743496336640,11.8244633320281,46.378967147872,27.79776,1901.6472,4.90000812224,1
2025-04-01T10:32:16.740,1743496336740,11.8244697554549,46.3789670989479,27.8892,1901.6472,4.90000812224,1
2025-04-01T10:32:16.840,1743496336840,11.82447696227,46.3789671090343,27.8892,1901.6472,4.90000812224,1
2025-04-01T10:32:16.940,1743496336940,11.8244834927573,46.3789670686575,27.98064,1901.6472,4.90000812224,1
2025-04-01T10:32:17.050,1743496337050,11.8244898784448,46.3789670111933,28.07208,1901.952,4.90000812224,1
2025-04-01T10:32:17.150,1743496337150,11.8244963609634,46.3789669615176,28.194,1901.952,4.90000812224,1
2025-04-01T10:32:17.250,1743496337250,11.8245023516794,46.3789668792811,28.194,1901.952,4.90000812224,1
2025-04-01T10:32:17.350,1743496337350,11.8245087237609,46.3789668267958,28.28544,1901.952,4.90000812224,1
2025-04-01T10:32:17.450,1743496337450,11.8245156849727,46.3789667460875,28.37688,1902.2568,4.80000795648,1
2025-04-01T10:32:17.560,1743496337560,11.824522087047,46.37896667665,28.37688,1902.2568,4.80000795648,1
2025-04-01T10:32:17.650,1743496337650,11.8245279555076,46.3789664650209,28.4988,1902.2568,4.80000795648,1
2025-04-01T10:32:17.760,1743496337760,11.8245342938223,46.378966394849,28.59024,1902.2568,4.80000795648,1
2025-04-01T10:32:17.860,1743496337860,11.8245413350812,46.3789664097682,28.59024,1902.2568,4.80000795648,1
2025-04-01T10:32:17.960,1743496337960,11.8245477380493,46.378966360259,28.68168,1902.5616,4.90000812224,1
2025-04-01T10:32:18.070,1743496338070,11.8245539594716,46.3789663887239,28.77312,1902.5616,4.90000812224,1
2025-04-01T10:32:18.170,1743496338170,11.8245603630356,46.3789663407499,28.77312,1902.5616,4.90000812224,1
2025-04-01T10:32:18.270,1743496338270,11.8245663322005,46.3789663109602,28.89504,1902.5616,4.90000812224,1
2025-04-01T10:32:18.370,1743496338370,11.8245727284153,46.3789662648724,28.98648,1902.8664,4.90000812224,1
2025-04-01T10:32:18.480,1743496338480,11.8245798992788,46.378966196597,28.98648,1902.8664,4.90000812224,1
2025-04-01T10:32:18.580,1743496338580,11.8245863921261,46.378966148699,29.07792,1902.8664,4.90000812224,1
2025-04-01T10:32:18.680,1743496338680,11.824592342322,46.3789660745174,29.07792,1902.8664,4.90000812224,1
2025-04-01T10:32:18.780,1743496338780,11.8245988104401,46.3789660277038,29.19984,1902.8664,4.90000812224,1
2025-04-01T10:32:18.890,1743496338890,11.8246053606908,46.3789659801976,29.29128,1903.1712,4.90000812224,1
2025-04-01T10:32:18.950,1743496338950,11.8246118357608,46.378965924909,29.29128,1903.1712,4.90000812224,1
2025-04-01T10:32:19.050,1743496339050,11.8246182463762,46.3789658610892,29.38272,1903.1712,4.90000812224,1
2025-04-01T10:32:19.150,1743496339150,11.8246246905596,46.3789657871249,29.47416,1903.1712,4.90000812224,1
2025-04-01T10:32:19.250,1743496339250,11.8246313324771,46.3789657103718,29.47416,1903.1712,4.90000812224,1
2025-04-01T10:32:19.350,1743496339350,11.82463777239,46.3789656288034,29.59608,1903.476,4.90000812224,1
2025-04-01T10:32:19.450,1743496339450,11.8246443029766,46.378965438057,29.68752,1903.476,4.90000812224,1
2025-04-01T10:32:19.550,1743496339550,11.8246507828137,46.3789653582308,29.68752,1903.476,4.90000812224,1
2025-04-01T10:32:19.650,1743496339650,11.8246574225463,46.3789653857285,29.77896,1903.476,4.90000812224,1
2025-04-01T10:32:19.750,1743496339750,11.8246639413145,46.3789653090947,29.8704,1903.7808,5.00100786944,1
2025-04-01T10:32:19.850,1743496339850,11.8246705072568,46.378965327611,29.8704,1903.7808,4.90102826752,1
2025-04-01T10:32:19.950,1743496339950,11.824676980142,46.3789652496631,29.99232,1903.7808,4.90102826752,1
2025-04-01T10:32:20.010,1743496340010,11.8246835351597,46.3789650592475,29.99232,1903.7808,4.90102826752,1
2025-04-01T10:32:20.150,1743496340150,11.8246899360423,46.378964968785,30.08376,1903.7808,4.90102826752,1
2025-04-01T10:32:20.210,1743496340210,11.8246962678023,46.3789648166405,30.1752,1904.0856,4.80104911264,1
2025-04-01T10:32:20.310,1743496340310,11.8247026386921,46.3789647115531,30.29712,1904.0856,4.80104911264,1
2025-04-01T10:32:20.410,1743496340410,11.8247085488645,46.3789645878408,30.29712,1904.0856,4.80104911264,1
2025-04-01T10:32:20.550,1743496340550,11.8247148781417,46.3789644806204,30.38856,1904.0856,4.90102826752,1
2025-04-01T10:32:20.620,1743496340620,11.8247225077363,46.3789643699555,30.48,1904.3904,4.90102826752,1
2025-04-01T10:32:20.720,1743496340720,11.8247289837995,46.378964276732,30.48,1904.3904,4.90102826752,1
2025-04-01T10:32:20.820,1743496340820,11.8247353362168,46.3789640765406,30.57144,1904.3904,4.90102826752,1
2025-04-01T10:32:20.920,1743496340920,11.8247418008589,46.3789639896933,30.69336,1904.3904,4.90102826752,1
2025-04-01T10:32:21.030,1743496341030,11.8247480999447,46.3789639712724,30.7848,1904.6952,4.90000812224,1
2025-04-01T10:32:21.130,1743496341130,11.8247545591245,46.3789639125479,30.87624,1904.6952,4.90000812224,1
2025-04-01T10:32:21.230,1743496341230,11.8247603888526,46.3789636876498,30.87624,1904.6952,4.90000812224,1
2025-04-01T10:32:21.330,1743496341330,11.8247668115843,46.3789636171488,30.99816,1904.6952,4.90000812224,1
2025-04-01T10:32:21.430,1743496341430,11.8247739032946,46.3789636278923,31.0896,1905,4.90000812224,1
2025-04-01T10:32:21.550,1743496341550,11.8247804196792,46.3789635595746,31.18104,1905,4.90000812224,1
2025-04-01T10:32:21.640,1743496341640,11.8247867770623,46.3789633716812,31.18104,1905,4.90000812224,1
2025-04-01T10:32:21.740,1743496341740,11.8247932702075,46.378963303113,31.27248,1905,4.90000812224,1
2025-04-01T10:32:21.840,1743496341840,11.8247996358336,46.3789633281692,31.3944,1905.3048,4.90000812224,1
2025-04-01T10:32:21.950,1743496341950,11.8248060983901,46.3789632641846,31.3944,1905.3048,4.90000812224,1
2025-04-01T10:32:22.050,1743496342050,11.8248127454719,46.378963241308,31.48584,1905.3048,4.90000812224,1
2025-04-01T10:32:22.150,1743496342150,11.8248192463636,46.3789631515846,31.57728,1905.3048,4.90102826752,1
2025-04-01T10:32:22.250,1743496342250,11.8248251487895,46.3789629147467,31.6992,1905.6096,4.90102826752,1
2025-04-01T10:32:22.350,1743496342350,11.824831592675,46.3789627839394,31.6992,1905.6096,4.90102826752,1
2025-04-01T10:32:22.450,1743496342450,11.8248382172125,46.3789627373774,31.79064,1905.6096,4.90102826752,1
2025-04-01T10:32:22.550,1743496342550,11.8248446531529,46.3789626114154,31.88208,1905.6096,4.90102826752,1
2025-04-01T10:32:22.660,1743496342660,11.8248516904392,46.3789625042196,31.88208,1905.6096,4.90102826752,1
2025-04-01T10:32:22.760,1743496342760,11.8248581541874,46.3789624033716,31.97352,1905.9144,4.90102826752,1
2025-04-01T10:32:22.860,1743496342860,11.8248645826793,46.3789622453209,32.09544,1905.9144,4.80104911264,1
2025-04-01T10:32:22.960,1743496342960,11.8248709796886,46.3789621552571,32.09544,1905.9144,4.80104911264,1
2025-04-01T10:32:23.060,1743496343060,11.8248774035126,46.3789621317874,32.18688,1905.9144,4.80104911264,1
2025-04-01T10:32:23.160,1743496343160,11.8248837726147,46.3789620321674,32.27832,1906.2192,4.80104911264,1
2025-04-01T10:32:23.260,1743496343260,11.8248896823899,46.37896175813,32.36976,1906.2192,4.80104911264,1
2025-04-01T10:32:23.360,1743496343360,11.8248960335161,46.3789616209572,32.36976,1906.2192,4.80104911264,1
2025-04-01T10:32:23.470,1743496343470,11.8249030411076,46.3789614830738,32.49168,1906.2192,4.80104911264,1
2025-04-01T10:32:23.570,1743496343570,11.8249094916471,46.3789613485752,32.49168,1906.2192,4.90102826752,1
2025-04-01T10:32:23.670,1743496343670,11.8249159736691,46.3789613098951,32.58312,1906.524,4.90102826752,1
2025-04-01T10:32:23.770,1743496343770,11.8249224259963,46.3789612159835,32.67456,1906.524,4.90102826752,1
2025-04-01T10:32:23.870,1743496343870,11.8249282891932,46.3789610841238,32.67456,1906.524,4.90102826752,1
2025-04-01T10:32:23.970,1743496343970,11.8249346765691,46.3789609905663,32.79648,1906.524,4.90102826752,1
2025-04-01T10:32:24.070,1743496344070,11.8249410525238,46.3789607960829,32.88792,1906.8288,4.90102826752,1
2025-04-01T10:32:24.180,1743496344180,11.8249474603583,46.3789606985986,32.88792,1906.8288,4.90102826752,1
2025-04-01T10:32:24.280,1743496344280,11.8249542009939,46.3789606210575,32.97936,1906.8288,4.90102826752,1
2025-04-01T10:32:24.380,1743496344380,11.8249606614648,46.3789605488701,33.0708,1906.8288,4.90000812224,1
2025-04-01T10:32:24.480,1743496344480,11.8249667074987,46.3789605174952,33.0708,1906.8288,4.90000812224,1
2025-04-01T10:32:24.580,1743496344580,11.8249731292371,46.3789604874962,33.19272,1907.1336,4.90000812224,1
2025-04-01T10:32:24.680,1743496344680,11.8249802677243,46.3789604390854,33.28416,1907.1336,4.90000812224,1
2025-04-01T10:32:24.790,1743496344790,11.8249867518319,46.3789604022617,33.28416,1907.1336,4.90000812224,1
2025-04-01T10:32:24.850,1743496344850,11.8249932729837,46.3789603753569,33.3756,1907.1336,4.90000812224,1
2025-04-01T10:32:24.950,1743496344950,11.8249997400093,46.3789603300201,33.49752,1907.1336,4.90000812224,1
2025-04-01T10:32:25.050,1743496345050,11.8250062345449,46.3789602162281,33.49752,1907.1336,4.90000812224,1
2025-04-01T10:32:25.150,1743496345150,11.8250126828995,46.3789601534256,33.58896,1907.4384,4.90000812224,1
2025-04-01T10:32:25.250,1743496345250,11.8250193254129,46.3789602236077,33.58896,1907.4384,4.90000812224,1
2025-04-01T10:32:25.350,1743496345350,11.8250257820106,46.3789601690832,33.6804,1907.4384,4.90000812224,1
2025-04-01T10:32:25.450,1743496345450,11.8250321634276,46.3789599445218,33.6804,1907.4384,4.90000812224,1
2025-04-01T10:32:25.550,1743496345550,11.8250386030426,46.3789598852177,33.77184,1907.4384,4.90000812224,1
2025-04-01T10:32:25.650,1743496345650,11.8250456513527,46.3789598900991,33.77184,1907.4384,4.90000812224,1
2025-04-01T10:32:25.750,1743496345750,11.8250521391349,46.3789598504889,33.89376,1907.7432,4.90000812224,1
2025-04-01T10:32:25.850,1743496345850,11.8250584736758,46.3789597014784,33.89376,1907.7432,4.90000812224,1
2025-04-01T10:32:25.950,1743496345950,11.825064922527,46.378959655128,33.9852,1907.7432,4.90000812224,1
2025-04-01T10:32:26.050,1743496346050,11.825071267893,46.3789596366435,33.9852,1907.7432,4.80000795648,1
2025-04-01T10:32:26.150,1743496346150,11.8250776876452,46.3789595988457,34.07664,1907.7432,4.80000795648,1
2025-04-01T10:32:26.250,1743496346250,11.8250840594288,46.3789597098314,34.07664,1907.7432,4.80000795648,1
2025-04-01T10:32:26.350,1743496346350,11.8250904782872,46.3789596931114,34.19856,1908.048,4.80000795648,1
2025-04-01T10:32:26.450,1743496346450,11.8250959898134,46.3789596269497,34.19856,1908.048,4.80000795648,1
2025-04-01T10:32:26.510,1743496346510,11.8251023330939,46.3789596004726,34.29,1908.048,4.90000812224,1
2025-04-01T10:32:26.620,1743496346620,11.8251091946938,46.3789594876664,34.29,1908.048,4.90000812224,1
2025-04-01T10:32:26.750,1743496346750,11.8251156182696,46.3789594465491,34.38144,1908.048,4.90000812224,1
2025-04-01T10:32:26.850,1743496346850,11.8251226111626,46.3789594824891,34.47288,1908.3528,4.90000812224,1
2025-04-01T10:32:26.950,1743496346950,11.8251291361379,46.3789594309478,34.47288,1908.3528,4.90000812224,1
2025-04-01T10:32:27.020,1743496347020,11.8251356716901,46.3789593187421,34.5948,1908.3528,4.90000812224,1
2025-04-01T10:32:27.150,1743496347150,11.8251421978572,46.3789592426315,34.5948,1908.3528,4.90000812224,1
2025-04-01T10:32:27.250,1743496347250,11.8251482602282,46.3789591321268,34.68624,1908.3528,4.90000812224,1
2025-04-01T10:32:27.350,1743496347350,11.8251547258635,46.3789590399489,34.68624,1908.3528,4.90102826752,1
2025-04-01T10:32:27.450,1743496347450,11.8251617266519,46.3789588338965,34.77768,1908.6576,4.90102826752,1
2025-04-01T10:32:27.550,1743496347550,11.8251682649849,46.378958725071,34.77768,1908.6576,4.90102826752,1
2025-04-01T10:32:27.630,1743496347630,11.825174758875,46.3789587490788,34.8996,1908.6576,4.90102826752,1
2025-04-01T10:32:27.730,1743496347730,11.825181316028,46.3789586705591,34.8996,1908.6576,5.00100786944,1
2025-04-01T10:32:27.830,1743496347830,11.8251874643056,46.3789586057283,34.99104,1908.6576,5.00100786944,1
2025-04-01T10:32:27.940,1743496347940,11.8251939861028,46.37895854157,34.99104,1908.6576,5.00100786944,1
2025-04-01T10:32:28.040,1743496348040,11.8252010808422,46.3789583108203,35.08248,1908.9624,5.00100786944,1
2025-04-01T10:32:28.140,1743496348140,11.8252076331289,46.3789582337937,35.08248,1908.9624,5.00100786944,1
2025-04-01T10:32:28.240,1743496348240,11.8252137705315,46.3789582647161,35.17392,1908.9624,5.00100786944,1
2025-04-01T10:32:28.340,1743496348340,11.8252202662092,46.3789582063066,35.17392,1908.9624,4.90000812224,1
2025-04-01T10:32:28.440,1743496348440,11.8252263130376,46.3789580749214,35.29584,1908.9624,4.90000812224,1
2025-04-01T10:32:28.550,1743496348550,11.8252327472897,46.3789580405192,35.29584,1908.9624,4.90000812224,1
2025-04-01T10:32:28.650,1743496348650,11.8252400430404,46.3789579424578,35.29584,1908.9624,4.90000812224,1
2025-04-01T10:32:28.750,1743496348750,11.8252465639439,46.3789579219593,35.38728,1909.2672,4.90000812224,1
2025-04-01T10:32:28.850,1743496348850,11.8252536796385,46.3789579316012,35.38728,1909.2672,4.90000812224,1
2025-04-01T10:32:28.950,1743496348950,11.8252602634077,46.3789579225131,35.47872,1909.2672,4.90000812224,1
2025-04-01T10:32:29.060,1743496349060,11.8252664452533,46.3789578690181,35.47872,1909.2672,4.90000812224,1
2025-04-01T10:32:29.160,1743496349160,11.8252729579634,46.3789578692349,35.57016,1909.2672,4.90000812224,1
2025-04-01T10:32:29.260,1743496349260,11.8252794345728,46.3789579540731,35.57016,1909.2672,4.90000812224,1
2025-04-01T10:32:29.360,1743496349360,11.8252859196239,46.378957979527,35.69208,1909.572,4.90000812224,1
2025-04-01T10:32:29.460,1743496349460,11.8252926129364,46.3789580165687,35.69208,1909.572,4.90000812224,1
2025-04-01T10:32:29.570,1743496349570,11.8252991338895,46.3789580589427,35.69208,1909.572,4.90000812224,1
2025-04-01T10:32:29.670,1743496349670,11.8253057787864,46.3789580492186,35.78352,1909.572,4.90000812224,1
2025-04-01T10:32:29.770,1743496349770,11.8253123112103,46.3789580982029,35.78352,1909.572,4.90000812224,1
2025-04-01T10:32:29.870,1743496349870,11.8253189353505,46.3789580559016,35.87496,1909.572,4.90000812224,1
2025-04-01T10:32:29.980,1743496349980,11.8253254234804,46.3789581059123,35.87496,1909.572,4.90000812224,1
2025-04-01T10:32:30.080,1743496350080,11.8253320183727,46.3789582348891,35.87496,1909.572,4.90000812224,1
2025-04-01T10:32:30.180,1743496350180,11.8253384634003,46.3789583106765,35.99688,1909.8768,4.90000812224,1
2025-04-01T10:32:30.280,1743496350280,11.8253449031146,46.378958273601,35.99688,1909.8768,4.80104911264,1
2025-04-01T10:32:30.380,1743496350380,11.8253513323016,46.3789583649155,36.08832,1909.8768,4.80104911264,1
2025-04-01T10:32:30.480,1743496350480,11.8253574633979,46.3789586301065,36.08832,1909.8768,4.80104911264,1
2025-04-01T10:32:30.580,1743496350580,11.8253638792272,46.3789587717234,36.17976,1909.8768,4.90102826752,1
2025-04-01T10:32:30.690,1743496350690,11.8253708655654,46.378958852408,36.17976,1909.8768,4.90102826752,1
2025-04-01T10:32:30.750,1743496350750,11.8253773293137,46.3789590343859,36.2712,1910.1816,4.90408780928,1
2025-04-01T10:32:30.850,1743496350850,11.825383891929,46.3789592070811,36.2712,1910.1816,4.80417258112,1
2025-04-01T10:32:30.950,1743496350950,11.8253903170938,46.3789594015679,36.2712,1910.1816,4.80417258112,1
2025-04-01T10:32:31.050,1743496351050,11.8253966178679,46.3789595882378,36.39312,1910.1816,4.80417258112,1
2025-04-01T10:32:31.150,1743496351150,11.8254030080742,46.3789597578542,36.39312,1910.1816,4.80104911264,1
2025-04-01T10:32:31.250,1743496351250,11.8254094568757,46.3789599148468,36.48456,1910.1816,4.80104911264,1
2025-04-01T10:32:31.350,1743496351350,11.8254158443013,46.3789600646314,36.48456,1910.1816,4.80104911264,1
2025-04-01T10:32:31.450,1743496351450,11.825422887894,46.3789602435675,36.48456,1910.1816,4.80104911264,1
2025-04-01T10:32:31.550,1743496351550,11.8254293149954,46.3789604012186,36.576,1910.4864,4.80104911264,1
2025-04-01T10:32:31.650,1743496351650,11.8254350780838,46.3789605053897,36.576,1910.4864,4.80104911264,1
2025-04-01T10:32:31.750,1743496351750,11.8254414048782,46.3789606387587,36.69792,1910.4864,4.80104911264,1
2025-04-01T10:32:31.810,1743496351810,11.8254477612185,46.378960920337,36.69792,1910.4864,4.80104911264,1
2025-04-01T10:32:31.950,1743496351950,11.8254540994339,46.3789610546497,36.78936,1910.4864,4.80104911264,1
2025-04-01T10:32:32.010,1743496352010,11.8254604693802,46.3789609996256,36.78936,1910.4864,4.80104911264,1
2025-04-01T10:32:32.150,1743496352150,11.8254668352049,46.3789611128831,36.8808,1910.7912,4.80104911264,1
2025-04-01T10:32:32.250,1743496352250,11.8254734176334,46.3789612870464,36.8808,1910.7912,4.80104911264,1
2025-04-01T10:32:32.320,1743496352320,11.8254798138482,46.3789614004996,36.8808,1910.7912,4.80104911264,1
2025-04-01T10:32:32.450,1743496352450,11.8254857939376,46.3789614493833,36.97224,1910.7912,4.80104911264,1
2025-04-01T10:32:32.550,1743496352550,11.8254921396016,46.3789615477193,36.97224,1910.7912,4.80104911264,1
2025-04-01T10:32:32.620,1743496352620,11.8254989166853,46.378961626629,37.09416,1910.7912,4.80104911264,1
2025-04-01T10:32:32.720,1743496352720,11.8255052917463,46.3789617078351,37.09416,1910.7912,4.80104911264,1
2025-04-01T10:32:32.820,1743496352820,11.8255118529215,46.3789617749722,37.1856,1911.096,4.80000795648,1
2025-04-01T10:32:32.930,1743496352930,11.825518272922,46.3789618559676,37.1856,1911.096,4.80000795648,1
2025-04-01T10:32:33.050,1743496353050,11.8255250642821,46.3789619817785,37.1856,1911.096,4.80104911264,1
2025-04-01T10:32:33.150,1743496353150,11.8255315520396,46.3789620663661,37.27704,1911.096,4.80104911264,1
2025-04-01T10:32:33.240,1743496353240,11.8255374577925,46.3789620428865,37.27704,1911.096,4.80000795648,1
2025-04-01T10:32:33.340,1743496353340,11.8255439009083,46.3789621028751,37.27704,1911.096,4.80000795648,1
2025-04-01T10:32:33.450,1743496353450,11.8255504527232,46.3789622091468,37.39896,1911.096,4.90000812224,1
2025-04-01T10:32:33.550,1743496353550,11.8255569228276,46.3789622487598,37.39896,1911.096,4.90000812224,1
2025-04-01T10:32:33.640,1743496353640,11.8255635604249,46.3789622011048,37.39896,1911.096,4.90000812224,1
2025-04-01T10:32:33.740,1743496353740,11.8255700606214,46.3789622337065,37.4904,1911.4008,4.90000812224,1
2025-04-01T10:32:33.840,1743496353840,11.8255766236836,46.378962291661,37.4904,1911.4008,4.90000812224,1
2025-04-01T10:32:33.950,1743496353950,11.8255830985799,46.3789623410289,37.58184,1911.4008,4.90000812224,1
2025-04-01T10:32:34.050,1743496354050,11.8255900477002,46.378962463778,37.58184,1911.4008,4.90000812224,1
2025-04-01T10:32:34.150,1743496354150,11.825596527438,46.3789625391147,37.58184,1911.4008,4.80000795648,1
2025-04-01T10:32:34.250,1743496354250,11.8256023800828,46.3789624854018,37.67328,1911.4008,4.80000795648,1
2025-04-01T10:32:34.350,1743496354350,11.8256087851366,46.3789625627129,37.67328,1911.4008,4.80000795648,1
2025-04-01T10:32:34.460,1743496354460,11.8256148292835,46.3789626468793,37.7952,1911.7056,4.90000812224,1
2025-04-01T10:32:34.560,1743496354560,11.8256212086149,46.3789627358415,37.7952,1911.7056,4.90000812224,1
2025-04-01T10:32:34.660,1743496354660,11.8256282793203,46.3789629320295,37.88664,1911.7056,4.90102826752,1
2025-04-01T10:32:34.760,1743496354760,11.825634747935,46.3789630426971,37.88664,1911.7056,4.90102826752,1
2025-04-01T10:32:34.860,1743496354860,11.8256411413938,46.3789630224099,37.88664,1911.7056,4.90102826752,1
2025-04-01T10:32:34.970,1743496354970,11.8256475921319,46.3789631209672,37.97808,1911.7056,4.90102826752,1
2025-04-01T10:32:35.070,1743496355070,11.8256541806185,46.3789632403557,37.97808,1911.7056,4.90000812224,1
2025-04-01T10:32:35.170,1743496355170,11.8256606088869,46.3789633212313,38.1,1912.0104,4.80000795648,1
2025-04-01T10:32:35.270,1743496355270,11.8256669632409,46.3789633828481,38.1,1912.0104,4.80000795648,1
2025-04-01T10:32:35.380,1743496355380,11.8256733669042,46.3789634504876,38.19144,1912.0104,4.80000795648,1
2025-04-01T10:32:35.480,1743496355480,11.8256797961906,46.3789635318238,38.19144,1912.0104,4.80000795648,1
2025-04-01T10:32:35.580,1743496355580,11.8256862060362,46.378963597084,38.19144,1912.0104,4.80000795648,1
2025-04-01T10:32:35.680,1743496355680,11.825692685054,46.3789636013373,38.28288,1912.0104,4.80000795648,1
2025-04-01T10:32:35.780,1743496355780,11.8256991006102,46.3789636447936,38.28288,1912.0104,4.80000795648,1
2025-04-01T10:32:35.880,1743496355880,11.8257056440827,46.3789637718412,38.37432,1912.3152,4.80000795648,1
2025-04-01T10:32:35.990,1743496355990,11.8257120502786,46.3789638199319,38.37432,1912.3152,4.80000795648,1
2025-04-01T10:32:36.050,1743496356050,11.82571887692,46.3789638335654,38.37432,1912.3152,4.80000795648,1
2025-04-01T10:32:36.150,1743496356150,11.8257253137542,46.3789638895096,38.49624,1912.3152,4.80000795648,1
2025-04-01T10:32:36.250,1743496356250,11.8257312522807,46.3789639584852,38.49624,1912.3152,4.80000795648,1
2025-04-01T10:32:36.350,1743496356350,11.8257376426981,46.3789640307168,38.58768,1912.3152,4.80000795648,1
2025-04-01T10:32:36.450,1743496356450,11.8257435316049,46.3789641185105,38.58768,1912.3152,4.80000795648,1
2025-04-01T10:32:36.550,1743496356550,11.8257498815021,46.3789642053573,38.67912,1912.62,4.80000795648,1
2025-04-01T10:32:36.650,1743496356650,11.8257574991666,46.3789642751074,38.67912,1912.62,4.90000812224,1
2025-04-01T10:32:36.750,1743496356750,11.8257639957009,46.3789643688202,38.77056,1912.62,4.90000812224,1
2025-04-01T10:32:36.850,1743496356850,11.8257698570605,46.3789643765207,38.77056,1912.62,4.90000812224,1
2025-04-01T10:32:36.950,1743496356950,11.8257763054524,46.3789644603383,38.89248,1912.62,4.90000812224,1
2025-04-01T10:32:37.050,1743496357050,11.8257833259049,46.3789644534317,38.89248,1912.62,4.90000812224,1
2025-04-01T10:32:37.150,1743496357150,11.8257898256793,46.3789645168586,38.89248,1912.62,4.90000812224,1
2025-04-01T10:32:37.250,1743496357250,11.8257957112219,46.378964477639,38.98392,1912.9248,4.90000812224,1
2025-04-01T10:32:37.310,1743496357310,11.8258021534811,46.3789645260744,38.98392,1912.9248,4.90000812224,1
2025-04-01T10:32:37.450,1743496357450,11.8258087311673,46.3789646998253,39.07536,1912.9248,4.90000812224,1
2025-04-01T10:32:37.550,1743496357550,11.8258151838421,46.3789647749479,39.07536,1912.9248,4.90000812224,1
2025-04-01T10:32:37.650,1743496357650,11.8258221239621,46.3789646778512,39.19728,1912.9248,4.90102826752,1
2025-04-01T10:32:37.720,1743496357720,11.8258286430282,46.378964748781,39.19728,1912.9248,4.90000812224,1
2025-04-01T10:32:37.820,1743496357820,11.8258345511709,46.3789649610952,39.28872,1913.2296,4.90102826752,1
2025-04-01T10:32:37.950,1743496357950,11.8258410122315,46.3789650396736,39.28872,1913.2296,4.90102826752,1
2025-04-01T10:32:38.020,1743496358020,11.8258476260183,46.378965014095,39.38016,1913.2296,4.90000812224,1
2025-04-01T10:32:38.120,1743496358120,11.8258540938943,46.3789650725037,39.38016,1913.2296,4.90000812224,1
2025-04-01T10:32:38.220,1743496358220,11.8258606335308,46.378965212166,39.38016,1913.2296,4.90000812224,1
2025-04-01T10:32:38.330,1743496358330,11.8258671211331,46.3789652728095,39.4716,1913.2296,4.90000812224,1
2025-04-01T10:32:38.450,1743496358450,11.82587304169,46.3789652547231,39.4716,1913.2296,4.90000812224,1
2025-04-01T10:32:38.550,1743496358550,11.8258794702066,46.3789653052354,39.59352,1913.5344,4.90000812224,1
2025-04-01T10:32:38.630,1743496358630,11.8258867343725,46.3789653315255,39.59352,1913.5344,4.90000812224,1
2025-04-01T10:32:38.730,1743496358730,11.8258932428182,46.3789653623857,39.68496,1913.5344,4.90000812224,1
2025-04-01T10:32:38.830,1743496358830,11.8258997575239,46.3789653731699,39.68496,1913.5344,4.90000812224,1
2025-04-01T10:32:38.950,1743496358950,11.8259062603336,46.3789653808468,39.68496,1913.5344,4.90000812224,1
2025-04-01T10:32:39.040,1743496359040,11.8259127477682,46.378965555036,39.7764,1913.5344,4.90000812224,1
2025-04-01T10:32:39.140,1743496359140,11.8259192190519,46.378965573138,39.7764,1913.5344,4.90000812224,1
2025-04-01T10:32:39.240,1743496359240,11.8259261715575,46.3789654742742,39.89832,1913.5344,4.90000812224,1
2025-04-01T10:32:39.340,1743496359340,11.8259326729368,46.3789654816487,39.89832,1913.5344,4.90000812224,1
2025-04-01T10:32:39.450,1743496359450,11.8259388590581,46.3789656286578,39.98976,1913.8392,4.90000812224,1
2025-04-01T10:32:39.550,1743496359550,11.8259453062278,46.3789656756255,39.98976,1913.8392,4.90000812224,1
2025-04-01T10:32:39.650,1743496359650,11.8259517593844,46.3789656922576,40.0812,1913.8392,4.80000795648,1
2025-04-01T10:32:39.750,1743496359750,11.8259581755815,46.3789657446369,40.0812,1913.8392,4.80000795648,1
2025-04-01T10:32:39.850,1743496359850,11.8259646677821,46.3789657270558,40.0812,1913.8392,4.80000795648,1
2025-04-01T10:32:39.950,1743496359950,11.8259710635341,46.3789657735819,40.17264,1913.8392,4.80000795648,1
2025-04-01T10:32:40.050,1743496360050,11.8259774762707,46.3789659841859,40.17264,1913.8392,4.80000795648,1
2025-04-01T10:32:40.150,1743496360150,11.8259838589819,46.3789660610847,40.29456,1914.144,4.80000795648,1
2025-04-01T10:32:40.260,1743496360260,11.8259903207361,46.3789661301571,40.29456,1914.144,4.80000795648,1
2025-04-01T10:32:40.360,1743496360360,11.8259966960205,46.3789662148398,40.29456,1914.144,4.80000795648,1
2025-04-01T10:32:40.460,1743496360460,11.8260025586743,46.3789662649983,40.386,1914.144,4.80000795648,1
2025-04-01T10:32:40.560,1743496360560,11.8260088655872,46.3789663651466,40.386,1914.144,4.80104911264,1
2025-04-01T10:32:40.660,1743496360660,11.8260154860498,46.3789663942977,40.386,1914.144,4.80104911264,1
2025-04-01T10:32:40.770,1743496360770,11.8260218239549,46.3789665016006,40.47744,1914.144,4.80104911264,1
2025-04-01T10:32:40.870,1743496360870,11.8260286602546,46.3789666911378,40.47744,1914.144,4.80104911264,1
2025-04-01T10:32:40.970,1743496360970,11.826035080162,46.3789668243914,40.47744,1914.144,4.80104911264,1
2025-04-01T10:32:41.080,1743496361080,11.8260414317228,46.3789669326518,40.47744,1914.144,4.80104911264,1
2025-04-01T10:32:41.180,1743496361180,11.8260478611767,46.3789670529876,40.59936,1914.4488,4.80104911264,1
2025-04-01T10:32:41.280,1743496361280,11.8260543156515,46.3789672630025,40.59936,1914.4488,4.80104911264,1
2025-04-01T10:32:41.380,1743496361380,11.8260607742355,46.3789673710066,40.59936,1914.4488,4.90102826752,1
2025-04-01T10:32:41.480,1743496361480,11.8260673404075,46.3789675273964,40.59936,1914.4488,4.90102826752,1
2025-04-01T10:32:41.550,1743496361550,11.8260738504795,46.3789676557752,40.6908,1914.4488,4.90102826752,1
2025-04-01T10:32:41.650,1743496361650,11.8260798477378,46.3789679037339,40.6908,1914.4488,4.90102826752,1
2025-04-01T10:32:41.750,1743496361750,11.8260863250424,46.3789681032789,40.6908,1914.4488,4.90408780928,1
2025-04-01T10:32:41.850,1743496361850,11.8260935508638,46.3789681709216,40.78224,1914.4488,4.90408780928,1
2025-04-01T10:32:41.950,1743496361950,11.8261001247885,46.3789684073933,40.78224,1914.4488,4.90408780928,1
2025-04-01T10:32:42.050,1743496362050,11.8261062157867,46.3789686730461,40.78224,1914.4488,4.90408780928,1
2025-04-01T10:32:42.150,1743496362150,11.8261127605379,46.3789689203762,40.87368,1914.7536,4.90408780928,1
2025-04-01T10:32:42.250,1743496362250,11.8261192868416,46.3789692681343,40.87368,1914.7536,5.00400661376,1
2025-04-01T10:32:42.350,1743496362350,11.8261258469989,46.3789695121076,40.87368,1914.7536,5.00400661376,1
2025-04-01T10:32:42.450,1743496362450,11.8261326428405,46.3789697284894,40.87368,1914.7536,5.00400661376,1
2025-04-01T10:32:42.550,1743496362550,11.8261392435552,46.378969959475,40.9956,1914.7536,5.00400661376,1
2025-04-01T10:32:42.650,1743496362650,11.826145970175,46.3789701620196,40.9956,1914.7536,5.00400661376,1
2025-04-01T10:32:42.750,1743496362750,11.8261525637142,46.3789703841094,40.9956,1914.7536,5.00400661376,1
2025-04-01T10:32:42.850,1743496362850,11.8261593159322,46.378970489581,41.08704,1914.7536,5.00400661376,1
2025-04-01T10:32:42.950,1743496362950,11.8261658974544,46.3789707096564,41.08704,1914.7536,5.00400661376,1
2025-04-01T10:32:43.050,1743496363050,11.8261725326558,46.3789710546736,41.08704,1914.7536,5.00400661376,1
2025-04-01T10:32:43.150,1743496363150,11.8261791091502,46.3789712843097,41.08704,1914.7536,5.00400661376,1
2025-04-01T10:32:43.210,1743496363210,11.8261858196191,46.3789714346917,41.17848,1915.0584,5.00400661376,1
2025-04-01T10:32:43.310,1743496363310,11.8261924019979,46.3789716446041,41.17848,1915.0584,5.00400661376,1
2025-04-01T10:32:43.420,1743496363420,11.8261991562643,46.3789717769767,41.17848,1915.0584,5.00400661376,1
2025-04-01T10:32:43.550,1743496363550,11.8262057489966,46.3789719842249,41.26992,1915.0584,5.00400661376,1
2025-04-01T10:32:43.620,1743496363620,11.8262121589167,46.378972190742,41.26992,1915.0584,5.00400661376,1
2025-04-01T10:32:43.720,1743496363720,11.8262187134627,46.3789724381786,41.26992,1915.0584,5.00400661376,1
2025-04-01T10:32:43.820,1743496363820,11.8262257862289,46.3789727338501,41.26992,1915.0584,4.90408780928,1
2025-04-01T10:32:43.950,1743496363950,11.8262323605384,46.378973015069,41.39184,1915.0584,4.9091831712,1
2025-04-01T10:32:44.050,1743496364050,11.8262378705501,46.3789731920302,41.39184,1915.0584,4.9091831712,1
2025-04-01T10:32:44.130,1743496364130,11.8262443107113,46.3789734570369,41.39184,1915.0584,4.90408780928,1
2025-04-01T10:32:44.230,1743496364230,11.8262513651789,46.3789735561051,41.48328,1915.3632,4.90408780928,1
2025-04-01T10:32:44.330,1743496364330,11.8262578320307,46.3789737915259,41.48328,1915.3632,4.90408780928,1
2025-04-01T10:32:44.450,1743496364450,11.826264267127,46.3789739938051,41.48328,1915.3632,4.90408780928,1
2025-04-01T10:32:44.540,1743496364540,11.8262707410797,46.3789742282998,41.57472,1915.3632,4.90408780928,1
2025-04-01T10:32:44.650,1743496364650,11.8262767973678,46.3789744789892,41.57472,1915.3632,4.90408780928,1
2025-04-01T10:32:44.740,1743496364740,11.8262832319674,46.37897473616,41.57472,1915.3632,4.90408780928,1
2025-04-01T10:32:44.840,1743496364840,11.8262897091231,46.3789750480432,41.57472,1915.3632,4.9091831712,1
2025-04-01T10:32:44.940,1743496364940,11.8262961323264,46.378975324257,41.69664,1915.3632,4.9091831712,1
2025-04-01T10:32:45.050,1743496365050,11.8263033546842,46.3789754890323,41.69664,1915.3632,4.9091831712,1
2025-04-01T10:32:45.150,1743496365150,11.8263098520254,46.3789757606633,41.69664,1915.3632,4.9091831712,1
2025-04-01T10:32:45.250,1743496365250,11.8263163301742,46.3789760181631,41.69664,1915.3632,4.9091831712,1
2025-04-01T10:32:45.350,1743496365350,11.8263228126432,46.3789762876803,41.78808,1915.668,4.9091831712,1
2025-04-01T10:32:45.450,1743496365450,11.8263292700105,46.3789763705966,41.78808,1915.668,4.9091831712,1
2025-04-01T10:32:45.550,1743496365550,11.8263357264344,46.3789766268376,41.78808,1915.668,4.9091831712,1
2025-04-01T10:32:45.650,1743496365650,11.8263420501252,46.3789770283577,41.78808,1915.668,4.9091831712,1
2025-04-01T10:32:45.760,1743496365760,11.8263484738003,46.3789773114979,41.87952,1915.668,4.80937344448,1
2025-04-01T10:32:45.860,1743496365860,11.8263543784856,46.3789775362782,41.87952,1915.668,4.80937344448,1
2025-04-01T10:32:45.960,1743496365960,11.8263607579909,46.3789778293333,41.87952,1915.668,4.9091831712,1
2025-04-01T10:32:46.060,1743496366060,11.826367785892,46.3789782452416,41.87952,1915.668,4.80937344448,1
2025-04-01T10:32:46.170,1743496366170,11.8263742084498,46.3789785726796,41.87952,1915.668,4.80937344448,1
2025-04-01T10:32:46.270,1743496366270,11.8263805156545,46.3789787844703,41.87952,1915.668,4.81664544416,1
2025-04-01T10:32:46.370,1743496366370,11.8263869102057,46.3789791162398,41.97096,1915.668,4.81664544416,1
2025-04-01T10:32:46.470,1743496366470,11.8263928705317,46.3789794368182,41.97096,1915.668,4.81664544416,1
2025-04-01T10:32:46.570,1743496366570,11.8263992378958,46.3789797745635,41.97096,1915.668,4.81664544416,1
2025-04-01T10:32:46.670,1743496366670,11.8264063389913,46.3789802376718,41.97096,1915.668,4.91630720064,1
2025-04-01T10:32:46.770,1743496366770,11.8264128386912,46.3789805807179,41.97096,1915.668,4.9091831712,1
2025-04-01T10:32:46.880,1743496366880,11.8264188006062,46.3789809220671,41.97096,1915.668,4.9091831712,1
2025-04-01T10:32:46.980,1743496366980,11.8264253025903,46.3789812545736,41.97096,1915.668,4.9091831712,1
2025-04-01T10:32:47.080,1743496367080,11.8264329155002,46.3789814794096,41.97096,1915.668,4.9091831712,1
2025-04-01T10:32:47.180,1743496367180,11.8264395310498,46.3789817885802,41.97096,1915.668,4.9091831712,1
2025-04-01T10:32:47.280,1743496367280,11.8264454255306,46.3789821406179,41.97096,1915.668,4.9091831712,1
2025-04-01T10:32:47.380,1743496367380,11.8264519524425,46.3789824278305,42.09288,1915.9728,4.9091831712,1
2025-04-01T10:32:47.450,1743496367450,11.8264584267181,46.3789826422082,42.09288,1915.9728,4.9091831712,1
2025-04-01T10:32:47.550,1743496367550,11.8264648984611,46.3789829146311,42.09288,1915.9728,4.9091831712,1
2025-04-01T10:32:47.650,1743496367650,11.8264712533117,46.3789831893836,42.09288,1915.9728,4.9091831712,1
2025-04-01T10:32:47.750,1743496367750,11.8264777061354,46.3789834842046,42.09288,1915.9728,4.9091831712,1
2025-04-01T10:32:47.850,1743496367850,11.8264841998765,46.3789838777496,42.09288,1915.9728,4.9091831712,1
2025-04-01T10:32:47.950,1743496367950,11.826490667796,46.3789842206919,42.09288,1915.9728,4.91630720064,1
2025-04-01T10:32:48.050,1743496368050,11.8264970872502,46.3789846340207,42.18432,1915.9728,4.91630720064,1
2025-04-01T10:32:48.150,1743496368150,11.8265035569574,46.378985019163,42.18432,1915.9728,4.91630720064,1
2025-04-01T10:32:48.250,1743496368250,11.8265101382933,46.3789853497125,42.18432,1915.9728,4.91630720064,1
2025-04-01T10:32:48.350,1743496368350,11.826516605319,46.3789857272517,42.18432,1915.9728,4.91630720064,1
2025-04-01T10:32:48.450,1743496368450,11.8265226395345,46.3789860322451,42.18432,1915.9728,4.91630720064,1
2025-04-01T10:32:48.550,1743496368550,11.8265290023301,46.3789863956006,42.18432,1915.9728,4.81664544416,1
2025-04-01T10:32:48.650,1743496368650,11.8265360163273,46.3789868644235,42.18432,1915.9728,4.81664544416,1
2025-04-01T10:32:48.750,1743496368750,11.8265424035045,46.3789872538919,42.27576,1915.9728,4.81664544416,1
2025-04-01T10:32:48.850,1743496368850,11.8265489098585,46.3789877221934,42.27576,1915.9728,4.81664544416,1
2025-04-01T10:32:48.950,1743496368950,11.8265552710651,46.378988115747,42.27576,1915.9728,4.81664544416,1
2025-04-01T10:32:49.020,1743496369020,11.826561591851,46.3789883833503,42.27576,1915.9728,4.81664544416,1
2025-04-01T10:32:49.150,1743496369150,11.8265679207806,46.3789887633475,42.27576,1915.9728,4.81664544416,1
2025-04-01T10:32:49.220,1743496369220,11.8265742055155,46.3789893051531,42.27576,1915.9728,4.81664544416,1
2025-04-01T10:32:49.320,1743496369320,11.8265805238185,46.3789897079498,42.27576,1915.9728,4.81664544416,1
2025-04-01T10:32:49.420,1743496369420,11.826586906328,46.3789899600858,42.27576,1915.9728,4.81664544416,1
2025-04-01T10:32:49.550,1743496369550,11.8265932122664,46.378990355697,42.27576,1915.9728,4.81664544416,1
2025-04-01T10:32:49.650,1743496369650,11.8265995890157,46.3789907907794,42.27576,1915.9728,4.81664544416,1
2025-04-01T10:32:49.730,1743496369730,11.826605926536,46.3789911745909,42.27576,1915.9728,4.81664544416,1
2025-04-01T10:32:49.830,1743496369830,11.8266124072669,46.3789915663974,42.27576,1915.9728,4.81664544416,1
2025-04-01T10:32:49.950,1743496369950,11.8266188955954,46.378991964473,42.39768,1916.2776,4.91630720064,1
2025-04-01T10:32:50.030,1743496370030,11.8266255136279,46.3789924081305,42.39768,1916.2776,5.01598236832,1
2025-04-01T10:32:50.140,1743496370140,11.8266321394069,46.3789928232342,42.39768,1916.2776,5.01598236832,1
2025-04-01T10:32:50.240,1743496370240,11.8266388299386,46.3789931510517,42.39768,1916.2776,5.01598236832,1
2025-04-01T10:32:50.340,1743496370340,11.8266455053745,46.3789935423935,42.39768,1916.2776,5.01598236832,1
2025-04-01T10:32:50.450,1743496370450,11.8266516359245,46.3789939034859,42.39768,1916.2776,5.01598236832,1
2025-04-01T10:32:50.550,1743496370550,11.8266582630442,46.3789942843192,42.48912,1916.2776,5.01598236832,1
2025-04-01T10:32:50.650,1743496370650,11.8266655256738,46.3789947004978,42.48912,1916.2776,5.01598236832,1
2025-04-01T10:32:50.750,1743496370750,11.8266722311522,46.3789950969205,42.48912,1916.2776,5.11567050016,1
2025-04-01T10:32:50.850,1743496370850,11.8266789712415,46.3789955474423,42.48912,1916.2776,5.11567050016,1
2025-04-01T10:32:50.950,1743496370950,11.826685654126,46.3789959434132,42.48912,1916.2776,5.01598236832,1
2025-04-01T10:32:51.050,1743496371050,11.8266924688994,46.3789961872567,42.48912,1916.2776,5.01598236832,1
2025-04-01T10:32:51.160,1743496371160,11.8266990839028,46.3789965550507,42.48912,1916.2776,5.01598236832,1
2025-04-01T10:32:51.260,1743496371260,11.8267056104175,46.37899710714,42.48912,1916.2776,4.91630720064,1
2025-04-01T10:32:51.360,1743496371360,11.8267121343997,46.3789974954414,42.58056,1916.2776,4.91630720064,1
2025-04-01T10:32:51.460,1743496371460,11.8267187386771,46.3789977713844,42.58056,1916.2776,4.91630720064,1
2025-04-01T10:32:51.560,1743496371560,11.8267252208978,46.3789981508131,42.58056,1916.2776,4.91630720064,1
2025-04-01T10:32:51.660,1743496371660,11.8267317121561,46.3789987691416,42.58056,1916.2776,4.81664544416,1
2025-04-01T10:32:51.770,1743496371770,11.8267381515724,46.3789991482556,42.58056,1916.2776,4.81664544416,1
2025-04-01T10:32:51.870,1743496371870,11.8267440126837,46.3789994963151,42.58056,1916.2776,4.81664544416,1
2025-04-01T10:32:51.970,1743496371970,11.8267503423085,46.3789998529496,42.58056,1916.2776,4.81664544416,1
2025-04-01T10:32:52.070,1743496372070,11.8267573611224,46.3790002782772,42.58056,1916.2776,4.81664544416,1
2025-04-01T10:32:52.170,1743496372170,11.8267637513287,46.3790006347212,42.58056,1916.2776,4.81664544416,1
2025-04-01T10:32:52.270,1743496372270,11.8267707116963,46.3790009449132,42.58056,1916.2776,4.80937344448,1
2025-04-01T10:32:52.380,1743496372380,11.8267771686416,46.3790012647551,42.672,1916.5824,4.80937344448,1
2025-04-01T10:32:52.480,1743496372480,11.8267825537909,46.3790014857166,42.672,1916.5824,4.80937344448,1
2025-04-01T10:32:52.580,1743496372580,11.8267888804859,46.3790017670637,42.672,1916.5824,4.80937344448,1
2025-04-01T10:32:52.680,1743496372680,11.8267958074344,46.379001951481,42.672,1916.5824,4.80937344448,1
2025-04-01T10:32:52.780,1743496372780,11.8268021556806,46.379002212539,42.672,1916.5824,4.80937344448,1
2025-04-01T10:32:52.890,1743496372890,11.8268078651395,46.3790024962819,42.79392,1916.5824,4.80937344448,1
2025-04-01T10:32:52.950,1743496372950,11.8268141750505,46.3790027788087,42.79392,1916.5824,4.80937344448,1
2025-04-01T10:32:53.050,1743496373050,11.8268212285249,46.3790032104932,42.79392,1916.5824,4.80937344448,1
2025-04-01T10:32:53.150,1743496373150,11.8268276377499,46.3790035331892,42.79392,1916.5824,4.80937344448,1
2025-04-01T10:32:53.250,1743496373250,11.8268340184717,46.379003766293,42.88536,1916.5824,4.80937344448,1
2025-04-01T10:32:53.350,1743496373350,11.82684041707,46.3790040882396,42.88536,1916.5824,4.80937344448,1
2025-04-01T10:32:53.450,1743496373450,11.8268468745615,46.3790043817502,42.88536,1916.5824,4.80937344448,1
2025-04-01T10:32:53.550,1743496373550,11.8268532615401,46.3790046891673,42.88536,1916.5824,4.80937344448,1
2025-04-01T10:32:53.650,1743496373650,11.8268596497105,46.3790049269665,42.88536,1916.5824,4.80937344448,1
2025-04-01T10:32:53.750,1743496373750,11.8268660210968,46.3790052285406,42.9768,1916.8872,4.80937344448,1
2025-04-01T10:32:53.850,1743496373850,11.8268719032627,46.3790056458026,42.9768,1916.8872,4.80937344448,1
2025-04-01T10:32:53.950,1743496373950,11.8268782302557,46.3790059803774,42.9768,1916.8872,4.80937344448,1
2025-04-01T10:32:54.050,1743496374050,11.8268848833956,46.3790061658224,42.9768,1916.8872,4.81664544416,1
2025-04-01T10:32:54.110,1743496374110,11.8268912728571,46.3790065210139,42.9768,1916.8872,4.91630720064,1
2025-04-01T10:32:54.250,1743496374250,11.8268981063512,46.3790070531095,42.9768,1916.8872,4.91630720064,1
2025-04-01T10:32:54.350,1743496374350,11.8269045485483,46.3790074294701,42.9768,1916.8872,4.9091831712,1
2025-04-01T10:32:54.450,1743496374450,11.8269109963071,46.3790078025762,43.09872,1916.8872,4.9091831712,1
2025-04-01T10:32:54.550,1743496374550,11.8269160030206,46.3790078958553,43.09872,1916.8872,4.9091831712,1
2025-04-01T10:32:54.650,1743496374650,11.8269239181427,46.3790083033325,43.09872,1916.8872,4.80937344448,1
2025-04-01T10:32:54.750,1743496374750,11.8269302981694,46.3790086431123,43.09872,1916.8872,4.80937344448,1
2025-04-01T10:32:54.850,1743496374850,11.8269371757588,46.3790089689579,43.09872,1916.8872,4.80937344448,1
2025-04-01T10:32:54.920,1743496374920,11.8269435780318,46.3790093207536,43.09872,1916.8872,4.80937344448,1
2025-04-01T10:32:55.030,1743496375030,11.8269494651633,46.3790096785144,43.09872,1916.8872,4.80937344448,1
2025-04-01T10:32:55.130,1743496375130,11.8269557783517,46.3790100496699,43.19016,1916.8872,4.80937344448,1
2025-04-01T10:32:55.250,1743496375250,11.8269619733564,46.3790103106444,43.19016,1916.8872,4.71699799296,1
2025-04-01T10:32:55.330,1743496375330,11.8269682566513,46.3790106923898,43.19016,1916.8872,4.71699799296,1
2025-04-01T10:32:55.450,1743496375450,11.8269747387726,46.3790110931739,43.19016,1916.8872,4.71699799296,1
2025-04-01T10:32:55.530,1743496375530,11.8269810688444,46.3790114807303,43.19016,1916.8872,4.81664544416,1
2025-04-01T10:32:55.630,1743496375630,11.8269873671356,46.3790119630989,43.19016,1916.8872,4.81664544416,1
2025-04-01T10:32:55.740,1743496375740,11.8269937146866,46.3790123547105,43.2816,1917.192,4.81664544416,1
2025-04-01T10:32:55.840,1743496375840,11.8270000328406,46.3790126079299,43.2816,1917.192,4.81664544416,1
2025-04-01T10:32:55.940,1743496375940,11.8270063666863,46.3790129815091,43.2816,1917.192,4.81664544416,1
2025-04-01T10:32:56.050,1743496376050,11.8270127477061,46.3790132695643,43.2816,1917.192,4.81664544416,1
2025-04-01T10:32:56.140,1743496376140,11.8270191261437,46.3790136609489,43.2816,1917.192,4.81664544416,1
2025-04-01T10:32:56.250,1743496376250,11.8270255345741,46.3790140172324,43.2816,1917.192,4.81664544416,1
2025-04-01T10:32:56.340,1743496376340,11.8270319548229,46.3790144143637,43.2816,1917.192,4.81664544416,1
2025-04-01T10:32:56.450,1743496376450,11.8270378353004,46.3790147396868,43.2816,1917.192,4.91630720064,1
2025-04-01T10:32:56.550,1743496376550,11.8270442213852,46.3790151247638,43.2816,1917.192,4.91630720064,1
2025-04-01T10:32:56.650,1743496376650,11.8270507765023,46.3790153884147,43.2816,1917.192,4.91630720064,1
2025-04-01T10:32:56.750,1743496376750,11.8270572104564,46.3790157750504,43.2816,1917.192,4.91630720064,1
2025-04-01T10:32:56.850,1743496376850,11.8270638544595,46.379016238239,43.2816,1917.192,4.91630720064,1
2025-04-01T10:32:56.950,1743496376950,11.8270703615087,46.3790166641039,43.2816,1917.192,5.01598236832,1
2025-04-01T10:32:57.060,1743496377060,11.827077268793,46.3790172143625,43.2816,1917.192,5.02494596736,1
2025-04-01T10:32:57.160,1743496377160,11.8270838410914,46.3790177130334,43.2816,1917.192,5.02494596736,1
2025-04-01T10:32:57.260,1743496377260,11.8270905125051,46.3790182090537,43.19016,1916.8872,5.02494596736,1
2025-04-01T10:32:57.360,1743496377360,11.8270971036732,46.3790187126877,43.19016,1916.8872,5.02494596736,1
2025-04-01T10:32:57.460,1743496377460,11.8271037972339,46.3790191730586,43.19016,1916.8872,5.02494596736,1
2025-04-01T10:32:57.560,1743496377560,11.8271104047888,46.3790196395702,43.19016,1916.8872,5.02494596736,1
2025-04-01T10:32:57.670,1743496377670,11.8271168834341,46.3790200646258,43.19016,1916.8872,4.91630720064,1
2025-04-01T10:32:57.770,1743496377770,11.827123400514,46.3790205176656,43.19016,1916.8872,4.91630720064,1
2025-04-01T10:32:57.870,1743496377870,11.8271292184237,46.3790208287675,43.09872,1916.8872,4.91630720064,1
2025-04-01T10:32:57.970,1743496377970,11.8271355887176,46.3790212763175,43.09872,1916.8872,4.82597919232,1
2025-04-01T10:32:58.070,1743496378070,11.8271425847886,46.3790217659316,43.09872,1916.8872,4.82597919232,1
2025-04-01T10:32:58.170,1743496378170,11.82714902927,46.37902222757,43.09872,1916.8872,4.82597919232,1
2025-04-01T10:32:58.270,1743496378270,11.8271554456455,46.379022862886,43.09872,1916.8872,4.92545229792,1
2025-04-01T10:32:58.370,1743496378370,11.8271618888358,46.379023365094,42.9768,1916.8872,4.92545229792,1
2025-04-01T10:32:58.480,1743496378480,11.8271678804456,46.379023809715,42.9768,1916.8872,4.92545229792,1
2025-04-01T10:32:58.580,1743496378580,11.8271742707016,46.3790243341862,42.9768,1916.8872,4.82597919232,1
2025-04-01T10:32:58.680,1743496378680,11.8271812402557,46.3790248284422,42.9768,1916.8872,4.83736261888,1
2025-04-01T10:32:58.780,1743496378780,11.8271876719256,46.3790253863274,42.88536,1916.5824,4.83736261888,1
2025-04-01T10:32:58.880,1743496378880,11.8271934336237,46.3790259309977,42.88536,1916.5824,4.93660594592,1
2025-04-01T10:32:58.980,1743496378980,11.8271998258659,46.3790264842752,42.88536,1916.5824,4.93660594592,1
2025-04-01T10:32:59.080,1743496379080,11.8272068951313,46.3790271201179,42.79392,1916.5824,4.93660594592,1
2025-04-01T10:32:59.190,1743496379190,11.827213363746,46.3790276596924,42.79392,1916.5824,4.92545229792,1
2025-04-01T10:32:59.250,1743496379250,11.8272198823155,46.3790282876302,42.672,1916.5824,4.92545229792,1
2025-04-01T10:32:59.350,1743496379350,11.8272263543069,46.3790288127351,42.672,1916.5824,4.92545229792,1
2025-04-01T10:32:59.450,1743496379450,11.827232773066,46.3790294459956,42.58056,1916.2776,4.92545229792,1
2025-04-01T10:32:59.550,1743496379550,11.8272392325437,46.379029941198,42.58056,1916.2776,4.92545229792,1
2025-04-01T10:32:59.650,1743496379650,11.8272456255805,46.3790302506341,42.48912,1916.2776,4.91630720064,1
2025-04-01T10:32:59.750,1743496379750,11.827252052086,46.3790306735144,42.48912,1916.2776,4.91630720064,1
2025-04-01T10:32:59.850,1743496379850,11.827257971296,46.3790310091833,42.39768,1916.2776,4.91630720064,1
2025-04-01T10:32:59.950,1743496379950,11.8272643506274,46.379031375183,42.39768,1916.2776,4.9091831712,1
2025-04-01T10:33:00.050,1743496380050,11.8272718840861,46.3790319238572,42.27576,1915.9728,4.9091831712,1
2025-04-01T10:33:00.150,1743496380150,11.8272783893477,46.379032269341,42.27576,1915.9728,4.9091831712,1
2025-04-01T10:33:00.250,1743496380250,11.8272843382525,46.3790323878038,42.18432,1915.9728,4.9091831712,1
2025-04-01T10:33:00.350,1743496380350,11.8272908038877,46.3790326916988,42.18432,1915.9728,4.9091831712,1
2025-04-01T10:33:00.450,1743496380450,11.8272968369115,46.3790329771846,42.09288,1915.9728,4.9091831712,1
2025-04-01T10:33:00.550,1743496380550,11.8273032547767,46.379033325182,42.09288,1915.9728,4.91630720064,1
2025-04-01T10:33:00.650,1743496380650,11.8273099001702,46.3790336843088,41.97096,1915.668,4.91630720064,1
2025-04-01T10:33:00.720,1743496380720,11.8273163332305,46.3790341300474,41.87952,1915.668,4.92545229792,1
2025-04-01T10:33:00.850,1743496380850,11.8273228387899,46.3790346215842,41.87952,1915.668,4.92545229792,1
2025-04-01T10:33:00.950,1743496380950,11.827329265792,46.3790351553906,41.78808,1915.668,4.93660594592,1
2025-04-01T10:33:01.020,1743496381020,11.8273364008032,46.3790356692334,41.69664,1915.3632,4.93660594592,1
2025-04-01T10:33:01.150,1743496381150,11.8273428794486,46.3790362253929,41.69664,1915.3632,4.93660594592,1
2025-04-01T10:33:01.250,1743496381250,11.8273491563874,46.3790367117653,41.57472,1915.3632,4.93660594592,1
2025-04-01T10:33:01.350,1743496381350,11.8273556062317,46.3790372456959,41.48328,1915.3632,4.82597919232,1
2025-04-01T10:33:01.430,1743496381430,11.8273621468489,46.3790377874457,41.39184,1915.0584,4.82597919232,1
2025-04-01T10:33:01.530,1743496381530,11.8273685683888,46.3790383183017,41.39184,1915.0584,4.82597919232,1
2025-04-01T10:33:01.650,1743496381650,11.8273747747154,46.3790388708641,41.26992,1915.0584,4.82597919232,1
2025-04-01T10:33:01.750,1743496381750,11.8273811505708,46.3790394309846,41.17848,1915.0584,4.83736261888,1
2025-04-01T10:33:01.840,1743496381840,11.8273875698264,46.379039941149,41.08704,1914.7536,4.83736261888,1
2025-04-01T10:33:01.940,1743496381940,11.827393928004,46.3790405793555,40.9956,1914.7536,4.85078097152,1
2025-04-01T10:33:02.050,1743496382050,11.8274004611727,46.379041305073,40.9956,1914.7536,4.85078097152,1
2025-04-01T10:33:02.150,1743496382150,11.8274068775483,46.3790420086173,40.87368,1914.7536,4.94975562752,1
2025-04-01T10:33:02.240,1743496382240,11.8274133330535,46.3790426007858,40.78224,1914.4488,4.85078097152,1
2025-04-01T10:33:02.340,1743496382340,11.8274197613467,46.3790432842423,40.6908,1914.4488,4.85078097152,1
2025-04-01T10:33:02.440,1743496382440,11.8274263214295,46.3790440800166,40.59936,1914.4488,4.85078097152,1
2025-04-01T10:33:02.550,1743496382550,11.8274327436646,46.3790447485282,40.47744,1914.144,4.85078097152,1
2025-04-01T10:33:02.650,1743496382650,11.8274391861597,46.3790453834417,40.386,1914.144,4.85078097152,1
2025-04-01T10:33:02.750,1743496382750,11.8274455897237,46.3790460288636,40.29456,1914.144,4.85078097152,1
2025-04-01T10:33:02.850,1743496382850,11.8274520511878,46.3790465850959,40.17264,1913.8392,4.85078097152,1
2025-04-01T10:33:02.950,1743496382950,11.8274584412451,46.3790472754724,40.0812,1913.8392,4.85078097152,1
2025-04-01T10:33:03.060,1743496383060,11.827464724242,46.3790481864423,39.98976,1913.8392,4.86621770976,1
2025-04-01T10:33:03.160,1743496383160,11.8274710704026,46.3790489408463,39.89832,1913.5344,4.86621770976,1
2025-04-01T10:33:03.260,1743496383260,11.8274776386292,46.3790496596309,39.7764,1913.5344,4.86621770976,1
2025-04-01T10:33:03.370,1743496383370,11.8274839483415,46.3790503875538,39.68496,1913.5344,4.85078097152,1
2025-04-01T10:33:03.470,1743496383470,11.8274902655024,46.3790509907361,39.59352,1913.5344,4.85078097152,1
2025-04-01T10:33:03.570,1743496383570,11.8274965688587,46.3790516299831,39.4716,1913.2296,4.83736261888,1
2025-04-01T10:33:03.670,1743496383670,11.8275027498602,46.3790522545936,39.38016,1913.2296,4.83736261888,1
2025-04-01T10:33:03.770,1743496383770,11.827509021436,46.3790528628632,39.28872,1913.2296,4.83736261888,1
2025-04-01T10:33:03.870,1743496383870,11.8275150061932,46.3790534548433,39.19728,1912.9248,4.83736261888,1
2025-04-01T10:33:03.980,1743496383980,11.8275212522453,46.3790540821687,39.07536,1912.9248,4.83736261888,1
2025-04-01T10:33:04.080,1743496384080,11.8275280680615,46.3790547348704,38.89248,1912.62,4.83736261888,1
2025-04-01T10:33:04.180,1743496384180,11.8275344102495,46.3790553329312,38.89248,1912.62,4.83736261888,1
2025-04-01T10:33:04.280,1743496384280,11.8275401505951,46.3790561368802,38.67912,1912.62,4.83736261888,1
2025-04-01T10:33:04.380,1743496384380,11.8275464336913,46.3790567507424,38.58768,1912.3152,4.83736261888,1
2025-04-01T10:33:04.480,1743496384480,11.8275530159212,46.3790573778108,38.49624,1912.3152,4.83736261888,1
2025-04-01T10:33:04.580,1743496384580,11.8275593134179,46.3790580263246,38.37432,1912.3152,4.85078097152,1
2025-04-01T10:33:04.690,1743496384690,11.8275660895085,46.3790587015592,38.28288,1912.0104,4.85078097152,1
2025-04-01T10:33:04.750,1743496384750,11.8275724786721,46.3790593769737,38.19144,1912.0104,4.85078097152,1
2025-04-01T10:33:04.850,1743496384850,11.8275785704896,46.3790600780558,37.97808,1911.7056,4.94975562752,1
2025-04-01T10:33:04.950,1743496384950,11.8275849309514,46.3790607482974,37.88664,1911.7056,4.85078097152,1
2025-04-01T10:33:05.050,1743496385050,11.8275918711087,46.3790614489769,37.7952,1911.7056,4.85078097152,1
2025-04-01T10:33:05.150,1743496385150,11.8275982647413,46.3790621075109,37.67328,1911.4008,4.85078097152,1
2025-04-01T10:33:05.250,1743496385250,11.8276049230456,46.3790627276336,37.58184,1911.4008,4.85078097152,1
2025-04-01T10:33:05.350,1743496385350,11.8276113250206,46.3790633953059,37.4904,1911.4008,4.85078097152,1
2025-04-01T10:33:05.450,1743496385450,11.8276171454132,46.3790639726923,37.39896,1911.096,4.85078097152,1
2025-04-01T10:33:05.550,1743496385550,11.8276234653549,46.3790646169495,37.27704,1911.096,4.83736261888,1
2025-04-01T10:33:05.650,1743496385650,11.8276296836984,46.3790652696341,37.1856,1911.096,4.85078097152,1
2025-04-01T10:33:05.750,1743496385750,11.8276359639146,46.3790659283994,37.09416,1910.7912,4.75184923136,1
2025-04-01T10:33:05.850,1743496385850,11.8276419581066,46.3790666703165,36.97224,1910.7912,4.75184923136,1
2025-04-01T10:33:05.950,1743496385950,11.8276481970081,46.37906730863,36.8808,1910.7912,4.83736261888,1
2025-04-01T10:33:06.010,1743496386010,11.8276551317031,46.3790679403146,36.78936,1910.4864,4.83736261888,1
2025-04-01T10:33:06.150,1743496386150,11.8276614192684,46.3790684974119,36.69792,1910.4864,4.82597919232,1
2025-04-01T10:33:06.210,1743496386210,11.8276677650318,46.3790689279016,36.576,1910.4864,4.82597919232,1
2025-04-01T10:33:06.350,1743496386350,11.827674036111,46.3790693893345,36.39312,1910.1816,4.71699799296,1
2025-04-01T10:33:06.420,1743496386420,11.8276803719429,46.3790699364885,36.2712,1910.1816,4.71699799296,1
2025-04-01T10:33:06.550,1743496386550,11.8276866209745,46.3790703702242,36.17976,1909.8768,4.71699799296,1
2025-04-01T10:33:06.620,1743496386620,11.8276927591717,46.3790707593649,36.08832,1909.8768,4.71699799296,1
2025-04-01T10:33:06.720,1743496386720,11.8276990103881,46.3790712201384,35.99688,1909.8768,4.72652843872,1
2025-04-01T10:33:06.850,1743496386850,11.827704822637,46.3790716834726,35.87496,1909.572,4.72652843872,1
2025-04-01T10:33:06.950,1743496386950,11.8277110845794,46.3790721802679,35.78352,1909.572,4.82597919232,1
2025-04-01T10:33:07.030,1743496387030,11.8277181843341,46.379072901108,35.69208,1909.572,4.82597919232,1
2025-04-01T10:33:07.150,1743496387150,11.8277245702203,46.3790734874698,35.57016,1909.2672,4.83736261888,1
2025-04-01T10:33:07.250,1743496387250,11.8277309336615,46.379073840152,35.47872,1909.2672,4.83736261888,1
2025-04-01T10:33:07.340,1743496387340,11.8277373145819,46.3790744354379,35.38728,1909.2672,4.83736261888,1
2025-04-01T10:33:07.440,1743496387440,11.8277436144622,46.3790751406308,35.29584,1908.9624,4.83736261888,1
2025-04-01T10:33:07.550,1743496387550,11.8277499506914,46.3790757721956,35.17392,1908.9624,4.83736261888,1
2025-04-01T10:33:07.650,1743496387650,11.8277563133381,46.3790762962771,35.08248,1908.9624,4.83736261888,1
2025-04-01T10:33:07.750,1743496387750,11.82776263904,46.379076943352,34.99104,1908.6576,4.83736261888,1
2025-04-01T10:33:07.850,1743496387850,11.8277693729222,46.3790778050594,34.8996,1908.6576,4.85078097152,1
2025-04-01T10:33:07.950,1743496387950,11.8277757260348,46.3790784874454,34.77768,1908.6576,4.85078097152,1
2025-04-01T10:33:08.050,1743496388050,11.8277816546795,46.3790789855939,34.68624,1908.3528,4.85078097152,1
2025-04-01T10:33:08.150,1743496388150,11.827787955553,46.3790796578738,34.47288,1908.3528,4.85078097152,1
2025-04-01T10:33:08.250,1743496388250,11.8277941720096,46.3790803062248,34.38144,1908.048,4.85078097152,1
2025-04-01T10:33:08.360,1743496388360,11.8278004645406,46.379080972758,34.29,1908.048,4.85078097152,1
2025-04-01T10:33:08.460,1743496388460,11.8278067409828,46.3790815760859,34.19856,1908.048,4.83736261888,1
2025-04-01T10:33:08.550,1743496388550,11.8278130295413,46.3790822061348,34.07664,1907.7432,4.83736261888,1
2025-04-01T10:33:08.660,1743496388660,11.8278193355791,46.3790827686619,33.9852,1907.7432,4.73815058464,1
2025-04-01T10:33:08.760,1743496388760,11.8278256056652,46.3790833410723,33.89376,1907.7432,4.73815058464,1
2025-04-01T10:33:08.870,1743496388870,11.8278320463726,46.3790840169836,33.77184,1907.4384,4.72652843872,1
2025-04-01T10:33:08.970,1743496388970,11.8278382600484,46.3790845368171,33.58896,1907.4384,4.72652843872,1
2025-04-01T10:33:09.070,1743496389070,11.8278444421423,46.3790851333792,33.49752,1907.1336,4.71699799296,1
2025-04-01T10:33:09.170,1743496389170,11.8278505666342,46.3790856087892,33.3756,1907.1336,4.61736618816,1
2025-04-01T10:33:09.270,1743496389270,11.8278566937082,46.3790860119927,33.28416,1907.1336,4.61736618816,1
2025-04-01T10:33:09.370,1743496389370,11.8278627826457,46.3790864903745,33.19272,1907.1336,4.61736618816,1
2025-04-01T10:33:09.470,1743496389470,11.8278688598642,46.3790868073088,33.0708,1906.8288,4.61736618816,1
2025-04-01T10:33:09.580,1743496389580,11.8278749440346,46.3790872781369,32.97936,1906.8288,4.61736618816,1
2025-04-01T10:33:09.680,1743496389680,11.8278811845251,46.3790877375572,32.88792,1906.8288,4.62710137824,1
2025-04-01T10:33:09.780,1743496389780,11.8278872982911,46.3790882375898,32.79648,1906.524,4.62710137824,1
2025-04-01T10:33:09.880,1743496389880,11.8278932932776,46.3790887181128,32.67456,1906.524,4.62710137824,1
2025-04-01T10:33:09.980,1743496389980,11.8278994348515,46.3790892923132,32.58312,1906.524,4.63897297248,1
2025-04-01T10:33:10.050,1743496390050,11.827905757574,46.379089849419,32.49168,1906.2192,4.73815058464,1
2025-04-01T10:33:10.150,1743496390150,11.8279119851537,46.3790905125008,32.36976,1906.2192,4.75184923136,1
2025-04-01T10:33:10.250,1743496390250,11.8279183853411,46.3790913061555,32.27832,1906.2192,4.75184923136,1
2025-04-01T10:33:10.350,1743496390350,11.8279246456944,46.3790920302672,32.18688,1905.9144,4.75184923136,1
2025-04-01T10:33:10.450,1743496390450,11.8279308720824,46.3790927186739,31.97352,1905.9144,4.76760649728,1
2025-04-01T10:33:10.550,1743496390550,11.8279371179359,46.3790934692239,31.88208,1905.6096,4.76760649728,1
2025-04-01T10:33:10.650,1743496390650,11.8279433248584,46.3790942739266,31.79064,1905.6096,4.76760649728,1
2025-04-01T10:33:10.750,1743496390750,11.827949588787,46.3790950276198,31.6992,1905.6096,4.76760649728,1
2025-04-01T10:33:10.850,1743496390850,11.8279560994115,46.3790956829765,31.57728,1905.3048,4.76760649728,1
2025-04-01T10:33:10.950,1743496390950,11.8279624008808,46.3790964050926,31.48584,1905.3048,4.75184923136,1
2025-04-01T10:33:11.010,1743496391010,11.8279687730616,46.3790971128635,31.3944,1905.3048,4.75184923136,1
2025-04-01T10:33:11.150,1743496391150,11.8279750685721,46.3790977882608,31.27248,1905,4.75184923136,1
2025-04-01T10:33:11.210,1743496391210,11.8279813728222,46.3790984880668,31.0896,1905,4.75184923136,1
2025-04-01T10:33:11.310,1743496391310,11.8279876319837,46.3790991598842,30.99816,1904.6952,4.75184923136,1
2025-04-01T10:33:11.450,1743496391450,11.8279937240993,46.3790999588831,30.87624,1904.6952,4.75184923136,1
2025-04-01T10:33:11.550,1743496391550,11.8279999588296,46.3791006547665,30.7848,1904.6952,4.75184923136,1
2025-04-01T10:33:11.620,1743496391620,11.82800645992,46.3791012620683,30.69336,1904.3904,4.76760649728,1
2025-04-01T10:33:11.720,1743496391720,11.8280127051776,46.3791019931943,30.57144,1904.3904,4.76760649728,1
2025-04-01T10:33:11.850,1743496391850,11.8280186822876,46.3791027985393,30.48,1904.3904,4.76760649728,1
2025-04-01T10:33:11.950,1743496391950,11.8280249162234,46.3791035616362,30.38856,1904.0856,4.76760649728,1
2025-04-01T10:33:12.030,1743496392030,11.828031782789,46.3791043597015,30.29712,1904.0856,4.86621770976,1
2025-04-01T10:33:12.130,1743496392130,11.8280381178265,46.3791051006423,30.08376,1903.7808,4.86621770976,1
2025-04-01T10:33:12.250,1743496392250,11.8280446469233,46.3791058249852,29.99232,1903.7808,4.85078097152,1
2025-04-01T10:33:12.330,1743496392330,11.8280509531597,46.3791065348543,29.8704,1903.7808,4.75184923136,1
2025-04-01T10:33:12.430,1743496392430,11.8280566394784,46.3791071556964,29.77896,1903.476,4.75184923136,1
2025-04-01T10:33:12.550,1743496392550,11.8280627820454,46.3791078688457,29.68752,1903.476,4.65296353632,1
2025-04-01T10:33:12.640,1743496392640,11.8280695753174,46.3791087401024,29.59608,1903.476,4.66905474112,1
2025-04-01T10:33:12.740,1743496392740,11.8280757450964,46.3791095171421,29.47416,1903.1712,4.66905474112,1
2025-04-01T10:33:12.840,1743496392840,11.8280815815779,46.3791102299574,29.38272,1903.1712,4.66905474112,1
2025-04-01T10:33:12.940,1743496392940,11.8280877424186,46.3791110334097,29.29128,1903.1712,4.76760649728,1
2025-04-01T10:33:13.040,1743496393040,11.8280949099055,46.3791120224869,29.19984,1902.8664,4.76760649728,1
2025-04-01T10:33:13.140,1743496393140,11.8281011529782,46.379112856951,29.07792,1902.8664,4.76760649728,1
2025-04-01T10:33:13.250,1743496393250,11.8281067892428,46.3791136320465,28.89504,1902.5616,4.66905474112,1
2025-04-01T10:33:13.350,1743496393350,11.8281129645834,46.3791144601644,28.77312,1902.5616,4.66905474112,1
2025-04-01T10:33:13.450,1743496393450,11.8281191611772,46.3791152135749,28.68168,1902.5616,4.76760649728,1
2025-04-01T10:33:13.550,1743496393550,11.8281253680996,46.3791160381727,28.59024,1902.2568,4.76760649728,1
2025-04-01T10:33:13.650,1743496393650,11.8281316352063,46.3791167855882,28.4988,1902.2568,4.76760649728,1
2025-04-01T10:33:13.750,1743496393750,11.8281378971487,46.3791175537808,28.37688,1902.2568,4.76760649728,1
2025-04-01T10:33:13.860,1743496393860,11.8281438333413,46.3791181872212,28.28544,1901.952,4.75184923136,1
2025-04-01T10:33:13.960,1743496393960,11.8281500589348,46.3791188899647,28.194,1901.952,4.75184923136,1
2025-04-01T10:33:14.060,1743496394060,11.8281568176455,46.379119757573,27.98064,1901.6472,4.75184923136,1
2025-04-01T10:33:14.160,1743496394160,11.8281630903137,46.379120460385,27.98064,1901.6472,4.75184923136,1
2025-04-01T10:33:14.260,1743496394260,11.8281689832055,46.3791211068775,27.79776,1901.6472,4.75184923136,1
2025-04-01T10:33:14.370,1743496394370,11.8281751887376,46.3791217798512,27.67584,1901.3424,4.75184923136,1
2025-04-01T10:33:14.470,1743496394470,11.8281815519801,46.3791224249905,27.5844,1901.3424,4.75184923136,1
2025-04-01T10:33:14.570,1743496394570,11.8281877368549,46.3791230629871,27.49296,1901.3424,4.73815058464,1
2025-04-01T10:33:14.670,1743496394670,11.8281939292775,46.3791236783737,27.37104,1901.0376,4.73815058464,1
2025-04-01T10:33:14.770,1743496394770,11.8281997029925,46.3791242280714,27.2796,1901.0376,4.73815058464,1
2025-04-01T10:33:14.880,1743496394880,11.8282065737293,46.3791248536325,27.18816,1901.0376,4.73815058464,1
2025-04-01T10:33:14.980,1743496394980,11.8282128156103,46.3791254135046,27.09672,1900.7328,4.72652843872,1
2025-04-01T10:33:15.080,1743496395080,11.8282194980479,46.3791259435384,26.9748,1900.7328,4.72652843872,1
2025-04-01T10:33:15.180,1743496395180,11.8282258007089,46.3791264618218,26.88336,1900.7328,4.72652843872,1
2025-04-01T10:33:15.290,1743496395290,11.828232214403,46.3791270257021,26.79192,1900.7328,4.72652843872,1
2025-04-01T10:33:15.350,1743496395350,11.8282385389132,46.3791275159799,26.67,1900.428,4.72652843872,1
2025-04-01T10:33:15.450,1743496395450,11.828244690617,46.3791280144795,26.57856,1900.428,4.72652843872,1
2025-04-01T10:33:15.550,1743496395550,11.8282510012232,46.3791284557004,26.48712,1900.428,4.71699799296,1
2025-04-01T10:33:15.650,1743496395650,11.8282573255347,46.3791287900033,26.27376,1900.1232,4.70957221152,1
2025-04-01T10:33:15.750,1743496395750,11.8282636053536,46.3791291144058,26.18232,1900.1232,4.70957221152,1
2025-04-01T10:33:15.850,1743496395850,11.8282693711235,46.3791291927358,26.09088,1899.8184,4.70426092928,1
2025-04-01T10:33:15.950,1743496395950,11.8282755788405,46.3791294005253,25.99944,1899.8184,4.70426092928,1
2025-04-01T10:33:16.050,1743496396050,11.8282824201804,46.3791295826388,25.87752,1899.8184,4.70107129888,1
2025-04-01T10:33:16.150,1743496396150,11.8282887115197,46.3791296710919,25.78608,1899.5136,4.70000779072,1
2025-04-01T10:33:16.250,1743496396250,11.8282949502226,46.3791296853944,25.57272,1899.5136,4.70000779072,1
2025-04-01T10:33:16.310,1743496396310,11.8283012739382,46.3791295211463,25.48128,1899.2088,4.80417258112,1
2025-04-01T10:33:16.450,1743496396450,11.8283071797408,46.3791291460254,25.38984,1899.2088,4.81664544416,1
2025-04-01T10:33:16.550,1743496396550,11.8283134585665,46.379128664055,25.2984,1899.2088,4.83736261888,1
2025-04-01T10:33:16.610,1743496396610,11.8283201747708,46.3791281268785,25.17648,1898.904,4.85078097152,1
2025-04-01T10:33:16.720,1743496396720,11.8283264676991,46.3791273488881,25.08504,1898.904,4.7854022656,1
2025-04-01T10:33:16.850,1743496396850,11.8283322396265,46.3791263706791,24.9936,1898.904,4.827014984,1
2025-04-01T10:33:16.950,1743496396950,11.8283384231108,46.3791253139003,24.87168,1898.5992,4.85078097152,1
2025-04-01T10:33:17.050,1743496397050,11.8283448312433,46.3791242594681,24.6888,1898.5992,4.78017502688,1
2025-04-01T10:33:17.150,1743496397150,11.8283508919756,46.3791229535679,24.59736,1898.2944,4.74342431552,1
2025-04-01T10:33:17.250,1743496397250,11.8283570345426,46.379121372168,24.47544,1898.2944,4.77598939136,1
2025-04-01T10:33:17.330,1743496397330,11.8283629202837,46.3791197558596,24.384,1898.2944,4.75395344864,1
2025-04-01T10:33:17.430,1743496397430,11.828368883887,46.3791180272205,24.29256,1897.9896,4.83322615776,1
2025-04-01T10:33:17.550,1743496397550,11.8283746299927,46.3791160888391,24.17064,1897.9896,4.83012146496,1
2025-04-01T10:33:17.640,1743496397640,11.8283809022637,46.3791139768488,24.0792,1897.9896,4.78853556896,1
2025-04-01T10:33:17.750,1743496397750,11.8283865150901,46.379111722912,23.98776,1897.6848,4.8877476032,1
2025-04-01T10:33:17.840,1743496397840,11.8283914619173,46.3791094383404,23.98776,1897.6848,4.9091831712,1
2025-04-01T10:33:17.940,1743496397940,11.8283967690554,46.3791068924088,23.89632,1897.6848,4.94065568128,1
2025-04-01T10:33:18.050,1743496398050,11.8284021186999,46.3791041880187,23.7744,1897.6848,4.92037392352,1
2025-04-01T10:33:18.140,1743496398140,11.8284071821217,46.3791013566785,23.68296,1897.38,4.96790500448,1
2025-04-01T10:33:18.250,1743496398250,11.8284129580216,46.3790980241323,23.59152,1897.38,4.957830064,1
2025-04-01T10:33:18.350,1743496398350,11.8284178585684,46.3790949046769,23.4696,1897.38,4.95177535424,1
2025-04-01T10:33:18.450,1743496398450,11.8284217747156,46.3790921869435,23.4696,1897.38,4.94975562752,1
2025-04-01T10:33:18.550,1743496398550,11.8284263044242,46.3790888897683,23.37816,1897.0752,4.88365405792,1
2025-04-01T10:33:18.660,1743496398660,11.8284311455813,46.3790850241736,23.28672,1897.0752,4.96790500448,1
2025-04-01T10:33:18.760,1743496398760,11.8284354289914,46.3790814497087,23.28672,1897.0752,4.98197558848,1
2025-04-01T10:33:18.860,1743496398860,11.8284396903537,46.3790778399927,23.19528,1897.0752,5.000008288,1
2025-04-01T10:33:18.960,1743496398960,11.8284436736371,46.3790740384084,23.07336,1896.7704,5.10392810048,1
2025-04-01T10:33:19.060,1743496399060,11.8284473798345,46.3790700451184,23.07336,1896.7704,5.07740924064,1
2025-04-01T10:33:19.160,1743496399160,11.8284509773825,46.3790660365582,22.98192,1896.7704,5.11078122368,1
2025-04-01T10:33:19.260,1743496399260,11.8284543637891,46.3790618052379,22.98192,1896.7704,5.10000845376,1
2025-04-01T10:33:19.370,1743496399370,11.8284575611019,46.3790576348447,22.89048,1896.7704,5.14296452736,1
2025-04-01T10:33:19.470,1743496399470,11.8284604930479,46.3790534725534,22.89048,1896.7704,5.05668670144,1
2025-04-01T10:33:19.570,1743496399570,11.8284633076048,46.3790491747904,22.89048,1896.7704,5.107845512,1
2025-04-01T10:33:19.670,1743496399670,11.8284661390451,46.3790448359354,22.89048,1896.7704,5.16237232192,1
2025-04-01T10:33:19.780,1743496399780,11.8284686010376,46.3790404320595,22.79904,1896.4656,5.18652946944,1
2025-04-01T10:33:19.880,1743496399880,11.828470810574,46.3790359726091,22.79904,1896.4656,5.15461796608,1
2025-04-01T10:33:19.980,1743496399980,11.8284728767011,46.3790314682599,22.79904,1896.4656,5.19231059072,1
2025-04-01T10:33:20.080,1743496400080,11.8284749446158,46.3790265346028,22.79904,1896.4656,5.16624502944,1
2025-04-01T10:33:20.150,1743496400150,11.8284766454663,46.3790219187023,22.79904,1896.4656,5.11957852384,1
2025-04-01T10:33:20.250,1743496400250,11.8284779697182,46.3790176507134,22.79904,1896.4656,5.19712297632,1
2025-04-01T10:33:20.350,1743496400350,11.8284792735116,46.3790130113079,22.67712,1896.4656,5.16237232192,1
2025-04-01T10:33:20.450,1743496400450,11.8284803687456,46.379008325222,22.67712,1896.4656,5.14782340512,1
2025-04-01T10:33:20.550,1743496400550,11.8284813205703,46.3790036458228,22.67712,1896.4656,5.23450937856,1
2025-04-01T10:33:20.650,1743496400650,11.8284820902533,46.3789988567457,22.67712,1896.4656,5.22399142144,1
2025-04-01T10:33:20.750,1743496400750,11.8284827973685,46.3789941235728,22.67712,1896.4656,5.21537025504,1
2025-04-01T10:33:20.850,1743496400850,11.8284835900923,46.3789887710137,22.67712,1896.4656,5.2086552672,1
2025-04-01T10:33:20.950,1743496400950,11.8284841184425,46.3789839701038,22.67712,1896.4656,5.20385316352,1
2025-04-01T10:33:21.050,1743496401050,11.8284844441922,46.3789794923942,22.67712,1896.4656,5.20385316352,1
2025-04-01T10:33:21.150,1743496401150,11.828484799736,46.378974741457,22.67712,1896.4656,5.20096975552,1
2025-04-01T10:33:21.250,1743496401250,11.8284848859405,46.3789705047931,22.67712,1896.4656,5.20096975552,1
2025-04-01T10:33:21.350,1743496401350,11.8284851008559,46.3789658497275,22.67712,1896.4656,5.10000845376,1
2025-04-01T10:33:21.450,1743496401450,11.8284853388121,46.3789611106823,22.67712,1896.4656,5.10000845376,1
2025-04-01T10:33:21.550,1743496401550,11.828485533666,46.3789564892093,22.67712,1896.4656,5.10000845376,1
2025-04-01T10:33:21.650,1743496401650,11.8284858286284,46.3789517659213,22.67712,1896.4656,5.10098836544,1
2025-04-01T10:33:21.710,1743496401710,11.8284860675778,46.3789471784513,22.67712,1896.4656,5.10098836544,1
2025-04-01T10:33:21.850,1743496401850,11.8284860874405,46.3789424318794,22.67712,1896.4656,5.00100786944,1
2025-04-01T10:33:21.950,1743496401950,11.8284863234105,46.3789378535616,22.67712,1896.4656,5.00100786944,1
2025-04-01T10:33:22.050,1743496402050,11.8284865373327,46.3789333441358,22.67712,1896.4656,5.00100786944,1
2025-04-01T10:33:22.150,1743496402150,11.8284867725081,46.3789287846168,22.67712,1896.4656,5.00100786944,1
2025-04-01T10:33:22.250,1743496402250,11.8284869264447,46.378924190078,22.58568,1896.4656,5.00100786944,1
2025-04-01T10:33:22.320,1743496402320,11.8284871647981,46.3789196447182,22.58568,1896.4656,5.00100786944,1
2025-04-01T10:33:22.450,1743496402450,11.8284873072143,46.3789151471434,22.58568,1896.4656,5.00100786944,1
2025-04-01T10:33:22.550,1743496402550,11.8284875553005,46.3789106094144,22.58568,1896.4656,5.00100786944,1
2025-04-01T10:33:22.630,1743496402630,11.828487745586,46.3789059305869,22.58568,1896.4656,5.00100786944,1
2025-04-01T10:33:22.750,1743496402750,11.828488018898,46.3789013860963,22.49424,1896.1608,5.00100786944,1
2025-04-01T10:33:22.830,1743496402830,11.8284883537846,46.3788968507354,22.49424,1896.1608,5.00100786944,1
2025-04-01T10:33:22.950,1743496402950,11.8284886560962,46.3788923289662,22.49424,1896.1608,5.00400661376,1
2025-04-01T10:33:23.040,1743496403040,11.8284889294082,46.3788878051843,22.49424,1896.1608,5.00400661376,1
2025-04-01T10:33:23.140,1743496403140,11.8284892490004,46.3788832980303,22.49424,1896.1608,5.00400661376,1
2025-04-01T10:33:23.250,1743496403250,11.8284896337426,46.3788787586141,22.37232,1896.1608,4.90408780928,1
2025-04-01T10:33:23.350,1743496403350,11.8284899998138,46.3788742603328,22.37232,1896.1608,4.90408780928,1
2025-04-01T10:33:23.440,1743496403440,11.8284903478098,46.3788698312347,22.37232,1896.1608,4.90408780928,1
2025-04-01T10:33:23.540,1743496403540,11.8284907367232,46.378865352917,22.37232,1896.1608,4.90408780928,1
2025-04-01T10:33:23.650,1743496403650,11.8284911615882,46.3788608775369,22.37232,1896.1608,4.90408780928,1
2025-04-01T10:33:23.750,1743496403750,11.8284915767205,46.3788564002383,22.37232,1896.1608,4.9091831712,1
2025-04-01T10:33:23.850,1743496403850,11.828492069119,46.3788517331526,22.28088,1896.1608,4.9091831712,1
2025-04-01T10:33:23.950,1743496403950,11.8284925092784,46.3788472417313,22.28088,1896.1608,4.9091831712,1
2025-04-01T10:33:24.050,1743496404050,11.8284930886759,46.3788427414117,22.28088,1896.1608,4.9091831712,1
2025-04-01T10:33:24.150,1743496404150,11.8284935502871,46.3788382554117,22.28088,1896.1608,4.9091831712,1
2025-04-01T10:33:24.250,1743496404250,11.8284940359322,46.3788337504073,22.28088,1896.1608,4.9091831712,1
2025-04-01T10:33:24.360,1743496404360,11.8284945120432,46.3788292840112,22.28088,1896.1608,4.9091831712,1
2025-04-01T10:33:24.460,1743496404460,11.8284949494218,46.378825301581,22.18944,1895.856,4.9091831712,1
2025-04-01T10:33:24.560,1743496404560,11.8284954491695,46.3788209063808,22.18944,1895.856,4.9091831712,1
2025-04-01T10:33:24.670,1743496404670,11.8284961258947,46.3788158616392,22.18944,1895.856,4.9091831712,1
2025-04-01T10:33:24.770,1743496404770,11.8284966709296,46.3788114052206,22.18944,1895.856,4.91630720064,1
2025-04-01T10:33:24.870,1743496404870,11.8284971682938,46.378807316746,22.18944,1895.856,4.9091831712,1
2025-04-01T10:33:24.970,1743496404970,11.8284977107465,46.3788028884529,22.18944,1895.856,4.9091831712,1
2025-04-01T10:33:25.070,1743496405070,11.8284983761499,46.3787980538133,22.18944,1895.856,4.91630720064,1
2025-04-01T10:33:25.180,1743496405180,11.8284989531639,46.3787935903719,22.098,1895.856,4.91630720064,1
2025-04-01T10:33:25.280,1743496405280,11.8284995967182,46.3787888148094,22.098,1895.856,4.91630720064,1
2025-04-01T10:33:25.380,1743496405380,11.8285002082934,46.3787843309848,22.098,1895.856,4.91630720064,1
2025-04-01T10:33:25.480,1743496405480,11.8285007445887,46.3787803230498,22.098,1895.856,4.91630720064,1
2025-04-01T10:33:25.580,1743496405580,11.828501360931,46.3787758929925,22.098,1895.856,4.91630720064,1
2025-04-01T10:33:25.690,1743496405690,11.8285020144167,46.3787714575568,22.098,1895.856,4.91630720064,1
2025-04-01T10:33:25.750,1743496405750,11.8285026452588,46.3787670369374,22.098,1895.856,4.91630720064,1
2025-04-01T10:33:25.850,1743496405850,11.8285033998461,46.3787625676723,22.098,1895.856,4.91630720064,1
2025-04-01T10:33:25.950,1743496405950,11.8285040477702,46.3787581329217,22.098,1895.856,4.91630720064,1
2025-04-01T10:33:26.050,1743496406050,11.8285046148528,46.3787534503173,21.97608,1895.856,4.91630720064,1
2025-04-01T10:33:26.150,1743496406150,11.8285052304006,46.3787489878523,21.97608,1895.856,4.91630720064,1
2025-04-01T10:33:26.250,1743496406250,11.8285056508958,46.3787450100811,21.97608,1895.856,4.91630720064,1
2025-04-01T10:33:26.350,1743496406350,11.8285062344645,46.378740590301,21.97608,1895.856,4.91630720064,1
2025-04-01T10:33:26.450,1743496406450,11.8285067719515,46.3787360778371,21.97608,1895.856,4.91630720064,1
2025-04-01T10:33:26.550,1743496406550,11.8285073726022,46.3787316365604,21.97608,1895.856,4.91630720064,1
2025-04-01T10:33:26.650,1743496406650,11.8285080739572,46.3787272882931,21.97608,1895.856,4.91630720064,1
2025-04-01T10:33:26.750,1743496406750,11.8285087246621,46.3787228390858,21.97608,1895.856,4.91630720064,1
2025-04-01T10:33:26.850,1743496406850,11.8285092553958,46.3787184768414,21.97608,1895.856,4.91630720064,1
2025-04-01T10:33:26.950,1743496406950,11.8285099289429,46.3787140471267,21.97608,1895.856,4.91630720064,1
2025-04-01T10:33:27.010,1743496407010,11.8285105689219,46.378709561966,21.97608,1895.856,4.92545229792,1
2025-04-01T10:33:27.110,1743496407110,11.8285112663044,46.378705126222,21.97608,1895.856,4.92545229792,1
2025-04-01T10:33:27.250,1743496407250,11.8285118331884,46.3787008083241,21.97608,1895.856,4.92545229792,1
2025-04-01T10:33:27.350,1743496407350,11.8285125367283,46.3786963791404,21.97608,1895.856,4.92545229792,1
2025-04-01T10:33:27.450,1743496407450,11.8285133286576,46.3786918620344,21.97608,1895.856,4.92545229792,1
2025-04-01T10:33:27.550,1743496407550,11.8285140548411,46.3786874275922,21.97608,1895.856,4.92545229792,1
2025-04-01T10:33:27.650,1743496407650,11.8285147770521,46.37868293904,21.97608,1895.856,4.92545229792,1
2025-04-01T10:33:27.720,1743496407720,11.8285155159478,46.3786784953996,21.97608,1895.856,4.92545229792,1
2025-04-01T10:33:27.850,1743496407850,11.8285162111453,46.378674025809,21.97608,1895.856,4.92545229792,1
2025-04-01T10:33:27.950,1743496407950,11.8285169130962,46.378669577972,21.97608,1895.856,4.92545229792,1
2025-04-01T10:33:28.030,1743496408030,11.8285176500056,46.3786651074222,21.97608,1895.856,4.92545229792,1
2025-04-01T10:33:28.130,1743496408130,11.8285183201761,46.3786606672931,21.97608,1895.856,4.91630720064,1
2025-04-01T10:33:28.250,1743496408250,11.8285188971901,46.3786562313092,21.97608,1895.856,4.91630720064,1
2025-04-01T10:33:28.330,1743496408330,11.8285195284294,46.3786517878572,21.97608,1895.856,4.91630720064,1
2025-04-01T10:33:28.450,1743496408450,11.8285201443745,46.3786475233669,21.97608,1895.856,4.91630720064,1
2025-04-01T10:33:28.530,1743496408530,11.828520756347,46.378643105985,21.97608,1895.856,4.91630720064,1
2025-04-01T10:33:28.630,1743496408630,11.8285214108258,46.3786382991967,21.97608,1895.856,4.91630720064,1
2025-04-01T10:33:28.740,1743496408740,11.8285220023396,46.3786338576974,21.97608,1895.856,4.91630720064,1
2025-04-01T10:33:28.840,1743496408840,11.828522507053,46.37862943641,21.97608,1895.856,4.91630720064,1
2025-04-01T10:33:28.940,1743496408940,11.8285230777109,46.378624993369,21.88464,1895.5512,4.91630720064,1
2025-04-01T10:33:29.050,1743496409050,11.828523650951,46.3786203909617,21.88464,1895.5512,4.91630720064,1
2025-04-01T10:33:29.150,1743496409150,11.8285242178349,46.3786159397332,21.88464,1895.5512,4.91630720064,1
2025-04-01T10:33:29.250,1743496409250,11.8285247036787,46.3786116649314,21.88464,1895.5512,4.91630720064,1
2025-04-01T10:33:29.350,1743496409350,11.8285252628161,46.3786072445005,21.88464,1895.5512,4.91630720064,1
2025-04-01T10:33:29.450,1743496409450,11.8285259367605,46.3786026501094,21.88464,1895.5512,4.91630720064,1
2025-04-01T10:33:29.550,1743496409550,11.8285265068225,46.3785982169689,21.88464,1895.5512,4.81664544416,1
2025-04-01T10:33:29.660,1743496409660,11.8285270204742,46.3785937678986,21.88464,1895.5512,4.91630720064,1
2025-04-01T10:33:29.750,1743496409750,11.8285275766322,46.3785893321203,21.88464,1895.5512,4.91630720064,1
2025-04-01T10:33:29.860,1743496409860,11.8285281923787,46.3785851913343,21.7932,1895.5512,4.91630720064,1
2025-04-01T10:33:29.960,1743496409960,11.8285287529065,46.3785807840925,21.7932,1895.5512,4.91630720064,1
2025-04-01T10:33:30.060,1743496410060,11.8285293080714,46.3785757621322,21.7932,1895.5512,4.91630720064,1
2025-04-01T10:33:30.160,1743496410160,11.8285298761471,46.3785712842855,21.7932,1895.5512,4.91630720064,1
2025-04-01T10:33:30.270,1743496410270,11.8285304185999,46.3785668345644,21.7932,1895.5512,4.91630720064,1
2025-04-01T10:33:30.370,1743496410370,11.8285309832989,46.3785623629526,21.7932,1895.5512,4.91630720064,1
2025-04-01T10:33:30.470,1743496410470,11.8285315078751,46.3785579527647,21.7932,1895.5512,4.91630720064,1
2025-04-01T10:33:30.570,1743496410570,11.8285320634373,46.3785534978021,21.67128,1895.5512,4.91630720064,1
2025-04-01T10:33:30.670,1743496410670,11.8285327383748,46.3785489510634,21.67128,1895.5512,4.91630720064,1
2025-04-01T10:33:30.770,1743496410770,11.8285333066492,46.3785444856522,21.67128,1895.5512,4.91630720064,1
2025-04-01T10:33:30.880,1743496410880,11.8285338268556,46.3785400752245,21.67128,1895.5512,4.91630720064,1
2025-04-01T10:33:30.980,1743496410980,11.8285344028764,46.3785356056339,21.67128,1895.5512,4.91630720064,1
2025-04-01T10:33:31.080,1743496411080,11.8285347979472,46.3785311664641,21.67128,1895.5512,4.91630720064,1
2025-04-01T10:33:31.180,1743496411180,11.828535372379,46.378526697079,21.67128,1895.5512,4.91630720064,1
2025-04-01T10:33:31.280,1743496411280,11.8285361432538,46.378521768642,21.67128,1895.5512,4.91630720064,1
2025-04-01T10:33:31.390,1743496411390,11.8285367542332,46.3785172454725,21.67128,1895.5512,4.91630720064,1
2025-04-01T10:33:31.450,1743496411450,11.8285372267689,46.3785132168116,21.57984,1895.2464,4.91630720064,1
2025-04-01T10:33:31.550,1743496411550,11.8285378433098,46.3785087407806,21.57984,1895.2464,4.91630720064,1
2025-04-01T10:33:31.650,1743496411650,11.8285385003708,46.3785041869848,21.57984,1895.2464,4.91630720064,1
2025-04-01T10:33:31.750,1743496411750,11.8285391371718,46.3784997021838,21.57984,1895.2464,4.91630720064,1
2025-04-01T10:33:31.850,1743496411850,11.8285395987829,46.3784951549312,21.57984,1895.2464,4.91630720064,1
2025-04-01T10:33:31.950,1743496411950,11.8285402230703,46.3784906571809,21.57984,1895.2464,4.91630720064,1
2025-04-01T10:33:32.050,1743496412050,11.8285408004816,46.3784859690268,21.57984,1895.2464,5.01598236832,1
2025-04-01T10:33:32.150,1743496412150,11.8285413925913,46.3784814587039,21.57984,1895.2464,5.01598236832,1
2025-04-01T10:33:32.250,1743496412250,11.8285419127977,46.3784769823645,21.57984,1895.2464,4.91630720064,1
2025-04-01T10:33:32.350,1743496412350,11.8285424963664,46.3784724952683,21.57984,1895.2464,4.91630720064,1
2025-04-01T10:33:32.450,1743496412450,11.8285429083206,46.3784680461638,21.57984,1895.2464,4.91630720064,1
2025-04-01T10:33:32.550,1743496412550,11.8285434668621,46.3784635773611,21.4884,1895.2464,4.91630720064,1
2025-04-01T10:33:32.650,1743496412650,11.8285441088274,46.3784589419294,21.4884,1895.2464,4.91630720064,1
2025-04-01T10:33:32.750,1743496412750,11.828544703122,46.378454457471,21.4884,1895.2464,4.91630720064,1
2025-04-01T10:33:32.850,1743496412850,11.8285450723712,46.3784500855489,21.4884,1895.2464,4.91630720064,1
2025-04-01T10:33:32.950,1743496412950,11.8285456634878,46.378445627229,21.4884,1895.2464,4.91630720064,1
2025-04-01T10:33:33.020,1743496413020,11.8285464532322,46.378440779777,21.4884,1895.2464,4.91630720064,1
2025-04-01T10:33:33.150,1743496413150,11.8285470783141,46.3784363211831,21.4884,1895.2464,4.91630720064,1
2025-04-01T10:33:33.250,1743496413250,11.8285475150968,46.3784323676149,21.4884,1895.2464,4.81664544416,1
2025-04-01T10:33:33.350,1743496413350,11.82854809946,46.3784279897662,21.4884,1895.2464,4.81664544416,1
2025-04-01T10:33:33.450,1743496413450,11.8285486540291,46.3784234494337,21.4884,1895.2464,4.81664544416,1
2025-04-01T10:33:33.520,1743496413520,11.8285492141597,46.3784190674741,21.4884,1895.2464,4.81664544416,1
2025-04-01T10:33:33.620,1743496413620,11.828549775482,46.3784147074736,21.4884,1895.2464,4.81664544416,1
2025-04-01T10:33:33.750,1743496413750,11.8285503550782,46.3784103057473,21.4884,1895.2464,4.81664544416,1
2025-04-01T10:33:33.830,1743496413830,11.8285509231539,46.378405531538,21.39696,1895.2464,4.81664544416,1
2025-04-01T10:33:33.930,1743496413930,11.8285514862639,46.378401075856,21.39696,1895.2464,4.91630720064,1
2025-04-01T10:33:34.040,1743496414040,11.8285520902913,46.3783970017696,21.39696,1895.2464,4.91630720064,1
2025-04-01T10:33:34.140,1743496414140,11.8285526305591,46.3783925782897,21.39696,1895.2464,4.91630720064,1
2025-04-01T10:33:34.250,1743496414250,11.8285530601912,46.3783881759468,21.39696,1895.2464,4.91630720064,1
2025-04-01T10:33:34.340,1743496414340,11.8285535627197,46.3783837482876,21.39696,1895.2464,4.91630720064,1
2025-04-01T10:33:34.450,1743496414450,11.8285540292966,46.3783797091096,21.39696,1895.2464,4.91630720064,1
2025-04-01T10:33:34.550,1743496414550,11.8285545524824,46.378375307212,21.39696,1895.2464,4.91630720064,1
2025-04-01T10:33:34.650,1743496414650,11.8285550913598,46.3783704294078,21.39696,1895.2464,4.91630720064,1
2025-04-01T10:33:34.750,1743496414750,11.8285556119635,46.378366015383,21.27504,1894.9416,4.81664544416,1
2025-04-01T10:33:34.850,1743496414850,11.8285562539288,46.3783617292077,21.27504,1894.9416,4.81664544416,1
2025-04-01T10:33:34.950,1743496414950,11.8285567753269,46.3783573374504,21.27504,1894.9416,4.81664544416,1
2025-04-01T10:33:35.060,1743496415060,11.8285571684115,46.3783528048258,21.27504,1894.9416,4.91630720064,1
2025-04-01T10:33:35.160,1743496415160,11.8285577090766,46.378348341196,21.27504,1894.9416,4.91630720064,1
2025-04-01T10:33:35.260,1743496415260,11.8285583160834,46.3783440013732,21.27504,1894.9416,4.91630720064,1
2025-04-01T10:33:35.360,1743496415360,11.8285588068928,46.3783395324678,21.27504,1894.9416,4.9091831712,1
2025-04-01T10:33:35.460,1743496415460,11.8285592214292,46.3783349646264,21.1836,1894.9416,4.9091831712,1
2025-04-01T10:33:35.570,1743496415570,11.8285597108483,46.3783305008596,21.1836,1894.9416,4.9091831712,1
2025-04-01T10:33:35.670,1743496415670,11.8285603081223,46.378325936855,21.1836,1894.9416,4.91630720064,1
2025-04-01T10:33:35.770,1743496415770,11.8285608422327,46.3783214302662,21.1836,1894.9416,4.91630720064,1
2025-04-01T10:33:35.870,1743496415870,11.8285612508102,46.3783173353854,21.1836,1894.9416,4.91630720064,1
2025-04-01T10:33:35.970,1743496415970,11.828561809749,46.3783128526399,21.1836,1894.9416,5.01598236832,1
2025-04-01T10:33:36.080,1743496416080,11.8285624151668,46.3783077688788,21.1836,1894.9416,5.01598236832,1
2025-04-01T10:33:36.180,1743496416180,11.8285629224624,46.3783032138497,21.1836,1894.9416,5.01598236832,1
2025-04-01T10:33:36.280,1743496416280,11.8285632577462,46.3782986838972,21.1836,1894.9416,5.00900005056,1
2025-04-01T10:33:36.390,1743496416390,11.8285637525283,46.3782940785094,21.1836,1894.9416,5.11567050016,1
2025-04-01T10:33:36.450,1743496416450,11.8285643259669,46.3782894185836,21.09216,1894.9416,5.11567050016,1
2025-04-01T10:33:36.550,1743496416550,11.8285648576937,46.3782848204584,21.09216,1894.9416,5.01598236832,1
2025-04-01T10:33:36.650,1743496416650,11.8285652664699,46.3782801968456,21.09216,1894.9416,5.01598236832,1
2025-04-01T10:33:36.750,1743496416750,11.8285657747586,46.3782756514772,21.09216,1894.9416,5.00900005056,1
2025-04-01T10:33:36.850,1743496416850,11.8285662343835,46.3782711526991,21.09216,1894.9416,4.9091831712,1
2025-04-01T10:33:36.950,1743496416950,11.8285667200287,46.3782666517286,21.09216,1894.9416,4.9091831712,1
2025-04-01T10:33:37.050,1743496417050,11.8285671113256,46.3782620249641,20.97024,1894.6368,5.00900005056,1
2025-04-01T10:33:37.150,1743496417150,11.82856761445,46.3782574770606,20.97024,1894.6368,5.01598236832,1
2025-04-01T10:33:37.250,1743496417250,11.8285681811353,46.3782529799954,20.97024,1894.6368,5.01598236832,1
2025-04-01T10:33:37.350,1743496417350,11.8285687746354,46.3782484034525,20.97024,1894.6368,5.11567050016,1
2025-04-01T10:33:37.450,1743496417450,11.828569288883,46.3782437546261,20.97024,1894.6368,5.11567050016,1
2025-04-01T10:33:37.550,1743496417550,11.8285698237878,46.3782391607489,20.97024,1894.6368,5.11567050016,1
2025-04-01T10:33:37.650,1743496417650,11.8285702965222,46.378234597498,20.97024,1894.6368,5.00900005056,1
2025-04-01T10:33:37.750,1743496417750,11.8285707372774,46.3782300259568,20.97024,1894.6368,5.00900005056,1
2025-04-01T10:33:37.850,1743496417850,11.8285713488527,46.3782253874762,20.8788,1894.6368,5.00900005056,1
2025-04-01T10:33:37.950,1743496417950,11.8285718078817,46.3782208613605,20.8788,1894.6368,4.9091831712,1
2025-04-01T10:33:38.010,1743496418010,11.8285721717679,46.3782163909477,20.8788,1894.6368,4.9091831712,1
2025-04-01T10:33:38.150,1743496418150,11.8285726091465,46.3782118946362,20.78736,1894.6368,5.00900005056,1
2025-04-01T10:33:38.250,1743496418250,11.8285731075039,46.3782074411467,20.78736,1894.6368,5.00900005056,1
2025-04-01T10:33:38.350,1743496418350,11.8285735381291,46.3782029178402,20.78736,1894.6368,5.00900005056,1
2025-04-01T10:33:38.420,1743496418420,11.8285739629941,46.3781985952832,20.78736,1894.6368,5.00900005056,1
2025-04-01T10:33:38.550,1743496418550,11.8285744172561,46.378194091024,20.78736,1894.6368,5.00900005056,1
2025-04-01T10:33:38.650,1743496418650,11.828574936668,46.3781891878005,20.78736,1894.6368,5.00900005056,1
2025-04-01T10:33:38.720,1743496418720,11.8285753488208,46.3781846116002,20.78736,1894.6368,5.00900005056,1
2025-04-01T10:33:38.830,1743496418830,11.8285756841047,46.3781798082035,20.78736,1894.6368,5.00400661376,1
2025-04-01T10:33:38.930,1743496418930,11.8285760021079,46.378175206173,20.78736,1894.6368,5.00400661376,1
2025-04-01T10:33:39.030,1743496419030,11.828576141346,46.3781706364131,20.78736,1894.6368,5.00400661376,1
2025-04-01T10:33:39.130,1743496419130,11.8285764228017,46.3781660497985,20.69592,1894.332,5.00400661376,1
2025-04-01T10:33:39.230,1743496419230,11.8285767986057,46.3781615769877,20.69592,1894.332,5.00400661376,1
2025-04-01T10:33:39.340,1743496419340,11.8285771303142,46.3781570292213,20.69592,1894.332,5.00400661376,1
2025-04-01T10:33:39.450,1743496419450,11.8285775200221,46.3781528264975,20.69592,1894.332,5.00900005056,1
2025-04-01T10:33:39.550,1743496419550,11.8285779419077,46.3781483366264,20.69592,1894.332,4.9091831712,1
2025-04-01T10:33:39.640,1743496419640,11.8285782614999,46.3781433576251,20.69592,1894.332,4.9091831712,1
2025-04-01T10:33:39.750,1743496419750,11.8285786972895,46.378138852064,20.69592,1894.332,4.9091831712,1
2025-04-01T10:33:39.850,1743496419850,11.8285791136135,46.378134234001,20.574,1894.332,4.9091831712,1
2025-04-01T10:33:39.950,1743496419950,11.8285795239787,46.378129742554,20.574,1894.332,4.9091831712,1
2025-04-01T10:33:40.050,1743496420050,11.8285798646255,46.3781253625128,20.574,1894.332,4.9091831712,1
2025-04-01T10:33:40.150,1743496420150,11.8285802455938,46.3781208990886,20.574,1894.332,4.9091831712,1
2025-04-01T10:33:40.250,1743496420250,11.8285804096604,46.3781164464898,20.48256,1894.332,4.90408780928,1
2025-04-01T10:33:40.360,1743496420360,11.8285807405744,46.3781120001944,20.48256,1894.332,4.90408780928,1
2025-04-01T10:33:40.460,1743496420460,11.8285810820158,46.3781076607827,20.48256,1894.332,4.90408780928,1
2025-04-01T10:33:40.560,1743496420560,11.8285813517524,46.378103201949,20.48256,1894.332,4.90408780928,1
2025-04-01T10:33:40.660,1743496420660,11.8285814661621,46.3780983925914,20.48256,1894.332,4.90408780928,1
2025-04-01T10:33:40.760,1743496420760,11.8285816862418,46.3780939101885,20.39112,1894.332,4.90102826752,1
2025-04-01T10:33:40.860,1743496420860,11.8285819166501,46.3780895074688,20.39112,1894.332,4.90408780928,1
2025-04-01T10:33:40.970,1743496420970,11.828582149442,46.3780850496628,20.39112,1894.332,4.90408780928,1
2025-04-01T10:33:41.070,1743496421070,11.8285825455059,46.3780805375243,20.39112,1894.332,4.80104911264,1
2025-04-01T10:33:41.170,1743496421170,11.8285827866402,46.3780761047263,20.39112,1894.332,4.80104911264,1
2025-04-01T10:33:41.270,1743496421270,11.8285830716712,46.3780715947803,20.39112,1894.332,4.80417258112,1
2025-04-01T10:33:41.370,1743496421370,11.8285833749759,46.3780671839072,20.39112,1894.332,4.80417258112,1
2025-04-01T10:33:41.470,1743496421470,11.828583574001,46.3780628049623,20.39112,1894.332,4.80417258112,1
2025-04-01T10:33:41.580,1743496421580,11.8285839229902,46.3780584169048,20.39112,1894.332,4.80937344448,1
2025-04-01T10:33:41.680,1743496421680,11.8285844708059,46.3780537946623,20.39112,1894.332,4.80937344448,1
2025-04-01T10:33:41.780,1743496421780,11.8285848777944,46.3780493999589,20.39112,1894.332,4.80937344448,1
2025-04-01T10:33:41.880,1743496421880,11.8285851336271,46.3780453687972,20.39112,1894.332,4.80937344448,1
2025-04-01T10:33:41.980,1743496421980,11.8285855410129,46.3780410051997,20.39112,1894.332,4.70957221152,1
2025-04-01T10:33:42.090,1743496422090,11.8285859058923,46.3780365924082,20.29968,1894.0272,4.70957221152,1
2025-04-01T10:33:42.150,1743496422150,11.8285863134767,46.3780322290847,20.29968,1894.0272,4.70957221152,1
2025-04-01T10:33:42.250,1743496422250,11.8285867582045,46.3780279310562,20.29968,1894.0272,4.70957221152,1
2025-04-01T10:33:42.350,1743496422350,11.8285871588369,46.3780235494392,20.29968,1894.0272,4.80937344448,1
2025-04-01T10:33:42.450,1743496422450,11.8285874816072,46.3780193550742,20.29968,1894.0272,4.80937344448,1
2025-04-01T10:33:42.550,1743496422550,11.8285878470825,46.3780149518749,20.29968,1894.0272,4.80937344448,1
2025-04-01T10:33:42.650,1743496422650,11.8285883412686,46.3780101851338,20.29968,1894.0272,4.80417258112,1
2025-04-01T10:33:42.750,1743496422750,11.8285886690046,46.3780057165024,20.29968,1894.0272,4.90408780928,1
2025-04-01T10:33:42.850,1743496422850,11.8285889792614,46.3780012552022,20.29968,1894.0272,4.90408780928,1
2025-04-01T10:33:42.950,1743496422950,11.828589291703,46.3779967838302,20.29968,1894.0272,4.90408780928,1
2025-04-01T10:33:43.050,1743496423050,11.8285895793162,46.3779924570253,20.17776,1894.0272,4.90408780928,1
2025-04-01T10:33:43.150,1743496423150,11.8285898802374,46.3779880104558,20.17776,1894.0272,4.90408780928,1
2025-04-01T10:33:43.250,1743496423250,11.8285901203785,46.377983449466,20.17776,1894.0272,4.80417258112,1
2025-04-01T10:33:43.350,1743496423350,11.8285904145464,46.3779790110498,20.17776,1894.0272,4.80417258112,1
2025-04-01T10:33:43.450,1743496423450,11.8285907142759,46.3779746358047,20.17776,1894.0272,4.80417258112,1
2025-04-01T10:33:43.550,1743496423550,11.8285910245326,46.3779702259594,20.17776,1894.0272,4.80417258112,1
2025-04-01T10:33:43.650,1743496423650,11.8285912122359,46.377965813853,20.17776,1894.0272,4.80417258112,1
2025-04-01T10:33:43.750,1743496423750,11.8285915270611,46.3779614219587,20.08632,1894.0272,4.80417258112,1
2025-04-01T10:33:43.810,1743496423810,11.8285918754544,46.3779571024165,20.08632,1894.0272,4.80417258112,1
2025-04-01T10:33:43.950,1743496423950,11.8285922159026,46.3779527172366,20.08632,1894.0272,4.80417258112,1
2025-04-01T10:33:44.050,1743496424050,11.8285925490015,46.3779483254793,20.08632,1894.0272,4.80417258112,1
2025-04-01T10:33:44.150,1743496424150,11.8285928987852,46.3779439355034,20.08632,1894.0272,4.80417258112,1
2025-04-01T10:33:44.220,1743496424220,11.8285932010968,46.3779391699956,20.08632,1894.0272,4.80417258112,1
2025-04-01T10:33:44.320,1743496424320,11.8285935482984,46.3779347436381,20.08632,1894.0272,4.80417258112,1
2025-04-01T10:33:44.450,1743496424450,11.8285938817946,46.3779310494343,20.08632,1894.0272,4.80417258112,1
2025-04-01T10:33:44.550,1743496424550,11.8285942516396,46.3779267056377,20.08632,1894.0272,4.80937344448,1
2025-04-01T10:33:44.650,1743496424650,11.8285946407516,46.3779223651298,20.08632,1894.0272,4.80937344448,1
2025-04-01T10:33:44.730,1743496424730,11.8285948675847,46.3779181068401,20.08632,1894.0272,4.80937344448,1
2025-04-01T10:33:44.830,1743496424830,11.8285953530312,46.3779131092027,20.08632,1894.0272,4.80937344448,1
2025-04-01T10:33:44.950,1743496424950,11.8285957661772,46.3779086936706,20.08632,1894.0272,4.80937344448,1
2025-04-01T10:33:45.050,1743496425050,11.8285960784202,46.3779044141413,19.99488,1893.7224,4.9091831712,1
2025-04-01T10:33:45.140,1743496425140,11.8285965187782,46.3778999994999,19.99488,1893.7224,4.80937344448,1
2025-04-01T10:33:45.240,1743496425240,11.8285970137588,46.3778952245369,19.99488,1893.7224,4.80937344448,1
2025-04-01T10:33:45.340,1743496425340,11.8285974811302,46.3778907829006,19.99488,1893.7224,4.80937344448,1
2025-04-01T10:33:45.440,1743496425440,11.8285978740162,46.3778866526659,19.99488,1893.7224,4.80937344448,1
2025-04-01T10:33:45.540,1743496425540,11.8285983622435,46.3778822526182,19.99488,1893.7224,4.9091831712,1
2025-04-01T10:33:45.640,1743496425640,11.8285990626053,46.3778775747414,19.99488,1893.7224,4.9091831712,1
2025-04-01T10:33:45.750,1743496425750,11.8285995820172,46.3778731447526,19.99488,1893.7224,4.81664544416,1
2025-04-01T10:33:45.850,1743496425850,11.8285999641773,46.3778687891028,19.87296,1893.7224,4.80937344448,1
2025-04-01T10:33:45.950,1743496425950,11.8286004601511,46.3778643643897,19.87296,1893.7224,4.80937344448,1
2025-04-01T10:33:46.050,1743496426050,11.828600948577,46.3778598502642,19.87296,1893.7224,4.81664544416,1
2025-04-01T10:33:46.160,1743496426160,11.8286014757354,46.3778554174663,19.87296,1893.7224,4.81664544416,1
2025-04-01T10:33:46.260,1743496426260,11.8286021739123,46.377851095389,19.87296,1893.7224,4.81664544416,1
2025-04-01T10:33:46.360,1743496426360,11.8286027012694,46.3778466742387,19.87296,1893.7224,4.81664544416,1
2025-04-01T10:33:46.470,1743496426470,11.8286032850367,46.3778426597947,19.78152,1893.7224,4.81664544416,1
2025-04-01T10:33:46.570,1743496426570,11.8286037915378,46.3778382501549,19.78152,1893.7224,4.91630720064,1
2025-04-01T10:33:46.670,1743496426670,11.828604331607,46.3778332991764,19.78152,1893.7224,4.9091831712,1
2025-04-01T10:33:46.770,1743496426770,11.8286048293684,46.3778288223917,19.78152,1893.7224,4.9091831712,1
2025-04-01T10:33:46.870,1743496426870,11.8286053154108,46.3778239955627,19.78152,1893.7224,4.9091831712,1
2025-04-01T10:33:46.970,1743496426970,11.8286057919191,46.3778194761615,19.78152,1893.7224,4.9091831712,1
2025-04-01T10:33:47.080,1743496427080,11.8286062163869,46.3778152944034,19.78152,1893.7224,4.9091831712,1
2025-04-01T10:33:47.180,1743496427180,11.8286066774022,46.3778108195372,19.78152,1893.7224,4.9091831712,1
2025-04-01T10:33:47.280,1743496427280,11.8286071743691,46.377806290955,19.69008,1893.4176,4.9091831712,1
2025-04-01T10:33:47.380,1743496427380,11.8286076421377,46.377801817459,19.69008,1893.4176,4.9091831712,1
2025-04-01T10:33:47.480,1743496427480,11.8286080032432,46.3777976470744,19.69008,1893.4176,4.9091831712,1
2025-04-01T10:33:47.550,1743496427550,11.8286084187727,46.3777931928997,19.69008,1893.4176,4.9091831712,1
2025-04-01T10:33:47.650,1743496427650,11.8286088259599,46.3777883862827,19.69008,1893.4176,4.9091831712,1
2025-04-01T10:33:47.750,1743496427750,11.8286092355306,46.3777838666075,19.69008,1893.4176,4.9091831712,1
2025-04-01T10:33:47.850,1743496427850,11.8286094971235,46.377779259918,19.69008,1893.4176,5.00400661376,1
2025-04-01T10:33:47.950,1743496427950,11.8286098836533,46.3777747409279,19.59864,1893.4176,4.90408780928,1
2025-04-01T10:33:48.050,1743496428050,11.8286101152534,46.3777704148767,19.59864,1893.4176,4.90408780928,1
2025-04-01T10:33:48.150,1743496428150,11.8286104499414,46.3777659474101,19.59864,1893.4176,4.90408780928,1
2025-04-01T10:33:48.250,1743496428250,11.8286106698225,46.3777615143381,19.59864,1893.4176,4.90408780928,1
2025-04-01T10:33:48.350,1743496428350,11.8286109643876,46.3777570750998,19.59864,1893.4176,4.90408780928,1
2025-04-01T10:33:48.450,1743496428450,11.8286111896316,46.377752935273,19.59864,1893.4176,4.90408780928,1
2025-04-01T10:33:48.550,1743496428550,11.8286114812173,46.3777485296071,19.59864,1893.4176,4.90408780928,1
2025-04-01T10:33:48.650,1743496428650,11.8286116605783,46.3777437309379,19.59864,1893.4176,4.90408780928,1
2025-04-01T10:33:48.750,1743496428750,11.8286119771911,46.3777392664859,19.59864,1893.4176,4.90408780928,1
2025-04-01T10:33:48.810,1743496428810,11.8286122338183,46.3777346071767,19.59864,1893.4176,4.90408780928,1
2025-04-01T10:33:48.950,1743496428950,11.8286125792322,46.37773009449,19.47672,1893.4176,4.90408780928,1
2025-04-01T10:33:49.010,1743496429010,11.8286127997091,46.3777256193497,19.47672,1893.4176,4.90408780928,1
2025-04-01T10:33:49.150,1743496429150,11.8286131441299,46.3777210937821,19.47672,1893.4176,5.00400661376,1
2025-04-01T10:33:49.220,1743496429220,11.8286136097136,46.3777165273796,19.47672,1893.4176,5.00400661376,1
2025-04-01T10:33:49.350,1743496429350,11.8286139837299,46.3777119909866,19.47672,1893.4176,5.00900005056,1
2025-04-01T10:33:49.450,1743496429450,11.8286142191039,46.3777073552466,19.47672,1893.4176,5.00900005056,1
2025-04-01T10:33:49.550,1743496429550,11.8286145817984,46.3777028102208,19.47672,1893.4176,5.00900005056,1
2025-04-01T10:33:49.620,1743496429620,11.8286147826112,46.3776982279226,19.38528,1893.1128,5.00400661376,1
2025-04-01T10:33:49.750,1743496429750,11.8286151304086,46.3776936779637,19.38528,1893.1128,5.00400661376,1
2025-04-01T10:33:49.830,1743496429830,11.8286154879388,46.3776891238938,19.38528,1893.1128,5.00400661376,1
2025-04-01T10:33:49.950,1743496429950,11.8286158500374,46.3776845753052,19.38528,1893.1128,5.00900005056,1
2025-04-01T10:33:50.030,1743496430030,11.8286162457041,46.3776798833827,19.29384,1893.1128,5.00900005056,1
2025-04-01T10:33:50.150,1743496430150,11.8286166634185,46.3776753315053,19.29384,1893.1128,5.00900005056,1
2025-04-01T10:33:50.240,1743496430240,11.8286171170846,46.3776706923396,19.29384,1893.1128,5.00900005056,1
2025-04-01T10:33:50.340,1743496430340,11.8286175645932,46.377666148684,19.29384,1893.1128,5.00900005056,1
2025-04-01T10:33:50.440,1743496430440,11.8286180085265,46.3776618430504,19.29384,1893.1128,5.00900005056,1
2025-04-01T10:33:50.550,1743496430550,11.8286184349805,46.3776573458481,19.29384,1893.1128,4.9091831712,1
2025-04-01T10:33:50.650,1743496430650,11.8286188955986,46.3776524631792,19.29384,1893.1128,4.9091831712,1
2025-04-01T10:33:50.750,1743496430750,11.8286192958337,46.3776479558368,19.17192,1893.1128,4.9091831712,1
2025-04-01T10:33:50.850,1743496430850,11.8286197212946,46.3776434316396,19.17192,1893.1128,4.9091831712,1
2025-04-01T10:33:50.950,1743496430950,11.8286201398036,46.3776389251193,19.17192,1893.1128,4.9091831712,1
2025-04-01T10:33:51.060,1743496431060,11.8286205471893,46.3776345062985,19.17192,1893.1128,4.9091831712,1
2025-04-01T10:33:51.160,1743496431160,11.828621012773,46.377630021429,19.17192,1893.1128,4.9091831712,1
2025-04-01T10:33:51.260,1743496431260,11.828621494247,46.3776254162468,19.17192,1893.1128,4.9091831712,1
2025-04-01T10:33:51.360,1743496431360,11.8286219725429,46.3776209194556,19.17192,1893.1128,4.9091831712,1
2025-04-01T10:33:51.460,1743496431460,11.8286224397157,46.3776167472896,19.17192,1893.1128,4.9091831712,1
2025-04-01T10:33:51.560,1743496431560,11.8286228890119,46.3776122605017,19.17192,1893.1128,4.9091831712,1
2025-04-01T10:33:51.670,1743496431670,11.828623422725,46.3776074660804,19.17192,1893.1128,4.9091831712,1
2025-04-01T10:33:51.770,1743496431770,11.8286238829458,46.3776029520235,19.17192,1893.1128,4.9091831712,1
2025-04-01T10:33:51.870,1743496431870,11.8286242943041,46.3775984601654,19.08048,1892.808,4.9091831712,1
2025-04-01T10:33:51.970,1743496431970,11.8286247700179,46.377593975707,19.08048,1892.808,4.9091831712,1
2025-04-01T10:33:52.070,1743496432070,11.8286252620191,46.3775895567492,19.08048,1892.808,4.9091831712,1
2025-04-01T10:33:52.170,1743496432170,11.8286257419041,46.3775850836644,19.08048,1892.808,4.9091831712,1
2025-04-01T10:33:52.270,1743496432270,11.8286263016374,46.3775805800217,19.08048,1892.808,4.9091831712,1
2025-04-01T10:33:52.380,1743496432380,11.8286267441803,46.3775760856971,19.08048,1892.808,4.9091831712,1
2025-04-01T10:33:52.480,1743496432480,11.8286270234511,46.3775718614595,19.08048,1892.808,4.9091831712,1
2025-04-01T10:33:52.580,1743496432580,11.8286274256726,46.3775673828934,19.08048,1892.808,4.9091831712,1
2025-04-01T10:33:52.680,1743496432680,11.8286278654347,46.3775624866586,19.08048,1892.808,4.9091831712,1
2025-04-01T10:33:52.780,1743496432780,11.8286282726218,46.3775579964449,19.08048,1892.808,4.9091831712,1
2025-04-01T10:33:52.850,1743496432850,11.8286286365081,46.3775535506291,19.08048,1892.808,4.9091831712,1
2025-04-01T10:33:52.950,1743496432950,11.8286290121134,46.3775490791886,19.08048,1892.808,4.9091831712,1
2025-04-01T10:33:53.050,1743496433050,11.8286294850464,46.3775444745545,18.98904,1892.808,4.90408780928,1
2025-04-01T10:33:53.150,1743496433150,11.828629809803,46.3775400037992,18.98904,1892.808,4.90408780928,1
2025-04-01T10:33:53.250,1743496433250,11.8286300930463,46.3775356478753,18.98904,1892.808,4.90408780928,1
2025-04-01T10:33:53.350,1743496433350,11.8286304068784,46.3775311760237,18.98904,1892.808,4.90408780928,1
2025-04-01T10:33:53.450,1743496433450,11.8286306662864,46.3775269336981,18.98904,1892.808,4.90408780928,1
2025-04-01T10:33:53.550,1743496433550,11.8286309461531,46.3775224826752,18.98904,1892.808,4.90408780928,1
2025-04-01T10:33:53.650,1743496433650,11.8286311717943,46.3775175054553,18.98904,1892.808,4.90408780928,1
2025-04-01T10:33:53.750,1743496433750,11.828631429812,46.3775129794766,18.98904,1892.808,4.90408780928,1
2025-04-01T10:33:53.850,1743496433850,11.8286318429579,46.3775085494193,18.8976,1892.808,4.90408780928,1
2025-04-01T10:33:53.950,1743496433950,11.8286321170644,46.3775040130264,18.8976,1892.808,4.90408780928,1
2025-04-01T10:33:54.050,1743496434050,11.8286322914597,46.3774996702575,18.8976,1892.808,4.90408780928,1
2025-04-01T10:33:54.150,1743496434150,11.8286325878124,46.3774951438678,18.8976,1892.808,5.00400661376,1
2025-04-01T10:33:54.210,1743496434210,11.8286329026376,46.3774904960691,18.8976,1892.808,5.00400661376,1
2025-04-01T10:33:54.350,1743496434350,11.8286332929414,46.3774859611835,18.8976,1892.808,5.00900005056,1
2025-04-01T10:33:54.410,1743496434410,11.8286336681494,46.3774814020435,18.8976,1892.808,4.9091831712,1
2025-04-01T10:33:54.550,1743496434550,11.8286341061238,46.377476907856,18.8976,1892.808,4.9091831712,1
2025-04-01T10:33:54.650,1743496434650,11.8286345029823,46.3774720869878,18.8976,1892.808,4.9091831712,1
2025-04-01T10:33:54.750,1743496434750,11.8286349610182,46.3774676197953,18.8976,1892.808,4.80937344448,1
2025-04-01T10:33:54.820,1743496434820,11.8286354454716,46.3774631890528,18.8976,1892.808,4.81664544416,1
2025-04-01T10:33:54.920,1743496434920,11.8286358000223,46.3774594566175,18.8976,1892.808,4.81664544416,1
2025-04-01T10:33:55.020,1743496435020,11.8286363692898,46.3774545654528,18.77568,1892.5032,4.81664544416,1
2025-04-01T10:33:55.130,1743496435130,11.828636836264,46.3774500689357,18.77568,1892.5032,4.9091831712,1
2025-04-01T10:33:55.230,1743496435230,11.8286372009447,46.3774454601907,18.77568,1892.5032,4.9091831712,1
2025-04-01T10:33:55.330,1743496435330,11.82863763157,46.3774409233867,18.77568,1892.5032,4.9091831712,1
2025-04-01T10:33:55.430,1743496435430,11.8286380949688,46.3774364149479,18.77568,1892.5032,4.9091831712,1
2025-04-01T10:33:55.530,1743496435530,11.8286385335391,46.3774319366559,18.77568,1892.5032,4.9091831712,1
2025-04-01T10:33:55.630,1743496435630,11.8286389077541,46.377427440961,18.77568,1892.5032,4.9091831712,1
2025-04-01T10:33:55.730,1743496435730,11.8286393437422,46.3774229496511,18.77568,1892.5032,4.9091831712,1
2025-04-01T10:33:55.840,1743496435840,11.8286397189503,46.3774180129922,18.77568,1892.5032,4.9091831712,1
2025-04-01T10:33:55.940,1743496435940,11.8286401025007,46.3774134819435,18.77568,1892.5032,4.9091831712,1
2025-04-01T10:33:56.040,1743496436040,11.8286403060943,46.3774095081976,18.77568,1892.5032,4.80417258112,1
2025-04-01T10:33:56.140,1743496436140,11.8286406056252,46.3774050689593,18.77568,1892.5032,4.80417258112,1
2025-04-01T10:33:56.240,1743496436240,11.8286408582799,46.3774006027259,18.77568,1892.5032,4.80417258112,1
2025-04-01T10:33:56.350,1743496436350,11.8286411208659,46.3773961951416,18.77568,1892.5032,4.80417258112,1
2025-04-01T10:33:56.450,1743496436450,11.8286412275291,46.3773918279813,18.77568,1892.5032,4.80104911264,1
2025-04-01T10:33:56.550,1743496436550,11.8286414313213,46.3773874306742,18.77568,1892.5032,4.80104911264,1
2025-04-01T10:33:56.650,1743496436650,11.8286417248933,46.3773829634817,18.77568,1892.5032,4.80104911264,1
2025-04-01T10:33:56.750,1743496436750,11.8286419368292,46.3773785535678,18.77568,1892.5032,4.80417258112,1
2025-04-01T10:33:56.860,1743496436860,11.8286420687181,46.3773741665381,18.77568,1892.5032,4.80417258112,1
2025-04-01T10:33:56.960,1743496436960,11.8286423289206,46.3773697615574,18.77568,1892.5032,4.80417258112,1
2025-04-01T10:33:57.060,1743496437060,11.8286424963639,46.3773650344181,18.77568,1892.5032,4.80937344448,1
2025-04-01T10:33:57.160,1743496437160,11.8286428360176,46.3773606105271,18.77568,1892.5032,4.80937344448,1
2025-04-01T10:33:57.270,1743496437270,11.8286431321717,46.3773564438424,18.77568,1892.5032,4.80417258112,1
2025-04-01T10:33:57.370,1743496437370,11.8286434465996,46.3773520749006,18.77568,1892.5032,4.80417258112,1
2025-04-01T10:33:57.470,1743496437470,11.8286437800958,46.3773480690896,18.77568,1892.5032,4.70426092928,1
2025-04-01T10:33:57.570,1743496437570,11.8286441116058,46.3773437607153,18.77568,1892.5032,4.80417258112,1
2025-04-01T10:33:57.670,1743496437670,11.828644373,46.3773393403872,18.8976,1892.808,4.70957221152,1
2025-04-01T10:33:57.770,1743496437770,11.8286447349,46.3773350251614,18.8976,1892.808,4.80937344448,1
2025-04-01T10:33:57.880,1743496437880,11.8286450890535,46.3773306752669,18.8976,1892.808,4.80937344448,1
2025-04-01T10:33:57.980,1743496437980,11.8286455081583,46.3773264482887,18.8976,1892.808,4.80937344448,1
2025-04-01T10:33:58.080,1743496438080,11.8286458466203,46.3773216050846,18.8976,1892.808,4.80417258112,1
2025-04-01T10:33:58.180,1743496438180,11.8286461399936,46.3773171629686,18.8976,1892.808,4.90408780928,1
2025-04-01T10:33:58.290,1743496438290,11.8286465396329,46.3773128056745,18.8976,1892.808,4.80417258112,1
2025-04-01T10:33:58.350,1743496438350,11.828646813938,46.3773084087785,18.8976,1892.808,4.80417258112,1
2025-04-01T10:33:58.450,1743496438450,11.8286471009553,46.3773040376443,18.8976,1892.808,4.80417258112,1
2025-04-01T10:33:58.550,1743496438550,11.8286475955387,46.3772999552333,18.8976,1892.808,4.80417258112,1
2025-04-01T10:33:58.650,1743496438650,11.8286480289447,46.3772951284728,18.8976,1892.808,4.80417258112,1
2025-04-01T10:33:58.750,1743496438750,11.8286482947089,46.3772907297955,18.8976,1892.808,4.80104911264,1
2025-04-01T10:33:58.850,1743496438850,11.8286484816177,46.3772859633284,18.8976,1892.808,4.80104911264,1
2025-04-01T10:33:58.950,1743496438950,11.8286487157999,46.3772815061391,18.8976,1892.808,4.80417258112,1
2025-04-01T10:33:59.050,1743496439050,11.8286489690505,46.3772770884145,18.8976,1892.808,4.80417258112,1
2025-04-01T10:33:59.150,1743496439150,11.8286491972739,46.377272666168,18.8976,1892.808,4.80104911264,1
2025-04-01T10:33:59.250,1743496439250,11.8286494739625,46.3772682517321,18.8976,1892.808,4.80104911264,1
2025-04-01T10:33:59.310,1743496439310,11.8286496904669,46.3772638622358,18.98904,1892.808,4.80104911264,1
2025-04-01T10:33:59.410,1743496439410,11.8286499079644,46.3772597905131,18.98904,1892.808,4.80104911264,1
2025-04-01T10:33:59.550,1743496439550,11.8286501292359,46.3772554414408,18.98904,1892.808,4.80104911264,1
2025-04-01T10:33:59.650,1743496439650,11.8286503983767,46.3772506977208,18.98904,1892.808,4.80104911264,1
2025-04-01T10:33:59.750,1743496439750,11.8286505789294,46.3772462942474,18.98904,1892.808,4.80104911264,1
2025-04-01T10:33:59.810,1743496439810,11.8286506712914,46.3772420091683,18.98904,1892.808,4.80104911264,1
2025-04-01T10:33:59.950,1743496439950,11.8286508385361,46.3772376213164,18.98904,1892.808,4.80104911264,1
2025-04-01T10:34:00.020,1743496440020,11.8286509972397,46.3772331656344,18.98904,1892.808,4.80104911264,1
2025-04-01T10:34:00.150,1743496440150,11.8286512002374,46.3772287872376,18.98904,1892.808,4.80104911264,1
2025-04-01T10:34:00.220,1743496440220,11.8286513847627,46.3772245695775,18.98904,1892.808,4.80104911264,1
2025-04-01T10:34:00.320,1743496440320,11.8286516092122,46.3772201937842,18.98904,1892.808,4.80104911264,1
2025-04-01T10:34:00.420,1743496440420,11.8286518765653,46.3772160939703,18.98904,1892.808,4.80104911264,1
2025-04-01T10:34:00.550,1743496440550,11.8286520908848,46.3772117254397,19.08048,1892.808,4.80104911264,1
2025-04-01T10:34:00.650,1743496440650,11.8286521945685,46.3772071398528,19.08048,1892.808,4.80104911264,1
2025-04-01T10:34:00.730,1743496440730,11.8286523786966,46.3772027244577,19.08048,1892.808,4.80104911264,1
2025-04-01T10:34:00.830,1743496440830,11.8286525320373,46.377197883035,19.08048,1892.808,4.90102826752,1
2025-04-01T10:34:00.930,1743496440930,11.8286527465554,46.3771934147462,19.08048,1892.808,4.90102826752,1
2025-04-01T10:34:01.030,1743496441030,11.8286530194701,46.3771889167218,19.08048,1892.808,4.90102826752,1
2025-04-01T10:34:01.150,1743496441150,11.8286532689467,46.3771844621361,19.08048,1892.808,4.90408780928,1
2025-04-01T10:34:01.240,1743496441240,11.8286534083834,46.3771800679807,19.08048,1892.808,4.90408780928,1
2025-04-01T10:34:01.340,1743496441340,11.828653670175,46.3771756349088,19.08048,1892.808,4.80417258112,1
2025-04-01T10:34:01.450,1743496441450,11.8286538745631,46.3771714416401,19.08048,1892.808,4.80417258112,1
2025-04-01T10:34:01.550,1743496441550,11.8286541558201,46.3771670732465,19.08048,1892.808,4.80417258112,1
2025-04-01T10:34:01.640,1743496441640,11.8286544766041,46.3771623176048,19.08048,1892.808,4.80417258112,1
2025-04-01T10:34:01.750,1743496441750,11.8286548015593,46.3771579266012,19.08048,1892.808,4.80417258112,1
2025-04-01T10:34:01.850,1743496441850,11.8286552407255,46.3771534672194,19.17192,1893.1128,4.80417258112,1
2025-04-01T10:34:01.950,1743496441950,11.8286555758108,46.377149054565,19.17192,1893.1128,4.80417258112,1
2025-04-01T10:34:02.050,1743496442050,11.8286558475337,46.3771446183413,19.17192,1893.1128,4.80417258112,1
2025-04-01T10:34:02.150,1743496442150,11.8286561832148,46.3771401754031,19.17192,1893.1128,4.80417258112,1
2025-04-01T10:34:02.250,1743496442250,11.8286565806691,46.3771357445236,19.17192,1893.1128,4.80417258112,1
2025-04-01T10:34:02.360,1743496442360,11.8286569755413,46.3771313015854,19.17192,1893.1128,4.80937344448,1
2025-04-01T10:34:02.460,1743496442460,11.8286574760836,46.3771267920505,19.17192,1893.1128,4.80937344448,1
2025-04-01T10:34:02.560,1743496442560,11.8286579255784,46.3771223422608,19.29384,1893.1128,4.80937344448,1
2025-04-01T10:34:02.660,1743496442660,11.8286581885617,46.3771182480651,19.29384,1893.1128,4.80937344448,1
2025-04-01T10:34:02.760,1743496442760,11.8286586491798,46.3771138160894,19.29384,1893.1128,4.9091831712,1
2025-04-01T10:34:02.870,1743496442870,11.8286591302565,46.377108953701,19.29384,1893.1128,4.9091831712,1
2025-04-01T10:34:02.970,1743496442970,11.8286596043812,46.3771044667761,19.29384,1893.1128,4.9091831712,1
2025-04-01T10:34:03.050,1743496443050,11.8286601100878,46.3770998463835,19.29384,1893.1128,4.9091831712,1
2025-04-01T10:34:03.170,1743496443170,11.8286606167875,46.3770953416446,19.29384,1893.1128,4.9091831712,1
2025-04-01T10:34:03.270,1743496443270,11.8286612374996,46.3770907996334,19.29384,1893.1128,4.9091831712,1
2025-04-01T10:34:03.370,1743496443370,11.8286617692264,46.3770863031163,19.38528,1893.1128,4.91630720064,1
2025-04-01T10:34:03.480,1743496443480,11.8286622793028,46.3770823170377,19.38528,1893.1128,4.91630720064,1
2025-04-01T10:34:03.580,1743496443580,11.8286627951394,46.3770778791696,19.38528,1893.1128,4.91630720064,1
2025-04-01T10:34:03.680,1743496443680,11.8286632599286,46.3770729741648,19.38528,1893.1128,4.9091831712,1
2025-04-01T10:34:03.780,1743496443780,11.8286637417998,46.3770684802513,19.38528,1893.1128,4.9091831712,1
2025-04-01T10:34:03.880,1743496443880,11.8286641332954,46.3770639337181,19.38528,1893.1128,4.9091831712,1
2025-04-01T10:34:03.950,1743496443950,11.8286645895436,46.377059427883,19.38528,1893.1128,4.9091831712,1
2025-04-01T10:34:04.050,1743496444050,11.828665172715,46.3770552296812,19.38528,1893.1128,4.9091831712,1
2025-04-01T10:34:04.150,1743496444150,11.8286656335317,46.3770507546779,19.38528,1893.1128,4.9091831712,1
2025-04-01T10:34:04.250,1743496444250,11.8286660186711,46.3770462017043,19.38528,1893.1128,4.9091831712,1
2025-04-01T10:34:04.350,1743496444350,11.8286664558511,46.3770417116276,19.38528,1893.1128,4.9091831712,1
2025-04-01T10:34:04.450,1743496444450,11.8286668809147,46.3770371634501,19.38528,1893.1128,4.9091831712,1
2025-04-01T10:34:04.550,1743496444550,11.8286673238549,46.3770326481598,19.47672,1893.4176,4.9091831712,1
2025-04-01T10:34:04.650,1743496444650,11.8286677850688,46.3770281109447,19.47672,1893.4176,5.00900005056,1
2025-04-01T10:34:04.750,1743496444750,11.8286682266186,46.377023579896,19.47672,1893.4176,5.00900005056,1
2025-04-01T10:34:04.850,1743496444850,11.8286685263481,46.3770188913992,19.47672,1893.4176,5.00900005056,1
2025-04-01T10:34:04.950,1743496444950,11.8286689170491,46.3770143381516,19.47672,1893.4176,5.00900005056,1
2025-04-01T10:34:05.050,1743496445050,11.8286693506538,46.3770092278751,19.47672,1893.4176,5.00900005056,1
2025-04-01T10:34:05.150,1743496445150,11.8286697693613,46.3770046346146,19.59864,1893.4176,5.00900005056,1
2025-04-01T10:34:05.210,1743496445210,11.8286702063426,46.3770002207268,19.59864,1893.4176,4.9091831712,1
2025-04-01T10:34:05.320,1743496445320,11.8286706874193,46.3769956773454,19.59864,1893.4176,4.9091831712,1
2025-04-01T10:34:05.410,1743496445410,11.8286711677015,46.3769913448537,19.59864,1893.4176,4.9091831712,1
2025-04-01T10:34:05.550,1743496445550,11.8286716420249,46.3769868747836,19.59864,1893.4176,4.9091831712,1
2025-04-01T10:34:05.650,1743496445650,11.8286719773087,46.3769823868994,19.59864,1893.4176,4.9091831712,1
2025-04-01T10:34:05.750,1743496445750,11.8286724492485,46.3769779253251,19.59864,1893.4176,4.9091831712,1
2025-04-01T10:34:05.820,1743496445820,11.8286728687506,46.3769733272684,19.69008,1893.4176,4.9091831712,1
2025-04-01T10:34:05.950,1743496445950,11.8286732828898,46.3769688278737,19.69008,1893.4176,4.9091831712,1
2025-04-01T10:34:06.030,1743496446030,11.8286737975346,46.3769640725062,19.69008,1893.4176,4.9091831712,1
2025-04-01T10:34:06.150,1743496446150,11.8286741872425,46.3769595613268,19.69008,1893.4176,4.90408780928,1
2025-04-01T10:34:06.230,1743496446230,11.8286744945198,46.3769553797057,19.69008,1893.4176,4.90408780928,1
2025-04-01T10:34:06.330,1743496446330,11.82867487231,46.3769509121021,19.69008,1893.4176,4.90408780928,1
2025-04-01T10:34:06.440,1743496446440,11.828675283867,46.3769464231217,19.69008,1893.4176,4.9091831712,1
2025-04-01T10:34:06.540,1743496446540,11.8286756890678,46.3769419462,19.69008,1893.4176,4.9091831712,1
2025-04-01T10:34:06.640,1743496446640,11.8286761794801,46.3769372097426,19.69008,1893.4176,4.9091831712,1
2025-04-01T10:34:06.750,1743496446750,11.8286765687907,46.37693269733,19.69008,1893.4176,4.90408780928,1
2025-04-01T10:34:06.840,1743496446840,11.8286767745692,46.3769281771066,19.69008,1893.4176,4.90408780928,1
2025-04-01T10:34:06.940,1743496446940,11.8286770885999,46.3769236394804,19.69008,1893.4176,4.90408780928,1
2025-04-01T10:34:07.050,1743496447050,11.8286773742268,46.3769190810256,19.69008,1893.4176,4.90408780928,1
2025-04-01T10:34:07.150,1743496447150,11.8286776636276,46.3769145401106,19.78152,1893.7224,4.90408780928,1
2025-04-01T10:34:07.250,1743496447250,11.8286779627612,46.3769103957618,19.78152,1893.7224,4.90408780928,1
2025-04-01T10:34:07.350,1743496447350,11.8286782920862,46.376905891297,19.78152,1893.7224,5.00400661376,1
2025-04-01T10:34:07.450,1743496447450,11.828678671664,46.376901435478,19.78152,1893.7224,5.00400661376,1
2025-04-01T10:34:07.560,1743496447560,11.8286790502487,46.3768969295058,19.78152,1893.7224,4.9091831712,1
2025-04-01T10:34:07.660,1743496447660,11.828679502723,46.3768914655538,19.78152,1893.7224,5.00900005056,1
2025-04-01T10:34:07.760,1743496447760,11.8286799097115,46.3768868672231,19.78152,1893.7224,5.00900005056,1
2025-04-01T10:34:07.860,1743496447860,11.8286802668444,46.376882856753,19.78152,1893.7224,5.00900005056,1
2025-04-01T10:34:07.960,1743496447960,11.828680656751,46.376878329267,19.78152,1893.7224,4.9091831712,1
2025-04-01T10:34:08.070,1743496448070,11.8286810410959,46.3768736320004,19.87296,1893.7224,4.9091831712,1
2025-04-01T10:34:08.170,1743496448170,11.8286814097493,46.3768691095845,19.87296,1893.7224,4.90408780928,1
2025-04-01T10:34:08.270,1743496448270,11.8286816012265,46.3768645892242,19.87296,1893.7224,4.90408780928,1
2025-04-01T10:34:08.370,1743496448370,11.8286819241955,46.3768600548867,19.87296,1893.7224,4.90408780928,1
2025-04-01T10:34:08.470,1743496448470,11.828682164138,46.3768558288677,19.87296,1893.7224,4.90408780928,1
2025-04-01T10:34:08.570,1743496448570,11.8286824589017,46.3768513198809,19.87296,1893.7224,5.00400661376,1
2025-04-01T10:34:08.680,1743496448680,11.8286826539543,46.3768463177215,19.99488,1893.7224,5.00400661376,1
2025-04-01T10:34:08.780,1743496448780,11.8286829056159,46.3768417757103,19.99488,1893.7224,4.90408780928,1
2025-04-01T10:34:08.880,1743496448880,11.828683130264,46.3768373879954,19.99488,1893.7224,4.90102826752,1
2025-04-01T10:34:08.980,1743496448980,11.8286833280974,46.376832881064,19.99488,1893.7224,4.90102826752,1
2025-04-01T10:34:09.090,1743496449090,11.828683586115,46.3768283557705,19.99488,1893.7224,4.90102826752,1
2025-04-01T10:34:09.150,1743496449150,11.8286837950715,46.3768238610349,19.99488,1893.7224,4.90102826752,1
2025-04-01T10:34:09.250,1743496449250,11.8286840715615,46.3768194326219,19.99488,1893.7224,4.90408780928,1
2025-04-01T10:34:09.350,1743496449350,11.8286843236202,46.3768149470673,20.08632,1894.0272,4.90408780928,1
2025-04-01T10:34:09.450,1743496449450,11.8286844006878,46.3768103073534,20.08632,1894.0272,4.90408780928,1
2025-04-01T10:34:09.550,1743496449550,11.8286846414248,46.3768058197433,20.08632,1894.0272,4.90102826752,1
2025-04-01T10:34:09.650,1743496449650,11.8286849794895,46.3768013314481,20.08632,1894.0272,4.90408780928,1
2025-04-01T10:34:09.750,1743496449750,11.82868523274,46.3767968472637,20.08632,1894.0272,4.90408780928,1
2025-04-01T10:34:09.850,1743496449850,11.8286855040657,46.3767923482801,20.08632,1894.0272,4.90408780928,1
2025-04-01T10:34:09.950,1743496449950,11.8286857712202,46.3767878543666,20.08632,1894.0272,4.90408780928,1
2025-04-01T10:34:10.050,1743496450050,11.8286858901983,46.3767833349654,20.08632,1894.0272,4.90408780928,1
2025-04-01T10:34:10.150,1743496450150,11.8286861297435,46.3767788481776,20.17776,1894.0272,4.90408780928,1
2025-04-01T10:34:10.250,1743496450250,11.8286865502387,46.3767740133323,20.17776,1894.0272,4.90408780928,1
2025-04-01T10:34:10.350,1743496450350,11.8286868265301,46.3767695148968,20.17776,1894.0272,4.90408780928,1
2025-04-01T10:34:10.450,1743496450450,11.8286870511782,46.3767657669771,20.17776,1894.0272,4.90408780928,1
2025-04-01T10:34:10.550,1743496450550,11.828687352298,46.3767613440454,20.17776,1894.0272,4.90408780928,1
2025-04-01T10:34:10.650,1743496450650,11.828687792656,46.3767565747006,20.17776,1894.0272,4.90408780928,1
2025-04-01T10:34:10.750,1743496450750,11.828688111851,46.376752111482,20.17776,1894.0272,4.90408780928,1
2025-04-01T10:34:10.850,1743496450850,11.8286884552786,46.3767475090404,20.17776,1894.0272,4.90408780928,1
2025-04-01T10:34:10.950,1743496450950,11.8286887708983,46.3767430214303,20.29968,1894.0272,4.90408780928,1
2025-04-01T10:34:11.020,1743496451020,11.8286889933615,46.3767385979504,20.29968,1894.0272,4.90408780928,1
2025-04-01T10:34:11.120,1743496451120,11.8286892879267,46.3767341613157,20.29968,1894.0272,4.90408780928,1
2025-04-01T10:34:11.250,1743496451250,11.8286897149766,46.3767296600025,20.29968,1894.0272,4.80417258112,1
2025-04-01T10:34:11.320,1743496451320,11.8286900476782,46.3767252302193,20.29968,1894.0272,4.80417258112,1
2025-04-01T10:34:11.430,1743496451430,11.828690340853,46.376721205224,20.29968,1894.0272,4.90408780928,1
2025-04-01T10:34:11.550,1743496451550,11.8286907253965,46.3767167995581,20.29968,1894.0272,4.9091831712,1
2025-04-01T10:34:11.630,1743496451630,11.8286911250358,46.3767122642614,20.29968,1894.0272,4.9091831712,1
2025-04-01T10:34:11.730,1743496451730,11.8286915423529,46.3767078194048,20.29968,1894.0272,4.9091831712,1
2025-04-01T10:34:11.830,1743496451830,11.8286920281967,46.3767029256365,20.29968,1894.0272,4.9091831712,1
2025-04-01T10:34:11.950,1743496451950,11.8286924494864,46.3766984067834,20.29968,1894.0272,5.00900005056,1
2025-04-01T10:34:12.050,1743496452050,11.8286929786311,46.3766937807726,20.29968,1894.0272,5.00900005056,1
2025-04-01T10:34:12.140,1743496452140,11.8286933685376,46.3766892616455,20.29968,1894.0272,4.90408780928,1
2025-04-01T10:34:12.240,1743496452240,11.8286937673824,46.3766849191507,20.29968,1894.0272,4.90408780928,1
2025-04-01T10:34:12.340,1743496452340,11.8286940963102,46.3766804699091,20.29968,1894.0272,4.90408780928,1
2025-04-01T10:34:12.450,1743496452450,11.8286943336705,46.3766762693778,20.29968,1894.0272,4.80417258112,1
2025-04-01T10:34:12.550,1743496452550,11.8286946502833,46.3766718554901,20.39112,1894.332,4.80417258112,1
2025-04-01T10:34:12.650,1743496452650,11.828695119641,46.3766673508882,20.39112,1894.332,4.80937344448,1
2025-04-01T10:34:12.750,1743496452750,11.8286954990202,46.376662930149,20.39112,1894.332,4.9091831712,1
2025-04-01T10:34:12.850,1743496452850,11.8286959655971,46.3766581039366,20.39112,1894.332,4.9091831712,1
2025-04-01T10:34:12.950,1743496452950,11.8286963650377,46.3766536079677,20.39112,1894.332,4.9091831712,1
2025-04-01T10:34:13.050,1743496453050,11.828696877299,46.3766490969254,20.39112,1894.332,4.9091831712,1
2025-04-01T10:34:13.160,1743496453160,11.8286972854793,46.3766445653285,20.39112,1894.332,5.00900005056,1
2025-04-01T10:34:13.260,1743496453260,11.8286975834211,46.3766399213667,20.39112,1894.332,5.00900005056,1
2025-04-01T10:34:13.360,1743496453360,11.8286980370871,46.3766353582528,20.39112,1894.332,5.00900005056,1
2025-04-01T10:34:13.460,1743496453460,11.8286984855888,46.3766311897866,20.39112,1894.332,5.00900005056,1
2025-04-01T10:34:13.570,1743496453570,11.828698986727,46.3766266842255,20.39112,1894.332,5.00900005056,1
2025-04-01T10:34:13.670,1743496453670,11.8286995107073,46.3766216225949,20.39112,1894.332,4.9091831712,1
2025-04-01T10:34:13.770,1743496453770,11.8287000037017,46.37661708168,20.39112,1894.332,4.9091831712,1
2025-04-01T10:34:13.870,1743496453870,11.8287004287653,46.3766126005103,20.39112,1894.332,4.9091831712,1
2025-04-01T10:34:13.970,1743496453970,11.8287009271226,46.3766080724762,20.39112,1894.332,4.9091831712,1
2025-04-01T10:34:14.070,1743496454070,11.8287014191238,46.3766037261445,20.39112,1894.332,4.91630720064,1
2025-04-01T10:34:14.170,1743496454170,11.8287019782613,46.376599227709,20.39112,1894.332,4.91630720064,1
2025-04-01T10:34:14.280,1743496454280,11.8287025950008,46.3765946396556,20.39112,1894.332,4.91630720064,1
2025-04-01T10:34:14.380,1743496454380,11.8287032242539,46.3765901442348,20.39112,1894.332,4.91630720064,1
2025-04-01T10:34:14.480,1743496454480,11.8287038578768,46.3765854229878,20.39112,1894.332,4.92545229792,1
2025-04-01T10:34:14.580,1743496454580,11.8287045097735,46.3765809001609,20.39112,1894.332,4.92545229792,1
2025-04-01T10:34:14.680,1743496454680,11.8287052168887,46.376576292101,20.39112,1894.332,4.92545229792,1
2025-04-01T10:34:14.750,1743496454750,11.8287058626279,46.3765717605042,20.48256,1894.332,4.91630720064,1
2025-04-01T10:34:14.850,1743496454850,11.8287064275256,46.3765668285043,20.39112,1894.332,4.91630720064,1
2025-04-01T10:34:14.950,1743496454950,11.828707061943,46.3765622615536,20.48256,1894.332,4.91630720064,1
2025-04-01T10:34:15.050,1743496455050,11.8287075191844,46.3765580856878,20.48256,1894.332,4.91630720064,1
2025-04-01T10:34:15.150,1743496455150,11.8287081651222,46.3765535765639,20.48256,1894.332,4.92545229792,1
2025-04-01T10:34:15.250,1743496455250,11.8287089773116,46.3765486955394,20.48256,1894.332,4.92545229792,1
2025-04-01T10:34:15.350,1743496455350,11.8287096611873,46.3765441765494,20.39112,1894.332,4.92545229792,1
2025-04-01T10:34:15.450,1743496455450,11.8287104253088,46.376539336908,20.39112,1894.332,4.92545229792,1
2025-04-01T10:34:15.550,1743496455550,11.8287111091846,46.3765347940747,20.39112,1894.332,4.92545229792,1
2025-04-01T10:34:15.650,1743496455650,11.8287116387265,46.3765307796307,20.39112,1894.332,4.91630720064,1
2025-04-01T10:34:15.750,1743496455750,11.8287122669865,46.3765262905133,20.39112,1894.332,4.91630720064,1
2025-04-01T10:34:15.850,1743496455850,11.8287128114255,46.3765218118102,20.39112,1894.332,4.91630720064,1
2025-04-01T10:34:15.950,1743496455950,11.8287134289596,46.376517323789,20.48256,1894.332,4.91630720064,1
2025-04-01T10:34:16.050,1743496456050,11.8287139193718,46.3765128176798,20.48256,1894.332,4.91630720064,1
2025-04-01T10:34:16.150,1743496456150,11.8287145152554,46.3765083230811,20.48256,1894.332,4.91630720064,1
2025-04-01T10:34:16.220,1743496456220,11.8287150741942,46.3765038103945,20.48256,1894.332,4.91630720064,1
2025-04-01T10:34:16.320,1743496456320,11.8287156589547,46.3764993193586,20.48256,1894.332,4.91630720064,1
2025-04-01T10:34:16.450,1743496456450,11.8287161980308,46.3764953019,20.48256,1894.332,4.91630720064,1
2025-04-01T10:34:16.550,1743496456550,11.8287167760379,46.376490868965,20.48256,1894.332,4.91630720064,1
2025-04-01T10:34:16.620,1743496456620,11.8287174378659,46.3764861208601,20.48256,1894.332,4.91630720064,1
2025-04-01T10:34:16.720,1743496456720,11.8287180836051,46.3764816868289,20.48256,1894.332,4.92545229792,1
2025-04-01T10:34:16.820,1743496456820,11.8287186939885,46.3764771892156,20.48256,1894.332,4.82597919232,1
2025-04-01T10:34:16.950,1743496456950,11.8287194005078,46.376472789168,20.48256,1894.332,4.82597919232,1
2025-04-01T10:34:17.030,1743496457030,11.8287201576773,46.3764684400956,20.48256,1894.332,4.82597919232,1
2025-04-01T10:34:17.130,1743496457130,11.8287208929976,46.3764640493661,20.48256,1894.332,4.82597919232,1
2025-04-01T10:34:17.250,1743496457250,11.8287217002214,46.3764595739517,20.48256,1894.332,4.82597919232,1
2025-04-01T10:34:17.340,1743496457340,11.8287224047545,46.3764551470461,20.48256,1894.332,4.82597919232,1
2025-04-01T10:34:17.450,1743496457450,11.8287227887022,46.3764510391474,20.48256,1894.332,4.92545229792,1
2025-04-01T10:34:17.550,1743496457550,11.8287234183525,46.3764466144342,20.48256,1894.332,4.92545229792,1
2025-04-01T10:34:17.640,1743496457640,11.8287243342257,46.3764419677318,20.48256,1894.332,4.92545229792,1
2025-04-01T10:34:17.740,1743496457740,11.8287249853278,46.3764375062945,20.48256,1894.332,4.92545229792,1
2025-04-01T10:34:17.840,1743496457840,11.8287256197452,46.3764326356843,20.48256,1894.332,4.92545229792,1
2025-04-01T10:34:17.950,1743496457950,11.8287262774021,46.3764281188867,20.48256,1894.332,4.92545229792,1
2025-04-01T10:34:18.050,1743496458050,11.8287269400247,46.3764237232241,20.48256,1894.332,4.92545229792,1
2025-04-01T10:34:18.150,1743496458150,11.8287275911269,46.3764192371213,20.48256,1894.332,4.92545229792,1
2025-04-01T10:34:18.250,1743496458250,11.8287282414345,46.376414748278,20.48256,1894.332,4.92545229792,1
2025-04-01T10:34:18.350,1743496458350,11.8287289074338,46.3764102857444,20.48256,1894.332,4.92545229792,1
2025-04-01T10:34:18.450,1743496458450,11.8287295644948,46.3764061767494,20.48256,1894.332,4.92545229792,1
2025-04-01T10:34:18.560,1743496458560,11.8287302708155,46.3764017243562,20.48256,1894.332,4.92545229792,1
2025-04-01T10:34:18.660,1743496458660,11.8287311473603,46.3763972651114,20.39112,1894.332,4.92545229792,1
2025-04-01T10:34:18.760,1743496458760,11.8287318910231,46.3763927883267,20.39112,1894.332,5.02494596736,1
2025-04-01T10:34:18.860,1743496458860,11.828732527824,46.3763877724642,20.39112,1894.332,5.02494596736,1
2025-04-01T10:34:18.960,1743496458960,11.8287332393091,46.3763832458005,20.39112,1894.332,4.92545229792,1
2025-04-01T10:34:19.060,1743496459060,11.8287339966772,46.3763787152998,20.39112,1894.332,4.92545229792,1
2025-04-01T10:34:19.160,1743496459160,11.8287347057787,46.3763742086425,20.39112,1894.332,4.92545229792,1
2025-04-01T10:34:19.270,1743496459270,11.8287353405934,46.376369822846,20.39112,1894.332,4.92545229792,1
2025-04-01T10:34:19.370,1743496459370,11.8287360604208,46.3763654069029,20.39112,1894.332,4.82597919232,1
2025-04-01T10:34:19.470,1743496459470,11.828736890288,46.3763614163022,20.39112,1894.332,4.82597919232,1
2025-04-01T10:34:19.570,1743496459570,11.828737656197,46.3763571203978,20.39112,1894.332,4.72652843872,1
2025-04-01T10:34:19.670,1743496459670,11.8287384177363,46.3763523155622,20.48256,1894.332,4.72652843872,1
2025-04-01T10:34:19.770,1743496459770,11.8287391546457,46.3763479969106,20.48256,1894.332,4.72652843872,1
2025-04-01T10:34:19.870,1743496459870,11.8287398637473,46.3763436563342,20.48256,1894.332,4.72652843872,1
2025-04-01T10:34:19.980,1743496459980,11.8287405168358,46.3763393237056,20.48256,1894.332,4.71699799296,1
2025-04-01T10:34:20.080,1743496460080,11.828741115103,46.3763349447606,20.48256,1894.332,4.71699799296,1
2025-04-01T10:34:20.180,1743496460180,11.8287416968841,46.3763305984289,20.39112,1894.332,4.71699799296,1
2025-04-01T10:34:20.280,1743496460280,11.8287422327821,46.3763263129387,20.39112,1894.332,4.81664544416,1
2025-04-01T10:34:20.380,1743496460380,11.8287427567625,46.3763219605777,20.39112,1894.332,4.80937344448,1
2025-04-01T10:34:20.480,1743496460480,11.8287431687167,46.3763177397658,20.39112,1894.332,4.80937344448,1
2025-04-01T10:34:20.550,1743496460550,11.8287436797862,46.3763133980932,20.39112,1894.332,4.80937344448,1
2025-04-01T10:34:20.650,1743496460650,11.8287442975189,46.3763083416697,20.39112,1894.332,4.81664544416,1
2025-04-01T10:34:20.750,1743496460750,11.8287448365949,46.3763039262746,20.39112,1894.332,4.81664544416,1
2025-04-01T10:34:20.850,1743496460850,11.8287452872816,46.3762998471523,20.39112,1894.332,4.81664544416,1
2025-04-01T10:34:20.950,1743496460950,11.8287458116592,46.3762954410753,20.39112,1894.332,4.80937344448,1
2025-04-01T10:34:21.050,1743496461050,11.8287462573801,46.3762909886821,20.39112,1894.332,4.80937344448,1
2025-04-01T10:34:21.150,1743496461150,11.828746751169,46.3762865875382,20.39112,1894.332,4.80937344448,1
2025-04-01T10:34:21.250,1743496461250,11.8287471458426,46.3762821658398,20.29968,1894.0272,4.80937344448,1
2025-04-01T10:34:21.350,1743496461350,11.8287476094401,46.3762777737399,20.29968,1894.0272,4.80937344448,1
2025-04-01T10:34:21.450,1743496461450,11.8287480265586,46.3762737521703,20.29968,1894.0272,4.80937344448,1
2025-04-01T10:34:21.550,1743496461550,11.8287484931355,46.3762693970687,20.29968,1894.0272,4.80937344448,1
2025-04-01T10:34:21.650,1743496461650,11.8287491303336,46.3762646240242,20.29968,1894.0272,4.81664544416,1
2025-04-01T10:34:21.710,1743496461710,11.8287497051627,46.3762602467236,20.29968,1894.0272,4.81664544416,1
2025-04-01T10:34:21.810,1743496461810,11.828750232321,46.3762558274917,20.29968,1894.0272,4.81664544416,1
2025-04-01T10:34:21.920,1743496461920,11.8287508005954,46.3762514055192,20.29968,1894.0272,4.81664544416,1
2025-04-01T10:34:22.020,1743496462020,11.8287511201876,46.3762469139352,20.29968,1894.0272,4.81664544416,1
2025-04-01T10:34:22.120,1743496462120,11.8287516525104,46.3762424519498,20.29968,1894.0272,4.81664544416,1
2025-04-01T10:34:22.250,1743496462250,11.8287523010304,46.3762379535143,20.29968,1894.0272,4.81664544416,1
2025-04-01T10:34:22.320,1743496462320,11.8287528482501,46.3762334838552,20.29968,1894.0272,4.91630720064,1
2025-04-01T10:34:22.420,1743496462420,11.8287532323964,46.3762293471801,20.29968,1894.0272,4.91630720064,1
2025-04-01T10:34:22.550,1743496462550,11.8287537655137,46.3762249109564,20.29968,1894.0272,4.91630720064,1
2025-04-01T10:34:22.630,1743496462630,11.8287544255541,46.3762199707347,20.29968,1894.0272,4.91630720064,1
2025-04-01T10:34:22.750,1743496462750,11.8287549926366,46.376215475862,20.29968,1894.0272,4.91630720064,1
2025-04-01T10:34:22.830,1743496462830,11.82875545683,46.3762109489242,20.17776,1894.0272,4.91630720064,1
2025-04-01T10:34:22.930,1743496462930,11.8287560346384,46.3762064647398,20.29968,1894.0272,4.91630720064,1
2025-04-01T10:34:23.030,1743496463030,11.8287567993557,46.3762019621934,20.29968,1894.0272,4.91630720064,1
2025-04-01T10:34:23.150,1743496463150,11.8287574313896,46.3761974703354,20.29968,1894.0272,4.91630720064,1
2025-04-01T10:34:23.240,1743496463240,11.8287582022644,46.3761926068508,20.29968,1894.0272,4.92545229792,1
2025-04-01T10:34:23.340,1743496463340,11.8287588605172,46.3761880821054,20.29968,1894.0272,4.91630720064,1
2025-04-01T10:34:23.440,1743496463440,11.8287593986001,46.3761841112372,20.29968,1894.0272,4.91630720064,1
2025-04-01T10:34:23.540,1743496463540,11.8287600067987,46.3761796484296,20.29968,1894.0272,4.91630720064,1
2025-04-01T10:34:23.650,1743496463650,11.8287605881826,46.3761751140921,20.29968,1894.0272,4.91630720064,1
2025-04-01T10:34:23.750,1743496463750,11.8287610813756,46.3761706315521,20.29968,1894.0272,4.9091831712,1
2025-04-01T10:34:23.850,1743496463850,11.8287613640232,46.3761661712111,20.29968,1894.0272,4.90408780928,1
2025-04-01T10:34:23.950,1743496463950,11.8287616452804,46.3761616467398,20.29968,1894.0272,5.00100786944,1
2025-04-01T10:34:24.050,1743496464050,11.8287619150172,46.3761569863343,20.29968,1894.0272,5.00100786944,1
2025-04-01T10:34:24.150,1743496464150,11.8287619700372,46.3761524511747,20.29968,1894.0272,5.000008288,1
2025-04-01T10:34:24.260,1743496464260,11.8287619110449,46.376148343276,20.29968,1894.0272,4.90000812224,1
2025-04-01T10:34:24.360,1743496464360,11.828761713013,46.3761438533363,20.29968,1894.0272,4.90102826752,1
2025-04-01T10:34:24.460,1743496464460,11.8287613765375,46.3761393568193,20.29968,1894.0272,5.00400661376,1
2025-04-01T10:34:24.560,1743496464560,11.8287609252552,46.3761350822915,20.29968,1894.0272,5.00900005056,1
2025-04-01T10:34:24.660,1743496464660,11.8287602572698,46.3761296950765,20.29968,1894.0272,5.02494596736,1
2025-04-01T10:34:24.760,1743496464760,11.8287594063483,46.3761251174374,20.29968,1894.0272,5.03587967168,1
2025-04-01T10:34:24.870,1743496464870,11.8287582966146,46.3761209969319,20.39112,1894.332,5.08036238688,1
2025-04-01T10:34:24.970,1743496464970,11.8287569213155,46.3761164820528,20.39112,1894.332,5.00100786944,1
2025-04-01T10:34:25.070,1743496465070,11.8287553166012,46.3761116618698,20.39112,1894.332,5.04480750752,1
2025-04-01T10:34:25.170,1743496465170,11.8287534707525,46.3761072004325,20.39112,1894.332,5.000008288,1
2025-04-01T10:34:25.270,1743496465270,11.8287515810071,46.3761028867141,20.48256,1894.332,5.02892462336,1
2025-04-01T10:34:25.380,1743496465380,11.8287494181484,46.3760985302421,20.48256,1894.332,4.998007784,1
2025-04-01T10:34:25.480,1743496465480,11.8287472332419,46.3760945670476,20.574,1894.332,5.03290015008,1
2025-04-01T10:34:25.580,1743496465580,11.8287447750236,46.376090347058,20.574,1894.332,4.97695488224,1
2025-04-01T10:34:25.680,1743496465680,11.8287419127961,46.3760857817516,20.69592,1894.332,5.01598236832,1
2025-04-01T10:34:25.750,1743496465750,11.8287390742054,46.376081646995,20.69592,1894.332,5.00900005056,1
2025-04-01T10:34:25.850,1743496465850,11.8287357932703,46.3760772699684,20.78736,1894.6368,4.96488480224,1
2025-04-01T10:34:25.950,1743496465950,11.8287325753003,46.3760732303109,20.8788,1894.6368,4.92443662304,1
2025-04-01T10:34:26.050,1743496466050,11.8287294655825,46.3760695069196,20.8788,1894.6368,5.02494596736,1
2025-04-01T10:34:26.150,1743496466150,11.8287259488762,46.3760656267655,20.97024,1894.6368,4.9930031712,1
2025-04-01T10:34:26.250,1743496466250,11.8287222412885,46.3760619252991,20.97024,1894.6368,4.96488480224,1
2025-04-01T10:34:26.350,1743496466350,11.8287183845313,46.3760582262992,21.09216,1894.9416,5.000008288,1
2025-04-01T10:34:26.450,1743496466450,11.8287145418766,46.376054763814,21.1836,1894.9416,4.98197558848,1
2025-04-01T10:34:26.550,1743496466550,11.8287103857871,46.3760512509014,21.27504,1894.9416,4.96790500448,1
2025-04-01T10:34:26.650,1743496466650,11.8287059261943,46.3760477928011,21.27504,1894.9416,4.957830064,1
2025-04-01T10:34:26.750,1743496466750,11.8287014852724,46.3760444371996,21.39696,1895.2464,4.95177535424,1
2025-04-01T10:34:26.850,1743496466850,11.8286965046786,46.3760408168552,21.4884,1895.2464,5.02096418208,1
2025-04-01T10:34:26.950,1743496466950,11.8286917918351,46.3760375818404,21.57984,1895.2464,5.02096418208,1
2025-04-01T10:34:27.050,1743496467050,11.8286870897176,46.376034424933,21.67128,1895.5512,4.95177535424,1
2025-04-01T10:34:27.150,1743496467150,11.8286821530206,46.376031364221,21.7932,1895.5512,4.957830064,1
2025-04-01T10:34:27.250,1743496467250,11.8286770385516,46.3760283917566,21.88464,1895.5512,4.96790500448,1
2025-04-01T10:34:27.310,1743496467310,11.828671870453,46.3760255215168,21.88464,1895.5512,4.98197558848,1
2025-04-01T10:34:27.410,1743496467410,11.8286670181728,46.3760229806983,21.97608,1895.856,5.000008288,1
2025-04-01T10:34:27.550,1743496467550,11.8286617414248,46.3760203269667,22.098,1895.856,4.94065568128,1
2025-04-01T10:34:27.650,1743496467650,11.8286559250048,46.3760173827306,22.18944,1895.856,4.96488480224,1
2025-04-01T10:34:27.720,1743496467720,11.8286504774369,46.3760148698663,22.28088,1896.1608,4.9930031712,1
2025-04-01T10:34:27.820,1743496467820,11.8286449629313,46.376012415651,22.37232,1896.1608,4.93964358272,1
2025-04-01T10:34:27.950,1743496467950,11.828639290914,46.3760100776375,22.49424,1896.1608,5.0606403232,1
2025-04-01T10:34:28.050,1743496468050,11.8286335301099,46.376007860759,22.58568,1896.4656,5.10000845376,1
2025-04-01T10:34:28.130,1743496468130,11.8286275790203,46.376005691293,22.58568,1896.4656,5.14296452736,1
2025-04-01T10:34:28.230,1743496468230,11.8286215584109,46.376003594179,22.67712,1896.4656,5.099027648,1
2025-04-01T10:34:28.330,1743496468330,11.8286154432546,46.3760015946308,22.79904,1896.4656,5.14782340512,1
2025-04-01T10:34:28.430,1743496468430,11.8286092702975,46.3759998115906,22.89048,1896.7704,5.107845512,1
2025-04-01T10:34:28.550,1743496468550,11.8286031029021,46.3759980562307,22.98192,1896.7704,5.03290015008,1
2025-04-01T10:34:28.650,1743496468650,11.8285971456549,46.3759965149122,23.07336,1896.7704,4.96488480224,1
2025-04-01T10:34:28.740,1743496468740,11.8285909826292,46.3759950692411,23.28672,1897.0752,4.93356652096,1
2025-04-01T10:34:28.840,1743496468840,11.8285849822797,46.3759937118175,23.37816,1897.0752,4.78017502688,1
2025-04-01T10:34:28.940,1743496468940,11.8285788853971,46.3759925199267,23.4696,1897.38,4.75395344864,1
2025-04-01T10:34:29.040,1743496469040,11.8285727704393,46.3759913236509,23.59152,1897.38,4.7297010816,1
2025-04-01T10:34:29.150,1743496469150,11.8285666594542,46.3759903164771,23.68296,1897.38,4.70744832448,1
2025-04-01T10:34:29.250,1743496469250,11.8285605738934,46.3759894189277,23.7744,1897.6848,4.68722423488,1
2025-04-01T10:34:29.350,1743496469350,11.8285544221896,46.3759885331629,23.89632,1897.6848,4.7854022656,1
2025-04-01T10:34:29.450,1743496469450,11.8285488262465,46.3759876542497,23.98776,1897.6848,4.76760649728,1
2025-04-01T10:34:29.550,1743496469550,11.8285427214188,46.3759868786573,24.17064,1897.9896,4.76760649728,1
2025-04-01T10:34:29.650,1743496469650,11.8285359789956,46.3759859537019,24.29256,1897.9896,4.75184923136,1
2025-04-01T10:34:29.760,1743496469760,11.8285298082235,46.3759852726605,24.384,1898.2944,4.75184923136,1
2025-04-01T10:34:29.860,1743496469860,11.8285236865124,46.3759848558139,24.47544,1898.2944,4.73815058464,1
2025-04-01T10:34:29.960,1743496469960,11.8285175155416,46.3759842948113,24.59736,1898.2944,4.72652843872,1
2025-04-01T10:34:30.060,1743496470060,11.8285113531118,46.3759837549114,24.78024,1898.5992,4.72652843872,1
2025-04-01T10:34:30.160,1743496470160,11.8285051600933,46.3759832958594,24.87168,1898.5992,4.71699799296,1
2025-04-01T10:34:30.270,1743496470270,11.8284989879308,46.3759827795287,24.9936,1898.904,4.71699799296,1
2025-04-01T10:34:30.370,1743496470370,11.8284927635291,46.3759824092724,25.08504,1898.904,4.70957221152,1
2025-04-01T10:34:30.470,1743496470470,11.8284869808759,46.3759821267156,25.17648,1898.904,4.70957221152,1
2025-04-01T10:34:30.570,1743496470570,11.8284807685905,46.3759818151084,25.2984,1899.2088,4.70957221152,1
2025-04-01T10:34:30.670,1743496470670,11.8284739761131,46.3759816007928,25.38984,1899.2088,4.80417258112,1
2025-04-01T10:34:30.780,1743496470780,11.8284676732534,46.3759813157695,25.48128,1899.2088,4.80417258112,1
2025-04-01T10:34:30.880,1743496470880,11.8284612436692,46.3759809989551,25.57272,1899.5136,4.80417258112,1
2025-04-01T10:34:30.980,1743496470980,11.8284548875772,46.3759807073543,25.69464,1899.5136,4.80417258112,1
2025-04-01T10:34:31.080,1743496471080,11.8284485833272,46.3759804237012,25.78608,1899.5136,4.80937344448,1
2025-04-01T10:34:31.180,1743496471180,11.8284422032012,46.3759801151087,25.87752,1899.8184,4.80937344448,1
2025-04-01T10:34:31.280,1743496471280,11.8284357275353,46.3759799120296,25.99944,1899.8184,4.9091831712,1
2025-04-01T10:34:31.380,1743496471380,11.8284292991428,46.3759795932967,26.09088,1899.8184,4.9091831712,1
2025-04-01T10:34:31.450,1743496471450,11.8284234006895,46.3759792509947,26.27376,1900.1232,4.9091831712,1
2025-04-01T10:34:31.550,1743496471550,11.8284169977214,46.3759788985524,26.39568,1900.1232,4.9091831712,1
2025-04-01T10:34:31.650,1743496471650,11.8284098407619,46.3759785225408,26.48712,1900.428,4.9091831712,1
2025-04-01T10:34:31.750,1743496471750,11.8284033384798,46.3759781254266,26.57856,1900.428,4.91630720064,1
2025-04-01T10:34:31.850,1743496471850,11.8283967007335,46.375977803405,26.67,1900.428,5.01598236832,1
2025-04-01T10:34:31.950,1743496471950,11.8283901660751,46.3759773854622,26.79192,1900.7328,5.01598236832,1
2025-04-01T10:34:32.050,1743496472050,11.8283836324098,46.375976840355,26.88336,1900.7328,4.91630720064,1
2025-04-01T10:34:32.150,1743496472150,11.828377119799,46.3759763815771,26.9748,1900.7328,4.91630720064,1
2025-04-01T10:34:32.250,1743496472250,11.8283705650792,46.3759760877838,27.09672,1900.7328,4.91630720064,1
2025-04-01T10:34:32.350,1743496472350,11.8283640705436,46.3759756163991,27.18816,1901.0376,4.92545229792,1
2025-04-01T10:34:32.450,1743496472450,11.828358029674,46.3759750943131,27.2796,1901.0376,4.92545229792,1
2025-04-01T10:34:32.550,1743496472550,11.8283516030692,46.3759745922335,27.37104,1901.0376,4.92545229792,1
2025-04-01T10:34:32.650,1743496472650,11.8283446153405,46.3759739169475,27.49296,1901.3424,4.92545229792,1
2025-04-01T10:34:32.750,1743496472750,11.8283381615236,46.3759733740328,27.5844,1901.3424,4.92545229792,1
2025-04-01T10:34:32.850,1743496472850,11.8283316973781,46.3759729711633,27.67584,1901.3424,4.92545229792,1
2025-04-01T10:34:32.950,1743496472950,11.8283252771293,46.3759724222194,27.79776,1901.6472,4.93660594592,1
2025-04-01T10:34:33.050,1743496473050,11.8283187671007,46.3759717691322,27.8892,1901.6472,4.83736261888,1
2025-04-01T10:34:33.120,1743496473120,11.8283123520163,46.375971196345,27.98064,1901.6472,4.93660594592,1
2025-04-01T10:34:33.220,1743496473220,11.8283060648482,46.3759704648764,28.07208,1901.952,4.93660594592,1
2025-04-01T10:34:33.350,1743496473350,11.8282996471816,46.3759698742752,28.28544,1901.952,4.93660594592,1
2025-04-01T10:34:33.420,1743496473420,11.828293565792,46.3759694237191,28.37688,1902.2568,4.93660594592,1
2025-04-01T10:34:33.550,1743496473550,11.8282871850702,46.3759688506578,28.4988,1902.2568,4.93660594592,1
2025-04-01T10:34:33.630,1743496473630,11.8282796475396,46.3759681145302,28.59024,1902.2568,4.93660594592,1
2025-04-01T10:34:33.730,1743496473730,11.828273183394,46.3759675157072,28.68168,1902.5616,4.93660594592,1
2025-04-01T10:34:33.830,1743496473830,11.8282675020409,46.3759669218172,28.77312,1902.5616,4.83736261888,1
2025-04-01T10:34:33.950,1743496473950,11.8282611556817,46.3759663323122,28.89504,1902.5616,4.83736261888,1
2025-04-01T10:34:34.030,1743496474030,11.8282547614531,46.3759657115643,28.98648,1902.8664,4.83736261888,1
2025-04-01T10:34:34.150,1743496474150,11.8282484448881,46.3759651434361,29.07792,1902.8664,4.83736261888,1
2025-04-01T10:34:34.240,1743496474240,11.8282426004616,46.3759645996993,29.19984,1902.8664,4.83736261888,1
2025-04-01T10:34:34.340,1743496474340,11.8282363208413,46.3759640323932,29.29128,1903.1712,4.83736261888,1
2025-04-01T10:34:34.440,1743496474440,11.8282298700039,46.3759635346987,29.38272,1903.1712,4.83736261888,1
2025-04-01T10:34:34.540,1743496474540,11.8282235848221,46.3759629424531,29.47416,1903.1712,4.83736261888,1
2025-04-01T10:34:34.640,1743496474640,11.8282166354286,46.3759621728901,29.59608,1903.476,4.83736261888,1
2025-04-01T10:34:34.750,1743496474750,11.8282103061514,46.37596154255,29.68752,1903.476,4.83736261888,1
2025-04-01T10:34:34.840,1743496474840,11.8282046152642,46.37596091221,29.77896,1903.476,4.83736261888,1
2025-04-01T10:34:34.950,1743496474950,11.8281983497465,46.3759602772109,29.8704,1903.7808,4.83736261888,1
2025-04-01T10:34:35.050,1743496475050,11.8281918897722,46.3759597027792,29.99232,1903.7808,4.83736261888,1
2025-04-01T10:34:35.150,1743496475150,11.8281855857208,46.3759590721651,30.08376,1903.7808,4.83736261888,1
2025-04-01T10:34:35.250,1743496475250,11.8281792002319,46.3759583812576,30.1752,1904.0856,4.83736261888,1
2025-04-01T10:34:35.350,1743496475350,11.8281728731396,46.3759577344739,30.29712,1904.0856,4.85078097152,1
2025-04-01T10:34:35.450,1743496475450,11.8281665361159,46.3759570309596,30.38856,1904.0856,4.85078097152,1
2025-04-01T10:34:35.550,1743496475550,11.8281602255097,46.3759563674582,30.48,1904.3904,4.85078097152,1
2025-04-01T10:34:35.660,1743496475660,11.8281538352537,46.3759556883353,30.57144,1904.3904,4.85078097152,1
2025-04-01T10:34:35.760,1743496475760,11.8281475230585,46.3759550327816,30.69336,1904.3904,4.85078097152,1
2025-04-01T10:34:35.860,1743496475860,11.8281406630476,46.3759543690061,30.7848,1904.6952,4.83736261888,1
2025-04-01T10:34:35.960,1743496475960,11.8281342831203,46.3759537331849,30.99816,1904.6952,4.83736261888,1
2025-04-01T10:34:36.060,1743496476060,11.8281280718281,46.375953000072,31.0896,1905,4.83736261888,1
2025-04-01T10:34:36.160,1743496476160,11.8281217252702,46.3759523683616,31.18104,1905,4.83736261888,1
2025-04-01T10:34:36.270,1743496476270,11.8281149472926,46.3759517065046,31.27248,1905,4.83736261888,1
2025-04-01T10:34:36.370,1743496476370,11.8281086196044,46.3759510843863,31.3944,1905.3048,4.73815058464,1
2025-04-01T10:34:36.470,1743496476470,11.8281033041238,46.3759506869981,31.48584,1905.3048,4.73815058464,1
2025-04-01T10:34:36.570,1743496476570,11.8280971309681,46.3759500895453,31.57728,1905.3048,4.73815058464,1
2025-04-01T10:34:36.670,1743496476670,11.8280904207226,46.3759493339594,31.6992,1905.6096,4.73815058464,1
2025-04-01T10:34:36.770,1743496476770,11.8280841899649,46.3759487074562,31.79064,1905.6096,4.73815058464,1
2025-04-01T10:34:36.870,1743496476870,11.8280785131803,46.3759481697488,31.88208,1905.6096,4.73815058464,1
2025-04-01T10:34:36.980,1743496476980,11.828072280039,46.3759475221428,31.97352,1905.9144,4.85078097152,1
2025-04-01T10:34:37.080,1743496477080,11.8280653848711,46.375946856723,32.09544,1905.9144,4.85078097152,1
2025-04-01T10:34:37.180,1743496477180,11.8280590037521,46.375946159238,32.18688,1905.9144,4.94975562752,1
2025-04-01T10:34:37.280,1743496477280,11.8280525547023,46.3759454058446,32.27832,1906.2192,4.94975562752,1
2025-04-01T10:34:37.350,1743496477350,11.8280461662339,46.3759446779389,32.36976,1906.2192,4.85078097152,1
2025-04-01T10:34:37.450,1743496477450,11.8280403974845,46.3759439497591,32.49168,1906.2192,4.85078097152,1
2025-04-01T10:34:37.550,1743496477550,11.8280341710964,46.3759432815987,32.58312,1906.524,4.83736261888,1
2025-04-01T10:34:37.650,1743496477650,11.8280274086118,46.3759426359112,32.79648,1906.524,4.73815058464,1
2025-04-01T10:34:37.750,1743496477750,11.8280211659363,46.3759420266738,32.88792,1906.8288,4.73815058464,1
2025-04-01T10:34:37.850,1743496477850,11.8280148307003,46.3759414122293,32.97936,1906.8288,4.73815058464,1
2025-04-01T10:34:37.950,1743496477950,11.8280085955727,46.3759408243687,33.0708,1906.8288,4.73815058464,1
2025-04-01T10:34:38.050,1743496478050,11.8280029912872,46.3759402036208,33.19272,1907.1336,4.73815058464,1
2025-04-01T10:34:38.150,1743496478150,11.8279969184385,46.375939614938,33.28416,1907.1336,4.63897297248,1
2025-04-01T10:34:38.250,1743496478250,11.8279902058094,46.3759391024441,33.3756,1907.1336,4.63897297248,1
2025-04-01T10:34:38.350,1743496478350,11.8279841307759,46.3759385282865,33.49752,1907.1336,4.63897297248,1
2025-04-01T10:34:38.450,1743496478450,11.8279786436809,46.3759379415222,33.58896,1907.4384,4.63897297248,1
2025-04-01T10:34:38.550,1743496478550,11.8279725620928,46.375937373668,33.6804,1907.4384,4.63897297248,1
2025-04-01T10:34:38.650,1743496478650,11.8279657193626,46.3759367337358,33.77184,1907.4384,4.73815058464,1
2025-04-01T10:34:38.750,1743496478750,11.8279593964416,46.3759361508083,33.9852,1907.7432,4.83736261888,1
2025-04-01T10:34:38.850,1743496478850,11.8279526528267,46.3759356224189,34.07664,1907.7432,4.83736261888,1
2025-04-01T10:34:38.950,1743496478950,11.8279462438997,46.3759350055078,34.19856,1908.048,4.83736261888,1
2025-04-01T10:34:39.050,1743496479050,11.827940476938,46.3759343181631,34.29,1908.048,4.83736261888,1
2025-04-01T10:34:39.120,1743496479120,11.8279341834138,46.3759336458917,34.38144,1908.048,4.85078097152,1
2025-04-01T10:34:39.230,1743496479230,11.8279278648625,46.3759330969478,34.47288,1908.3528,4.85078097152,1
2025-04-01T10:34:39.330,1743496479330,11.8279215610097,46.3759324038478,34.5948,1908.3528,4.85078097152,1
2025-04-01T10:34:39.440,1743496479440,11.827915775377,46.3759317206139,34.68624,1908.3528,4.85078097152,1
2025-04-01T10:34:39.540,1743496479540,11.8279095017155,46.3759310310767,34.77768,1908.6576,4.85078097152,1
2025-04-01T10:34:39.650,1743496479650,11.8279025880751,46.3759304103288,34.8996,1908.6576,4.85078097152,1
2025-04-01T10:34:39.750,1743496479750,11.8278962897838,46.3759297646414,34.99104,1908.6576,4.83736261888,1
2025-04-01T10:34:39.840,1743496479840,11.8278899543492,46.3759292463922,35.08248,1908.9624,4.83736261888,1
2025-04-01T10:34:39.940,1743496479940,11.8278836659893,46.3759286508579,35.17392,1908.9624,4.83736261888,1
2025-04-01T10:34:40.050,1743496480050,11.8278772757333,46.3759279404921,35.29584,1908.9624,4.83736261888,1
2025-04-01T10:34:40.150,1743496480150,11.8278709681066,46.3759273408468,35.38728,1909.2672,4.83736261888,1
2025-04-01T10:34:40.250,1743496480250,11.8278647903824,46.3759266732345,35.47872,1909.2672,4.83736261888,1
2025-04-01T10:34:40.350,1743496480350,11.8278584877214,46.3759260461832,35.57016,1909.2672,4.83736261888,1
2025-04-01T10:34:40.450,1743496480450,11.8278526138979,46.3759254709294,35.69208,1909.572,4.85078097152,1
2025-04-01T10:34:40.560,1743496480560,11.8278463483802,46.3759248205828,35.69208,1909.572,4.85078097152,1
2025-04-01T10:34:40.660,1743496480660,11.827839785318,46.3759242110714,35.78352,1909.572,4.85078097152,1
2025-04-01T10:34:40.760,1743496480760,11.8278334818625,46.3759235604509,35.87496,1909.572,4.85078097152,1
2025-04-01T10:34:40.860,1743496480860,11.8278266270159,46.3759228440557,35.87496,1909.572,4.85078097152,1
2025-04-01T10:34:40.960,1743496480960,11.8278202955537,46.3759221991904,35.99688,1909.8768,4.85078097152,1
2025-04-01T10:34:41.060,1743496481060,11.8278140894258,46.3759215737834,36.08832,1909.8768,4.83736261888,1
2025-04-01T10:34:41.160,1743496481160,11.8278077776279,46.3759209491987,36.08832,1909.8768,4.83736261888,1
2025-04-01T10:34:41.270,1743496481270,11.8278015430962,46.3759203651749,36.17976,1909.8768,4.83736261888,1
2025-04-01T10:34:41.370,1743496481370,11.8277952392433,46.3759197901952,36.2712,1910.1816,4.73815058464,1
2025-04-01T10:34:41.480,1743496481480,11.8277886058668,46.3759191557442,36.2712,1910.1816,4.73815058464,1
2025-04-01T10:34:41.580,1743496481580,11.8277822628843,46.3759186018671,36.39312,1910.1816,4.83736261888,1
2025-04-01T10:34:41.680,1743496481680,11.8277763326505,46.3759181250012,36.48456,1910.1816,4.82597919232,1
2025-04-01T10:34:41.780,1743496481780,11.8277699924489,46.3759175900343,36.48456,1910.1816,4.82597919232,1
2025-04-01T10:34:41.880,1743496481880,11.8277637529515,46.3759171101537,36.576,1910.4864,4.82597919232,1
2025-04-01T10:34:41.980,1743496481980,11.827757360312,46.375916598482,36.69792,1910.4864,4.92545229792,1
2025-04-01T10:34:42.080,1743496482080,11.8277514064416,46.3759159536167,36.69792,1910.4864,4.92545229792,1
2025-04-01T10:34:42.190,1743496482190,11.8277449945352,46.3759154233089,36.78936,1910.4864,4.92545229792,1
2025-04-01T10:34:42.250,1743496482250,11.827738458685,46.375915000707,36.78936,1910.4864,4.92545229792,1
2025-04-01T10:34:42.350,1743496482350,11.8277320008956,46.3759144975312,36.8808,1910.7912,4.92545229792,1
2025-04-01T10:34:42.450,1743496482450,11.8277253395126,46.375914055471,36.8808,1910.7912,4.92545229792,1
2025-04-01T10:34:42.550,1743496482550,11.8277188191554,46.3759135547617,36.97224,1910.7912,5.02494596736,1
2025-04-01T10:34:42.650,1743496482650,11.8277123214418,46.3759129145555,36.97224,1910.7912,5.02494596736,1
2025-04-01T10:34:42.750,1743496482750,11.8277058126049,46.3759123853439,37.09416,1910.7912,5.02494596736,1
2025-04-01T10:34:42.850,1743496482850,11.8276988089861,46.3759116763484,37.09416,1910.7912,4.92545229792,1
2025-04-01T10:34:42.950,1743496482950,11.8276923017383,46.375911112057,37.1856,1911.096,4.93660594592,1
2025-04-01T10:34:43.050,1743496483050,11.8276857225872,46.375910626147,37.1856,1911.096,4.93660594592,1
2025-04-01T10:34:43.150,1743496483150,11.8276792306338,46.3759100563744,37.1856,1911.096,4.92545229792,1
2025-04-01T10:34:43.250,1743496483250,11.8276728765281,46.3759096274691,37.27704,1911.096,4.92545229792,1
2025-04-01T10:34:43.350,1743496483350,11.8276664161564,46.3759090831842,37.27704,1911.096,4.92545229792,1
2025-04-01T10:34:43.450,1743496483450,11.8276602632608,46.3759086068664,37.27704,1911.096,4.92545229792,1
2025-04-01T10:34:43.550,1743496483550,11.8276538404298,46.3759080661442,37.39896,1911.096,4.92545229792,1
2025-04-01T10:34:43.650,1743496483650,11.82764740151,46.3759073667408,37.39896,1911.096,4.92545229792,1
2025-04-01T10:34:43.750,1743496483750,11.8276409949666,46.3759068071085,37.39896,1911.096,4.93660594592,1
2025-04-01T10:34:43.850,1743496483850,11.8276339040508,46.3759063472343,37.4904,1911.4008,4.93660594592,1
2025-04-01T10:34:43.950,1743496483950,11.8276274405011,46.375905787876,37.4904,1911.4008,4.93660594592,1
2025-04-01T10:34:44.050,1743496484050,11.8276210253174,46.3759050758658,37.4904,1911.4008,4.93660594592,1
2025-04-01T10:34:44.120,1743496484120,11.8276145526309,46.3759044814277,37.58184,1911.4008,4.93660594592,1
2025-04-01T10:34:44.250,1743496484250,11.8276085658875,46.3759039779779,37.58184,1911.4008,4.93660594592,1
2025-04-01T10:34:44.350,1743496484350,11.8276021149507,46.3759033747699,37.58184,1911.4008,4.93660594592,1
2025-04-01T10:34:44.450,1743496484450,11.8275953972567,46.3759028526839,37.58184,1911.4008,4.93660594592,1
2025-04-01T10:34:44.550,1743496484550,11.8275888923925,46.3759022661936,37.67328,1911.4008,4.93660594592,1
2025-04-01T10:34:44.650,1743496484650,11.8275823916994,46.3759016640818,37.67328,1911.4008,5.03587967168,1
2025-04-01T10:34:44.750,1743496484750,11.8275758821674,46.3759010948573,37.67328,1911.4008,5.03587967168,1
2025-04-01T10:34:44.830,1743496484830,11.8275692079729,46.3759005234403,37.67328,1911.4008,4.92545229792,1
2025-04-01T10:34:44.950,1743496484950,11.8275626983416,46.3759000016284,37.7952,1911.7056,4.92545229792,1
2025-04-01T10:34:45.050,1743496485050,11.8275561594126,46.3758994315817,37.7952,1911.7056,4.92545229792,1
2025-04-01T10:34:45.140,1743496485140,11.8275496511717,46.3758989327909,37.7952,1911.7056,4.92545229792,1
2025-04-01T10:34:45.240,1743496485240,11.8275429555254,46.3758985756896,37.7952,1911.7056,4.92545229792,1
2025-04-01T10:34:45.340,1743496485340,11.8275364283155,46.3758980886834,37.7952,1911.7056,4.92545229792,1
2025-04-01T10:34:45.450,1743496485450,11.8275299323895,46.3758974665651,37.7952,1911.7056,5.02494596736,1
2025-04-01T10:34:45.550,1743496485550,11.8275234020016,46.3758969732555,37.7952,1911.7056,5.02494596736,1
2025-04-01T10:34:45.650,1743496485650,11.8275162510009,46.3758964574729,37.7952,1911.7056,5.02494596736,1
2025-04-01T10:34:45.750,1743496485750,11.8275096679766,46.3758959743036,37.88664,1911.7056,5.02494596736,1
2025-04-01T10:34:45.850,1743496485850,11.8275031356023,46.375895548687,37.88664,1911.7056,4.91630720064,1
2025-04-01T10:34:45.950,1743496485950,11.8274966496076,46.3758951504766,37.88664,1911.7056,4.91630720064,1
2025-04-01T10:34:46.060,1743496486060,11.8274903103989,46.3758948133817,37.7952,1911.7056,4.80937344448,1
2025-04-01T10:34:46.160,1743496486160,11.8274839702964,46.3758945327433,37.7952,1911.7056,4.80937344448,1
2025-04-01T10:34:46.260,1743496486260,11.8274776439986,46.3758941572799,37.7952,1911.7056,4.70426092928,1
2025-04-01T10:34:46.360,1743496486360,11.8274713589161,46.3758938867818,37.7952,1911.7056,4.70426092928,1
2025-04-01T10:34:46.470,1743496486470,11.8274656233376,46.3758935913441,37.7952,1911.7056,4.70957221152,1
2025-04-01T10:34:46.570,1743496486570,11.82745939834,46.3758932871366,37.7952,1911.7056,4.70957221152,1
2025-04-01T10:34:46.670,1743496486670,11.8274520850603,46.3758928560388,37.7952,1911.7056,4.70957221152,1
2025-04-01T10:34:46.770,1743496486770,11.8274457535982,46.3758925381281,37.7952,1911.7056,4.70957221152,1
2025-04-01T10:34:46.870,1743496486870,11.8274400736355,46.3758922555714,37.67328,1911.4008,4.70957221152,1
2025-04-01T10:34:46.980,1743496486980,11.8274338024569,46.3758919486232,37.67328,1911.4008,4.70957221152,1
2025-04-01T10:34:47.080,1743496487080,11.8274274340501,46.3758916962131,37.67328,1911.4008,4.70957221152,1
2025-04-01T10:34:47.180,1743496487180,11.8274211294027,46.3758913840577,37.67328,1911.4008,4.70957221152,1
2025-04-01T10:34:47.280,1743496487280,11.827414879974,46.375891092731,37.67328,1911.4008,4.80937344448,1
2025-04-01T10:34:47.350,1743496487350,11.8274085169301,46.375890786879,37.67328,1911.4008,4.80937344448,1
2025-04-01T10:34:47.450,1743496487450,11.8274026603873,46.3758905361133,37.67328,1911.4008,4.80937344448,1
2025-04-01T10:34:47.550,1743496487550,11.8273962709259,46.3758902683558,37.67328,1911.4008,4.90408780928,1
2025-04-01T10:34:47.650,1743496487650,11.8273891678938,46.3758900186864,37.58184,1911.4008,4.90408780928,1
2025-04-01T10:34:47.750,1743496487750,11.8273826760397,46.3758897610691,37.58184,1911.4008,4.90408780928,1
2025-04-01T10:34:47.850,1743496487850,11.8273760711664,46.3758894379513,37.58184,1911.4008,4.90408780928,1
2025-04-01T10:34:47.950,1743496487950,11.8273695325354,46.3758891419656,37.58184,1911.4008,4.9091831712,1
2025-04-01T10:34:48.050,1743496488050,11.8273630422703,46.375888882978,37.58184,1911.4008,5.00900005056,1
2025-04-01T10:34:48.150,1743496488150,11.8273565180398,46.375888554379,37.58184,1911.4008,4.9091831712,1
2025-04-01T10:34:48.250,1743496488250,11.827349909889,46.3758882778516,37.58184,1911.4008,4.9091831712,1
2025-04-01T10:34:48.350,1743496488350,11.8273434452469,46.3758879344532,37.58184,1911.4008,4.9091831712,1
2025-04-01T10:34:48.450,1743496488450,11.8273375058761,46.3758876127058,37.4904,1911.4008,4.80937344448,1
2025-04-01T10:34:48.550,1743496488550,11.827331153856,46.3758872567006,37.4904,1911.4008,4.80937344448,1
2025-04-01T10:34:48.650,1743496488650,11.8273242387259,46.375886799019,37.4904,1911.4008,4.80937344448,1
2025-04-01T10:34:48.750,1743496488750,11.8273178274154,46.3758864117709,37.4904,1911.4008,4.91630720064,1
2025-04-01T10:34:48.810,1743496488810,11.8273118364015,46.3758860538474,37.4904,1911.4008,4.91630720064,1
2025-04-01T10:34:48.950,1743496488950,11.827305408307,46.3758856528963,37.39896,1911.096,4.91630720064,1
2025-04-01T10:34:49.050,1743496489050,11.8272982125157,46.3758852741442,37.39896,1911.096,4.91630720064,1
2025-04-01T10:34:49.120,1743496489120,11.8272916520357,46.3758848715487,37.39896,1911.096,5.01598236832,1
2025-04-01T10:34:49.250,1743496489250,11.8272850654361,46.3758844445618,37.39896,1911.096,5.01598236832,1
2025-04-01T10:34:49.350,1743496489350,11.8272784531142,46.3758840430626,37.39896,1911.096,5.01598236832,1
2025-04-01T10:34:49.450,1743496489450,11.8272723803649,46.3758836974718,37.39896,1911.096,5.01598236832,1
2025-04-01T10:34:49.550,1743496489550,11.8272658302134,46.3758833099497,37.39896,1911.096,5.01598236832,1
2025-04-01T10:34:49.650,1743496489650,11.8272592716204,46.375882937501,37.27704,1911.096,5.01598236832,1
2025-04-01T10:34:49.730,1743496489730,11.8272527293147,46.3758825538157,37.27704,1911.096,5.01598236832,1
2025-04-01T10:34:49.830,1743496489830,11.8272460561134,46.3758819993905,37.27704,1911.096,4.91630720064,1
2025-04-01T10:34:49.950,1743496489950,11.8272394986127,46.3758815946026,37.27704,1911.096,4.91630720064,1
2025-04-01T10:34:50.030,1743496490030,11.8272322917976,46.3758811607642,37.27704,1911.096,4.91630720064,1
2025-04-01T10:34:50.130,1743496490130,11.8272256857324,46.3758807499469,37.27704,1911.096,4.91630720064,1
2025-04-01T10:34:50.230,1743496490230,11.8272191271393,46.3758803468034,37.1856,1911.096,4.91630720064,1
2025-04-01T10:34:50.330,1743496490330,11.8272125446116,46.3758799414673,37.1856,1911.096,4.91630720064,1
2025-04-01T10:34:50.440,1743496490440,11.8272066582745,46.3758795895731,37.1856,1911.096,4.91630720064,1
2025-04-01T10:34:50.540,1743496490540,11.8272001525165,46.3758791771115,37.1856,1911.096,4.91630720064,1
2025-04-01T10:34:50.640,1743496490640,11.8271934857705,46.3758787449174,37.1856,1911.096,4.91630720064,1
2025-04-01T10:34:50.740,1743496490740,11.8271869518073,46.3758783102568,37.1856,1911.096,4.91630720064,1
2025-04-01T10:34:50.840,1743496490840,11.8271802140519,46.3758778725816,37.1856,1911.096,5.01598236832,1
2025-04-01T10:34:50.940,1743496490940,11.8271736613183,46.3758774365507,37.09416,1910.7912,5.01598236832,1
2025-04-01T10:34:51.050,1743496491050,11.8271664606606,46.3758770493027,37.09416,1910.7912,4.91630720064,1
2025-04-01T10:34:51.150,1743496491150,11.8271598893553,46.3758766475294,37.09416,1910.7912,4.91630720064,1
2025-04-01T10:34:51.250,1743496491250,11.8271538942694,46.3758762353418,37.09416,1910.7912,4.91630720064,1
2025-04-01T10:34:51.350,1743496491350,11.8271474235691,46.3758758374054,37.09416,1910.7912,4.91630720064,1
2025-04-01T10:34:51.450,1743496491450,11.827141005108,46.3758754857853,37.09416,1910.7912,4.81664544416,1
2025-04-01T10:34:51.560,1743496491560,11.8271346157458,46.3758750785308,37.09416,1910.7912,4.81664544416,1
2025-04-01T10:34:51.660,1743496491660,11.8271282597531,46.3758746449665,36.97224,1910.7912,4.81664544416,1
2025-04-01T10:34:51.760,1743496491760,11.8271219175651,46.3758742281198,36.97224,1910.7912,4.81664544416,1
2025-04-01T10:34:51.860,1743496491860,11.8271148566421,46.375873648207,36.97224,1910.7912,4.81664544416,1
2025-04-01T10:34:51.960,1743496491960,11.8271084452323,46.3758732151908,36.97224,1910.7912,4.81664544416,1
2025-04-01T10:34:52.060,1743496492060,11.8271026509593,46.3758729224938,36.97224,1910.7912,4.81664544416,1
2025-04-01T10:34:52.160,1743496492160,11.8270962705354,46.37587250044,36.97224,1910.7912,4.81664544416,1
2025-04-01T10:34:52.270,1743496492270,11.8270898104617,46.3758720296034,36.97224,1910.7912,4.81664544416,1
2025-04-01T10:34:52.370,1743496492370,11.8270834050107,46.3758716037127,36.97224,1910.7912,4.81664544416,1
2025-04-01T10:34:52.470,1743496492470,11.8270768874343,46.3758711268468,36.8808,1910.7912,4.81664544416,1
2025-04-01T10:34:52.570,1743496492570,11.8270704470248,46.375870709452,36.8808,1910.7912,4.91630720064,1
2025-04-01T10:34:52.670,1743496492670,11.8270638921063,46.3758703863343,36.8808,1910.7912,4.81664544416,1
2025-04-01T10:34:52.780,1743496492780,11.8270574489161,46.3758700012787,36.8808,1910.7912,4.81664544416,1
2025-04-01T10:34:52.880,1743496492880,11.8270510056264,46.3758695142725,36.8808,1910.7912,4.81664544416,1
2025-04-01T10:34:52.980,1743496492980,11.8270445682957,46.375869125106,36.8808,1910.7912,4.81664544416,1
2025-04-01T10:34:53.080,1743496493080,11.8270374928729,46.3758687205922,36.8808,1910.7912,4.81664544416,1
2025-04-01T10:34:53.180,1743496493180,11.8270310049913,46.3758683226557,36.8808,1910.7912,4.81664544416,1
2025-04-01T10:34:53.250,1743496493250,11.8270246034136,46.3758679151272,36.78936,1910.4864,4.91630720064,1
2025-04-01T10:34:53.350,1743496493350,11.8270181185114,46.375867513628,36.78936,1910.4864,4.91630720064,1
2025-04-01T10:34:53.450,1743496493450,11.8270122179725,46.3758671452901,36.78936,1910.4864,4.91630720064,1
2025-04-01T10:34:53.550,1743496493550,11.8270057910697,46.3758667838038,36.78936,1910.4864,4.9091831712,1
2025-04-01T10:34:53.650,1743496493650,11.8269987375952,46.3758665470152,36.78936,1910.4864,4.9091831712,1
2025-04-01T10:34:53.750,1743496493750,11.8269922457411,46.3758662477407,36.78936,1910.4864,4.9091831712,1
2025-04-01T10:34:53.850,1743496493850,11.8269858651186,46.3758658780326,36.78936,1910.4864,4.9091831712,1
2025-04-01T10:34:53.950,1743496493950,11.8269793965039,46.375865587528,36.78936,1910.4864,4.80937344448,1
2025-04-01T10:34:54.050,1743496494050,11.8269728838931,46.375865407196,36.69792,1910.4864,4.80417258112,1
2025-04-01T10:34:54.150,1743496494150,11.8269664288845,46.3758651440975,36.69792,1910.4864,4.80417258112,1
2025-04-01T10:34:54.250,1743496494250,11.8269599328592,46.3758648486599,36.69792,1910.4864,4.80417258112,1
2025-04-01T10:34:54.350,1743496494350,11.8269534680185,46.3758645718584,36.69792,1910.4864,4.80937344448,1
2025-04-01T10:34:54.450,1743496494450,11.8269475317265,46.3758643863191,36.576,1910.4864,4.80937344448,1
2025-04-01T10:34:54.550,1743496494550,11.8269411524944,46.3758641180135,36.576,1910.4864,4.80937344448,1
2025-04-01T10:34:54.650,1743496494650,11.8269347051329,46.3758637430982,36.576,1910.4864,4.80417258112,1
2025-04-01T10:34:54.750,1743496494750,11.8269283603627,46.3758634772592,36.48456,1910.1816,4.80417258112,1
2025-04-01T10:34:54.850,1743496494850,11.8269219218401,46.3758633021343,36.48456,1910.1816,4.80417258112,1
2025-04-01T10:34:54.950,1743496494950,11.826915583724,46.375863053561,36.48456,1910.1816,4.80417258112,1
2025-04-01T10:34:55.050,1743496495050,11.826909154537,46.3758626953634,36.48456,1910.1816,4.80417258112,1
2025-04-01T10:34:55.150,1743496495150,11.8269027754042,46.3758624139029,36.39312,1910.1816,4.80937344448,1
2025-04-01T10:34:55.220,1743496495220,11.8268963560493,46.3758621549154,36.39312,1910.1816,4.80937344448,1
2025-04-01T10:34:55.350,1743496495350,11.826889928054,46.3758618529002,36.39312,1910.1816,4.9091831712,1
2025-04-01T10:34:55.450,1743496495450,11.8268833277491,46.3758616070676,36.2712,1910.1816,4.9091831712,1
2025-04-01T10:34:55.550,1743496495550,11.8268768553606,46.375861316289,36.2712,1910.1816,4.9091831712,1
2025-04-01T10:34:55.620,1743496495620,11.8268703320239,46.3758610425022,36.2712,1910.1816,4.9091831712,1
2025-04-01T10:34:55.720,1743496495720,11.8268638122626,46.3758607593973,36.17976,1909.8768,4.9091831712,1
2025-04-01T10:34:55.820,1743496495820,11.8268572009339,46.3758603696827,36.17976,1909.8768,4.9091831712,1
2025-04-01T10:34:55.950,1743496495950,11.8268506482003,46.3758600457427,36.17976,1909.8768,4.9091831712,1
2025-04-01T10:34:56.050,1743496496050,11.8268439151126,46.3758597083738,36.08832,1909.8768,4.9091831712,1
2025-04-01T10:34:56.130,1743496496130,11.826837392769,46.3758593890928,36.08832,1909.8768,4.9091831712,1
2025-04-01T10:34:56.230,1743496496230,11.8268307789574,46.3758590969439,35.99688,1909.8768,4.9091831712,1
2025-04-01T10:34:56.330,1743496496330,11.8268242738945,46.3758587488866,35.99688,1909.8768,4.9091831712,1
2025-04-01T10:34:56.450,1743496496450,11.8268176320763,46.3758583320399,35.99688,1909.8768,4.9091831712,1
2025-04-01T10:34:56.540,1743496496540,11.8268111751806,46.3758579757608,35.87496,1909.572,4.9091831712,1
2025-04-01T10:34:56.640,1743496496640,11.8268048022052,46.3758576589464,35.87496,1909.572,4.80937344448,1
2025-04-01T10:34:56.740,1743496496740,11.8267990547586,46.3758573840633,35.78352,1909.572,4.70426092928,1
2025-04-01T10:34:56.840,1743496496840,11.8267922544849,46.3758571365864,35.78352,1909.572,4.70426092928,1
2025-04-01T10:34:56.950,1743496496950,11.8267860883308,46.3758569384403,35.69208,1909.572,4.6043533008,1
2025-04-01T10:34:57.050,1743496497050,11.8267793757514,46.375856752627,35.69208,1909.572,4.6043533008,1
2025-04-01T10:34:57.150,1743496497150,11.8267732467407,46.3758565583179,35.57016,1909.2672,4.50444969568,1
2025-04-01T10:34:57.250,1743496497250,11.8267671513974,46.3758563884001,35.57016,1909.2672,4.50444969568,1
2025-04-01T10:34:57.350,1743496497350,11.8267611723507,46.375856167233,35.47872,1909.2672,4.40455011392,1
2025-04-01T10:34:57.450,1743496497450,11.8267558865152,46.3758559463399,35.47872,1909.2672,4.40455011392,1
2025-04-01T10:34:57.550,1743496497550,11.8267501258599,46.3758556574797,35.47872,1909.2672,4.31045936992,1
2025-04-01T10:34:57.650,1743496497650,11.8267438867101,46.3758551847246,35.38728,1909.2672,4.41022260448,1
2025-04-01T10:34:57.760,1743496497760,11.8267380345868,46.375854812824,35.38728,1909.2672,4.41022260448,1
2025-04-01T10:34:57.860,1743496497860,11.82673216414,46.3758545730207,35.29584,1908.9624,4.41022260448,1
2025-04-01T10:34:57.960,1743496497960,11.8267262405603,46.3758542216747,35.29584,1908.9624,4.41022260448,1
2025-04-01T10:34:58.060,1743496498060,11.8267203146963,46.3758539805011,35.29584,1908.9624,4.41022260448,1
2025-04-01T10:34:58.160,1743496498160,11.8267143741338,46.3758536617683,35.17392,1908.9624,4.50999612096,1
2025-04-01T10:34:58.260,1743496498260,11.8267086048879,46.3758534120988,35.17392,1908.9624,4.50999612096,1
2025-04-01T10:34:58.370,1743496498370,11.8267026224647,46.3758531761324,35.08248,1908.9624,4.50444969568,1
2025-04-01T10:34:58.470,1743496498470,11.8266972594625,46.3758530147105,35.08248,1908.9624,4.50444969568,1
2025-04-01T10:34:58.570,1743496498570,11.8266912163089,46.375852854933,34.99104,1908.6576,4.6010943792,1
2025-04-01T10:34:58.670,1743496498670,11.8266846054271,46.3758524928986,34.99104,1908.6576,4.6010943792,1
2025-04-01T10:34:58.770,1743496498770,11.8266784083864,46.3758523273658,34.8996,1908.6576,4.70107129888,1
2025-04-01T10:34:58.880,1743496498880,11.8266722496809,46.3758521982831,34.8996,1908.6576,4.70107129888,1
2025-04-01T10:34:58.980,1743496498980,11.8266659741823,46.3758520341207,34.77768,1908.6576,4.70107129888,1
2025-04-01T10:34:59.080,1743496499080,11.8266596193814,46.3758519242222,34.77768,1908.6576,4.80104911264,1
2025-04-01T10:34:59.180,1743496499180,11.8266532586218,46.3758517989764,34.68624,1908.3528,4.80104911264,1
2025-04-01T10:34:59.280,1743496499280,11.8266468974152,46.3758516046672,34.68624,1908.3528,4.80104911264,1
2025-04-01T10:34:59.390,1743496499390,11.826640455814,46.375851504635,34.5948,1908.3528,4.90102826752,1
2025-04-01T10:34:59.450,1743496499450,11.8266345378951,46.375851644132,34.5948,1908.3528,4.90000812224,1
2025-04-01T10:34:59.550,1743496499550,11.8266280690322,46.3758515868533,34.47288,1908.3528,4.90000812224,1
2025-04-01T10:34:59.650,1743496499650,11.8266205135259,46.3758514166615,34.38144,1908.048,5.000008288,1
2025-04-01T10:34:59.750,1743496499750,11.8266138813909,46.3758513774708,34.38144,1908.048,5.000008288,1
2025-04-01T10:34:59.850,1743496499850,11.8266078267664,46.375851346776,34.29,1908.048,5.000008288,1
2025-04-01T10:34:59.950,1743496499950,11.8266012300367,46.3758513103258,34.29,1908.048,5.000008288,1
2025-04-01T10:35:00.050,1743496500050,11.8265944537475,46.3758512911416,34.19856,1908.048,5.000008288,1
2025-04-01T10:35:00.150,1743496500150,11.8265878350198,46.3758512363294,34.07664,1907.7432,5.000008288,1
2025-04-01T10:35:00.250,1743496500250,11.8265812242869,46.3758511234163,34.07664,1907.7432,5.00100786944,1
2025-04-01T10:35:00.350,1743496500350,11.826574631927,46.3758510239322,33.9852,1907.7432,5.00100786944,1
2025-04-01T10:35:00.450,1743496500450,11.8265684529615,46.3758509080044,33.89376,1907.7432,5.00100786944,1
2025-04-01T10:35:00.550,1743496500550,11.826561932058,46.3758507953654,33.77184,1907.4384,5.00100786944,1
2025-04-01T10:35:00.650,1743496500650,11.8265552012546,46.3758506144852,33.77184,1907.4384,5.00100786944,1
2025-04-01T10:35:00.710,1743496500710,11.8265486543309,46.3758504982834,33.6804,1907.4384,5.00100786944,1
2025-04-01T10:35:00.850,1743496500850,11.8265413580835,46.3758503968809,33.58896,1907.4384,5.00100786944,1
2025-04-01T10:35:00.950,1743496500950,11.8265347737184,46.3758502787606,33.49752,1907.1336,5.00100786944,1
2025-04-01T10:35:01.010,1743496501010,11.8265282520701,46.3758500340243,33.49752,1907.1336,4.90102826752,1
2025-04-01T10:35:01.150,1743496501150,11.8265217175606,46.3758499002825,33.3756,1907.1336,4.90102826752,1
2025-04-01T10:35:01.220,1743496501220,11.8265152218332,46.3758498342339,33.28416,1907.1336,4.90102826752,1
2025-04-01T10:35:01.320,1743496501320,11.8265087011284,46.375849695285,33.28416,1907.1336,4.90102826752,1
2025-04-01T10:35:01.420,1743496501420,11.8265025281714,46.3758494831619,33.19272,1907.1336,5.00100786944,1
2025-04-01T10:35:01.550,1743496501550,11.8264959518012,46.3758493469536,33.0708,1906.8288,5.00100786944,1
2025-04-01T10:35:01.620,1743496501620,11.8264891496408,46.3758491844355,32.97936,1906.8288,5.10098836544,1
2025-04-01T10:35:01.730,1743496501730,11.8264824187877,46.3758490868698,32.97936,1906.8288,5.10000845376,1
2025-04-01T10:35:01.850,1743496501850,11.8264754232134,46.3758490221915,32.88792,1906.8288,5.20000861952,1
2025-04-01T10:35:01.950,1743496501950,11.8264686122636,46.3758489613499,32.79648,1906.524,5.20000861952,1
2025-04-01T10:35:02.050,1743496502050,11.826461675632,46.3758490115031,32.79648,1906.524,5.20000861952,1
2025-04-01T10:35:02.150,1743496502150,11.826454902918,46.3758489723124,32.67456,1906.524,5.10000845376,1
2025-04-01T10:35:02.250,1743496502250,11.8264475903831,46.3758488544662,32.58312,1906.524,5.10000845376,1
2025-04-01T10:35:02.330,1743496502330,11.8264408191092,46.3758487928025,32.58312,1906.524,5.10000845376,1
2025-04-01T10:35:02.440,1743496502440,11.8264345596993,46.375848592464,32.49168,1906.2192,5.10000845376,1
2025-04-01T10:35:02.550,1743496502550,11.8264278647482,46.3758484940761,32.36976,1906.2192,5.10000845376,1
2025-04-01T10:35:02.640,1743496502640,11.8264210306085,46.3758484274793,32.36976,1906.2192,5.10098836544,1
2025-04-01T10:35:02.740,1743496502740,11.8264143598403,46.3758483142922,32.27832,1906.2192,5.00100786944,1
2025-04-01T10:35:02.850,1743496502850,11.8264076785944,46.3758482879823,32.18688,1905.9144,5.00100786944,1
2025-04-01T10:35:02.950,1743496502950,11.826401124967,46.3758481731508,32.18688,1905.9144,4.90102826752,1
2025-04-01T10:35:03.050,1743496503050,11.826393986579,46.3758480237876,32.09544,1905.9144,4.90102826752,1
2025-04-01T10:35:03.150,1743496503150,11.8263874612064,46.37584789032,32.09544,1905.9144,4.90102826752,1
2025-04-01T10:35:03.250,1743496503250,11.8263814318821,46.3758477763106,31.97352,1905.9144,4.90102826752,1
2025-04-01T10:35:03.360,1743496503360,11.8263749760045,46.3758476370877,31.88208,1905.6096,4.90102826752,1
2025-04-01T10:35:03.460,1743496503460,11.8263684266724,46.3758475784387,31.88208,1905.6096,4.90102826752,1
2025-04-01T10:35:03.560,1743496503560,11.8263619882492,46.3758474383935,31.79064,1905.6096,4.90102826752,1
2025-04-01T10:35:03.660,1743496503660,11.8263556143551,46.3758473983807,31.6992,1905.6096,4.80104911264,1
2025-04-01T10:35:03.760,1743496503760,11.8263492582134,46.375847238055,31.6992,1905.6096,4.80104911264,1
2025-04-01T10:35:03.860,1743496503860,11.8263423285338,46.375846972216,31.57728,1905.3048,4.80104911264,1
2025-04-01T10:35:03.960,1743496503960,11.8263359723674,46.3758467910617,31.57728,1905.3048,4.80104911264,1
2025-04-01T10:35:04.070,1743496504070,11.826329652078,46.3758466008635,31.48584,1905.3048,4.80104911264,1
2025-04-01T10:35:04.170,1743496504170,11.826323309592,46.3758464235461,31.3944,1905.3048,4.80104911264,1
2025-04-01T10:35:04.270,1743496504270,11.8263176019704,46.3758463117292,31.27248,1905,4.70426092928,1
2025-04-01T10:35:04.370,1743496504370,11.8263113970838,46.3758461185163,31.27248,1905,4.70426092928,1
2025-04-01T10:35:04.470,1743496504470,11.8263052416805,46.3758458751502,31.18104,1905,4.70426092928,1
2025-04-01T10:35:04.570,1743496504570,11.826299031158,46.3758456468575,31.0896,1905,4.70426092928,1
2025-04-01T10:35:04.680,1743496504680,11.8262925615503,46.3758454437784,31.0896,1905,4.80417258112,1
2025-04-01T10:35:04.780,1743496504780,11.8262861068398,46.3758452470026,30.99816,1904.6952,4.90408780928,1
2025-04-01T10:35:04.880,1743496504880,11.8262786263899,46.3758449162111,30.99816,1904.6952,4.90408780928,1
2025-04-01T10:35:04.980,1743496504980,11.8262719878988,46.3758447164207,30.87624,1904.6952,5.00400661376,1
2025-04-01T10:35:05.080,1743496505080,11.8262653561113,46.375844528415,30.7848,1904.6952,5.00400661376,1
2025-04-01T10:35:05.190,1743496505190,11.8262603847536,46.3758444209831,30.7848,1904.6952,5.00100786944,1
2025-04-01T10:35:05.250,1743496505250,11.8262533892289,46.3758443650747,30.69336,1904.3904,5.000008288,1
2025-04-01T10:35:05.350,1743496505350,11.8262467825679,46.3758443341058,30.57144,1904.3904,5.000008288,1
2025-04-01T10:35:05.450,1743496505450,11.8262399930203,46.3758443239656,30.57144,1904.3904,5.000008288,1
2025-04-01T10:35:05.550,1743496505550,11.8262333306689,46.3758443132772,30.48,1904.3904,5.000008288,1
2025-04-01T10:35:05.650,1743496505650,11.8262267183966,46.3758441178718,30.38856,1904.0856,5.000008288,1
2025-04-01T10:35:05.750,1743496505750,11.8262201451547,46.3758440416828,30.38856,1904.0856,5.000008288,1
2025-04-01T10:35:05.850,1743496505850,11.8262130426688,46.3758440674446,30.29712,1904.0856,5.000008288,1
2025-04-01T10:35:05.950,1743496505950,11.8262063856805,46.3758440257873,30.1752,1904.0856,5.000008288,1
2025-04-01T10:35:06.050,1743496506050,11.8262003078166,46.3758440200321,30.1752,1904.0856,5.10000845376,1
2025-04-01T10:35:06.150,1743496506150,11.8261936629942,46.375843988515,30.08376,1903.7808,5.10000845376,1
2025-04-01T10:35:06.250,1743496506250,11.8261863263757,46.3758441217086,29.99232,1903.7808,5.000008288,1
2025-04-01T10:35:06.350,1743496506350,11.8261796738564,46.3758440819698,29.99232,1903.7808,5.000008288,1
2025-04-01T10:35:06.450,1743496506450,11.8261730964308,46.3758440249651,29.8704,1903.7808,4.90000812224,1
2025-04-01T10:35:06.550,1743496506550,11.8261678705809,46.375843988241,29.8704,1903.7808,4.90000812224,1
2025-04-01T10:35:06.650,1743496506650,11.8261602702218,46.3758438542252,29.77896,1903.476,4.80000795648,1
2025-04-01T10:35:06.750,1743496506750,11.8261538846957,46.3758438320263,29.77896,1903.476,4.80000795648,1
2025-04-01T10:35:06.820,1743496506820,11.8261479914439,46.3758438550474,29.68752,1903.476,4.80000795648,1
2025-04-01T10:35:06.950,1743496506950,11.8261416479648,46.3758439093115,29.59608,1903.476,4.80000795648,1
2025-04-01T10:35:07.050,1743496507050,11.8261352107085,46.3758440392163,29.59608,1903.476,4.80104911264,1
2025-04-01T10:35:07.120,1743496507120,11.8261288684212,46.3758442159856,29.47416,1903.1712,4.80417258112,1
2025-04-01T10:35:07.250,1743496507250,11.8261219544331,46.3758444790841,29.47416,1903.1712,4.80417258112,1
2025-04-01T10:35:07.320,1743496507320,11.826115567889,46.3758447783586,29.38272,1903.1712,4.80937344448,1
2025-04-01T10:35:07.420,1743496507420,11.8261091800538,46.3758450491308,29.29128,1903.1712,4.81664544416,1
2025-04-01T10:35:07.550,1743496507550,11.8261028267426,46.3758454610443,29.29128,1903.1712,4.81664544416,1
2025-04-01T10:35:07.650,1743496507650,11.826097038118,46.3758458455518,29.19984,1902.8664,4.82597919232,1
2025-04-01T10:35:07.730,1743496507730,11.8260907739659,46.3758463975104,29.07792,1902.8664,4.73815058464,1
2025-04-01T10:35:07.830,1743496507830,11.826083915904,46.3758471270605,28.98648,1902.8664,4.75184923136,1
2025-04-01T10:35:07.950,1743496507950,11.8260776599825,46.3758478618178,28.98648,1902.8664,4.76760649728,1
2025-04-01T10:35:08.050,1743496508050,11.8260716655979,46.3758484770845,28.89504,1902.5616,4.68722423488,1
2025-04-01T10:35:08.140,1743496508140,11.8260655741465,46.3758493855964,28.77312,1902.5616,4.60977947232,1
2025-04-01T10:35:08.240,1743496508240,11.8260594500393,46.3758505229491,28.68168,1902.5616,4.6325011744,1
2025-04-01T10:35:08.340,1743496508340,11.8260534909548,46.3758516603019,28.68168,1902.5616,4.56070923264,1
2025-04-01T10:35:08.440,1743496508440,11.8260481549162,46.3758528258829,28.59024,1902.2568,4.61736618816,1
2025-04-01T10:35:08.540,1743496508540,11.826042275916,46.3758542104385,28.4988,1902.2568,4.64866301152,1
2025-04-01T10:35:08.640,1743496508640,11.8260357034314,46.3758559052311,28.37688,1902.2568,4.68188747136,1
2025-04-01T10:35:08.750,1743496508750,11.826029776388,46.3758575167092,28.37688,1902.2568,4.75395344864,1
2025-04-01T10:35:08.850,1743496508850,11.826023807521,46.3758590429543,28.28544,1901.952,4.75395344864,1
2025-04-01T10:35:08.950,1743496508950,11.8260179850769,46.375860778582,28.194,1901.952,4.70107129888,1
2025-04-01T10:35:09.050,1743496509050,11.8260123337382,46.3758627011191,28.194,1901.952,4.74236974816,1
2025-04-01T10:35:09.150,1743496509150,11.8260066777845,46.3758645962502,28.07208,1901.952,4.69575018176,1
2025-04-01T10:35:09.250,1743496509250,11.8260011854072,46.3758665472897,28.07208,1901.952,4.74131562784,1
2025-04-01T10:35:09.360,1743496509360,11.8259956337426,46.3758686011021,27.98064,1901.6472,4.74131562784,1
2025-04-01T10:35:09.460,1743496509460,11.825990492243,46.3758707505617,27.98064,1901.6472,4.83736261888,1
2025-04-01T10:35:09.560,1743496509560,11.8259849901345,46.3758729962167,27.8892,1901.6472,4.8877476032,1
2025-04-01T10:35:09.660,1743496509660,11.8259793651025,46.3758753476592,27.8892,1901.6472,4.93964358272,1
2025-04-01T10:35:09.760,1743496509760,11.8259738812522,46.37587776378,27.79776,1901.6472,4.85490223328,1
2025-04-01T10:35:09.870,1743496509870,11.8259679446124,46.3758805189142,27.79776,1901.6472,4.9091831712,1
2025-04-01T10:35:09.970,1743496509970,11.8259625755396,46.3758831011159,27.79776,1901.6472,4.88263033632,1
2025-04-01T10:35:10.070,1743496510070,11.8259575143382,46.3758856953764,27.67584,1901.3424,4.8600490048,1
2025-04-01T10:35:10.170,1743496510170,11.8259524282207,46.3758884214601,27.67584,1901.3424,4.84149505664,1
2025-04-01T10:35:10.280,1743496510280,11.8259475572762,46.37589131938,27.67584,1901.3424,4.76340968576,1
2025-04-01T10:35:10.380,1743496510380,11.8259427420875,46.375894132615,27.5844,1901.3424,4.7507968992,1
2025-04-01T10:35:10.480,1743496510480,11.8259384212295,46.3758967233127,27.5844,1901.3424,4.67547557664,1
2025-04-01T10:35:10.580,1743496510580,11.8259338384132,46.3758996360319,27.49296,1901.3424,4.66905474112,1
2025-04-01T10:35:10.680,1743496510680,11.8259291579218,46.375902665501,27.49296,1901.3424,4.73815058464,1
2025-04-01T10:35:10.750,1743496510750,11.8259247125197,46.3759057643075,27.37104,1901.0376,4.73815058464,1
2025-04-01T10:35:10.850,1743496510850,11.8259197673885,46.3759090766075,27.37104,1901.0376,4.81041325952,1
2025-04-01T10:35:10.950,1743496510950,11.8259154474913,46.3759123864409,27.2796,1901.0376,4.81664544416,1
2025-04-01T10:35:11.050,1743496511050,11.8259113716751,46.3759159188118,27.2796,1901.0376,4.90408780928,1
2025-04-01T10:35:11.150,1743496511150,11.825907205173,46.3759195144908,27.2796,1901.0376,5.0606403232,1
2025-04-01T10:35:11.250,1743496511250,11.8259030483229,46.3759230594684,27.18816,1901.0376,5.14004714432,1
2025-04-01T10:35:11.350,1743496511350,11.8258989559866,46.3759269122165,27.18816,1901.0376,5.16140358624,1
2025-04-01T10:35:11.450,1743496511450,11.8258951428589,46.375930488163,27.18816,1901.0376,5.24309925216,1
2025-04-01T10:35:11.550,1743496511550,11.8258911447777,46.3759344584832,27.18816,1901.0376,5.32541943296,1
2025-04-01T10:35:11.650,1743496511650,11.8258872158469,46.3759385491161,27.09672,1900.7328,5.26973344832,1
2025-04-01T10:35:11.750,1743496511750,11.8258833419081,46.3759426142614,27.09672,1900.7328,5.35351232064,1
2025-04-01T10:35:11.850,1743496511850,11.8258793863517,46.3759469340092,27.09672,1900.7328,5.30000878528,1
2025-04-01T10:35:11.950,1743496511950,11.8258757308166,46.3759510967201,26.9748,1900.7328,5.33386267744,1
2025-04-01T10:35:12.050,1743496512050,11.8258724681984,46.375955003184,26.9748,1900.7328,5.19712297632,1
2025-04-01T10:35:12.110,1743496512110,11.8258691239876,46.3759591354742,26.9748,1900.7328,5.14782340512,1
2025-04-01T10:35:12.250,1743496512250,11.8258655306416,46.3759636065036,26.88336,1900.7328,5.14296452736,1
2025-04-01T10:35:12.350,1743496512350,11.8258624641249,46.3759677905913,26.88336,1900.7328,5.099027648,1
2025-04-01T10:35:12.450,1743496512450,11.8258599016948,46.3759717762588,26.88336,1900.7328,5.05668670144,1
2025-04-01T10:35:12.550,1743496512550,11.8258571978913,46.3759759691164,26.88336,1900.7328,5.01598236832,1
2025-04-01T10:35:12.650,1743496512650,11.8258542505328,46.3759805314081,26.88336,1900.7328,5.06952479616,1
2025-04-01T10:35:12.750,1743496512750,11.8258517445876,46.3759848084024,26.79192,1900.7328,5.03290015008,1
2025-04-01T10:35:12.830,1743496512830,11.8258492903167,46.3759890248293,26.79192,1900.7328,4.998007784,1
2025-04-01T10:35:12.930,1743496512930,11.8258469782757,46.3759933015495,26.79192,1900.7328,4.998007784,1
2025-04-01T10:35:13.030,1743496513030,11.8258446487182,46.3759976125273,26.79192,1900.7328,4.87032600736,1
2025-04-01T10:35:13.150,1743496513150,11.8258425088442,46.3760018749964,26.79192,1900.7328,4.93356652096,1
2025-04-01T10:35:13.240,1743496513240,11.8258405614841,46.3760057910525,26.79192,1900.7328,4.96488480224,1
2025-04-01T10:35:13.340,1743496513340,11.8258384174514,46.3760101028526,26.79192,1900.7328,5.0596523648,1
2025-04-01T10:35:13.440,1743496513440,11.8258362155684,46.3760145705933,26.79192,1900.7328,5.0596523648,1
2025-04-01T10:35:13.550,1743496513550,11.8258340157833,46.3760189942101,26.79192,1900.7328,5.15461796608,1
2025-04-01T10:35:13.640,1743496513640,11.8258315357963,46.3760239741706,26.67,1900.428,5.15461796608,1
2025-04-01T10:35:13.750,1743496513750,11.8258293692627,46.3760284690433,26.67,1900.428,5.15461796608,1
2025-04-01T10:35:13.850,1743496513850,11.825827716778,46.3760324854057,26.67,1900.428,5.02892462336,1
2025-04-01T10:35:13.950,1743496513950,11.825825745508,46.376036811731,26.67,1900.428,4.90408780928,1
2025-04-01T10:35:14.050,1743496514050,11.8258237294598,46.376041478988,26.57856,1900.428,4.90408780928,1
2025-04-01T10:35:14.150,1743496514150,11.8258218104663,46.3760457343314,26.57856,1900.428,4.80833407648,1
2025-04-01T10:35:14.250,1743496514250,11.825820062541,46.3760497394573,26.57856,1900.428,4.80833407648,1
2025-04-01T10:35:14.360,1743496514360,11.8258180960258,46.3760539361518,26.57856,1900.428,4.80833407648,1
2025-04-01T10:35:14.460,1743496514460,11.8258159195112,46.3760580089707,26.57856,1900.428,4.83839617536,1
2025-04-01T10:35:14.560,1743496514560,11.8258138744635,46.3760621788072,26.48712,1900.428,4.83839617536,1
2025-04-01T10:35:14.660,1743496514660,11.8258116121541,46.3760669233494,26.48712,1900.428,4.83839617536,1
2025-04-01T10:35:14.760,1743496514760,11.825809531043,46.3760711438871,26.48712,1900.428,4.83839617536,1
2025-04-01T10:35:14.860,1743496514860,11.8258073794686,46.3760752567189,26.48712,1900.428,4.83839617536,1
2025-04-01T10:35:14.970,1743496514970,11.8258053007782,46.3760794531393,26.39568,1900.1232,4.83839617536,1
2025-04-01T10:35:15.070,1743496515070,11.8258034869581,46.3760834418216,26.39568,1900.1232,4.83839617536,1
2025-04-01T10:35:15.170,1743496515170,11.825801454337,46.3760875938441,26.39568,1900.1232,4.83839617536,1
2025-04-01T10:35:15.270,1743496515270,11.8257990126045,46.3760922473981,26.39568,1900.1232,4.74342431552,1
2025-04-01T10:35:15.370,1743496515370,11.8257969513562,46.3760964336782,26.27376,1900.1232,4.74342431552,1
2025-04-01T10:35:15.470,1743496515470,11.8257952866187,46.3761000954058,26.27376,1900.1232,4.74342431552,1
2025-04-01T10:35:15.580,1743496515580,11.8257932614337,46.3761042148151,26.27376,1900.1232,4.74342431552,1
2025-04-01T10:35:15.680,1743496515680,11.8257910242384,46.3761085093493,26.18232,1900.1232,4.74342431552,1
2025-04-01T10:35:15.780,1743496515780,11.8257889549704,46.3761126476687,26.18232,1900.1232,4.74342431552,1
2025-04-01T10:35:15.880,1743496515880,11.8257868767766,46.3761169824899,26.18232,1900.1232,4.74342431552,1
2025-04-01T10:35:15.980,1743496515980,11.8257848118164,46.3761211364308,26.18232,1900.1232,4.74342431552,1
2025-04-01T10:35:16.090,1743496516090,11.8257827907902,46.3761251766365,26.18232,1900.1232,4.74342431552,1
2025-04-01T10:35:16.150,1743496516150,11.825780734371,46.3761293119414,26.09088,1899.8184,4.74342431552,1
2025-04-01T10:35:16.250,1743496516250,11.8257786002014,46.376133329674,26.09088,1899.8184,4.74342431552,1
2025-04-01T10:35:16.350,1743496516350,11.8257765285002,46.3761374411356,26.09088,1899.8184,4.74342431552,1
2025-04-01T10:35:16.450,1743496516450,11.8257745117197,46.376141462431,26.09088,1899.8184,4.74342431552,1
2025-04-01T10:35:16.550,1743496516550,11.8257724525942,46.3761455875956,26.09088,1899.8184,4.74342431552,1
2025-04-01T10:35:16.650,1743496516650,11.82577044757,46.3761497245448,25.99944,1899.8184,4.74342431552,1
2025-04-01T10:35:16.750,1743496516750,11.8257683590227,46.3761538809523,25.99944,1899.8184,4.83839617536,1
2025-04-01T10:35:16.850,1743496516850,11.8257659515288,46.3761584917528,25.99944,1899.8184,4.87032600736,1
2025-04-01T10:35:16.950,1743496516950,11.8257637708679,46.3761627227048,25.99944,1899.8184,4.87032600736,1
2025-04-01T10:35:17.050,1743496517050,11.8257616663931,46.3761668511581,25.87752,1899.8184,4.87032600736,1
2025-04-01T10:35:17.110,1743496517110,11.8257594678557,46.3761710771771,25.87752,1899.8184,4.87032600736,1
2025-04-01T10:35:17.250,1743496517250,11.8257572235097,46.3761754317306,25.87752,1899.8184,4.87032600736,1
2025-04-01T10:35:17.350,1743496517350,11.8257550301986,46.3761796561052,25.87752,1899.8184,4.87032600736,1
2025-04-01T10:35:17.450,1743496517450,11.8257531301988,46.3761834189613,25.87752,1899.8184,4.87032600736,1
2025-04-01T10:35:17.550,1743496517550,11.8257509429211,46.3761875948271,25.87752,1899.8184,4.87032600736,1
2025-04-01T10:35:17.620,1743496517620,11.8257484627293,46.3761920666787,25.78608,1899.5136,4.87032600736,1
2025-04-01T10:35:17.720,1743496517720,11.8257462387799,46.3761962861202,25.78608,1899.5136,4.87032600736,1
2025-04-01T10:35:17.820,1743496517820,11.8257439547332,46.3762009421408,25.78608,1899.5136,4.87032600736,1
2025-04-01T10:35:17.950,1743496517950,11.8257416959246,46.37620522352,25.78608,1899.5136,4.90408780928,1
2025-04-01T10:35:18.020,1743496518020,11.8257396423855,46.3762087019009,25.69464,1899.5136,4.998007784,1
2025-04-01T10:35:18.130,1743496518130,11.8257373561787,46.3762129136687,25.69464,1899.5136,4.90408780928,1
2025-04-01T10:35:18.230,1743496518230,11.8257349123358,46.3762175233729,25.69464,1899.5136,4.90408780928,1
2025-04-01T10:35:18.330,1743496518330,11.8257325887994,46.3762217628209,25.69464,1899.5136,4.90408780928,1
2025-04-01T10:35:18.450,1743496518450,11.8257304591362,46.3762256125542,25.57272,1899.5136,4.90408780928,1
2025-04-01T10:35:18.550,1743496518550,11.8257281486222,46.3762298048637,25.57272,1899.5136,4.90408780928,1
2025-04-01T10:35:18.650,1743496518650,11.8257258079913,46.3762340519854,25.57272,1899.5136,4.90408780928,1
2025-04-01T10:35:18.740,1743496518740,11.8257235207913,46.3762382396358,25.57272,1899.5136,4.90408780928,1
2025-04-01T10:35:18.840,1743496518840,11.8257209667845,46.3762430263834,25.48128,1899.2088,4.90408780928,1
2025-04-01T10:35:18.940,1743496518940,11.8257186922718,46.3762472756975,25.48128,1899.2088,4.90408780928,1
2025-04-01T10:35:19.040,1743496519040,11.8257163973253,46.3762514526596,25.48128,1899.2088,4.90408780928,1
2025-04-01T10:35:19.140,1743496519140,11.8257141477157,46.3762556778564,25.48128,1899.2088,4.87032600736,1
2025-04-01T10:35:19.250,1743496519250,11.8257119167026,46.3762598090503,25.48128,1899.2088,4.87032600736,1
2025-04-01T10:35:19.350,1743496519350,11.8257096776947,46.3762640131444,25.38984,1899.2088,4.87032600736,1
2025-04-01T10:35:19.450,1743496519450,11.8257076564078,46.3762678220427,25.38984,1899.2088,4.87032600736,1
2025-04-01T10:35:19.550,1743496519550,11.8257054266858,46.3762719891385,25.38984,1899.2088,4.90408780928,1
2025-04-01T10:35:19.650,1743496519650,11.8257029774303,46.3762762529779,25.38984,1899.2088,4.90408780928,1
2025-04-01T10:35:19.760,1743496519760,11.8257007314207,46.3762804428208,25.38984,1899.2088,4.90408780928,1
2025-04-01T10:35:19.860,1743496519860,11.8256984707624,46.3762848579418,25.38984,1899.2088,4.87032600736,1
2025-04-01T10:35:19.960,1743496519960,11.8256962544726,46.3762890817683,25.38984,1899.2088,4.87032600736,1
2025-04-01T10:35:20.060,1743496520060,11.8256940658416,46.3762933050467,25.2984,1899.2088,4.96488480224,1
2025-04-01T10:35:20.160,1743496520160,11.8256919052917,46.3762975316138,25.2984,1899.2088,4.87032600736,1
2025-04-01T10:35:20.270,1743496520270,11.8256895810973,46.376302195582,25.2984,1899.2088,4.87032600736,1
2025-04-01T10:35:20.370,1743496520370,11.8256874712223,46.3763064613399,25.2984,1899.2088,4.93356652096,1
2025-04-01T10:35:20.470,1743496520470,11.8256856098308,46.3763104157645,25.2984,1899.2088,4.93356652096,1
2025-04-01T10:35:20.570,1743496520570,11.8256835814181,46.376314671108,25.2984,1899.2088,4.93356652096,1
2025-04-01T10:35:20.670,1743496520670,11.8256815340116,46.37631885684,25.2984,1899.2088,4.93356652096,1
2025-04-01T10:35:20.770,1743496520770,11.8256795462431,46.3763231045098,25.2984,1899.2088,4.93356652096,1
2025-04-01T10:35:20.880,1743496520880,11.825677337526,46.376327741346,25.17648,1898.904,4.90408780928,1
2025-04-01T10:35:20.980,1743496520980,11.8256753580254,46.3763320345099,25.17648,1898.904,4.90408780928,1
2025-04-01T10:35:21.080,1743496521080,11.8256736462752,46.3763359448107,25.17648,1898.904,4.90408780928,1
2025-04-01T10:35:21.180,1743496521180,11.8256717438174,46.3763402234494,25.17648,1898.904,4.90408780928,1
2025-04-01T10:35:21.280,1743496521280,11.8256698018574,46.3763448293168,25.17648,1898.904,4.90408780928,1
2025-04-01T10:35:21.390,1743496521390,11.8256679428495,46.3763491611232,25.17648,1898.904,4.90408780928,1
2025-04-01T10:35:21.450,1743496521450,11.8256662044583,46.3763530632022,25.08504,1898.904,4.90408780928,1
2025-04-01T10:35:21.550,1743496521550,11.8256643220124,46.3763573728098,25.08504,1898.904,4.90408780928,1
2025-04-01T10:35:21.650,1743496521650,11.8256621726602,46.3763620658285,25.08504,1898.904,4.90408780928,1
2025-04-01T10:35:21.750,1743496521750,11.8256602022717,46.376366424493,25.08504,1898.904,5.000008288,1
2025-04-01T10:35:21.850,1743496521850,11.8256582951461,46.3763708513986,25.08504,1898.904,5.02892462336,1
2025-04-01T10:35:21.950,1743496521950,11.825656299234,46.376375237195,25.08504,1898.904,5.02892462336,1
2025-04-01T10:35:22.050,1743496522050,11.8256543971734,46.3763796325837,25.08504,1898.904,5.02892462336,1
2025-04-01T10:35:22.150,1743496522150,11.8256524081139,46.3763840172839,24.9936,1898.904,5.02892462336,1
2025-04-01T10:35:22.250,1743496522250,11.825650501758,46.3763881813651,24.9936,1898.904,5.000008288,1
2025-04-01T10:35:22.350,1743496522350,11.8256485416981,46.3763925515401,24.9936,1898.904,5.000008288,1
2025-04-01T10:35:22.450,1743496522450,11.8256468506549,46.3763966832821,24.9936,1898.904,5.000008288,1
2025-04-01T10:35:22.550,1743496522550,11.8256449287068,46.3764010282435,24.9936,1898.904,5.000008288,1
2025-04-01T10:35:22.650,1743496522650,11.8256426912879,46.3764058333531,24.9936,1898.904,5.000008288,1
2025-04-01T10:35:22.750,1743496522750,11.8256406907825,46.3764102021578,24.9936,1898.904,5.02892462336,1
2025-04-01T10:35:22.850,1743496522850,11.8256386161889,46.3764145520523,24.9936,1898.904,4.93356652096,1
2025-04-01T10:35:22.950,1743496522950,11.8256365425387,46.3764188767332,24.87168,1898.5992,4.93356652096,1
2025-04-01T10:35:23.020,1743496523020,11.8256344824449,46.3764230457475,24.87168,1898.5992,4.93356652096,1
2025-04-01T10:35:23.150,1743496523150,11.8256323878643,46.3764273213715,24.87168,1898.5992,4.93356652096,1
2025-04-01T10:35:23.220,1743496523220,11.8256304092824,46.3764316191944,24.87168,1898.5992,4.93356652096,1
2025-04-01T10:35:23.320,1743496523320,11.8256283542535,46.3764359129064,24.87168,1898.5992,4.93356652096,1
2025-04-01T10:35:23.430,1743496523430,11.8256264406726,46.3764399564009,24.87168,1898.5992,4.93356652096,1
2025-04-01T10:35:23.550,1743496523550,11.8256244229361,46.3764442443576,24.87168,1898.5992,4.93356652096,1
2025-04-01T10:35:23.630,1743496523630,11.8256221740713,46.376449016854,24.87168,1898.5992,4.93356652096,1
2025-04-01T10:35:23.730,1743496523730,11.8256201503264,46.3764533470161,24.87168,1898.5992,4.93356652096,1
2025-04-01T10:35:23.850,1743496523850,11.8256180048722,46.3764577942022,24.78024,1898.5992,4.93356652096,1
2025-04-01T10:35:23.950,1743496523950,11.8256159963223,46.3764621235421,24.78024,1898.5992,4.93356652096,1
2025-04-01T10:35:24.040,1743496524040,11.8256140121788,46.376466353398,24.78024,1898.5992,4.93356652096,1
2025-04-01T10:35:24.140,1743496524140,11.8256120423117,46.3764706391622,24.78024,1898.5992,4.90408780928,1
2025-04-01T10:35:24.240,1743496524240,11.8256101983498,46.3764745297306,24.78024,1898.5992,4.90408780928,1
2025-04-01T10:35:24.340,1743496524340,11.8256082766002,46.3764787598605,24.78024,1898.5992,4.90408780928,1
2025-04-01T10:35:24.440,1743496524440,11.8256063445717,46.3764831127697,24.78024,1898.5992,4.90408780928,1
2025-04-01T10:35:24.550,1743496524550,11.8256044573338,46.3764873634541,24.78024,1898.5992,4.90408780928,1
2025-04-01T10:35:24.650,1743496524650,11.8256024485356,46.3764919772693,24.78024,1898.5992,4.90408780928,1
2025-04-01T10:35:24.750,1743496524750,11.8256005906201,46.3764962635816,24.78024,1898.5992,4.90408780928,1
2025-04-01T10:35:24.850,1743496524850,11.8255988207464,46.376500491245,24.78024,1898.5992,4.8764821952,1
2025-04-01T10:35:24.950,1743496524950,11.8255970129596,46.3765047517956,24.78024,1898.5992,4.78017502688,1
2025-04-01T10:35:25.050,1743496525050,11.8255951707109,46.3765090701731,24.6888,1898.5992,4.78017502688,1
2025-04-01T10:35:25.150,1743496525150,11.8255934055794,46.3765133129098,24.6888,1898.5992,4.78017502688,1
2025-04-01T10:35:25.260,1743496525260,11.8255919263976,46.3765171607247,24.6888,1898.5992,4.78017502688,1
2025-04-01T10:35:25.360,1743496525360,11.8255902206807,46.3765213593376,24.6888,1898.5992,4.78017502688,1
2025-04-01T10:35:25.460,1743496525460,11.8255882846052,46.3765256582568,24.6888,1898.5992,4.78017502688,1
2025-04-01T10:35:25.560,1743496525560,11.8255865790869,46.3765298733133,24.6888,1898.5992,4.78017502688,1
2025-04-01T10:35:25.660,1743496525660,11.8255847410343,46.3765348398448,24.6888,1898.5992,4.78017502688,1
2025-04-01T10:35:25.760,1743496525760,11.825583024517,46.3765391056026,24.6888,1898.5992,4.78017502688,1
2025-04-01T10:35:25.870,1743496525870,11.8255813713372,46.3765428120021,24.6888,1898.5992,4.75395344864,1
2025-04-01T10:35:25.970,1743496525970,11.8255797051224,46.3765470100669,24.6888,1898.5992,4.75395344864,1
2025-04-01T10:35:26.070,1743496526070,11.8255781439569,46.3765511316686,24.6888,1898.5992,4.75395344864,1
2025-04-01T10:35:26.170,1743496526170,11.8255765622086,46.3765553286372,24.6888,1898.5992,4.7297010816,1
2025-04-01T10:35:26.270,1743496526270,11.8255750085662,46.3765595606855,24.6888,1898.5992,4.7297010816,1
2025-04-01T10:35:26.370,1743496526370,11.8255734660718,46.3765637941041,24.6888,1898.5992,4.7297010816,1
2025-04-01T10:35:26.480,1743496526480,11.8255721139125,46.3765677696314,24.59736,1898.2944,4.7297010816,1
2025-04-01T10:35:26.580,1743496526580,11.8255705595501,46.3765720189456,24.59736,1898.2944,4.85078097152,1
2025-04-01T10:35:26.680,1743496526680,11.8255688068081,46.3765767643099,24.59736,1898.2944,4.85078097152,1
2025-04-01T10:35:26.780,1743496526780,11.8255671651488,46.3765811021458,24.59736,1898.2944,4.85078097152,1
2025-04-01T10:35:26.880,1743496526880,11.8255656140389,46.3765853577633,24.59736,1898.2944,4.85078097152,1
2025-04-01T10:35:26.990,1743496526990,11.8255639678855,46.3765896964213,24.59736,1898.2944,4.85078097152,1
2025-04-01T10:35:27.050,1743496527050,11.8255623187528,46.376594024665,24.59736,1898.2944,4.85078097152,1
2025-04-01T10:35:27.150,1743496527150,11.8255606801225,46.3765983540049,24.59736,1898.2944,4.85078097152,1
2025-04-01T10:35:27.250,1743496527250,11.8255590492635,46.3766026014006,24.59736,1898.2944,4.85078097152,1
2025-04-01T10:35:27.350,1743496527350,11.8255574141091,46.3766069090897,24.59736,1898.2944,4.85078097152,1
2025-04-01T10:35:27.450,1743496527450,11.825555889094,46.3766111151023,24.59736,1898.2944,4.85078097152,1
2025-04-01T10:35:27.550,1743496527550,11.8255542602709,46.3766153975778,24.59736,1898.2944,4.85078097152,1
2025-04-01T10:35:27.650,1743496527650,11.8255524461529,46.3766199905643,24.59736,1898.2944,4.85078097152,1
2025-04-01T10:35:27.750,1743496527750,11.825550785599,46.3766242935944,24.59736,1898.2944,4.85078097152,1
2025-04-01T10:35:27.850,1743496527850,11.8255491108433,46.376628549486,24.59736,1898.2944,4.85078097152,1
2025-04-01T10:35:27.950,1743496527950,11.8255474577132,46.3766328445683,24.59736,1898.2944,4.85078097152,1
2025-04-01T10:35:28.050,1743496528050,11.8255458413788,46.3766371514352,24.47544,1898.2944,4.85078097152,1
2025-04-01T10:35:28.150,1743496528150,11.825544189217,46.37664144871,24.47544,1898.2944,4.85078097152,1
2025-04-01T10:35:28.250,1743496528250,11.8255422845495,46.3766460940422,24.47544,1898.2944,4.85078097152,1
2025-04-01T10:35:28.350,1743496528350,11.8255406041328,46.3766504411961,24.47544,1898.2944,4.85078097152,1
2025-04-01T10:35:28.450,1743496528450,11.8255392055692,46.3766540209794,24.47544,1898.2944,4.85078097152,1
2025-04-01T10:35:28.550,1743496528550,11.8255375390565,46.3766582845448,24.47544,1898.2944,4.85078097152,1
2025-04-01T10:35:28.650,1743496528650,11.8255355635037,46.3766630660852,24.47544,1898.2944,4.8764821952,1
2025-04-01T10:35:28.750,1743496528750,11.825533810141,46.3766673708966,24.47544,1898.2944,4.8764821952,1
2025-04-01T10:35:28.820,1743496528820,11.8255320993591,46.3766717407976,24.47544,1898.2944,4.8764821952,1
2025-04-01T10:35:28.950,1743496528950,11.8255303349477,46.3766760638341,24.47544,1898.2944,4.8764821952,1
2025-04-01T10:35:29.020,1743496529020,11.8255286038561,46.3766803448023,24.47544,1898.2944,4.8764821952,1
2025-04-01T10:35:29.150,1743496529150,11.825526859804,46.3766846852417,24.47544,1898.2944,4.8764821952,1
2025-04-01T10:35:29.230,1743496529230,11.8255251449254,46.3766890070449,24.47544,1898.2944,4.8764821952,1
2025-04-01T10:35:29.330,1743496529330,11.8255233985643,46.3766933676278,24.47544,1898.2944,4.97293465152,1
2025-04-01T10:35:29.450,1743496529450,11.8255216531219,46.3766975015623,24.384,1898.2944,4.97293465152,1
2025-04-01T10:35:29.550,1743496529550,11.8255198939245,46.3767018504976,24.384,1898.2944,4.97293465152,1
2025-04-01T10:35:29.650,1743496529650,11.8255181051812,46.3767062801438,24.384,1898.2944,4.97293465152,1
2025-04-01T10:35:29.750,1743496529750,11.8255163194669,46.3767106386712,24.384,1898.2944,4.97293465152,1
2025-04-01T10:35:29.840,1743496529840,11.8255142682865,46.3767153462152,24.384,1898.2944,4.97293465152,1
2025-04-01T10:35:29.940,1743496529940,11.8255124396687,46.3767197357115,24.384,1898.2944,4.97293465152,1
2025-04-01T10:35:30.040,1743496530040,11.8255108753748,46.3767238466249,24.384,1898.2944,4.97293465152,1
2025-04-01T10:35:30.150,1743496530150,11.8255090721813,46.3767281976156,24.384,1898.2944,4.97293465152,1
2025-04-01T10:35:30.240,1743496530240,11.8255071453916,46.3767329949145,24.29256,1897.9896,4.97293465152,1
2025-04-01T10:35:30.350,1743496530350,11.8255053585353,46.3767374114058,24.29256,1897.9896,4.97293465152,1
2025-04-01T10:35:30.450,1743496530450,11.8255036203427,46.3767413756966,24.29256,1897.9896,4.97293465152,1
2025-04-01T10:35:30.550,1743496530550,11.825501808062,46.3767457305242,24.29256,1897.9896,4.97293465152,1
2025-04-01T10:35:30.650,1743496530650,11.8255000979257,46.3767501453712,24.29256,1897.9896,4.97293465152,1
2025-04-01T10:35:30.750,1743496530750,11.8254982848008,46.376754456623,24.29256,1897.9896,4.97293465152,1
2025-04-01T10:35:30.850,1743496530850,11.8254961121594,46.3767594326096,24.29256,1897.9896,4.97293465152,1
2025-04-01T10:35:30.950,1743496530950,11.8254942638774,46.3767638204616,24.29256,1897.9896,4.97293465152,1
2025-04-01T10:35:31.060,1743496531060,11.8254925051766,46.3767679025986,24.29256,1897.9896,5.000008288,1
2025-04-01T10:35:31.160,1743496531160,11.8254906385215,46.3767722666072,24.29256,1897.9896,5.000008288,1
2025-04-01T10:35:31.260,1743496531260,11.825488867605,46.3767762898211,24.29256,1897.9896,4.90408780928,1
2025-04-01T10:35:31.360,1743496531360,11.8254870052701,46.3767805936734,24.17064,1897.9896,4.90408780928,1
2025-04-01T10:35:31.460,1743496531460,11.825485114432,46.37678506114,24.17064,1897.9896,4.90408780928,1
2025-04-01T10:35:31.570,1743496531570,11.8254832530405,46.3767893851357,24.17064,1897.9896,4.90408780928,1
2025-04-01T10:35:31.670,1743496531670,11.8254813040542,46.37679412543,24.17064,1897.9896,5.000008288,1
2025-04-01T10:35:31.770,1743496531770,11.8254794120244,46.3767984979345,24.17064,1897.9896,5.000008288,1
2025-04-01T10:35:31.870,1743496531870,11.8254774262919,46.3768028823607,24.17064,1897.9896,5.000008288,1
2025-04-01T10:35:31.970,1743496531970,11.8254754904646,46.3768072562355,24.17064,1897.9896,5.000008288,1
2025-04-01T10:35:32.070,1743496532070,11.8254736565335,46.3768112586208,24.17064,1897.9896,5.000008288,1
2025-04-01T10:35:32.170,1743496532170,11.8254717381358,46.3768155859052,24.17064,1897.9896,4.90408780928,1
2025-04-01T10:35:32.280,1743496532280,11.8254697072651,46.3768202545325,24.17064,1897.9896,4.90408780928,1
2025-04-01T10:35:32.380,1743496532380,11.8254677896619,46.3768245975755,24.17064,1897.9896,4.90408780928,1
2025-04-01T10:35:32.480,1743496532480,11.8254659654635,46.3768285296642,24.17064,1897.9896,4.90408780928,1
2025-04-01T10:35:32.580,1743496532580,11.8254640725895,46.3768328140581,24.17064,1897.9896,4.90408780928,1
2025-04-01T10:35:32.680,1743496532680,11.8254622126877,46.3768373035866,24.0792,1897.9896,4.90408780928,1
2025-04-01T10:35:32.780,1743496532780,11.8254603616249,46.3768416137423,24.0792,1897.9896,4.90408780928,1
2025-04-01T10:35:32.850,1743496532850,11.8254583794677,46.3768463633546,24.0792,1897.9896,5.000008288,1
2025-04-01T10:35:32.950,1743496532950,11.8254565405708,46.3768507595654,24.0792,1897.9896,4.97293465152,1
2025-04-01T10:35:33.050,1743496533050,11.825454680818,46.3768550810946,24.0792,1897.9896,4.97293465152,1
2025-04-01T10:35:33.150,1743496533150,11.825452842517,46.3768594910084,24.0792,1897.9896,4.97293465152,1
2025-04-01T10:35:33.250,1743496533250,11.825451032024,46.3768638988668,24.0792,1897.9896,4.97293465152,1
2025-04-01T10:35:33.350,1743496533350,11.8254491878138,46.3768683043957,24.0792,1897.9896,4.97293465152,1
2025-04-01T10:35:33.450,1743496533450,11.825447329948,46.3768727385639,24.0792,1897.9896,5.000008288,1
2025-04-01T10:35:33.550,1743496533550,11.8254454844468,46.3768771412151,24.0792,1897.9896,5.000008288,1
2025-04-01T10:35:33.650,1743496533650,11.8254437261928,46.3768811505889,23.98776,1897.6848,5.000008288,1
2025-04-01T10:35:33.750,1743496533750,11.8254418446407,46.3768854641703,23.98776,1897.6848,4.90408780928,1
2025-04-01T10:35:33.850,1743496533850,11.8254398065697,46.3768898713436,23.98776,1897.6848,4.90408780928,1
2025-04-01T10:35:33.950,1743496533950,11.8254378080258,46.3768941102434,23.98776,1897.6848,4.83839617536,1
2025-04-01T10:35:34.050,1743496534050,11.8254357078836,46.3768988005215,23.98776,1897.6848,4.83839617536,1
2025-04-01T10:35:34.150,1743496534150,11.8254335917519,46.3769030318846,23.98776,1897.6848,4.87032600736,1
2025-04-01T10:35:34.250,1743496534250,11.8254315344637,46.3769069139572,23.98776,1897.6848,4.87032600736,1
2025-04-01T10:35:34.350,1743496534350,11.8254294561209,46.3769111096924,23.98776,1897.6848,4.83839617536,1
2025-04-01T10:35:34.450,1743496534450,11.8254274562858,46.3769155172768,23.98776,1897.6848,4.83839617536,1
2025-04-01T10:35:34.550,1743496534550,11.8254255460318,46.3769197522027,23.98776,1897.6848,4.80833407648,1
2025-04-01T10:35:34.650,1743496534650,11.8254237860398,46.3769243597145,23.98776,1897.6848,4.8764821952,1
2025-04-01T10:35:34.750,1743496534750,11.8254220137825,46.3769287102941,23.98776,1897.6848,4.97293465152,1
2025-04-01T10:35:34.820,1743496534820,11.8254203517141,46.3769327262454,23.98776,1897.6848,4.97293465152,1
2025-04-01T10:35:34.950,1743496534950,11.8254186657607,46.3769371325965,23.98776,1897.6848,4.94773455968,1
2025-04-01T10:35:35.050,1743496535050,11.8254166845966,46.3769417680624,23.98776,1897.6848,4.94773455968,1
2025-04-01T10:35:35.150,1743496535150,11.8254149731196,46.3769461811279,23.98776,1897.6848,4.97293465152,1
2025-04-01T10:35:35.230,1743496535230,11.8254131008532,46.3769506590089,23.98776,1897.6848,4.97293465152,1
2025-04-01T10:35:35.330,1743496535330,11.8254113877374,46.3769550678264,23.98776,1897.6848,4.97293465152,1
2025-04-01T10:35:35.430,1743496535430,11.8254097696651,46.3769591048804,23.98776,1897.6848,4.94773455968,1
2025-04-01T10:35:35.550,1743496535550,11.8254080703043,46.3769634747814,23.89632,1897.6848,4.94773455968,1
2025-04-01T10:35:35.650,1743496535650,11.8254063926437,46.3769678674294,23.89632,1897.6848,4.97293465152,1
2025-04-01T10:35:35.740,1743496535740,11.8254046863309,46.3769722125278,23.89632,1897.6848,4.97293465152,1
2025-04-01T10:35:35.840,1743496535840,11.8254029325461,46.3769767105522,23.89632,1897.6848,4.8764821952,1
2025-04-01T10:35:35.950,1743496535950,11.8254012064699,46.3769810445512,23.89632,1897.6848,4.8764821952,1
2025-04-01T10:35:36.040,1743496536040,11.8253991633339,46.3769857342812,23.89632,1897.6848,4.8764821952,1
2025-04-01T10:35:36.150,1743496536150,11.8253973558203,46.3769900712948,23.89632,1897.6848,4.8764821952,1
2025-04-01T10:35:36.240,1743496536240,11.8253956168333,46.3769942703187,23.89632,1897.6848,4.8764821952,1
2025-04-01T10:35:36.350,1743496536350,11.8253937863284,46.3769985541646,23.89632,1897.6848,4.78017502688,1
2025-04-01T10:35:36.450,1743496536450,11.8253921604103,46.3770023688181,23.89632,1897.6848,4.78017502688,1
2025-04-01T10:35:36.550,1743496536550,11.8253903760368,46.3770066004554,23.89632,1897.6848,4.78017502688,1
2025-04-01T10:35:36.650,1743496536650,11.8253885236828,46.3770112905964,23.89632,1897.6848,4.78017502688,1
2025-04-01T10:35:36.750,1743496536750,11.8253867772969,46.3770155651242,23.7744,1897.6848,4.78017502688,1
2025-04-01T10:35:36.850,1743496536850,11.8253851286359,46.3770195228376,23.7744,1897.6848,4.78017502688,1
2025-04-01T10:35:36.960,1743496536960,11.8253834167615,46.3770237663964,23.7744,1897.6848,4.78017502688,1
2025-04-01T10:35:37.060,1743496537060,11.8253815153962,46.3770283810337,23.7744,1897.6848,4.75395344864,1
2025-04-01T10:35:37.160,1743496537160,11.8253798443895,46.3770326429547,23.7744,1897.6848,4.75395344864,1
2025-04-01T10:35:37.260,1743496537260,11.8253784748006,46.3770366376662,23.7744,1897.6848,4.75395344864,1
2025-04-01T10:35:37.360,1743496537360,11.8253768586153,46.3770408440899,23.7744,1897.6848,4.75395344864,1
2025-04-01T10:35:37.460,1743496537460,11.8253752942222,46.3770451567121,23.7744,1897.6848,4.75395344864,1
2025-04-01T10:35:37.550,1743496537550,11.825373629671,46.377049364369,23.7744,1897.6848,4.75395344864,1
2025-04-01T10:35:37.660,1743496537660,11.825371653125,46.3770538948696,23.7744,1897.6848,4.78017502688,1
2025-04-01T10:35:37.770,1743496537770,11.8253698630906,46.3770581350027,23.7744,1897.6848,4.78017502688,1
2025-04-01T10:35:37.870,1743496537870,11.8253681338364,46.3770623508814,23.7744,1897.6848,4.80833407648,1
2025-04-01T10:35:37.970,1743496537970,11.8253662626129,46.3770665631973,23.68296,1897.38,4.80833407648,1
2025-04-01T10:35:38.070,1743496538070,11.825364394766,46.3770707352263,23.68296,1897.38,4.80833407648,1
2025-04-01T10:35:38.170,1743496538170,11.8253624801423,46.3770749182177,23.68296,1897.38,4.71275647744,1
2025-04-01T10:35:38.280,1743496538280,11.8253605871193,46.3770789662341,23.68296,1897.38,4.71275647744,1
2025-04-01T10:35:38.380,1743496538380,11.8253586535763,46.377083133056,23.68296,1897.38,4.71275647744,1
2025-04-01T10:35:38.480,1743496538480,11.825357047223,46.3770871107758,23.68296,1897.38,4.83839617536,1
2025-04-01T10:35:38.580,1743496538580,11.8253550547372,46.3770912799271,23.68296,1897.38,4.83839617536,1
2025-04-01T10:35:38.680,1743496538680,11.825352642501,46.377096180958,23.68296,1897.38,4.87032600736,1
2025-04-01T10:35:38.790,1743496538790,11.825350492255,46.3771004225985,23.68296,1897.38,4.87032600736,1
2025-04-01T10:35:38.850,1743496538850,11.825348478367,46.377104097344,23.59152,1897.38,4.87032600736,1
2025-04-01T10:35:38.950,1743496538950,11.8253462685326,46.3771082658102,23.59152,1897.38,4.87032600736,1
2025-04-01T10:35:39.050,1743496539050,11.8253440404244,46.3771125382824,23.59152,1897.38,4.81041325952,1
2025-04-01T10:35:39.150,1743496539150,11.8253417750239,46.3771166988009,23.59152,1897.38,4.81041325952,1
2025-04-01T10:35:39.250,1743496539250,11.8253394945276,46.3771207990259,23.59152,1897.38,4.81041325952,1
2025-04-01T10:35:39.350,1743496539350,11.8253371811584,46.3771249372083,23.59152,1897.38,4.81041325952,1
2025-04-01T10:35:39.450,1743496539450,11.8253349462969,46.377128797493,23.4696,1897.38,4.81041325952,1
2025-04-01T10:35:39.550,1743496539550,11.8253326430577,46.3771328890851,23.4696,1897.38,4.81041325952,1
2025-04-01T10:35:39.650,1743496539650,11.8253302857918,46.3771371734791,23.4696,1897.38,4.81041325952,1
2025-04-01T10:35:39.750,1743496539750,11.825327966861,46.3771412763077,23.4696,1897.38,4.81041325952,1
2025-04-01T10:35:39.850,1743496539850,11.8253253695533,46.3771456560748,23.4696,1897.38,4.81041325952,1
2025-04-01T10:35:39.950,1743496539950,11.8253230354771,46.3771497913796,23.4696,1897.38,4.81041325952,1
2025-04-01T10:35:40.050,1743496540050,11.825320670415,46.3771540083546,23.37816,1897.0752,4.81041325952,1
2025-04-01T10:35:40.150,1743496540150,11.8253183576913,46.377158159692,23.37816,1897.0752,4.81041325952,1
2025-04-01T10:35:40.250,1743496540250,11.8253161816236,46.3771621983903,23.37816,1897.0752,4.81041325952,1
2025-04-01T10:35:40.310,1743496540310,11.8253138843433,46.3771663564422,23.37816,1897.0752,4.81041325952,1
2025-04-01T10:35:40.450,1743496540450,11.8253116231139,46.3771702089162,23.28672,1897.0752,4.81041325952,1
2025-04-01T10:35:40.550,1743496540550,11.8253093073612,46.3771743350399,23.28672,1897.0752,4.81041325952,1
2025-04-01T10:35:40.610,1743496540610,11.825306913945,46.3771786279298,23.28672,1897.0752,4.84665613344,1
2025-04-01T10:35:40.750,1743496540750,11.825304550323,46.3771827533684,23.28672,1897.0752,4.84665613344,1
2025-04-01T10:35:40.820,1743496540820,11.8253021625676,46.377186820021,23.28672,1897.0752,4.84665613344,1
2025-04-01T10:35:40.950,1743496540950,11.8252997888156,46.3771909306603,23.28672,1897.0752,4.84665613344,1
2025-04-01T10:35:41.050,1743496541050,11.825297186989,46.3771954995294,23.19528,1897.0752,4.84665613344,1
2025-04-01T10:35:41.150,1743496541150,11.8252948016172,46.3771996507298,23.19528,1897.0752,4.84665613344,1
2025-04-01T10:35:41.220,1743496541220,11.8252923534294,46.3772037638357,23.19528,1897.0752,4.84665613344,1
2025-04-01T10:35:41.330,1743496541330,11.8252899034042,46.3772079135287,23.19528,1897.0752,4.84665613344,1
2025-04-01T10:35:41.450,1743496541450,11.8252877367714,46.3772117379114,23.19528,1897.0752,4.84665613344,1
2025-04-01T10:35:41.550,1743496541550,11.8252853223502,46.3772158517024,23.07336,1896.7704,4.84665613344,1
2025-04-01T10:35:41.630,1743496541630,11.8252827061728,46.3772203398607,23.07336,1896.7704,4.84665613344,1
2025-04-01T10:35:41.730,1743496541730,11.8252802778974,46.3772244735211,23.07336,1896.7704,4.84665613344,1
2025-04-01T10:35:41.830,1743496541830,11.8252778036396,46.3772284384971,23.07336,1896.7704,4.84665613344,1
2025-04-01T10:35:41.950,1743496541950,11.8252753147331,46.3772325431071,23.07336,1896.7704,4.88467777952,1
2025-04-01T10:35:42.040,1743496542040,11.8252728733979,46.3772367215765,23.07336,1896.7704,4.88467777952,1
2025-04-01T10:35:42.150,1743496542150,11.8252703063313,46.3772408470151,22.98192,1896.7704,4.88467777952,1
2025-04-01T10:35:42.250,1743496542250,11.8252675308544,46.3772450749525,22.98192,1896.7704,4.92443662304,1
2025-04-01T10:35:42.340,1743496542340,11.825264846647,46.3772492213568,22.98192,1896.7704,4.92443662304,1
2025-04-01T10:35:42.450,1743496542450,11.8252624038221,46.3772529820204,22.98192,1896.7704,4.92443662304,1
2025-04-01T10:35:42.550,1743496542550,11.8252596624595,46.3772571082812,22.98192,1896.7704,4.96589153632,1
2025-04-01T10:35:42.650,1743496542650,11.8252569085337,46.3772613371778,22.89048,1896.7704,4.96589153632,1
2025-04-01T10:35:42.750,1743496542750,11.825254150387,46.3772654753602,22.89048,1896.7704,5.05668670144,1
2025-04-01T10:35:42.850,1743496542850,11.8252512360195,46.3772696638329,22.89048,1896.7704,5.05668670144,1
2025-04-01T10:35:42.950,1743496542950,11.8252484488732,46.3772738018783,22.89048,1896.7704,4.96589153632,1
2025-04-01T10:35:43.050,1743496543050,11.8252454690082,46.3772784059643,22.79904,1896.4656,4.96589153632,1
2025-04-01T10:35:43.150,1743496543150,11.8252426293248,46.3772825727861,22.79904,1896.4656,4.96589153632,1
2025-04-01T10:35:43.260,1743496543260,11.8252397344725,46.3772867567367,22.79904,1896.4656,4.96589153632,1
2025-04-01T10:35:43.360,1743496543360,11.8252368912137,46.377290907663,22.67712,1896.4656,4.96589153632,1
2025-04-01T10:35:43.460,1743496543460,11.8252343538419,46.3772947902837,22.67712,1896.4656,4.96589153632,1
2025-04-01T10:35:43.560,1743496543560,11.8252315884453,46.3772988948936,22.67712,1896.4656,4.96589153632,1
2025-04-01T10:35:43.660,1743496543660,11.8252287762222,46.3773030152621,22.58568,1896.4656,4.92443662304,1
2025-04-01T10:35:43.760,1743496543760,11.8252260367962,46.3773070975362,22.58568,1896.4656,4.92443662304,1
2025-04-01T10:35:43.870,1743496543870,11.8252227191645,46.3773118838726,22.58568,1896.4656,4.96589153632,1
2025-04-01T10:35:43.970,1743496543970,11.8252198879725,46.3773160068447,22.58568,1896.4656,4.87545668544,1
2025-04-01T10:35:44.070,1743496544070,11.8252173518421,46.3773197407873,22.49424,1896.1608,4.87545668544,1
2025-04-01T10:35:44.170,1743496544170,11.8252144913525,46.3773237960664,22.49424,1896.1608,4.87545668544,1
2025-04-01T10:35:44.270,1743496544270,11.8252116727733,46.3773277717307,22.49424,1896.1608,4.87545668544,1
2025-04-01T10:35:44.370,1743496544370,11.8252088157596,46.3773318283801,22.49424,1896.1608,4.87545668544,1
2025-04-01T10:35:44.470,1743496544470,11.8252060972392,46.3773354988776,22.37232,1896.1608,4.87545668544,1
2025-04-01T10:35:44.580,1743496544580,11.8252032543281,46.3773395314096,22.37232,1896.1608,4.87545668544,1
2025-04-01T10:35:44.680,1743496544680,11.8252003971158,46.3773436454747,22.37232,1896.1608,4.96589153632,1
2025-04-01T10:35:44.780,1743496544780,11.825197542138,46.3773476892432,22.37232,1896.1608,4.96589153632,1
2025-04-01T10:35:44.880,1743496544880,11.8251944135007,46.3773520296826,22.28088,1896.1608,4.91935735456,1
2025-04-01T10:35:44.950,1743496544950,11.825191500176,46.3773560756435,22.28088,1896.1608,4.91935735456,1
2025-04-01T10:35:45.050,1743496545050,11.8251886104384,46.3773600191057,22.28088,1896.1608,4.91935735456,1
2025-04-01T10:35:45.150,1743496545150,11.8251856594241,46.3773640116248,22.28088,1896.1608,4.91935735456,1
2025-04-01T10:35:45.250,1743496545250,11.8251828003248,46.377367973312,22.18944,1895.856,4.91935735456,1
2025-04-01T10:35:45.350,1743496545350,11.8251798290008,46.3773719522651,22.18944,1895.856,4.83012146496,1
2025-04-01T10:35:45.450,1743496545450,11.8251769886718,46.3773757364979,22.18944,1895.856,4.91935735456,1
2025-04-01T10:35:45.550,1743496545550,11.8251740214197,46.3773797017479,22.098,1895.856,4.91935735456,1
2025-04-01T10:35:45.650,1743496545650,11.8251711981727,46.3773837379797,22.098,1895.856,4.91935735456,1
2025-04-01T10:35:45.750,1743496545750,11.8251682720862,46.3773877047371,22.098,1895.856,4.91935735456,1
2025-04-01T10:35:45.850,1743496545850,11.8251649887674,46.3773920710753,22.098,1895.856,4.91935735456,1
2025-04-01T10:35:45.950,1743496545950,11.8251620214159,46.3773961081292,21.97608,1895.856,4.91935735456,1
2025-04-01T10:35:46.050,1743496546050,11.8251591245774,46.3774000281592,21.97608,1895.856,4.91935735456,1
2025-04-01T10:35:46.150,1743496546150,11.8251561490325,46.3774040580876,21.97608,1895.856,4.91935735456,1
2025-04-01T10:35:46.250,1743496546250,11.8251531857032,46.3774080660912,21.88464,1895.5512,4.91935735456,1
2025-04-01T10:35:46.310,1743496546310,11.825150259418,46.3774120597065,21.88464,1895.5512,4.91935735456,1
2025-04-01T10:35:46.450,1743496546450,11.825147550978,46.3774156827915,21.88464,1895.5512,4.7854022656,1
2025-04-01T10:35:46.550,1743496546550,11.8251447461537,46.3774196299535,21.88464,1895.5512,4.7854022656,1
2025-04-01T10:35:46.620,1743496546620,11.8251420181985,46.3774237211345,21.7932,1895.5512,4.87545668544,1
2025-04-01T10:35:46.750,1743496546750,11.8251392883066,46.3774277043355,21.7932,1895.5512,4.83322615776,1
2025-04-01T10:35:46.820,1743496546820,11.8251364808506,46.37743171645,21.7932,1895.5512,4.83322615776,1
2025-04-01T10:35:46.950,1743496546950,11.8251338029496,46.377435731305,21.7932,1895.5512,4.83322615776,1
2025-04-01T10:35:47.020,1743496547020,11.8251307106115,46.3774401616364,21.67128,1895.5512,4.83322615776,1
2025-04-01T10:35:47.120,1743496547120,11.8251280477565,46.3774442317147,21.67128,1895.5512,4.92443662304,1
2025-04-01T10:35:47.250,1743496547250,11.8251255169395,46.3774483130296,21.67128,1895.5512,4.92443662304,1
2025-04-01T10:35:47.330,1743496547330,11.8251228578088,46.3774523743379,21.67128,1895.5512,4.83322615776,1
2025-04-01T10:35:47.450,1743496547450,11.8251204295334,46.3774560241439,21.57984,1895.2464,4.83322615776,1
2025-04-01T10:35:47.550,1743496547550,11.8251177436376,46.3774600195406,21.57984,1895.2464,4.83322615776,1
2025-04-01T10:35:47.630,1743496547630,11.8251149387638,46.3774640138411,21.57984,1895.2464,4.87545668544,1
2025-04-01T10:35:47.750,1743496547750,11.8251121694443,46.3774680159523,21.57984,1895.2464,4.87545668544,1
2025-04-01T10:35:47.830,1743496547830,11.8251094160647,46.3774721423501,21.4884,1895.2464,4.87545668544,1
2025-04-01T10:35:47.950,1743496547950,11.8251066076652,46.3774761861186,21.4884,1895.2464,4.96589153632,1
2025-04-01T10:35:48.040,1743496548040,11.8251037220988,46.3774803877462,21.4884,1895.2464,4.96589153632,1
2025-04-01T10:35:48.140,1743496548140,11.8251008896653,46.377484460154,21.39696,1895.2464,4.96589153632,1
2025-04-01T10:35:48.240,1743496548240,11.8250979723184,46.3774888651348,21.39696,1895.2464,4.96589153632,1
2025-04-01T10:35:48.350,1743496548350,11.8250951169434,46.3774929667301,21.39696,1895.2464,4.96589153632,1
2025-04-01T10:35:48.450,1743496548450,11.8250923887895,46.377496593926,21.39696,1895.2464,4.96589153632,1
2025-04-01T10:35:48.550,1743496548550,11.8250895151408,46.3775006294726,21.27504,1894.9416,4.91935735456,1
2025-04-01T10:35:48.650,1743496548650,11.8250867380251,46.3775047520336,21.27504,1894.9416,4.87545668544,1
2025-04-01T10:35:48.750,1743496548750,11.8250838804652,46.377508795254,21.27504,1894.9416,4.87545668544,1
2025-04-01T10:35:48.860,1743496548860,11.8250806582245,46.3775132712165,21.1836,1894.9416,4.96589153632,1
2025-04-01T10:35:48.960,1743496548960,11.8250777505111,46.3775173670566,21.1836,1894.9416,5.00900005056,1
2025-04-01T10:35:49.060,1743496549060,11.8250749528375,46.3775213921889,21.1836,1894.9416,5.00900005056,1
2025-04-01T10:35:49.160,1743496549160,11.8250720060937,46.3775254873438,21.09216,1894.9416,5.00900005056,1
2025-04-01T10:35:49.270,1743496549270,11.825069108113,46.3775296008607,21.09216,1894.9416,5.00900005056,1
2025-04-01T10:35:49.370,1743496549370,11.8250661271058,46.3775336862865,21.09216,1894.9416,5.00900005056,1
2025-04-01T10:35:49.470,1743496549470,11.8250632304162,46.3775375709626,21.09216,1894.9416,5.00900005056,1
2025-04-01T10:35:49.570,1743496549570,11.8250602454365,46.3775416150051,20.97024,1894.6368,4.91935735456,1
2025-04-01T10:35:49.680,1743496549680,11.8250572869737,46.3775457064602,20.97024,1894.6368,4.91935735456,1
2025-04-01T10:35:49.780,1743496549780,11.8250543370518,46.377549728989,20.97024,1894.6368,4.91935735456,1
2025-04-01T10:35:49.880,1743496549880,11.8250511395402,46.3775540054351,20.8788,1894.6368,4.91935735456,1
2025-04-01T10:35:49.980,1743496549980,11.8250482147448,46.3775580383782,20.8788,1894.6368,4.91935735456,1
2025-04-01T10:35:50.080,1743496550080,11.8250452878637,46.3775620556998,20.8788,1894.6368,4.91935735456,1
2025-04-01T10:35:50.180,1743496550180,11.8250423776674,46.3775660823395,20.8788,1894.6368,4.91935735456,1
2025-04-01T10:35:50.250,1743496550250,11.8250394869366,46.3775701602285,20.78736,1894.6368,4.91935735456,1
2025-04-01T10:35:50.350,1743496550350,11.8250365922333,46.377574190431,20.78736,1894.6368,4.91935735456,1
2025-04-01T10:35:50.450,1743496550450,11.8250338216724,46.3775778354409,20.78736,1894.6368,4.91935735456,1
2025-04-01T10:35:50.550,1743496550550,11.8250309304451,46.3775818138458,20.78736,1894.6368,4.91935735456,1
2025-04-01T10:35:50.650,1743496550650,11.8250277941109,46.3775860996101,20.69592,1894.332,4.91935735456,1
2025-04-01T10:35:50.750,1743496550750,11.8250249025856,46.3775901024064,20.69592,1894.332,4.91935735456,1
2025-04-01T10:35:50.850,1743496550850,11.8250220642926,46.3775940719044,20.69592,1894.332,4.91935735456,1
2025-04-01T10:35:50.950,1743496550950,11.8250192039519,46.3775980677122,20.69592,1894.332,4.7854022656,1
2025-04-01T10:35:51.050,1743496551050,11.825016353046,46.3776020358399,20.574,1894.332,4.7854022656,1
2025-04-01T10:35:51.150,1743496551150,11.8250135120715,46.3776060217815,20.574,1894.332,4.7854022656,1
2025-04-01T10:35:51.250,1743496551250,11.8250105949233,46.377610002653,20.574,1894.332,4.7854022656,1
2025-04-01T10:35:51.350,1743496551350,11.825007751168,46.3776139879095,20.574,1894.332,4.7854022656,1
2025-04-01T10:35:51.450,1743496551450,11.825005144773,46.3776177078751,20.48256,1894.332,4.7854022656,1
2025-04-01T10:35:51.550,1743496551550,11.8250023301167,46.3776216673698,20.48256,1894.332,4.7854022656,1
2025-04-01T10:35:51.650,1743496551650,11.8249990280276,46.377626204859,20.48256,1894.332,4.7854022656,1
2025-04-01T10:35:51.750,1743496551750,11.8249961672897,46.3776302202622,20.48256,1894.332,4.7854022656,1
2025-04-01T10:35:51.810,1743496551810,11.8249935444086,46.3776337549625,20.39112,1894.332,4.7854022656,1
2025-04-01T10:35:51.950,1743496551950,11.8249907027389,46.3776377383006,20.39112,1894.332,4.87545668544,1
2025-04-01T10:35:52.020,1743496552020,11.8249878203505,46.3776417961832,20.39112,1894.332,4.87545668544,1
2025-04-01T10:35:52.120,1743496552120,11.8249849855335,46.3776457951427,20.39112,1894.332,4.87545668544,1
2025-04-01T10:35:52.250,1743496552250,11.824982148035,46.3776496924256,20.29968,1894.0272,4.87545668544,1
2025-04-01T10:35:52.320,1743496552320,11.8249793181836,46.3776536867261,20.29968,1894.0272,4.87545668544,1
2025-04-01T10:35:52.450,1743496552450,11.8249766817958,46.3776574287536,20.29968,1894.0272,4.87545668544,1
2025-04-01T10:35:52.550,1743496552550,11.8249738775675,46.3776613661864,20.29968,1894.0272,4.7854022656,1
2025-04-01T10:35:52.620,1743496552620,11.8249709112588,46.3776658143317,20.17776,1894.0272,4.7854022656,1
2025-04-01T10:35:52.730,1743496552730,11.8249680782295,46.3776697656046,20.17776,1894.0272,4.7854022656,1
2025-04-01T10:35:52.830,1743496552830,11.8249651645572,46.3776735634035,20.17776,1894.0272,4.7854022656,1
2025-04-01T10:35:52.950,1743496552950,11.8249623150417,46.377677494944,20.17776,1894.0272,4.7854022656,1
2025-04-01T10:35:53.030,1743496553030,11.8249595276967,46.3776815381644,20.08632,1894.0272,4.7854022656,1
2025-04-01T10:35:53.130,1743496553130,11.8249566921845,46.37768548793,20.08632,1894.0272,4.7854022656,1
2025-04-01T10:35:53.240,1743496553240,11.8249538337307,46.3776894468766,20.08632,1894.0272,4.87545668544,1
2025-04-01T10:35:53.340,1743496553340,11.824951014804,46.3776934214447,20.08632,1894.0272,4.87545668544,1
2025-04-01T10:35:53.450,1743496553450,11.8249485516197,46.3776971390807,19.99488,1893.7224,4.87545668544,1
2025-04-01T10:35:53.550,1743496553550,11.8249457357716,46.3777011268038,19.99488,1893.7224,4.87545668544,1
2025-04-01T10:35:53.650,1743496553650,11.8249426863372,46.3777054819054,19.99488,1893.7224,4.87545668544,1
2025-04-01T10:35:53.750,1743496553750,11.8249398216267,46.3777095356771,19.87296,1893.7224,4.96589153632,1
2025-04-01T10:35:53.850,1743496553850,11.8249371331984,46.3777134518702,19.87296,1893.7224,4.96589153632,1
2025-04-01T10:35:53.950,1743496553950,11.8249342753405,46.3777175098899,19.87296,1893.7224,4.87545668544,1
2025-04-01T10:35:54.050,1743496554050,11.8249313771612,46.3777216475242,19.87296,1893.7224,4.87545668544,1
2025-04-01T10:35:54.150,1743496554150,11.8249285218855,46.3777256940333,19.78152,1893.7224,4.87545668544,1
2025-04-01T10:35:54.260,1743496554260,11.8249254978754,46.3777300341986,19.78152,1893.7224,4.87545668544,1
2025-04-01T10:35:54.360,1743496554360,11.8249226248226,46.3777340916702,19.78152,1893.7224,4.87545668544,1
2025-04-01T10:35:54.460,1743496554460,11.8249197491875,46.3777381520193,19.78152,1893.7224,4.87545668544,1
2025-04-01T10:35:54.550,1743496554550,11.8249176643893,46.3777411243467,19.78152,1893.7224,4.87545668544,1
2025-04-01T10:35:54.660,1743496554660,11.8249145240826,46.3777456086681,19.69008,1893.4176,4.87545668544,1
2025-04-01T10:35:54.760,1743496554760,11.8249116739713,46.3777496557253,19.69008,1893.4176,5.00900005056,1
2025-04-01T10:35:54.870,1743496554870,11.8249088053875,46.3777537121006,19.69008,1893.4176,5.00900005056,1
2025-04-01T10:35:54.970,1743496554970,11.8249059467352,46.3777573780761,19.59864,1893.4176,5.00900005056,1
2025-04-01T10:35:55.070,1743496555070,11.824902578205,46.3777621419396,19.59864,1893.4176,5.00900005056,1
2025-04-01T10:35:55.170,1743496555170,11.8248996348379,46.3777662088662,19.59864,1893.4176,5.00900005056,1
2025-04-01T10:35:55.280,1743496555280,11.8248968498765,46.3777703240276,19.47672,1893.4176,4.91935735456,1
2025-04-01T10:35:55.380,1743496555380,11.8248939136599,46.3777743865692,19.47672,1893.4176,4.91935735456,1
2025-04-01T10:35:55.480,1743496555480,11.8248912399301,46.3777780321272,19.47672,1893.4176,4.91935735456,1
2025-04-01T10:35:55.580,1743496555580,11.8248883112614,46.3777820267017,19.47672,1893.4176,4.91935735456,1
2025-04-01T10:35:55.680,1743496555680,11.8248853642196,46.3777860001736,19.38528,1893.1128,4.91935735456,1
2025-04-01T10:35:55.750,1743496555750,11.8248825158959,46.3777897929023,19.38528,1893.1128,4.91935735456,1
2025-04-01T10:35:55.850,1743496555850,11.8248793291103,46.3777941289567,19.38528,1893.1128,4.96488480224,1
2025-04-01T10:35:55.950,1743496555950,11.82487629934,46.3777980991398,19.29384,1893.1128,4.96488480224,1
2025-04-01T10:35:56.050,1743496556050,11.8248728438109,46.3778024731517,19.29384,1893.1128,4.8764821952,1
2025-04-01T10:35:56.150,1743496556150,11.824869728432,46.3778064429237,19.29384,1893.1128,4.8764821952,1
2025-04-01T10:35:56.250,1743496556250,11.824866859451,46.3778099857774,19.17192,1893.1128,4.8764821952,1
2025-04-01T10:35:56.350,1743496556350,11.8248637344386,46.3778138558598,19.17192,1893.1128,4.92443662304,1
2025-04-01T10:35:56.450,1743496556450,11.8248605080268,46.3778177876744,19.17192,1893.1128,4.83736261888,1
2025-04-01T10:35:56.550,1743496556550,11.8248573679187,46.3778216157569,19.17192,1893.1128,4.83736261888,1
2025-04-01T10:35:56.650,1743496556650,11.8248542148005,46.3778254265051,19.08048,1892.808,4.83736261888,1
2025-04-01T10:35:56.750,1743496556750,11.8248513701514,46.3778288640509,19.08048,1892.808,4.83736261888,1
2025-04-01T10:35:56.810,1743496556810,11.824847375149,46.3778337058847,19.08048,1892.808,4.83736261888,1
2025-04-01T10:35:56.950,1743496556950,11.8248441414872,46.3778375683619,18.98904,1892.808,4.83736261888,1
2025-04-01T10:35:57.050,1743496557050,11.824841355334,46.3778407081405,18.98904,1892.808,4.7507968992,1
2025-04-01T10:35:57.150,1743496557150,11.8248381780825,46.3778444534567,18.98904,1892.808,4.7507968992,1
2025-04-01T10:35:57.250,1743496557250,11.8248349637869,46.3778482282344,18.8976,1892.808,4.66476896864,1
2025-04-01T10:35:57.350,1743496557350,11.8248318117612,46.3778519135312,18.8976,1892.808,4.66476896864,1
2025-04-01T10:35:57.450,1743496557450,11.8248287913264,46.3778556039666,18.8976,1892.808,4.66476896864,1
2025-04-01T10:35:57.550,1743496557550,11.8248256506224,46.3778592672701,18.77568,1892.5032,4.66476896864,1
2025-04-01T10:35:57.620,1743496557620,11.8248223595572,46.377862863086,18.77568,1892.5032,4.66476896864,1
2025-04-01T10:35:57.730,1743496557730,11.8248191759496,46.377866501998,18.77568,1892.5032,4.66476896864,1
2025-04-01T10:35:57.830,1743496557830,11.8248159498357,46.3778701387176,18.77568,1892.5032,4.66476896864,1
2025-04-01T10:35:57.950,1743496557950,11.8248129258256,46.3778735524886,18.68424,1892.5032,4.71699799296,1
2025-04-01T10:35:58.030,1743496558030,11.8248093566814,46.3778776280481,18.68424,1892.5032,4.71699799296,1
2025-04-01T10:35:58.150,1743496558150,11.8248059903362,46.377881318141,18.68424,1892.5032,4.71699799296,1
2025-04-01T10:35:58.230,1743496558230,11.8248026451448,46.3778850606481,18.68424,1892.5032,4.77075187072,1
2025-04-01T10:35:58.330,1743496558330,11.824799220701,46.3778887540982,18.5928,1892.5032,4.77075187072,1
2025-04-01T10:35:58.440,1743496558440,11.8247958129419,46.3778923303188,18.5928,1892.5032,4.77075187072,1
2025-04-01T10:35:58.550,1743496558550,11.8247923454951,46.3778959811525,18.5928,1892.5032,4.77075187072,1
2025-04-01T10:35:58.640,1743496558640,11.8247888385213,46.3778996669289,18.5928,1892.5032,4.77075187072,1
2025-04-01T10:35:58.740,1743496558740,11.8247853301572,46.3779032876159,18.47088,1892.1984,4.77075187072,1
2025-04-01T10:35:58.840,1743496558840,11.8247815320943,46.3779072708854,18.47088,1892.1984,4.82597919232,1
2025-04-01T10:35:58.950,1743496558950,11.8247779415975,46.3779109335037,18.47088,1892.1984,4.82597919232,1
2025-04-01T10:35:59.050,1743496559050,11.8247747508393,46.3779142583419,18.37944,1892.1984,4.82597919232,1
2025-04-01T10:35:59.150,1743496559150,11.8247711261786,46.3779179078738,18.37944,1892.1984,4.82597919232,1
2025-04-01T10:35:59.250,1743496559250,11.8247671021765,46.3779218566117,18.37944,1892.1984,4.88263033632,1
2025-04-01T10:35:59.360,1743496559360,11.8247633929996,46.37792554184,18.37944,1892.1984,4.88263033632,1
2025-04-01T10:35:59.460,1743496559460,11.8247597098429,46.3779291532774,18.288,1892.1984,4.88263033632,1
2025-04-01T10:35:59.560,1743496559560,11.8247559761354,46.3779328191844,18.288,1892.1984,4.88263033632,1
2025-04-01T10:35:59.670,1743496559670,11.8247521683398,46.3779363982142,18.288,1892.1984,4.88263033632,1
2025-04-01T10:35:59.770,1743496559770,11.8247483901396,46.3779400613806,18.19656,1891.8936,4.88263033632,1
2025-04-01T10:35:59.870,1743496559870,11.8247446580212,46.3779437666153,18.19656,1891.8936,4.94065568128,1
2025-04-01T10:35:59.970,1743496559970,11.8247408552905,46.3779474199841,18.19656,1891.8936,4.94065568128,1
2025-04-01T10:36:00.070,1743496560070,11.824737019389,46.3779509753075,18.07464,1891.8936,4.94065568128,1
2025-04-01T10:36:00.180,1743496560180,11.8247331809054,46.3779546092179,18.07464,1891.8936,4.94065568128,1
2025-04-01T10:36:00.280,1743496560280,11.8247295627,46.377958048134,17.9832,1891.8936,4.94065568128,1
2025-04-01T10:36:00.390,1743496560390,11.8247256700903,46.377961662312,17.9832,1891.8936,4.94065568128,1
2025-04-01T10:36:00.450,1743496560450,11.8247217019026,46.3779653037591,17.89176,1891.5888,5.000008288,1
2025-04-01T10:36:00.550,1743496560550,11.8247176899175,46.3779689090302,17.89176,1891.5888,5.0606403232,1
2025-04-01T10:36:00.650,1743496560650,11.8247134676848,46.3779725367057,17.89176,1891.5888,5.0606403232,1
2025-04-01T10:36:00.750,1743496560750,11.8247093384099,46.3779761283422,17.89176,1891.5888,5.0606403232,1
2025-04-01T10:36:00.850,1743496560850,11.8247052074467,46.3779798946926,17.76984,1891.5888,5.0606403232,1
2025-04-01T10:36:00.950,1743496560950,11.8247010619836,46.3779834830403,17.76984,1891.5888,4.98197558848,1
2025-04-01T10:36:01.050,1743496561050,11.8246968457097,46.3779871226375,17.76984,1891.5888,4.98197558848,1
2025-04-01T10:36:01.150,1743496561150,11.8246926829661,46.377990667067,17.6784,1891.5888,5.04480750752,1
2025-04-01T10:36:01.250,1743496561250,11.8246884637128,46.377994220198,17.6784,1891.5888,5.04480750752,1
2025-04-01T10:36:01.310,1743496561310,11.8246842048332,46.3779977210518,17.6784,1891.5888,4.96790500448,1
2025-04-01T10:36:01.450,1743496561450,11.8246797262712,46.3780012002549,17.58696,1891.284,5.03290015008,1
2025-04-01T10:36:01.550,1743496561550,11.8246753148455,46.3780046847336,17.58696,1891.284,5.03290015008,1
2025-04-01T10:36:01.610,1743496561610,11.8246707335929,46.3780082800699,17.58696,1891.284,5.099027648,1
2025-04-01T10:36:01.750,1743496561750,11.8246662400345,46.3780117794849,17.49552,1891.284,5.099027648,1
2025-04-01T10:36:01.820,1743496561820,11.8246618827348,46.3780153589943,17.49552,1891.284,5.099027648,1
2025-04-01T10:36:01.950,1743496561950,11.8246573778546,46.3780188710846,17.49552,1891.284,5.099027648,1
2025-04-01T10:36:02.020,1743496562020,11.824652374915,46.3780227236271,17.3736,1891.284,5.17398150368,1
2025-04-01T10:36:02.120,1743496562120,11.8246478142204,46.3780263006014,17.3736,1891.284,5.17398150368,1
2025-04-01T10:36:02.250,1743496562250,11.8246437065959,46.3780294390097,17.3736,1891.284,5.17398150368,1
2025-04-01T10:36:02.330,1743496562330,11.8246391947638,46.3780329977589,17.28216,1890.9792,5.17398150368,1
2025-04-01T10:36:02.430,1743496562430,11.8246345985147,46.3780365935749,17.28216,1890.9792,5.17398150368,1
2025-04-01T10:36:02.550,1743496562550,11.824630101381,46.3780401353323,17.19072,1890.9792,5.17398150368,1
2025-04-01T10:36:02.650,1743496562650,11.8246255568746,46.3780437739702,17.19072,1890.9792,5.17398150368,1
2025-04-01T10:36:02.730,1743496562730,11.824621096785,46.3780472937343,17.19072,1890.9792,5.17398150368,1
2025-04-01T10:36:02.830,1743496562830,11.8246167139616,46.3780507589602,17.09928,1890.9792,5.03290015008,1
2025-04-01T10:36:02.950,1743496562950,11.8246123100837,46.3780542421371,17.09928,1890.9792,5.03290015008,1
2025-04-01T10:36:03.040,1743496563040,11.8246078803841,46.3780577635456,17.09928,1890.9792,5.03290015008,1
2025-04-01T10:36:03.140,1743496563140,11.8246035210982,46.3780612340472,17.09928,1890.9792,5.03290015008,1
2025-04-01T10:36:03.240,1743496563240,11.8245991401618,46.378064696601,16.97736,1890.6744,5.03290015008,1
2025-04-01T10:36:03.340,1743496563340,11.8245948364916,46.3780681516182,16.97736,1890.6744,4.96790500448,1
2025-04-01T10:36:03.450,1743496563450,11.8245905296434,46.3780716759042,16.97736,1890.6744,4.96790500448,1
2025-04-01T10:36:03.550,1743496563550,11.8245862902293,46.378075115711,16.88592,1890.6744,4.8918380192,1
2025-04-01T10:36:03.650,1743496563650,11.8245820503187,46.378078480014,16.88592,1890.6744,4.8918380192,1
2025-04-01T10:36:03.750,1743496563750,11.8245778585754,46.3780818662419,16.88592,1890.6744,4.827014984,1
2025-04-01T10:36:03.850,1743496563850,11.8245736144936,46.3780852352724,16.88592,1890.6744,4.827014984,1
2025-04-01T10:36:03.950,1743496563950,11.8245694408254,46.3780885794319,16.79448,1890.6744,4.827014984,1
2025-04-01T10:36:04.050,1743496564050,11.82456532754,46.3780918487043,16.79448,1890.6744,4.7507968992,1
2025-04-01T10:36:04.150,1743496564150,11.8245611847585,46.3780951601821,16.79448,1890.6744,4.7507968992,1
2025-04-01T10:36:04.260,1743496564260,11.8245571502291,46.3780984358949,16.79448,1890.6744,4.7507968992,1
2025-04-01T10:36:04.360,1743496564360,11.8245530427039,46.3781017373009,16.67256,1890.3696,4.7507968992,1
2025-04-01T10:36:04.460,1743496564460,11.8245489422301,46.3781051299008,16.67256,1890.3696,4.7507968992,1
2025-04-01T10:36:04.560,1743496564560,11.8245448453316,46.3781084443247,16.67256,1890.3696,4.7507968992,1
2025-04-01T10:36:04.660,1743496564660,11.8245404985592,46.3781119769696,16.58112,1890.3696,4.7507968992,1
2025-04-01T10:36:04.760,1743496564760,11.8245363773287,46.3781152970803,16.58112,1890.3696,4.7507968992,1
2025-04-01T10:36:04.870,1743496564870,11.8245322509339,46.3781186023917,16.58112,1890.3696,4.7507968992,1
2025-04-01T10:36:04.970,1743496564970,11.8245288548938,46.3781212409129,16.58112,1890.3696,4.7507968992,1
2025-04-01T10:36:05.070,1743496565070,11.8245247650466,46.378124486068,16.48968,1890.3696,4.7507968992,1
2025-04-01T10:36:05.170,1743496565170,11.8245206962539,46.3781279595157,16.48968,1890.3696,4.7507968992,1
2025-04-01T10:36:05.270,1743496565270,11.8245161721068,46.3781316026757,16.48968,1890.3696,4.827014984,1
2025-04-01T10:36:05.380,1743496565380,11.8245120194932,46.3781349695138,16.48968,1890.3696,4.827014984,1
2025-04-01T10:36:05.480,1743496565480,11.8245078694617,46.3781383445737,16.39824,1890.0648,4.827014984,1
2025-04-01T10:36:05.580,1743496565580,11.824503969602,46.3781414639348,16.39824,1890.0648,4.827014984,1
2025-04-01T10:36:05.680,1743496565680,11.8244998548269,46.3781448120682,16.39824,1890.0648,4.827014984,1
2025-04-01T10:36:05.750,1743496565750,11.8244960086961,46.3781477991949,16.27632,1890.0648,4.827014984,1
2025-04-01T10:36:05.850,1743496565850,11.8244919074277,46.3781511290347,16.27632,1890.0648,4.827014984,1
2025-04-01T10:36:05.950,1743496565950,11.8244874945122,46.3781548473559,16.27632,1890.0648,4.827014984,1
2025-04-01T10:36:06.050,1743496566050,11.8244829444442,46.3781587220973,16.18488,1890.0648,4.827014984,1
2025-04-01T10:36:06.150,1743496566150,11.8244787709746,46.378162181568,16.18488,1890.0648,4.90408780928,1
2025-04-01T10:36:06.250,1743496566250,11.8244746125014,46.3781656453551,16.18488,1890.0648,4.90408780928,1
2025-04-01T10:36:06.350,1743496566350,11.8244708456231,46.3781685985668,16.18488,1890.0648,4.90408780928,1
2025-04-01T10:36:06.450,1743496566450,11.8244667495191,46.3781720201485,16.09344,1889.76,4.90408780928,1
2025-04-01T10:36:06.550,1743496566550,11.8244626479528,46.3781756751616,16.09344,1889.76,4.90408780928,1
2025-04-01T10:36:06.650,1743496566650,11.8244585424139,46.3781791097612,16.09344,1889.76,4.90408780928,1
2025-04-01T10:36:06.750,1743496566750,11.8244545213913,46.378182430146,15.97152,1889.76,4.90408780928,1
2025-04-01T10:36:06.850,1743496566850,11.8244504011539,46.3781858413819,15.97152,1889.76,4.90408780928,1
2025-04-01T10:36:06.950,1743496566950,11.8244460735491,46.3781892772148,15.97152,1889.76,4.827014984,1
2025-04-01T10:36:07.010,1743496567010,11.8244416535824,46.3781931316757,15.97152,1889.76,4.827014984,1
2025-04-01T10:36:07.150,1743496567150,11.8244374803114,46.3781965740861,15.88008,1889.76,4.827014984,1
2025-04-01T10:36:07.250,1743496567250,11.8244331681996,46.3782001261893,15.88008,1889.76,4.827014984,1
2025-04-01T10:36:07.350,1743496567350,11.82442897735,46.378203569833,15.88008,1889.76,4.827014984,1
2025-04-01T10:36:07.450,1743496567450,11.8244247853087,46.3782070025141,15.78864,1889.4552,4.827014984,1
2025-04-01T10:36:07.550,1743496567550,11.8244213856934,46.3782097167447,15.78864,1889.4552,4.827014984,1
2025-04-01T10:36:07.620,1743496567620,11.8244168825015,46.3782135035126,15.78864,1889.4552,4.827014984,1
2025-04-01T10:36:07.750,1743496567750,11.8244127115148,46.3782169072119,15.6972,1889.4552,4.827014984,1
2025-04-01T10:36:07.830,1743496567830,11.8244085334767,46.3782203128295,15.6972,1889.4552,4.827014984,1
2025-04-01T10:36:07.950,1743496567950,11.8244047217085,46.3782232526807,15.6972,1889.4552,4.827014984,1
2025-04-01T10:36:08.050,1743496568050,11.8244003592445,46.3782269888844,15.57528,1889.4552,4.827014984,1
2025-04-01T10:36:08.150,1743496568150,11.8243961893502,46.3782303995722,15.57528,1889.4552,4.827014984,1
2025-04-01T10:36:08.230,1743496568230,11.8243920679211,46.3782338161523,15.57528,1889.4552,4.827014984,1
2025-04-01T10:36:08.330,1743496568330,11.8243879124274,46.3782372218385,15.48384,1889.1504,4.827014984,1
2025-04-01T10:36:08.450,1743496568450,11.8243837667657,46.3782406161512,15.48384,1889.1504,4.827014984,1
2025-04-01T10:36:08.550,1743496568550,11.8243800233255,46.3782437135189,15.48384,1889.1504,4.827014984,1
2025-04-01T10:36:08.640,1743496568640,11.8243759171907,46.378247075835,15.48384,1889.1504,4.827014984,1
2025-04-01T10:36:08.740,1743496568740,11.824371744317,46.3782503081776,15.3924,1889.1504,4.827014984,1
2025-04-01T10:36:08.840,1743496568840,11.824367602032,46.3782536680272,15.3924,1889.1504,4.8918380192,1
2025-04-01T10:36:08.950,1743496568950,11.8243633279574,46.3782571315402,15.3924,1889.1504,4.8918380192,1
2025-04-01T10:36:09.050,1743496569050,11.8243587317084,46.3782608421192,15.27048,1889.1504,4.8918380192,1
2025-04-01T10:36:09.150,1743496569150,11.8243544935855,46.3782642397206,15.27048,1889.1504,4.8918380192,1
2025-04-01T10:36:09.250,1743496569250,11.8243503491155,46.3782676186858,15.27048,1889.1504,4.8918380192,1
2025-04-01T10:36:09.350,1743496569350,11.8243461143693,46.3782709971715,15.27048,1889.1504,4.8918380192,1
2025-04-01T10:36:09.450,1743496569450,11.8243419283861,46.3782742023822,15.17904,1888.8456,4.8918380192,1
2025-04-01T10:36:09.550,1743496569550,11.8243376988042,46.3782775525025,15.17904,1888.8456,4.8918380192,1
2025-04-01T10:36:09.650,1743496569650,11.824333555526,46.3782809825801,15.17904,1888.8456,4.8918380192,1
2025-04-01T10:36:09.750,1743496569750,11.824329323064,46.3782843406483,15.0876,1888.8456,4.8918380192,1
2025-04-01T10:36:09.860,1743496569860,11.8243246940413,46.378287951469,15.0876,1888.8456,4.8918380192,1
2025-04-01T10:36:09.950,1743496569950,11.8243204421137,46.3782913477001,15.0876,1888.8456,4.8918380192,1
2025-04-01T10:36:10.060,1743496570060,11.8243167344265,46.3782943428431,15.0876,1888.8456,4.8918380192,1
2025-04-01T10:36:10.160,1743496570160,11.8243126193535,46.3782977377724,14.99616,1888.8456,4.827014984,1
2025-04-01T10:36:10.270,1743496570270,11.8243084865033,46.3783012400651,14.99616,1888.8456,4.90408780928,1
2025-04-01T10:36:10.370,1743496570370,11.8243044658779,46.3783046856272,14.99616,1888.8456,4.84149505664,1
2025-04-01T10:36:10.470,1743496570470,11.8243004812041,46.378308143522,14.87424,1888.5408,4.84149505664,1
2025-04-01T10:36:10.570,1743496570570,11.82429678176,46.3783112958389,14.87424,1888.5408,4.84149505664,1
2025-04-01T10:36:10.680,1743496570680,11.8242923736115,46.378315000183,14.87424,1888.5408,4.84149505664,1
2025-04-01T10:36:10.780,1743496570780,11.8242883672873,46.3783184516373,14.7828,1888.5408,4.90408780928,1
2025-04-01T10:36:10.880,1743496570880,11.8242843306723,46.3783218902794,14.7828,1888.5408,4.90408780928,1
2025-04-01T10:36:10.980,1743496570980,11.8242805869342,46.3783249618853,14.7828,1888.5408,4.827014984,1
2025-04-01T10:36:11.080,1743496571080,11.8242762455247,46.3783287111068,14.7828,1888.5408,4.827014984,1
2025-04-01T10:36:11.180,1743496571180,11.8242721082054,46.3783321069269,14.69136,1888.5408,4.8918380192,1
2025-04-01T10:36:11.250,1743496571250,11.8242678761406,46.3783354070996,14.69136,1888.5408,4.8918380192,1
2025-04-01T10:36:11.350,1743496571350,11.8242636848938,46.3783387558497,14.69136,1888.5408,4.8918380192,1
2025-04-01T10:36:11.450,1743496571450,11.8242596495699,46.3783421468736,14.59992,1888.236,4.8918380192,1
2025-04-01T10:36:11.550,1743496571550,11.8242554652751,46.3783454735617,14.59992,1888.236,4.8918380192,1
2025-04-01T10:36:11.650,1743496571650,11.8242513071992,46.3783488401943,14.59992,1888.236,4.8918380192,1
2025-04-01T10:36:11.750,1743496571750,11.824247155678,46.3783521720896,14.478,1888.236,4.8918380192,1
2025-04-01T10:36:11.850,1743496571850,11.8242430297798,46.378355508918,14.478,1888.236,4.827014984,1
2025-04-01T10:36:11.950,1743496571950,11.8242392163232,46.3783586406118,14.478,1888.236,4.827014984,1
2025-04-01T10:36:12.050,1743496572050,11.8242346893953,46.3783622214229,14.478,1888.236,4.827014984,1
2025-04-01T10:36:12.150,1743496572150,11.8242305877297,46.3783655692138,14.38656,1888.236,4.827014984,1
2025-04-01T10:36:12.250,1743496572250,11.824226624905,46.3783689790109,14.38656,1888.236,4.827014984,1
2025-04-01T10:36:12.350,1743496572350,11.8242225721019,46.3783723326255,14.38656,1888.236,4.827014984,1
2025-04-01T10:36:12.450,1743496572450,11.8242183943618,46.3783757112482,14.38656,1888.236,4.827014984,1
2025-04-01T10:36:12.550,1743496572550,11.8242143904211,46.3783790743865,14.38656,1888.236,4.76340968576,1
2025-04-01T10:36:12.650,1743496572650,11.8242103831037,46.3783823326279,14.29512,1888.236,4.76340968576,1
2025-04-01T10:36:12.750,1743496572750,11.8242064127311,46.3783857044676,14.29512,1888.236,4.76340968576,1
2025-04-01T10:36:12.810,1743496572810,11.8242024503037,46.3783890934361,14.29512,1888.236,4.76340968576,1
2025-04-01T10:36:12.950,1743496572950,11.8241989407477,46.3783920941973,14.29512,1888.236,4.84149505664,1
2025-04-01T10:36:13.020,1743496573020,11.82419458027,46.3783958051874,14.29512,1888.236,4.84149505664,1
2025-04-01T10:36:13.120,1743496573120,11.8241906083084,46.3783992417397,14.1732,1887.9312,4.84149505664,1
2025-04-01T10:36:13.220,1743496573220,11.8241865173687,46.3784026345793,14.1732,1887.9312,4.84149505664,1
2025-04-01T10:36:13.320,1743496573320,11.8241825247498,46.3784061087465,14.1732,1887.9312,4.84149505664,1
2025-04-01T10:36:13.430,1743496573430,11.8241786109862,46.3784094572567,14.1732,1887.9312,4.92037392352,1
2025-04-01T10:36:13.550,1743496573550,11.8241746503464,46.3784129592753,14.1732,1887.9312,4.92037392352,1
2025-04-01T10:36:13.630,1743496573630,11.8241706587206,46.3784165543376,14.1732,1887.9312,4.92037392352,1
2025-04-01T10:36:13.750,1743496573750,11.8241667115875,46.3784201063723,14.08176,1887.9312,4.92037392352,1
2025-04-01T10:36:13.830,1743496573830,11.824162773194,46.378423681531,14.08176,1887.9312,4.92037392352,1
2025-04-01T10:36:13.950,1743496573950,11.8241591091056,46.3784270740622,14.08176,1887.9312,5.000008288,1
2025-04-01T10:36:14.040,1743496574040,11.8241548670101,46.3784310820658,14.08176,1887.9312,5.000008288,1
2025-04-01T10:36:14.140,1743496574140,11.8241509447054,46.3784347407787,14.08176,1887.9312,5.000008288,1
2025-04-01T10:36:14.240,1743496574240,11.8241470273665,46.3784383300857,14.08176,1887.9312,5.000008288,1
2025-04-01T10:36:14.340,1743496574340,11.8241431298903,46.3784420062015,14.08176,1887.9312,5.02195974016,1
2025-04-01T10:36:14.440,1743496574440,11.8241392548591,46.378445685743,14.08176,1887.9312,5.02195974016,1
2025-04-01T10:36:14.540,1743496574540,11.8241356519481,46.3784491636443,14.08176,1887.9312,5.02195974016,1
2025-04-01T10:36:14.650,1743496574650,11.8241318313409,46.3784528350668,14.08176,1887.9312,5.02195974016,1
2025-04-01T10:36:14.750,1743496574750,11.8241279974257,46.3784565383831,14.08176,1887.9312,5.02195974016,1
2025-04-01T10:36:14.850,1743496574850,11.8241241937019,46.378460212649,14.08176,1887.9312,5.02195974016,1
2025-04-01T10:36:14.950,1743496574950,11.8241202668288,46.378464021376,14.08176,1887.9312,5.02195974016,1
2025-04-01T10:36:15.050,1743496575050,11.8241158705981,46.3784683605136,14.08176,1887.9312,5.02195974016,1
2025-04-01T10:36:15.150,1743496575150,11.824112047806,46.3784721294333,14.08176,1887.9312,4.96488480224,1
2025-04-01T10:36:15.260,1743496575260,11.8241085861194,46.3784755546463,14.08176,1887.9312,4.96488480224,1
2025-04-01T10:36:15.360,1743496575360,11.8241048127857,46.3784792944127,14.08176,1887.9312,4.96488480224,1
2025-04-01T10:36:15.460,1743496575460,11.8241010761981,46.378483114616,14.08176,1887.9312,4.96488480224,1
2025-04-01T10:36:15.560,1743496575560,11.8240973284874,46.3784868555472,14.08176,1887.9312,4.96488480224,1
2025-04-01T10:36:15.660,1743496575660,11.8240935930916,46.3784905959988,14.08176,1887.9312,4.96488480224,1
2025-04-01T10:36:15.770,1743496575770,11.8240902771978,46.3784938888404,14.08176,1887.9312,4.96488480224,1
2025-04-01T10:36:15.870,1743496575870,11.8240865880823,46.3784975925679,14.08176,1887.9312,4.96488480224,1
2025-04-01T10:36:15.970,1743496575970,11.8240828443442,46.3785014821771,14.08176,1887.9312,4.96488480224,1
2025-04-01T10:36:16.070,1743496576070,11.8240789248203,46.3785054792867,14.08176,1887.9312,4.96488480224,1
2025-04-01T10:36:16.170,1743496576170,11.8240752458348,46.3785092455343,14.08176,1887.9312,4.96488480224,1
2025-04-01T10:36:16.270,1743496576270,11.8240714810421,46.3785130802628,13.99032,1887.9312,4.9091831712,1
2025-04-01T10:36:16.380,1743496576380,11.8240678191386,46.3785168479492,14.08176,1887.9312,4.9091831712,1
2025-04-01T10:36:16.480,1743496576480,11.8240641703445,46.378520601727,14.08176,1887.9312,4.9091831712,1
2025-04-01T10:36:16.580,1743496576580,11.8240608498824,46.3785240309482,14.08176,1887.9312,4.9091831712,1
2025-04-01T10:36:16.680,1743496576680,11.8240569889538,46.3785280349436,14.08176,1887.9312,4.9091831712,1
2025-04-01T10:36:16.780,1743496576780,11.8240533997481,46.3785317912222,14.08176,1887.9312,4.9091831712,1
2025-04-01T10:36:16.890,1743496576890,11.8240498333846,46.3785355703163,14.08176,1887.9312,4.9091831712,1
2025-04-01T10:36:16.950,1743496576950,11.8240465780723,46.3785390938145,14.08176,1887.9312,4.9930031712,1
2025-04-01T10:36:17.050,1743496577050,11.8240427779238,46.3785431541294,14.08176,1887.9312,4.9930031712,1
2025-04-01T10:36:17.150,1743496577150,11.8240392328135,46.3785469818008,14.08176,1887.9312,4.9930031712,1
2025-04-01T10:36:17.250,1743496577250,11.8240355981221,46.3785507393812,14.08176,1887.9312,4.93964358272,1
2025-04-01T10:36:17.350,1743496577350,11.8240320776416,46.3785545514312,14.08176,1887.9312,4.93964358272,1
2025-04-01T10:36:17.450,1743496577450,11.8240286193317,46.3785583495726,14.08176,1887.9312,4.93964358272,1
2025-04-01T10:36:17.550,1743496577550,11.8240251832681,46.3785621551822,14.08176,1887.9312,4.93964358272,1
2025-04-01T10:36:17.650,1743496577650,11.8240219076958,46.3785660875449,14.08176,1887.9312,4.8877476032,1
2025-04-01T10:36:17.750,1743496577750,11.8240185250631,46.3785699042197,14.1732,1887.9312,4.8877476032,1
2025-04-01T10:36:17.850,1743496577850,11.8240151473961,46.3785737182223,14.1732,1887.9312,4.8877476032,1
2025-04-01T10:36:17.950,1743496577950,11.824011971535,46.3785771935885,14.1732,1887.9312,4.8877476032,1
2025-04-01T10:36:18.050,1743496578050,11.8240083465763,46.3785813214594,14.1732,1887.9312,4.8877476032,1
2025-04-01T10:36:18.120,1743496578120,11.8240049983063,46.3785851874652,14.1732,1887.9312,4.8877476032,1
2025-04-01T10:36:18.250,1743496578250,11.8240017761649,46.378589083138,14.1732,1887.9312,4.97394004448,1
2025-04-01T10:36:18.350,1743496578350,11.8239984729833,46.3785930152609,14.1732,1887.9312,4.97394004448,1
2025-04-01T10:36:18.450,1743496578450,11.8239951886714,46.3785969630738,14.29512,1888.236,4.97394004448,1
2025-04-01T10:36:18.550,1743496578550,11.8239920406182,46.3786005434054,14.29512,1888.236,4.92443662304,1
2025-04-01T10:36:18.650,1743496578650,11.8239885970068,46.3786048702787,14.29512,1888.236,4.92443662304,1
2025-04-01T10:36:18.730,1743496578730,11.8239853343453,46.3786088598517,14.29512,1888.236,5.01199387744,1
2025-04-01T10:36:18.830,1743496578830,11.8239820816153,46.3786128702875,14.29512,1888.236,5.01199387744,1
2025-04-01T10:36:18.930,1743496578930,11.8239792515653,46.3786166084096,14.29512,1888.236,5.01199387744,1
2025-04-01T10:36:19.050,1743496579050,11.8239757739885,46.3786209460741,14.38656,1888.236,5.01199387744,1
2025-04-01T10:36:19.140,1743496579140,11.8239725550251,46.3786249890547,14.38656,1888.236,5.01199387744,1
2025-04-01T10:36:19.250,1743496579250,11.8239693237469,46.3786289891104,14.38656,1888.236,5.01199387744,1
2025-04-01T10:36:19.340,1743496579340,11.8239661250436,46.3786330014647,14.38656,1888.236,5.01199387744,1
2025-04-01T10:36:19.450,1743496579450,11.8239630135379,46.3786370394093,14.38656,1888.236,5.01199387744,1
2025-04-01T10:36:19.540,1743496579540,11.8239598227798,46.3786410277147,14.38656,1888.236,4.92443662304,1
2025-04-01T10:36:19.640,1743496579640,11.8239566282477,46.3786449019423,14.478,1888.236,4.92443662304,1
2025-04-01T10:36:19.750,1743496579750,11.8239534069008,46.3786488443768,14.478,1888.236,4.92443662304,1
2025-04-01T10:36:19.850,1743496579850,11.823950180191,46.3786527685519,14.478,1888.236,4.92443662304,1
2025-04-01T10:36:19.950,1743496579950,11.8239471634308,46.3786565278109,14.478,1888.236,4.92443662304,1
2025-04-01T10:36:20.050,1743496580050,11.8239436945936,46.3786607197435,14.59992,1888.236,4.92443662304,1
2025-04-01T10:36:20.150,1743496580150,11.8239404698701,46.3786645977394,14.59992,1888.236,4.83736261888,1
2025-04-01T10:36:20.250,1743496580250,11.8239370933948,46.3786686392298,14.59992,1888.236,4.83736261888,1
2025-04-01T10:36:20.350,1743496580350,11.8239338454318,46.3786724916524,14.59992,1888.236,4.83736261888,1
2025-04-01T10:36:20.460,1743496580460,11.8239305970716,46.3786763429102,14.69136,1888.5408,4.83736261888,1
2025-04-01T10:36:20.560,1743496580560,11.8239278470686,46.3786796655731,14.69136,1888.5408,4.83736261888,1
2025-04-01T10:36:20.660,1743496580660,11.823924397697,46.3786838639633,14.69136,1888.5408,4.92443662304,1
2025-04-01T10:36:20.760,1743496580760,11.823921151323,46.3786877520652,14.69136,1888.5408,4.92443662304,1
2025-04-01T10:36:20.860,1743496580860,11.8239178902506,46.3786916446206,14.69136,1888.5408,4.92443662304,1
2025-04-01T10:36:20.970,1743496580970,11.8239147996008,46.3786952348011,14.69136,1888.5408,4.97394004448,1
2025-04-01T10:36:21.070,1743496581070,11.8239112143677,46.378699375433,14.7828,1888.5408,4.97394004448,1
2025-04-01T10:36:21.170,1743496581170,11.8239079010561,46.3787032577967,14.7828,1888.5408,4.97394004448,1
2025-04-01T10:36:21.270,1743496581270,11.823904496773,46.378707172551,14.7828,1888.5408,4.97394004448,1
2025-04-01T10:36:21.370,1743496581370,11.8239011641945,46.3787110608414,14.7828,1888.5408,4.97394004448,1
2025-04-01T10:36:21.470,1743496581470,11.8238979992579,46.3787149978974,14.7828,1888.5408,4.97394004448,1
2025-04-01T10:36:21.580,1743496581580,11.823894667474,46.3787188871469,14.7828,1888.5408,4.8877476032,1
2025-04-01T10:36:21.680,1743496581680,11.823891358135,46.3787226501057,14.87424,1888.5408,4.8877476032,1
2025-04-01T10:36:21.780,1743496581780,11.8238880070841,46.3787265231685,14.87424,1888.5408,4.8877476032,1
2025-04-01T10:36:21.890,1743496581890,11.8238846482867,46.3787303887632,14.87424,1888.5408,4.8877476032,1
2025-04-01T10:36:21.950,1743496581950,11.8238814616997,46.3787339730514,14.87424,1888.5408,4.8877476032,1
2025-04-01T10:36:22.050,1743496582050,11.8238777962209,46.3787380746981,14.87424,1888.5408,4.8877476032,1
2025-04-01T10:36:22.150,1743496582150,11.8238744185539,46.3787419346745,14.99616,1888.8456,4.8877476032,1
2025-04-01T10:36:22.250,1743496582250,11.8238710967014,46.3787459010208,14.99616,1888.8456,4.8877476032,1
2025-04-01T10:36:22.350,1743496582350,11.8238677255891,46.3787497635836,14.99616,1888.8456,4.8877476032,1
2025-04-01T10:36:22.450,1743496582450,11.8238643644082,46.3787536193806,14.99616,1888.8456,4.8877476032,1
2025-04-01T10:36:22.550,1743496582550,11.8238613579767,46.3787571064629,14.99616,1888.8456,4.8877476032,1
2025-04-01T10:36:22.650,1743496582650,11.8238576386697,46.3787612492358,15.0876,1888.8456,4.8877476032,1
2025-04-01T10:36:22.750,1743496582750,11.8238542919887,46.3787650932139,15.0876,1888.8456,4.8877476032,1
2025-04-01T10:36:22.850,1743496582850,11.8238505923459,46.3787692104307,15.0876,1888.8456,4.8877476032,1
2025-04-01T10:36:22.950,1743496582950,11.8238472212336,46.3787730763851,15.0876,1888.8456,4.8877476032,1
2025-04-01T10:36:23.050,1743496583050,11.8238443526498,46.3787765765538,15.17904,1888.8456,4.8877476032,1
2025-04-01T10:36:23.150,1743496583150,11.8238410580093,46.3787803974936,15.17904,1888.8456,4.8877476032,1
2025-04-01T10:36:23.250,1743496583250,11.8238375732819,46.3787842431846,15.17904,1888.8456,4.8877476032,1
2025-04-01T10:36:23.350,1743496583350,11.8238342577854,46.3787880547378,15.17904,1888.8456,4.8877476032,1
2025-04-01T10:36:23.450,1743496583450,11.8238310120073,46.3787919005658,15.17904,1888.8456,4.8877476032,1
2025-04-01T10:36:23.550,1743496583550,11.8238276814151,46.3787957037431,15.27048,1889.1504,4.8877476032,1
2025-04-01T10:36:23.650,1743496583650,11.8238243534051,46.3787995093698,15.27048,1889.1504,4.8877476032,1
2025-04-01T10:36:23.720,1743496583720,11.8238211431813,46.3788029229181,15.27048,1889.1504,4.8877476032,1
2025-04-01T10:36:23.820,1743496583820,11.8238178288766,46.3788067011216,15.27048,1889.1504,4.8877476032,1
2025-04-01T10:36:23.950,1743496583950,11.8238145546948,46.3788105652346,15.27048,1889.1504,4.8877476032,1
2025-04-01T10:36:24.050,1743496584050,11.8238112389996,46.3788143531929,15.27048,1889.1504,4.8877476032,1
2025-04-01T10:36:24.120,1743496584120,11.8238078108812,46.3788182174344,15.3924,1889.1504,4.8877476032,1
2025-04-01T10:36:24.250,1743496584250,11.82380448883,46.3788220210998,15.3924,1889.1504,4.8877476032,1
2025-04-01T10:36:24.320,1743496584320,11.8238010632936,46.3788258674759,15.3924,1889.1504,4.8877476032,1
2025-04-01T10:36:24.430,1743496584430,11.8237977219755,46.3788296847331,15.3924,1889.1504,4.8877476032,1
2025-04-01T10:36:24.550,1743496584550,11.8237950351363,46.3788329233106,15.3924,1889.1504,4.8877476032,1
2025-04-01T10:36:24.650,1743496584650,11.8237917436738,46.3788367002466,15.3924,1889.1504,4.8877476032,1
2025-04-01T10:36:24.730,1743496584730,11.8237876727955,46.3788413768388,15.48384,1889.1504,4.8877476032,1
2025-04-01T10:36:24.830,1743496584830,11.8237842855943,46.3788452385623,15.48384,1889.1504,4.8877476032,1
2025-04-01T10:36:24.950,1743496584950,11.823780863236,46.3788491266128,15.48384,1889.1504,4.8877476032,1
2025-04-01T10:36:25.040,1743496585040,11.8237774698774,46.3788529686896,15.48384,1889.1504,4.8877476032,1
2025-04-01T10:36:25.140,1743496585140,11.8237741162444,46.3788567769199,15.48384,1889.1504,4.8877476032,1
2025-04-01T10:36:25.240,1743496585240,11.8237707604265,46.378860599564,15.48384,1889.1504,4.8877476032,1
2025-04-01T10:36:25.340,1743496585340,11.8237675267647,46.3788643670963,15.48384,1889.1504,4.8877476032,1
2025-04-01T10:36:25.450,1743496585450,11.8237638884979,46.3788685211657,15.57528,1889.4552,4.8877476032,1
2025-04-01T10:36:25.550,1743496585550,11.8237605261252,46.3788723905201,15.57528,1889.4552,4.8877476032,1
2025-04-01T10:36:25.650,1743496585650,11.8237571599787,46.3788762706228,15.57528,1889.4552,4.8877476032,1
2025-04-01T10:36:25.750,1743496585750,11.8237541485815,46.3788798510314,15.57528,1889.4552,4.8877476032,1
2025-04-01T10:36:25.850,1743496585850,11.8237508072634,46.3788837169644,15.57528,1889.4552,4.8877476032,1
2025-04-01T10:36:25.950,1743496585950,11.823747408939,46.3788876326736,15.6972,1889.4552,4.8877476032,1
2025-04-01T10:36:26.050,1743496586050,11.8237440644429,46.3788915008847,15.6972,1889.4552,4.8877476032,1
2025-04-01T10:36:26.160,1743496586160,11.8237411271339,46.3788950191114,15.6972,1889.4552,4.8877476032,1
2025-04-01T10:36:26.250,1743496586250,11.8237378253427,46.3788988592698,15.6972,1889.4552,4.97394004448,1
2025-04-01T10:36:26.360,1743496586360,11.8237343080403,46.3789032001845,15.6972,1889.4552,4.97394004448,1
2025-04-01T10:36:26.460,1743496586460,11.8237310046602,46.3789070923545,15.6972,1889.4552,4.97394004448,1
2025-04-01T10:36:26.570,1743496586570,11.8237276397053,46.3789109233789,15.6972,1889.4552,4.97394004448,1
2025-04-01T10:36:26.670,1743496586670,11.8237243303663,46.3789148094981,15.78864,1889.4552,4.97394004448,1
2025-04-01T10:36:26.770,1743496586770,11.8237209354187,46.3789186116905,15.78864,1889.4552,4.97394004448,1
2025-04-01T10:36:26.870,1743496586870,11.823717610984,46.3789224836592,15.78864,1889.4552,4.97394004448,1
2025-04-01T10:36:26.970,1743496586970,11.823714332035,46.3789264209486,15.78864,1889.4552,4.97394004448,1
2025-04-01T10:36:27.070,1743496587070,11.8237110024359,46.3789303025715,15.78864,1889.4552,4.97394004448,1
2025-04-01T10:36:27.170,1743496587170,11.8237077054119,46.3789342251066,15.78864,1889.4552,4.97394004448,1
2025-04-01T10:36:27.280,1743496587280,11.8237043758128,46.3789381107997,15.78864,1889.4552,4.97394004448,1
2025-04-01T10:36:27.380,1743496587380,11.8237010952748,46.3789420515159,15.78864,1889.4552,4.97394004448,1
2025-04-01T10:36:27.480,1743496587480,11.8236977454157,46.3789459419404,15.78864,1889.4552,4.97394004448,1
2025-04-01T10:36:27.580,1743496587580,11.8236944523642,46.3789498602508,15.78864,1889.4552,4.97394004448,1
2025-04-01T10:36:27.680,1743496587680,11.8236910866148,46.3789537387835,15.88008,1889.76,4.97394004448,1
2025-04-01T10:36:27.780,1743496587780,11.8236876340651,46.378957618183,15.88008,1889.76,4.97394004448,1
2025-04-01T10:36:27.850,1743496587850,11.8236842977127,46.378961498157,15.88008,1889.76,4.97394004448,1
2025-04-01T10:36:27.950,1743496587950,11.8236808310604,46.3789654087131,15.88008,1889.76,4.97394004448,1
2025-04-01T10:36:28.050,1743496588050,11.82367722517,46.3789695302703,15.88008,1889.76,4.97394004448,1
2025-04-01T10:36:28.150,1743496588150,11.8236738981531,46.3789734452145,15.88008,1889.76,4.97394004448,1
2025-04-01T10:36:28.250,1743496588250,11.8236705836498,46.3789773506189,15.97152,1889.76,4.97394004448,1
2025-04-01T10:36:28.350,1743496588350,11.8236676437586,46.3789809529427,15.97152,1889.76,4.97394004448,1
2025-04-01T10:36:28.450,1743496588450,11.8236643866587,46.3789848240304,15.97152,1889.76,4.92443662304,1
2025-04-01T10:36:28.550,1743496588550,11.8236612761462,46.3789883914435,15.97152,1889.76,4.92443662304,1
2025-04-01T10:36:28.650,1743496588650,11.8236580526144,46.378992226566,16.09344,1889.76,4.92443662304,1
2025-04-01T10:36:28.750,1743496588750,11.8236544876414,46.3789963620957,16.09344,1889.76,4.92443662304,1
2025-04-01T10:36:28.850,1743496588850,11.8236512372948,46.379000223725,16.09344,1889.76,4.92443662304,1
2025-04-01T10:36:28.950,1743496588950,11.8236478997506,46.379004207138,16.09344,1889.76,4.92443662304,1
2025-04-01T10:36:29.050,1743496589050,11.823644644637,46.3790080754861,16.18488,1890.0648,4.92443662304,1
2025-04-01T10:36:29.150,1743496589150,11.8236414268655,46.3790118874033,16.18488,1890.0648,4.83736261888,1
2025-04-01T10:36:29.250,1743496589250,11.82363819519,46.3790157426264,16.18488,1890.0648,4.83736261888,1
2025-04-01T10:36:29.350,1743496589350,11.8236349873498,46.3790197081634,16.18488,1890.0648,4.92443662304,1
2025-04-01T10:36:29.450,1743496589450,11.8236317729549,46.3790235897649,16.27632,1890.0648,4.92443662304,1
2025-04-01T10:36:29.550,1743496589550,11.8236285625326,46.3790274221511,16.27632,1890.0648,4.92443662304,1
2025-04-01T10:36:29.650,1743496589650,11.8236253455555,46.379031310784,16.27632,1890.0648,4.92443662304,1
2025-04-01T10:36:29.750,1743496589750,11.8236220666066,46.3790353400101,16.27632,1890.0648,4.92443662304,1
2025-04-01T10:36:29.850,1743496589850,11.8236188430748,46.3790392456818,16.27632,1890.0648,4.92443662304,1
2025-04-01T10:36:29.950,1743496589950,11.8236156938298,46.3790432073562,16.39824,1890.0648,4.92443662304,1
2025-04-01T10:36:30.050,1743496590050,11.823612481024,46.3790471219392,16.39824,1890.0648,4.92443662304,1
2025-04-01T10:36:30.120,1743496590120,11.8236093309845,46.3790508687114,16.39824,1890.0648,4.92443662304,1
2025-04-01T10:36:30.250,1743496590250,11.8236061239388,46.379054762363,16.39824,1890.0648,4.92443662304,1
2025-04-01T10:36:30.330,1743496590330,11.8236028030794,46.3790588437634,16.48968,1890.3696,4.92443662304,1
2025-04-01T10:36:30.430,1743496590430,11.8235995946434,46.3790627520431,16.48968,1890.3696,4.92443662304,1
2025-04-01T10:36:30.530,1743496590530,11.8235967167241,46.3790663064844,16.48968,1890.3696,4.92443662304,1
2025-04-01T10:36:30.650,1743496590650,11.8235928949252,46.3790708212522,16.48968,1890.3696,4.92443662304,1
2025-04-01T10:36:30.730,1743496590730,11.8235896775509,46.3790747646801,16.48968,1890.3696,4.92443662304,1
2025-04-01T10:36:30.840,1743496590840,11.8235864750736,46.3790787104975,16.58112,1890.3696,4.92443662304,1
2025-04-01T10:36:30.940,1743496590940,11.8235836807767,46.3790822278807,16.58112,1890.3696,4.8764821952,1
2025-04-01T10:36:31.040,1743496591040,11.8235805615246,46.3790861311844,16.58112,1890.3696,4.8764821952,1
2025-04-01T10:36:31.140,1743496591140,11.823577454786,46.3790900390786,16.67256,1890.3696,4.8764821952,1
2025-04-01T10:36:31.250,1743496591250,11.8235743615541,46.3790939434272,16.67256,1890.3696,4.8764821952,1
2025-04-01T10:36:31.350,1743496591350,11.823571346383,46.3790978553038,16.67256,1890.3696,4.8764821952,1
2025-04-01T10:36:31.450,1743496591450,11.8235682571236,46.3791017691674,16.67256,1890.3696,4.8764821952,1
2025-04-01T10:36:31.550,1743496591550,11.8235650504752,46.3791056854719,16.79448,1890.6744,4.8764821952,1
2025-04-01T10:36:31.650,1743496591650,11.8235619481065,46.3791096129272,16.79448,1890.6744,4.8764821952,1
2025-04-01T10:36:31.750,1743496591750,11.8235588540801,46.3791135312443,16.79448,1890.6744,4.8764821952,1
2025-04-01T10:36:31.850,1743496591850,11.82355577217,46.3791174646947,16.88592,1890.6744,4.8764821952,1
2025-04-01T10:36:31.950,1743496591950,11.8235526978077,46.3791215252323,16.88592,1890.6744,4.8764821952,1
2025-04-01T10:36:32.060,1743496592060,11.8235493966125,46.3791258079819,16.88592,1890.6744,4.8764821952,1
2025-04-01T10:36:32.160,1743496592160,11.8235463103325,46.3791297845198,16.97736,1890.6744,4.8764821952,1
2025-04-01T10:36:32.260,1743496592260,11.8235432333881,46.3791335641107,16.97736,1890.6744,4.8764821952,1
2025-04-01T10:36:32.360,1743496592360,11.8235401437316,46.37913752859,16.97736,1890.6744,4.8764821952,1
2025-04-01T10:36:32.460,1743496592460,11.8235370634105,46.3791414963065,16.97736,1890.6744,4.8764821952,1
2025-04-01T10:36:32.550,1743496592550,11.8235342178676,46.3791451433205,17.09928,1890.9792,4.96488480224,1
2025-04-01T10:36:32.660,1743496592660,11.8235310048631,46.3791494262756,17.09928,1890.9792,4.8764821952,1
2025-04-01T10:36:32.750,1743496592750,11.8235279616854,46.3791533810942,17.09928,1890.9792,4.8764821952,1
2025-04-01T10:36:32.870,1743496592870,11.8235249532676,46.3791572871642,17.09928,1890.9792,4.83012146496,1
2025-04-01T10:36:32.970,1743496592970,11.8235221832033,46.3791609051962,17.19072,1890.9792,4.65296353632,1
2025-04-01T10:36:33.080,1743496593080,11.8235191112247,46.3791648724845,17.19072,1890.9792,4.51775002976,1
2025-04-01T10:36:33.180,1743496593180,11.8235163874407,46.3791683970959,17.19072,1890.9792,4.29418890208,1
2025-04-01T10:36:33.280,1743496593280,11.8235137568132,46.3791716926267,17.19072,1890.9792,3.93574016,1
2025-04-01T10:36:33.380,1743496593380,11.8235113788403,46.3791747871339,17.28216,1890.9792,3.71214818656,1
2025-04-01T10:36:33.480,1743496593480,11.8235091899612,46.3791774950096,17.19072,1890.9792,3.40000563584,1
2025-04-01T10:36:33.590,1743496593590,11.8235071806417,46.3791800623948,17.28216,1890.9792,3.04138612448,1
2025-04-01T10:36:33.650,1743496593650,11.8235053328066,46.3791824419113,17.19072,1890.9792,2.72947290528,1
2025-04-01T10:36:33.750,1743496593750,11.8235036667161,46.3791844927603,17.19072,1890.9792,2.41868130944,1
2025-04-01T10:36:33.850,1743496593850,11.8235021768084,46.3791863045768,17.19072,1890.9792,2.14709422752,1
2025-04-01T10:36:33.950,1743496593950,11.8235008658645,46.3791878390437,17.19072,1890.9792,1.835758584,1
2025-04-01T10:36:34.050,1743496594050,11.8234993986005,46.3791895908751,17.19072,1890.9792,1.47648460608,1
2025-04-01T10:36:34.150,1743496594150,11.8234984406183,46.3791907147817,17.19072,1890.9792,1.25299813408,1
2025-04-01T10:36:34.250,1743496594250,11.8234975934705,46.379191558735,17.19072,1890.9792,0.94339924096,1
2025-04-01T10:36:34.350,1743496594350,11.8234970160593,46.3791922387999,17.19072,1890.9792,0.67082107136,1
2025-04-01T10:36:34.450,1743496594450,11.8234966148311,46.379192734696,17.19072,1890.9792,0.44721389856,1
2025-04-01T10:36:34.550,1743496594550,11.8234964229566,46.3791930720649,17.19072,1890.9792,0.31622804928,1
2025-04-01T10:36:34.650,1743496594650,11.8234963008005,46.3791932812761,17.19072,1890.9792,0.10000016576,1
2025-04-01T10:36:34.750,1743496594750,11.8234963838271,46.3791933069864,17.19072,1890.9792,0.10000016576,1
2025-04-01T10:36:34.850,1743496594850,11.8234967745282,46.3791931704355,17.19072,1890.9792,0.44721389856,1
2025-04-01T10:36:34.950,1743496594950,11.823497474493,46.3791929061037,17.19072,1890.9792,0.7211112832,1
2025-04-01T10:36:35.050,1743496595050,11.8234985518507,46.3791923177977,17.19072,1890.9792,1.14017730816,1
2025-04-01T10:36:35.150,1743496595150,11.8235000578473,46.3791914499838,17.19072,1890.9792,1.42126935456,1
2025-04-01T10:36:35.250,1743496595250,11.8235016911644,46.3791904387505,17.19072,1890.9792,1.70294121184,1
2025-04-01T10:36:35.350,1743496595350,11.8235035509172,46.379189056216,17.19072,1890.9792,1.91050009568,1
2025-04-01T10:36:35.450,1743496595450,11.8235050688314,46.3791877522,17.28216,1890.9792,1.9799021616,1
2025-04-01T10:36:35.550,1743496595550,11.8235069395088,46.3791864247004,17.28216,1890.9792,2.05183179168,1
2025-04-01T10:36:35.650,1743496595650,11.8235084331904,46.3791851353638,17.28216,1890.9792,2.05183179168,1
2025-04-01T10:36:35.750,1743496595750,11.8235102587791,46.379183710093,17.28216,1890.9792,2.12603238496,1
2025-04-01T10:36:35.850,1743496595850,11.82351185535,46.3791821887467,17.3736,1891.284,2.12603238496,1
2025-04-01T10:36:35.950,1743496595950,11.8235136328708,46.3791806823367,17.3736,1891.284,2.20227505696,1
2025-04-01T10:36:36.030,1743496596030,11.8235154278709,46.3791791640222,17.3736,1891.284,2.20227505696,1
2025-04-01T10:36:36.130,1743496596130,11.8235172935825,46.3791774546873,17.3736,1891.284,2.20227505696,1
2025-04-01T10:36:36.230,1743496596230,11.8235190933497,46.3791759457252,17.49552,1891.284,2.20227505696,1
2025-04-01T10:36:36.330,1743496596330,11.8235211719904,46.3791740731356,17.49552,1891.284,2.20227505696,1
2025-04-01T10:36:36.440,1743496596440,11.8235229699699,46.3791725488089,17.49552,1891.284,2.20227505696,1
2025-04-01T10:36:36.550,1743496596550,11.8235248491883,46.3791709449532,17.58696,1891.284,2.20227505696,1
2025-04-01T10:36:36.640,1743496596640,11.8235267113246,46.3791693892636,17.58696,1891.284,2.20227505696,1
2025-04-01T10:36:36.740,1743496596740,11.8235288330676,46.3791678781775,17.58696,1891.284,2.26716023072,1
2025-04-01T10:36:36.840,1743496596840,11.8235309597763,46.3791662413488,17.58696,1891.284,2.40832249856,1
2025-04-01T10:36:36.950,1743496596950,11.8235335115487,46.3791645332129,17.58696,1891.284,2.61725468928,1
2025-04-01T10:36:37.050,1743496597050,11.8235361010603,46.3791627376515,17.6784,1891.5888,2.82843146784,1
2025-04-01T10:36:37.150,1743496597150,11.8235392064086,46.3791607580069,17.6784,1891.5888,3.04138612448,1
2025-04-01T10:36:37.250,1743496597250,11.8235422325043,46.3791588053916,17.6784,1891.5888,3.1144874464,1
2025-04-01T10:36:37.360,1743496597360,11.8235453847287,46.3791566575421,17.6784,1891.5888,3.25576907392,1
2025-04-01T10:36:37.460,1743496597460,11.8235487210812,46.3791545929386,17.76984,1891.5888,3.40588287072,1
2025-04-01T10:36:37.560,1743496597560,11.8235520258518,46.3791527105513,17.76984,1891.5888,3.54683502976,1
2025-04-01T10:36:37.660,1743496597660,11.8235556464407,46.3791505739726,17.76984,1891.5888,3.62353994112,1
2025-04-01T10:36:37.760,1743496597760,11.8235591232231,46.3791483867782,17.89176,1891.5888,3.76431194304,1
2025-04-01T10:36:37.870,1743496597870,11.8235630119596,46.379146165823,17.89176,1891.5888,3.84188053568,1
2025-04-01T10:36:37.970,1743496597970,11.8235670041813,46.3791437522886,17.89176,1891.5888,3.98246791008,1
2025-04-01T10:36:38.070,1743496598070,11.8235711344493,46.3791414271217,17.89176,1891.5888,4.06079468256,1
2025-04-01T10:36:38.170,1743496598170,11.8235752184371,46.3791392121958,17.9832,1891.8936,4.2011969824,1
2025-04-01T10:36:38.270,1743496598270,11.8235795858668,46.3791367961606,17.9832,1891.8936,4.34166544416,1
2025-04-01T10:36:38.370,1743496598370,11.8235841781433,46.3791342143357,17.9832,1891.8936,4.4204142224,1
2025-04-01T10:36:38.480,1743496598480,11.823589020095,46.3791314066161,18.07464,1891.8936,4.48219425632,1
2025-04-01T10:36:38.580,1743496598580,11.8235937454522,46.379128775169,18.07464,1891.8936,4.62277716032,1
2025-04-01T10:36:38.680,1743496598680,11.8235985657534,46.3791260905884,18.07464,1891.8936,4.70107129888,1
2025-04-01T10:36:38.780,1743496598780,11.8236029995249,46.3791236836829,18.07464,1891.8936,4.84149505664,1
2025-04-01T10:36:38.880,1743496598880,11.8236080138856,46.3791209229647,18.19656,1891.8936,4.92037392352,1
2025-04-01T10:36:38.980,1743496598980,11.8236130342051,46.3791180934059,18.19656,1891.8936,5.0606403232,1
2025-04-01T10:36:39.050,1743496599050,11.8236182940699,46.379115247883,18.288,1892.1984,5.14004714432,1
2025-04-01T10:36:39.150,1743496599150,11.8236237138301,46.3791124166798,18.288,1892.1984,5.14004714432,1
2025-04-01T10:36:39.250,1743496599250,11.8236291762953,46.3791095175866,18.288,1892.1984,5.28016020928,1
2025-04-01T10:36:39.350,1743496599350,11.8236346763011,46.3791066313828,18.37944,1892.1984,5.36004581024,1
2025-04-01T10:36:39.450,1743496599450,11.8236402954837,46.3791036899301,18.37944,1892.1984,5.36004581024,1
2025-04-01T10:36:39.550,1743496599550,11.8236459760423,46.3791006808528,18.37944,1892.1984,5.44059705376,1
2025-04-01T10:36:39.650,1743496599650,11.8236517082441,46.3790976876111,18.47088,1892.1984,5.5000091168,1
2025-04-01T10:36:39.750,1743496599750,11.8236574527609,46.3790946887255,18.47088,1892.1984,5.5000091168,1
2025-04-01T10:36:39.850,1743496599850,11.8236632155514,46.3790916930686,18.5928,1892.5032,5.5000091168,1
2025-04-01T10:36:39.950,1743496599950,11.8236690854023,46.3790886908515,18.5928,1892.5032,5.5000091168,1
2025-04-01T10:36:40.050,1743496600050,11.823674812837,46.3790857170082,18.5928,1892.5032,5.44059705376,1
2025-04-01T10:36:40.150,1743496600150,11.8236805847644,46.3790827105173,18.68424,1892.5032,5.44059705376,1
2025-04-01T10:36:40.250,1743496600250,11.8236862575765,46.3790797602604,18.68424,1892.5032,5.36004581024,1
2025-04-01T10:36:40.350,1743496600350,11.8236918350471,46.3790768006597,18.77568,1892.5032,5.36004581024,1
2025-04-01T10:36:40.450,1743496600450,11.8236974297985,46.3790738774406,18.77568,1892.5032,5.36004581024,1
2025-04-01T10:36:40.550,1743496600550,11.823702758587,46.3790711330976,18.77568,1892.5032,5.36004581024,1
2025-04-01T10:36:40.650,1743496600650,11.8237082633599,46.3790682425859,18.8976,1892.808,5.36004581024,1
2025-04-01T10:36:40.750,1743496600750,11.8237143840779,46.3790650744934,18.8976,1892.808,5.28016020928,1
2025-04-01T10:36:40.850,1743496600850,11.8237199085149,46.3790621730278,18.8976,1892.808,5.22016162976,1
2025-04-01T10:36:40.920,1743496600920,11.8237256637576,46.3790592089051,18.98904,1892.808,5.22016162976,1
2025-04-01T10:36:41.020,1743496601020,11.8237322043748,46.3790559598276,18.98904,1892.808,5.22016162976,1
2025-04-01T10:36:41.150,1743496601150,11.823737724442,46.3790530787367,18.98904,1892.808,5.14004714432,1
2025-04-01T10:36:41.220,1743496601220,11.8237425254763,46.3790505674568,18.98904,1892.808,5.08036238688,1
2025-04-01T10:36:41.350,1743496601350,11.8237478971686,46.3790477525774,19.08048,1892.808,5.08036238688,1
2025-04-01T10:36:41.450,1743496601450,11.8237531886151,46.3790450278298,19.08048,1892.808,5.0606403232,1
2025-04-01T10:36:41.530,1743496601530,11.8237584959519,46.3790422095759,19.08048,1892.808,5.0606403232,1
2025-04-01T10:36:41.630,1743496601630,11.8237637496591,46.3790393105984,19.17192,1893.1128,5.0606403232,1
2025-04-01T10:36:41.730,1743496601730,11.8237690196539,46.3790364986308,19.17192,1893.1128,5.000008288,1
2025-04-01T10:36:41.830,1743496601830,11.8237742886555,46.3790336969491,19.17192,1893.1128,5.000008288,1
2025-04-01T10:36:41.950,1743496601950,11.8237791796683,46.3790311995864,19.17192,1893.1128,5.000008288,1
2025-04-01T10:36:42.040,1743496602040,11.823784959938,46.3790282334896,19.29384,1893.1128,5.000008288,1
2025-04-01T10:36:42.140,1743496602140,11.8237902571448,46.3790254522725,19.29384,1893.1128,5.000008288,1
2025-04-01T10:36:42.240,1743496602240,11.8237954379556,46.3790226566587,19.29384,1893.1128,5.000008288,1
2025-04-01T10:36:42.340,1743496602340,11.8238007232447,46.3790198667274,19.38528,1893.1128,5.000008288,1
2025-04-01T10:36:42.450,1743496602450,11.8238060186638,46.3790170671226,19.38528,1893.1128,5.000008288,1
2025-04-01T10:36:42.550,1743496602550,11.8238109394708,46.3790145873982,19.38528,1893.1128,5.0606403232,1
2025-04-01T10:36:42.640,1743496602640,11.8238162033081,46.3790118155677,19.47672,1893.4176,5.000008288,1
2025-04-01T10:36:42.750,1743496602750,11.8238214212623,46.3790090849021,19.47672,1893.4176,5.000008288,1
2025-04-01T10:36:42.850,1743496602850,11.8238266072375,46.3790063448991,19.59864,1893.4176,5.000008288,1
2025-04-01T10:36:42.950,1743496602950,11.823831866109,46.3790035180124,19.59864,1893.4176,4.92037392352,1
2025-04-01T10:36:43.050,1743496603050,11.8238371863566,46.3790006527528,19.59864,1893.4176,4.92037392352,1
2025-04-01T10:36:43.150,1743496603150,11.8238423047983,46.3789978970256,19.69008,1893.4176,4.92037392352,1
2025-04-01T10:36:43.260,1743496603260,11.8238475408277,46.3789950090447,19.69008,1893.4176,4.92037392352,1
2025-04-01T10:36:43.360,1743496603360,11.8238527007826,46.3789922323132,19.69008,1893.4176,4.92037392352,1
2025-04-01T10:36:43.460,1743496603460,11.8238577306363,46.3789894867648,19.78152,1893.7224,4.92037392352,1
2025-04-01T10:36:43.560,1743496603560,11.8238629195908,46.3789867285614,19.78152,1893.7224,4.92037392352,1
2025-04-01T10:36:43.660,1743496603660,11.8238681832295,46.3789840621448,19.87296,1893.7224,5.000008288,1
2025-04-01T10:36:43.760,1743496603760,11.8238733749649,46.3789813382044,19.87296,1893.7224,4.92037392352,1
2025-04-01T10:36:43.870,1743496603870,11.8238785305499,46.3789786326265,19.99488,1893.7224,4.8600490048,1
2025-04-01T10:36:43.970,1743496603970,11.823883148648,46.3789762092388,19.99488,1893.7224,4.8600490048,1
2025-04-01T10:36:44.070,1743496604070,11.8238886973176,46.3789732441852,19.99488,1893.7224,4.8600490048,1
2025-04-01T10:36:44.170,1743496604170,11.8238937770269,46.3789705602277,20.08632,1894.0272,4.8600490048,1
2025-04-01T10:36:44.270,1743496604270,11.8238986908819,46.3789680306103,20.08632,1894.0272,4.78017502688,1
2025-04-01T10:36:44.370,1743496604370,11.8239037473516,46.3789653573529,20.17776,1894.0272,4.78017502688,1
2025-04-01T10:36:44.480,1743496604480,11.8239088042187,46.3789626749974,20.17776,1894.0272,4.78017502688,1
2025-04-01T10:36:44.580,1743496604580,11.8239135023638,46.3789601127963,20.17776,1894.0272,4.78017502688,1
2025-04-01T10:36:44.680,1743496604680,11.8239185048068,46.3789574117874,20.29968,1894.0272,4.78017502688,1
2025-04-01T10:36:44.780,1743496604780,11.8239235410165,46.3789547291197,20.29968,1894.0272,4.84149505664,1
2025-04-01T10:36:44.880,1743496604880,11.8239285218091,46.3789519958489,20.39112,1894.332,4.84149505664,1
2025-04-01T10:36:44.980,1743496604980,11.823933563779,46.3789491506699,20.39112,1894.332,4.84149505664,1
2025-04-01T10:36:45.090,1743496605090,11.8239385580783,46.3789463859394,20.39112,1894.332,4.84149505664,1
2025-04-01T10:36:45.150,1743496605150,11.8239435315216,46.378943631121,20.39112,1894.332,4.84149505664,1
2025-04-01T10:36:45.250,1743496605250,11.8239489749185,46.3789406388781,20.48256,1894.332,4.84149505664,1
2025-04-01T10:36:45.350,1743496605350,11.8239540584017,46.3789378602614,20.48256,1894.332,4.92037392352,1
2025-04-01T10:36:45.450,1743496605450,11.823959067598,46.3789350462834,20.48256,1894.332,4.92037392352,1
2025-04-01T10:36:45.550,1743496605550,11.8239641483004,46.3789322726801,20.574,1894.332,4.92037392352,1
2025-04-01T10:36:45.650,1743496605650,11.8239691918594,46.3789294678532,20.574,1894.332,4.84149505664,1
2025-04-01T10:36:45.750,1743496605750,11.8239742203226,46.3789267301626,20.574,1894.332,4.84149505664,1
2025-04-01T10:36:45.850,1743496605850,11.8239792315053,46.3789240176149,20.69592,1894.332,4.78017502688,1
2025-04-01T10:36:45.950,1743496605950,11.8239837413511,46.378921640976,20.69592,1894.332,4.78017502688,1
2025-04-01T10:36:46.050,1743496606050,11.8239887376367,46.3789189818381,20.78736,1894.6368,4.78017502688,1
2025-04-01T10:36:46.150,1743496606150,11.823993854688,46.3789161203897,20.78736,1894.6368,4.78017502688,1
2025-04-01T10:36:46.250,1743496606250,11.8239993052355,46.3789132580292,20.8788,1894.6368,4.78017502688,1
2025-04-01T10:36:46.350,1743496606350,11.8240043489931,46.3789105540717,20.8788,1894.6368,4.78017502688,1
2025-04-01T10:36:46.450,1743496606450,11.8240093732851,46.3789078551842,20.97024,1894.6368,4.78017502688,1
2025-04-01T10:36:46.550,1743496606550,11.8240138142071,46.3789053736827,20.97024,1894.6368,4.78017502688,1
2025-04-01T10:36:46.650,1743496606650,11.8240187290552,46.3789026946519,21.09216,1894.9416,4.78017502688,1
2025-04-01T10:36:46.750,1743496606750,11.8240237491761,46.3788997628126,21.09216,1894.9416,4.84149505664,1
2025-04-01T10:36:46.820,1743496606820,11.8240286727638,46.378897038459,21.09216,1894.9416,4.84149505664,1
2025-04-01T10:36:46.950,1743496606950,11.8240338273558,46.3788942717543,21.1836,1894.9416,4.84149505664,1
2025-04-01T10:36:47.050,1743496607050,11.8240387821281,46.3788915270473,21.1836,1894.9416,4.84149505664,1
2025-04-01T10:36:47.150,1743496607150,11.8240437468318,46.3788887758185,21.27504,1894.9416,4.84149505664,1
2025-04-01T10:36:47.250,1743496607250,11.8240486906796,46.3788860279855,21.27504,1894.9416,4.84149505664,1
2025-04-01T10:36:47.320,1743496607320,11.8240536460478,46.3788832018096,21.27504,1894.9416,4.84149505664,1
2025-04-01T10:36:47.430,1743496607430,11.8240585813546,46.3788804417252,21.39696,1895.2464,4.84149505664,1
2025-04-01T10:36:47.550,1743496607550,11.824063508319,46.3788778157937,21.39696,1895.2464,4.84149505664,1
2025-04-01T10:36:47.650,1743496607650,11.8240684444203,46.3788750711166,21.39696,1895.2464,4.84149505664,1
2025-04-01T10:36:47.750,1743496607750,11.8240734190554,46.3788723117431,21.4884,1895.2464,4.78017502688,1
2025-04-01T10:36:47.850,1743496607850,11.8240783895193,46.3788695771978,21.4884,1895.2464,4.78017502688,1
2025-04-01T10:36:47.940,1743496607940,11.8240834066608,46.3788668569207,21.4884,1895.2464,4.84149505664,1
2025-04-01T10:36:48.050,1743496608050,11.8240883934122,46.3788641018808,21.57984,1895.2464,4.84149505664,1
2025-04-01T10:36:48.140,1743496608140,11.8240933861224,46.3788611748419,21.57984,1895.2464,4.84149505664,1
2025-04-01T10:36:48.240,1743496608240,11.8240983702916,46.3788583746419,21.67128,1895.5512,4.84149505664,1
2025-04-01T10:36:48.340,1743496608340,11.8241034410626,46.3788555168548,21.67128,1895.5512,4.84149505664,1
2025-04-01T10:36:48.450,1743496608450,11.8241084115265,46.3788527101201,21.67128,1895.5512,4.84149505664,1
2025-04-01T10:36:48.550,1743496608550,11.8241134181407,46.3788501122113,21.7932,1895.5512,4.84149505664,1
2025-04-01T10:36:48.650,1743496608650,11.8241188061204,46.3788471052494,21.7932,1895.5512,4.84149505664,1
2025-04-01T10:36:48.750,1743496608750,11.8241238335906,46.3788443268029,21.7932,1895.5512,4.84149505664,1
2025-04-01T10:36:48.850,1743496608850,11.8241291933651,46.3788414209524,21.88464,1895.5512,4.84149505664,1
2025-04-01T10:36:48.960,1743496608960,11.8241342448692,46.3788386579304,21.88464,1895.5512,4.84149505664,1
2025-04-01T10:36:49.060,1743496609060,11.8241389015011,46.3788361359022,21.88464,1895.5512,4.78017502688,1
2025-04-01T10:36:49.160,1743496609160,11.8241438872593,46.378833398582,21.88464,1895.5512,4.78017502688,1
2025-04-01T10:36:49.260,1743496609260,11.8241487764844,46.3788306980716,21.97608,1895.856,4.78017502688,1
2025-04-01T10:36:49.360,1743496609360,11.8241537356266,46.378827945464,21.97608,1895.856,4.84149505664,1
2025-04-01T10:36:49.460,1743496609460,11.8241586981454,46.378825133505,21.97608,1895.856,4.84149505664,1
2025-04-01T10:36:49.560,1743496609560,11.8241636674175,46.3788223520695,22.098,1895.856,4.84149505664,1
2025-04-01T10:36:49.670,1743496609670,11.8241685900121,46.3788194080732,22.098,1895.856,4.84149505664,1
2025-04-01T10:36:49.770,1743496609770,11.82417357438,46.3788166176965,22.098,1895.856,4.84149505664,1
2025-04-01T10:36:49.870,1743496609870,11.8241785790079,46.3788138463928,22.18944,1895.856,4.84149505664,1
2025-04-01T10:36:49.970,1743496609970,11.8241833099266,46.3788112886424,22.18944,1895.856,4.84149505664,1
2025-04-01T10:36:50.070,1743496610070,11.8241887972202,46.3788082915639,22.28088,1896.1608,4.84149505664,1
2025-04-01T10:36:50.170,1743496610170,11.8241938288615,46.3788055603758,22.28088,1896.1608,4.78017502688,1
2025-04-01T10:36:50.280,1743496610280,11.8241988742082,46.3788028416575,22.28088,1896.1608,4.78017502688,1
2025-04-01T10:36:50.380,1743496610380,11.8242034702585,46.3788004447551,22.37232,1896.1608,4.78017502688,1
2025-04-01T10:36:50.480,1743496610480,11.8242084929616,46.3787977645595,22.37232,1896.1608,4.78017502688,1
2025-04-01T10:36:50.580,1743496610580,11.824213715087,46.3787948397474,22.37232,1896.1608,4.78017502688,1
2025-04-01T10:36:50.680,1743496610680,11.8242187771184,46.3787921447182,22.49424,1896.1608,4.8600490048,1
2025-04-01T10:36:50.780,1743496610780,11.8242237739998,46.3787895046896,22.49424,1896.1608,4.8600490048,1
2025-04-01T10:36:50.890,1743496610890,11.8242288308668,46.3787868133432,22.49424,1896.1608,4.78017502688,1
2025-04-01T10:36:50.950,1743496610950,11.8242339131582,46.3787839462722,22.58568,1896.4656,4.78017502688,1
2025-04-01T10:36:51.050,1743496611050,11.8242389291079,46.3787812290784,22.58568,1896.4656,4.78017502688,1
2025-04-01T10:36:51.150,1743496611150,11.8242440719808,46.3787785331071,22.58568,1896.4656,4.78017502688,1
2025-04-01T10:36:51.250,1743496611250,11.8242491044167,46.3787758289997,22.67712,1896.4656,4.78017502688,1
2025-04-01T10:36:51.350,1743496611350,11.8242542770838,46.3787731216549,22.67712,1896.4656,4.8600490048,1
2025-04-01T10:36:51.450,1743496611450,11.8242596251393,46.3787701466725,22.67712,1896.4656,4.8600490048,1
2025-04-01T10:36:51.550,1743496611550,11.8242647682108,46.3787674478922,22.79904,1896.4656,4.8600490048,1
2025-04-01T10:36:51.650,1743496611650,11.8242699128714,46.3787647590636,22.79904,1896.4656,4.8600490048,1
2025-04-01T10:36:51.750,1743496611750,11.8242747292,46.3787622629684,22.79904,1896.4656,4.8600490048,1
2025-04-01T10:36:51.850,1743496611850,11.8242798247002,46.3787596130736,22.89048,1896.7704,4.8600490048,1
2025-04-01T10:36:51.950,1743496611950,11.8242849265565,46.3787569380851,22.89048,1896.7704,4.8600490048,1
2025-04-01T10:36:52.050,1743496612050,11.8242899951425,46.378754265803,22.89048,1896.7704,4.8600490048,1
2025-04-01T10:36:52.150,1743496612150,11.8242950262873,46.3787514808476,22.98192,1896.7704,4.8600490048,1
2025-04-01T10:36:52.250,1743496612250,11.8243001075855,46.378748786024,22.98192,1896.7704,4.8600490048,1
2025-04-01T10:36:52.350,1743496612350,11.8243053941657,46.3787461233511,23.07336,1896.7704,4.8600490048,1
2025-04-01T10:36:52.450,1743496612450,11.8243105177717,46.378743437383,23.07336,1896.7704,4.8600490048,1
2025-04-01T10:36:52.520,1743496612520,11.8243152910975,46.3787410585002,23.07336,1896.7704,4.8600490048,1
2025-04-01T10:36:52.650,1743496612650,11.8243204102344,46.3787383773968,23.19528,1897.0752,4.8600490048,1
2025-04-01T10:36:52.720,1743496612720,11.8243260470948,46.3787353848745,23.19528,1897.0752,4.92037392352,1
2025-04-01T10:36:52.820,1743496612820,11.8243312316796,46.3787326282501,23.19528,1897.0752,4.92037392352,1
2025-04-01T10:36:52.930,1743496612930,11.8243364773424,46.3787297996676,23.28672,1897.0752,4.92037392352,1
2025-04-01T10:36:53.050,1743496613050,11.8243416531875,46.3787270224545,23.28672,1897.0752,4.92037392352,1
2025-04-01T10:36:53.150,1743496613150,11.8243469397677,46.3787242758847,23.28672,1897.0752,4.92037392352,1
2025-04-01T10:36:53.230,1743496613230,11.8243520977363,46.3787214857735,23.37816,1897.0752,4.92037392352,1
2025-04-01T10:36:53.340,1743496613340,11.8243572480578,46.3787187088515,23.37816,1897.0752,4.92037392352,1
2025-04-01T10:36:53.450,1743496613450,11.8243623690816,46.3787159107755,23.37816,1897.0752,4.92037392352,1
2025-04-01T10:36:53.550,1743496613550,11.824367519701,46.3787131939756,23.4696,1897.38,4.92037392352,1
2025-04-01T10:36:53.640,1743496613640,11.8243726434063,46.3787103883457,23.4696,1897.38,4.98197558848,1
2025-04-01T10:36:53.750,1743496613750,11.824377719441,46.3787075207609,23.59152,1897.38,4.98197558848,1
2025-04-01T10:36:53.850,1743496613850,11.8243828160336,46.378704677756,23.59152,1897.38,4.98197558848,1
2025-04-01T10:36:53.950,1743496613950,11.8243879838343,46.3787016302674,23.68296,1897.38,4.98197558848,1
2025-04-01T10:36:54.050,1743496614050,11.8243935233671,46.3786985954198,23.68296,1897.38,4.90408780928,1
2025-04-01T10:36:54.150,1743496614150,11.8243986354526,46.3786957144574,23.68296,1897.38,4.90408780928,1
2025-04-01T10:36:54.260,1743496614260,11.8244037305555,46.3786928450056,23.7744,1897.6848,4.90408780928,1
2025-04-01T10:36:54.360,1743496614360,11.8244080971907,46.3786902840608,23.7744,1897.6848,4.90408780928,1
2025-04-01T10:36:54.460,1743496614460,11.8244131301231,46.3786874518641,23.89632,1897.6848,4.90408780928,1
2025-04-01T10:36:54.560,1743496614560,11.8244178611411,46.3786847505486,23.89632,1897.6848,4.90408780928,1
2025-04-01T10:36:54.660,1743496614660,11.8244228814606,46.3786819222916,23.89632,1897.6848,4.90408780928,1
2025-04-01T10:36:54.760,1743496614760,11.8244284278461,46.3786787977062,23.98776,1897.6848,4.90408780928,1
2025-04-01T10:36:54.870,1743496614870,11.8244334893809,46.3786759157504,23.98776,1897.6848,4.90408780928,1
2025-04-01T10:36:54.970,1743496614970,11.8244385295632,46.3786729988176,24.0792,1897.9896,4.90408780928,1
2025-04-01T10:36:55.070,1743496615070,11.8244438898343,46.3786698903846,24.0792,1897.9896,4.90408780928,1
2025-04-01T10:36:55.170,1743496615170,11.8244489212769,46.3786669798066,24.17064,1897.9896,4.90408780928,1
2025-04-01T10:36:55.270,1743496615270,11.8244539431855,46.3786640798312,24.17064,1897.9896,4.90408780928,1
2025-04-01T10:36:55.370,1743496615370,11.824458448165,46.3786613912596,24.29256,1897.9896,4.90408780928,1
2025-04-01T10:36:55.470,1743496615470,11.8244634573613,46.3786585159155,24.29256,1897.9896,4.90408780928,1
2025-04-01T10:36:55.580,1743496615580,11.8244684729138,46.3786556264572,24.384,1898.2944,4.90408780928,1
2025-04-01T10:36:55.680,1743496615680,11.8244735631503,46.3786527769776,24.384,1898.2944,4.98197558848,1
2025-04-01T10:36:55.780,1743496615780,11.8244787213175,46.3786499178716,24.384,1898.2944,4.98197558848,1
2025-04-01T10:36:55.880,1743496615880,11.8244838161225,46.3786470877476,24.47544,1898.2944,4.92037392352,1
2025-04-01T10:36:55.950,1743496615950,11.8244889854129,46.3786442236742,24.47544,1898.2944,4.84149505664,1
2025-04-01T10:36:56.050,1743496616050,11.824494047345,46.3786413992026,24.47544,1898.2944,4.90408780928,1
2025-04-01T10:36:56.150,1743496616150,11.8244989787785,46.3786385782253,24.59736,1898.2944,4.84149505664,1
2025-04-01T10:36:56.250,1743496616250,11.8245040435907,46.3786357596804,24.59736,1898.2944,4.98197558848,1
2025-04-01T10:36:56.350,1743496616350,11.824509165707,46.3786327213385,24.6888,1898.5992,4.98197558848,1
2025-04-01T10:36:56.450,1743496616450,11.8245142569366,46.3786298953254,24.6888,1898.5992,4.98197558848,1
2025-04-01T10:36:56.550,1743496616550,11.824519305362,46.3786272138108,24.78024,1898.5992,4.98197558848,1
2025-04-01T10:36:56.650,1743496616650,11.8245248614802,46.3786240978412,24.78024,1898.5992,4.98197558848,1
2025-04-01T10:36:56.750,1743496616750,11.8245299722747,46.3786212438396,24.78024,1898.5992,4.98197558848,1
2025-04-01T10:36:56.850,1743496616850,11.8245350787987,46.378618391037,24.87168,1898.5992,4.98197558848,1
2025-04-01T10:36:56.950,1743496616950,11.8245395253816,46.3786158671417,24.87168,1898.5992,4.90408780928,1
2025-04-01T10:36:57.050,1743496617050,11.8245445722179,46.3786130481171,24.9936,1898.904,4.90408780928,1
2025-04-01T10:36:57.150,1743496617150,11.8245497330666,46.3786101043263,24.9936,1898.904,4.90408780928,1
2025-04-01T10:36:57.250,1743496617250,11.8245547673894,46.3786072582724,24.9936,1898.904,4.90408780928,1
2025-04-01T10:36:57.350,1743496617350,11.8245597434149,46.3786045341072,25.08504,1898.904,4.90408780928,1
2025-04-01T10:36:57.450,1743496617450,11.8245647409915,46.3786017195018,25.08504,1898.904,4.90408780928,1
2025-04-01T10:36:57.550,1743496617550,11.8245697210889,46.378598812024,25.08504,1898.904,4.84149505664,1
2025-04-01T10:36:57.650,1743496617650,11.8245747322715,46.378596009169,25.17648,1898.904,4.84149505664,1
2025-04-01T10:36:57.750,1743496617750,11.8245799915404,46.3785933279628,25.17648,1898.904,4.84149505664,1
2025-04-01T10:36:57.850,1743496617850,11.8245850389726,46.378590536173,25.2984,1899.2088,4.84149505664,1
2025-04-01T10:36:57.950,1743496617950,11.8245900363506,46.3785877887811,25.2984,1899.2088,4.84149505664,1
2025-04-01T10:36:58.050,1743496618050,11.8245950862656,46.3785849803763,25.2984,1899.2088,4.90408780928,1
2025-04-01T10:36:58.150,1743496618150,11.8246002152346,46.3785821419962,25.38984,1899.2088,4.90408780928,1
2025-04-01T10:36:58.220,1743496618220,11.8246052623689,46.3785793298231,25.38984,1899.2088,4.90408780928,1
2025-04-01T10:36:58.320,1743496618320,11.824610306623,46.3785764830841,25.48128,1899.2088,4.90408780928,1
2025-04-01T10:36:58.430,1743496618430,11.8246153364767,46.3785736588523,25.48128,1899.2088,4.90408780928,1
2025-04-01T10:36:58.550,1743496618550,11.8246199318319,46.3785710716147,25.48128,1899.2088,4.90408780928,1
2025-04-01T10:36:58.650,1743496618650,11.8246249359632,46.3785682438202,25.57272,1899.5136,4.90408780928,1
2025-04-01T10:36:58.730,1743496618730,11.824630331888,46.37856514772,25.57272,1899.5136,4.98197558848,1
2025-04-01T10:36:58.850,1743496618850,11.8246354065323,46.3785622902926,25.69464,1899.5136,4.98197558848,1
2025-04-01T10:36:58.950,1743496618950,11.8246405662885,46.3785593270092,25.69464,1899.5136,4.98197558848,1
2025-04-01T10:36:59.040,1743496619040,11.8246456402376,46.3785564506374,25.69464,1899.5136,4.98197558848,1
2025-04-01T10:36:59.150,1743496619150,11.8246507362343,46.378553595471,25.78608,1899.5136,4.98197558848,1
2025-04-01T10:36:59.240,1743496619240,11.8246561230223,46.3785505674407,25.78608,1899.5136,4.98197558848,1
2025-04-01T10:36:59.350,1743496619350,11.8246612442447,46.3785477069301,25.87752,1899.8184,4.98197558848,1
2025-04-01T10:36:59.450,1743496619450,11.8246663618919,46.378544856183,25.87752,1899.8184,4.98197558848,1
2025-04-01T10:36:59.550,1743496619550,11.8246708691556,46.3785423983364,25.87752,1899.8184,4.90408780928,1
2025-04-01T10:36:59.650,1743496619650,11.824675891958,46.3785395937684,25.99944,1899.8184,4.90408780928,1
2025-04-01T10:36:59.750,1743496619750,11.8246810057319,46.3785367611436,25.99944,1899.8184,4.90408780928,1
2025-04-01T10:36:59.850,1743496619850,11.8246859983428,46.3785339218727,25.99944,1899.8184,4.90408780928,1
2025-04-01T10:36:59.950,1743496619950,11.8246910590831,46.3785309575616,26.09088,1899.8184,4.90408780928,1
2025-04-01T10:37:00.060,1743496620060,11.824696019119,46.3785280705699,26.09088,1899.8184,4.96790500448,1
2025-04-01T10:37:00.160,1743496620160,11.8247008272047,46.3785252036531,26.09088,1899.8184,4.96790500448,1
2025-04-01T10:37:00.260,1743496620260,11.8247057641005,46.37852229227,26.18232,1900.1232,4.96790500448,1
2025-04-01T10:37:00.360,1743496620360,11.8247107611805,46.3785193317615,26.18232,1900.1232,4.96790500448,1
2025-04-01T10:37:00.460,1743496620460,11.8247157517059,46.3785164239754,26.18232,1900.1232,4.96790500448,1
2025-04-01T10:37:00.560,1743496620560,11.8247203529206,46.378513841945,26.27376,1900.1232,4.96790500448,1
2025-04-01T10:37:00.670,1743496620670,11.8247253325214,46.3785109793104,26.27376,1900.1232,4.96790500448,1
2025-04-01T10:37:00.770,1743496620770,11.8247306623031,46.3785076934573,26.27376,1900.1232,4.96790500448,1
2025-04-01T10:37:00.870,1743496620870,11.8247356697118,46.3785048012585,26.39568,1900.1232,4.90408780928,1
2025-04-01T10:37:00.970,1743496620970,11.8247407417739,46.3785019478392,26.39568,1900.1232,4.90408780928,1
2025-04-01T10:37:01.080,1743496621080,11.8247457342855,46.3784990779763,26.48712,1900.428,4.90408780928,1
2025-04-01T10:37:01.180,1743496621180,11.8247506804175,46.3784962202406,26.48712,1900.428,4.90408780928,1
2025-04-01T10:37:01.280,1743496621280,11.8247556505834,46.3784933611689,26.48712,1900.428,4.90408780928,1
2025-04-01T10:37:01.380,1743496621380,11.8247605924449,46.3784904611593,26.57856,1900.428,4.90408780928,1
2025-04-01T10:37:01.480,1743496621480,11.8247655637034,46.3784875930093,26.57856,1900.428,4.90408780928,1
2025-04-01T10:37:01.590,1743496621590,11.8247705740915,46.3784846297944,26.57856,1900.428,4.90408780928,1
2025-04-01T10:37:01.650,1743496621650,11.8247755473362,46.3784817407815,26.67,1900.428,4.90408780928,1
2025-04-01T10:37:01.750,1743496621750,11.8247806075799,46.3784789082251,26.67,1900.428,4.90408780928,1
2025-04-01T10:37:01.850,1743496621850,11.8247858651604,46.3784758521721,26.67,1900.428,4.90408780928,1
2025-04-01T10:37:01.950,1743496621950,11.8247908644254,46.3784729248934,26.79192,1900.7328,4.90408780928,1
2025-04-01T10:37:02.050,1743496622050,11.8247958619027,46.3784699969981,26.79192,1900.7328,4.90408780928,1
2025-04-01T10:37:02.150,1743496622150,11.8248004455388,46.3784672839666,26.88336,1900.7328,4.90408780928,1
2025-04-01T10:37:02.250,1743496622250,11.8248057169239,46.3784641898191,26.88336,1900.7328,4.90408780928,1
2025-04-01T10:37:02.350,1743496622350,11.8248107083431,46.3784612936121,26.88336,1900.7328,4.90408780928,1
2025-04-01T10:37:02.450,1743496622450,11.8248156971801,46.3784584062778,26.9748,1900.7328,4.90408780928,1
2025-04-01T10:37:02.550,1743496622550,11.8248201347254,46.3784558654593,26.9748,1900.7328,4.90408780928,1
2025-04-01T10:37:02.650,1743496622650,11.8248250525529,46.3784529957334,26.9748,1900.7328,4.96790500448,1
2025-04-01T10:37:02.750,1743496622750,11.8248301314677,46.3784500335805,26.9748,1900.7328,4.96790500448,1
2025-04-01T10:37:02.850,1743496622850,11.8248350477062,46.3784471319265,27.09672,1900.7328,4.96790500448,1
2025-04-01T10:37:02.950,1743496622950,11.8248399442805,46.3784440851573,27.09672,1900.7328,4.8918380192,1
2025-04-01T10:37:03.050,1743496623050,11.8248448334063,46.3784411851478,27.09672,1900.7328,4.827014984,1
2025-04-01T10:37:03.150,1743496623150,11.8248497742747,46.3784383932209,27.18816,1901.0376,4.827014984,1
2025-04-01T10:37:03.250,1743496623250,11.8248546558526,46.3784355174657,27.18816,1901.0376,4.827014984,1
2025-04-01T10:37:03.350,1743496623350,11.8248596337651,46.3784325109492,27.18816,1901.0376,4.827014984,1
2025-04-01T10:37:03.450,1743496623450,11.8248650200565,46.3784294122797,27.18816,1901.0376,4.8918380192,1
2025-04-01T10:37:03.550,1743496623550,11.8248699506955,46.3784264788689,27.2796,1901.0376,4.8918380192,1
2025-04-01T10:37:03.650,1743496623650,11.8248748869954,46.3784235368595,27.2796,1901.0376,4.8918380192,1
2025-04-01T10:37:03.750,1743496623750,11.8248793205682,46.3784209959039,27.2796,1901.0376,4.8918380192,1
2025-04-01T10:37:03.850,1743496623850,11.8248842173412,46.3784180996284,27.37104,1901.0376,4.8918380192,1
2025-04-01T10:37:03.950,1743496623950,11.8248891334803,46.3784150070225,27.37104,1901.0376,4.8918380192,1
2025-04-01T10:37:04.020,1743496624020,11.8248939964866,46.3784120806003,27.37104,1901.0376,4.8918380192,1
2025-04-01T10:37:04.120,1743496624120,11.8248988621743,46.3784090673351,27.49296,1901.3424,4.8918380192,1
2025-04-01T10:37:04.250,1743496624250,11.8249037204135,46.3784061401592,27.49296,1901.3424,4.8918380192,1
2025-04-01T10:37:04.330,1743496624330,11.8249085919607,46.3784032917073,27.49296,1901.3424,4.8918380192,1
2025-04-01T10:37:04.450,1743496624450,11.8249139283965,46.3784001253105,27.5844,1901.3424,4.8918380192,1
2025-04-01T10:37:04.550,1743496624550,11.8249188588369,46.3783972107072,27.5844,1901.3424,4.8918380192,1
2025-04-01T10:37:04.630,1743496624630,11.8249237945409,46.3783943066894,27.5844,1901.3424,4.8918380192,1
2025-04-01T10:37:04.750,1743496624750,11.8249281781588,46.3783917864597,27.67584,1901.3424,4.827014984,1
2025-04-01T10:37:04.850,1743496624850,11.8249330846645,46.3783889209133,27.67584,1901.3424,4.827014984,1
2025-04-01T10:37:04.930,1743496624930,11.8249380988265,46.3783860142234,27.67584,1901.3424,4.90408780928,1
2025-04-01T10:37:05.040,1743496625040,11.8249430346299,46.3783831411403,27.79776,1901.6472,4.96790500448,1
2025-04-01T10:37:05.140,1743496625140,11.8249477998119,46.3783802122173,27.79776,1901.6472,4.8918380192,1
2025-04-01T10:37:05.250,1743496625250,11.8249526979753,46.3783772987445,27.79776,1901.6472,4.8918380192,1
2025-04-01T10:37:05.340,1743496625340,11.8249577428253,46.3783742435136,27.8892,1901.6472,4.8918380192,1
2025-04-01T10:37:05.450,1743496625450,11.8249626456564,46.378371310788,27.8892,1901.6472,4.8918380192,1
2025-04-01T10:37:05.550,1743496625550,11.8249674647659,46.3783682782357,27.98064,1901.6472,4.8918380192,1
2025-04-01T10:37:05.640,1743496625640,11.8249723601485,46.3783653629815,27.98064,1901.6472,4.8918380192,1
2025-04-01T10:37:05.750,1743496625750,11.8249772424216,46.3783625302881,27.98064,1901.6472,4.8918380192,1
2025-04-01T10:37:05.850,1743496625850,11.8249821353214,46.378359638329,28.07208,1901.952,4.8918380192,1
2025-04-01T10:37:05.950,1743496625950,11.8249872005308,46.3783567239655,28.07208,1901.952,4.8918380192,1
2025-04-01T10:37:06.050,1743496626050,11.8249921086255,46.3783538089853,28.194,1901.952,4.8918380192,1
2025-04-01T10:37:06.150,1743496626150,11.8249969766968,46.3783507871214,28.194,1901.952,4.8918380192,1
2025-04-01T10:37:06.250,1743496626250,11.8250018507269,46.3783478472702,28.194,1901.952,4.8918380192,1
2025-04-01T10:37:06.360,1743496626360,11.8250068617109,46.3783447845027,28.28544,1901.952,4.8918380192,1
2025-04-01T10:37:06.460,1743496626460,11.8250117507374,46.3783418566417,28.28544,1901.952,4.8918380192,1
2025-04-01T10:37:06.550,1743496626550,11.8250161967244,46.3783393097253,28.28544,1901.952,4.8918380192,1
2025-04-01T10:37:06.660,1743496626660,11.8250210581416,46.3783364359227,28.28544,1901.952,4.827014984,1
2025-04-01T10:37:06.750,1743496626750,11.8250266264754,46.3783332610643,28.37688,1902.2568,4.827014984,1
2025-04-01T10:37:06.870,1743496626870,11.8250315651588,46.3783303497155,28.37688,1902.2568,4.8918380192,1
2025-04-01T10:37:06.970,1743496626970,11.8250365010615,46.3783274953027,28.37688,1902.2568,4.96790500448,1
2025-04-01T10:37:07.070,1743496627070,11.8250419157567,46.3783243307216,28.37688,1902.2568,4.96790500448,1
2025-04-01T10:37:07.170,1743496627170,11.8250469141278,46.3783213542148,28.4988,1902.2568,4.96790500448,1
2025-04-01T10:37:07.280,1743496627280,11.8250519168687,46.3783183684584,28.4988,1902.2568,4.96790500448,1
2025-04-01T10:37:07.380,1743496627380,11.8250564340638,46.3783155328188,28.4988,1902.2568,4.96790500448,1
2025-04-01T10:37:07.480,1743496627480,11.8250613833739,46.3783125513104,28.59024,1902.2568,4.96790500448,1
2025-04-01T10:37:07.580,1743496627580,11.8250664827473,46.3783096966236,28.59024,1902.2568,4.96790500448,1
2025-04-01T10:37:07.680,1743496627680,11.8250714365265,46.3783067375196,28.59024,1902.2568,4.96790500448,1
2025-04-01T10:37:07.780,1743496627780,11.8250764865408,46.3783037934205,28.59024,1902.2568,4.96790500448,1
2025-04-01T10:37:07.880,1743496627880,11.8250814512446,46.3783008489102,28.68168,1902.5616,4.96790500448,1
2025-04-01T10:37:07.950,1743496627950,11.8250863591407,46.3782977799764,28.68168,1902.5616,4.96790500448,1
2025-04-01T10:37:08.050,1743496628050,11.8250913354641,46.3782947963439,28.68168,1902.5616,4.96790500448,1
2025-04-01T10:37:08.150,1743496628150,11.8250964532106,46.3782916900007,28.77312,1902.5616,4.96790500448,1
2025-04-01T10:37:08.250,1743496628250,11.8251014587323,46.3782886823194,28.77312,1902.5616,4.96790500448,1
2025-04-01T10:37:08.350,1743496628350,11.8251065594465,46.378285725682,28.77312,1902.5616,4.96790500448,1
2025-04-01T10:37:08.450,1743496628450,11.8251115733106,46.3782827197136,28.77312,1902.5616,4.96790500448,1
2025-04-01T10:37:08.550,1743496628550,11.8251161709003,46.378279955741,28.89504,1902.5616,5.03290015008,1
2025-04-01T10:37:08.650,1743496628650,11.8251210971695,46.3782769854691,28.89504,1902.5616,4.8918380192,1
2025-04-01T10:37:08.750,1743496628750,11.8251263102077,46.378273600543,28.89504,1902.5616,4.8918380192,1
2025-04-01T10:37:08.850,1743496628850,11.8251312432303,46.378270634519,28.98648,1902.8664,4.8918380192,1
2025-04-01T10:37:08.950,1743496628950,11.8251361852408,46.3782675707922,28.98648,1902.8664,4.8918380192,1
2025-04-01T10:37:09.050,1743496629050,11.8251411310748,46.378264576814,28.98648,1902.8664,4.8918380192,1
2025-04-01T10:37:09.150,1743496629150,11.8251460534211,46.378261635798,28.98648,1902.8664,4.957830064,1
2025-04-01T10:37:09.250,1743496629250,11.825150994935,46.3782586332554,29.07792,1902.8664,4.957830064,1
2025-04-01T10:37:09.350,1743496629350,11.8251559896316,46.378255507865,29.07792,1902.8664,4.957830064,1
2025-04-01T10:37:09.450,1743496629450,11.82516093194,46.3782525320433,29.07792,1902.8664,4.8918380192,1
2025-04-01T10:37:09.550,1743496629550,11.8251657219008,46.3782495277878,29.07792,1902.8664,4.8918380192,1
2025-04-01T10:37:09.650,1743496629650,11.8251710517819,46.3782464093174,29.19984,1902.8664,4.8918380192,1
2025-04-01T10:37:09.750,1743496629750,11.8251760003471,46.3782434720698,29.19984,1902.8664,4.8918380192,1
2025-04-01T10:37:09.850,1743496629850,11.8251809376898,46.3782405464698,29.19984,1902.8664,4.8918380192,1
2025-04-01T10:37:09.950,1743496629950,11.8251854018016,46.3782378582065,29.29128,1903.1712,4.827014984,1
2025-04-01T10:37:10.020,1743496630020,11.8251902545288,46.3782349597385,29.29128,1903.1712,4.827014984,1
2025-04-01T10:37:10.150,1743496630150,11.8251951979297,46.3782321562326,29.29128,1903.1712,4.8918380192,1
2025-04-01T10:37:10.230,1743496630230,11.8252000735488,46.3782292601626,29.38272,1903.1712,4.827014984,1
2025-04-01T10:37:10.350,1743496630350,11.8252049415207,46.3782263472379,29.38272,1903.1712,4.827014984,1
2025-04-01T10:37:10.450,1743496630450,11.8252098196227,46.3782234614452,29.38272,1903.1712,4.827014984,1
2025-04-01T10:37:10.550,1743496630550,11.8252143929798,46.3782206577337,29.47416,1903.1712,4.827014984,1
2025-04-01T10:37:10.630,1743496630630,11.8252192095071,46.3782177995527,29.47416,1903.1712,4.827014984,1
2025-04-01T10:37:10.750,1743496630750,11.825224415792,46.3782146939632,29.47416,1903.1712,4.827014984,1
2025-04-01T10:37:10.850,1743496630850,11.8252292518842,46.3782118254363,29.59608,1903.476,4.827014984,1
2025-04-01T10:37:10.950,1743496630950,11.8252341487564,46.3782089559502,29.59608,1903.476,4.827014984,1
2025-04-01T10:37:11.040,1743496631040,11.8252391669407,46.3782058241879,29.68752,1903.476,4.827014984,1
2025-04-01T10:37:11.140,1743496631140,11.825244024584,46.3782029285975,29.68752,1903.476,4.827014984,1
2025-04-01T10:37:11.250,1743496631250,11.8252488759208,46.3781999968311,29.68752,1903.476,4.827014984,1
2025-04-01T10:37:11.350,1743496631350,11.8252537718,46.3781970853452,29.68752,1903.476,4.827014984,1
2025-04-01T10:37:11.450,1743496631450,11.8252586925573,46.3781941602933,29.77896,1903.476,4.827014984,1
2025-04-01T10:37:11.550,1743496631550,11.82526323036,46.3781916515399,29.77896,1903.476,4.8918380192,1
2025-04-01T10:37:11.650,1743496631650,11.8252681531532,46.3781887418354,29.77896,1903.476,4.8918380192,1
2025-04-01T10:37:11.750,1743496631750,11.8252730932271,46.3781857686858,29.77896,1903.476,4.96790500448,1
2025-04-01T10:37:11.860,1743496631860,11.825278019397,46.3781828538427,29.8704,1903.7808,4.8918380192,1
2025-04-01T10:37:11.960,1743496631960,11.8252831243816,46.3781797679855,29.8704,1903.7808,4.8918380192,1
2025-04-01T10:37:12.060,1743496632060,11.8252880205091,46.3781768263529,29.8704,1903.7808,4.8918380192,1
2025-04-01T10:37:12.160,1743496632160,11.8252927895643,46.3781739661164,29.8704,1903.7808,4.8918380192,1
2025-04-01T10:37:12.260,1743496632260,11.8252983235355,46.3781705372036,29.99232,1903.7808,4.827014984,1
2025-04-01T10:37:12.370,1743496632370,11.8253032630631,46.378167622703,29.99232,1903.7808,4.827014984,1
2025-04-01T10:37:12.470,1743496632470,11.8253082070102,46.3781647350604,29.99232,1903.7808,4.827014984,1
2025-04-01T10:37:12.570,1743496632570,11.8253121891515,46.3781624213013,30.08376,1903.7808,4.827014984,1
2025-04-01T10:37:12.670,1743496632670,11.8253175021492,46.3781593377052,30.08376,1903.7808,4.827014984,1
2025-04-01T10:37:12.750,1743496632750,11.825322367539,46.3781564269729,30.1752,1904.0856,4.8918380192,1
2025-04-01T10:37:12.880,1743496632880,11.825327233028,46.3781534936307,30.1752,1904.0856,4.8918380192,1
2025-04-01T10:37:12.980,1743496632980,11.8253317088092,46.3781507886497,30.1752,1904.0856,4.8918380192,1
2025-04-01T10:37:13.080,1743496633080,11.8253370718611,46.3781475309564,30.29712,1904.0856,4.8918380192,1
2025-04-01T10:37:13.180,1743496633180,11.8253419687831,46.3781446125504,30.29712,1904.0856,4.8918380192,1
2025-04-01T10:37:13.280,1743496633280,11.8253467661428,46.3781418615272,30.29712,1904.0856,4.827014984,1
2025-04-01T10:37:13.380,1743496633380,11.8253516274607,46.3781389834767,30.38856,1904.0856,4.827014984,1
2025-04-01T10:37:13.490,1743496633490,11.82535636553,46.378136048079,30.38856,1904.0856,4.827014984,1
2025-04-01T10:37:13.550,1743496633550,11.8253611948688,46.3781331637937,30.48,1904.3904,4.827014984,1
2025-04-01T10:37:13.650,1743496633650,11.8253659873125,46.3781302699162,30.48,1904.3904,4.827014984,1
2025-04-01T10:37:13.750,1743496633750,11.8253708712243,46.3781273819995,30.48,1904.3904,4.827014984,1
2025-04-01T10:37:13.850,1743496633850,11.8253757930244,46.3781244945625,30.57144,1904.3904,4.827014984,1
2025-04-01T10:37:13.950,1743496633950,11.8253803898693,46.3781219549772,30.57144,1904.3904,4.90408780928,1
2025-04-01T10:37:14.050,1743496634050,11.8253859050205,46.378118913929,30.57144,1904.3904,4.90408780928,1
2025-04-01T10:37:14.150,1743496634150,11.8253908788114,46.3781160164202,30.69336,1904.3904,4.90408780928,1
2025-04-01T10:37:14.250,1743496634250,11.8253957454922,46.3781131548134,30.69336,1904.3904,4.8918380192,1
2025-04-01T10:37:14.350,1743496634350,11.8254006892407,46.3781102466162,30.69336,1904.3904,4.8918380192,1
2025-04-01T10:37:14.450,1743496634450,11.8254056224123,46.378107340543,30.7848,1904.6952,4.8918380192,1
2025-04-01T10:37:14.550,1743496634550,11.8254099480308,46.3781045939733,30.7848,1904.6952,4.827014984,1
2025-04-01T10:37:14.650,1743496634650,11.8254153278667,46.3781014837932,30.7848,1904.6952,4.827014984,1
2025-04-01T10:37:14.750,1743496634750,11.8254202682385,46.3780985925878,30.87624,1904.6952,4.827014984,1
2025-04-01T10:37:14.850,1743496634850,11.8254251090978,46.378095769281,30.87624,1904.6952,4.827014984,1
2025-04-01T10:37:14.950,1743496634950,11.8254299961876,46.3780928871882,30.99816,1904.6952,4.827014984,1
2025-04-01T10:37:15.050,1743496635050,11.8254347548149,46.3780899840611,30.99816,1904.6952,4.827014984,1
2025-04-01T10:37:15.150,1743496635150,11.8254395524726,46.3780870954593,30.99816,1904.6952,4.7507968992,1
2025-04-01T10:37:15.250,1743496635250,11.8254443110999,46.3780842732488,31.0896,1905,4.7507968992,1
2025-04-01T10:37:15.350,1743496635350,11.8254490883485,46.3780813751233,31.0896,1905,4.7507968992,1
2025-04-01T10:37:15.420,1743496635420,11.8254539108347,46.3780784143065,31.18104,1905,4.81664544416,1
2025-04-01T10:37:15.550,1743496635550,11.8254587107766,46.378075489049,31.18104,1905,4.81664544416,1
2025-04-01T10:37:15.620,1743496635620,11.8254635581408,46.3780725451554,31.27248,1905,4.8918380192,1
2025-04-01T10:37:15.730,1743496635730,11.8254683772503,46.3780696017414,31.27248,1905,4.8918380192,1
2025-04-01T10:37:15.830,1743496635830,11.8254732154281,46.3780666757303,31.27248,1905,4.8918380192,1
2025-04-01T10:37:15.950,1743496635950,11.8254780315085,46.3780637383456,31.3944,1905.3048,4.8918380192,1
2025-04-01T10:37:16.030,1743496636030,11.8254828081612,46.3780607571113,31.3944,1905.3048,4.81664544416,1
2025-04-01T10:37:16.150,1743496636150,11.8254876222057,46.3780578273318,31.3944,1905.3048,4.81664544416,1
2025-04-01T10:37:16.230,1743496636230,11.825492438584,46.3780549031706,31.48584,1905.3048,4.8918380192,1
2025-04-01T10:37:16.350,1743496636350,11.8254968253799,46.3780522106593,31.48584,1905.3048,4.8918380192,1
2025-04-01T10:37:16.440,1743496636440,11.8255016382823,46.3780492792355,31.48584,1905.3048,4.8918380192,1
2025-04-01T10:37:16.540,1743496636540,11.8255065235348,46.3780463907022,31.48584,1905.3048,4.957830064,1
2025-04-01T10:37:16.650,1743496636650,11.8255117548965,46.3780430509276,31.57728,1905.3048,4.957830064,1
2025-04-01T10:37:16.740,1743496636740,11.825516638411,46.3780400232399,31.57728,1905.3048,4.957830064,1
2025-04-01T10:37:16.840,1743496636840,11.825521525923,46.378037014805,31.57728,1905.3048,4.957830064,1
2025-04-01T10:37:16.950,1743496636950,11.8255264025104,46.3780340081515,31.57728,1905.3048,4.957830064,1
2025-04-01T10:37:17.050,1743496637050,11.8255312078897,46.378030914141,31.6992,1905.6096,4.957830064,1
2025-04-01T10:37:17.150,1743496637150,11.8255360825405,46.3780279306456,31.6992,1905.6096,4.8918380192,1
2025-04-01T10:37:17.250,1743496637250,11.8255410332161,46.3780250680796,31.6992,1905.6096,4.8918380192,1
2025-04-01T10:37:17.360,1743496637360,11.8255459244275,46.3780221348744,31.6992,1905.6096,4.8918380192,1
2025-04-01T10:37:17.460,1743496637460,11.825551114698,46.3780189711154,31.79064,1905.6096,4.8918380192,1
2025-04-01T10:37:17.560,1743496637560,11.8255560429535,46.3780160455154,31.79064,1905.6096,4.8918380192,1
2025-04-01T10:37:17.670,1743496637670,11.8255605661323,46.3780134278228,31.79064,1905.6096,4.8918380192,1
2025-04-01T10:37:17.770,1743496637770,11.8255654510124,46.3780105470317,31.88208,1905.6096,4.8918380192,1
2025-04-01T10:37:17.870,1743496637870,11.8255703715214,46.378007699539,31.88208,1905.6096,4.827014984,1
2025-04-01T10:37:17.970,1743496637970,11.8255752603989,46.3780048178572,31.88208,1905.6096,4.827014984,1
2025-04-01T10:37:18.070,1743496638070,11.8255800286845,46.3780018691676,31.88208,1905.6096,4.8918380192,1
2025-04-01T10:37:18.170,1743496638170,11.8255849114045,46.3779989588464,31.97352,1905.9144,4.8918380192,1
2025-04-01T10:37:18.280,1743496638280,11.8255897837959,46.3779960454421,31.97352,1905.9144,4.8918380192,1
2025-04-01T10:37:18.380,1743496638380,11.8255943172537,46.377993457074,31.97352,1905.9144,4.8918380192,1
2025-04-01T10:37:18.480,1743496638480,11.8255996236967,46.3779902302811,32.09544,1905.9144,4.8918380192,1
2025-04-01T10:37:18.580,1743496638580,11.8256044970067,46.3779872872096,32.09544,1905.9144,4.8918380192,1
2025-04-01T10:37:18.680,1743496638680,11.8256094318666,46.3779843403699,32.09544,1905.9144,4.8918380192,1
2025-04-01T10:37:18.750,1743496638750,11.8256143054994,46.3779813797586,32.09544,1905.9144,4.957830064,1
2025-04-01T10:37:18.850,1743496638850,11.8256191023129,46.3779784938974,32.18688,1905.9144,4.957830064,1
2025-04-01T10:37:18.950,1743496638950,11.8256239261895,46.3779755360267,32.18688,1905.9144,4.8918380192,1
2025-04-01T10:37:19.050,1743496639050,11.8256286523659,46.3779725484204,32.18688,1905.9144,4.81664544416,1
2025-04-01T10:37:19.150,1743496639150,11.825633428547,46.3779695800668,32.18688,1905.9144,4.81664544416,1
2025-04-01T10:37:19.250,1743496639250,11.8256380822491,46.3779666141798,32.27832,1906.2192,4.81664544416,1
2025-04-01T10:37:19.350,1743496639350,11.8256428405039,46.3779636205442,32.27832,1906.2192,4.88365405792,1
2025-04-01T10:37:19.450,1743496639450,11.8256477771266,46.3779604811766,32.27832,1906.2192,4.88365405792,1
2025-04-01T10:37:19.550,1743496639550,11.8256525278585,46.3779574511594,32.27832,1906.2192,4.88365405792,1
2025-04-01T10:37:19.650,1743496639650,11.8256571811882,46.3779543831162,32.36976,1906.2192,4.88365405792,1
2025-04-01T10:37:19.750,1743496639750,11.8256618924427,46.3779513506324,32.36976,1906.2192,4.88365405792,1
2025-04-01T10:37:19.850,1743496639850,11.8256665622337,46.3779482410005,32.36976,1906.2192,4.88365405792,1
2025-04-01T10:37:19.950,1743496639950,11.8256712479149,46.3779452150257,32.36976,1906.2192,4.88365405792,1
2025-04-01T10:37:20.050,1743496640050,11.8256762105578,46.377942104366,32.49168,1906.2192,4.81041325952,1
2025-04-01T10:37:20.110,1743496640110,11.8256809157542,46.3779390761302,32.49168,1906.2192,4.88365405792,1
2025-04-01T10:37:20.250,1743496640250,11.8256853515615,46.3779362385722,32.49168,1906.2192,4.88365405792,1
2025-04-01T10:37:20.350,1743496640350,11.8256900476955,46.3779332193119,32.58312,1906.524,4.88365405792,1
2025-04-01T10:37:20.450,1743496640450,11.8256946505737,46.3779300798758,32.58312,1906.524,4.88365405792,1
2025-04-01T10:37:20.550,1743496640550,11.8256993632932,46.3779270430756,32.58312,1906.524,4.88365405792,1
2025-04-01T10:37:20.650,1743496640650,11.8257040052266,46.3779240491659,32.58312,1906.524,4.88365405792,1
2025-04-01T10:37:20.750,1743496640750,11.8257087284981,46.3779210142841,32.58312,1906.524,4.88365405792,1
2025-04-01T10:37:20.830,1743496640830,11.8257136304354,46.3779179118463,32.58312,1906.524,4.88365405792,1
2025-04-01T10:37:20.950,1743496640950,11.8257183815148,46.3779148791569,32.67456,1906.524,4.88365405792,1
2025-04-01T10:37:21.030,1743496641030,11.8257230475815,46.3779118178968,32.67456,1906.524,4.88365405792,1
2025-04-01T10:37:21.150,1743496641150,11.8257277833169,46.3779087792466,32.67456,1906.524,4.88365405792,1
2025-04-01T10:37:21.250,1743496641250,11.825732563185,46.3779058554965,32.67456,1906.524,4.88365405792,1
2025-04-01T10:37:21.340,1743496641340,11.8257373217502,46.3779028282198,32.67456,1906.524,4.88365405792,1
2025-04-01T10:37:21.440,1743496641440,11.825742105057,46.3778997177657,32.79648,1906.524,4.88365405792,1
2025-04-01T10:37:21.540,1743496641540,11.8257468559875,46.377896674251,32.79648,1906.524,4.88365405792,1
2025-04-01T10:37:21.650,1743496641650,11.8257515960306,46.3778935809257,32.79648,1906.524,4.88365405792,1
2025-04-01T10:37:21.740,1743496641740,11.825756306441,46.3778905273392,32.79648,1906.524,4.88365405792,1
2025-04-01T10:37:21.850,1743496641850,11.8257611248056,46.3778874311363,32.79648,1906.524,4.88365405792,1
2025-04-01T10:37:21.950,1743496641950,11.8257658212996,46.3778843680262,32.88792,1906.8288,4.88365405792,1
2025-04-01T10:37:22.050,1743496642050,11.8257705174088,46.3778813061494,32.88792,1906.8288,4.81041325952,1
2025-04-01T10:37:22.150,1743496642150,11.825775176089,46.3778782372155,32.88792,1906.8288,4.81041325952,1
2025-04-01T10:37:22.250,1743496642250,11.8257797952299,46.3778751948656,32.88792,1906.8288,4.87955693632,1
2025-04-01T10:37:22.350,1743496642350,11.8257844306086,46.3778721211356,32.88792,1906.8288,4.87955693632,1
2025-04-01T10:37:22.450,1743496642450,11.8257890602767,46.3778690478167,32.88792,1906.8288,4.87955693632,1
2025-04-01T10:37:22.550,1743496642550,11.8257933863918,46.37786623835,32.97936,1906.8288,4.87955693632,1
2025-04-01T10:37:22.660,1743496642660,11.8257987712804,46.3778626959074,32.97936,1906.8288,4.87955693632,1
2025-04-01T10:37:22.760,1743496642760,11.8258034732118,46.377859575039,32.97936,1906.8288,4.87955693632,1
2025-04-01T10:37:22.870,1743496642870,11.8258081820208,46.3778564496486,32.97936,1906.8288,4.87955693632,1
2025-04-01T10:37:22.970,1743496642970,11.8258120591748,46.3778539454857,32.97936,1906.8288,4.87955693632,1
2025-04-01T10:37:23.070,1743496643070,11.8258169792741,46.3778505143803,33.0708,1906.8288,4.87955693632,1
2025-04-01T10:37:23.170,1743496643170,11.825821648494,46.3778473968007,33.0708,1906.8288,4.95177535424,1
2025-04-01T10:37:23.280,1743496643280,11.8258263022582,46.377844257022,33.0708,1906.8288,4.95177535424,1
2025-04-01T10:37:23.380,1743496643380,11.8258309799446,46.3778411203951,33.0708,1906.8288,4.95177535424,1
2025-04-01T10:37:23.480,1743496643480,11.8258356357447,46.3778378595501,33.0708,1906.8288,4.95177535424,1
2025-04-01T10:37:23.580,1743496643580,11.8258403265965,46.3778346960652,33.19272,1907.1336,4.95177535424,1
2025-04-01T10:37:23.680,1743496643680,11.825844964638,46.3778316294608,33.19272,1907.1336,5.02096418208,1
2025-04-01T10:37:23.780,1743496643780,11.8258496511758,46.3778284675518,33.19272,1907.1336,5.02096418208,1
2025-04-01T10:37:23.880,1743496643880,11.8258543368136,46.3778253028336,33.19272,1907.1336,5.02096418208,1
2025-04-01T10:37:23.950,1743496643950,11.8258585375324,46.3778223755207,33.19272,1907.1336,5.02096418208,1
2025-04-01T10:37:24.050,1743496644050,11.8258635300626,46.3778189449635,33.19272,1907.1336,5.02096418208,1
2025-04-01T10:37:24.150,1743496644150,11.8258682055207,46.3778157529077,33.19272,1907.1336,4.94975562752,1
2025-04-01T10:37:24.250,1743496644250,11.8258728102921,46.3778124312212,33.28416,1907.1336,4.94975562752,1
2025-04-01T10:37:24.350,1743496644350,11.8258774640004,46.3778092238866,33.28416,1907.1336,4.94975562752,1
2025-04-01T10:37:24.450,1743496644450,11.8258821053193,46.3778060255274,33.28416,1907.1336,4.94975562752,1
2025-04-01T10:37:24.550,1743496644550,11.8258862803779,46.3778032191439,33.28416,1907.1336,4.94975562752,1
2025-04-01T10:37:24.650,1743496644650,11.825891126088,46.377799772006,33.28416,1907.1336,4.94975562752,1
2025-04-01T10:37:24.750,1743496644750,11.8258957338791,46.3777965987919,33.28416,1907.1336,4.94975562752,1
2025-04-01T10:37:24.850,1743496644850,11.825900339383,46.377793421741,33.28416,1907.1336,4.94975562752,1
2025-04-01T10:37:24.950,1743496644950,11.8259044862736,46.3777904654462,33.3756,1907.1336,4.94975562752,1
2025-04-01T10:37:25.050,1743496645050,11.8259094550523,46.3777869275941,33.3756,1907.1336,4.94975562752,1
2025-04-01T10:37:25.150,1743496645150,11.8259140617308,46.3777837306738,33.3756,1907.1336,4.94975562752,1
2025-04-01T10:37:25.250,1743496645250,11.8259190412897,46.3777804087817,33.3756,1907.1336,4.94975562752,1
2025-04-01T10:37:25.350,1743496645350,11.8259237274923,46.3777772128206,33.3756,1907.1336,4.94975562752,1
2025-04-01T10:37:25.450,1743496645450,11.8259278386734,46.3777744398725,33.3756,1907.1336,4.95177535424,1
2025-04-01T10:37:25.550,1743496645550,11.825932491503,46.3777713109193,33.3756,1907.1336,4.95177535424,1
2025-04-01T10:37:25.650,1743496645650,11.8259372662886,46.3777681138619,33.3756,1907.1336,4.95177535424,1
2025-04-01T10:37:25.710,1743496645710,11.825941942419,46.3777649806608,33.49752,1907.1336,4.95177535424,1
2025-04-01T10:37:25.850,1743496645850,11.8259466277328,46.377761835538,33.49752,1907.1336,4.95177535424,1
2025-04-01T10:37:25.950,1743496645950,11.8259507595759,46.3777589444696,33.49752,1907.1336,4.95177535424,1
2025-04-01T10:37:26.020,1743496646020,11.825955407216,46.3777557975654,33.49752,1907.1336,5.02096418208,1
2025-04-01T10:37:26.120,1743496646120,11.8259602902789,46.3777525039016,33.49752,1907.1336,5.02096418208,1
2025-04-01T10:37:26.250,1743496646250,11.8259652869408,46.3777490386757,33.49752,1907.1336,5.02096418208,1
2025-04-01T10:37:26.330,1743496646330,11.8259699781983,46.3777458306559,33.49752,1907.1336,5.02096418208,1
2025-04-01T10:37:26.430,1743496646430,11.8259746702581,46.377742622362,33.58896,1907.4384,5.02096418208,1
2025-04-01T10:37:26.550,1743496646550,11.8259790027386,46.3777396120772,33.58896,1907.4384,5.02096418208,1
2025-04-01T10:37:26.650,1743496646650,11.8259836598484,46.3777364313265,33.58896,1907.4384,5.02096418208,1
2025-04-01T10:37:26.740,1743496646740,11.8259884308946,46.3777332008337,33.58896,1907.4384,5.02096418208,1
2025-04-01T10:37:26.840,1743496646840,11.8259933871567,46.3777297697283,33.58896,1907.4384,4.95177535424,1
2025-04-01T10:37:26.940,1743496646940,11.8259980670373,46.377726572945,33.58896,1907.4384,4.95177535424,1
2025-04-01T10:37:27.040,1743496647040,11.8260027387121,46.3777233747915,33.58896,1907.4384,4.94975562752,1
2025-04-01T10:37:27.140,1743496647140,11.8260072091956,46.3777204798862,33.58896,1907.4384,5.02096418208,1
2025-04-01T10:37:27.240,1743496647240,11.8260118568488,46.3777173140718,33.6804,1907.4384,5.02096418208,1
2025-04-01T10:37:27.350,1743496647350,11.8260164351592,46.3777140780978,33.6804,1907.4384,4.95177535424,1
2025-04-01T10:37:27.450,1743496647450,11.8260215948286,46.377710617805,33.6804,1907.4384,5.02096418208,1
2025-04-01T10:37:27.550,1743496647550,11.8260263095653,46.3777074370543,33.6804,1907.4384,5.02096418208,1
2025-04-01T10:37:27.650,1743496647650,11.8260310358659,46.3777042642513,33.6804,1907.4384,5.02096418208,1
2025-04-01T10:37:27.750,1743496647750,11.8260352754538,46.3777015195315,33.6804,1907.4384,5.02096418208,1
2025-04-01T10:37:27.860,1743496647860,11.8260402597409,46.3776980004526,33.6804,1907.4384,5.02096418208,1
2025-04-01T10:37:27.960,1743496647960,11.8260449493451,46.3776948088764,33.6804,1907.4384,5.02096418208,1
2025-04-01T10:37:28.060,1743496648060,11.8260496230776,46.3776916129154,33.6804,1907.4384,4.94975562752,1
2025-04-01T10:37:28.160,1743496648160,11.8260538687422,46.3776887304799,33.77184,1907.4384,4.94975562752,1
2025-04-01T10:37:28.260,1743496648260,11.8260584737556,46.3776855964566,33.77184,1907.4384,4.87955693632,1
2025-04-01T10:37:28.370,1743496648370,11.826063152938,46.3776823332135,33.77184,1907.4384,4.87955693632,1
2025-04-01T10:37:28.470,1743496648470,11.8260677589694,46.3776792097415,33.77184,1907.4384,4.87955693632,1
2025-04-01T10:37:28.570,1743496648570,11.8260723849132,46.3776760174802,33.77184,1907.4384,4.87955693632,1
2025-04-01T10:37:28.670,1743496648670,11.8260770037438,46.377672879209,33.77184,1907.4384,4.87955693632,1
2025-04-01T10:37:28.770,1743496648770,11.8260817418875,46.3776697375119,33.77184,1907.4384,4.87955693632,1
2025-04-01T10:37:28.880,1743496648880,11.8260863836099,46.3776665775898,33.77184,1907.4384,4.87955693632,1
2025-04-01T10:37:28.980,1743496648980,11.826091128147,46.3776633634036,33.77184,1907.4384,4.94975562752,1
2025-04-01T10:37:29.080,1743496649080,11.826095769348,46.3776601870379,33.77184,1907.4384,4.94975562752,1
2025-04-01T10:37:29.180,1743496649180,11.8261002968469,46.3776569836772,33.77184,1907.4384,4.94975562752,1
2025-04-01T10:37:29.280,1743496649280,11.8261049291717,46.3776538052559,33.77184,1907.4384,4.94975562752,1
2025-04-01T10:37:29.390,1743496649390,11.8261095988758,46.3776506804136,33.89376,1907.7432,4.94975562752,1
2025-04-01T10:37:29.450,1743496649450,11.8261146203995,46.3776473416668,33.89376,1907.7432,4.94975562752,1
2025-04-01T10:37:29.550,1743496649550,11.82611928736,46.3776441440613,33.89376,1907.7432,4.94975562752,1
2025-04-01T10:37:29.650,1743496649650,11.826123909021,46.3776409002766,33.89376,1907.7432,4.94975562752,1
2025-04-01T10:37:29.750,1743496649750,11.8261285763415,46.3776376995194,33.89376,1907.7432,4.94975562752,1
2025-04-01T10:37:29.850,1743496649850,11.8261331971086,46.3776344876628,33.89376,1907.7432,4.94975562752,1
2025-04-01T10:37:29.950,1743496649950,11.8261378496686,46.3776312897833,33.89376,1907.7432,4.94975562752,1
2025-04-01T10:37:30.050,1743496650050,11.8261424624782,46.377628102044,33.89376,1907.7432,4.94975562752,1
2025-04-01T10:37:30.150,1743496650150,11.8261471134244,46.3776249317076,33.89376,1907.7432,4.94975562752,1
2025-04-01T10:37:30.250,1743496650250,11.8261517630918,46.3776217620563,33.89376,1907.7432,4.87955693632,1
2025-04-01T10:37:30.350,1743496650350,11.8261564387051,46.3776185914459,33.89376,1907.7432,4.87955693632,1
2025-04-01T10:37:30.450,1743496650450,11.826161111041,46.3776155371742,33.9852,1907.7432,4.87955693632,1
2025-04-01T10:37:30.550,1743496650550,11.8261657606712,46.3776123620418,33.9852,1907.7432,4.87955693632,1
2025-04-01T10:37:30.650,1743496650650,11.8261703493848,46.3776090520713,33.9852,1907.7432,4.94975562752,1
2025-04-01T10:37:30.750,1743496650750,11.8261749741121,46.3776058540548,33.9852,1907.7432,4.87955693632,1
2025-04-01T10:37:30.850,1743496650850,11.8261796039044,46.3776026586418,33.9852,1907.7432,4.94975562752,1
2025-04-01T10:37:30.950,1743496650950,11.8261838175712,46.3775997845652,33.9852,1907.7432,4.87955693632,1
2025-04-01T10:37:31.020,1743496651020,11.8261889159515,46.3775962986477,33.9852,1907.7432,4.87955693632,1
2025-04-01T10:37:31.150,1743496651150,11.8261935815216,46.3775931065234,34.07664,1907.7432,4.87955693632,1
2025-04-01T10:37:31.250,1743496651250,11.826198146164,46.3775900656808,34.07664,1907.7432,4.94975562752,1
2025-04-01T10:37:31.320,1743496651320,11.8262027951238,46.3775868878077,34.07664,1907.7432,4.94975562752,1
2025-04-01T10:37:31.450,1743496651450,11.8262074556538,46.3775836659478,34.07664,1907.7432,4.94975562752,1
2025-04-01T10:37:31.550,1743496651550,11.8262120840308,46.3775804908154,34.07664,1907.7432,4.94975562752,1
2025-04-01T10:37:31.630,1743496651630,11.8262167039662,46.3775772593634,34.07664,1907.7432,4.94975562752,1
2025-04-01T10:37:31.730,1743496651730,11.8262213582394,46.3775740913565,34.07664,1907.7432,4.94975562752,1
2025-04-01T10:37:31.830,1743496651830,11.8262260661172,46.3775710483214,34.07664,1907.7432,4.87955693632,1
2025-04-01T10:37:31.950,1743496651950,11.8262307381428,46.377567914298,34.07664,1907.7432,4.87955693632,1
2025-04-01T10:37:32.030,1743496652030,11.8262354320919,46.3775647062782,34.19856,1908.048,4.87955693632,1
2025-04-01T10:37:32.150,1743496652150,11.8262401069975,46.3775615822581,34.19856,1908.048,4.87955693632,1
2025-04-01T10:37:32.240,1743496652240,11.8262447270074,46.3775584665968,34.19856,1908.048,4.87955693632,1
2025-04-01T10:37:32.340,1743496652340,11.8262493901195,46.377555348469,34.19856,1908.048,4.87955693632,1
2025-04-01T10:37:32.440,1743496652440,11.8262541399326,46.3775521653888,34.19856,1908.048,4.87955693632,1
2025-04-01T10:37:32.540,1743496652540,11.8262588069428,46.3775490349283,34.19856,1908.048,4.87955693632,1
2025-04-01T10:37:32.650,1743496652650,11.8262634015531,46.3775459765457,34.19856,1908.048,4.87955693632,1
2025-04-01T10:37:32.750,1743496652750,11.8262680741497,46.3775428462222,34.29,1908.048,4.95177535424,1
2025-04-01T10:37:32.850,1743496652850,11.8262727199067,46.377539613948,34.29,1908.048,4.95177535424,1
2025-04-01T10:37:32.950,1743496652950,11.8262774001753,46.3775364711547,34.29,1908.048,4.95177535424,1
2025-04-01T10:37:33.050,1743496653050,11.8262822585386,46.3775331898237,34.29,1908.048,4.95177535424,1
2025-04-01T10:37:33.150,1743496653150,11.8262869617487,46.377530031683,34.29,1908.048,4.95177535424,1
2025-04-01T10:37:33.250,1743496653250,11.8262913313633,46.3775271071792,34.29,1908.048,4.87955693632,1
2025-04-01T10:37:33.360,1743496653360,11.8262959803232,46.3775239904217,34.29,1908.048,4.87955693632,1
2025-04-01T10:37:33.460,1743496653460,11.8263003961436,46.3775208546169,34.29,1908.048,4.87955693632,1
2025-04-01T10:37:33.560,1743496653560,11.8263050077615,46.3775177456702,34.38144,1908.048,4.87955693632,1
2025-04-01T10:37:33.650,1743496653650,11.8263096297576,46.3775145980808,34.38144,1908.048,4.87955693632,1
2025-04-01T10:37:33.760,1743496653760,11.8263142477315,46.3775114880378,34.38144,1908.048,4.87955693632,1
2025-04-01T10:37:33.860,1743496653860,11.8263189641007,46.3775082946803,34.38144,1908.048,4.87955693632,1
2025-04-01T10:37:33.960,1743496653960,11.8263236148482,46.3775051740859,34.38144,1908.048,4.87955693632,1
2025-04-01T10:37:34.070,1743496654070,11.8263283636931,46.3775021217327,34.38144,1908.048,4.95177535424,1
2025-04-01T10:37:34.170,1743496654170,11.8263330403615,46.3774990051122,34.38144,1908.048,4.95177535424,1
2025-04-01T10:37:34.270,1743496654270,11.8263375833038,46.3774957809228,34.47288,1908.3528,4.95177535424,1
2025-04-01T10:37:34.370,1743496654370,11.8263422342003,46.3774926538881,34.47288,1908.3528,4.87955693632,1
2025-04-01T10:37:34.470,1743496654470,11.8263468705721,46.3774895286347,34.47288,1908.3528,4.87955693632,1
2025-04-01T10:37:34.580,1743496654580,11.8263510857784,46.377486744039,34.47288,1908.3528,4.87955693632,1
2025-04-01T10:37:34.680,1743496654680,11.8263560763037,46.377483283061,34.47288,1908.3528,4.87955693632,1
2025-04-01T10:37:34.780,1743496654780,11.8263606964377,46.377480164248,34.47288,1908.3528,4.87955693632,1
2025-04-01T10:37:34.880,1743496654880,11.8263653677432,46.3774769702054,34.47288,1908.3528,4.87955693632,1
2025-04-01T10:37:34.980,1743496654980,11.8263700087083,46.3774738415262,34.5948,1908.3528,4.87955693632,1
2025-04-01T10:37:35.080,1743496655080,11.8263747279328,46.377470640769,34.5948,1908.3528,4.87955693632,1
2025-04-01T10:37:35.150,1743496655150,11.8263793684013,46.377467499346,34.5948,1908.3528,4.87955693632,1
2025-04-01T10:37:35.250,1743496655250,11.8263840383909,46.3774644337009,34.5948,1908.3528,4.87955693632,1
2025-04-01T10:37:35.350,1743496655350,11.8263886711875,46.3774612904965,34.5948,1908.3528,4.87955693632,1
2025-04-01T10:37:35.450,1743496655450,11.8263933061192,46.3774580708291,34.5948,1908.3528,4.87955693632,1
2025-04-01T10:37:35.550,1743496655550,11.8263979350922,46.3774549185807,34.5948,1908.3528,4.87955693632,1
2025-04-01T10:37:35.650,1743496655650,11.8264024559123,46.3774517522182,34.5948,1908.3528,4.87955693632,1
2025-04-01T10:37:35.750,1743496655750,11.8264070864246,46.3774485957219,34.5948,1908.3528,4.87955693632,1
2025-04-01T10:37:35.850,1743496655850,11.8264117287552,46.3774454479955,34.5948,1908.3528,4.87955693632,1
2025-04-01T10:37:35.950,1743496655950,11.8264160980719,46.3774427332853,34.5948,1908.3528,4.95177535424,1
2025-04-01T10:37:36.050,1743496656050,11.8264212292257,46.3774393099907,34.68624,1908.3528,4.95177535424,1
2025-04-01T10:37:36.150,1743496656150,11.8264259287612,46.3774361604829,34.68624,1908.3528,4.95177535424,1
2025-04-01T10:37:36.250,1743496656250,11.8264306061994,46.3774328379057,34.68624,1908.3528,4.95177535424,1
2025-04-01T10:37:36.350,1743496656350,11.8264353038975,46.3774296623621,34.68624,1908.3528,4.95177535424,1
2025-04-01T10:37:36.450,1743496656450,11.8264399945444,46.3774264859964,34.68624,1908.3528,5.02096418208,1
2025-04-01T10:37:36.550,1743496656550,11.8264443399761,46.37742357684,34.68624,1908.3528,5.02096418208,1
2025-04-01T10:37:36.650,1743496656650,11.8264492562643,46.3774202023282,34.68624,1908.3528,4.87955693632,1
2025-04-01T10:37:36.750,1743496656750,11.8264539082781,46.3774170487095,34.68624,1908.3528,4.87955693632,1
2025-04-01T10:37:36.850,1743496656850,11.8264585583552,46.377413895913,34.68624,1908.3528,4.87955693632,1
2025-04-01T10:37:36.950,1743496656950,11.8264628726023,46.3774109174192,34.68624,1908.3528,4.87955693632,1
2025-04-01T10:37:37.020,1743496657020,11.826467883487,46.3774076767862,34.68624,1908.3528,4.87955693632,1
2025-04-01T10:37:37.150,1743496657150,11.826472544439,46.3774045179603,34.77768,1908.6576,4.94975562752,1
2025-04-01T10:37:37.250,1743496657250,11.8264771947148,46.3774013289878,34.77768,1908.6576,4.94975562752,1
2025-04-01T10:37:37.350,1743496657350,11.8264818525384,46.37739817071,34.77768,1908.6576,4.94975562752,1
2025-04-01T10:37:37.420,1743496657420,11.8264866349514,46.3773950213393,34.77768,1908.6576,4.87955693632,1
2025-04-01T10:37:37.550,1743496657550,11.8264912830423,46.377391878272,34.77768,1908.6576,4.87955693632,1
2025-04-01T10:37:37.630,1743496657630,11.8264958563001,46.377388777684,34.77768,1908.6576,4.87955693632,1
2025-04-01T10:37:37.730,1743496657730,11.8265004807046,46.3773856469494,34.77768,1908.6576,4.87955693632,1
2025-04-01T10:37:37.830,1743496657830,11.8265050942342,46.3773825148445,34.77768,1908.6576,4.87955693632,1
2025-04-01T10:37:37.950,1743496657950,11.8265093123951,46.3773796476194,34.77768,1908.6576,4.87955693632,1
2025-04-01T10:37:38.040,1743496658040,11.8265143762638,46.3773761675942,34.77768,1908.6576,4.94975562752,1
2025-04-01T10:37:38.150,1743496658150,11.8265190055843,46.3773730005465,34.77768,1908.6576,4.94975562752,1
2025-04-01T10:37:38.240,1743496658240,11.8265240545062,46.3773697251078,34.77768,1908.6576,4.94975562752,1
2025-04-01T10:37:38.340,1743496658340,11.8265286987239,46.3773665636783,34.77768,1908.6576,4.87955693632,1
2025-04-01T10:37:38.450,1743496658450,11.8265328061,46.3773637389327,34.77768,1908.6576,4.87955693632,1
2025-04-01T10:37:38.550,1743496658550,11.8265373912259,46.3773606414965,34.77768,1908.6576,4.87955693632,1
2025-04-01T10:37:38.650,1743496658650,11.8265419409463,46.3773575644778,34.77768,1908.6576,4.87955693632,1
2025-04-01T10:37:38.750,1743496658750,11.8265465221492,46.377354464164,34.8996,1908.6576,4.87955693632,1
2025-04-01T10:37:38.860,1743496658860,11.8265509674411,46.3773512665585,34.8996,1908.6576,4.80833407648,1
2025-04-01T10:37:38.960,1743496658960,11.8265555004271,46.3773481484307,34.8996,1908.6576,4.80833407648,1
2025-04-01T10:37:39.060,1743496659060,11.8265601001521,46.3773450378396,34.8996,1908.6576,4.80833407648,1
2025-04-01T10:37:39.170,1743496659170,11.8265646238523,46.3773419046384,34.8996,1908.6576,4.80833407648,1
2025-04-01T10:37:39.270,1743496659270,11.8265689672976,46.3773386211148,34.8996,1908.6576,4.80833407648,1
2025-04-01T10:37:39.370,1743496659370,11.826573464183,46.37733547147,34.8996,1908.6576,4.80833407648,1
2025-04-01T10:37:39.470,1743496659470,11.8265780570057,46.3773324150059,34.8996,1908.6576,4.80833407648,1
2025-04-01T10:37:39.580,1743496659580,11.8265825575657,46.3773292709794,34.8996,1908.6576,4.80833407648,1
2025-04-01T10:37:39.680,1743496659680,11.8265870127393,46.3773262383585,34.8996,1908.6576,4.80833407648,1
2025-04-01T10:37:39.780,1743496659780,11.8265915135476,46.3773231096794,34.8996,1908.6576,4.80833407648,1
2025-04-01T10:37:39.890,1743496659890,11.8265960161436,46.3773199990883,34.8996,1908.6576,4.80833407648,1
2025-04-01T10:37:39.950,1743496659950,11.8266001472557,46.3773170944539,34.8996,1908.6576,4.80833407648,1
2025-04-01T10:37:40.050,1743496660050,11.8266050410989,46.3773136977432,34.8996,1908.6576,4.80833407648,1
2025-04-01T10:37:40.150,1743496660150,11.826609529642,46.3773105813968,34.99104,1908.6576,4.80833407648,1
2025-04-01T10:37:40.250,1743496660250,11.8266139805947,46.3773073889984,34.99104,1908.6576,4.80833407648,1
2025-04-01T10:37:40.350,1743496660350,11.8266184518571,46.3773042426424,34.99104,1908.6576,4.80833407648,1
2025-04-01T10:37:40.450,1743496660450,11.8266229373711,46.3773010886126,34.99104,1908.6576,4.80833407648,1
2025-04-01T10:37:40.550,1743496660550,11.8266272374659,46.3772982153582,34.99104,1908.6576,4.87955693632,1
2025-04-01T10:37:40.650,1743496660650,11.8266322020206,46.3772947005272,34.99104,1908.6576,4.87955693632,1
2025-04-01T10:37:40.750,1743496660750,11.8266367748315,46.3772914820931,34.99104,1908.6576,4.94975562752,1
2025-04-01T10:37:40.850,1743496660850,11.8266417037325,46.377288191718,34.99104,1908.6576,4.94975562752,1
2025-04-01T10:37:40.950,1743496660950,11.8266463762049,46.3772849604031,34.99104,1908.6576,4.94975562752,1
2025-04-01T10:37:41.050,1743496661050,11.8266506476477,46.377282025759,34.99104,1908.6576,4.87955693632,1
2025-04-01T10:37:41.150,1743496661150,11.8266552813381,46.3772788848842,34.8996,1908.6576,4.87955693632,1
2025-04-01T10:37:41.250,1743496661250,11.8266598899517,46.3772758130727,34.8996,1908.6576,4.87955693632,1
2025-04-01T10:37:41.350,1743496661350,11.82666447761,46.3772726848046,34.99104,1908.6576,4.87955693632,1
2025-04-01T10:37:41.450,1743496661450,11.8266690917852,46.3772692734316,34.99104,1908.6576,4.94975562752,1
2025-04-01T10:37:41.510,1743496661510,11.8266736578428,46.3772660793889,34.99104,1908.6576,4.94975562752,1
2025-04-01T10:37:41.650,1743496661650,11.8266783167589,46.3772629916819,34.99104,1908.6576,4.94975562752,1
2025-04-01T10:37:41.750,1743496661750,11.8266828785956,46.3772597985984,34.99104,1908.6576,4.87955693632,1
2025-04-01T10:37:41.820,1743496661820,11.8266874358142,46.3772566108591,34.99104,1908.6576,4.94975562752,1
2025-04-01T10:37:41.950,1743496661950,11.826691657749,46.3772535872823,34.99104,1908.6576,4.87955693632,1
2025-04-01T10:37:42.020,1743496662020,11.8266965258202,46.3772502499058,34.99104,1908.6576,4.87955693632,1
2025-04-01T10:37:42.120,1743496662120,11.8267010817478,46.3772470455858,34.99104,1908.6576,4.87955693632,1
2025-04-01T10:37:42.250,1743496662250,11.8267056194512,46.3772437723396,34.99104,1908.6576,4.94975562752,1
2025-04-01T10:37:42.330,1743496662330,11.8267101813376,46.3772405463688,34.99104,1908.6576,4.94975562752,1
2025-04-01T10:37:42.450,1743496662450,11.8267147467496,46.3772373228646,34.99104,1908.6576,4.94975562752,1
2025-04-01T10:37:42.550,1743496662550,11.8267189450973,46.3772343420413,34.99104,1908.6576,4.94975562752,1
2025-04-01T10:37:42.630,1743496662630,11.8267239153129,46.3772307469105,34.99104,1908.6576,4.94975562752,1
2025-04-01T10:37:42.750,1743496662750,11.8267285589843,46.3772275201175,34.99104,1908.6576,4.94975562752,1
2025-04-01T10:37:42.840,1743496662840,11.8267332396501,46.3772243022316,35.08248,1908.9624,4.94975562752,1
2025-04-01T10:37:42.940,1743496662940,11.8267376594183,46.3772213172973,35.08248,1908.9624,5.02096418208,1
2025-04-01T10:37:43.040,1743496663040,11.8267427139514,46.3772179459373,35.08248,1908.9624,5.02096418208,1
2025-04-01T10:37:43.140,1743496663140,11.8267474058894,46.3772147455912,35.08248,1908.9624,4.94975562752,1
2025-04-01T10:37:43.240,1743496663240,11.8267519919091,46.3772114379503,35.08248,1908.9624,4.94975562752,1
2025-04-01T10:37:43.340,1743496663340,11.8267566465547,46.3772082344525,35.08248,1908.9624,4.94975562752,1
2025-04-01T10:37:43.450,1743496663450,11.8267613331297,46.3772050802857,34.99104,1908.6576,4.94975562752,1
2025-04-01T10:37:43.550,1743496663550,11.826766025018,46.3772019236523,34.99104,1908.6576,4.87955693632,1
2025-04-01T10:37:43.650,1743496663650,11.8267708262013,46.377198794425,34.99104,1908.6576,4.95177535424,1
2025-04-01T10:37:43.750,1743496663750,11.826775539889,46.3771956494393,34.99104,1908.6576,4.95177535424,1
2025-04-01T10:37:43.850,1743496663850,11.8267802447378,46.3771925032202,34.99104,1908.6576,4.95177535424,1
2025-04-01T10:37:43.950,1743496663950,11.8267844434332,46.3771895688502,34.99104,1908.6576,4.87955693632,1
2025-04-01T10:37:44.050,1743496664050,11.826789528406,46.3771861299341,34.99104,1908.6576,4.87955693632,1
2025-04-01T10:37:44.160,1743496664160,11.8267942125479,46.3771829508278,34.99104,1908.6576,4.87955693632,1
2025-04-01T10:37:44.260,1743496664260,11.8267987422565,46.3771797751472,34.99104,1908.6576,4.94975562752,1
2025-04-01T10:37:44.360,1743496664360,11.8268034037548,46.3771765719235,34.99104,1908.6576,4.94975562752,1
2025-04-01T10:37:44.460,1743496664460,11.8268080684311,46.3771733713033,34.99104,1908.6576,4.94975562752,1
2025-04-01T10:37:44.560,1743496664560,11.8268122795407,46.3771705129852,34.99104,1908.6576,4.94975562752,1
2025-04-01T10:37:44.670,1743496664670,11.8268169266384,46.3771673451154,34.99104,1908.6576,4.94975562752,1
2025-04-01T10:37:44.770,1743496664770,11.8268216537831,46.377164107634,34.99104,1908.6576,5.02096418208,1
2025-04-01T10:37:44.870,1743496664870,11.826826344579,46.3771609038622,34.99104,1908.6576,5.02096418208,1
2025-04-01T10:37:44.970,1743496664970,11.8268310793709,46.3771577551766,34.99104,1908.6576,5.02096418208,1
2025-04-01T10:37:45.070,1743496665070,11.8268362288979,46.3771541767635,34.99104,1908.6576,5.09117717856,1
2025-04-01T10:37:45.170,1743496665170,11.8268409345909,46.3771509050246,34.99104,1908.6576,5.02096418208,1
2025-04-01T10:37:45.280,1743496665280,11.8268454159336,46.3771476510996,35.08248,1908.9624,4.94975562752,1
2025-04-01T10:37:45.380,1743496665380,11.8268501022604,46.3771444056705,35.08248,1908.9624,4.94975562752,1
2025-04-01T10:37:45.480,1743496665480,11.8268547994123,46.3771411775072,35.08248,1908.9624,4.94975562752,1
2025-04-01T10:37:45.580,1743496665580,11.8268594942801,46.3771379253636,35.08248,1908.9624,4.94975562752,1
2025-04-01T10:37:45.680,1743496665680,11.8268640789093,46.3771348106616,35.08248,1908.9624,5.02096418208,1
2025-04-01T10:37:45.780,1743496665780,11.8268687515308,46.3771315382375,35.08248,1908.9624,5.02096418208,1
2025-04-01T10:37:45.890,1743496665890,11.8268734154126,46.3771282645801,35.08248,1908.9624,5.02096418208,1
2025-04-01T10:37:45.950,1743496665950,11.8268775791494,46.3771251889318,35.08248,1908.9624,5.02096418208,1
2025-04-01T10:37:46.050,1743496666050,11.8268829140954,46.3771214525226,35.08248,1908.9624,5.02096418208,1
2025-04-01T10:37:46.150,1743496666150,11.826887609559,46.3771181739321,35.17392,1908.9624,4.94975562752,1
2025-04-01T10:37:46.250,1743496666250,11.826891864764,46.3771151515886,35.17392,1908.9624,4.94975562752,1
2025-04-01T10:37:46.350,1743496666350,11.8268965228856,46.3771119120518,35.17392,1908.9624,4.94975562752,1
2025-04-01T10:37:46.450,1743496666450,11.8269011610451,46.3771086764889,35.17392,1908.9624,4.94975562752,1
2025-04-01T10:37:46.550,1743496666550,11.8269054011543,46.377105787613,35.17392,1908.9624,4.94975562752,1
2025-04-01T10:37:46.650,1743496666650,11.826909959664,46.3771026085067,35.17392,1908.9624,4.94975562752,1
2025-04-01T10:37:46.750,1743496666750,11.8269145763717,46.3770993388232,35.17392,1908.9624,4.87955693632,1
2025-04-01T10:37:46.850,1743496666850,11.8269196306565,46.3770959053883,35.17392,1908.9624,4.87955693632,1
2025-04-01T10:37:46.950,1743496666950,11.8269242815282,46.3770927854791,35.17392,1908.9624,4.87955693632,1
2025-04-01T10:37:47.050,1743496667050,11.8269289066776,46.3770896499485,35.17392,1908.9624,4.87955693632,1
2025-04-01T10:37:47.150,1743496667150,11.8269335153408,46.3770865722446,35.17392,1908.9624,4.81041325952,1
2025-04-01T10:37:47.250,1743496667250,11.826938156877,46.3770835292095,35.17392,1908.9624,4.81041325952,1
2025-04-01T10:37:47.350,1743496667350,11.8269427064485,46.3770804743898,35.17392,1908.9624,4.73815058464,1
2025-04-01T10:37:47.450,1743496667450,11.8269471313809,46.3770773676355,35.17392,1908.9624,4.80833407648,1
2025-04-01T10:37:47.550,1743496667550,11.826951718791,46.3770742590998,35.17392,1908.9624,4.87955693632,1
2025-04-01T10:37:47.650,1743496667650,11.8269564491137,46.3770712590922,35.17392,1908.9624,4.94975562752,1
2025-04-01T10:37:47.720,1743496667720,11.826961130872,46.3770681013626,35.17392,1908.9624,5.02096418208,1
2025-04-01T10:37:47.850,1743496667850,11.8269658284212,46.3770649380148,35.17392,1908.9624,5.02096418208,1
2025-04-01T10:37:47.950,1743496667950,11.8269701116327,46.3770619270448,35.17392,1908.9624,4.95177535424,1
2025-04-01T10:37:48.050,1743496668050,11.8269751092093,46.3770585171791,35.17392,1908.9624,4.95177535424,1
2025-04-01T10:37:48.150,1743496668150,11.8269798306932,46.3770553768524,35.17392,1908.9624,4.95177535424,1
2025-04-01T10:37:48.230,1743496668230,11.8269844563391,46.3770522036383,35.17392,1908.9624,4.95177535424,1
2025-04-01T10:37:48.330,1743496668330,11.8269891610389,46.3770490835921,35.17392,1908.9624,4.95177535424,1
2025-04-01T10:37:48.450,1743496668450,11.8269938499478,46.3770459751935,35.29584,1908.9624,4.95177535424,1
2025-04-01T10:37:48.550,1743496668550,11.826998161861,46.3770431438704,35.29584,1908.9624,4.95177535424,1
2025-04-01T10:37:48.630,1743496668630,11.8270037395303,46.3770395576466,35.29584,1908.9624,4.95177535424,1
2025-04-01T10:37:48.740,1743496668740,11.8270085239792,46.3770364018354,35.29584,1908.9624,4.95177535424,1
2025-04-01T10:37:48.850,1743496668850,11.8270133274964,46.3770332373913,35.29584,1908.9624,4.95177535424,1
2025-04-01T10:37:48.940,1743496668940,11.8270172445374,46.3770306401162,35.29584,1908.9624,4.95177535424,1
2025-04-01T10:37:49.040,1743496669040,11.8270224910941,46.3770272714967,35.29584,1908.9624,4.95177535424,1
2025-04-01T10:37:49.140,1743496669140,11.8270272455502,46.3770241399399,35.29584,1908.9624,4.95177535424,1
2025-04-01T10:37:49.250,1743496669250,11.8270319383323,46.3770209839917,35.29584,1908.9624,4.95177535424,1
2025-04-01T10:37:49.350,1743496669350,11.8270366600149,46.3770178627122,35.29584,1908.9624,4.95177535424,1
2025-04-01T10:37:49.450,1743496669450,11.82704134078,46.3770147319776,35.29584,1908.9624,4.95177535424,1
2025-04-01T10:37:49.550,1743496669550,11.8270460543188,46.377011619468,35.29584,1908.9624,4.95177535424,1
2025-04-01T10:37:49.650,1743496669650,11.8270508149323,46.3770086047982,35.29584,1908.9624,4.95177535424,1
2025-04-01T10:37:49.750,1743496669750,11.8270555483339,46.3770055011956,35.17392,1908.9624,4.95177535424,1
2025-04-01T10:37:49.860,1743496669860,11.8270602847148,46.3770023966338,35.17392,1908.9624,4.95177535424,1
2025-04-01T10:37:49.960,1743496669960,11.8270645738851,46.3769996173823,35.17392,1908.9624,4.95177535424,1
2025-04-01T10:37:50.060,1743496670060,11.8270696287659,46.3769961287242,35.17392,1908.9624,4.95177535424,1
2025-04-01T10:37:50.160,1743496670160,11.8270743108222,46.3769930040189,35.17392,1908.9624,4.87955693632,1
2025-04-01T10:37:50.260,1743496670260,11.8270790113509,46.3769899212449,35.17392,1908.9624,4.87955693632,1
2025-04-01T10:37:50.370,1743496670370,11.8270836147505,46.3769867929769,35.17392,1908.9624,4.87955693632,1
2025-04-01T10:37:50.470,1743496670470,11.8270881816026,46.3769836597757,35.17392,1908.9624,4.80833407648,1
2025-04-01T10:37:50.570,1743496670570,11.8270923008468,46.3769807950172,35.17392,1908.9624,4.80833407648,1
2025-04-01T10:37:50.670,1743496670670,11.82709725115,46.3769774496929,35.17392,1908.9624,4.80833407648,1
2025-04-01T10:37:50.770,1743496670770,11.8271017583144,46.376974326495,35.17392,1908.9624,4.80833407648,1
2025-04-01T10:37:50.870,1743496670870,11.8271062302224,46.3769712133003,35.17392,1908.9624,4.80833407648,1
2025-04-01T10:37:50.980,1743496670980,11.8271103935619,46.3769684540552,35.29584,1908.9624,4.80833407648,1
2025-04-01T10:37:51.080,1743496671080,11.8271152720611,46.3769651281892,35.29584,1908.9624,4.80833407648,1
2025-04-01T10:37:51.180,1743496671180,11.8271197577737,46.3769620387008,35.29584,1908.9624,4.80833407648,1
2025-04-01T10:37:51.280,1743496671280,11.8271244842233,46.3769587033797,35.29584,1908.9624,4.80833407648,1
2025-04-01T10:37:51.380,1743496671380,11.8271290163154,46.3769555831964,35.29584,1908.9624,4.80833407648,1
2025-04-01T10:37:51.490,1743496671490,11.8271330897759,46.3769527480365,35.29584,1908.9624,4.80833407648,1
2025-04-01T10:37:51.550,1743496671550,11.8271375713173,46.3769496412822,35.29584,1908.9624,4.80833407648,1
2025-04-01T10:37:51.650,1743496671650,11.8271421018205,46.3769465134252,35.29584,1908.9624,4.80833407648,1
2025-04-01T10:37:51.750,1743496671750,11.8271465781976,46.3769433881718,35.29584,1908.9624,4.80833407648,1
2025-04-01T10:37:51.850,1743496671850,11.8271510485165,46.3769402435972,35.29584,1908.9624,4.80833407648,1
2025-04-01T10:37:51.950,1743496671950,11.8271550162076,46.376937510799,35.29584,1908.9624,4.80833407648,1
2025-04-01T10:37:52.050,1743496672050,11.8271599549903,46.3769340435176,35.29584,1908.9624,4.87955693632,1
2025-04-01T10:37:52.150,1743496672150,11.8271644509323,46.3769308745515,35.29584,1908.9624,4.87955693632,1
2025-04-01T10:37:52.250,1743496672250,11.8271689006932,46.3769277734154,35.29584,1908.9624,4.87955693632,1
2025-04-01T10:37:52.350,1743496672350,11.8271734292101,46.3769246048604,35.29584,1908.9624,4.87955693632,1
2025-04-01T10:37:52.450,1743496672450,11.8271779750076,46.3769214302761,35.29584,1908.9624,4.87955693632,1
2025-04-01T10:37:52.550,1743496672550,11.8271822458048,46.3769185324932,35.29584,1908.9624,4.94975562752,1
2025-04-01T10:37:52.650,1743496672650,11.8271871761458,46.3769150213621,35.29584,1908.9624,4.87955693632,1
2025-04-01T10:37:52.750,1743496672750,11.8271917884837,46.3769118850092,35.29584,1908.9624,4.87955693632,1
2025-04-01T10:37:52.850,1743496672850,11.8271964020133,46.3769088860979,35.29584,1908.9624,4.87955693632,1
2025-04-01T10:37:52.950,1743496672950,11.827201015245,46.3769057822213,35.29584,1908.9624,4.87955693632,1
2025-04-01T10:37:53.050,1743496673050,11.8272055096972,46.3769027147947,35.29584,1908.9624,4.87955693632,1
2025-04-01T10:37:53.120,1743496673120,11.8272101124016,46.3768996128365,35.29584,1908.9624,4.87955693632,1
2025-04-01T10:37:53.250,1743496673250,11.8272147006062,46.3768964322228,35.29584,1908.9624,4.87955693632,1
2025-04-01T10:37:53.350,1743496673350,11.8272193255569,46.3768932831261,35.29584,1908.9624,4.87955693632,1
2025-04-01T10:37:53.420,1743496673420,11.8272241269885,46.3768901174487,35.29584,1908.9624,4.94975562752,1
2025-04-01T10:37:53.550,1743496673550,11.8272288432087,46.3768868842153,35.29584,1908.9624,5.02096418208,1
2025-04-01T10:37:53.650,1743496673650,11.8272335392681,46.3768834986041,35.29584,1908.9624,5.09117717856,1
2025-04-01T10:37:53.750,1743496673750,11.8272383505318,46.3768801806859,35.29584,1908.9624,5.16237232192,1
2025-04-01T10:37:53.830,1743496673830,11.8272436356222,46.3768765859662,35.29584,1908.9624,5.2325987296,1
2025-04-01T10:37:53.950,1743496673950,11.8272485159091,46.3768732013141,35.29584,1908.9624,5.2325987296,1
2025-04-01T10:37:54.050,1743496674050,11.8272529034995,46.3768702278905,35.29584,1908.9624,5.2325987296,1
2025-04-01T10:37:54.140,1743496674140,11.8272577324411,46.3768668942138,35.29584,1908.9624,5.16237232192,1
2025-04-01T10:37:54.240,1743496674240,11.8272624756747,46.3768635402566,35.29584,1908.9624,5.16237232192,1
2025-04-01T10:37:54.340,1743496674340,11.8272672858459,46.3768602450854,35.29584,1908.9624,5.09117717856,1
2025-04-01T10:37:54.450,1743496674450,11.8272720787365,46.3768569763612,35.29584,1908.9624,5.09117717856,1
2025-04-01T10:37:54.550,1743496674550,11.8272763719787,46.3768538776917,35.29584,1908.9624,5.02096418208,1
2025-04-01T10:37:54.650,1743496674650,11.8272816638226,46.3768504668668,35.29584,1908.9624,5.02096418208,1
2025-04-01T10:37:54.750,1743496674750,11.8272864200663,46.3768472847458,35.29584,1908.9624,5.02096418208,1
2025-04-01T10:37:54.850,1743496674850,11.8272911552555,46.3768440606935,35.29584,1908.9624,5.02096418208,1
2025-04-01T10:37:54.960,1743496674960,11.8272958542945,46.3768409180372,35.29584,1908.9624,4.95177535424,1
2025-04-01T10:37:55.060,1743496675060,11.8273004455778,46.3768376928886,35.29584,1908.9624,4.87955693632,1
2025-04-01T10:37:55.160,1743496675160,11.8273050807579,46.3768345540692,35.29584,1908.9624,4.87955693632,1
2025-04-01T10:37:55.260,1743496675260,11.8273097720503,46.3768314766395,35.29584,1908.9624,4.87955693632,1
2025-04-01T10:37:55.360,1743496675360,11.8273144001791,46.3768283633077,35.29584,1908.9624,4.87955693632,1
2025-04-01T10:37:55.460,1743496675460,11.8273189744797,46.3768252179108,35.29584,1908.9624,4.87955693632,1
2025-04-01T10:37:55.570,1743496675570,11.8273235909888,46.3768221178711,35.29584,1908.9624,4.87955693632,1
2025-04-01T10:37:55.670,1743496675670,11.827328208193,46.3768190318084,35.29584,1908.9624,4.87955693632,1
2025-04-01T10:37:55.770,1743496675770,11.8273326822859,46.3768161725311,35.29584,1908.9624,4.87955693632,1
2025-04-01T10:37:55.870,1743496675870,11.8273376168974,46.3768129112064,35.29584,1908.9624,4.87955693632,1
2025-04-01T10:37:55.980,1743496675980,11.8273422796868,46.3768098603606,35.29584,1908.9624,4.87955693632,1
2025-04-01T10:37:56.080,1743496676080,11.8273468493196,46.3768067941673,35.29584,1908.9624,4.87955693632,1
2025-04-01T10:37:56.180,1743496676180,11.8273515078385,46.376803754695,35.29584,1908.9624,4.81041325952,1
2025-04-01T10:37:56.280,1743496676280,11.827356347208,46.3768006023096,35.29584,1908.9624,4.81041325952,1
2025-04-01T10:37:56.390,1743496676390,11.8273610254903,46.3767975692777,35.29584,1908.9624,4.81041325952,1
2025-04-01T10:37:56.450,1743496676450,11.8273656438863,46.3767945713256,35.29584,1908.9624,4.81041325952,1
2025-04-01T10:37:56.550,1743496676550,11.8273703195864,46.3767915519967,35.29584,1908.9624,4.81041325952,1
2025-04-01T10:37:56.650,1743496676650,11.8273750029338,46.3767885365047,35.29584,1908.9624,4.88365405792,1
2025-04-01T10:37:56.750,1743496676750,11.8273794124725,46.3767859046979,35.29584,1908.9624,4.88365405792,1
2025-04-01T10:37:56.850,1743496676850,11.8273844559322,46.3767825726656,35.29584,1908.9624,4.88365405792,1
2025-04-01T10:37:56.950,1743496676950,11.827389204926,46.3767795673139,35.29584,1908.9624,4.88365405792,1
2025-04-01T10:37:57.050,1743496677050,11.8273939930495,46.3767766360956,35.29584,1908.9624,4.88365405792,1
2025-04-01T10:37:57.150,1743496677150,11.8273987550535,46.376773645132,35.29584,1908.9624,4.88365405792,1
2025-04-01T10:37:57.250,1743496677250,11.8274035726732,46.3767705333076,35.29584,1908.9624,4.81664544416,1
2025-04-01T10:37:57.350,1743496677350,11.8274083528517,46.3767675459068,35.17392,1908.9624,4.81664544416,1
2025-04-01T10:37:57.450,1743496677450,11.8274131005544,46.3767645898861,35.17392,1908.9624,4.81664544416,1
2025-04-01T10:37:57.550,1743496677550,11.8274178832157,46.376761610159,35.17392,1908.9624,4.81664544416,1
2025-04-01T10:37:57.650,1743496677650,11.8274224518554,46.3767586237174,35.17392,1908.9624,4.81664544416,1
2025-04-01T10:37:57.750,1743496677750,11.8274272168388,46.376755651253,35.17392,1908.9624,4.81664544416,1
2025-04-01T10:37:57.850,1743496677850,11.8274319392165,46.3767527804651,35.17392,1908.9624,4.81664544416,1
2025-04-01T10:37:57.950,1743496677950,11.8274367015184,46.3767498281442,35.17392,1908.9624,4.81664544416,1
2025-04-01T10:37:58.050,1743496678050,11.8274414351186,46.3767467997713,35.17392,1908.9624,4.81664544416,1
2025-04-01T10:37:58.150,1743496678150,11.8274462077491,46.3767438430654,35.17392,1908.9624,4.81664544416,1
2025-04-01T10:37:58.250,1743496678250,11.8274511105802,46.3767407992081,35.17392,1908.9624,4.81664544416,1
2025-04-01T10:37:58.320,1743496678320,11.8274559028749,46.3767378208513,35.17392,1908.9624,4.81664544416,1
2025-04-01T10:37:58.420,1743496678420,11.8274606925875,46.376734831258,35.17392,1908.9624,4.81664544416,1
2025-04-01T10:37:58.550,1743496678550,11.8274650041034,46.3767321318953,35.17392,1908.9624,4.88365405792,1
2025-04-01T10:37:58.650,1743496678650,11.8274701149972,46.3767287931484,35.17392,1908.9624,4.81664544416,1
2025-04-01T10:37:58.750,1743496678750,11.827474932617,46.3767257984851,35.17392,1908.9624,4.8918380192,1
2025-04-01T10:37:58.830,1743496678830,11.8274798282975,46.3767228169766,35.08248,1908.9624,4.8918380192,1
2025-04-01T10:37:58.950,1743496678950,11.8274846814716,46.3767198316313,35.08248,1908.9624,4.8918380192,1
2025-04-01T10:37:59.050,1743496679050,11.8274899119394,46.376716769686,35.08248,1908.9624,4.8918380192,1
2025-04-01T10:37:59.140,1743496679140,11.8274948220204,46.3767137746115,35.08248,1908.9624,4.8918380192,1
2025-04-01T10:37:59.250,1743496679250,11.827499314685,46.3767109970044,35.08248,1908.9624,4.8918380192,1
2025-04-01T10:37:59.340,1743496679340,11.8275041953691,46.3767080335839,35.08248,1908.9624,4.8918380192,1
2025-04-01T10:37:59.450,1743496679450,11.8275091915553,46.3767050086368,35.08248,1908.9624,4.8918380192,1
2025-04-01T10:37:59.550,1743496679550,11.8275141014377,46.3767020439831,34.99104,1908.6576,4.8918380192,1
2025-04-01T10:37:59.650,1743496679650,11.8275190703126,46.3766990302725,34.99104,1908.6576,4.8918380192,1
2025-04-01T10:37:59.750,1743496679750,11.8275240262767,46.3766960691816,34.99104,1908.6576,4.96790500448,1
2025-04-01T10:37:59.850,1743496679850,11.8275291416396,46.3766931981197,34.99104,1908.6576,4.96790500448,1
2025-04-01T10:37:59.950,1743496679950,11.8275341348464,46.3766902596388,34.99104,1908.6576,4.96790500448,1
2025-04-01T10:38:00.050,1743496680050,11.8275391421558,46.3766873728184,34.99104,1908.6576,4.96790500448,1
2025-04-01T10:38:00.160,1743496680160,11.8275441295031,46.3766844402298,34.8996,1908.6576,4.96790500448,1
2025-04-01T10:38:00.260,1743496680260,11.8275491582643,46.3766814999675,34.8996,1908.6576,4.96790500448,1
2025-04-01T10:38:00.360,1743496680360,11.8275541463068,46.3766785710787,34.8996,1908.6576,4.96790500448,1
2025-04-01T10:38:00.460,1743496680460,11.8275591532189,46.3766756497266,34.8996,1908.6576,4.96790500448,1
2025-04-01T10:38:00.550,1743496680550,11.8275637854195,46.3766729469381,34.8996,1908.6576,4.96790500448,1
2025-04-01T10:38:00.660,1743496680660,11.8275687891536,46.3766700655989,34.8996,1908.6576,4.96790500448,1
2025-04-01T10:38:00.750,1743496680750,11.8275739221944,46.3766669522672,34.8996,1908.6576,4.96790500448,1
2025-04-01T10:38:00.870,1743496680870,11.8275793487079,46.3766637611021,34.77768,1908.6576,4.96790500448,1
2025-04-01T10:38:00.970,1743496680970,11.8275843942532,46.3766608370094,34.77768,1908.6576,4.96790500448,1
2025-04-01T10:38:01.070,1743496681070,11.827589452014,46.3766579775951,34.77768,1908.6576,4.96790500448,1
2025-04-01T10:38:01.170,1743496681170,11.8275944862375,46.3766550815936,34.77768,1908.6576,4.96790500448,1
2025-04-01T10:38:01.270,1743496681270,11.827599663473,46.3766522558888,34.77768,1908.6576,4.90408780928,1
2025-04-01T10:38:01.370,1743496681370,11.827604688659,46.3766493866083,34.77768,1908.6576,4.90408780928,1
2025-04-01T10:38:01.480,1743496681480,11.8276096893143,46.3766465429525,34.77768,1908.6576,4.90408780928,1
2025-04-01T10:38:01.580,1743496681580,11.8276146937436,46.3766436855936,34.77768,1908.6576,4.90408780928,1
2025-04-01T10:38:01.680,1743496681680,11.8276199493379,46.3766405744543,34.68624,1908.3528,4.90408780928,1
2025-04-01T10:38:01.780,1743496681780,11.8276249633013,46.376637706133,34.68624,1908.3528,4.90408780928,1
2025-04-01T10:38:01.880,1743496681880,11.8276296310563,46.3766350162254,34.68624,1908.3528,4.90408780928,1
2025-04-01T10:38:01.980,1743496681980,11.8276346189995,46.3766321583184,34.68624,1908.3528,4.90408780928,1
2025-04-01T10:38:02.050,1743496682050,11.827639644086,46.3766293500164,34.68624,1908.3528,4.90408780928,1
2025-04-01T10:38:02.150,1743496682150,11.8276446385839,46.3766265069087,34.68624,1908.3528,4.90408780928,1
2025-04-01T10:38:02.250,1743496682250,11.8276496557254,46.3766235577394,34.5948,1908.3528,4.90408780928,1
2025-04-01T10:38:02.350,1743496682350,11.8276546321482,46.3766207288829,34.5948,1908.3528,4.90408780928,1
2025-04-01T10:38:02.450,1743496682450,11.8276595970505,46.3766179129072,34.5948,1908.3528,4.90408780928,1
2025-04-01T10:38:02.550,1743496682550,11.8276640059934,46.3766153866139,34.5948,1908.3528,4.84149505664,1
2025-04-01T10:38:02.650,1743496682650,11.8276689325606,46.3766126070883,34.5948,1908.3528,4.90408780928,1
2025-04-01T10:38:02.750,1743496682750,11.8276740422626,46.3766097299971,34.5948,1908.3528,4.90408780928,1
2025-04-01T10:38:02.850,1743496682850,11.8276794077974,46.3766067197122,34.5948,1908.3528,4.90408780928,1
2025-04-01T10:38:02.950,1743496682950,11.8276843947474,46.3766038856485,34.47288,1908.3528,4.90408780928,1
2025-04-01T10:38:03.050,1743496683050,11.8276892992669,46.3766010559698,34.47288,1908.3528,4.90408780928,1
2025-04-01T10:38:03.150,1743496683150,11.827694265361,46.3765982103955,34.47288,1908.3528,4.90408780928,1
2025-04-01T10:38:03.250,1743496683250,11.827699288064,46.3765952631447,34.47288,1908.3528,4.90408780928,1
2025-04-01T10:38:03.350,1743496683350,11.8277042662744,46.3765924016749,34.47288,1908.3528,4.90408780928,1
2025-04-01T10:38:03.450,1743496683450,11.8277091731774,46.3765895286946,34.47288,1908.3528,4.90408780928,1
2025-04-01T10:38:03.550,1743496683550,11.8277141686684,46.3765866664026,34.38144,1908.048,4.90408780928,1
2025-04-01T10:38:03.650,1743496683650,11.827719163365,46.376583805755,34.38144,1908.048,4.90408780928,1
2025-04-01T10:38:03.720,1743496683720,11.827723687512,46.3765810456878,34.38144,1908.048,4.90408780928,1
2025-04-01T10:38:03.850,1743496683850,11.8277289916708,46.3765779899088,34.38144,1908.048,4.90408780928,1
2025-04-01T10:38:03.950,1743496683950,11.8277339500184,46.3765751117213,34.38144,1908.048,4.90408780928,1
2025-04-01T10:38:04.020,1743496684020,11.8277388078603,46.3765722740948,34.38144,1908.048,4.90408780928,1
2025-04-01T10:38:04.150,1743496684150,11.8277437717695,46.3765693983739,34.38144,1908.048,4.90408780928,1
2025-04-01T10:38:04.230,1743496684230,11.8277491172428,46.3765662354371,34.29,1908.048,4.90408780928,1
2025-04-01T10:38:04.330,1743496684330,11.8277541508704,46.3765633334063,34.29,1908.048,4.90408780928,1
2025-04-01T10:38:04.430,1743496684430,11.8277591866829,46.3765604280868,34.29,1908.048,4.90408780928,1
2025-04-01T10:38:04.530,1743496684530,11.8277632956977,46.3765581462558,34.29,1908.048,4.90408780928,1
2025-04-01T10:38:04.630,1743496684630,11.8277682611959,46.37655528506,34.29,1908.048,4.90408780928,1
2025-04-01T10:38:04.740,1743496684740,11.8277732378173,46.3765524011173,34.29,1908.048,4.90408780928,1
2025-04-01T10:38:04.840,1743496684840,11.8277787191521,46.3765491652803,34.29,1908.048,4.96790500448,1
2025-04-01T10:38:04.950,1743496684950,11.8277837605261,46.3765462259772,34.29,1908.048,4.96790500448,1
2025-04-01T10:38:05.040,1743496685040,11.8277886406144,46.3765432600902,34.19856,1908.048,4.96790500448,1
2025-04-01T10:38:05.140,1743496685140,11.8277936752351,46.3765403188687,34.19856,1908.048,4.96790500448,1
2025-04-01T10:38:05.250,1743496685250,11.8277986615893,46.3765374617839,34.19856,1908.048,4.96790500448,1
2025-04-01T10:38:05.350,1743496685350,11.8278036904498,46.3765345515313,34.19856,1908.048,4.96790500448,1
2025-04-01T10:38:05.450,1743496685450,11.8278087826726,46.3765317794054,34.19856,1908.048,4.90408780928,1
2025-04-01T10:38:05.550,1743496685550,11.8278138103413,46.3765289031363,34.19856,1908.048,4.90408780928,1
2025-04-01T10:38:05.650,1743496685650,11.8278188086132,46.3765260378297,34.19856,1908.048,4.90408780928,1
2025-04-01T10:38:05.750,1743496685750,11.8278234241291,46.3765232766662,34.07664,1907.7432,4.90408780928,1
2025-04-01T10:38:05.850,1743496685850,11.8278287062402,46.3765201732006,34.07664,1907.7432,4.90408780928,1
2025-04-01T10:38:05.960,1743496685960,11.8278336626015,46.3765173366704,34.07664,1907.7432,4.90408780928,1
2025-04-01T10:38:06.060,1743496686060,11.8278384834986,46.3765145924987,34.07664,1907.7432,4.90408780928,1
2025-04-01T10:38:06.160,1743496686160,11.8278434553529,46.3765117644643,34.07664,1907.7432,4.90408780928,1
2025-04-01T10:38:06.260,1743496686260,11.8278485876985,46.3765089482146,34.07664,1907.7432,4.90408780928,1
2025-04-01T10:38:06.360,1743496686360,11.8278535937168,46.3765061199061,34.07664,1907.7432,4.90408780928,1
2025-04-01T10:38:06.460,1743496686460,11.8278585931804,46.3765032913237,33.9852,1907.7432,4.90408780928,1
2025-04-01T10:38:06.570,1743496686570,11.8278632831818,46.3765007957252,33.9852,1907.7432,4.90408780928,1
2025-04-01T10:38:06.670,1743496686670,11.827868250269,46.3764980035928,33.9852,1907.7432,4.90408780928,1
2025-04-01T10:38:06.770,1743496686770,11.8278731371106,46.3764950648378,33.9852,1907.7432,4.90408780928,1
2025-04-01T10:38:06.870,1743496686870,11.8278785842814,46.3764921022396,33.9852,1907.7432,4.90408780928,1
2025-04-01T10:38:06.970,1743496686970,11.8278836274431,46.3764892818789,33.9852,1907.7432,4.90408780928,1
2025-04-01T10:38:07.070,1743496687070,11.8278886894744,46.3764863705301,33.89376,1907.7432,4.90408780928,1
2025-04-01T10:38:07.180,1743496687180,11.8278937608413,46.3764835487991,33.89376,1907.7432,4.90408780928,1
2025-04-01T10:38:07.280,1743496687280,11.8278988250576,46.3764807246016,33.89376,1907.7432,4.90408780928,1
2025-04-01T10:38:07.380,1743496687380,11.8279033996562,46.3764782613423,33.89376,1907.7432,4.90408780928,1
2025-04-01T10:38:07.480,1743496687480,11.8279083844213,46.3764754840092,33.77184,1907.4384,4.90408780928,1
2025-04-01T10:38:07.580,1743496687580,11.8279134291721,46.3764725282625,33.77184,1907.4384,4.90408780928,1
2025-04-01T10:38:07.690,1743496687690,11.8279183815608,46.3764697396929,33.77184,1907.4384,4.90408780928,1
2025-04-01T10:38:07.750,1743496687750,11.8279233911545,46.3764671330998,33.77184,1907.4384,4.84149505664,1
2025-04-01T10:38:07.850,1743496687850,11.8279287159705,46.3764640912979,33.77184,1907.4384,4.84149505664,1
2025-04-01T10:38:07.950,1743496687950,11.8279337003384,46.376461306017,33.77184,1907.4384,4.84149505664,1
2025-04-01T10:38:08.050,1743496688050,11.8279387272126,46.376458506211,33.6804,1907.4384,4.90408780928,1
2025-04-01T10:38:08.150,1743496688150,11.827943741176,46.3764557217523,33.6804,1907.4384,4.90408780928,1
2025-04-01T10:38:08.250,1743496688250,11.8279487952623,46.3764528917995,33.6804,1907.4384,4.90408780928,1
2025-04-01T10:38:08.350,1743496688350,11.82795376374,46.3764501040521,33.6804,1907.4384,4.84149505664,1
2025-04-01T10:38:08.450,1743496688450,11.8279587101699,46.3764473250746,33.6804,1907.4384,4.76340968576,1
2025-04-01T10:38:08.550,1743496688550,11.827963061908,46.3764448938805,33.6804,1907.4384,4.76340968576,1
2025-04-01T10:38:08.650,1743496688650,11.8279679759616,46.3764421392944,33.58896,1907.4384,4.84149505664,1
2025-04-01T10:38:08.750,1743496688750,11.8279729265627,46.3764392238346,33.58896,1907.4384,4.84149505664,1
2025-04-01T10:38:08.850,1743496688850,11.8279784257739,46.3764363127598,33.58896,1907.4384,4.84149505664,1
2025-04-01T10:38:08.950,1743496688950,11.8279835003188,46.3764335170647,33.49752,1907.1336,4.84149505664,1
2025-04-01T10:38:09.050,1743496689050,11.8279883877563,46.3764307213695,33.49752,1907.1336,4.84149505664,1
2025-04-01T10:38:09.150,1743496689150,11.8279934420412,46.3764279256743,33.49752,1907.1336,4.84149505664,1
2025-04-01T10:38:09.250,1743496689250,11.8279984127038,46.3764251318976,33.3756,1907.1336,4.84149505664,1
2025-04-01T10:38:09.350,1743496689350,11.8280034264686,46.3764223518239,33.3756,1907.1336,4.84149505664,1
2025-04-01T10:38:09.450,1743496689450,11.8280086626966,46.376419363738,33.28416,1907.1336,4.84149505664,1
2025-04-01T10:38:09.550,1743496689550,11.8280137145979,46.3764165685909,33.28416,1907.1336,4.84149505664,1
2025-04-01T10:38:09.650,1743496689650,11.8280187595473,46.3764137772807,33.28416,1907.1336,4.84149505664,1
2025-04-01T10:38:09.720,1743496689720,11.8280229688692,46.3764114776358,33.19272,1907.1336,4.84149505664,1
2025-04-01T10:38:09.830,1743496689830,11.8280283636023,46.3764085438139,33.19272,1907.1336,4.84149505664,1
2025-04-01T10:38:09.950,1743496689950,11.8280333807437,46.376405780732,33.0708,1906.8288,4.84149505664,1
2025-04-01T10:38:10.030,1743496690030,11.8280382413664,46.3764028976114,33.0708,1906.8288,4.84149505664,1
2025-04-01T10:38:10.150,1743496690150,11.8280432593024,46.3764001432994,32.97936,1906.8288,4.84149505664,1
2025-04-01T10:38:10.230,1743496690230,11.8280482700878,46.3763975306769,32.97936,1906.8288,4.84149505664,1
2025-04-01T10:38:10.330,1743496690330,11.8280532620035,46.3763948196666,32.88792,1906.8288,4.78017502688,1
2025-04-01T10:38:10.450,1743496690450,11.8280582580904,46.3763921182484,32.88792,1906.8288,4.78017502688,1
2025-04-01T10:38:10.550,1743496690550,11.8280627770732,46.3763895365947,32.79648,1906.524,4.84149505664,1
2025-04-01T10:38:10.640,1743496690640,11.8280677467426,46.3763868222957,32.79648,1906.524,4.84149505664,1
2025-04-01T10:38:10.740,1743496690740,11.8280726838369,46.3763841617125,32.67456,1906.524,4.84149505664,1
2025-04-01T10:38:10.850,1743496690850,11.8280782265477,46.3763811917146,32.58312,1906.524,4.92037392352,1
2025-04-01T10:38:10.950,1743496690950,11.8280833402223,46.3763784267143,32.58312,1906.524,4.92037392352,1
2025-04-01T10:38:11.050,1743496691050,11.8280884401916,46.3763756323894,32.49168,1906.2192,4.92037392352,1
2025-04-01T10:38:11.150,1743496691150,11.828093585448,46.3763729002764,32.49168,1906.2192,4.92037392352,1
2025-04-01T10:38:11.250,1743496691250,11.8280986657532,46.3763702427079,32.36976,1906.2192,4.92037392352,1
2025-04-01T10:38:11.360,1743496691360,11.8281038088247,46.3763675418378,32.27832,1906.2192,4.8600490048,1
2025-04-01T10:38:11.460,1743496691460,11.8281088843628,46.3763648543967,32.27832,1906.2192,4.92037392352,1
2025-04-01T10:38:11.550,1743496691550,11.8281140131331,46.3763621565412,32.18688,1905.9144,4.8600490048,1
2025-04-01T10:38:11.650,1743496691650,11.828119138924,46.3763594617005,32.09544,1905.9144,4.8600490048,1
2025-04-01T10:38:11.770,1743496691770,11.8281238901028,46.3763568868984,32.09544,1905.9144,4.8600490048,1
2025-04-01T10:38:11.870,1743496691870,11.8281293384654,46.3763539815788,31.97352,1905.9144,4.8600490048,1
2025-04-01T10:38:11.970,1743496691970,11.8281344525372,46.3763512933156,31.88208,1905.6096,4.8600490048,1
2025-04-01T10:38:12.070,1743496692070,11.8281400476858,46.3763482854972,31.88208,1905.6096,4.8600490048,1
2025-04-01T10:38:12.170,1743496692170,11.8281452584894,46.3763455766794,31.79064,1905.6096,4.8600490048,1
2025-04-01T10:38:12.270,1743496692270,11.8281500805783,46.3763431512405,31.6992,1905.6096,4.94065568128,1
2025-04-01T10:38:12.380,1743496692380,11.8281552739027,46.3763404599625,31.57728,1905.3048,4.8600490048,1
2025-04-01T10:38:12.480,1743496692480,11.8281604513368,46.3763377667661,31.57728,1905.3048,4.8600490048,1
2025-04-01T10:38:12.580,1743496692580,11.8281650326888,46.3763351267375,31.48584,1905.3048,4.8600490048,1
2025-04-01T10:38:12.680,1743496692680,11.8281701501373,46.3763324488885,31.3944,1905.3048,4.8600490048,1
2025-04-01T10:38:12.780,1743496692780,11.828175302743,46.3763297060871,31.27248,1905,4.94065568128,1
2025-04-01T10:38:12.890,1743496692890,11.828181043883,46.3763268057007,31.18104,1905,4.94065568128,1
2025-04-01T10:38:12.950,1743496692950,11.8281862262829,46.3763241462138,31.18104,1905,4.8600490048,1
2025-04-01T10:38:13.050,1743496693050,11.8281913161222,46.3763215355097,31.0896,1905,4.8600490048,1
2025-04-01T10:38:13.150,1743496693150,11.8281964476733,46.3763188973996,30.99816,1904.6952,4.8600490048,1
2025-04-01T10:38:13.250,1743496693250,11.8282016143816,46.3763160446997,30.87624,1904.6952,4.8600490048,1
2025-04-01T10:38:13.350,1743496693350,11.8282067294466,46.3763134054933,30.87624,1904.6952,4.8600490048,1
2025-04-01T10:38:13.450,1743496693450,11.8282118194845,46.3763108043814,30.7848,1904.6952,4.8600490048,1
2025-04-01T10:38:13.550,1743496693550,11.8282169411042,46.3763081780559,30.69336,1904.3904,4.8600490048,1
2025-04-01T10:38:13.650,1743496693650,11.828222074443,46.3763055673518,30.57144,1904.3904,4.80104911264,1
2025-04-01T10:38:13.750,1743496693750,11.8282268903744,46.3763031928882,30.48,1904.3904,4.80104911264,1
2025-04-01T10:38:13.850,1743496693850,11.8282324352701,46.3763004703673,30.38856,1904.0856,4.80104911264,1
2025-04-01T10:38:13.950,1743496693950,11.8282376498477,46.3762978582929,30.29712,1904.0856,4.88263033632,1
2025-04-01T10:38:14.050,1743496694050,11.8282428958084,46.3762951566006,30.1752,1904.0856,4.88263033632,1
2025-04-01T10:38:14.150,1743496694150,11.828248125879,46.3762925404154,30.08376,1903.7808,4.88263033632,1
2025-04-01T10:38:14.250,1743496694250,11.8282532329989,46.3762899974043,29.99232,1903.7808,4.88263033632,1
2025-04-01T10:38:14.350,1743496694350,11.8282584297,46.3762873973886,29.8704,1903.7808,4.88263033632,1
2025-04-01T10:38:14.450,1743496694450,11.8282636309695,46.3762848061429,29.77896,1903.476,4.88263033632,1
2025-04-01T10:38:14.550,1743496694550,11.8282685293315,46.3762823426095,29.68752,1903.476,4.88263033632,1
2025-04-01T10:38:14.620,1743496694620,11.8282745622559,46.3762794984056,29.59608,1903.476,4.88263033632,1
2025-04-01T10:38:14.750,1743496694750,11.8282798574763,46.3762769115448,29.47416,1903.1712,4.88263033632,1
2025-04-01T10:38:14.830,1743496694830,11.8282847741121,46.3762744329381,29.38272,1903.1712,4.88263033632,1
2025-04-01T10:38:14.930,1743496694930,11.828290056819,46.3762718781425,29.29128,1903.1712,4.88263033632,1
2025-04-01T10:38:15.050,1743496695050,11.8282953500532,46.3762693258134,29.19984,1902.8664,4.88263033632,1
2025-04-01T10:38:15.140,1743496695140,11.828300620048,46.3762667660846,29.07792,1902.8664,4.88263033632,1
2025-04-01T10:38:15.240,1743496695240,11.8283058231051,46.3762642559609,28.98648,1902.8664,4.88263033632,1
2025-04-01T10:38:15.350,1743496695350,11.8283111020381,46.376261682255,28.89504,1902.5616,4.88263033632,1
2025-04-01T10:38:15.440,1743496695440,11.8283163982517,46.3762590879946,28.68168,1902.5616,4.88263033632,1
2025-04-01T10:38:15.540,1743496695540,11.8283215415219,46.376256636794,28.59024,1902.2568,4.96488480224,1
2025-04-01T10:38:15.650,1743496695650,11.8283268377355,46.3762540450001,28.4988,1902.2568,4.88263033632,1
2025-04-01T10:38:15.750,1743496695750,11.8283322646463,46.3762514534803,28.37688,1902.2568,4.88263033632,1
2025-04-01T10:38:15.850,1743496695850,11.8283379664581,46.3762487575433,28.28544,1901.952,4.88263033632,1
2025-04-01T10:38:15.950,1743496695950,11.8283432487678,46.3762461808228,28.194,1901.952,4.88263033632,1
2025-04-01T10:38:16.050,1743496696050,11.8283485384267,46.376243607117,28.07208,1901.952,4.88263033632,1
2025-04-01T10:38:16.160,1743496696160,11.8283537627371,46.3762410476623,27.98064,1901.6472,4.80104911264,1
2025-04-01T10:38:16.260,1743496696260,11.8283589363973,46.3762384566906,27.8892,1901.6472,4.80104911264,1
2025-04-01T10:38:16.360,1743496696360,11.8283641587214,46.3762358999765,27.79776,1901.6472,4.88263033632,1
2025-04-01T10:38:16.460,1743496696460,11.8283693860111,46.3762333460031,27.67584,1901.3424,4.88263033632,1
2025-04-01T10:38:16.560,1743496696560,11.8283742164424,46.3762310455359,27.5844,1901.3424,4.88263033632,1
2025-04-01T10:38:16.670,1743496696670,11.828379445917,46.3762285288348,27.49296,1901.3424,4.82597919232,1
2025-04-01T10:38:16.750,1743496696750,11.8283848893139,46.3762260008971,27.37104,1901.0376,4.82597919232,1
2025-04-01T10:38:16.870,1743496696870,11.8283901620894,46.3762235080392,27.2796,1901.0376,4.82597919232,1
2025-04-01T10:38:16.950,1743496696950,11.8283955433158,46.3762210025745,27.18816,1901.0376,4.82597919232,1
2025-04-01T10:38:17.070,1743496697070,11.8284008313857,46.3762184828586,26.9748,1900.7328,4.82597919232,1
2025-04-01T10:38:17.170,1743496697170,11.8284060910518,46.3762157427978,26.88336,1900.7328,4.88263033632,1
2025-04-01T10:38:17.270,1743496697270,11.8284122385845,46.3762128558404,26.79192,1900.7328,4.88263033632,1
2025-04-01T10:38:17.370,1743496697370,11.8284175981604,46.3762102533581,26.67,1900.428,4.88263033632,1
2025-04-01T10:38:17.480,1743496697480,11.8284223950236,46.3762078342226,26.57856,1900.428,4.88263033632,1
2025-04-01T10:38:17.580,1743496697580,11.8284276884564,46.3762052742198,26.48712,1900.428,4.88263033632,1
2025-04-01T10:38:17.680,1743496697680,11.828432962821,46.3762027221648,26.39568,1900.1232,4.88263033632,1
2025-04-01T10:38:17.780,1743496697780,11.8284375924395,46.376200477332,26.27376,1900.1232,4.82597919232,1
2025-04-01T10:38:17.880,1743496697880,11.8284433166962,46.3761975928411,26.18232,1900.1232,4.82597919232,1
2025-04-01T10:38:17.980,1743496697980,11.8284485382258,46.3761950276312,26.09088,1899.8184,4.74342431552,1
2025-04-01T10:38:18.090,1743496698090,11.8284536787152,46.3761924769464,25.99944,1899.8184,4.74342431552,1
2025-04-01T10:38:18.150,1743496698150,11.8284588343004,46.3761899216027,25.87752,1899.8184,4.74342431552,1
2025-04-01T10:38:18.250,1743496698250,11.828463865743,46.3761874018868,25.78608,1899.5136,4.74342431552,1
2025-04-01T10:38:18.450,1743496698450,11.8284741413588,46.3761823673882,25.57272,1899.5136,4.74342431552,1
2025-04-01T10:38:18.550,1743496698550,11.8284789817214,46.3761800956975,25.48128,1899.2088,4.74342431552,1
2025-04-01T10:38:18.650,1743496698650,11.8284841802101,46.376177636275,25.2984,1899.2088,4.82597919232,1
2025-04-01T10:38:18.750,1743496698750,11.8284895177383,46.3761751376619,25.2984,1899.2088,4.82597919232,1
2025-04-01T10:38:18.850,1743496698850,11.8284951567836,46.3761725480605,25.08504,1898.904,4.82597919232,1
2025-04-01T10:38:18.950,1743496698950,11.8285004327372,46.3761700864456,25.08504,1898.904,4.82597919232,1
2025-04-01T10:38:19.050,1743496699050,11.8285056862459,46.3761676100313,24.9936,1898.904,4.82597919232,1
2025-04-01T10:38:19.150,1743496699150,11.8285102030438,46.3761652920243,24.87168,1898.5992,4.74342431552,1
2025-04-01T10:38:19.250,1743496699250,11.8285153451222,46.3761628035514,24.78024,1898.5992,4.74342431552,1
2025-04-01T10:38:19.350,1743496699350,11.8285206071719,46.3761602882205,24.6888,1898.5992,4.74342431552,1
2025-04-01T10:38:19.450,1743496699450,11.8285257710993,46.3761578027622,24.47544,1898.2944,4.74342431552,1
2025-04-01T10:38:19.550,1743496699550,11.8285309622388,46.3761553101784,24.384,1898.2944,4.82597919232,1
2025-04-01T10:38:19.650,1743496699650,11.8285361776108,46.3761528134837,24.29256,1897.9896,4.82597919232,1
2025-04-01T10:38:19.750,1743496699750,11.8285415334128,46.3761503140483,24.17064,1897.9896,4.88263033632,1
2025-04-01T10:38:19.850,1743496699850,11.8285471013493,46.3761475885127,24.0792,1897.9896,4.88263033632,1
2025-04-01T10:38:19.950,1743496699950,11.8285524114669,46.3761450164513,23.98776,1897.6848,4.88263033632,1
2025-04-01T10:38:20.050,1743496700050,11.8285577140366,46.3761424394567,23.89632,1897.6848,4.88263033632,1
2025-04-01T10:38:20.150,1743496700150,11.8285623976819,46.3761399890782,23.7744,1897.6848,4.88263033632,1
2025-04-01T10:38:20.220,1743496700220,11.8285675870338,46.3761374784064,23.68296,1897.38,4.82597919232,1
2025-04-01T10:38:20.350,1743496700350,11.8285727753925,46.376134924707,23.59152,1897.38,4.74342431552,1
2025-04-01T10:38:20.450,1743496700450,11.8285779450802,46.3761324219829,23.4696,1897.38,4.74342431552,1
2025-04-01T10:38:20.550,1743496700550,11.8285831276787,46.3761299820188,23.37816,1897.0752,4.74342431552,1
2025-04-01T10:38:20.650,1743496700650,11.8285882999485,46.3761274842278,23.28672,1897.0752,4.74342431552,1
2025-04-01T10:38:20.730,1743496700730,11.8285934972455,46.3761248058307,23.19528,1897.0752,4.74342431552,1
2025-04-01T10:38:20.830,1743496700830,11.828598638728,46.3761223050251,23.07336,1896.7704,4.74342431552,1
2025-04-01T10:38:20.940,1743496700940,11.8286038340387,46.3761198146337,22.98192,1896.7704,4.74342431552,1
2025-04-01T10:38:21.040,1743496701040,11.8286089350012,46.3761173239683,22.89048,1896.7704,4.74342431552,1
2025-04-01T10:38:21.140,1743496701140,11.8286139507522,46.3761148631756,22.79904,1896.4656,4.74342431552,1
2025-04-01T10:38:21.240,1743496701240,11.8286190578721,46.3761123842948,22.67712,1896.4656,4.74342431552,1
2025-04-01T10:38:21.350,1743496701350,11.8286242390802,46.3761098486834,22.58568,1896.4656,4.74342431552,1
2025-04-01T10:38:21.450,1743496701450,11.828629412939,46.376107366788,22.49424,1896.1608,4.74342431552,1
2025-04-01T10:38:21.550,1743496701550,11.8286346148044,46.3761048632417,22.37232,1896.1608,4.82597919232,1
2025-04-01T10:38:21.650,1743496701650,11.8286398506351,46.37610238025,22.28088,1896.1608,4.82597919232,1
2025-04-01T10:38:21.750,1743496701750,11.8286453337576,46.3760999013692,22.18944,1895.856,4.82597919232,1
2025-04-01T10:38:21.850,1743496701850,11.828650974392,46.3760972427045,22.098,1895.856,4.82597919232,1
2025-04-01T10:38:21.950,1743496701950,11.8286562332636,46.3760947501207,21.97608,1895.856,4.82597919232,1
2025-04-01T10:38:22.050,1743496702050,11.8286612398778,46.3760924115591,21.88464,1895.5512,4.74342431552,1
2025-04-01T10:38:22.150,1743496702150,11.8286664387638,46.3760899288415,21.7932,1895.5512,4.74342431552,1
2025-04-01T10:38:22.260,1743496702260,11.8286716084515,46.3760875308086,21.67128,1895.5512,4.74342431552,1
2025-04-01T10:38:22.360,1743496702360,11.8286767908513,46.376085052476,21.57984,1895.2464,4.74342431552,1
2025-04-01T10:38:22.460,1743496702460,11.8286819055191,46.3760825352267,21.39696,1895.2464,4.74342431552,1
2025-04-01T10:38:22.570,1743496702570,11.8286870889121,46.3760800503166,21.27504,1894.9416,4.74342431552,1
2025-04-01T10:38:22.670,1743496702670,11.8286922623737,46.3760775577327,21.1836,1894.9416,4.74342431552,1
2025-04-01T10:38:22.770,1743496702770,11.8286970407645,46.3760753973107,21.09216,1894.9416,4.74342431552,1
2025-04-01T10:38:22.870,1743496702870,11.8287021554322,46.3760729280221,20.97024,1894.6368,4.74342431552,1
2025-04-01T10:38:22.970,1743496702970,11.8287074315844,46.3760702975856,20.8788,1894.6368,4.74342431552,1
2025-04-01T10:38:23.080,1743496703080,11.8287129445011,46.3760676605717,20.78736,1894.6368,4.74342431552,1
2025-04-01T10:38:23.180,1743496703180,11.8287181209421,46.3760651452408,20.69592,1894.332,4.74342431552,1
2025-04-01T10:38:23.280,1743496703280,11.8287231366931,46.3760627521411,20.574,1894.332,4.74342431552,1
2025-04-01T10:38:23.380,1743496703380,11.828728327634,46.3760602946371,20.48256,1894.332,4.74342431552,1
2025-04-01T10:38:23.480,1743496703480,11.8287335199652,46.3760578648132,20.39112,1894.332,4.68722423488,1
2025-04-01T10:38:23.580,1743496703580,11.8287387281867,46.3760554456777,20.29968,1894.0272,4.68722423488,1
2025-04-01T10:38:23.690,1743496703690,11.8287439260796,46.3760530240756,20.17776,1894.0272,4.68722423488,1
2025-04-01T10:38:23.750,1743496703750,11.8287484134805,46.3760507781466,20.08632,1894.0272,4.74342431552,1
2025-04-01T10:38:23.850,1743496703850,11.8287540219372,46.3760480797431,19.99488,1893.7224,4.74342431552,1
2025-04-01T10:38:23.950,1743496703950,11.8287590986671,46.3760455093259,19.78152,1893.7224,4.7201768944,1
2025-04-01T10:38:24.050,1743496704050,11.8287640103373,46.3760429369904,19.69008,1893.4176,4.78017502688,1
2025-04-01T10:38:24.150,1743496704150,11.828768902542,46.3760401791156,19.59864,1893.4176,4.76340968576,1
2025-04-01T10:38:24.250,1743496704250,11.828773642995,46.3760373434075,19.47672,1893.4176,4.81664544416,1
2025-04-01T10:38:24.350,1743496704350,11.8287782269292,46.3760343372335,19.47672,1893.4176,4.73815058464,1
2025-04-01T10:38:24.450,1743496704450,11.8287825947565,46.3760311762151,19.38528,1893.1128,4.81041325952,1
2025-04-01T10:38:24.550,1743496704550,11.8287861982637,46.3760279817613,19.29384,1893.1128,4.76340968576,1
2025-04-01T10:38:24.650,1743496704650,11.8287898732771,46.3760245088616,19.17192,1893.1128,4.74342431552,1
2025-04-01T10:38:24.750,1743496704750,11.8287933025878,46.376021040621,19.17192,1893.1128,4.66476896864,1
2025-04-01T10:38:24.850,1743496704850,11.8287964266076,46.3760170390579,19.08048,1892.808,4.56180537472,1
2025-04-01T10:38:24.950,1743496704950,11.8287987354585,46.3760132874383,19.08048,1892.808,4.40114322208,1
2025-04-01T10:38:25.050,1743496705050,11.8288006619509,46.3760092951933,18.98904,1892.808,4.27200856544,1
2025-04-01T10:38:25.150,1743496705150,11.8288019429026,46.3760055775573,18.98904,1892.808,4.0792221184,1
2025-04-01T10:38:25.250,1743496705250,11.8288025697727,46.3760024236646,18.98904,1892.808,4.01995668448,1
2025-04-01T10:38:25.350,1743496705350,11.8288029336594,46.3759988449774,18.98904,1892.808,3.90128812832,1
2025-04-01T10:38:25.450,1743496705450,11.8288032478891,46.3759952660162,19.08048,1892.808,3.90128812832,1
2025-04-01T10:38:25.550,1743496705550,11.828802859572,46.3759916829441,19.08048,1892.808,3.91152757952,1
2025-04-01T10:38:25.650,1743496705650,11.8288024430498,46.3759881368702,19.08048,1892.808,3.9458902032,1
2025-04-01T10:38:25.720,1743496705720,11.8288013341107,46.3759844795276,19.08048,1892.808,4.10000679616,1
2025-04-01T10:38:25.850,1743496705850,11.8287997083421,46.3759807542179,19.17192,1893.1128,4.1761292144,1
2025-04-01T10:38:25.950,1743496705950,11.828797743913,46.3759770949568,19.17192,1893.1128,4.30813878528,1
2025-04-01T10:38:26.050,1743496706050,11.8287952415995,46.3759734217187,19.29384,1893.1128,4.33820937792,1
2025-04-01T10:38:26.150,1743496706150,11.8287923682492,46.3759699556706,19.38528,1893.1128,4.3046554496,1
2025-04-01T10:38:26.230,1743496706230,11.8287889657541,46.3759666789986,19.47672,1893.4176,4.30116943168,1
2025-04-01T10:38:26.350,1743496706350,11.8287853954184,46.3759635848512,19.47672,1893.4176,4.32782374464,1
2025-04-01T10:38:26.430,1743496706430,11.828781540449,46.3759607061156,19.59864,1893.4176,4.24264742528,1
2025-04-01T10:38:26.550,1743496706550,11.8287774477219,46.3759583612507,19.69008,1893.4176,4.25206521696,1
2025-04-01T10:38:26.630,1743496706630,11.8287730713543,46.3759559295084,19.78152,1893.7224,4.28019386784,1
2025-04-01T10:38:26.730,1743496706730,11.8287684333937,46.3759534593977,19.78152,1893.7224,4.27200856544,1
2025-04-01T10:38:26.840,1743496706840,11.8287629490798,46.3759511030222,19.87296,1893.7224,4.34166544416,1
2025-04-01T10:38:26.940,1743496706940,11.8287577100714,46.3759493136786,19.99488,1893.7224,4.38634932736,1
2025-04-01T10:38:27.050,1743496707050,11.8287522172164,46.3759477564647,20.08632,1894.0272,4.49444806976,1
2025-04-01T10:38:27.150,1743496707150,11.8287469460301,46.3759464563199,20.17776,1894.0272,4.58803544672,1
2025-04-01T10:38:27.250,1743496707250,11.8287405071106,46.3759451347983,20.29968,1894.0272,4.75395344864,1
2025-04-01T10:38:27.350,1743496707350,11.8287343218389,46.3759441106328,20.39112,1894.332,4.90306811104,1
2025-04-01T10:38:27.450,1743496707450,11.8287277365307,46.3759433449066,20.48256,1894.332,5.08036238688,1
2025-04-01T10:38:27.550,1743496707550,11.828721034032,46.3759425432786,20.574,1894.332,5.2611869376,1
2025-04-01T10:38:27.650,1743496707650,11.8287136830131,46.3759417208218,20.78736,1894.6368,5.3460351296,1
2025-04-01T10:38:27.750,1743496707750,11.8287066793944,46.3759410858228,20.8788,1894.6368,5.33386267744,1
2025-04-01T10:38:27.860,1743496707860,11.8287004315546,46.3759408106656,20.97024,1894.6368,5.32354141792,1
2025-04-01T10:38:27.960,1743496707960,11.828693453956,46.3759402951571,21.09216,1894.9416,5.32354141792,1
2025-04-01T10:38:28.060,1743496708060,11.8286865510415,46.3759399914976,21.27504,1894.9416,5.32354141792,1
2025-04-01T10:38:28.160,1743496708160,11.8286795702649,46.3759395118911,21.39696,1895.2464,5.32354141792,1
2025-04-01T10:38:28.260,1743496708260,11.8286723974151,46.3759392855168,21.57984,1895.2464,5.32354141792,1
2025-04-01T10:38:28.370,1743496708370,11.8286654283575,46.3759387954959,21.67128,1895.5512,5.32354141792,1
2025-04-01T10:38:28.470,1743496708470,11.828658470423,46.3759382871129,21.88464,1895.5512,5.32354141792,1
2025-04-01T10:38:28.570,1743496708570,11.8286520078665,46.3759379535808,21.97608,1895.856,5.32354141792,1
2025-04-01T10:38:28.670,1743496708670,11.8286451397118,46.3759374632859,22.098,1895.856,5.32354141792,1
2025-04-01T10:38:28.770,1743496708770,11.8286380675664,46.375937045069,22.28088,1896.1608,5.22399142144,1
2025-04-01T10:38:28.870,1743496708870,11.8286305910145,46.3759366227412,22.37232,1896.1608,5.22399142144,1
2025-04-01T10:38:28.970,1743496708970,11.8286237635785,46.3759361543711,22.49424,1896.1608,5.22399142144,1
2025-04-01T10:38:29.070,1743496709070,11.8286169949364,46.3759357451982,22.67712,1896.4656,5.12445930656,1
2025-04-01T10:38:29.180,1743496709180,11.8286102699925,46.3759352513404,22.79904,1896.4656,5.12445930656,1
2025-04-01T10:38:29.280,1743496709280,11.8286034850629,46.3759349271264,22.89048,1896.7704,5.12445930656,1
2025-04-01T10:38:29.380,1743496709380,11.8285968292414,46.375934407781,22.98192,1896.7704,5.03587967168,1
2025-04-01T10:38:29.480,1743496709480,11.8285902900145,46.3759337579826,23.19528,1897.0752,5.03587967168,1
2025-04-01T10:38:29.580,1743496709580,11.8285837233769,46.3759331912247,23.28672,1897.0752,5.03587967168,1
2025-04-01T10:38:29.680,1743496709680,11.8285772042114,46.3759326115859,23.37816,1897.0752,4.93660594592,1
2025-04-01T10:38:29.750,1743496709750,11.8285712445806,46.3759320963514,23.4696,1897.38,4.93660594592,1
2025-04-01T10:38:29.850,1743496709850,11.8285643080979,46.3759314539527,23.68296,1897.38,4.83736261888,1
2025-04-01T10:38:29.950,1743496709950,11.828557946047,46.3759308548556,23.7744,1897.6848,4.83736261888,1
2025-04-01T10:38:30.050,1743496710050,11.8285517526312,46.3759302993341,23.89632,1897.6848,4.75184923136,1
2025-04-01T10:38:30.150,1743496710150,11.8285455186953,46.3759296736531,23.98776,1897.6848,4.75184923136,1
2025-04-01T10:38:30.250,1743496710250,11.8285388950516,46.3759289224522,24.0792,1897.9896,4.75184923136,1
2025-04-01T10:38:30.350,1743496710350,11.8285326386709,46.3759282649801,24.29256,1897.9896,4.75184923136,1
2025-04-01T10:38:30.450,1743496710450,11.828526364215,46.3759275842128,24.384,1898.2944,4.75184923136,1
2025-04-01T10:38:30.550,1743496710550,11.8285211869794,46.3759268960459,24.47544,1898.2944,4.76760649728,1
2025-04-01T10:38:30.650,1743496710650,11.8285149993239,46.3759261906132,24.59736,1898.2944,4.76760649728,1
2025-04-01T10:38:30.750,1743496710750,11.8285088162368,46.3759254983354,24.6888,1898.5992,4.76760649728,1
2025-04-01T10:38:30.850,1743496710850,11.8285021433333,46.3759246643681,24.87168,1898.5992,4.76760649728,1
2025-04-01T10:38:30.950,1743496710950,11.8284959604448,46.3759239463286,24.9936,1898.904,4.76760649728,1
2025-04-01T10:38:31.050,1743496711050,11.8284897710016,46.3759232540507,25.08504,1898.904,4.66905474112,1
2025-04-01T10:38:31.150,1743496711150,11.8284836475028,46.3759225414924,25.17648,1898.904,4.66905474112,1
2025-04-01T10:38:31.250,1743496711250,11.8284777279949,46.3759218799094,25.2984,1899.2088,4.66905474112,1
2025-04-01T10:38:31.310,1743496711310,11.8284716525641,46.3759211596774,25.48128,1899.2088,4.66905474112,1
2025-04-01T10:38:31.450,1743496711450,11.8284655622363,46.3759204219055,25.57272,1899.5136,4.66905474112,1
2025-04-01T10:38:31.650,1743496711650,11.8284537804254,46.3759187931616,25.78608,1899.5136,4.7854022656,1
2025-04-01T10:38:31.750,1743496711750,11.8284475351679,46.3759179104114,25.99944,1899.8184,4.7854022656,1
2025-04-01T10:38:31.820,1743496711820,11.828441313547,46.3759170789107,26.09088,1899.8184,4.7854022656,1
2025-04-01T10:38:31.950,1743496711950,11.8284350766318,46.3759162723495,26.18232,1900.1232,4.7854022656,1
2025-04-01T10:38:32.050,1743496712050,11.8284288633532,46.3759154307084,26.27376,1900.1232,4.7854022656,1
2025-04-01T10:38:32.150,1743496712150,11.8284227815664,46.375914564402,26.39568,1900.1232,4.7854022656,1
2025-04-01T10:38:32.250,1743496712250,11.8284165748426,46.3759137200204,26.48712,1900.428,4.7854022656,1
2025-04-01T10:38:32.330,1743496712330,11.8284102475517,46.3759127830062,26.67,1900.428,4.7854022656,1
2025-04-01T10:38:32.440,1743496712440,11.8284040116296,46.3759119251956,26.79192,1900.7328,4.88365405792,1
2025-04-01T10:38:32.540,1743496712540,11.828397665469,46.3759110503932,26.88336,1900.7328,4.88365405792,1
2025-04-01T10:38:32.640,1743496712640,11.8283914313345,46.3759101670949,26.9748,1900.7328,4.88365405792,1
2025-04-01T10:38:32.750,1743496712750,11.8283852953222,46.3759092703677,27.18816,1901.0376,4.80521329024,1
2025-04-01T10:38:32.840,1743496712840,11.828378430147,46.3759083144433,27.2796,1901.0376,4.80521329024,1
2025-04-01T10:38:32.940,1743496712940,11.828372198992,46.3759073735923,27.37104,1901.0376,4.80521329024,1
2025-04-01T10:38:33.050,1743496713050,11.828365989686,46.3759064261638,27.49296,1901.3424,4.80521329024,1
2025-04-01T10:38:33.150,1743496713150,11.8283604271123,46.3759055072376,27.5844,1901.3424,4.80521329024,1
2025-04-01T10:38:33.250,1743496713250,11.8283543274489,46.3759045688531,27.79776,1901.6472,4.80521329024,1
2025-04-01T10:38:33.360,1743496713360,11.8283483102161,46.3759036891176,27.8892,1901.6472,4.70744832448,1
2025-04-01T10:38:33.460,1743496713460,11.8283422524632,46.3759027707396,27.98064,1901.6472,4.70744832448,1
2025-04-01T10:38:33.560,1743496713560,11.828336119033,46.3759017994678,28.07208,1901.952,4.68722423488,1
2025-04-01T10:38:33.660,1743496713660,11.8283300880949,46.375900891504,28.28544,1901.952,4.68722423488,1
2025-04-01T10:38:33.760,1743496713760,11.8283239387745,46.3758999317428,28.37688,1902.2568,4.68722423488,1
2025-04-01T10:38:33.860,1743496713860,11.8283178810217,46.3758990152832,28.4988,1902.2568,4.70744832448,1
2025-04-01T10:38:33.960,1743496713960,11.8283117122358,46.3758981857008,28.68168,1902.5616,4.7854022656,1
2025-04-01T10:38:34.070,1743496714070,11.828305587744,46.3758972895217,28.77312,1902.5616,4.7854022656,1
2025-04-01T10:38:34.170,1743496714170,11.8282993879722,46.3758962848145,28.89504,1902.5616,4.7854022656,1
2025-04-01T10:38:34.270,1743496714270,11.8282932362683,46.3758953834282,28.98648,1902.8664,4.7854022656,1
2025-04-01T10:38:34.370,1743496714370,11.8282872762403,46.3758945524756,29.19984,1902.8664,4.7854022656,1
2025-04-01T10:38:34.470,1743496714470,11.8282811664469,46.3758936606814,29.29128,1903.1712,4.7854022656,1
2025-04-01T10:38:34.570,1743496714570,11.8282751549742,46.3758929229095,29.38272,1903.1712,4.68722423488,1
2025-04-01T10:38:34.680,1743496714680,11.8282690978172,46.3758920511218,29.47416,1903.1712,4.68722423488,1
2025-04-01T10:38:34.780,1743496714780,11.8282630188111,46.3758911168482,29.68752,1903.476,4.68722423488,1
2025-04-01T10:38:34.880,1743496714880,11.8282569658252,46.375890246979,29.77896,1903.476,4.68722423488,1
2025-04-01T10:38:34.980,1743496714980,11.8282509628937,46.3758893165422,29.8704,1903.7808,4.68722423488,1
2025-04-01T10:38:35.080,1743496715080,11.8282448956066,46.3758884453026,30.08376,1903.7808,4.68722423488,1
2025-04-01T10:38:35.180,1743496715180,11.8282386847117,46.3758876779321,30.1752,1904.0856,4.68722423488,1
2025-04-01T10:38:35.280,1743496715280,11.8282322811477,46.3758866611662,30.29712,1904.0856,4.7854022656,1
2025-04-01T10:38:35.350,1743496715350,11.828226133615,46.3758857951338,30.38856,1904.0856,4.7854022656,1
2025-04-01T10:38:35.450,1743496715450,11.8282195161287,46.3758847950856,30.57144,1904.3904,4.7854022656,1
2025-04-01T10:38:35.550,1743496715550,11.8282133169528,46.375883923846,30.69336,1904.3904,4.7854022656,1
2025-04-01T10:38:35.650,1743496715650,11.828207132078,46.375883064117,30.7848,1904.6952,4.7854022656,1
2025-04-01T10:38:35.750,1743496715750,11.8282023580571,46.3758824636496,30.99816,1904.6952,4.68722423488,1
2025-04-01T10:38:35.850,1743496715850,11.8281958071112,46.3758815872029,31.0896,1905,4.7854022656,1
2025-04-01T10:38:35.950,1743496715950,11.8281896834138,46.3758807422731,31.18104,1905,4.7854022656,1
2025-04-01T10:38:36.050,1743496716050,11.8281835505796,46.3758798798035,31.27248,1905,4.7854022656,1
2025-04-01T10:38:36.150,1743496716150,11.8281777983164,46.3758790526877,31.48584,1905.3048,4.7854022656,1
2025-04-01T10:38:36.250,1743496716250,11.8281712865001,46.3758780838825,31.57728,1905.3048,4.7854022656,1
2025-04-01T10:38:36.350,1743496716350,11.8281651548577,46.3758772071617,31.6992,1905.6096,4.7854022656,1
2025-04-01T10:38:36.450,1743496716450,11.8281590261946,46.3758763392108,31.79064,1905.6096,4.7854022656,1
2025-04-01T10:38:36.550,1743496716550,11.8281534735524,46.3758756181566,31.97352,1905.9144,4.7854022656,1
2025-04-01T10:38:36.650,1743496716650,11.8281474001079,46.3758747754194,32.09544,1905.9144,4.7854022656,1
2025-04-01T10:38:36.750,1743496716750,11.8281411024125,46.3758740118857,32.18688,1905.9144,4.7854022656,1
2025-04-01T10:38:36.850,1743496716850,11.8281349858658,46.3758731770962,32.27832,1906.2192,4.7854022656,1
2025-04-01T10:38:36.950,1743496716950,11.8281287366356,46.3758723291518,32.49168,1906.2192,4.7854022656,1
2025-04-01T10:38:37.050,1743496717050,11.8281226030069,46.375871497103,32.58312,1906.524,4.7854022656,1
2025-04-01T10:38:37.150,1743496717150,11.8281163724478,46.3758706077754,32.67456,1906.524,4.7854022656,1
2025-04-01T10:38:37.250,1743496717250,11.8281097412562,46.3758698253315,32.79648,1906.524,4.7854022656,1
2025-04-01T10:38:37.350,1743496717350,11.8281035367173,46.3758690089041,32.97936,1906.8288,4.7854022656,1
2025-04-01T10:38:37.450,1743496717450,11.8280973774656,46.3758681541082,33.0708,1906.8288,4.7854022656,1
2025-04-01T10:38:37.550,1743496717550,11.8280911504818,46.3758673464507,33.19272,1907.1336,4.76760649728,1
2025-04-01T10:38:37.650,1743496717650,11.8280849165459,46.375866546467,33.28416,1907.1336,4.76760649728,1
2025-04-01T10:38:37.750,1743496717750,11.8280792443298,46.3758657642972,33.3756,1907.1336,4.76760649728,1
2025-04-01T10:38:37.840,1743496717840,11.828072602015,46.3758649788387,33.58896,1907.4384,4.86621770976,1
2025-04-01T10:38:37.950,1743496717950,11.8280663325249,46.3758642070832,33.6804,1907.4384,4.86621770976,1
2025-04-01T10:38:38.050,1743496718050,11.8280596244643,46.375863391204,33.77184,1907.4384,4.86621770976,1
2025-04-01T10:38:38.140,1743496718140,11.8280532759202,46.3758626358921,33.89376,1907.7432,4.86621770976,1
2025-04-01T10:38:38.240,1743496718240,11.8280474819452,46.3758620598161,33.9852,1907.7432,4.86621770976,1
2025-04-01T10:38:38.340,1743496718340,11.8280411534625,46.3758613310882,34.07664,1907.7432,4.86621770976,1
2025-04-01T10:38:38.450,1743496718450,11.8280347953843,46.375860605649,34.19856,1908.048,4.86621770976,1
2025-04-01T10:38:38.550,1743496718550,11.8280288107265,46.375859966539,34.29,1908.048,4.96488480224,1
2025-04-01T10:38:38.650,1743496718650,11.8280223914709,46.3758592501439,34.38144,1908.048,4.96488480224,1
2025-04-01T10:38:38.750,1743496718750,11.8280159859207,46.3758584772921,34.38144,1908.048,4.96488480224,1
2025-04-01T10:38:38.850,1743496718850,11.8280089229121,46.3758576249628,34.47288,1908.3528,5.06360375136,1
2025-04-01T10:38:39.050,1743496719050,11.8279958381023,46.375856276035,34.68624,1908.3528,5.06360375136,1
2025-04-01T10:38:39.160,1743496719160,11.8279893320463,46.3758555642989,34.77768,1908.6576,4.94975562752,1
2025-04-01T10:38:39.260,1743496719260,11.8279828873662,46.3758548226901,34.77768,1908.6576,4.94975562752,1
2025-04-01T10:38:39.360,1743496719360,11.8279764275905,46.3758541353454,34.8996,1908.6576,4.94975562752,1
2025-04-01T10:38:39.460,1743496719460,11.8279698718775,46.3758533920923,34.99104,1908.6576,4.94975562752,1
2025-04-01T10:38:39.560,1743496719560,11.8279634200469,46.3758527140656,35.08248,1908.9624,4.94975562752,1
2025-04-01T10:38:39.660,1743496719660,11.8279569702026,46.3758520464533,35.08248,1908.9624,4.94975562752,1
2025-04-01T10:38:39.770,1743496719770,11.8279511782138,46.3758514621555,35.17392,1908.9624,4.94975562752,1
2025-04-01T10:38:39.870,1743496719870,11.8279440879932,46.3758508468888,35.29584,1908.9624,4.93660594592,1
2025-04-01T10:38:39.970,1743496719970,11.8279376419228,46.3758502239484,35.38728,1909.2672,4.93660594592,1
2025-04-01T10:38:40.050,1743496720050,11.8279312188932,46.3758494809693,35.38728,1909.2672,4.93660594592,1
2025-04-01T10:38:40.170,1743496720170,11.8279247734187,46.3758488563845,35.47872,1909.2672,4.93660594592,1
2025-04-01T10:38:40.280,1743496720280,11.8279184516893,46.3758482219335,35.57016,1909.2672,4.94975562752,1
2025-04-01T10:38:40.380,1743496720380,11.8279120234954,46.3758476014597,35.57016,1909.2672,4.93660594592,1
2025-04-01T10:38:40.480,1743496720480,11.8279055986782,46.3758469889336,35.69208,1909.572,4.93660594592,1
2025-04-01T10:38:40.580,1743496720580,11.8278996761909,46.3758463681857,35.78352,1909.572,4.93660594592,1
2025-04-01T10:38:40.680,1743496720680,11.8278927025648,46.375845811294,35.78352,1909.572,4.93660594592,1
2025-04-01T10:38:40.750,1743496720750,11.8278863186649,46.3758452571428,35.87496,1909.572,4.83736261888,1
2025-04-01T10:38:40.850,1743496720850,11.8278799510526,46.3758447282053,35.87496,1909.572,4.83736261888,1
2025-04-01T10:38:40.950,1743496720950,11.827873548879,46.3758441885794,35.99688,1909.8768,4.92545229792,1
2025-04-01T10:38:41.050,1743496721050,11.8278671558422,46.3758435505656,35.99688,1909.8768,4.93660594592,1
2025-04-01T10:38:41.150,1743496721150,11.8278607304291,46.3758429832596,36.08832,1909.8768,4.93660594592,1
2025-04-01T10:38:41.250,1743496721250,11.8278543781111,46.3758424233532,36.08832,1909.8768,4.93660594592,1
2025-04-01T10:38:41.350,1743496721350,11.8278479769306,46.3758418338482,36.17976,1909.8768,4.93660594592,1
2025-04-01T10:38:41.450,1743496721450,11.8278415445655,46.3758412733937,36.17976,1909.8768,4.93660594592,1
2025-04-01T10:38:41.550,1743496721550,11.8278351396111,46.3758406638822,36.17976,1909.8768,4.93660594592,1
2025-04-01T10:38:41.650,1743496721650,11.8278287253212,46.3758400439565,36.2712,1910.1816,4.93660594592,1
2025-04-01T10:38:41.750,1743496721750,11.8278229442569,46.3758394169052,36.2712,1910.1816,4.94975562752,1
2025-04-01T10:38:41.850,1743496721850,11.8278160302192,46.3758387542259,36.39312,1910.1816,4.94975562752,1
2025-04-01T10:38:41.950,1743496721950,11.8278096270524,46.375838111005,36.39312,1910.1816,4.85078097152,1
2025-04-01T10:38:42.050,1743496722050,11.8278033424664,46.3758374233862,36.39312,1910.1816,4.85078097152,1
2025-04-01T10:38:42.150,1743496722150,11.8277969899498,46.3758367881131,36.48456,1910.1816,4.83736261888,1
2025-04-01T10:38:42.250,1743496722250,11.8277907633631,46.3758361944972,36.48456,1910.1816,4.83736261888,1
2025-04-01T10:38:42.350,1743496722350,11.8277844491816,46.3758355866301,36.48456,1910.1816,4.83736261888,1
2025-04-01T10:38:42.420,1743496722420,11.8277781284454,46.3758350028804,36.576,1910.4864,4.83736261888,1
2025-04-01T10:38:42.550,1743496722550,11.8277721872871,46.3758344914828,36.576,1910.4864,4.83736261888,1
2025-04-01T10:38:42.620,1743496722620,11.8277658707221,46.3758339773446,36.576,1910.4864,4.82597919232,1
2025-04-01T10:38:42.750,1743496722750,11.8277594997331,46.3758333796178,36.69792,1910.4864,4.82597919232,1
2025-04-01T10:38:42.830,1743496722830,11.8277525900653,46.3758328219039,36.69792,1910.4864,4.92545229792,1
2025-04-01T10:38:42.950,1743496722950,11.8277461441935,46.3758323351717,36.69792,1910.4864,4.92545229792,1
2025-04-01T10:38:43.050,1743496723050,11.8277397505609,46.3758317119573,36.78936,1910.4864,4.92545229792,1
2025-04-01T10:38:43.150,1743496723150,11.8277332973399,46.3758312315285,36.78936,1910.4864,4.92545229792,1
2025-04-01T10:38:43.230,1743496723230,11.8277263064332,46.3758308056379,36.78936,1910.4864,4.92545229792,1
2025-04-01T10:38:43.340,1743496723340,11.8277198182537,46.3758303496006,36.78936,1910.4864,4.91630720064,1
2025-04-01T10:38:43.450,1743496723450,11.8277141257774,46.3758299026073,36.78936,1910.4864,4.91630720064,1
2025-04-01T10:38:43.540,1743496723540,11.8277077498227,46.3758294709614,36.78936,1910.4864,4.81664544416,1
2025-04-01T10:38:43.640,1743496723640,11.8277013764501,46.3758290406858,36.78936,1910.4864,4.81664544416,1
2025-04-01T10:38:43.750,1743496723750,11.8276955103731,46.3758286975615,36.78936,1910.4864,4.91630720064,1
2025-04-01T10:38:43.840,1743496723840,11.8276886251364,46.3758283237425,36.78936,1910.4864,4.81664544416,1
2025-04-01T10:38:43.950,1743496723950,11.8276822938729,46.3758279334798,36.78936,1910.4864,4.81664544416,1
2025-04-01T10:38:44.050,1743496724050,11.8276758303232,46.3758274796349,36.78936,1910.4864,4.80937344448,1
2025-04-01T10:38:44.150,1743496724150,11.8276695745382,46.3758271680277,36.78936,1910.4864,4.70957221152,1
2025-04-01T10:38:44.250,1743496724250,11.827663398999,46.3758269548083,36.78936,1910.4864,4.80937344448,1
2025-04-01T10:38:44.350,1743496724350,11.8276571104406,46.3758266475861,36.78936,1910.4864,4.80937344448,1
2025-04-01T10:38:44.450,1743496724450,11.8276507642801,46.375826309943,36.78936,1910.4864,4.80937344448,1
2025-04-01T10:38:44.550,1743496724550,11.8276447307599,46.3758260301268,36.69792,1910.4864,4.9091831712,1
2025-04-01T10:38:44.660,1743496724660,11.8276383704967,46.3758256478119,36.69792,1910.4864,4.91630720064,1
2025-04-01T10:38:44.760,1743496724760,11.8276319138989,46.3758250974976,36.69792,1910.4864,4.81664544416,1
2025-04-01T10:38:44.860,1743496724860,11.8276251375103,46.3758247680764,36.69792,1910.4864,4.81664544416,1
2025-04-01T10:38:44.950,1743496724950,11.8276188635509,46.3758243852134,36.69792,1910.4864,4.71699799296,1
2025-04-01T10:38:45.060,1743496725060,11.8276126279267,46.3758240363338,36.69792,1910.4864,4.71699799296,1
2025-04-01T10:38:45.170,1743496725170,11.8276064074975,46.3758236564854,36.69792,1910.4864,4.71699799296,1
2025-04-01T10:38:45.270,1743496725270,11.8276000719635,46.3758233443301,36.576,1910.4864,4.71699799296,1
2025-04-01T10:38:45.370,1743496725370,11.827593872589,46.3758229590005,36.576,1910.4864,4.71699799296,1
2025-04-01T10:38:45.470,1743496725470,11.8275875994241,46.3758225961438,36.576,1910.4864,4.71699799296,1
2025-04-01T10:38:45.570,1743496725570,11.8275813912106,46.3758221943706,36.576,1910.4864,4.71699799296,1
2025-04-01T10:38:45.670,1743496725670,11.8275751894525,46.3758217758796,36.576,1910.4864,4.71699799296,1
2025-04-01T10:38:45.780,1743496725780,11.8275696660085,46.375821413297,36.576,1910.4864,4.71699799296,1
2025-04-01T10:38:45.890,1743496725890,11.8275623827216,46.3758209860361,36.576,1910.4864,4.72652843872,1
2025-04-01T10:38:45.950,1743496725950,11.8275561519639,46.3758205269841,36.576,1910.4864,4.72652843872,1
2025-04-01T10:38:46.050,1743496726050,11.827550637061,46.375819981877,36.576,1910.4864,4.72652843872,1
2025-04-01T10:38:46.150,1743496726150,11.8275444532787,46.3758195162475,36.576,1910.4864,4.72652843872,1
2025-04-01T10:38:46.250,1743496726250,11.8275382702909,46.375819234787,36.576,1910.4864,4.72652843872,1
2025-04-01T10:38:46.350,1743496726350,11.827532059098,46.3758187910824,36.576,1910.4864,4.72652843872,1
2025-04-01T10:38:46.450,1743496726450,11.8275258281416,46.3758183484741,36.576,1910.4864,4.72652843872,1
2025-04-01T10:38:46.550,1743496726550,11.8275201057719,46.3758178206328,36.576,1910.4864,4.82597919232,1
2025-04-01T10:38:46.650,1743496726650,11.8275138710416,46.3758173725432,36.576,1910.4864,4.81664544416,1
2025-04-01T10:38:46.750,1743496726750,11.8275073739239,46.3758169959836,36.576,1910.4864,4.81664544416,1
2025-04-01T10:38:46.850,1743496726850,11.8275005310944,46.3758165629673,36.576,1910.4864,4.81664544416,1
2025-04-01T10:38:46.950,1743496726950,11.8274941373624,46.375816156535,36.48456,1910.1816,4.81664544416,1
2025-04-01T10:38:47.050,1743496727050,11.827487725754,46.3758157684648,36.48456,1910.1816,4.91630720064,1
2025-04-01T10:38:47.150,1743496727150,11.8274818998992,46.3758154291774,36.48456,1910.1816,4.91630720064,1
2025-04-01T10:38:47.250,1743496727250,11.8274749092905,46.3758150748167,36.48456,1910.1816,4.91630720064,1
2025-04-01T10:38:47.350,1743496727350,11.8274683954881,46.3758147089454,36.48456,1910.1816,4.91630720064,1
2025-04-01T10:38:47.450,1743496727450,11.8274618524873,46.375814342526,36.48456,1910.1816,5.01598236832,1
2025-04-01T10:38:47.550,1743496727550,11.8274558759732,46.375813941849,36.39312,1910.1816,5.01598236832,1
2025-04-01T10:38:47.650,1743496727650,11.8274493467771,46.3758135617265,36.39312,1910.1816,5.01598236832,1
2025-04-01T10:38:47.750,1743496727750,11.8274426182579,46.3758132284685,36.39312,1910.1816,5.01598236832,1
2025-04-01T10:38:47.850,1743496727850,11.8274355932866,46.3758126989828,36.39312,1910.1816,5.01598236832,1
2025-04-01T10:38:47.950,1743496727950,11.8274289576259,46.3758123021426,36.39312,1910.1816,5.01598236832,1
2025-04-01T10:38:48.050,1743496728050,11.8274222566166,46.3758118726892,36.39312,1910.1816,5.01598236832,1
2025-04-01T10:38:48.150,1743496728150,11.8274155961274,46.3758114942111,36.39312,1910.1816,5.01598236832,1
2025-04-01T10:38:48.220,1743496728220,11.8274089729803,46.3758112903098,36.39312,1910.1816,5.00900005056,1
2025-04-01T10:38:48.350,1743496728350,11.827402324806,46.375810944719,36.39312,1910.1816,5.00900005056,1
2025-04-01T10:38:48.450,1743496728450,11.827395820637,46.3758106887462,36.2712,1910.1816,5.00900005056,1
2025-04-01T10:38:48.550,1743496728550,11.8273892113937,46.3758103478144,36.2712,1910.1816,5.00900005056,1
2025-04-01T10:38:48.630,1743496728630,11.8273826154586,46.3758100005793,36.2712,1910.1816,5.01598236832,1
2025-04-01T10:38:48.730,1743496728730,11.8273763913548,46.3758095020625,36.2712,1910.1816,5.01598236832,1
2025-04-01T10:38:48.830,1743496728830,11.8273691876184,46.3758092617111,36.2712,1910.1816,5.01598236832,1
2025-04-01T10:38:48.930,1743496728930,11.8273625596049,46.375808910091,36.2712,1910.1816,5.00900005056,1
2025-04-01T10:38:49.050,1743496729050,11.827355809038,46.3758085524415,36.2712,1910.1816,5.01598236832,1
2025-04-01T10:38:49.150,1743496729150,11.8273491800313,46.3758081668378,36.2712,1910.1816,5.01598236832,1
2025-04-01T10:38:49.240,1743496729240,11.8273426699034,46.3758077543762,36.17976,1909.8768,5.01598236832,1
2025-04-01T10:38:49.350,1743496729350,11.8273360981015,46.3758073194415,36.17976,1909.8768,5.01598236832,1
2025-04-01T10:38:49.450,1743496729450,11.8273295359331,46.3758068924547,36.17976,1909.8768,5.02494596736,1
2025-04-01T10:38:49.550,1743496729550,11.8273229901515,46.3758064498463,36.17976,1909.8768,5.01598236832,1
2025-04-01T10:38:49.650,1743496729650,11.8273164427809,46.3758060168301,36.17976,1909.8768,5.01598236832,1
2025-04-01T10:38:49.750,1743496729750,11.8273102633684,46.3758056534254,36.17976,1909.8768,5.01598236832,1
2025-04-01T10:38:49.850,1743496729850,11.8273037355627,46.3758052458968,36.17976,1909.8768,5.01598236832,1
2025-04-01T10:38:49.950,1743496729950,11.827297104967,46.3758048172656,36.17976,1909.8768,5.01598236832,1
2025-04-01T10:38:50.060,1743496730060,11.8272899650895,46.3758044883925,36.08832,1909.8768,5.01598236832,1
2025-04-01T10:38:50.160,1743496730160,11.8272833576339,46.3758040937448,36.08832,1909.8768,5.01598236832,1
2025-04-01T10:38:50.260,1743496730260,11.8272768586291,46.3758035675479,36.08832,1909.8768,5.01598236832,1
2025-04-01T10:38:50.360,1743496730360,11.8272703048031,46.375803153716,36.08832,1909.8768,5.01598236832,1
2025-04-01T10:38:50.460,1743496730460,11.8272637817643,46.3758027311141,36.08832,1909.8768,4.91630720064,1
2025-04-01T10:38:50.560,1743496730560,11.8272578065413,46.3758023455104,36.08832,1909.8768,4.91630720064,1
2025-04-01T10:38:50.670,1743496730670,11.8272513572928,46.3758019100276,36.08832,1909.8768,4.92545229792,1
2025-04-01T10:38:50.770,1743496730770,11.827244748149,46.3758014605678,36.08832,1909.8768,4.92545229792,1
2025-04-01T10:38:50.870,1743496730870,11.827237654651,46.3758010124782,35.99688,1909.8768,4.92545229792,1
2025-04-01T10:38:50.970,1743496730970,11.8272311099619,46.3758005583593,35.99688,1909.8768,4.92545229792,1
2025-04-01T10:38:51.070,1743496731070,11.8272241465652,46.3758000184594,35.99688,1909.8768,4.92545229792,1
2025-04-01T10:38:51.170,1743496731170,11.8272175709894,46.3757995695476,35.99688,1909.8768,4.92545229792,1
2025-04-01T10:38:51.280,1743496731280,11.8272116838578,46.3757991998395,35.99688,1909.8768,4.91630720064,1
2025-04-01T10:38:51.350,1743496731350,11.827205202531,46.3757987821707,35.99688,1909.8768,4.91630720064,1
2025-04-01T10:38:51.480,1743496731480,11.8271987675837,46.3757984108182,35.99688,1909.8768,4.91630720064,1
2025-04-01T10:38:51.580,1743496731580,11.8271922979759,46.3757980254885,35.99688,1909.8768,4.91630720064,1
2025-04-01T10:38:51.680,1743496731680,11.8271858171457,46.3757976423514,35.99688,1909.8768,4.91630720064,1
2025-04-01T10:38:51.780,1743496731780,11.8271797774679,46.3757972630512,35.87496,1909.572,4.91630720064,1
2025-04-01T10:38:51.880,1743496731880,11.8271727449488,46.3757968486711,35.87496,1909.572,4.91630720064,1
2025-04-01T10:38:51.990,1743496731990,11.8271662052254,46.3757964526531,35.87496,1909.572,5.01598236832,1
2025-04-01T10:38:52.050,1743496732050,11.8271597624323,46.3757960212812,35.87496,1909.572,5.01598236832,1
2025-04-01T10:38:52.150,1743496732150,11.8271532348252,46.375795624167,35.87496,1909.572,4.91630720064,1
2025-04-01T10:38:52.250,1743496732250,11.8271467507175,46.3757953739494,35.87496,1909.572,4.91630720064,1
2025-04-01T10:38:52.350,1743496732350,11.8271402502231,46.3757950017747,35.87496,1909.572,4.91630720064,1
2025-04-01T10:38:52.450,1743496732450,11.8271337556875,46.3757946369997,35.87496,1909.572,4.91630720064,1
2025-04-01T10:38:52.550,1743496732550,11.8271277079653,46.3757942790761,35.87496,1909.572,4.91630720064,1
2025-04-01T10:38:52.650,1743496732650,11.8271212459054,46.3757939121086,35.78352,1909.572,4.91630720064,1
2025-04-01T10:38:52.750,1743496732750,11.827114690391,46.3757934766258,35.78352,1909.572,5.01598236832,1
2025-04-01T10:38:52.850,1743496732850,11.8271076259921,46.3757929635839,35.78352,1909.572,5.01598236832,1
2025-04-01T10:38:52.950,1743496732950,11.8271010712722,46.3757925596181,35.78352,1909.572,5.01598236832,1
2025-04-01T10:38:53.050,1743496733050,11.8270944582551,46.3757922175901,35.78352,1909.572,5.01598236832,1
2025-04-01T10:38:53.150,1743496733150,11.827087916744,46.3757917949882,35.78352,1909.572,4.91630720064,1
2025-04-01T10:38:53.250,1743496733250,11.827081579323,46.3757913093523,35.78352,1909.572,4.91630720064,1
2025-04-01T10:38:53.350,1743496733350,11.8270750762464,46.3757908629071,35.78352,1909.572,4.92545229792,1
2025-04-01T10:38:53.450,1743496733450,11.8270685720773,46.3757905847353,35.78352,1909.572,4.92545229792,1
2025-04-01T10:38:53.550,1743496733550,11.8270620633399,46.3757901528153,35.78352,1909.572,4.91630720064,1
2025-04-01T10:38:53.650,1743496733650,11.8270549637838,46.3757897567973,35.78352,1909.572,4.91630720064,1
2025-04-01T10:38:53.750,1743496733750,11.8270483941668,46.3757893396767,35.69208,1909.572,4.91630720064,1
2025-04-01T10:38:53.850,1743496733850,11.8270423412803,46.3757888932315,35.69208,1909.572,4.91630720064,1
2025-04-01T10:38:53.950,1743496733950,11.8270358363167,46.3757884752886,35.69208,1909.572,4.91630720064,1
2025-04-01T10:38:54.050,1743496734050,11.8270294108043,46.3757881436749,35.69208,1909.572,4.91630720064,1
2025-04-01T10:38:54.150,1743496734150,11.8270229319603,46.3757877490272,35.69208,1909.572,4.91630720064,1
2025-04-01T10:38:54.250,1743496734250,11.8270164740715,46.375787410562,35.69208,1909.572,4.91630720064,1
2025-04-01T10:38:54.330,1743496734330,11.8270099990015,46.3757870375652,35.69208,1909.572,4.91630720064,1
2025-04-01T10:38:54.450,1743496734450,11.8270035249245,46.3757866626499,35.69208,1909.572,4.91630720064,1
2025-04-01T10:38:54.550,1743496734550,11.8269975223902,46.3757861561853,35.57016,1909.2672,4.91630720064,1
2025-04-01T10:38:54.630,1743496734630,11.8269910835697,46.3757857505752,35.57016,1909.2672,4.91630720064,1
2025-04-01T10:38:54.730,1743496734730,11.8269844617137,46.3757854600707,35.57016,1909.2672,4.91630720064,1
2025-04-01T10:38:54.850,1743496734850,11.8269773933422,46.3757849209929,35.57016,1909.2672,4.91630720064,1
2025-04-01T10:38:54.950,1743496734950,11.8269708678206,46.375784484962,35.57016,1909.2672,4.91630720064,1
2025-04-01T10:38:55.040,1743496735040,11.8269642197457,46.3757840459164,35.57016,1909.2672,4.91630720064,1
2025-04-01T10:38:55.140,1743496735140,11.8269576951179,46.3757836079671,35.57016,1909.2672,4.91630720064,1
2025-04-01T10:38:55.240,1743496735240,11.8269512698041,46.3757832585395,35.57016,1909.2672,4.91630720064,1
2025-04-01T10:38:55.340,1743496735340,11.8269447766589,46.375782837582,35.57016,1909.2672,4.91630720064,1
2025-04-01T10:38:55.450,1743496735450,11.8269383590916,46.3757823738709,35.57016,1909.2672,4.91630720064,1
2025-04-01T10:38:55.550,1743496735550,11.8269318729977,46.3757819493506,35.47872,1909.2672,4.91630720064,1
2025-04-01T10:38:55.650,1743496735650,11.8269253818388,46.3757815229119,35.47872,1909.2672,4.91630720064,1
2025-04-01T10:38:55.750,1743496735750,11.8269193962871,46.3757812384367,35.47872,1909.2672,4.91630720064,1
2025-04-01T10:38:55.850,1743496735850,11.8269122723991,46.3757806993589,35.47872,1909.2672,4.91630720064,1
2025-04-01T10:38:55.950,1743496735950,11.8269057552199,46.3757802860751,35.47872,1909.2672,4.91630720064,1
2025-04-01T10:38:56.060,1743496736060,11.8268992423113,46.375779876354,35.47872,1909.2672,4.91630720064,1
2025-04-01T10:38:56.160,1743496736160,11.8268932584479,46.3757796001006,35.47872,1909.2672,4.91630720064,1
2025-04-01T10:38:56.260,1743496736260,11.8268857395884,46.375779034713,35.38728,1909.2672,4.91630720064,1
2025-04-01T10:38:56.360,1743496736360,11.8268791946013,46.3757786367766,35.38728,1909.2672,4.91630720064,1
2025-04-01T10:38:56.460,1743496736460,11.826872655573,46.3757782443214,35.38728,1909.2672,4.91630720064,1
2025-04-01T10:38:56.560,1743496736560,11.8268673710784,46.3757779878004,35.38728,1909.2672,4.91630720064,1
2025-04-01T10:38:56.670,1743496736670,11.8268609534118,46.3757776298769,35.38728,1909.2672,4.91630720064,1
2025-04-01T10:38:56.770,1743496736770,11.8268543568808,46.3757772719534,35.38728,1909.2672,4.9091831712,1
2025-04-01T10:38:56.870,1743496736870,11.8268474048059,46.3757770159805,35.29584,1908.9624,4.9091831712,1
2025-04-01T10:38:56.970,1743496736970,11.8268408902089,46.3757767019067,35.29584,1908.9624,4.9091831712,1
2025-04-01T10:38:57.070,1743496737070,11.8268344184162,46.3757764171574,35.29584,1908.9624,4.9091831712,1
2025-04-01T10:38:57.170,1743496737170,11.8268279025281,46.3757761244604,35.29584,1908.9624,4.9091831712,1
2025-04-01T10:38:57.270,1743496737270,11.8268213942872,46.3757758399852,35.17392,1908.9624,4.9091831712,1
2025-04-01T10:38:57.380,1743496737380,11.8268153625545,46.3757755319408,35.17392,1908.9624,4.9091831712,1
2025-04-01T10:38:57.480,1743496737480,11.8268088940392,46.3757752652795,35.17392,1908.9624,4.9091831712,1
2025-04-01T10:38:57.580,1743496737580,11.8268023213435,46.3757748788537,35.17392,1908.9624,4.90408780928,1
2025-04-01T10:38:57.680,1743496737680,11.8267958421023,46.3757746206883,35.08248,1908.9624,4.90408780928,1
2025-04-01T10:38:57.780,1743496737780,11.8267892578365,46.375774542855,35.08248,1908.9624,4.90408780928,1
2025-04-01T10:38:57.880,1743496737880,11.8267822113637,46.3757742104192,35.08248,1908.9624,4.90408780928,1
2025-04-01T10:38:57.950,1743496737950,11.8267756743218,46.3757739870595,34.99104,1908.6576,4.90408780928,1
2025-04-01T10:38:58.050,1743496738050,11.8267692190648,46.3757738004241,34.99104,1908.6576,4.90408780928,1
2025-04-01T10:38:58.150,1743496738150,11.8267627148957,46.3757735951525,34.8996,1908.6576,4.90408780928,1
2025-04-01T10:38:58.250,1743496738250,11.8267562887378,46.3757733605563,34.8996,1908.6576,4.90408780928,1
2025-04-01T10:38:58.350,1743496738350,11.82674981188,46.3757731736468,34.8996,1908.6576,4.90408780928,1
2025-04-01T10:38:58.450,1743496738450,11.826743335072,46.3757729976997,34.77768,1908.6576,4.90102826752,1
2025-04-01T10:38:58.550,1743496738550,11.8267373836843,46.3757729338435,34.77768,1908.6576,4.90102826752,1
2025-04-01T10:38:58.650,1743496738650,11.8267309314565,46.3757727811916,34.68624,1908.3528,4.90102826752,1
2025-04-01T10:38:58.750,1743496738750,11.8267242445498,46.3757726123701,34.68624,1908.3528,4.90102826752,1
2025-04-01T10:38:58.850,1743496738850,11.8267167604005,46.3757724895908,34.5948,1908.3528,5.00100786944,1
2025-04-01T10:38:58.950,1743496738950,11.8267101502635,46.3757723407758,34.5948,1908.3528,5.00100786944,1
2025-04-01T10:38:59.050,1743496739050,11.8267042126804,46.3757720458862,34.5948,1908.3528,4.90102826752,1
2025-04-01T10:38:59.150,1743496739150,11.8266976995234,46.3757718822719,34.47288,1908.3528,4.90102826752,1
2025-04-01T10:38:59.250,1743496739250,11.8266913623507,46.3757717414046,34.47288,1908.3528,4.90102826752,1
2025-04-01T10:38:59.350,1743496739350,11.8266849025253,46.3757715698425,34.38144,1908.048,4.90102826752,1
2025-04-01T10:38:59.450,1743496739450,11.8266785233925,46.375771423768,34.38144,1908.048,4.90102826752,1
2025-04-01T10:38:59.550,1743496739550,11.826672067937,46.3757712464506,34.29,1908.048,4.90102826752,1
2025-04-01T10:38:59.650,1743496739650,11.8266656017059,46.375771072422,34.29,1908.048,4.90102826752,1
2025-04-01T10:38:59.750,1743496739750,11.8266595532388,46.3757709636198,34.29,1908.048,4.90102826752,1
2025-04-01T10:38:59.820,1743496739820,11.8266525362623,46.3757708474179,34.19856,1908.048,4.90102826752,1
2025-04-01T10:38:59.920,1743496739920,11.8266460282696,46.375770694766,34.19856,1908.048,4.90102826752,1
2025-04-01T10:39:00.050,1743496740050,11.826639596997,46.3757705922673,34.07664,1907.7432,4.90102826752,1
2025-04-01T10:39:00.120,1743496740120,11.826633094417,46.3757704500297,34.07664,1907.7432,4.90102826752,1
2025-04-01T10:39:00.220,1743496740220,11.8266265680513,46.3757703225913,33.9852,1907.7432,4.90102826752,1
2025-04-01T10:39:00.320,1743496740320,11.8266200787296,46.3757701855609,33.9852,1907.7432,4.90102826752,1
2025-04-01T10:39:00.450,1743496740450,11.8266135950192,46.3757700504489,33.89376,1907.7432,4.90102826752,1
2025-04-01T10:39:00.550,1743496740550,11.8266075009671,46.3757699232846,33.89376,1907.7432,4.90102826752,1
2025-04-01T10:39:00.630,1743496740630,11.826601056883,46.3757697903651,33.77184,1907.4384,4.90102826752,1
2025-04-01T10:39:00.730,1743496740730,11.826594487564,46.3757696149661,33.6804,1907.4384,4.90102826752,1
2025-04-01T10:39:00.830,1743496740830,11.8265874208808,46.375769587286,33.6804,1907.4384,4.90102826752,1
2025-04-01T10:39:00.930,1743496740930,11.8265809134344,46.3757694664251,33.58896,1907.4384,4.90102826752,1
2025-04-01T10:39:01.040,1743496741040,11.826574421332,46.3757692866412,33.58896,1907.4384,4.90102826752,1
2025-04-01T10:39:01.140,1743496741140,11.8265679332518,46.3757691660544,33.49752,1907.1336,4.90102826752,1
2025-04-01T10:39:01.250,1743496741250,11.8265614845992,46.3757689947663,33.49752,1907.1336,4.90102826752,1
2025-04-01T10:39:01.340,1743496741340,11.8265550282001,46.3757688771942,33.3756,1907.1336,4.90102826752,1
2025-04-01T10:39:01.450,1743496741450,11.8265482115397,46.375768858284,33.28416,1907.1336,4.90102826752,1
2025-04-01T10:39:01.550,1743496741550,11.8265417403925,46.3757687642811,33.28416,1907.1336,4.90102826752,1
2025-04-01T10:39:01.650,1743496741650,11.8265352798719,46.3757686790482,33.19272,1907.1336,4.90102826752,1
2025-04-01T10:39:01.850,1743496741850,11.8265230002002,46.3757684743247,33.0708,1906.8288,4.90000812224,1
2025-04-01T10:39:01.950,1743496741950,11.8265165729498,46.3757684058095,32.97936,1906.8288,4.90000812224,1
2025-04-01T10:39:02.050,1743496742050,11.8265100208121,46.3757683233171,32.88792,1906.8288,4.90000812224,1
2025-04-01T10:39:02.150,1743496742150,11.8265035716133,46.3757682671346,32.88792,1906.8288,4.90000812224,1
2025-04-01T10:39:02.250,1743496742250,11.8264971923315,46.3757683024885,32.79648,1906.524,4.90000812224,1
2025-04-01T10:39:02.360,1743496742360,11.8264907890654,46.3757682704234,32.67456,1906.524,4.80000795648,1
2025-04-01T10:39:02.460,1743496742460,11.8264844119685,46.375768246032,32.58312,1906.524,4.80000795648,1
2025-04-01T10:39:02.560,1743496742560,11.8264787066808,46.3757682663125,32.58312,1906.524,4.80000795648,1
2025-04-01T10:39:02.660,1743496742660,11.8264724062542,46.3757682591869,32.49168,1906.2192,4.80000795648,1
2025-04-01T10:39:02.770,1743496742770,11.8264658488033,46.3757680651518,32.36976,1906.2192,4.80000795648,1
2025-04-01T10:39:02.870,1743496742870,11.8264588609257,46.3757681632656,32.27832,1906.2192,4.80000795648,1
2025-04-01T10:39:02.970,1743496742970,11.8264524463875,46.3757681791611,32.27832,1906.2192,4.80000795648,1
2025-04-01T10:39:03.070,1743496743070,11.8264460255925,46.3757682079375,32.18688,1905.9144,4.80000795648,1
2025-04-01T10:39:03.170,1743496743170,11.8264402087752,46.3757681270896,32.09544,1905.9144,4.80000795648,1
2025-04-01T10:39:03.270,1743496743270,11.8264332188617,46.3757681925901,31.97352,1905.9144,4.80000795648,1
2025-04-01T10:39:03.370,1743496743370,11.8264267964777,46.3757682474023,31.88208,1905.6096,4.80000795648,1
2025-04-01T10:39:03.480,1743496743480,11.8264205676069,46.3757684077279,31.88208,1905.6096,4.90000812224,1
2025-04-01T10:39:03.580,1743496743580,11.8264141435842,46.3757684729544,31.79064,1905.6096,4.90000812224,1
2025-04-01T10:39:03.680,1743496743680,11.8264077073955,46.3757685299591,31.6992,1905.6096,4.90000812224,1
2025-04-01T10:39:03.780,1743496743780,11.8264017838654,46.3757684060836,31.57728,1905.3048,4.90000812224,1
2025-04-01T10:39:03.880,1743496743880,11.8263946360924,46.3757685817566,31.57728,1905.3048,4.90000812224,1
2025-04-01T10:39:03.980,1743496743980,11.8263881250211,46.3757686234138,31.48584,1905.3048,4.90000812224,1
2025-04-01T10:39:04.090,1743496744090,11.8263812662516,46.3757686774038,31.3944,1905.3048,4.90000812224,1
2025-04-01T10:39:04.150,1743496744150,11.8263747277199,46.3757687579777,31.27248,1905,4.90000812224,1
2025-04-01T10:39:04.250,1743496744250,11.8263687551783,46.3757688974748,31.18104,1905,4.90102826752,1
2025-04-01T10:39:04.350,1743496744350,11.8263623080651,46.3757690301202,31.0896,1905,4.90102826752,1
2025-04-01T10:39:04.450,1743496744450,11.8263558878411,46.3757691679728,30.99816,1904.6952,4.90102826752,1
2025-04-01T10:39:04.550,1743496744550,11.8263501533054,46.3757692904781,30.99816,1904.6952,4.80104911264,1
2025-04-01T10:39:04.650,1743496744650,11.8263438167038,46.3757694107908,30.87624,1904.6952,4.80104911264,1
2025-04-01T10:39:04.750,1743496744750,11.8263371730732,46.3757694905425,30.7848,1904.6952,4.80000795648,1
2025-04-01T10:39:04.850,1743496744850,11.8263302424252,46.3757694782098,30.69336,1904.3904,4.90000812224,1
2025-04-01T10:39:04.950,1743496744950,11.8263238097126,46.3757694861575,30.57144,1904.3904,4.90000812224,1
2025-04-01T10:39:05.050,1743496745050,11.8263173641387,46.3757694384709,30.48,1904.3904,4.90000812224,1
2025-04-01T10:39:05.150,1743496745150,11.8263109479618,46.3757693592673,30.48,1904.3904,4.90102826752,1
2025-04-01T10:39:05.250,1743496745250,11.8263044749277,46.375769263346,30.38856,1904.0856,4.80104911264,1
2025-04-01T10:39:05.350,1743496745350,11.8262980807488,46.3757691671506,30.29712,1904.0856,4.80104911264,1
2025-04-01T10:39:05.450,1743496745450,11.8262917963615,46.3757691942826,30.1752,1904.0856,4.80000795648,1
2025-04-01T10:39:05.550,1743496745550,11.8262854320264,46.375769110146,30.08376,1903.7808,4.80104911264,1
2025-04-01T10:39:05.650,1743496745650,11.8262790706212,46.3757690147728,30.08376,1903.7808,4.80104911264,1
2025-04-01T10:39:05.750,1743496745750,11.8262731841848,46.3757688991191,29.99232,1903.7808,4.80104911264,1
2025-04-01T10:39:05.850,1743496745850,11.8262661614729,46.3757687453709,29.8704,1903.7808,4.80104911264,1
2025-04-01T10:39:05.950,1743496745950,11.8262597592,46.3757686275247,29.77896,1903.476,4.90102826752,1
2025-04-01T10:39:06.050,1743496746050,11.8262533311054,46.3757686409537,29.77896,1903.476,4.90102826752,1
2025-04-01T10:39:06.120,1743496746120,11.8262469285096,46.375768547773,29.68752,1903.476,4.80000795648,1
2025-04-01T10:39:06.250,1743496746250,11.8262405602268,46.3757684644585,29.59608,1903.476,4.80000795648,1
2025-04-01T10:39:06.320,1743496746320,11.8262347055709,46.3757683170137,29.47416,1903.1712,4.80000795648,1
2025-04-01T10:39:06.450,1743496746450,11.8262284273907,46.3757682561722,29.38272,1903.1712,4.80000795648,1
2025-04-01T10:39:06.550,1743496746550,11.8262221120423,46.375768088447,29.29128,1903.1712,4.80000795648,1
2025-04-01T10:39:06.620,1743496746620,11.8262146337773,46.3757680857064,29.29128,1903.1712,4.80000795648,1
2025-04-01T10:39:06.730,1743496746730,11.8262082385556,46.3757680456935,29.19984,1902.8664,4.80000795648,1
2025-04-01T10:39:06.830,1743496746830,11.8262026312658,46.3757680673443,29.07792,1902.8664,4.80000795648,1
2025-04-01T10:39:06.950,1743496746950,11.8261963953685,46.3757680687146,28.98648,1902.8664,4.70000779072,1
2025-04-01T10:39:07.030,1743496747030,11.8261902401637,46.3757680783067,28.89504,1902.5616,4.60000762496,1
2025-04-01T10:39:07.130,1743496747130,11.8261846149477,46.3757680804992,28.89504,1902.5616,4.60000762496,1
2025-04-01T10:39:07.250,1743496747250,11.8261779855438,46.3757681325708,28.77312,1902.5616,4.60000762496,1
2025-04-01T10:39:07.340,1743496747340,11.826171847297,46.3757681462738,28.68168,1902.5616,4.60000762496,1
2025-04-01T10:39:07.440,1743496747440,11.8261656502067,46.3757681602509,28.59024,1902.2568,4.70000779072,1
2025-04-01T10:39:07.540,1743496747540,11.8261600059599,46.3757681070831,28.4988,1902.2568,4.70000779072,1
2025-04-01T10:39:07.650,1743496747650,11.8261537203685,46.3757681196899,28.4988,1902.2568,4.80000795648,1
2025-04-01T10:39:07.750,1743496747750,11.8261471435266,46.3757680826917,28.37688,1902.2568,4.90000812224,1
2025-04-01T10:39:07.840,1743496747840,11.8261401250853,46.3757682345214,28.28544,1901.952,4.90000812224,1
2025-04-01T10:39:07.950,1743496747950,11.8261335061591,46.3757683049551,28.28544,1901.952,5.000008288,1
2025-04-01T10:39:08.050,1743496748050,11.8261270496856,46.3757683786775,28.194,1901.952,5.000008288,1
2025-04-01T10:39:08.150,1743496748150,11.8261203798485,46.3757684671991,28.07208,1901.952,5.000008288,1
2025-04-01T10:39:08.250,1743496748250,11.826113873929,46.3757685099526,27.98064,1901.6472,5.000008288,1
2025-04-01T10:39:08.350,1743496748350,11.8261072096411,46.3757685894303,27.8892,1901.6472,5.10000845376,1
2025-04-01T10:39:08.460,1743496748460,11.8261005441365,46.3757686617824,27.8892,1901.6472,5.10000845376,1
2025-04-01T10:39:08.560,1743496748560,11.8260944627221,46.3757687486597,27.79776,1901.6472,5.10000845376,1
2025-04-01T10:39:08.660,1743496748660,11.8260878194639,46.3757688012794,27.67584,1901.3424,5.10000845376,1
2025-04-01T10:39:08.760,1743496748760,11.8260812070178,46.3757688429366,27.5844,1901.3424,5.10000845376,1
2025-04-01T10:39:08.860,1743496748860,11.8260745399615,46.3757688922676,27.49296,1901.3424,5.10000845376,1
2025-04-01T10:39:08.960,1743496748960,11.826067696685,46.3757689150146,27.37104,1901.0376,5.10000845376,1
2025-04-01T10:39:09.070,1743496749070,11.8260610290514,46.3757689517388,27.37104,1901.0376,5.10000845376,1
2025-04-01T10:39:09.170,1743496749170,11.8260543721686,46.3757691402927,27.2796,1901.0376,5.10000845376,1
2025-04-01T10:39:09.270,1743496749270,11.8260465496939,46.3757691296043,27.18816,1901.0376,5.10000845376,1
2025-04-01T10:39:09.370,1743496749370,11.8260398491873,46.375769141937,27.09672,1900.7328,5.000008288,1
2025-04-01T10:39:09.470,1743496749470,11.8260331962521,46.3757691427592,26.9748,1900.7328,5.000008288,1
2025-04-01T10:39:09.570,1743496749570,11.826027938926,46.3757691167234,26.9748,1900.7328,5.000008288,1
2025-04-01T10:39:09.680,1743496749680,11.8260214728749,46.3757690983614,26.88336,1900.7328,4.90000812224,1
2025-04-01T10:39:09.780,1743496749780,11.8260149721942,46.3757691501589,26.79192,1900.7328,4.90000812224,1
2025-04-01T10:39:09.880,1743496749880,11.8260078837241,46.375769101376,26.67,1900.428,4.90000812224,1
2025-04-01T10:39:09.980,1743496749980,11.8260013626872,46.3757690753402,26.57856,1900.428,4.90000812224,1
2025-04-01T10:39:10.080,1743496750080,11.8259947681641,46.375769087673,26.48712,1900.428,4.90000812224,1
2025-04-01T10:39:10.180,1743496750180,11.8259882504046,46.375769060815,26.48712,1900.428,4.90000812224,1
2025-04-01T10:39:10.290,1743496750290,11.8259818209894,46.3757690895914,26.39568,1900.1232,4.90000812224,1
2025-04-01T10:39:10.350,1743496750350,11.8259753374978,46.375769078629,26.27376,1900.1232,4.90000812224,1
2025-04-01T10:39:10.450,1743496750450,11.8259688739249,46.3757690728737,26.18232,1900.1232,4.90000812224,1
2025-04-01T10:39:10.550,1743496750550,11.8259630391464,46.3757689635234,26.09088,1899.8184,4.90000812224,1
2025-04-01T10:39:10.650,1743496750650,11.8259566826215,46.3757689517388,26.09088,1899.8184,4.90000812224,1
2025-04-01T10:39:10.750,1743496750750,11.8259503661092,46.3757690043585,25.99944,1899.8184,4.80000795648,1
2025-04-01T10:39:10.850,1743496750850,11.8259434524114,46.3757689936701,25.87752,1899.8184,4.80000795648,1
2025-04-01T10:39:10.950,1743496750950,11.8259370503897,46.3757689665381,25.78608,1899.5136,4.90000812224,1
2025-04-01T10:39:11.050,1743496751050,11.825930655605,46.3757689627012,25.69464,1899.5136,4.90000812224,1
2025-04-01T10:39:11.150,1743496751150,11.8259242438382,46.3757689462576,25.69464,1899.5136,4.80000795648,1
2025-04-01T10:39:11.250,1743496751250,11.825918096051,46.3757688514325,25.57272,1899.5136,4.80000795648,1
2025-04-01T10:39:11.350,1743496751350,11.8259117360609,46.3757688240264,25.48128,1899.2088,4.80000795648,1
2025-04-01T10:39:11.450,1743496751450,11.8259055225465,46.3757687116614,25.38984,1899.2088,4.80000795648,1
2025-04-01T10:39:11.550,1743496751550,11.8258992045445,46.3757686678117,25.2984,1899.2088,4.80000795648,1
2025-04-01T10:39:11.650,1743496751650,11.8258928938763,46.3757686239619,25.2984,1899.2088,4.80000795648,1
2025-04-01T10:39:11.750,1743496751750,11.82588702081,46.3757686757594,25.17648,1898.904,4.80000795648,1
2025-04-01T10:39:11.820,1743496751820,11.8258803036498,46.375768565587,25.08504,1898.904,4.80000795648,1
2025-04-01T10:39:11.950,1743496751950,11.8258739837081,46.3757685176263,24.9936,1898.904,4.80000795648,1
2025-04-01T10:39:12.050,1743496752050,11.8258676516998,46.3757684704878,24.87168,1898.5992,4.80000795648,1
2025-04-01T10:39:12.120,1743496752120,11.8258618885927,46.3757683868993,24.78024,1898.5992,4.80000795648,1
2025-04-01T10:39:12.250,1743496752250,11.8258555880173,46.3757683460642,24.78024,1898.5992,4.80000795648,1
2025-04-01T10:39:12.320,1743496752320,11.8258491508355,46.3757683203025,24.6888,1898.5992,4.80000795648,1
2025-04-01T10:39:12.450,1743496752450,11.8258428182685,46.375768290978,24.59736,1898.2944,4.80000795648,1
2025-04-01T10:39:12.550,1743496752550,11.8258365607953,46.3757682975554,24.47544,1898.2944,4.80000795648,1
2025-04-01T10:39:12.630,1743496752630,11.8258302057648,46.375768281934,24.384,1898.2944,4.90000812224,1
2025-04-01T10:39:12.730,1743496752730,11.8258236456571,46.3757684203347,24.29256,1897.9896,4.90000812224,1
2025-04-01T10:39:12.830,1743496752830,11.8258172547184,46.3757684280084,24.29256,1897.9896,4.90000812224,1
2025-04-01T10:39:12.930,1743496752930,11.8258109639502,46.3757683559304,24.17064,1897.9896,4.90000812224,1
2025-04-01T10:39:13.050,1743496753050,11.8258046046925,46.3757683619597,24.0792,1897.9896,4.90000812224,1
2025-04-01T10:39:13.150,1743496753150,11.8257981094617,46.3757684228013,23.98776,1897.6848,4.80000795648,1
2025-04-01T10:39:13.250,1743496753250,11.8257917721773,46.3757684326675,23.89632,1897.6848,4.80000795648,1
2025-04-01T10:39:13.340,1743496753340,11.8257854416834,46.375768417046,23.7744,1897.6848,4.80000795648,1
2025-04-01T10:39:13.450,1743496753450,11.8257791499717,46.3757684134832,23.68296,1897.38,4.80000795648,1
2025-04-01T10:39:13.550,1743496753550,11.8257728059836,46.3757685272185,23.59152,1897.38,4.80000795648,1
2025-04-01T10:39:13.650,1743496753650,11.8257665337374,46.3757685316034,23.4696,1897.38,4.80000795648,1
2025-04-01T10:39:13.750,1743496753750,11.8257602498467,46.3757684743247,23.4696,1897.38,4.80000795648,1
2025-04-01T10:39:13.860,1743496753860,11.8257535303526,46.3757684551404,23.37816,1897.0752,4.80000795648,1
2025-04-01T10:39:13.960,1743496753960,11.8257472581436,46.3757684491111,23.28672,1897.0752,4.80000795648,1
2025-04-01T10:39:14.060,1743496754060,11.8257409327024,46.3757684233494,23.19528,1897.0752,4.70000779072,1
2025-04-01T10:39:14.160,1743496754160,11.8257346980341,46.3757684101945,23.07336,1896.7704,4.70000779072,1
2025-04-01T10:39:14.260,1743496754260,11.8257286855683,46.3757683866252,22.98192,1896.7704,4.70000779072,1
2025-04-01T10:39:14.360,1743496754360,11.8257225405432,46.3757683825143,22.89048,1896.7704,4.60000762496,1
2025-04-01T10:39:14.470,1743496754470,11.8257164559257,46.3757684195125,22.79904,1896.4656,4.60000762496,1
2025-04-01T10:39:14.570,1743496754570,11.8257105127809,46.3757684471927,22.67712,1896.4656,4.5000074592,1
2025-04-01T10:39:14.670,1743496754670,11.8257047539379,46.3757684885759,22.67712,1896.4656,4.30000712768,1
2025-04-01T10:39:14.770,1743496754770,11.8256996601754,46.3757686050518,22.58568,1896.4656,4.10000679616,1
2025-04-01T10:39:14.870,1743496754870,11.8256939154348,46.3757686365688,22.49424,1896.1608,3.90000646464,1
2025-04-01T10:39:14.980,1743496754980,11.8256889482479,46.3757686932994,22.49424,1896.1608,3.70000613312,1
2025-04-01T10:39:15.080,1743496755080,11.8256843071582,46.3757687472894,22.37232,1896.1608,3.40000563584,1
2025-04-01T10:39:15.180,1743496755180,11.8256800632745,46.3757687960722,22.28088,1896.1608,3.10000513856,1
2025-04-01T10:39:15.280,1743496755280,11.8256760681227,46.3757687903169,22.28088,1896.1608,2.80000464128,1
2025-04-01T10:39:15.380,1743496755380,11.8256725793725,46.3757688470475,22.18944,1895.856,2.500004144,1
2025-04-01T10:39:15.450,1743496755450,11.8256694428393,46.3757690224465,22.18944,1895.856,2.20000364672,1
2025-04-01T10:39:15.550,1743496755550,11.8256667382969,46.3757690860286,22.18944,1895.856,1.90000314944,1
2025-04-01T10:39:15.650,1743496755650,11.8256644187201,46.3757691400186,22.18944,1895.856,1.60000265216,1
2025-04-01T10:39:15.750,1743496755750,11.8256624601992,46.3757691293302,22.18944,1895.856,1.40000232064,1
2025-04-01T10:39:15.850,1743496755850,11.8256603476671,46.3757690049066,22.18944,1895.856,1.10000182336,1
2025-04-01T10:39:15.950,1743496755950,11.825659105299,46.3757690164172,22.098,1895.856,0.80000132608,1
2025-04-01T10:39:16.050,1743496756050,11.8256580901363,46.3757691320709,22.098,1895.856,0.5000008288,1
2025-04-01T10:39:16.150,1743496756150,11.8256575358897,46.3757691707134,22.18944,1895.856,0.30000049728,1
2025-04-01T10:39:16.250,1743496756250,11.8256571724996,46.3757691564623,22.18944,1895.856,0.10000016576,1
2025-04-01T10:39:16.350,1743496756350,11.8256571974519,46.3757691630397,22.18944,1895.856,0.10000016576,1
2025-04-01T10:39:16.450,1743496756450,11.8256575052254,46.3757691972974,22.18944,1895.856,0.30000049728,1
2025-04-01T10:39:16.550,1743496756550,11.825657870179,46.3757694338119,22.18944,1895.856,0.5099027648,1
2025-04-01T10:39:16.650,1743496756650,11.8256587127829,46.3757696574456,22.18944,1895.856,0.72801179264,1
2025-04-01T10:39:16.750,1743496756750,11.8256600528256,46.3757698317484,22.28088,1896.1608,0.9848872352,1
2025-04-01T10:39:16.850,1743496756850,11.8256615136588,46.3757702014566,22.28088,1896.1608,1.25299813408,1
2025-04-01T10:39:16.950,1743496756950,11.8256630867665,46.3757708444035,22.28088,1896.1608,1.38924653824,1
2025-04-01T10:39:17.050,1743496757050,11.8256651359107,46.3757714478856,22.28088,1896.1608,1.61245405728,1
2025-04-01T10:39:17.150,1743496757150,11.8256670657542,46.3757722944597,22.37232,1896.1608,1.74928808384,1
2025-04-01T10:39:17.250,1743496757250,11.8256691808926,46.3757730818366,22.37232,1896.1608,1.835758584,1
2025-04-01T10:39:17.320,1743496757320,11.8256712841134,46.3757739977482,22.37232,1896.1608,1.88679892896,1
2025-04-01T10:39:17.450,1743496757450,11.8256734430494,46.3757749229777,22.49424,1896.1608,1.9723114224,1
2025-04-01T10:39:17.550,1743496757550,11.8256756342127,46.3757754083396,22.49424,1896.1608,1.9723114224,1
2025-04-01T10:39:17.630,1743496757630,11.8256779018229,46.3757763404207,22.58568,1896.4656,2.05912927264,1
2025-04-01T10:39:17.730,1743496757730,11.8256804046334,46.3757772053569,22.58568,1896.4656,2.1095057632,1
2025-04-01T10:39:17.830,1743496757830,11.8256829307578,46.3757785529143,22.67712,1896.4656,2.24722403488,1
2025-04-01T10:39:17.950,1743496757950,11.82568535948,46.3757797708409,22.67712,1896.4656,2.30217642688,1
2025-04-01T10:39:18.030,1743496758030,11.8256877553543,46.3757810794817,22.79904,1896.4656,2.42074752832,1
2025-04-01T10:39:18.140,1743496758140,11.8256902129025,46.3757825106277,22.79904,1896.4656,2.48395227872,1
2025-04-01T10:39:18.240,1743496758240,11.825692847006,46.3757840338582,22.89048,1896.7704,2.549513824,1
2025-04-01T10:39:18.340,1743496758340,11.8256953394134,46.3757856724683,22.89048,1896.7704,2.61725468928,1
2025-04-01T10:39:18.440,1743496758440,11.8256978351975,46.3757874091922,22.98192,1896.7704,2.6870099168,1
2025-04-01T10:39:18.550,1743496758550,11.8257001512482,46.3757892141573,22.98192,1896.7704,2.75862706592,1
2025-04-01T10:39:18.650,1743496758650,11.825702630124,46.375791134502,23.07336,1896.7704,2.831964872,1
2025-04-01T10:39:18.750,1743496758750,11.8257052403425,46.3757932327122,23.19528,1897.0752,2.98329148832,1
2025-04-01T10:39:18.850,1743496758850,11.8257082193136,46.3757956085461,23.19528,1897.0752,3.12410461792,1
2025-04-01T10:39:18.950,1743496758950,11.8257109068728,46.3757979355972,23.28672,1897.0752,3.28024898432,1
2025-04-01T10:39:19.050,1743496759050,11.8257135790881,46.3758003610361,23.28672,1897.0752,3.42053192448,1
2025-04-01T10:39:19.150,1743496759150,11.825716314318,46.3758028525237,23.37816,1897.0752,3.42053192448,1
2025-04-01T10:39:19.250,1743496759250,11.825719069808,46.3758054040306,23.4696,1897.38,3.5000058016,1
2025-04-01T10:39:19.360,1743496759360,11.8257218396241,46.37580802049,23.4696,1897.38,3.58050831776,1
2025-04-01T10:39:19.460,1743496759460,11.8257246232696,46.3758107279376,23.59152,1897.38,3.66197241696,1
2025-04-01T10:39:19.550,1743496759550,11.8257270636861,46.3758134649837,23.59152,1897.38,3.74433506656,1
2025-04-01T10:39:19.660,1743496759660,11.8257302056935,46.3758167498776,23.68296,1897.38,3.96611295168,1
2025-04-01T10:39:19.760,1743496759760,11.8257331409168,46.37581981196,23.68296,1897.38,4.04969780864,1
2025-04-01T10:39:19.860,1743496759860,11.8257361603211,46.3758230042213,23.7744,1897.6848,4.18808485216,1
2025-04-01T10:39:19.950,1743496759950,11.8257392386806,46.3758262101856,23.7744,1897.6848,4.18808485216,1
2025-04-01T10:39:20.070,1743496760070,11.8257423852812,46.3758294832949,23.89632,1897.6848,4.32666859328,1
2025-04-01T10:39:20.170,1743496760170,11.8257456430266,46.3758328520514,23.89632,1897.6848,4.46542980928,1
2025-04-01T10:39:20.270,1743496760270,11.8257489947849,46.37583630193,23.89632,1897.6848,4.54863334112,1
2025-04-01T10:39:20.370,1743496760370,11.8257520652118,46.3758395747651,23.98776,1897.6848,4.6043533008,1
2025-04-01T10:39:20.470,1743496760470,11.8257555178235,46.3758430739746,23.98776,1897.6848,4.68722423488,1
2025-04-01T10:39:20.580,1743496760580,11.8257590740818,46.375846671846,24.0792,1897.9896,4.68722423488,1
2025-04-01T10:39:20.680,1743496760680,11.8257625685792,46.3758501883214,24.0792,1897.9896,4.74342431552,1
2025-04-01T10:39:20.780,1743496760780,11.8257661048753,46.3758537941405,24.17064,1897.9896,4.74342431552,1
2025-04-01T10:39:20.880,1743496760880,11.8257699411616,46.3758577770675,24.29256,1897.9896,4.82597919232,1
2025-04-01T10:39:20.980,1743496760980,11.8257735220373,46.3758614577053,24.384,1898.2944,4.88263033632,1
2025-04-01T10:39:21.080,1743496761080,11.8257771441407,46.3758652011031,24.384,1898.2944,4.96488480224,1
2025-04-01T10:39:21.190,1743496761190,11.8257805433587,46.3758686852392,24.47544,1898.2944,5.04777987648,1
2025-04-01T10:39:21.250,1743496761250,11.8257846135418,46.3758727983451,24.59736,1898.2944,5.13128471328,1
2025-04-01T10:39:21.350,1743496761350,11.8257883721895,46.3758767645544,24.6888,1898.5992,5.26973344832,1
2025-04-01T10:39:21.450,1743496761450,11.8257921482667,46.3758806619743,24.6888,1898.5992,5.26973344832,1
2025-04-01T10:39:21.550,1743496761550,11.8257959705994,46.3758847005357,24.78024,1898.5992,5.26973344832,1
2025-04-01T10:39:21.650,1743496761650,11.8257998275058,46.3758887533481,24.87168,1898.5992,5.35351232064,1
2025-04-01T10:39:21.750,1743496761750,11.8258033292407,46.3758925885563,24.9936,1898.904,5.40833551808,1
2025-04-01T10:39:21.850,1743496761850,11.825807665163,46.375896835952,25.08504,1898.904,5.40833551808,1
2025-04-01T10:39:21.950,1743496761950,11.8258115691443,46.3759009030156,25.17648,1898.904,5.26973344832,1
2025-04-01T10:39:22.050,1743496762050,11.8258155292131,46.3759051046432,25.17648,1898.904,5.26973344832,1
2025-04-01T10:39:22.150,1743496762150,11.825819374115,46.3759091645813,25.2984,1899.2088,5.26973344832,1
2025-04-01T10:39:22.250,1743496762250,11.8258233271821,46.3759134385609,25.38984,1899.2088,5.26973344832,1
2025-04-01T10:39:22.350,1743496762350,11.8258271589248,46.375917494114,25.48128,1899.2088,5.26973344832,1
2025-04-01T10:39:22.450,1743496762450,11.8258309701593,46.375921509106,25.57272,1899.5136,5.26973344832,1
2025-04-01T10:39:22.550,1743496762550,11.825833982711,46.3759245265165,25.69464,1899.5136,5.18652946944,1
2025-04-01T10:39:22.650,1743496762650,11.8258377472864,46.3759283959822,25.69464,1899.5136,5.18652946944,1
2025-04-01T10:39:22.750,1743496762750,11.8258418308707,46.3759323948047,25.78608,1899.5136,5.10392810048,1
2025-04-01T10:39:22.850,1743496762850,11.8258460029622,46.37593650517,25.87752,1899.8184,5.10392810048,1
2025-04-01T10:39:22.950,1743496762950,11.8258499056958,46.3759402844697,25.99944,1899.8184,5.02195974016,1
2025-04-01T10:39:23.050,1743496763050,11.8258537251671,46.3759441854524,26.09088,1899.8184,5.02195974016,1
2025-04-01T10:39:23.150,1743496763150,11.8258575544147,46.3759479444716,26.09088,1899.8184,5.02195974016,1
2025-04-01T10:39:23.250,1743496763250,11.8258613012565,46.3759517700876,26.18232,1900.1232,5.04777987648,1
2025-04-01T10:39:23.350,1743496763350,11.8258650230339,46.3759555820006,26.27376,1900.1232,5.04777987648,1
2025-04-01T10:39:23.450,1743496763450,11.8258687020691,46.3759593289611,26.27376,1900.1232,4.9930031712,1
2025-04-01T10:39:23.550,1743496763550,11.825872333086,46.3759631575918,26.39568,1900.1232,4.9930031712,1
2025-04-01T10:39:23.630,1743496763630,11.8258759347805,46.3759669922518,26.48712,1900.428,4.9930031712,1
2025-04-01T10:39:23.730,1743496763730,11.8258791585668,46.3759704223979,26.48712,1900.428,4.9930031712,1
2025-04-01T10:39:23.840,1743496763840,11.8258829540475,46.3759747235096,26.57856,1900.428,5.07740924064,1
2025-04-01T10:39:23.940,1743496763940,11.82588650246,46.3759786201074,26.57856,1900.428,5.07740924064,1
2025-04-01T10:39:24.040,1743496764040,11.8258901106254,46.3759823909112,26.67,1900.428,5.07740924064,1
2025-04-01T10:39:24.140,1743496764140,11.8258936081768,46.3759862677766,26.67,1900.428,4.93964358272,1
2025-04-01T10:39:24.240,1743496764240,11.8258970537746,46.3759902150756,26.79192,1900.7328,4.93964358272,1
2025-04-01T10:39:24.340,1743496764340,11.8259004633152,46.3759940659052,26.79192,1900.7328,4.8877476032,1
2025-04-01T10:39:24.450,1743496764450,11.8259038174759,46.3759979049502,26.88336,1900.7328,4.8877476032,1
2025-04-01T10:39:24.550,1743496764550,11.8259068359679,46.376001256989,26.9748,1900.7328,4.8877476032,1
2025-04-01T10:39:24.650,1743496764650,11.8259101163227,46.3760050458808,26.9748,1900.7328,4.8877476032,1
2025-04-01T10:39:24.750,1743496764750,11.8259133753468,46.376008881089,27.09672,1900.7328,4.8877476032,1
2025-04-01T10:39:24.850,1743496764850,11.8259171833582,46.3760133666436,27.09672,1900.7328,4.83736261888,1
2025-04-01T10:39:24.950,1743496764950,11.8259204813258,46.3760172130883,27.18816,1901.0376,4.8877476032,1
2025-04-01T10:39:25.050,1743496765050,11.8259234699739,46.3760207723171,27.18816,1901.0376,4.8877476032,1
2025-04-01T10:39:25.160,1743496765160,11.8259267625436,46.3760245921778,27.2796,1901.0376,4.8877476032,1
2025-04-01T10:39:25.260,1743496765260,11.8259300581253,46.3760283383161,27.37104,1901.0376,4.8877476032,1
2025-04-01T10:39:25.360,1743496765360,11.8259333717755,46.376032140911,27.37104,1901.0376,4.8877476032,1
2025-04-01T10:39:25.470,1743496765470,11.8259367071169,46.3760358766351,27.49296,1901.3424,4.80209071584,1
2025-04-01T10:39:25.570,1743496765570,11.8259400352588,46.3760396540163,27.49296,1901.3424,4.80209071584,1
2025-04-01T10:39:25.670,1743496765670,11.825943366658,46.3760434124874,27.5844,1901.3424,4.80209071584,1
2025-04-01T10:39:25.770,1743496765770,11.8259462543988,46.376046835782,27.5844,1901.3424,4.80209071584,1
2025-04-01T10:39:25.870,1743496765870,11.8259495408387,46.3760505520478,27.67584,1901.3424,4.80209071584,1
2025-04-01T10:39:25.980,1743496765980,11.8259529283233,46.3760542488551,27.67584,1901.3424,4.80209071584,1
2025-04-01T10:39:26.080,1743496766080,11.8259562130492,46.3760580095187,27.79776,1901.6472,4.8877476032,1
2025-04-01T10:39:26.180,1743496766180,11.825959673089,46.3760618809029,27.79776,1901.6472,4.8877476032,1
2025-04-01T10:39:26.280,1743496766280,11.8259631355531,46.3760660965076,27.79776,1901.6472,4.97394004448,1
2025-04-01T10:39:26.380,1743496766380,11.8259663502297,46.3760700306517,27.8892,1901.6472,4.92443662304,1
2025-04-01T10:39:26.450,1743496766450,11.8259695201599,46.3760740004237,27.8892,1901.6472,5.01199387744,1
2025-04-01T10:39:26.550,1743496766550,11.8259722868523,46.3760775196397,27.98064,1901.6472,5.01199387744,1
2025-04-01T10:39:26.650,1743496766650,11.8259753473696,46.3760814789974,27.98064,1901.6472,4.96488480224,1
2025-04-01T10:39:26.750,1743496766750,11.8259784294457,46.3760856036138,27.98064,1901.6472,4.96488480224,1
2025-04-01T10:39:26.850,1743496766850,11.825981954026,46.3760897400149,27.98064,1901.6472,4.96488480224,1
2025-04-01T10:39:26.950,1743496766950,11.8259850337636,46.3760937226678,28.07208,1901.952,4.96488480224,1
2025-04-01T10:39:27.050,1743496767050,11.8259880792286,46.3760977316305,28.07208,1901.952,4.8764821952,1
2025-04-01T10:39:27.150,1743496767150,11.8259911767651,46.3761016950992,28.07208,1901.952,4.8764821952,1
2025-04-01T10:39:27.250,1743496767250,11.8259943765981,46.3761056807667,28.194,1901.952,4.8764821952,1
2025-04-01T10:39:27.350,1743496767350,11.8259974825638,46.3761096524572,28.194,1901.952,4.96488480224,1
2025-04-01T10:39:27.450,1743496767450,11.82600067425,46.3761138631287,28.194,1901.952,4.96488480224,1
2025-04-01T10:39:27.550,1743496767550,11.8260037870685,46.3761179036085,28.28544,1901.952,4.96488480224,1
2025-04-01T10:39:27.650,1743496767650,11.8260068970844,46.3761219643688,28.28544,1901.952,4.96488480224,1
2025-04-01T10:39:27.750,1743496767750,11.8260094100684,46.3761252533735,28.28544,1901.952,4.96488480224,1
2025-04-01T10:39:27.850,1743496767850,11.8260128612091,46.3761295947721,28.37688,1902.2568,4.8764821952,1
2025-04-01T10:39:27.950,1743496767950,11.8260159876304,46.3761335157613,28.37688,1902.2568,4.92443662304,1
2025-04-01T10:39:28.050,1743496768050,11.8260190591622,46.3761374603197,28.37688,1902.2568,4.83736261888,1
2025-04-01T10:39:28.150,1743496768150,11.8260222338812,46.3761412979944,28.4988,1902.2568,4.83736261888,1
2025-04-01T10:39:28.250,1743496768250,11.8260253929768,46.3761451987031,28.4988,1902.2568,4.83736261888,1
2025-04-01T10:39:28.350,1743496768350,11.8260285411604,46.3761489977352,28.4988,1902.2568,4.83736261888,1
2025-04-01T10:39:28.450,1743496768450,11.8260316865693,46.3761527726499,28.4988,1902.2568,4.7507968992,1
2025-04-01T10:39:28.550,1743496768550,11.8260345499639,46.3761560805649,28.59024,1902.2568,4.7507968992,1
2025-04-01T10:39:28.650,1743496768650,11.8260377284133,46.3761597765501,28.59024,1902.2568,4.7507968992,1
2025-04-01T10:39:28.750,1743496768750,11.8260409426716,46.3761635213182,28.68168,1902.5616,4.7507968992,1
2025-04-01T10:39:28.830,1743496768830,11.8260444773664,46.3761675450802,28.68168,1902.5616,4.7507968992,1
2025-04-01T10:39:28.930,1743496768930,11.8260477330883,46.3761712966997,28.68168,1902.5616,4.7507968992,1
2025-04-01T10:39:29.050,1743496769050,11.826050953473,46.3761751168345,28.77312,1902.5616,4.80209071584,1
2025-04-01T10:39:29.150,1743496769150,11.8260542272886,46.3761788966824,28.77312,1902.5616,4.80209071584,1
2025-04-01T10:39:29.240,1743496769240,11.8260575602954,46.3761825419663,28.89504,1902.5616,4.80209071584,1
2025-04-01T10:39:29.340,1743496769340,11.8260608841839,46.3761863138664,28.89504,1902.5616,4.80209071584,1
2025-04-01T10:39:29.450,1743496769450,11.8260641986251,46.376190074804,28.98648,1902.8664,4.80209071584,1
2025-04-01T10:39:29.550,1743496769550,11.8260675436799,46.3761938593109,28.98648,1902.8664,4.8877476032,1
2025-04-01T10:39:29.650,1743496769650,11.8260708762833,46.3761976605355,28.98648,1902.8664,4.8877476032,1
2025-04-01T10:39:29.760,1743496769760,11.8260739426508,46.3762011093178,29.07792,1902.8664,4.8877476032,1
2025-04-01T10:39:29.860,1743496769860,11.8260775254259,46.3762053416401,29.07792,1902.8664,4.8877476032,1
2025-04-01T10:39:29.950,1743496769950,11.8260808013209,46.37620919384,29.19984,1902.8664,4.8877476032,1
2025-04-01T10:39:30.060,1743496770060,11.8260843261091,46.3762133461366,29.19984,1902.8664,4.92443662304,1
2025-04-01T10:39:30.160,1743496770160,11.826087583656,46.3762172945319,29.19984,1902.8664,4.92443662304,1
2025-04-01T10:39:30.270,1743496770270,11.8260905208284,46.3762207975783,29.29128,1903.1712,4.92443662304,1
2025-04-01T10:39:30.370,1743496770370,11.8260937037408,46.3762247215821,29.29128,1903.1712,4.92443662304,1
2025-04-01T10:39:30.470,1743496770470,11.8260968516203,46.376228632157,29.29128,1903.1712,4.92443662304,1
2025-04-01T10:39:30.570,1743496770570,11.8260997250084,46.3762321179375,29.38272,1903.1712,4.8764821952,1
2025-04-01T10:39:30.670,1743496770670,11.8261027291309,46.3762359630118,29.38272,1903.1712,4.78853556896,1
2025-04-01T10:39:30.770,1743496770770,11.8261056378252,46.376239987596,29.47416,1903.1712,4.74131562784,1
2025-04-01T10:39:30.880,1743496770880,11.8261090508107,46.3762441242712,29.47416,1903.1712,4.74131562784,1
2025-04-01T10:39:30.980,1743496770980,11.8261120011298,46.376247962768,29.47416,1903.1712,4.74131562784,1
2025-04-01T10:39:31.080,1743496771080,11.8261148395718,46.3762517020549,29.59608,1903.476,4.74131562784,1
2025-04-01T10:39:31.180,1743496771180,11.8261177588181,46.3762555531585,29.59608,1903.476,4.74131562784,1
2025-04-01T10:39:31.280,1743496771280,11.8261207628164,46.3762596092598,29.59608,1903.476,4.83012146496,1
2025-04-01T10:39:31.380,1743496771380,11.8261236942411,46.3762635329896,29.68752,1903.476,4.83012146496,1
2025-04-01T10:39:31.450,1743496771450,11.8261266226863,46.3762674611043,29.68752,1903.476,4.83012146496,1
2025-04-01T10:39:31.550,1743496771550,11.8261291578608,46.3762710458208,29.68752,1903.476,4.83012146496,1
2025-04-01T10:39:31.650,1743496771650,11.826132076536,46.3762748881545,29.77896,1903.476,4.74131562784,1
2025-04-01T10:39:31.750,1743496771750,11.8261351207813,46.3762787820117,29.77896,1903.476,4.74131562784,1
2025-04-01T10:39:31.850,1743496771850,11.8261381129612,46.3762825958431,29.77896,1903.476,4.78853556896,1
2025-04-01T10:39:31.950,1743496771950,11.8261412007928,46.3762863937789,29.8704,1903.7808,4.78853556896,1
2025-04-01T10:39:32.050,1743496772050,11.8261444091296,46.3762906170573,29.8704,1903.7808,4.78853556896,1
2025-04-01T10:39:32.150,1743496772150,11.8261475425463,46.376294414445,29.8704,1903.7808,4.70107129888,1
2025-04-01T10:39:32.250,1743496772250,11.826150654983,46.3762981888116,29.99232,1903.7808,4.7507968992,1
2025-04-01T10:39:32.350,1743496772350,11.8261538593099,46.3763019681113,29.99232,1903.7808,4.7507968992,1
2025-04-01T10:39:32.450,1743496772450,11.8261571237217,46.3763057460408,30.08376,1903.7808,4.7507968992,1
2025-04-01T10:39:32.550,1743496772550,11.8261602746798,46.3763091638541,30.08376,1903.7808,4.80209071584,1
2025-04-01T10:39:32.650,1743496772650,11.8261640370641,46.3763136236471,30.08376,1903.7808,4.80209071584,1
2025-04-01T10:39:32.750,1743496772750,11.8261674777954,46.3763174544702,30.1752,1904.0856,4.8877476032,1
2025-04-01T10:39:32.850,1743496772850,11.8261706623216,46.3763208498106,30.1752,1904.0856,4.85490223328,1
2025-04-01T10:39:32.950,1743496772950,11.8261741315064,46.3763246439096,30.1752,1904.0856,4.85490223328,1
2025-04-01T10:39:33.050,1743496773050,11.8261776414098,46.3763284292387,30.29712,1904.0856,4.85490223328,1
2025-04-01T10:39:33.150,1743496773150,11.82618098315,46.3763317947064,30.29712,1904.0856,4.9091831712,1
2025-04-01T10:39:33.250,1743496773250,11.8261849114134,46.3763357913364,30.29712,1904.0856,4.9091831712,1
2025-04-01T10:39:33.350,1743496773350,11.826188522344,46.3763395585775,30.38856,1904.0856,4.9091831712,1
2025-04-01T10:39:33.420,1743496773420,11.8261921591955,46.3763432797763,30.38856,1904.0856,4.9091831712,1
2025-04-01T10:39:33.550,1743496773550,11.8261957835832,46.3763470667497,30.48,1904.3904,4.9930031712,1
2025-04-01T10:39:33.650,1743496773650,11.8261993983871,46.376350880033,30.48,1904.3904,4.9930031712,1
2025-04-01T10:39:33.730,1743496773730,11.8262025688604,46.3763544058264,30.48,1904.3904,4.9930031712,1
2025-04-01T10:39:33.850,1743496773850,11.8262066666031,46.3763587211892,30.57144,1904.3904,5.07740924064,1
2025-04-01T10:39:33.950,1743496773950,11.8262102654174,46.3763626624589,30.57144,1904.3904,5.07740924064,1
2025-04-01T10:39:34.050,1743496774050,11.8262137373334,46.376366556042,30.57144,1904.3904,5.16237232192,1
2025-04-01T10:39:34.130,1743496774130,11.8262172867887,46.3763705469168,30.69336,1904.3904,5.16237232192,1
2025-04-01T10:39:34.250,1743496774250,11.8262208058539,46.3763745473836,30.69336,1904.3904,5.11078122368,1
2025-04-01T10:39:34.340,1743496774340,11.8262241039705,46.3763782378876,30.69336,1904.3904,5.11078122368,1
2025-04-01T10:39:34.440,1743496774440,11.8262275463157,46.3763822375323,30.7848,1904.6952,5.11078122368,1
2025-04-01T10:39:34.550,1743496774550,11.8262310316639,46.3763862832192,30.7848,1904.6952,5.14782340512,1
2025-04-01T10:39:34.650,1743496774650,11.826234365037,46.3763903478163,30.87624,1904.6952,5.14782340512,1
2025-04-01T10:39:34.740,1743496774740,11.8262377278566,46.3763945064163,30.87624,1904.6952,5.14782340512,1
2025-04-01T10:39:34.840,1743496774840,11.8262410104801,46.376398614041,30.87624,1904.6952,5.14782340512,1
2025-04-01T10:39:34.950,1743496774950,11.8262444454513,46.3764028373193,30.99816,1904.6952,5.23546470304,1
2025-04-01T10:39:35.050,1743496775050,11.8262480705341,46.3764075012876,30.99816,1904.6952,5.23546470304,1
2025-04-01T10:39:35.150,1743496775150,11.8262514528192,46.3764117226476,30.99816,1904.6952,5.23546470304,1
2025-04-01T10:39:35.260,1743496775260,11.8262549892891,46.3764159157792,30.99816,1904.6952,5.28394663808,1
2025-04-01T10:39:35.360,1743496775360,11.8262584053162,46.3764201486497,30.99816,1904.6952,5.28394663808,1
2025-04-01T10:39:35.460,1743496775460,11.8262617570374,46.3764242343495,30.99816,1904.6952,5.28394663808,1
2025-04-01T10:39:35.550,1743496775550,11.8262651596571,46.3764284288515,31.0896,1905,5.23546470304,1
2025-04-01T10:39:35.670,1743496775670,11.8262685391117,46.3764326008804,31.0896,1905,5.23546470304,1
2025-04-01T10:39:35.770,1743496775770,11.8262716749493,46.3764363248198,31.0896,1905,5.14782340512,1
2025-04-01T10:39:35.870,1743496775870,11.8262750047718,46.3764403551593,31.0896,1905,5.0606403232,1
2025-04-01T10:39:35.980,1743496775980,11.826278407888,46.376444377277,31.0896,1905,4.97394004448,1
2025-04-01T10:39:36.080,1743496776080,11.8262817245266,46.376448239069,31.0896,1905,4.8877476032,1
2025-04-01T10:39:36.180,1743496776180,11.8262850480676,46.3764522244625,31.0896,1905,4.8877476032,1
2025-04-01T10:39:36.280,1743496776280,11.8262886143566,46.3764564592514,31.0896,1905,4.8877476032,1
2025-04-01T10:39:36.380,1743496776380,11.8262918947953,46.3764603232359,31.18104,1905,4.83736261888,1
2025-04-01T10:39:36.480,1743496776480,11.8262951441735,46.3764642475139,31.18104,1905,4.92443662304,1
2025-04-01T10:39:36.550,1743496776550,11.8262981152245,46.3764678941681,31.18104,1905,5.01199387744,1
2025-04-01T10:39:36.650,1743496776650,11.8263013105014,46.3764719039531,31.27248,1905,5.01199387744,1
2025-04-01T10:39:36.750,1743496776750,11.8263043750316,46.3764760315842,31.27248,1905,5.01199387744,1
2025-04-01T10:39:36.850,1743496776850,11.8263078703609,46.3764802663731,31.27248,1905,4.96488480224,1
2025-04-01T10:39:36.950,1743496776950,11.8263109893647,46.3764842197015,31.3944,1905.3048,4.8764821952,1
2025-04-01T10:39:37.050,1743496777050,11.8263140965999,46.3764881231507,31.3944,1905.3048,4.78853556896,1
2025-04-01T10:39:37.150,1743496777150,11.8263167705531,46.3764913894085,31.48584,1905.3048,4.78853556896,1
2025-04-01T10:39:37.250,1743496777250,11.8263201764502,46.3764955973394,31.48584,1905.3048,4.78853556896,1
2025-04-01T10:39:37.350,1743496777350,11.8263232517062,46.3764993900681,31.48584,1905.3048,4.70107129888,1
2025-04-01T10:39:37.450,1743496777450,11.8263262625324,46.3765031743009,31.57728,1905.3048,4.70107129888,1
2025-04-01T10:39:37.550,1743496777550,11.8263292836128,46.3765068996106,31.57728,1905.3048,4.70107129888,1
2025-04-01T10:39:37.650,1743496777650,11.8263322857986,46.3765105947736,31.57728,1905.3048,4.5650920128,1
2025-04-01T10:39:37.750,1743496777750,11.8263349223105,46.3765136809733,31.6992,1905.6096,4.61411620736,1
2025-04-01T10:39:37.850,1743496777850,11.8263382312771,46.3765176485529,31.6992,1905.6096,4.52769979904,1
2025-04-01T10:39:37.950,1743496777950,11.826341290196,46.376521267527,31.79064,1905.6096,4.61411620736,1
2025-04-01T10:39:38.050,1743496778050,11.826344365899,46.3765249067816,31.79064,1905.6096,4.61411620736,1
2025-04-01T10:39:38.150,1743496778150,11.8263470774922,46.3765281834536,31.88208,1905.6096,4.61411620736,1
2025-04-01T10:39:38.250,1743496778250,11.8263504483314,46.376532136508,31.88208,1905.6096,4.61411620736,1
2025-04-01T10:39:38.350,1743496778350,11.8263535107263,46.3765358470184,31.88208,1905.6096,4.70107129888,1
2025-04-01T10:39:38.450,1743496778450,11.8263565920156,46.3765395662988,31.97352,1905.9144,4.70107129888,1
2025-04-01T10:39:38.550,1743496778550,11.8263592922374,46.3765428912055,31.97352,1905.9144,4.7507968992,1
2025-04-01T10:39:38.650,1743496778650,11.8263624475156,46.3765465756802,32.09544,1905.9144,4.7507968992,1
2025-04-01T10:39:38.750,1743496778750,11.826365798343,46.3765502807094,32.09544,1905.9144,4.7507968992,1
2025-04-01T10:39:38.820,1743496778820,11.826369210621,46.3765542447262,32.09544,1905.9144,4.83736261888,1
2025-04-01T10:39:38.950,1743496778950,11.8263723873263,46.3765581065182,32.09544,1905.9144,4.92443662304,1
2025-04-01T10:39:39.030,1743496779030,11.8263755796239,46.3765618929435,32.09544,1905.9144,4.8764821952,1
2025-04-01T10:39:39.150,1743496779150,11.8263786261782,46.3765658635377,32.18688,1905.9144,4.96488480224,1
2025-04-01T10:39:39.250,1743496779250,11.8263816752651,46.3765699182687,32.18688,1905.9144,4.91935735456,1
2025-04-01T10:39:39.330,1743496779330,11.8263846758371,46.37657394806,32.18688,1905.9144,4.96488480224,1
2025-04-01T10:39:39.450,1743496779450,11.8263877450349,46.3765779107065,32.27832,1906.2192,4.96488480224,1
2025-04-01T10:39:39.550,1743496779550,11.8263908529156,46.376581945431,32.27832,1906.2192,4.96488480224,1
2025-04-01T10:39:39.650,1743496779650,11.8263940271379,46.3765859845404,32.27832,1906.2192,5.01199387744,1
2025-04-01T10:39:39.740,1743496779740,11.8263973694491,46.3765896775109,32.27832,1906.2192,5.01199387744,1
2025-04-01T10:39:39.840,1743496779840,11.8264008454866,46.3765942584387,32.27832,1906.2192,5.01199387744,1
2025-04-01T10:39:39.950,1743496779950,11.8264040866963,46.3765982978223,32.27832,1906.2192,5.01199387744,1
2025-04-01T10:39:40.040,1743496780040,11.8264073076956,46.3766021544071,32.27832,1906.2192,5.01199387744,1
2025-04-01T10:39:40.150,1743496780150,11.8264105113646,46.3766061633699,32.36976,1906.2192,5.01199387744,1
2025-04-01T10:39:40.250,1743496780250,11.8264136507278,46.3766102074124,32.36976,1906.2192,5.01199387744,1
2025-04-01T10:39:40.350,1743496780350,11.8264168856806,46.3766142106199,32.36976,1906.2192,5.01199387744,1
2025-04-01T10:39:40.450,1743496780450,11.8264201121918,46.3766183083784,32.36976,1906.2192,5.01199387744,1
2025-04-01T10:39:40.550,1743496780550,11.8264233479392,46.3766223411844,32.36976,1906.2192,5.01199387744,1
2025-04-01T10:39:40.650,1743496780650,11.8264265366615,46.3766263986559,32.36976,1906.2192,5.10000845376,1
2025-04-01T10:39:40.760,1743496780760,11.8264295786971,46.3766302319456,32.36976,1906.2192,5.05371969696,1
2025-04-01T10:39:40.860,1743496780860,11.8264326242584,46.3766342625592,32.36976,1906.2192,5.05371969696,1
2025-04-01T10:39:40.950,1743496780950,11.826435522388,46.3766382287684,32.36976,1906.2192,4.96488480224,1
2025-04-01T10:39:41.060,1743496781060,11.8264388764183,46.3766427620097,32.36976,1906.2192,4.96488480224,1
2025-04-01T10:39:41.160,1743496781160,11.8264419482977,46.3766468630569,32.36976,1906.2192,5.05371969696,1
2025-04-01T10:39:41.260,1743496781260,11.8264452226285,46.3766509653374,32.36976,1906.2192,5.14296452736,1
2025-04-01T10:39:41.370,1743496781370,11.8264483947653,46.3766551392848,32.49168,1906.2192,5.18845710592,1
2025-04-01T10:39:41.470,1743496781470,11.8264516074718,46.3766593266612,32.49168,1906.2192,5.18845710592,1
2025-04-01T10:39:41.570,1743496781570,11.8264545274008,46.3766632920482,32.49168,1906.2192,5.18845710592,1
2025-04-01T10:39:41.670,1743496781670,11.8264577734272,46.376667436397,32.49168,1906.2192,5.18845710592,1
2025-04-01T10:39:41.770,1743496781770,11.8264610044572,46.3766716182922,32.49168,1906.2192,5.10000845376,1
2025-04-01T10:39:41.880,1743496781880,11.8264643566006,46.3766759162521,32.58312,1906.524,5.01199387744,1
2025-04-01T10:39:41.980,1743496781980,11.8264675230269,46.3766799010975,32.58312,1906.524,4.8764821952,1
2025-04-01T10:39:42.080,1743496782080,11.8264706583679,46.3766837135585,32.58312,1906.524,4.78853556896,1
2025-04-01T10:39:42.180,1743496782180,11.8264738171966,46.3766874728518,32.58312,1906.524,4.7507968992,1
2025-04-01T10:39:42.280,1743496782280,11.826477074793,46.3766910703121,32.67456,1906.524,4.66476896864,1
2025-04-01T10:39:42.350,1743496782350,11.8264803084051,46.3766947116222,32.67456,1906.524,4.66476896864,1
2025-04-01T10:39:42.450,1743496782450,11.8264835289078,46.376698365539,32.67456,1906.524,4.66476896864,1
2025-04-01T10:39:42.550,1743496782550,11.8264863070663,46.3767018887288,32.67456,1906.524,4.7507968992,1
2025-04-01T10:39:42.650,1743496782650,11.82648946952,46.3767055790958,32.79648,1906.524,4.7507968992,1
2025-04-01T10:39:42.750,1743496782750,11.8264926949388,46.3767094591129,32.79648,1906.524,4.70107129888,1
2025-04-01T10:39:42.850,1743496782850,11.8264960897375,46.3767134654721,32.88792,1906.8288,4.70107129888,1
2025-04-01T10:39:42.950,1743496782950,11.8264991592334,46.3767172651893,32.88792,1906.8288,4.74131562784,1
2025-04-01T10:39:43.050,1743496783050,11.8265020008534,46.376721026127,32.88792,1906.8288,4.74131562784,1
2025-04-01T10:39:43.150,1743496783150,11.8265050040076,46.376724879149,32.88792,1906.8288,4.74131562784,1
2025-04-01T10:39:43.250,1743496783250,11.8265080914296,46.3767286605042,32.88792,1906.8288,4.78853556896,1
2025-04-01T10:39:43.350,1743496783350,11.8265111685726,46.3767324766651,32.97936,1906.8288,4.78853556896,1
2025-04-01T10:39:43.450,1743496783450,11.8265143665806,46.3767361918346,32.97936,1906.8288,4.70107129888,1
2025-04-01T10:39:43.550,1743496783550,11.8265174761993,46.3767399616792,32.97936,1906.8288,4.70107129888,1
2025-04-01T10:39:43.650,1743496783650,11.8265205785184,46.3767437348125,32.97936,1906.8288,4.70107129888,1
2025-04-01T10:39:43.750,1743496783750,11.8265232050245,46.3767471243977,32.97936,1906.8288,4.78853556896,1
2025-04-01T10:39:43.850,1743496783850,11.826526450157,46.3767512155787,32.97936,1906.8288,4.78853556896,1
2025-04-01T10:39:43.950,1743496783950,11.8265295275483,46.3767550995697,33.0708,1906.8288,4.8764821952,1
2025-04-01T10:39:44.050,1743496784050,11.8265326590161,46.3767591116841,33.0708,1906.8288,4.8764821952,1
2025-04-01T10:39:44.150,1743496784150,11.8265357907321,46.3767630333585,33.0708,1906.8288,4.8764821952,1
2025-04-01T10:39:44.250,1743496784250,11.8265388579934,46.3767669525663,33.0708,1906.8288,4.92443662304,1
2025-04-01T10:39:44.350,1743496784350,11.8265420314709,46.3767708364202,33.0708,1906.8288,4.83736261888,1
2025-04-01T10:39:44.450,1743496784450,11.8265452152275,46.3767746986233,33.0708,1906.8288,4.83736261888,1
2025-04-01T10:39:44.550,1743496784550,11.8265481935034,46.3767781698786,33.0708,1906.8288,4.83736261888,1
2025-04-01T10:39:44.650,1743496784650,11.8265513974207,46.3767819635665,33.0708,1906.8288,4.83736261888,1
2025-04-01T10:39:44.750,1743496784750,11.8265546388786,46.3767858428984,33.19272,1907.1336,4.83736261888,1
2025-04-01T10:39:44.820,1743496784820,11.8265581394963,46.3767900093092,33.19272,1907.1336,4.92443662304,1
2025-04-01T10:39:44.950,1743496784950,11.8265613326877,46.3767939366018,33.19272,1907.1336,4.92443662304,1
2025-04-01T10:39:45.050,1743496785050,11.8265645105847,46.3767979535123,33.19272,1907.1336,4.8764821952,1
2025-04-01T10:39:45.150,1743496785150,11.8265676214946,46.3768019375355,33.19272,1907.1336,4.96488480224,1
2025-04-01T10:39:45.230,1743496785230,11.8265706576706,46.3768057913798,33.19272,1907.1336,4.96488480224,1
2025-04-01T10:39:45.330,1743496785330,11.8265736691175,46.3768097786917,33.19272,1907.1336,4.91935735456,1
2025-04-01T10:39:45.450,1743496785450,11.8265766528062,46.3768137966985,33.19272,1907.1336,4.91935735456,1
2025-04-01T10:39:45.550,1743496785550,11.8265795697559,46.3768178458112,33.19272,1907.1336,4.91935735456,1
2025-04-01T10:39:45.640,1743496785640,11.8265827132903,46.3768222709354,33.19272,1907.1336,5.00900005056,1
2025-04-01T10:39:45.740,1743496785740,11.8265856189182,46.3768263888373,33.19272,1907.1336,4.96589153632,1
2025-04-01T10:39:45.840,1743496785840,11.826588171485,46.3768302214419,33.19272,1907.1336,4.96589153632,1
2025-04-01T10:39:45.950,1743496785950,11.8265910419557,46.3768343020715,33.19272,1907.1336,4.96589153632,1
2025-04-01T10:39:46.050,1743496786050,11.8265938992673,46.3768383647502,33.19272,1907.1336,4.87545668544,1
2025-04-01T10:39:46.150,1743496786150,11.8265964016806,46.3768419826281,33.19272,1907.1336,4.87545668544,1
2025-04-01T10:39:46.250,1743496786250,11.8265992476704,46.3768459844652,33.19272,1907.1336,4.91935735456,1
2025-04-01T10:39:46.350,1743496786350,11.8266023298784,46.3768501108631,33.19272,1907.1336,4.91935735456,1
2025-04-01T10:39:46.450,1743496786450,11.8266052228934,46.3768541188666,33.19272,1907.1336,4.91935735456,1
2025-04-01T10:39:46.550,1743496786550,11.8266081404886,46.3768583262494,33.19272,1907.1336,4.91935735456,1
2025-04-01T10:39:46.650,1743496786650,11.8266110193514,46.3768623394601,33.19272,1907.1336,4.91935735456,1
2025-04-01T10:39:46.750,1743496786750,11.8266138552609,46.3768664263932,33.28416,1907.1336,4.91935735456,1
2025-04-01T10:39:46.860,1743496786860,11.8266167471338,46.3768704620769,33.28416,1907.1336,5.00900005056,1
2025-04-01T10:39:46.950,1743496786950,11.8266196526126,46.376874576416,33.28416,1907.1336,5.00900005056,1
2025-04-01T10:39:47.060,1743496787060,11.8266230059974,46.3768790074325,33.28416,1907.1336,5.00900005056,1
2025-04-01T10:39:47.160,1743496787160,11.8266260266804,46.3768830864178,33.28416,1907.1336,4.91935735456,1
2025-04-01T10:39:47.260,1743496787260,11.8266290449799,46.376887088255,33.3756,1907.1336,4.96488480224,1
2025-04-01T10:39:47.360,1743496787360,11.8266321390062,46.376891134627,33.3756,1907.1336,4.96488480224,1
2025-04-01T10:39:47.460,1743496787460,11.8266352556265,46.3768952407444,33.3756,1907.1336,4.96488480224,1
2025-04-01T10:39:47.570,1743496787570,11.8266383850583,46.3768992872535,33.3756,1907.1336,5.01199387744,1
2025-04-01T10:39:47.670,1743496787670,11.8266415162281,46.3769033273221,33.3756,1907.1336,5.01199387744,1
2025-04-01T10:39:47.750,1743496787750,11.8266443665878,46.3769069795946,33.3756,1907.1336,5.01199387744,1
2025-04-01T10:39:47.870,1743496787870,11.8266474883228,46.3769109595069,33.3756,1907.1336,5.01199387744,1
2025-04-01T10:39:47.970,1743496787970,11.8266506487405,46.376914866519,33.49752,1907.1336,5.01199387744,1
2025-04-01T10:39:48.070,1743496788070,11.8266538018587,46.3769188121736,33.49752,1907.1336,4.92443662304,1
2025-04-01T10:39:48.170,1743496788170,11.8266571187952,46.3769227354924,33.49752,1907.1336,4.92443662304,1
2025-04-01T10:39:48.280,1743496788280,11.8266608379532,46.376927329027,33.49752,1907.1336,4.92443662304,1
2025-04-01T10:39:48.380,1743496788380,11.826664088697,46.3769312800258,33.49752,1907.1336,4.92443662304,1
2025-04-01T10:39:48.480,1743496788480,11.826667360545,46.3769352154032,33.58896,1907.4384,4.92443662304,1
2025-04-01T10:39:48.580,1743496788580,11.826669954625,46.3769383312015,33.58896,1907.4384,4.97394004448,1
2025-04-01T10:39:48.690,1743496788690,11.8266731633094,46.3769421747685,33.58896,1907.4384,4.83736261888,1
2025-04-01T10:39:48.750,1743496788750,11.8266763447817,46.3769461545438,33.58896,1907.4384,4.83736261888,1
2025-04-01T10:39:48.850,1743496788850,11.8266798631269,46.3769503652153,33.58896,1907.4384,4.92443662304,1
2025-04-01T10:39:48.950,1743496788950,11.8266830765783,46.3769542807233,33.58896,1907.4384,4.92443662304,1
2025-04-01T10:39:49.050,1743496789050,11.8266862996632,46.3769581114094,33.6804,1907.4384,4.92443662304,1
2025-04-01T10:39:49.150,1743496789150,11.8266894830225,46.3769620547346,33.6804,1907.4384,4.92443662304,1
2025-04-01T10:39:49.250,1743496789250,11.8266927819336,46.3769658678808,33.6804,1907.4384,4.92443662304,1
2025-04-01T10:39:49.350,1743496789350,11.8266959332641,46.3769697984622,33.6804,1907.4384,4.92443662304,1
2025-04-01T10:39:49.450,1743496789450,11.8266991293852,46.3769736716277,33.6804,1907.4384,4.92443662304,1
2025-04-01T10:39:49.550,1743496789550,11.8267023060905,46.3769776159121,33.77184,1907.4384,4.92443662304,1
2025-04-01T10:39:49.650,1743496789650,11.8267054956072,46.3769815563596,33.77184,1907.4384,4.92443662304,1
2025-04-01T10:39:49.750,1743496789750,11.8267084142948,46.3769852402862,33.77184,1907.4384,4.92443662304,1
2025-04-01T10:39:49.850,1743496789850,11.8267118846217,46.3769893688765,33.77184,1907.4384,4.92443662304,1
2025-04-01T10:39:49.950,1743496789950,11.8267150744861,46.3769932583487,33.77184,1907.4384,4.92443662304,1
2025-04-01T10:39:50.050,1743496790050,11.826718249652,46.3769970573808,33.89376,1907.7432,4.92443662304,1
2025-04-01T10:39:50.150,1743496790150,11.8267213730257,46.3770009395903,33.89376,1907.7432,4.92443662304,1
2025-04-01T10:39:50.250,1743496790250,11.8267244643707,46.3770048349548,33.89376,1907.7432,4.78853556896,1
2025-04-01T10:39:50.350,1743496790350,11.8267275321285,46.3770086966099,33.89376,1907.7432,4.78853556896,1
2025-04-01T10:39:50.450,1743496790450,11.8267305897564,46.3770125507282,33.89376,1907.7432,4.78853556896,1
2025-04-01T10:39:50.550,1743496790550,11.8267332994875,46.3770161257155,33.89376,1907.7432,4.78853556896,1
2025-04-01T10:39:50.650,1743496790650,11.8267363340745,46.3770199631162,33.9852,1907.7432,4.78853556896,1
2025-04-01T10:39:50.720,1743496790720,11.8267395038774,46.3770239746825,33.9852,1907.7432,4.8764821952,1
2025-04-01T10:39:50.820,1743496790820,11.8267428045761,46.377028158222,33.9852,1907.7432,4.8764821952,1
2025-04-01T10:39:50.950,1743496790950,11.8267458983046,46.3770320698931,33.9852,1907.7432,4.8764821952,1
2025-04-01T10:39:51.030,1743496791030,11.8267490620494,46.3770359027718,33.9852,1907.7432,4.8764821952,1
2025-04-01T10:39:51.130,1743496791130,11.8267521409304,46.3770398063581,33.9852,1907.7432,4.8764821952,1
2025-04-01T10:39:51.250,1743496791250,11.826755063094,46.3770437040521,33.9852,1907.7432,4.8764821952,1
2025-04-01T10:39:51.330,1743496791330,11.8267581307526,46.3770475917429,34.07664,1907.7432,4.78853556896,1
2025-04-01T10:39:51.450,1743496791450,11.826761318879,46.3770514614827,34.07664,1907.7432,4.78853556896,1
2025-04-01T10:39:51.550,1743496791550,11.8267643992,46.3770553435553,34.07664,1907.7432,4.78853556896,1
2025-04-01T10:39:51.640,1743496791640,11.8267674558348,46.3770592180911,34.07664,1907.7432,4.78853556896,1
2025-04-01T10:39:51.740,1743496791740,11.8267702164146,46.3770627908859,34.07664,1907.7432,4.78853556896,1
2025-04-01T10:39:51.850,1743496791850,11.8267735711401,46.377067017179,34.07664,1907.7432,4.78853556896,1
2025-04-01T10:39:51.950,1743496791950,11.8267766317474,46.3770708681456,34.07664,1907.7432,4.78853556896,1
2025-04-01T10:39:52.050,1743496792050,11.8267796862468,46.3770747680321,34.19856,1908.048,4.78853556896,1
2025-04-01T10:39:52.150,1743496792150,11.8267827734702,46.3770786195469,34.19856,1908.048,4.78853556896,1
2025-04-01T10:39:52.250,1743496792250,11.8267859904472,46.3770825765751,34.19856,1908.048,4.78853556896,1
2025-04-01T10:39:52.360,1743496792360,11.8267890766278,46.3770864554959,34.19856,1908.048,4.8764821952,1
2025-04-01T10:39:52.460,1743496792460,11.826792137682,46.3770903446941,34.19856,1908.048,4.8764821952,1
2025-04-01T10:39:52.560,1743496792560,11.8267947741691,46.3770937285239,34.19856,1908.048,4.8764821952,1
2025-04-01T10:39:52.670,1743496792670,11.8267977776212,46.3770975907271,34.19856,1908.048,4.8764821952,1
2025-04-01T10:39:52.770,1743496792770,11.8268009041233,46.3771016909521,34.29,1908.048,4.8764821952,1
2025-04-01T10:39:52.870,1743496792870,11.826804175723,46.37710598439,34.29,1908.048,4.8764821952,1
2025-04-01T10:39:52.970,1743496792970,11.8268072112535,46.3771099279892,34.29,1908.048,4.8764821952,1
2025-04-01T10:39:53.070,1743496793070,11.826810295845,46.3771138325348,34.29,1908.048,4.8764821952,1
2025-04-01T10:39:53.170,1743496793170,11.8268133378309,46.3771177603755,34.29,1908.048,4.8764821952,1
2025-04-01T10:39:53.280,1743496793280,11.8268164306656,46.3771215847582,34.29,1908.048,4.8764821952,1
2025-04-01T10:39:53.380,1743496793380,11.8268194975793,46.3771254705306,34.29,1908.048,4.78853556896,1
2025-04-01T10:39:53.480,1743496793480,11.826822707505,46.3771295508862,34.29,1908.048,4.78853556896,1
2025-04-01T10:39:53.580,1743496793580,11.8268257908055,46.3771334367956,34.38144,1908.048,4.78853556896,1
2025-04-01T10:39:53.680,1743496793680,11.8268288705307,46.3771373340786,34.38144,1908.048,4.78853556896,1
2025-04-01T10:39:53.790,1743496793790,11.8268314253817,46.3771405441538,34.38144,1908.048,4.8764821952,1
2025-04-01T10:39:53.850,1743496793850,11.8268347262791,46.3771448914447,34.38144,1908.048,4.8764821952,1
2025-04-01T10:39:53.950,1743496793950,11.8268378264629,46.377148826274,34.38144,1908.048,4.92443662304,1
2025-04-01T10:39:54.050,1743496794050,11.8268409276399,46.3771526891623,34.38144,1908.048,4.92443662304,1
2025-04-01T10:39:54.150,1743496794150,11.8268440624843,46.3771566405722,34.38144,1908.048,4.92443662304,1
2025-04-01T10:39:54.250,1743496794250,11.8268471055627,46.3771605807457,34.38144,1908.048,4.96488480224,1
2025-04-01T10:39:54.350,1743496794350,11.8268501816133,46.3771645665503,34.38144,1908.048,4.96488480224,1
2025-04-01T10:39:54.450,1743496794450,11.826853216548,46.3771685760612,34.38144,1908.048,4.96488480224,1
2025-04-01T10:39:54.550,1743496794550,11.826855851446,46.3771723128814,34.38144,1908.048,4.91935735456,1
2025-04-01T10:39:54.650,1743496794650,11.8268587726662,46.3771763307512,34.38144,1908.048,4.91935735456,1
2025-04-01T10:39:54.750,1743496794750,11.8268618435524,46.3771803549243,34.38144,1908.048,5.00900005056,1
2025-04-01T10:39:54.850,1743496794850,11.8268652787222,46.3771846994746,34.47288,1908.3528,4.96488480224,1
2025-04-01T10:39:54.950,1743496794950,11.8268683281566,46.3771887169332,34.47288,1908.3528,4.96488480224,1
2025-04-01T10:39:55.050,1743496795050,11.8268714009298,46.3771927450802,34.47288,1908.3528,4.96488480224,1
2025-04-01T10:39:55.150,1743496795150,11.8268744999219,46.3771967395177,34.47288,1908.3528,4.96488480224,1
2025-04-01T10:39:55.250,1743496795250,11.8268776373485,46.3772007561542,34.47288,1908.3528,4.96488480224,1
2025-04-01T10:39:55.350,1743496795350,11.826880798809,46.3772047282557,34.47288,1908.3528,4.92443662304,1
2025-04-01T10:39:55.450,1743496795450,11.8268840664362,46.3772085182438,34.47288,1908.3528,4.92443662304,1
2025-04-01T10:39:55.550,1743496795550,11.8268872944371,46.3772124492362,34.47288,1908.3528,4.92443662304,1
2025-04-01T10:39:55.650,1743496795650,11.8268905368385,46.3772163866691,34.47288,1908.3528,4.92443662304,1
2025-04-01T10:39:55.720,1743496795720,11.826893450908,46.377220126093,34.47288,1908.3528,5.01199387744,1
2025-04-01T10:39:55.830,1743496795830,11.8268969520222,46.3772242956554,34.47288,1908.3528,5.01199387744,1
2025-04-01T10:39:55.950,1743496795950,11.8269001787321,46.3772282752936,34.47288,1908.3528,5.01199387744,1
2025-04-01T10:39:56.030,1743496796030,11.8269033577712,46.3772324225201,34.47288,1908.3528,5.01199387744,1
2025-04-01T10:39:56.130,1743496796130,11.8269065735565,46.3772364106542,34.5948,1908.3528,5.01199387744,1
2025-04-01T10:39:56.230,1743496796230,11.82690978815,46.3772403808373,34.5948,1908.3528,4.92443662304,1
2025-04-01T10:39:56.330,1743496796330,11.8269126377648,46.377243885528,34.5948,1908.3528,4.92443662304,1
2025-04-01T10:39:56.450,1743496796450,11.8269158272319,46.3772477685598,34.5948,1908.3528,4.92443662304,1
2025-04-01T10:39:56.540,1743496796540,11.8269192390629,46.377251586228,34.5948,1908.3528,4.83736261888,1
2025-04-01T10:39:56.640,1743496796640,11.8269224823581,46.3772554018408,34.5948,1908.3528,4.83736261888,1
2025-04-01T10:39:56.740,1743496796740,11.8269259888353,46.3772592669216,34.68624,1908.3528,4.8877476032,1
2025-04-01T10:39:56.840,1743496796840,11.8269296317698,46.3772634437466,34.68624,1908.3528,4.8877476032,1
2025-04-01T10:39:56.950,1743496796950,11.8269329553107,46.3772672864914,34.68624,1908.3528,4.8877476032,1
2025-04-01T10:39:57.050,1743496797050,11.8269362265132,46.3772711492427,34.68624,1908.3528,4.8877476032,1
2025-04-01T10:39:57.160,1743496797160,11.8269395223455,46.377274989795,34.68624,1908.3528,4.83736261888,1
2025-04-01T10:39:57.260,1743496797260,11.8269427170763,46.377278707568,34.68624,1908.3528,4.83736261888,1
2025-04-01T10:39:57.360,1743496797360,11.8269459583853,46.3772825137257,34.68624,1908.3528,4.83736261888,1
2025-04-01T10:39:57.460,1743496797460,11.8269491542085,46.3772863682551,34.77768,1908.6576,4.78853556896,1
2025-04-01T10:39:57.560,1743496797560,11.8269523097102,46.3772902353914,34.77768,1908.6576,4.78853556896,1
2025-04-01T10:39:57.660,1743496797660,11.8269554309487,46.3772941441849,34.77768,1908.6576,4.8764821952,1
2025-04-01T10:39:57.770,1743496797770,11.8269583169124,46.3772976901217,34.77768,1908.6576,4.8764821952,1
2025-04-01T10:39:57.870,1743496797870,11.8269613546278,46.3773016006966,34.77768,1908.6576,4.8764821952,1
2025-04-01T10:39:57.950,1743496797950,11.8269644937427,46.3773056715971,34.77768,1908.6576,4.96488480224,1
2025-04-01T10:39:58.070,1743496798070,11.8269675157665,46.3773096661717,34.77768,1908.6576,4.96488480224,1
2025-04-01T10:39:58.170,1743496798170,11.8269706255838,46.377313740498,34.77768,1908.6576,4.96488480224,1
2025-04-01T10:39:58.280,1743496798280,11.8269740489352,46.3773179678872,34.77768,1908.6576,5.05371969696,1
2025-04-01T10:39:58.380,1743496798380,11.8269771706702,46.3773220346768,34.77768,1908.6576,5.05371969696,1
2025-04-01T10:39:58.480,1743496798480,11.8269803013434,46.3773261013294,34.77768,1908.6576,5.05371969696,1
2025-04-01T10:39:58.580,1743496798580,11.8269830560141,46.3773299422928,34.77768,1908.6576,5.05371969696,1
2025-04-01T10:39:58.680,1743496798680,11.8269866888186,46.3773345961208,34.77768,1908.6576,4.96488480224,1
2025-04-01T10:39:58.790,1743496798790,11.8269898498819,46.3773386679805,34.77768,1908.6576,4.96488480224,1
2025-04-01T10:39:58.850,1743496798850,11.8269926298777,46.377342257082,34.77768,1908.6576,4.96488480224,1
2025-04-01T10:39:58.950,1743496798950,11.8269957614447,46.3773462439828,34.8996,1908.6576,4.96488480224,1
2025-04-01T10:39:59.050,1743496799050,11.826998864608,46.3773503657216,34.8996,1908.6576,4.8764821952,1
2025-04-01T10:39:59.150,1743496799150,11.8270020101783,46.3773543175427,34.8996,1908.6576,4.8764821952,1
2025-04-01T10:39:59.250,1743496799250,11.827005266583,46.3773581871454,34.8996,1908.6576,4.92443662304,1
2025-04-01T10:39:59.350,1743496799350,11.8270084553549,46.3773621059422,34.8996,1908.6576,4.92443662304,1
2025-04-01T10:39:59.450,1743496799450,11.8270114653617,46.3773661224416,34.8996,1908.6576,4.92443662304,1
2025-04-01T10:39:59.550,1743496799550,11.8270146345688,46.3773700368533,34.99104,1908.6576,4.92443662304,1
2025-04-01T10:39:59.650,1743496799650,11.8270178005978,46.3773739403026,34.99104,1908.6576,4.92443662304,1
2025-04-01T10:39:59.750,1743496799750,11.8270207422766,46.3773775735279,34.99104,1908.6576,4.92443662304,1
2025-04-01T10:39:59.850,1743496799850,11.827024155498,46.3773817611783,34.99104,1908.6576,4.92443662304,1
2025-04-01T10:39:59.950,1743496799950,11.8270273488383,46.3773856999815,34.99104,1908.6576,4.92443662304,1
2025-04-01T10:40:00.050,1743496800050,11.8270305927295,46.3773897641675,34.99104,1908.6576,4.92443662304,1
2025-04-01T10:40:00.150,1743496800150,11.8270337961998,46.3773937029706,34.99104,1908.6576,4.92443662304,1
2025-04-01T10:40:00.250,1743496800250,11.8270370984875,46.3773975010435,35.08248,1908.9624,4.92443662304,1
2025-04-01T10:40:00.310,1743496800310,11.8270403303616,46.3774013669465,35.08248,1908.9624,4.83736261888,1
2025-04-01T10:40:00.450,1743496800450,11.8270435709754,46.377405217502,35.08248,1908.9624,4.83736261888,1
2025-04-01T10:40:00.550,1743496800550,11.8270465582393,46.3774087735791,35.08248,1908.9624,4.83736261888,1
2025-04-01T10:40:00.650,1743496800650,11.82704977035,46.3774126083762,35.08248,1908.9624,4.83736261888,1
2025-04-01T10:40:00.720,1743496800720,11.8270531749311,46.3774165537568,35.08248,1908.9624,4.83736261888,1
2025-04-01T10:40:00.830,1743496800830,11.8270565934162,46.377420736063,35.08248,1908.9624,4.92443662304,1
2025-04-01T10:40:00.930,1743496800930,11.8270597660992,46.3774246297832,35.08248,1908.9624,4.8764821952,1
2025-04-01T10:40:01.030,1743496801030,11.8270629164366,46.377428458825,35.08248,1908.9624,4.78853556896,1
2025-04-01T10:40:01.130,1743496801130,11.8270660905101,46.3774323417197,35.17392,1908.9624,4.78853556896,1
2025-04-01T10:40:01.250,1743496801250,11.8270696806096,46.3774365618463,35.17392,1908.9624,4.83736261888,1
2025-04-01T10:40:01.340,1743496801340,11.8270729330417,46.3774404688584,35.17392,1908.9624,4.83736261888,1
2025-04-01T10:40:01.450,1743496801450,11.8270757758038,46.377443882835,35.17392,1908.9624,4.83736261888,1
2025-04-01T10:40:01.550,1743496801550,11.8270789692435,46.3774477451751,35.17392,1908.9624,4.83736261888,1
2025-04-01T10:40:01.650,1743496801650,11.8270821475874,46.3774516142298,35.17392,1908.9624,4.83736261888,1
2025-04-01T10:40:01.750,1743496801750,11.8270851138961,46.3774551271423,35.17392,1908.9624,4.92443662304,1
2025-04-01T10:40:01.850,1743496801850,11.8270885871031,46.3774593412396,35.17392,1908.9624,4.92443662304,1
2025-04-01T10:40:01.950,1743496801950,11.8270917969295,46.3774632755208,35.17392,1908.9624,4.92443662304,1
2025-04-01T10:40:02.050,1743496802050,11.8270949772598,46.3774671811626,35.17392,1908.9624,4.8764821952,1
2025-04-01T10:40:02.160,1743496802160,11.8270981106145,46.3774711584713,35.17392,1908.9624,4.96488480224,1
2025-04-01T10:40:02.250,1743496802250,11.8271012752532,46.3774749861428,35.17392,1908.9624,4.96488480224,1
2025-04-01T10:40:02.360,1743496802360,11.8271043351156,46.3774789866096,35.17392,1908.9624,4.96488480224,1
2025-04-01T10:40:02.460,1743496802460,11.8271073436327,46.3774830087273,35.17392,1908.9624,4.91935735456,1
2025-04-01T10:40:02.560,1743496802560,11.8271100901597,46.3774867588395,35.29584,1908.9624,5.00900005056,1
2025-04-01T10:40:02.670,1743496802670,11.8271129485141,46.3774908095966,35.29584,1908.9624,4.96589153632,1
2025-04-01T10:40:02.770,1743496802770,11.8271158469914,46.3774950161572,35.29584,1908.9624,4.96589153632,1
2025-04-01T10:40:02.870,1743496802870,11.8271191873163,46.3774993528968,35.29584,1908.9624,4.96589153632,1
2025-04-01T10:40:02.970,1743496802970,11.8271220784444,46.3775034395558,35.29584,1908.9624,4.96589153632,1
2025-04-01T10:40:03.070,1743496803070,11.827125012476,46.3775075022345,35.29584,1908.9624,5.00900005056,1
2025-04-01T10:40:03.170,1743496803170,11.8271277209656,46.3775112524837,35.29584,1908.9624,4.91935735456,1
2025-04-01T10:40:03.280,1743496803280,11.8271310085549,46.3775156547239,35.29584,1908.9624,4.96488480224,1
2025-04-01T10:40:03.380,1743496803380,11.8271340638489,46.3775197158952,35.29584,1908.9624,4.91935735456,1
2025-04-01T10:40:03.480,1743496803480,11.8271369511037,46.3775237158139,35.29584,1908.9624,5.00900005056,1
2025-04-01T10:40:03.580,1743496803580,11.8271399156247,46.3775277908254,35.29584,1908.9624,5.00900005056,1
2025-04-01T10:40:03.680,1743496803680,11.827142849855,46.3775318563817,35.38728,1909.2672,5.00900005056,1
2025-04-01T10:40:03.780,1743496803780,11.8271455274581,46.3775356089604,35.38728,1909.2672,4.91935735456,1
2025-04-01T10:40:03.890,1743496803890,11.8271490234079,46.377540238123,35.38728,1909.2672,4.91935735456,1
2025-04-01T10:40:03.950,1743496803950,11.8271520961811,46.3775442853172,35.47872,1909.2672,4.96488480224,1
2025-04-01T10:40:04.050,1743496804050,11.8271550060795,46.3775480237819,35.47872,1909.2672,4.96488480224,1
2025-04-01T10:40:04.150,1743496804150,11.8271581294035,46.37755198958,35.47872,1909.2672,4.8764821952,1
2025-04-01T10:40:04.250,1743496804250,11.827161265241,46.3775559307127,35.47872,1909.2672,4.8764821952,1
2025-04-01T10:40:04.350,1743496804350,11.8271640565585,46.3775593996384,35.47872,1909.2672,4.8764821952,1
2025-04-01T10:40:04.450,1743496804450,11.8271671772011,46.3775632823961,35.47872,1909.2672,4.8764821952,1
2025-04-01T10:40:04.550,1743496804550,11.8271704224826,46.3775673021843,35.47872,1909.2672,4.8764821952,1
2025-04-01T10:40:04.650,1743496804650,11.8271735646763,46.3775712252289,35.47872,1909.2672,5.01199387744,1
2025-04-01T10:40:04.750,1743496804750,11.8271767079624,46.3775751617026,35.57016,1909.2672,5.01199387744,1
2025-04-01T10:40:04.850,1743496804850,11.8271801578306,46.3775796183438,35.57016,1909.2672,4.96488480224,1
2025-04-01T10:40:04.950,1743496804950,11.8271832567234,46.3775836486833,35.57016,1909.2672,4.96488480224,1
2025-04-01T10:40:05.050,1743496805050,11.8271862043611,46.3775876453133,35.57016,1909.2672,4.96488480224,1
2025-04-01T10:40:05.150,1743496805150,11.8271892353232,46.3775916929186,35.57016,1909.2672,4.96488480224,1
2025-04-01T10:40:05.250,1743496805250,11.8271924812999,46.3775957027036,35.57016,1909.2672,5.05371969696,1
2025-04-01T10:40:05.350,1743496805350,11.827195586946,46.3775997581196,35.57016,1909.2672,5.05371969696,1
2025-04-01T10:40:05.450,1743496805450,11.8271987168247,46.3776037962698,35.57016,1909.2672,4.96488480224,1
2025-04-01T10:40:05.550,1743496805550,11.8272014353451,46.3776075226758,35.57016,1909.2672,5.01199387744,1
2025-04-01T10:40:05.650,1743496805650,11.8272045682032,46.3776114413355,35.47872,1909.2672,4.92443662304,1
2025-04-01T10:40:05.720,1743496805720,11.8272079952292,46.3776151924069,35.47872,1909.2672,4.92443662304,1
2025-04-01T10:40:05.850,1743496805850,11.8272114109335,46.3776194382953,35.47872,1909.2672,4.83736261888,1
2025-04-01T10:40:05.950,1743496805950,11.8272146734956,46.3776232855621,35.47872,1909.2672,4.83736261888,1
2025-04-01T10:40:06.050,1743496806050,11.8272179938585,46.3776271346103,35.47872,1909.2672,4.8877476032,1
2025-04-01T10:40:06.130,1743496806130,11.8272212910812,46.377630945427,35.57016,1909.2672,4.8877476032,1
2025-04-01T10:40:06.230,1743496806230,11.8272244878975,46.3776348332548,35.57016,1909.2672,4.8877476032,1
2025-04-01T10:40:06.330,1743496806330,11.8272277430112,46.377638610088,35.57016,1909.2672,4.7507968992,1
2025-04-01T10:40:06.450,1743496806450,11.8272309331735,46.3776423776031,35.57016,1909.2672,4.70107129888,1
2025-04-01T10:40:06.550,1743496806550,11.8272339700944,46.37764607674,35.57016,1909.2672,4.5650920128,1
2025-04-01T10:40:06.640,1743496806640,11.8272369681836,46.3776497609406,35.57016,1909.2672,4.5650920128,1
2025-04-01T10:40:06.740,1743496806740,11.8272398105484,46.3776529740305,35.69208,1909.572,4.61411620736,1
2025-04-01T10:40:06.850,1743496806850,11.8272432878273,46.377657067267,35.69208,1909.572,4.61411620736,1
2025-04-01T10:40:06.950,1743496806950,11.8272464299216,46.377660771474,35.69208,1909.572,4.70107129888,1
2025-04-01T10:40:07.040,1743496807040,11.8272496260427,46.3776643770191,35.69208,1909.572,4.7507968992,1
2025-04-01T10:40:07.150,1743496807150,11.8272527899861,46.3776680704007,35.69208,1909.572,4.66476896864,1
2025-04-01T10:40:07.250,1743496807250,11.8272559527378,46.3776717528199,35.69208,1909.572,4.66476896864,1
2025-04-01T10:40:07.350,1743496807350,11.8272587712673,46.3776750130483,35.69208,1909.572,4.66476896864,1
2025-04-01T10:40:07.450,1743496807450,11.8272620781235,46.3776790417434,35.69208,1909.572,4.66476896864,1
2025-04-01T10:40:07.550,1743496807550,11.8272652328307,46.3776827373175,35.69208,1909.572,4.66476896864,1
2025-04-01T10:40:07.650,1743496807650,11.8272683852537,46.3776864422097,35.69208,1909.572,4.70107129888,1
2025-04-01T10:40:07.760,1743496807760,11.827271281844,46.3776897728718,35.69208,1909.572,4.70107129888,1
2025-04-01T10:40:07.850,1743496807850,11.8272743917606,46.3776934844784,35.69208,1909.572,4.70107129888,1
2025-04-01T10:40:07.960,1743496807960,11.8272775118073,46.3776973688805,35.69208,1909.572,4.70107129888,1
2025-04-01T10:40:08.060,1743496808060,11.8272807126955,46.3777013063134,35.69208,1909.572,4.78853556896,1
2025-04-01T10:40:08.170,1743496808170,11.8272838042391,46.3777051198707,35.69208,1909.572,4.78853556896,1
2025-04-01T10:40:08.270,1743496808270,11.8272869894356,46.3777089889254,35.69208,1909.572,4.78853556896,1
2025-04-01T10:40:08.370,1743496808370,11.82729014166,46.3777128574319,35.69208,1909.572,4.8764821952,1
2025-04-01T10:40:08.480,1743496808480,11.8272933546645,46.3777167830801,35.69208,1909.572,4.92443662304,1
2025-04-01T10:40:08.580,1743496808580,11.8272962278166,46.3777203228506,35.69208,1909.572,5.0606403232,1
2025-04-01T10:40:08.680,1743496808680,11.8272995456966,46.3777243157808,35.69208,1909.572,5.0606403232,1
2025-04-01T10:40:08.780,1743496808780,11.8273029204835,46.3777284720513,35.78352,1909.572,5.19712297632,1
2025-04-01T10:40:08.890,1743496808890,11.8273063405575,46.3777324966355,35.78352,1909.572,5.11078122368,1
2025-04-01T10:40:08.950,1743496808950,11.8273097889361,46.3777364758626,35.78352,1909.572,5.11078122368,1
2025-04-01T10:40:09.050,1743496809050,11.8273138621979,46.3777410515833,35.78352,1909.572,5.02494596736,1
2025-04-01T10:40:09.150,1743496809150,11.8273173937022,46.377744997512,35.78352,1909.572,5.07740924064,1
2025-04-01T10:40:09.250,1743496809250,11.8273205647962,46.3777485513966,35.78352,1909.572,4.9930031712,1
2025-04-01T10:40:09.350,1743496809350,11.8273240838862,46.3777524049669,35.78352,1909.572,4.9930031712,1
2025-04-01T10:40:09.450,1743496809450,11.8273275480557,46.3777561926254,35.78352,1909.572,4.9930031712,1
2025-04-01T10:40:09.550,1743496809550,11.8273310747929,46.3777600292039,35.78352,1909.572,4.9930031712,1
2025-04-01T10:40:09.650,1743496809650,11.8273346044102,46.3777638798965,35.78352,1909.572,4.9930031712,1
2025-04-01T10:40:09.750,1743496809750,11.8273379099753,46.3777675306616,35.78352,1909.572,5.07740924064,1
2025-04-01T10:40:09.850,1743496809850,11.8273416149811,46.3777717707947,35.78352,1909.572,5.02494596736,1
2025-04-01T10:40:09.950,1743496809950,11.8273450746814,46.3777756780809,35.69208,1909.572,5.02494596736,1
2025-04-01T10:40:10.050,1743496810050,11.8273485225634,46.377779580708,35.69208,1909.572,5.02494596736,1
2025-04-01T10:40:10.150,1743496810150,11.8273518058821,46.3777830836173,35.69208,1909.572,4.93964358272,1
2025-04-01T10:40:10.250,1743496810250,11.8273555562743,46.3777872709937,35.69208,1909.572,4.93964358272,1
2025-04-01T10:40:10.350,1743496810350,11.8273589900537,46.3777910920877,35.69208,1909.572,4.93964358272,1
2025-04-01T10:40:10.450,1743496810450,11.8273624195626,46.3777948939974,35.69208,1909.572,4.93964358272,1
2025-04-01T10:40:10.550,1743496810550,11.8273655947285,46.3777983670341,35.78352,1909.572,4.93964358272,1
2025-04-01T10:40:10.620,1743496810620,11.8273690261243,46.3778021387971,35.78352,1909.572,4.93964358272,1
2025-04-01T10:40:10.730,1743496810730,11.8273725462075,46.3778060266935,35.78352,1909.572,4.93964358272,1
2025-04-01T10:40:10.850,1743496810850,11.8273763454622,46.3778101663833,35.78352,1909.572,4.93964358272,1
2025-04-01T10:40:11.030,1743496811030,11.8273833946661,46.377817978215,35.78352,1909.572,4.93964358272,1
2025-04-01T10:40:11.130,1743496811130,11.8273869023351,46.3778218224671,35.78352,1909.572,4.93964358272,1
2025-04-01T10:40:11.240,1743496811240,11.8273903256865,46.3778255144099,35.69208,1909.572,4.93964358272,1
2025-04-01T10:40:11.340,1743496811340,11.8273938291843,46.3778293215268,35.69208,1909.572,4.93964358272,1
2025-04-01T10:40:11.450,1743496811450,11.8273973726062,46.3778331557757,35.69208,1909.572,4.93964358272,1
2025-04-01T10:40:11.540,1743496811540,11.8274008766006,46.3778369773493,35.69208,1909.572,4.93964358272,1
2025-04-01T10:40:11.640,1743496811640,11.8274047747719,46.3778410366708,35.69208,1909.572,4.93964358272,1
2025-04-01T10:40:11.750,1743496811750,11.827408305581,46.3778449023682,35.69208,1909.572,4.93964358272,1
2025-04-01T10:40:11.850,1743496811850,11.8274114283091,46.3778483941095,35.69208,1909.572,4.93964358272,1
2025-04-01T10:40:11.950,1743496811950,11.8274148926772,46.3778522148609,35.69208,1909.572,4.93964358272,1
2025-04-01T10:40:12.050,1743496812050,11.8274185051224,46.3778560976871,35.69208,1909.572,4.93964358272,1
2025-04-01T10:40:12.150,1743496812150,11.8274219553879,46.3778598928139,35.69208,1909.572,4.85490223328,1
2025-04-01T10:40:12.260,1743496812260,11.8274252809151,46.3778635715332,35.69208,1909.572,4.85490223328,1
2025-04-01T10:40:12.360,1743496812360,11.8274286866879,46.3778673482294,35.78352,1909.572,4.80209071584,1
2025-04-01T10:40:12.460,1743496812460,11.8274320737898,46.3778711271865,35.69208,1909.572,4.80209071584,1
2025-04-01T10:40:12.550,1743496812550,11.8274353286054,46.3778745959752,35.69208,1909.572,4.8877476032,1
2025-04-01T10:40:12.660,1743496812660,11.8274386884952,46.3778783531445,35.69208,1909.572,4.8877476032,1
2025-04-01T10:40:12.770,1743496812770,11.8274421447195,46.3778822601566,35.69208,1909.572,4.93964358272,1
2025-04-01T10:40:12.870,1743496812870,11.8274457826884,46.377886429719,35.69208,1909.572,4.93964358272,1
2025-04-01T10:40:12.970,1743496812970,11.8274491708827,46.3778902530055,35.69208,1909.572,4.93964358272,1
2025-04-01T10:40:13.070,1743496813070,11.8274525642413,46.3778940745106,35.69208,1909.572,4.8877476032,1
2025-04-01T10:40:13.170,1743496813170,11.8274559396241,46.3778978915622,35.69208,1909.572,4.8877476032,1
2025-04-01T10:40:13.270,1743496813270,11.8274593475818,46.3779016594199,35.69208,1909.572,4.8877476032,1
2025-04-01T10:40:13.370,1743496813370,11.8274627210776,46.3779054692089,35.69208,1909.572,4.8877476032,1
2025-04-01T10:40:13.480,1743496813480,11.8274661635966,46.3779090846887,35.69208,1909.572,4.8877476032,1
2025-04-01T10:40:13.550,1743496813550,11.8274695297432,46.3779129100992,35.69208,1909.572,4.8877476032,1
2025-04-01T10:40:13.680,1743496813680,11.8274728894344,46.377916757229,35.69208,1909.572,4.8877476032,1
2025-04-01T10:40:13.780,1743496813780,11.8274760273576,46.3779203441379,35.69208,1909.572,4.97394004448,1
2025-04-01T10:40:13.880,1743496813880,11.8274796931343,46.3779245317884,35.69208,1909.572,4.97394004448,1
2025-04-01T10:40:13.980,1743496813980,11.8274830292881,46.3779284355802,35.78352,1909.572,4.97394004448,1
2025-04-01T10:40:14.090,1743496814090,11.8274862942338,46.3779323410165,35.78352,1909.572,4.97394004448,1
2025-04-01T10:40:14.150,1743496814150,11.8274896067509,46.3779362415196,35.78352,1909.572,4.97394004448,1
2025-04-01T10:40:14.250,1743496814250,11.8274930340748,46.3779403158459,35.78352,1909.572,4.97394004448,1
2025-04-01T10:40:14.350,1743496814350,11.8274963343763,46.3779442388906,35.78352,1909.572,4.97394004448,1
2025-04-01T10:40:14.450,1743496814450,11.8274996200786,46.3779481711163,35.78352,1909.572,4.97394004448,1
2025-04-01T10:40:14.550,1743496814550,11.8275023039384,46.3779515727601,35.78352,1909.572,4.92443662304,1
2025-04-01T10:40:14.650,1743496814650,11.8275055176381,46.3779554582584,35.78352,1909.572,4.92443662304,1
2025-04-01T10:40:14.750,1743496814750,11.8275088118814,46.3779592507815,35.78352,1909.572,4.92443662304,1
2025-04-01T10:40:14.850,1743496814850,11.8275122493354,46.377963627808,35.78352,1909.572,4.92443662304,1
2025-04-01T10:40:14.950,1743496814950,11.8275154970005,46.3779675642132,35.78352,1909.572,4.92443662304,1
2025-04-01T10:40:15.050,1743496815050,11.827518750823,46.377971447382,35.78352,1909.572,4.92443662304,1
2025-04-01T10:40:15.150,1743496815150,11.8275220183509,46.3779753855685,35.78352,1909.572,4.97394004448,1
2025-04-01T10:40:15.250,1743496815250,11.8275252954128,46.3779793927498,35.78352,1909.572,4.97394004448,1
2025-04-01T10:40:15.350,1743496815350,11.8275285821083,46.3779833287439,35.78352,1909.572,4.97394004448,1
2025-04-01T10:40:15.450,1743496815450,11.8275318458622,46.3779872686433,35.78352,1909.572,4.97394004448,1
2025-04-01T10:40:15.550,1743496815550,11.8275351324583,46.3779911817532,35.78352,1909.572,4.97394004448,1
2025-04-01T10:40:15.650,1743496815650,11.8275383984965,46.377995073966,35.78352,1909.572,4.97394004448,1
2025-04-01T10:40:15.750,1743496815750,11.827541327761,46.3779984832835,35.78352,1909.572,4.8877476032,1
2025-04-01T10:40:15.850,1743496815850,11.8275448663166,46.3780027733642,35.78352,1909.572,4.8877476032,1
2025-04-01T10:40:15.950,1743496815950,11.8275481778405,46.3780066270029,35.78352,1909.572,4.8877476032,1
2025-04-01T10:40:16.050,1743496816050,11.8275516336676,46.3780105148993,35.78352,1909.572,4.8877476032,1
2025-04-01T10:40:16.150,1743496816150,11.8275549998142,46.3780143804597,35.78352,1909.572,4.8877476032,1
2025-04-01T10:40:16.250,1743496816250,11.8275583296119,46.3780180651399,35.78352,1909.572,4.8877476032,1
2025-04-01T10:40:16.350,1743496816350,11.8275617096624,46.3780219207655,35.78352,1909.572,4.8877476032,1
2025-04-01T10:40:16.450,1743496816450,11.8275650919972,46.3780257761171,35.78352,1909.572,4.8877476032,1
2025-04-01T10:40:16.550,1743496816550,11.8275682323039,46.378029324178,35.78352,1909.572,4.8877476032,1
2025-04-01T10:40:16.650,1743496816650,11.8275716117585,46.3780331518494,35.78352,1909.572,4.8877476032,1
2025-04-01T10:40:16.750,1743496816750,11.8275751189309,46.3780370451585,35.78352,1909.572,4.8877476032,1
2025-04-01T10:40:16.830,1743496816830,11.8275790848344,46.3780414983739,35.78352,1909.572,4.8877476032,1
2025-04-01T10:40:16.950,1743496816950,11.827582515535,46.3780453862018,35.78352,1909.572,4.8877476032,1
2025-04-01T10:40:17.030,1743496817030,11.8275856030067,46.378048884178,35.78352,1909.572,4.8877476032,1
2025-04-01T10:40:17.130,1743496817130,11.8275889703451,46.3780527241136,35.78352,1909.572,4.8877476032,1
2025-04-01T10:40:17.250,1743496817250,11.8275923287452,46.3780566897748,35.78352,1909.572,4.8877476032,1
2025-04-01T10:40:17.340,1743496817340,11.8275956710564,46.3780605310808,35.78352,1909.572,4.8877476032,1
2025-04-01T10:40:17.440,1743496817440,11.827599069778,46.3780643534766,35.78352,1909.572,4.8877476032,1
2025-04-01T10:40:17.550,1743496817550,11.8276024327465,46.378068207869,35.87496,1909.572,4.8877476032,1
2025-04-01T10:40:17.650,1743496817650,11.8276057977013,46.3780720652075,35.87496,1909.572,4.8877476032,1
2025-04-01T10:40:17.750,1743496817750,11.8276088537898,46.3780754800748,35.87496,1909.572,4.8877476032,1
2025-04-01T10:40:17.850,1743496817850,11.8276124363415,46.3780797076011,35.87496,1909.572,4.8877476032,1
2025-04-01T10:40:17.950,1743496817950,11.827615744588,46.3780835971418,35.87496,1909.572,4.97394004448,1
2025-04-01T10:40:18.050,1743496818050,11.8276191558231,46.3780873510909,35.87496,1909.572,4.97394004448,1
2025-04-01T10:40:18.150,1743496818150,11.8276224800593,46.3780912557049,35.87496,1909.572,4.97394004448,1
2025-04-01T10:40:18.250,1743496818250,11.8276258384594,46.3780952827557,35.87496,1909.572,4.97394004448,1
2025-04-01T10:40:18.360,1743496818360,11.8276291799761,46.3780991926454,35.87496,1909.572,4.97394004448,1
2025-04-01T10:40:18.460,1743496818460,11.8276325179175,46.3781030935597,35.78352,1909.572,4.97394004448,1
2025-04-01T10:40:18.560,1743496818560,11.8276352415029,46.3781061575604,35.78352,1909.572,4.97394004448,1
2025-04-01T10:40:18.660,1743496818660,11.8276385109177,46.3781099761194,35.78352,1909.572,4.97394004448,1
2025-04-01T10:40:18.760,1743496818760,11.8276422230741,46.3781142593486,35.78352,1909.572,4.97394004448,1
2025-04-01T10:40:18.860,1743496818860,11.8276460395101,46.378118345802,35.78352,1909.572,4.8877476032,1
2025-04-01T10:40:18.970,1743496818970,11.8276494459781,46.3781222096495,35.78352,1909.572,4.8877476032,1
2025-04-01T10:40:19.070,1743496819070,11.8276527366461,46.378126145301,35.78352,1909.572,4.8877476032,1
2025-04-01T10:40:19.170,1743496819170,11.8276561407306,46.3781300092855,35.78352,1909.572,4.8877476032,1
2025-04-01T10:40:19.270,1743496819270,11.8276595253496,46.3781339526792,35.78352,1909.572,4.8877476032,1
2025-04-01T10:40:19.370,1743496819370,11.8276629073864,46.3781378403015,35.78352,1909.572,4.97394004448,1
2025-04-01T10:40:19.480,1743496819480,11.8276664826882,46.3781419587515,35.78352,1909.572,4.97394004448,1
2025-04-01T10:40:19.580,1743496819580,11.8276698847864,46.3781458604879,35.78352,1909.572,4.8877476032,1
2025-04-01T10:40:19.680,1743496819680,11.8276733019803,46.3781497503027,35.78352,1909.572,4.8877476032,1
2025-04-01T10:40:19.780,1743496819780,11.8276761246811,46.3781528282121,35.78352,1909.572,4.8877476032,1
2025-04-01T10:40:19.880,1743496819880,11.8276799413157,46.3781569348775,35.78352,1909.572,4.93964358272,1
2025-04-01T10:40:19.990,1743496819990,11.8276833618863,46.3781607713189,35.69208,1909.572,4.93964358272,1
2025-04-01T10:40:20.050,1743496820050,11.8276867705392,46.3781646101584,35.69208,1909.572,4.8877476032,1
2025-04-01T10:40:20.150,1743496820150,11.8276901577404,46.3781684352948,35.69208,1909.572,4.8877476032,1
2025-04-01T10:40:20.250,1743496820250,11.8276933004306,46.3781724357616,35.69208,1909.572,4.8877476032,1
2025-04-01T10:40:20.350,1743496820350,11.8276966487007,46.3781762386306,35.69208,1909.572,4.8877476032,1
2025-04-01T10:40:20.450,1743496820450,11.8277000094843,46.3781800171766,35.69208,1909.572,4.80209071584,1
2025-04-01T10:40:20.550,1743496820550,11.8277031938864,46.3781833003576,35.69208,1909.572,4.80209071584,1
2025-04-01T10:40:20.650,1743496820650,11.82770659956,46.3781870127865,35.57016,1909.2672,4.85490223328,1
2025-04-01T10:40:20.750,1743496820750,11.8277101446703,46.378190815998,35.57016,1909.2672,4.93964358272,1
2025-04-01T10:40:20.850,1743496820850,11.827713842724,46.3781950566792,35.57016,1909.2672,4.93964358272,1
2025-04-01T10:40:20.950,1743496820950,11.8277172835547,46.3781989157307,35.57016,1909.2672,4.93964358272,1
2025-04-01T10:40:21.050,1743496821050,11.8277206199071,46.3782027416893,35.47872,1909.2672,4.8877476032,1
2025-04-01T10:40:21.150,1743496821150,11.8277240293546,46.3782065801176,35.47872,1909.2672,4.8877476032,1
2025-04-01T10:40:21.250,1743496821250,11.8277274332405,46.3782103242005,35.47872,1909.2672,4.8877476032,1
2025-04-01T10:40:21.350,1743496821350,11.8277308609617,46.3782141167236,35.47872,1909.2672,4.93964358272,1
2025-04-01T10:40:21.450,1743496821450,11.8277343397303,46.3782179054785,35.47872,1909.2672,4.93964358272,1
2025-04-01T10:40:21.550,1743496821550,11.8277377944649,46.378221704031,35.38728,1909.2672,4.93964358272,1
2025-04-01T10:40:21.620,1743496821620,11.8277412555556,46.3782255170402,35.38728,1909.2672,4.93964358272,1
2025-04-01T10:40:21.750,1743496821750,11.8277444057937,46.3782290147423,35.38728,1909.2672,4.93964358272,1
2025-04-01T10:40:21.850,1743496821850,11.8277482909549,46.3782332069833,35.38728,1909.2672,4.93964358272,1
2025-04-01T10:40:21.950,1743496821950,11.8277517419156,46.3782370688439,35.29584,1908.9624,4.93964358272,1
2025-04-01T10:40:22.050,1743496822050,11.8277553561484,46.3782411746871,35.29584,1908.9624,4.93964358272,1
2025-04-01T10:40:22.150,1743496822150,11.8277587882395,46.3782450547727,35.29584,1908.9624,4.93964358272,1
2025-04-01T10:40:22.230,1743496822230,11.8277618804782,46.3782485763867,35.17392,1908.9624,4.8877476032,1
2025-04-01T10:40:22.330,1743496822330,11.8277652553644,46.3782523835036,35.17392,1908.9624,4.8877476032,1
2025-04-01T10:40:22.450,1743496822450,11.8277686173398,46.3782561752045,35.17392,1908.9624,4.8877476032,1
2025-04-01T10:40:22.550,1743496822550,11.8277718327279,46.3782594699646,35.17392,1908.9624,4.8877476032,1
2025-04-01T10:40:22.640,1743496822640,11.8277751776213,46.378263238713,35.08248,1908.9624,4.8877476032,1
2025-04-01T10:40:22.740,1743496822740,11.8277786329518,46.3782672167068,35.08248,1908.9624,4.8877476032,1
2025-04-01T10:40:22.850,1743496822850,11.82778202492,46.3782710304697,34.99104,1908.6576,4.93964358272,1
2025-04-01T10:40:22.950,1743496822950,11.8277853731901,46.3782749528977,34.99104,1908.6576,4.93964358272,1
2025-04-01T10:40:23.050,1743496823050,11.8277891822768,46.378279083749,34.99104,1908.6576,4.93964358272,1
2025-04-01T10:40:23.150,1743496823150,11.827792652703,46.3782829243699,34.8996,1908.6576,4.93964358272,1
2025-04-01T10:40:23.250,1743496823250,11.8277959666105,46.3782866180256,34.8996,1908.6576,4.93964358272,1
2025-04-01T10:40:23.350,1743496823350,11.8277994183657,46.378290425485,34.8996,1908.6576,4.93964358272,1
2025-04-01T10:40:23.460,1743496823460,11.8278028544293,46.3782942300669,34.77768,1908.6576,4.93964358272,1
2025-04-01T10:40:23.560,1743496823560,11.8278060277082,46.3782977596971,34.77768,1908.6576,4.93964358272,1
2025-04-01T10:40:23.660,1743496823660,11.8278094101423,46.3783015411208,34.68624,1908.3528,4.93964358272,1
2025-04-01T10:40:23.760,1743496823760,11.8278127935695,46.3783053232982,34.68624,1908.3528,4.93964358272,1
2025-04-01T10:40:23.860,1743496823860,11.8278162020238,46.3783090828655,34.5948,1908.3528,4.93964358272,1
2025-04-01T10:40:23.970,1743496823970,11.8278197234974,46.3783128906675,34.5948,1908.3528,4.85490223328,1
2025-04-01T10:40:24.070,1743496824070,11.8278236211722,46.3783171313488,34.5948,1908.3528,4.85490223328,1
2025-04-01T10:40:24.170,1743496824170,11.8278271094749,46.3783209315456,34.47288,1908.3528,4.85490223328,1
2025-04-01T10:40:24.270,1743496824270,11.8278304776078,46.3783245725816,34.47288,1908.3528,4.85490223328,1
2025-04-01T10:40:24.370,1743496824370,11.8278339543901,46.3783283522239,34.38144,1908.048,4.85490223328,1
2025-04-01T10:40:24.480,1743496824480,11.8278374236246,46.3783321281664,34.38144,1908.048,4.85490223328,1
2025-04-01T10:40:24.580,1743496824580,11.8278407045598,46.3783354843161,34.38144,1908.048,4.85490223328,1
2025-04-01T10:40:24.680,1743496824680,11.8278443928808,46.3783396639502,34.29,1908.048,4.93964358272,1
2025-04-01T10:40:24.780,1743496824780,11.8278478662864,46.3783434664081,34.29,1908.048,4.93964358272,1
2025-04-01T10:40:24.880,1743496824880,11.8278513796163,46.3783472045302,34.19856,1908.048,4.93964358272,1
2025-04-01T10:40:24.990,1743496824990,11.8278548442823,46.3783510303517,34.19856,1908.048,4.93964358272,1
2025-04-01T10:40:25.050,1743496825050,11.8278582076481,46.378354906669,34.07664,1907.7432,4.93964358272,1
2025-04-01T10:40:25.150,1743496825150,11.8278616375542,46.3783587426993,34.07664,1907.7432,4.93964358272,1
2025-04-01T10:40:25.250,1743496825250,11.8278649852284,46.3783625260414,33.9852,1907.7432,4.8877476032,1
2025-04-01T10:40:25.350,1743496825350,11.8278683837514,46.3783663584404,33.9852,1907.7432,4.8877476032,1
2025-04-01T10:40:25.450,1743496825450,11.8278718075,46.3783700952607,33.89376,1907.7432,4.93964358272,1
2025-04-01T10:40:25.550,1743496825550,11.8278752264816,46.3783739237544,33.89376,1907.7432,4.93964358272,1
2025-04-01T10:40:25.650,1743496825650,11.827878653607,46.3783777552284,33.77184,1907.4384,4.93964358272,1
2025-04-01T10:40:25.750,1743496825750,11.8278817827905,46.3783813624522,33.77184,1907.4384,4.93964358272,1
2025-04-01T10:40:25.950,1743496825950,11.8278889768935,46.3783894447477,33.6804,1907.4384,4.93964358272,1
2025-04-01T10:40:26.050,1743496826050,11.8278924731414,46.378393155635,33.58896,1907.4384,4.93964358272,1
2025-04-01T10:40:26.150,1743496826150,11.8278959374101,46.3783969810454,33.58896,1907.4384,4.93964358272,1
2025-04-01T10:40:26.250,1743496826250,11.8278993883708,46.3784007910742,33.49752,1907.1336,4.93964358272,1
2025-04-01T10:40:26.350,1743496826350,11.8279025529101,46.3784043001842,33.49752,1907.1336,4.93964358272,1
2025-04-01T10:40:26.450,1743496826450,11.8279059454742,46.3784080520093,33.3756,1907.1336,4.85490223328,1
2025-04-01T10:40:26.550,1743496826550,11.8279092464708,46.3784119117459,33.3756,1907.1336,4.85490223328,1
2025-04-01T10:40:26.650,1743496826650,11.8279126449938,46.3784156580212,33.28416,1907.1336,4.85490223328,1
2025-04-01T10:40:26.750,1743496826750,11.8279161763988,46.3784195857249,33.28416,1907.1336,4.85490223328,1
2025-04-01T10:40:26.850,1743496826850,11.8279198988838,46.3784236995502,33.19272,1907.1336,4.85490223328,1
2025-04-01T10:40:26.950,1743496826950,11.827923403474,46.3784274827553,33.0708,1906.8288,4.9091831712,1
2025-04-01T10:40:27.050,1743496827050,11.8279268884,46.3784311463328,33.0708,1906.8288,4.9091831712,1
2025-04-01T10:40:27.150,1743496827150,11.8279304196064,46.3784349054205,32.97936,1906.8288,4.9091831712,1
2025-04-01T10:40:27.250,1743496827250,11.8279343005964,46.3784388565221,32.97936,1906.8288,4.9091831712,1
2025-04-01T10:40:27.350,1743496827350,11.8279378719256,46.3784426203032,32.88792,1906.8288,4.9091831712,1
2025-04-01T10:40:27.450,1743496827450,11.8279411492855,46.378446141095,32.88792,1906.8288,4.85490223328,1
2025-04-01T10:40:27.550,1743496827550,11.8279446649989,46.3784498883295,32.79648,1906.524,4.85490223328,1
2025-04-01T10:40:27.650,1743496827650,11.8279481614454,46.3784536378251,32.79648,1906.524,4.85490223328,1
2025-04-01T10:40:27.730,1743496827730,11.8279511704591,46.3784569288854,32.67456,1906.524,4.85490223328,1
2025-04-01T10:40:27.850,1743496827850,11.8279549894772,46.3784610491854,32.67456,1906.524,4.85490223328,1
2025-04-01T10:40:27.950,1743496827950,11.8279584531501,46.3784648177624,32.58312,1906.524,4.85490223328,1
2025-04-01T10:40:28.030,1743496828030,11.8279619203982,46.3784685890116,32.58312,1906.524,4.85490223328,1
2025-04-01T10:40:28.150,1743496828150,11.8279651206906,46.3784719026819,32.49168,1906.2192,4.85490223328,1
2025-04-01T10:40:28.250,1743496828250,11.8279685458296,46.3784756339867,32.49168,1906.2192,4.85490223328,1
2025-04-01T10:40:28.340,1743496828340,11.8279721217273,46.3784794564852,32.36976,1906.2192,4.85490223328,1
2025-04-01T10:40:28.450,1743496828450,11.8279755065449,46.3784832236578,32.36976,1906.2192,4.93964358272,1
2025-04-01T10:40:28.550,1743496828550,11.8279788609724,46.3784868844947,32.27832,1906.2192,4.93964358272,1
2025-04-01T10:40:28.650,1743496828650,11.8279822275163,46.3784907031221,32.27832,1906.2192,4.93964358272,1
2025-04-01T10:40:28.750,1743496828750,11.8279856327925,46.3784946268177,32.18688,1905.9144,5.02494596736,1
2025-04-01T10:40:28.850,1743496828850,11.8279892345118,46.3784989033324,32.18688,1905.9144,4.97394004448,1
2025-04-01T10:40:28.950,1743496828950,11.8279925911242,46.3785028367571,32.09544,1905.9144,4.97394004448,1
2025-04-01T10:40:29.050,1743496829050,11.8279959157576,46.3785067491134,32.09544,1905.9144,4.97394004448,1
2025-04-01T10:40:29.150,1743496829150,11.8279992767399,46.3785106734255,31.97352,1905.9144,4.97394004448,1
2025-04-01T10:40:29.250,1743496829250,11.8280026319619,46.3785144007222,31.97352,1905.9144,4.97394004448,1
2025-04-01T10:40:29.350,1743496829350,11.8280060056564,46.3785182957784,31.88208,1905.6096,4.97394004448,1
2025-04-01T10:40:29.460,1743496829460,11.8280093962342,46.3785221828183,31.79064,1905.6096,4.97394004448,1
2025-04-01T10:40:29.560,1743496829560,11.8280125472668,46.3785258571184,31.79064,1905.6096,5.02494596736,1
2025-04-01T10:40:29.660,1743496829660,11.8280159900837,46.3785297378892,31.6992,1905.6096,5.02494596736,1
2025-04-01T10:40:29.760,1743496829760,11.8280196200081,46.3785336719648,31.6992,1905.6096,5.02494596736,1
2025-04-01T10:40:29.850,1743496829850,11.8280234036705,46.37853777541,31.57728,1905.3048,5.02494596736,1
2025-04-01T10:40:29.970,1743496829970,11.8280269281235,46.3785416817712,31.57728,1905.3048,5.02494596736,1
2025-04-01T10:40:30.070,1743496830070,11.8280304358918,46.3785455770672,31.48584,1905.3048,5.02494596736,1
2025-04-01T10:40:30.170,1743496830170,11.828033535877,46.378549137084,31.48584,1905.3048,5.02494596736,1
2025-04-01T10:40:30.270,1743496830270,11.8280372945123,46.3785533386087,31.3944,1905.3048,5.02494596736,1
2025-04-01T10:40:30.370,1743496830370,11.828040723028,46.3785572239358,31.27248,1905,4.93964358272,1
2025-04-01T10:40:30.470,1743496830470,11.8280441267153,46.3785610952172,31.27248,1905,4.8877476032,1
2025-04-01T10:40:30.570,1743496830570,11.8280472257074,46.3785646349534,31.18104,1905,4.8877476032,1
2025-04-01T10:40:30.680,1743496830680,11.8280506137031,46.3785684458729,31.18104,1905,4.93964358272,1
2025-04-01T10:40:30.780,1743496830780,11.8280541198823,46.3785722167452,31.0896,1905,4.93964358272,1
2025-04-01T10:40:30.880,1743496830880,11.8280577412657,46.3785763392034,31.0896,1905,4.93964358272,1
2025-04-01T10:40:30.980,1743496830980,11.8280611846785,46.3785801919857,30.99816,1904.6952,4.93964358272,1
2025-04-01T10:40:31.080,1743496831080,11.8280646560979,46.3785839538483,30.87624,1904.6952,4.93964358272,1
2025-04-01T10:40:31.180,1743496831180,11.8280680528332,46.3785878195115,30.87624,1904.6952,4.8877476032,1
2025-04-01T10:40:31.290,1743496831290,11.8280714100415,46.3785916886004,30.7848,1904.6952,4.8877476032,1
2025-04-01T10:40:31.350,1743496831350,11.8280745253211,46.3785953021961,30.7848,1904.6952,4.8877476032,1
2025-04-01T10:40:31.450,1743496831450,11.8280778759747,46.3785993158521,30.69336,1904.3904,4.8877476032,1
2025-04-01T10:40:31.550,1743496831550,11.8280811233418,46.3786031612005,30.69336,1904.3904,4.83736261888,1
2025-04-01T10:40:31.650,1743496831650,11.8280843673323,46.3786069915098,30.57144,1904.3904,4.83736261888,1
2025-04-01T10:40:31.750,1743496831750,11.8280874115031,46.378610300521,30.57144,1904.3904,4.8877476032,1
2025-04-01T10:40:31.850,1743496831850,11.8280909770721,46.3786143104772,30.48,1904.3904,4.8877476032,1
2025-04-01T10:40:31.950,1743496831950,11.8280942766783,46.378618099095,30.38856,1904.0856,4.8877476032,1
2025-04-01T10:40:32.050,1743496832050,11.8280975389425,46.3786217030985,30.38856,1904.0856,4.8877476032,1
2025-04-01T10:40:32.150,1743496832150,11.8281008407337,46.3786254769513,30.29712,1904.0856,4.80209071584,1
2025-04-01T10:40:32.250,1743496832250,11.8281041204771,46.3786293274383,30.29712,1904.0856,4.83736261888,1
2025-04-01T10:40:32.350,1743496832350,11.8281073994261,46.3786331152339,30.1752,1904.0856,4.83736261888,1
2025-04-01T10:40:32.450,1743496832450,11.8281106249441,46.3786368188928,30.08376,1903.7808,4.83736261888,1
2025-04-01T10:40:32.550,1743496832550,11.8281138802564,46.3786406048728,30.08376,1903.7808,4.83736261888,1
2025-04-01T10:40:32.650,1743496832650,11.8281171494726,46.3786443907499,29.99232,1903.7808,4.83736261888,1
2025-04-01T10:40:32.750,1743496832750,11.8281201775545,46.378647766632,29.99232,1903.7808,4.83736261888,1
2025-04-01T10:40:32.820,1743496832820,11.8281235826322,46.378651928692,29.8704,1903.7808,4.80209071584,1
2025-04-01T10:40:32.920,1743496832920,11.8281268858137,46.3786557053539,29.8704,1903.7808,4.8877476032,1
2025-04-01T10:40:33.020,1743496833020,11.8281302007143,46.3786593773588,29.77896,1903.476,4.80209071584,1
2025-04-01T10:40:33.130,1743496833130,11.8281335311079,46.3786631386047,29.68752,1903.476,4.80209071584,1
2025-04-01T10:40:33.250,1743496833250,11.8281369232747,46.3786668500059,29.68752,1903.476,4.8877476032,1
2025-04-01T10:40:33.330,1743496833330,11.8281402834625,46.378670621786,29.59608,1903.476,4.8877476032,1
2025-04-01T10:40:33.430,1743496833430,11.8281435814797,46.3786743821413,29.59608,1903.476,4.8877476032,1
2025-04-01T10:40:33.550,1743496833550,11.8281469380922,46.3786781852158,29.47416,1903.1712,4.8877476032,1
2025-04-01T10:40:33.650,1743496833650,11.8281502897389,46.3786819939086,29.47416,1903.1712,4.8877476032,1
2025-04-01T10:40:33.750,1743496833750,11.8281535069146,46.3786854596826,29.38272,1903.1712,4.8877476032,1
2025-04-01T10:40:33.840,1743496833840,11.8281570893669,46.3786896293992,29.38272,1903.1712,4.8877476032,1
2025-04-01T10:40:33.940,1743496833940,11.8281604479657,46.378693445012,29.29128,1903.1712,4.8877476032,1
2025-04-01T10:40:34.040,1743496834040,11.828163943419,46.3786972340237,29.19984,1902.8664,4.8877476032,1
2025-04-01T10:40:34.140,1743496834140,11.8281673260517,46.3787010547923,29.19984,1902.8664,4.8877476032,1
2025-04-01T10:40:34.250,1743496834250,11.8281706542604,46.3787049941778,29.07792,1902.8664,4.93964358272,1
2025-04-01T10:40:34.350,1743496834350,11.8281740551668,46.3787088236821,29.07792,1902.8664,4.93964358272,1
2025-04-01T10:40:34.450,1743496834450,11.8281774576623,46.3787126419156,28.98648,1902.8664,4.8877476032,1
2025-04-01T10:40:34.550,1743496834550,11.8281806736463,46.3787158812639,28.98648,1902.8664,4.8877476032,1
2025-04-01T10:40:34.650,1743496834650,11.8281840020535,46.3787196403174,28.89504,1902.5616,4.8877476032,1
2025-04-01T10:40:34.750,1743496834750,11.8281875135957,46.3787235985617,28.89504,1902.5616,4.8877476032,1
2025-04-01T10:40:34.850,1743496834850,11.8281910900892,46.3787277124898,28.77312,1902.5616,4.83736261888,1
2025-04-01T10:40:34.950,1743496834950,11.828194395853,46.3787315195039,28.77312,1902.5616,4.83736261888,1
2025-04-01T10:40:35.060,1743496835060,11.8281980698727,46.3787356121409,28.68168,1902.5616,4.8877476032,1
2025-04-01T10:40:35.160,1743496835160,11.8282014356221,46.3787394271542,28.68168,1902.5616,4.8877476032,1
2025-04-01T10:40:35.260,1743496835260,11.8282044603274,46.3787428352726,28.59024,1902.2568,4.80209071584,1
2025-04-01T10:40:35.360,1743496835360,11.8282078383916,46.3787465841859,28.59024,1902.2568,4.80209071584,1
2025-04-01T10:40:35.470,1743496835470,11.8282112100998,46.3787503292451,28.4988,1902.2568,4.80209071584,1
2025-04-01T10:40:35.570,1743496835570,11.8282142562569,46.3787539528268,28.4988,1902.2568,4.80209071584,1
2025-04-01T10:40:35.670,1743496835670,11.8282175721506,46.37875769309,28.37688,1902.2568,4.80209071584,1
2025-04-01T10:40:35.770,1743496835770,11.8282210570767,46.3787614256281,28.28544,1901.952,4.8877476032,1
2025-04-01T10:40:35.870,1743496835870,11.8282243888606,46.378765182352,28.28544,1901.952,4.8877476032,1
2025-04-01T10:40:35.970,1743496835970,11.8282276473509,46.3787691525352,28.194,1901.952,4.8877476032,1
2025-04-01T10:40:36.070,1743496836070,11.8282314623965,46.3787731967318,28.194,1901.952,4.8877476032,1
2025-04-01T10:40:36.170,1743496836170,11.8282348716453,46.3787769866172,28.07208,1901.952,4.8877476032,1
2025-04-01T10:40:36.280,1743496836280,11.8282381490053,46.3787807939567,27.98064,1901.6472,4.8877476032,1
2025-04-01T10:40:36.380,1743496836380,11.8282416021509,46.3787845853494,27.98064,1901.6472,4.93964358272,1
2025-04-01T10:40:36.480,1743496836480,11.8282450892618,46.3787883877387,27.8892,1901.6472,4.93964358272,1
2025-04-01T10:40:36.580,1743496836580,11.8282484546139,46.3787919039229,27.8892,1901.6472,4.93964358272,1
2025-04-01T10:40:36.680,1743496836680,11.8282519574165,46.378795707614,27.79776,1901.6472,4.93964358272,1
2025-04-01T10:40:36.780,1743496836780,11.8282554232743,46.3787994732621,27.67584,1901.3424,4.93964358272,1
2025-04-01T10:40:36.850,1743496836850,11.8282591558893,46.3788036587886,27.67584,1901.3424,4.9930031712,1
2025-04-01T10:40:36.950,1743496836950,11.8282627439032,46.378807526293,27.5844,1901.3424,4.9930031712,1
2025-04-01T10:40:37.050,1743496837050,11.8282663074859,46.3788114657642,27.49296,1901.3424,4.9930031712,1
2025-04-01T10:40:37.150,1743496837150,11.8282699109928,46.3788153436402,27.49296,1901.3424,4.9930031712,1
2025-04-01T10:40:37.250,1743496837250,11.8282735141025,46.3788191863251,27.37104,1901.0376,4.9930031712,1
2025-04-01T10:40:37.350,1743496837350,11.8282771213833,46.3788230628565,27.2796,1901.0376,4.9930031712,1
2025-04-01T10:40:37.450,1743496837450,11.8282807399859,46.3788268508833,27.18816,1901.0376,4.9930031712,1
2025-04-01T10:40:37.550,1743496837550,11.8282843417052,46.3788306878129,27.18816,1901.0376,4.9930031712,1
2025-04-01T10:40:37.650,1743496837650,11.8282883549814,46.378834735461,27.09672,1900.7328,4.9930031712,1
2025-04-01T10:40:37.750,1743496837750,11.8282919882825,46.3788385625929,26.9748,1900.7328,4.9930031712,1
2025-04-01T10:40:37.850,1743496837850,11.8282952567041,46.3788420192545,26.88336,1900.7328,4.9091831712,1
2025-04-01T10:40:37.950,1743496837950,11.8282988429304,46.3788458008666,26.88336,1900.7328,4.9091831712,1
2025-04-01T10:40:38.020,1743496838020,11.828302505827,46.3788495452664,26.79192,1900.7328,4.9091831712,1
2025-04-01T10:40:38.150,1743496838150,11.8283061069504,46.3788533241122,26.67,1900.428,4.9091831712,1
2025-04-01T10:40:38.250,1743496838250,11.8283097104573,46.3788571001574,26.57856,1900.428,4.9091831712,1
2025-04-01T10:40:38.320,1743496838320,11.8283129802694,46.3788606019105,26.57856,1900.428,4.9091831712,1
2025-04-01T10:40:38.450,1743496838450,11.8283165263728,46.3788643405721,26.48712,1900.428,4.9091831712,1
2025-04-01T10:40:38.550,1743496838550,11.8283201868859,46.3788682151594,26.39568,1900.1232,4.9091831712,1
2025-04-01T10:40:38.630,1743496838630,11.8283242116825,46.3788720385658,26.27376,1900.1232,4.9091831712,1
2025-04-01T10:40:38.730,1743496838730,11.8283277955253,46.3788757724656,26.27376,1900.1232,4.9091831712,1
2025-04-01T10:40:38.830,1743496838830,11.8283313612929,46.3788794740219,26.18232,1900.1232,4.9091831712,1
2025-04-01T10:40:38.930,1743496838930,11.8283349071977,46.3788831827296,26.09088,1899.8184,4.85490223328,1
2025-04-01T10:40:39.040,1743496839040,11.8283383382956,46.3788870788092,25.99944,1899.8184,4.85490223328,1
2025-04-01T10:40:39.140,1743496839140,11.8283418186532,46.3788908167942,25.87752,1899.8184,4.85490223328,1
2025-04-01T10:40:39.250,1743496839250,11.8283452813329,46.3788944455446,25.78608,1899.5136,4.85490223328,1
2025-04-01T10:40:39.340,1743496839340,11.8283487239512,46.378898147739,25.78608,1899.5136,4.71699799296,1
2025-04-01T10:40:39.440,1743496839440,11.8283522438358,46.3789017826557,25.69464,1899.5136,4.71699799296,1
2025-04-01T10:40:39.550,1743496839550,11.8283556286534,46.3789054823921,25.57272,1899.5136,4.80209071584,1
2025-04-01T10:40:39.640,1743496839640,11.8283589868549,46.3789092017282,25.48128,1899.2088,4.80209071584,1
2025-04-01T10:40:39.750,1743496839750,11.8283620353955,46.378912595572,25.38984,1899.2088,4.80209071584,1
2025-04-01T10:40:39.850,1743496839850,11.8283656132794,46.3789167081918,25.2984,1899.2088,4.80209071584,1
2025-04-01T10:40:39.950,1743496839950,11.8283689549948,46.3789204944137,25.2984,1899.2088,4.8877476032,1
2025-04-01T10:40:40.050,1743496840050,11.8283723819215,46.3789243645882,25.17648,1898.904,4.80209071584,1
2025-04-01T10:40:40.150,1743496840150,11.8283756954317,46.3789281462516,25.08504,1898.904,4.80209071584,1
2025-04-01T10:40:40.250,1743496840250,11.8283792093574,46.3789321278533,24.9936,1898.904,4.7507968992,1
2025-04-01T10:40:40.360,1743496840360,11.828382488505,46.3789359000167,24.87168,1898.5992,4.7507968992,1
2025-04-01T10:40:40.460,1743496840460,11.8283857440158,46.3789396549426,24.78024,1898.5992,4.7507968992,1
2025-04-01T10:40:40.560,1743496840560,11.8283884002664,46.3789425754158,24.6888,1898.5992,4.7507968992,1
2025-04-01T10:40:40.660,1743496840660,11.8283915787096,46.3789462518679,24.59736,1898.2944,4.7507968992,1
2025-04-01T10:40:40.760,1743496840760,11.8283948471313,46.3789500172537,24.47544,1898.2944,4.7507968992,1
2025-04-01T10:40:40.860,1743496840860,11.828398361057,46.3789541686118,24.384,1898.2944,4.7507968992,1
2025-04-01T10:40:40.970,1743496840970,11.8284015905477,46.3789579210814,24.29256,1897.9896,4.7507968992,1
2025-04-01T10:40:41.070,1743496841070,11.8284047435665,46.3789616059157,24.17064,1897.9896,4.7507968992,1
2025-04-01T10:40:41.170,1743496841170,11.828407979016,46.3789653377745,24.0792,1897.9896,4.7507968992,1
2025-04-01T10:40:41.270,1743496841270,11.8284111638153,46.3789690794696,23.98776,1897.6848,4.7507968992,1
2025-04-01T10:40:41.370,1743496841370,11.8284144127715,46.3789727865153,23.89632,1897.6848,4.7507968992,1
2025-04-01T10:40:41.470,1743496841470,11.8284176251801,46.3789764965979,23.7744,1897.6848,4.66476896864,1
2025-04-01T10:40:41.570,1743496841570,11.8284208997592,46.3789801719391,23.7744,1897.6848,4.66476896864,1
2025-04-01T10:40:41.680,1743496841680,11.8284241123665,46.3789839219491,23.68296,1897.38,4.71699799296,1
2025-04-01T10:40:41.780,1743496841780,11.8284274149522,46.3789875971785,23.59152,1897.38,4.71699799296,1
2025-04-01T10:40:41.880,1743496841880,11.8284306029296,46.3789913001758,23.4696,1897.38,4.80209071584,1
2025-04-01T10:40:41.980,1743496841980,11.8284339420628,46.378995026023,23.37816,1897.0752,4.80209071584,1
2025-04-01T10:40:42.080,1743496842080,11.8284374047425,46.378998714099,23.28672,1897.0752,4.85490223328,1
2025-04-01T10:40:42.180,1743496842180,11.8284407967107,46.3790024738825,23.19528,1897.0752,4.85490223328,1
2025-04-01T10:40:42.250,1743496842250,11.8284441139948,46.379006097218,23.07336,1896.7704,4.85490223328,1
2025-04-01T10:40:42.350,1743496842350,11.8284475103329,46.3790098277799,22.98192,1896.7704,4.85490223328,1
2025-04-01T10:40:42.450,1743496842450,11.8284509082599,46.3790135434632,22.89048,1896.7704,4.85490223328,1
2025-04-01T10:40:42.550,1743496842550,11.8284542048868,46.379016997564,22.89048,1896.7704,4.85490223328,1
2025-04-01T10:40:42.650,1743496842650,11.8284575885126,46.3790206761549,22.79904,1896.4656,4.85490223328,1
2025-04-01T10:40:42.750,1743496842750,11.8284610217954,46.3790242735467,22.67712,1896.4656,4.85490223328,1
2025-04-01T10:40:42.850,1743496842850,11.8284649141072,46.3790286790541,22.58568,1896.4656,4.85490223328,1
2025-04-01T10:40:42.950,1743496842950,11.8284683374587,46.3790324108557,22.49424,1896.1608,4.85490223328,1
2025-04-01T10:40:43.050,1743496843050,11.8284715508604,46.3790357635625,22.37232,1896.1608,4.71699799296,1
2025-04-01T10:40:43.150,1743496843150,11.8284749360753,46.3790394468167,22.28088,1896.1608,4.71699799296,1
2025-04-01T10:40:43.250,1743496843250,11.8284782938795,46.3790431203203,22.18944,1895.856,4.71699799296,1
2025-04-01T10:40:43.350,1743496843350,11.8284816638,46.3790468006798,22.098,1895.856,4.71699799296,1
2025-04-01T10:40:43.450,1743496843450,11.8284852091089,46.379050508364,22.098,1895.856,4.71699799296,1
2025-04-01T10:40:43.550,1743496843550,11.8284885949197,46.379054210841,21.97608,1895.856,4.80209071584,1
2025-04-01T10:40:43.650,1743496843650,11.8284919854975,46.3790579223535,21.88464,1895.5512,4.80209071584,1
2025-04-01T10:40:43.750,1743496843750,11.8284950884622,46.3790612388329,21.7932,1895.5512,4.80209071584,1
2025-04-01T10:40:43.850,1743496843850,11.8284988349811,46.3790653221603,21.67128,1895.5512,4.85490223328,1
2025-04-01T10:40:43.950,1743496843950,11.828502257538,46.3790690457058,21.57984,1895.2464,4.85490223328,1
2025-04-01T10:40:44.050,1743496844050,11.8285056838689,46.3790727213334,21.4884,1895.2464,4.80209071584,1
2025-04-01T10:40:44.150,1743496844150,11.8285091157613,46.3790764009263,21.39696,1895.2464,4.77075187072,1
2025-04-01T10:40:44.220,1743496844220,11.8285126795426,46.3790800080558,21.27504,1894.9416,4.77075187072,1
2025-04-01T10:40:44.350,1743496844350,11.8285161716193,46.3790836724041,21.1836,1894.9416,4.77075187072,1
2025-04-01T10:40:44.420,1743496844420,11.8285196702507,46.3790873659399,21.09216,1894.9416,4.85490223328,1
2025-04-01T10:40:44.550,1743496844550,11.828523008788,46.3790908047019,21.09216,1894.9416,4.85490223328,1
2025-04-01T10:40:44.630,1743496844630,11.8285264444543,46.3790945386274,20.97024,1894.6368,4.85490223328,1
2025-04-01T10:40:44.730,1743496844730,11.8285297810054,46.3790983133708,20.8788,1894.6368,4.85490223328,1
2025-04-01T10:40:44.850,1743496844850,11.8285336091604,46.3791024155485,20.78736,1894.6368,4.80209071584,1
2025-04-01T10:40:44.950,1743496844950,11.8285370259571,46.3791061768116,20.69592,1894.332,4.80209071584,1
2025-04-01T10:40:45.030,1743496845030,11.8285404052131,46.3791098838363,20.574,1894.332,4.80209071584,1
2025-04-01T10:40:45.130,1743496845130,11.8285437733459,46.3791136021918,20.48256,1894.332,4.80209071584,1
2025-04-01T10:40:45.230,1743496845230,11.8285472419845,46.3791172569394,20.39112,1894.332,4.80209071584,1
2025-04-01T10:40:45.340,1743496845340,11.8285506025695,46.3791210308778,20.29968,1894.0272,4.8877476032,1
2025-04-01T10:40:45.440,1743496845440,11.8285541425155,46.3791252203268,20.17776,1894.0272,4.83736261888,1
2025-04-01T10:40:45.550,1743496845550,11.8285573306914,46.3791291783313,20.17776,1894.0272,4.8764821952,1
2025-04-01T10:40:45.640,1743496845640,11.8285603184519,46.379133218794,20.08632,1894.0272,4.87545668544,1
2025-04-01T10:40:45.740,1743496845740,11.828562206807,46.3791365102653,19.99488,1893.7224,4.88467777952,1
2025-04-01T10:40:45.850,1743496845850,11.8285647466615,46.3791409575885,19.87296,1893.7224,4.77598939136,1
2025-04-01T10:40:45.950,1743496845950,11.8285665879417,46.379145112009,19.78152,1893.7224,4.75395344864,1
2025-04-01T10:40:46.050,1743496846050,11.8285680802328,46.3791491826355,19.78152,1893.7224,4.57056512352,1
2025-04-01T10:40:46.150,1743496846150,11.828568948435,46.3791532482603,19.78152,1893.7224,4.42832504224,1
2025-04-01T10:40:46.250,1743496846250,11.8285696265505,46.3791569910071,19.69008,1893.4176,4.30116943168,1
2025-04-01T10:40:46.350,1743496846350,11.8285696106601,46.379160784301,19.69008,1893.4176,4.10122587424,1
2025-04-01T10:40:46.450,1743496846450,11.828569206055,46.37916444423,19.69008,1893.4176,4.01995668448,1
2025-04-01T10:40:46.550,1743496846550,11.8285687370945,46.3791675394909,19.69008,1893.4176,3.96232875808,1
2025-04-01T10:40:46.660,1743496846660,11.828567641463,46.3791709750668,19.59864,1893.4176,3.90513088416,1
2025-04-01T10:40:46.750,1743496846750,11.8285665293454,46.3791746962485,19.69008,1893.4176,3.88973616768,1
2025-04-01T10:40:46.860,1743496846860,11.8285646938251,46.3791779593887,19.69008,1893.4176,3.90000646464,1
2025-04-01T10:40:46.960,1743496846960,11.8285626207459,46.3791813582405,19.69008,1893.4176,3.8470831872,1
2025-04-01T10:40:47.060,1743496847060,11.8285600596379,46.3791844910305,19.78152,1893.7224,3.82753815136,1
2025-04-01T10:40:47.170,1743496847170,11.8285570814114,46.3791872248735,19.78152,1893.7224,3.76431194304,1
2025-04-01T10:40:47.250,1743496847250,11.8285538141814,46.3791899590591,19.87296,1893.7224,3.81838277216,1
2025-04-01T10:40:47.370,1743496847370,11.8285500956688,46.3791922341755,19.87296,1893.7224,3.76431194304,1
2025-04-01T10:40:47.470,1743496847470,11.8285459979757,46.3791944421642,19.99488,1893.7224,3.82753815136,1
2025-04-01T10:40:47.580,1743496847580,11.8285417586609,46.3791961983634,20.08632,1894.0272,3.75899529632,1
2025-04-01T10:40:47.680,1743496847680,11.8285373062184,46.379197788379,20.17776,1894.0272,3.71618674592,1
2025-04-01T10:40:47.780,1743496847780,11.8285327320171,46.3791989917632,20.29968,1894.0272,3.7947392736,1
2025-04-01T10:40:47.880,1743496847880,11.8285280992205,46.3792001711842,20.39112,1894.332,3.80789253152,1
2025-04-01T10:40:47.980,1743496847980,11.8285232143651,46.3792008506668,20.39112,1894.332,3.8470831872,1
2025-04-01T10:40:48.090,1743496848090,11.8285174309173,46.3792013589126,20.48256,1894.332,3.92046525024,1
2025-04-01T10:40:48.150,1743496848150,11.8285121468199,46.3792015562707,20.574,1894.332,4.10122587424,1
2025-04-01T10:42:41.840,1743496961840,11.8239335020033,46.3789803924074,22.098,1895.856,4.30116943168,2
2025-04-01T10:42:41.950,1743496961950,11.823927973991,46.3789804092408,22.098,1895.856,4.10000679616,2
2025-04-01T10:42:42.040,1743496962040,11.8239228493919,46.3789803400377,21.97608,1895.856,3.80000629888,2
2025-04-01T10:42:42.150,1743496962150,11.823917691622,46.3789802464272,21.97608,1895.856,3.5000058016,2
2025-04-01T10:42:42.250,1743496962250,11.823913263015,46.3789801661686,21.88464,1895.5512,3.3015200416,2
2025-04-01T10:42:42.350,1743496962350,11.8239088914142,46.3789798930144,21.88464,1895.5512,3.00167109088,2
2025-04-01T10:42:42.440,1743496962440,11.8239052342779,46.3789797870406,21.88464,1895.5512,2.60192658176,2
2025-04-01T10:42:42.550,1743496962550,11.8239019102405,46.3789797820257,21.7932,1895.5512,2.40208629056,2
2025-04-01T10:42:42.650,1743496962650,11.8238990380816,46.3789796809769,21.7932,1895.5512,2.10238307488,2
2025-04-01T10:42:42.750,1743496962750,11.8238962725858,46.3789795506578,21.7932,1895.5512,1.802778208,2
2025-04-01T10:42:42.850,1743496962850,11.8238941522333,46.3789794766298,21.7932,1895.5512,1.5000024864,2
2025-04-01T10:42:42.950,1743496962950,11.8238923391581,46.3789794334994,21.7932,1895.5512,1.20000198912,2
2025-04-01T10:42:43.050,1743496963050,11.8238909616739,46.37897939143,21.7932,1895.5512,0.90000149184,2
2025-04-01T10:42:43.150,1743496963150,11.8238898273102,46.3789793454981,21.7932,1895.5512,0.60000099456,2
2025-04-01T10:42:43.260,1743496963260,11.8238891863382,46.3789793020016,21.7932,1895.5512,0.30000049728,2
2025-04-01T10:42:43.360,1743496963360,11.8238888307943,46.3789791891313,21.7932,1895.5512,0.10000016576,2
2025-04-01T10:42:43.460,1743496963460,11.8238888770747,46.3789791512585,21.7932,1895.5512,0.10000016576,2
2025-04-01T10:42:43.550,1743496963550,11.8238895595602,46.3789789736724,21.7932,1895.5512,0.40000066304,2
2025-04-01T10:42:43.670,1743496963670,11.8238903566539,46.3789788760606,21.88464,1895.5512,0.70000116032,2
2025-04-01T10:42:43.770,1743496963770,11.8238913764095,46.3789787250124,21.88464,1895.5512,0.9055398704,2
2025-04-01T10:42:43.870,1743496963870,11.8238929098168,46.3789785880976,21.88464,1895.5512,1.30384222848,2
2025-04-01T10:42:43.970,1743496963970,11.8238951177643,46.3789784850132,21.97608,1895.856,1.60312433248,2
2025-04-01T10:42:44.070,1743496964070,11.8238974252244,46.3789783548776,21.97608,1895.856,1.802778208,2
2025-04-01T10:42:44.170,1743496964170,11.8239000651876,46.3789784408123,21.97608,1895.856,2.0000033152,2
2025-04-01T10:42:44.280,1743496964280,11.8239028670324,46.3789783655034,22.098,1895.856,2.10000348096,2
2025-04-01T10:42:44.380,1743496964380,11.8239057161506,46.3789783748696,22.098,1895.856,2.20000364672,2
2025-04-01T10:42:44.480,1743496964480,11.8239087053015,46.3789783453075,22.18944,1895.856,2.20000364672,2
2025-04-01T10:42:44.580,1743496964580,11.8239113927367,46.3789785161229,22.18944,1895.856,2.20000364672,2
2025-04-01T10:42:44.690,1743496964690,11.823914379504,46.3789785259334,22.18944,1895.856,2.20000364672,2
2025-04-01T10:42:44.750,1743496964750,11.8239173811684,46.3789783025101,22.18944,1895.856,2.20000364672,2
2025-04-01T10:42:44.850,1743496964850,11.8239203490661,46.3789782902908,22.28088,1896.1608,2.20000364672,2
2025-04-01T10:42:44.950,1743496964950,11.8239235008932,46.3789782901072,22.28088,1896.1608,2.20000364672,2
2025-04-01T10:42:45.050,1743496965050,11.8239268457866,46.3789781509346,22.28088,1896.1608,2.30000381248,2
2025-04-01T10:42:45.150,1743496965150,11.823929849636,46.3789781247672,22.28088,1896.1608,2.30000381248,2
2025-04-01T10:42:45.250,1743496965250,11.8239328191227,46.3789781176009,22.28088,1896.1608,2.20000364672,2
2025-04-01T10:42:45.350,1743496965350,11.8239358511772,46.3789782691946,22.28088,1896.1608,2.20000364672,2
2025-04-01T10:42:45.450,1743496965450,11.8239387312813,46.3789783079613,22.37232,1896.1608,2.20000364672,2
2025-04-01T10:42:45.550,1743496965550,11.823941748836,46.3789783404049,22.37232,1896.1608,2.10000348096,2
2025-04-01T10:42:45.650,1743496965650,11.8239445296262,46.3789783713706,22.37232,1896.1608,2.10000348096,2
2025-04-01T10:42:45.750,1743496965750,11.8239477249528,46.3789783958273,22.37232,1896.1608,2.10000348096,2
2025-04-01T10:42:45.850,1743496965850,11.8239505295784,46.3789783870124,22.37232,1896.1608,2.10000348096,2
2025-04-01T10:42:45.950,1743496965950,11.823953499661,46.378978286788,22.37232,1896.1608,2.20000364672,2
2025-04-01T10:42:46.050,1743496966050,11.8239564703396,46.3789782285409,22.49424,1896.1608,2.30217642688,2
2025-04-01T10:42:46.150,1743496966150,11.8239597272409,46.3789783339554,22.49424,1896.1608,2.40000397824,2
2025-04-01T10:42:46.250,1743496966250,11.8239631269556,46.3789782598502,22.49424,1896.1608,2.60192658176,2
2025-04-01T10:42:46.350,1743496966350,11.8239667306612,46.3789783866404,22.49424,1896.1608,2.801789672,2
2025-04-01T10:42:46.450,1743496966450,11.8239705459054,46.3789783222216,22.58568,1896.4656,2.90172814624,2
2025-04-01T10:42:46.550,1743496966550,11.8239743651222,46.378978202017,22.58568,1896.4656,3.00167109088,2
2025-04-01T10:42:46.650,1743496966650,11.8239784471237,46.3789780973316,22.67712,1896.4656,3.10161761184,2
2025-04-01T10:42:46.750,1743496966750,11.8239821974166,46.3789781559014,22.67712,1896.4656,3.20156726208,2
2025-04-01T10:42:46.850,1743496966850,11.823986492943,46.3789780296359,22.67712,1896.4656,3.3015200416,2
2025-04-01T10:42:46.950,1743496966950,11.823990661149,46.3789777370079,22.79904,1896.4656,3.3015200416,2
2025-04-01T10:42:47.050,1743496967050,11.8239951995973,46.3789775921378,22.79904,1896.4656,3.40147550336,2
2025-04-01T10:42:47.150,1743496967150,11.8239997598947,46.3789774673015,22.89048,1896.7704,3.50143364736,2
2025-04-01T10:42:47.250,1743496967250,11.8240045287513,46.3789773346822,22.89048,1896.7704,3.6013944736,2
2025-04-01T10:42:47.350,1743496967350,11.8240091246031,46.3789771656059,22.89048,1896.7704,3.701357088,2
2025-04-01T10:42:47.450,1743496967450,11.8240140970533,46.3789770317818,22.98192,1896.7704,3.80132149056,2
2025-04-01T10:42:47.530,1743496967530,11.8240191485575,46.3789767174082,22.98192,1896.7704,3.90128812832,2
2025-04-01T10:42:47.650,1743496967650,11.8240247429116,46.3789767035478,23.07336,1896.7704,4.0012561072,2
2025-04-01T10:42:47.750,1743496967750,11.824030089974,46.3789765706615,23.07336,1896.7704,4.10122587424,2
2025-04-01T10:42:47.850,1743496967850,11.8240355486652,46.3789764505794,23.19528,1897.0752,4.2011969824,2
2025-04-01T10:42:47.950,1743496967950,11.8240405658067,46.3789761261256,23.28672,1897.0752,4.2011969824,2
2025-04-01T10:42:48.040,1743496968040,11.8240461907495,46.3789760102538,23.28672,1897.0752,4.30116943168,2
2025-04-01T10:42:48.150,1743496968150,11.8240517610696,46.3789759102807,23.37816,1897.0752,4.40114322208,2
2025-04-01T10:42:48.250,1743496968250,11.8240575846403,46.378975773997,23.37816,1897.0752,4.5011183536,2
2025-04-01T10:42:48.340,1743496968340,11.8240631841587,46.3789755869769,23.4696,1897.38,4.5011183536,2
2025-04-01T10:42:48.440,1743496968440,11.824069146173,46.3789754135183,23.59152,1897.38,4.6043533008,2
2025-04-01T10:42:48.550,1743496968550,11.8240753636227,46.3789751329691,23.59152,1897.38,4.70426092928,2
2025-04-01T10:42:48.650,1743496968650,11.8240814904981,46.3789749518983,23.68296,1897.38,4.70426092928,2
2025-04-01T10:42:48.750,1743496968750,11.8240883346188,46.3789745938477,23.7744,1897.6848,4.80104911264,2
2025-04-01T10:42:48.850,1743496968850,11.8240946817726,46.37897443241,23.7744,1897.6848,4.90102826752,2
2025-04-01T10:42:48.950,1743496968950,11.8241010221729,46.3789742730474,23.89632,1897.6848,4.90102826752,2
2025-04-01T10:42:49.050,1743496969050,11.8241075546465,46.3789741277857,23.98776,1897.6848,5.00100786944,2
2025-04-01T10:42:49.160,1743496969160,11.8241142629057,46.3789739535799,24.0792,1897.9896,5.10098836544,2
2025-04-01T10:42:49.260,1743496969260,11.8241210142672,46.3789737936514,24.17064,1897.9896,5.20096975552,2
2025-04-01T10:42:49.370,1743496969370,11.824127864148,46.3789735061942,24.17064,1897.9896,5.20096975552,2
2025-04-01T10:42:49.470,1743496969470,11.8241347895075,46.3789733251875,24.29256,1897.9896,5.3037809088,2
2025-04-01T10:42:49.570,1743496969570,11.8241419573916,46.3789730042321,24.384,1898.2944,5.30095203968,2
2025-04-01T10:42:49.670,1743496969670,11.8241489637912,46.3789728318849,24.47544,1898.2944,5.30095203968,2
2025-04-01T10:42:49.770,1743496969770,11.8241552259322,46.3789727842949,24.47544,1898.2944,5.30095203968,2
2025-04-01T10:42:49.870,1743496969870,11.8241621282508,46.3789726803869,24.59736,1898.2944,5.30000878528,2
2025-04-01T10:42:49.970,1743496969970,11.8241698354096,46.3789725257187,24.6888,1898.5992,5.30000878528,2
2025-04-01T10:42:50.080,1743496970080,11.8241767724881,46.3789724415139,24.78024,1898.5992,5.30000878528,2
2025-04-01T10:42:50.180,1743496970180,11.824183685334,46.3789720939151,24.78024,1898.5992,5.30000878528,2
2025-04-01T10:42:50.280,1743496970280,11.8241911813513,46.3789719107516,24.87168,1898.5992,5.20096975552,2
2025-04-01T10:42:50.380,1743496970380,11.824198105519,46.3789717655057,24.9936,1898.904,5.20096975552,2
2025-04-01T10:42:50.480,1743496970480,11.8242050054541,46.3789716297862,25.08504,1898.904,5.20096975552,2
2025-04-01T10:42:50.580,1743496970580,11.8242112165477,46.3789715498129,25.08504,1898.904,5.20096975552,2
2025-04-01T10:42:50.690,1743496970690,11.8242180034635,46.3789714470817,25.17648,1898.904,5.20000861952,2
2025-04-01T10:42:50.750,1743496970750,11.8242246171759,46.3789712948272,25.2984,1899.2088,5.20000861952,2
2025-04-01T10:42:50.850,1743496970850,11.824231354832,46.3789712087479,25.2984,1899.2088,5.10000845376,2
2025-04-01T10:42:50.950,1743496970950,11.8242381338027,46.3789710847521,25.38984,1899.2088,5.10000845376,2
2025-04-01T10:42:51.050,1743496971050,11.8242448529864,46.378971006825,25.48128,1899.2088,5.10000845376,2
2025-04-01T10:42:51.150,1743496971150,11.8242516228202,46.3789709730236,25.48128,1899.2088,5.10000845376,2
2025-04-01T10:42:51.250,1743496971250,11.8242583332643,46.3789708954437,25.57272,1899.5136,5.10000845376,2
2025-04-01T10:42:51.350,1743496971350,11.8242650357633,46.3789709465179,25.69464,1899.5136,5.10000845376,2
2025-04-01T10:42:51.450,1743496971450,11.8242717139304,46.3789708864787,25.69464,1899.5136,5.10000845376,2
2025-04-01T10:42:51.550,1743496971550,11.8242784436414,46.3789707354014,25.78608,1899.5136,5.10000845376,2
2025-04-01T10:42:51.650,1743496971650,11.8242850743364,46.3789706867756,25.78608,1899.5136,5.10000845376,2
2025-04-01T10:42:51.750,1743496971750,11.8242916371999,46.3789705687666,25.87752,1899.8184,5.000008288,2
2025-04-01T10:42:51.850,1743496971850,11.8242982252893,46.3789705390425,25.99944,1899.8184,5.000008288,2
2025-04-01T10:42:51.950,1743496971950,11.8243046992669,46.3789706002786,26.09088,1899.8184,5.000008288,2
2025-04-01T10:42:52.050,1743496972050,11.8243112707708,46.378970573652,26.09088,1899.8184,5.000008288,2
2025-04-01T10:42:52.150,1743496972150,11.8243179084178,46.3789705501546,26.18232,1900.1232,5.000008288,2
2025-04-01T10:42:52.250,1743496972250,11.8243244720759,46.3789705048366,26.27376,1900.1232,5.000008288,2
2025-04-01T10:42:52.350,1743496972350,11.8243308933178,46.3789705341986,26.27376,1900.1232,5.000008288,2
2025-04-01T10:42:52.450,1743496972450,11.8243374158599,46.3789704722418,26.39568,1900.1232,5.000008288,2
2025-04-01T10:42:52.550,1743496972550,11.8243435080747,46.3789702814073,26.48712,1900.428,4.90000812224,2
2025-04-01T10:42:52.650,1743496972650,11.8243499225633,46.3789701789017,26.48712,1900.428,4.90000812224,2
2025-04-01T10:42:52.750,1743496972750,11.8243569423703,46.3789700530077,26.57856,1900.428,4.90102826752,2
2025-04-01T10:42:52.850,1743496972850,11.8243638974246,46.3789700039469,26.67,1900.428,4.90102826752,2
2025-04-01T10:42:52.950,1743496972950,11.8243703635564,46.3789698816265,26.67,1900.428,4.90102826752,2
2025-04-01T10:42:53.050,1743496973050,11.8243768196575,46.3789697556326,26.79192,1900.7328,4.90102826752,2
2025-04-01T10:42:53.150,1743496973150,11.8243825356712,46.3789696335187,26.88336,1900.7328,4.90102826752,2
2025-04-01T10:42:53.230,1743496973230,11.8243889170882,46.3789695374649,26.88336,1900.7328,4.90102826752,2
2025-04-01T10:42:53.350,1743496973350,11.8243953734872,46.3789693594818,26.9748,1900.7328,4.90000812224,2
2025-04-01T10:42:53.450,1743496973450,11.8244017437811,46.3789692992579,27.09672,1900.7328,4.90000812224,2
2025-04-01T10:42:53.550,1743496973550,11.8244080838835,46.3789692089909,27.18816,1901.0376,4.90000812224,2
2025-04-01T10:42:53.640,1743496973640,11.8244144854613,46.3789691581478,27.18816,1901.0376,4.90000812224,2
2025-04-01T10:42:53.740,1743496973740,11.8244209248776,46.3789691148025,27.2796,1901.0376,4.90000812224,2
2025-04-01T10:42:53.840,1743496973840,11.824427294377,46.3789690289816,27.37104,1901.0376,4.90102826752,2
2025-04-01T10:42:53.950,1743496973950,11.8244337724265,46.3789689359861,27.49296,1901.3424,4.90102826752,2
2025-04-01T10:42:54.050,1743496974050,11.8244401152104,46.3789687890964,27.49296,1901.3424,4.80104911264,2
2025-04-01T10:42:54.150,1743496974150,11.8244462850887,46.3789685808393,27.5844,1901.3424,4.80417258112,2
2025-04-01T10:42:54.250,1743496974250,11.8244525303463,46.3789683945405,27.5844,1901.3424,4.80417258112,2
2025-04-01T10:42:54.350,1743496974350,11.82445869655,46.3789681250591,27.67584,1901.3424,4.70426092928,2
2025-04-01T10:42:54.450,1743496974450,11.8244648381239,46.3789679228148,27.79776,1901.6472,4.70426092928,2
2025-04-01T10:42:54.550,1743496974550,11.8244705323878,46.3789679109033,27.79776,1901.6472,4.70107129888,2
2025-04-01T10:42:54.650,1743496974650,11.824476651318,46.3789677363222,27.8892,1901.6472,4.70107129888,2
2025-04-01T10:42:54.760,1743496974760,11.824483451542,46.3789674775383,27.98064,1901.6472,4.70426092928,2
2025-04-01T10:42:54.860,1743496974860,11.8244897088166,46.3789672867767,27.98064,1901.6472,4.80417258112,2
2025-04-01T10:42:54.960,1743496974960,11.8244960599428,46.3789671104156,28.07208,1901.952,4.80104911264,2
2025-04-01T10:42:55.060,1743496975060,11.8245023744223,46.3789669386517,28.194,1901.952,4.80104911264,2
2025-04-01T10:42:55.150,1743496975150,11.8245085695263,46.3789667119428,28.194,1901.952,4.80104911264,2
2025-04-01T10:42:55.260,1743496975260,11.8245148300783,46.378966514817,28.28544,1901.952,4.70426092928,2
2025-04-01T10:42:55.370,1743496975370,11.8245210423637,46.3789662894929,28.37688,1902.2568,4.70426092928,2
2025-04-01T10:42:55.470,1743496975470,11.8245276228058,46.3789659635387,28.4988,1902.2568,4.70426092928,2
2025-04-01T10:42:55.570,1743496975570,11.8245339276518,46.3789656915236,28.59024,1902.2568,4.80417258112,2
2025-04-01T10:42:55.670,1743496975670,11.8245402700385,46.3789654062996,28.59024,1902.2568,4.80937344448,2
2025-04-01T10:42:55.780,1743496975780,11.8245460285585,46.3789653025317,28.68168,1902.5616,4.80417258112,2
2025-04-01T10:42:55.880,1743496975880,11.8245524040167,46.3789650433991,28.77312,1902.5616,4.90408780928,2
2025-04-01T10:42:55.980,1743496975980,11.8245589596304,46.3789647655998,28.89504,1902.5616,4.90408780928,2
2025-04-01T10:42:56.080,1743496976080,11.824565406098,46.3789645514651,28.98648,1902.8664,4.90408780928,2
2025-04-01T10:42:56.180,1743496976180,11.8245718765004,46.3789642733736,29.07792,1902.8664,5.00400661376,2
2025-04-01T10:42:56.280,1743496976280,11.8245784054979,46.3789640925041,29.07792,1902.8664,5.00100786944,2
2025-04-01T10:42:56.350,1743496976350,11.8245848385582,46.3789639662424,29.19984,1902.8664,5.00100786944,2
2025-04-01T10:42:56.450,1743496976450,11.8245913696413,46.3789637922517,29.19984,1902.8664,5.00100786944,2
2025-04-01T10:42:56.550,1743496976550,11.8245974410995,46.3789636956538,29.29128,1903.1712,5.00100786944,2
2025-04-01T10:42:56.650,1743496976650,11.8246039098135,46.3789635429173,29.38272,1903.1712,5.00100786944,2
2025-04-01T10:42:56.750,1743496976750,11.8246105933435,46.3789632954847,29.38272,1903.1712,5.00400661376,2
2025-04-01T10:42:56.850,1743496976850,11.8246170630506,46.3789631208266,29.47416,1903.1712,5.00400661376,2
2025-04-01T10:42:56.950,1743496976950,11.8246240572346,46.378962846323,29.59608,1903.476,5.00100786944,2
2025-04-01T10:42:57.050,1743496977050,11.8246305964615,46.378962661788,29.59608,1903.476,5.00100786944,2
2025-04-01T10:42:57.150,1743496977150,11.8246371098667,46.3789625229879,29.68752,1903.476,5.00100786944,2
2025-04-01T10:42:57.250,1743496977250,11.8246436667715,46.3789623892398,29.77896,1903.476,5.00100786944,2
2025-04-01T10:42:57.350,1743496977350,11.824650347918,46.3789623846718,29.77896,1903.476,5.000008288,2
2025-04-01T10:42:57.450,1743496977450,11.8246569262745,46.378962307939,29.8704,1903.7808,5.000008288,2
2025-04-01T10:42:57.550,1743496977550,11.8246635053263,46.378962159656,29.99232,1903.7808,5.000008288,2
2025-04-01T10:42:57.650,1743496977650,11.8246700439573,46.3789620886603,29.99232,1903.7808,5.000008288,2
2025-04-01T10:42:57.750,1743496977750,11.8246764844661,46.3789619813258,30.08376,1903.7808,4.90000812224,2
2025-04-01T10:42:57.850,1743496977850,11.8246829529814,46.3789619059805,30.1752,1904.0856,4.90000812224,2
2025-04-01T10:42:57.950,1743496977950,11.8246893215869,46.3789618094158,30.1752,1904.0856,4.90000812224,2
2025-04-01T10:42:58.050,1743496978050,11.8246961529954,46.3789618214584,30.29712,1904.0856,4.90000812224,2
2025-04-01T10:42:58.150,1743496978150,11.8247026217094,46.3789617678999,30.38856,1904.0856,4.90000812224,2
2025-04-01T10:42:58.250,1743496978250,11.8247090995602,46.3789617246957,30.48,1904.3904,4.90000812224,2
2025-04-01T10:42:58.350,1743496978350,11.824715025027,46.3789615994156,30.48,1904.3904,4.90000812224,2
2025-04-01T10:42:58.450,1743496978450,11.8247214555051,46.3789615444375,30.57144,1904.3904,4.90000812224,2
2025-04-01T10:42:58.550,1743496978550,11.8247269104224,46.3789615306777,30.69336,1904.3904,4.90000812224,2
2025-04-01T10:42:58.650,1743496978650,11.8247332707849,46.3789614563301,30.69336,1904.3904,4.90000812224,2
2025-04-01T10:42:58.750,1743496978750,11.824741008433,46.3789613308776,30.7848,1904.6952,4.90000812224,2
2025-04-01T10:42:58.830,1743496978830,11.8247475116089,46.3789612217596,30.87624,1904.6952,4.90102826752,2
2025-04-01T10:42:58.930,1743496978930,11.824753887663,46.3789611165642,30.87624,1904.6952,5.00100786944,2
2025-04-01T10:42:59.050,1743496979050,11.8247603920307,46.3789610194556,30.99816,1904.6952,5.00100786944,2
2025-04-01T10:42:59.150,1743496979150,11.8247670286845,46.3789608480252,31.0896,1905,5.00100786944,2
2025-04-01T10:42:59.250,1743496979250,11.8247735293776,46.3789607441572,31.0896,1905,4.90102826752,2
2025-04-01T10:42:59.340,1743496979340,11.8247798635212,46.3789606726369,31.18104,1905,4.90102826752,2
2025-04-01T10:42:59.450,1743496979450,11.8247863084991,46.3789605818757,31.27248,1905,4.90000812224,2
2025-04-01T10:42:59.550,1743496979550,11.8247927595352,46.3789605047179,31.27248,1905,4.90000812224,2
2025-04-01T10:42:59.650,1743496979650,11.8247992169274,46.3789604318873,31.3944,1905.3048,4.90000812224,2
2025-04-01T10:42:59.750,1743496979750,11.8248056783915,46.3789602240239,31.48584,1905.3048,4.90000812224,2
2025-04-01T10:42:59.850,1743496979850,11.8248121352871,46.3789601569806,31.48584,1905.3048,4.90000812224,2
2025-04-01T10:42:59.950,1743496979950,11.8248181741703,46.3789601328933,31.57728,1905.3048,4.90000812224,2
2025-04-01T10:43:00.050,1743496980050,11.8248245927308,46.3789600782331,31.6992,1905.6096,4.90000812224,2
2025-04-01T10:43:00.150,1743496980150,11.8248314612826,46.3789599622326,31.6992,1905.6096,4.90000812224,2
2025-04-01T10:43:00.250,1743496980250,11.8248379115242,46.378959915594,31.79064,1905.6096,4.90000812224,2
2025-04-01T10:43:00.350,1743496980350,11.8248443735842,46.378959940116,31.88208,1905.6096,4.90000812224,2
2025-04-01T10:43:00.460,1743496980460,11.8248508615651,46.3789599052889,31.88208,1905.6096,4.90000812224,2
2025-04-01T10:43:00.550,1743496980550,11.8248575238419,46.3789597186395,31.97352,1905.9144,5.000008288,2
2025-04-01T10:43:00.650,1743496980650,11.8248640349629,46.3789596957801,32.09544,1905.9144,5.000008288,2
2025-04-01T10:43:00.750,1743496980750,11.8248704887798,46.378959706537,32.09544,1905.9144,5.000008288,2
2025-04-01T10:43:00.860,1743496980860,11.8248769868907,46.3789597090345,32.18688,1905.9144,4.90000812224,2
2025-04-01T10:43:00.960,1743496980960,11.8248833315616,46.3789598830236,32.27832,1906.2192,4.90000812224,2
2025-04-01T10:43:01.070,1743496981070,11.8248898085186,46.3789599382201,32.27832,1906.2192,4.90000812224,2
2025-04-01T10:43:01.170,1743496981170,11.8248964591757,46.3789598859291,32.36976,1906.2192,4.90000812224,2
2025-04-01T10:43:01.270,1743496981270,11.8249029473552,46.3789599544347,32.36976,1906.2192,4.90000812224,2
2025-04-01T10:43:01.370,1743496981370,11.8249093757477,46.3789600267075,32.49168,1906.2192,4.90000812224,2
2025-04-01T10:43:01.470,1743496981470,11.8249158513144,46.3789600804823,32.58312,1906.524,4.90000812224,2
2025-04-01T10:43:01.570,1743496981570,11.8249221740368,46.3789601647946,32.58312,1906.524,4.90000812224,2
2025-04-01T10:43:01.680,1743496981680,11.8249286393741,46.3789602068287,32.67456,1906.524,4.90000812224,2
2025-04-01T10:43:01.780,1743496981780,11.8249351969741,46.3789602078008,32.79648,1906.524,4.90000812224,2
2025-04-01T10:43:01.880,1743496981880,11.8249416925028,46.3789602549906,32.79648,1906.524,4.90000812224,2
2025-04-01T10:43:01.980,1743496981980,11.8249481081832,46.3789602998531,32.88792,1906.8288,5.000008288,2
2025-04-01T10:43:02.080,1743496982080,11.8249546052016,46.3789603298938,32.88792,1906.8288,5.000008288,2
2025-04-01T10:43:02.180,1743496982180,11.8249611882259,46.3789603809462,32.97936,1906.8288,5.000008288,2
2025-04-01T10:43:02.250,1743496982250,11.8249676728301,46.3789603962904,32.97936,1906.8288,4.90000812224,2
2025-04-01T10:43:02.350,1743496982350,11.8249741996428,46.3789605623959,33.0708,1906.8288,4.90000812224,2
2025-04-01T10:43:02.450,1743496982450,11.8249806827573,46.3789605763698,33.19272,1907.1336,4.90000812224,2
2025-04-01T10:43:02.550,1743496982550,11.8249871519678,46.3789606085045,33.19272,1907.1336,4.90000812224,2
2025-04-01T10:43:02.650,1743496982650,11.8249936423322,46.3789606071792,33.28416,1907.1336,4.90000812224,2
2025-04-01T10:43:02.750,1743496982750,11.8250001635833,46.3789605096628,33.28416,1907.1336,5.000008288,2
2025-04-01T10:43:02.850,1743496982850,11.8250066769885,46.3789604898426,33.3756,1907.1336,5.000008288,2
2025-04-01T10:43:02.950,1743496982950,11.82501308671,46.3789604369585,33.49752,1907.1336,5.000008288,2
2025-04-01T10:43:03.050,1743496983050,11.8250196108412,46.378960397119,33.49752,1907.1336,5.000008288,2
2025-04-01T10:43:03.150,1743496983150,11.8250261711226,46.3789602235378,33.58896,1907.4384,5.000008288,2
2025-04-01T10:43:03.250,1743496983250,11.8250331887447,46.3789602361039,33.58896,1907.4384,5.000008288,2
2025-04-01T10:43:03.350,1743496983350,11.8250397730601,46.3789601703176,33.6804,1907.4384,5.000008288,2
2025-04-01T10:43:03.450,1743496983450,11.8250463590638,46.3789601041511,33.6804,1907.4384,5.000008288,2
2025-04-01T10:43:03.550,1743496983550,11.8250523623927,46.3789600231511,33.77184,1907.4384,5.000008288,2
2025-04-01T10:43:03.650,1743496983650,11.8250588749041,46.378959988036,33.77184,1907.4384,5.000008288,2
2025-04-01T10:43:03.750,1743496983750,11.825065292968,46.3789598488206,33.89376,1907.7432,5.000008288,2
2025-04-01T10:43:03.850,1743496983850,11.8250718003151,46.3789598374171,33.9852,1907.7432,5.000008288,2
2025-04-01T10:43:03.950,1743496983950,11.8250783658601,46.3789599162139,33.9852,1907.7432,5.000008288,2
2025-04-01T10:43:04.050,1743496984050,11.8250848647656,46.3789599158713,34.07664,1907.7432,5.000008288,2
2025-04-01T10:43:04.150,1743496984150,11.8250914288209,46.3789598982383,34.19856,1908.048,5.000008288,2
2025-04-01T10:43:04.250,1743496984250,11.8250978910795,46.3789598926767,34.19856,1908.048,4.90000812224,2
2025-04-01T10:43:04.320,1743496984320,11.82510429226,46.3789597417998,34.29,1908.048,4.90000812224,2
2025-04-01T10:43:04.450,1743496984450,11.825110727952,46.378959730195,34.29,1908.048,4.90000812224,2
2025-04-01T10:43:04.550,1743496984550,11.8251168003538,46.3789597668154,34.38144,1908.048,4.90000812224,2
2025-04-01T10:43:04.650,1743496984650,11.8251231768051,46.378959782788,34.47288,1908.3528,4.90000812224,2
2025-04-01T10:43:04.750,1743496984750,11.8251300899986,46.3789597054,34.47288,1908.3528,4.90000812224,2
2025-04-01T10:43:04.850,1743496984850,11.8251364859154,46.3789597247866,34.5948,1908.3528,4.90000812224,2
2025-04-01T10:43:04.950,1743496984950,11.8251430300087,46.3789598072361,34.5948,1908.3528,4.90000812224,2
2025-04-01T10:43:05.050,1743496985050,11.8251494270677,46.3789598371141,34.68624,1908.3528,4.90000812224,2
2025-04-01T10:43:05.150,1743496985150,11.8251557263024,46.3789596738552,34.77768,1908.6576,4.90000812224,2
2025-04-01T10:43:05.250,1743496985250,11.8251621459553,46.3789596916017,34.77768,1908.6576,4.90000812224,2
2025-04-01T10:43:05.350,1743496985350,11.8251685558258,46.3789596991791,34.8996,1908.6576,4.90000812224,2
2025-04-01T10:43:05.450,1743496985450,11.8251749921634,46.3789597393376,34.8996,1908.6576,4.90000812224,2
2025-04-01T10:43:05.550,1743496985550,11.8251814686239,46.3789599004372,34.99104,1908.6576,4.90000812224,2
2025-04-01T10:43:05.650,1743496985650,11.8251878994992,46.3789599595701,35.08248,1908.9624,4.90000812224,2
2025-04-01T10:43:05.750,1743496985750,11.8251944217931,46.3789600804395,35.08248,1908.9624,4.90000812224,2
2025-04-01T10:43:05.850,1743496985850,11.8252011827383,46.3789599702199,35.17392,1908.9624,4.90000812224,2
2025-04-01T10:43:05.950,1743496985950,11.8252076168414,46.3789599876421,35.17392,1908.9624,4.80000795648,2
2025-04-01T10:43:06.050,1743496986050,11.8252140352528,46.378960002937,35.29584,1908.9624,4.80000795648,2
2025-04-01T10:43:06.150,1743496986150,11.8252197203302,46.3789600064527,35.29584,1908.9624,4.80000795648,2
2025-04-01T10:43:06.260,1743496986260,11.8252260816361,46.3789600275875,35.38728,1909.2672,4.80000795648,2
2025-04-01T10:43:06.360,1743496986360,11.8252326419672,46.378960122844,35.38728,1909.2672,4.90000812224,2
2025-04-01T10:43:06.460,1743496986460,11.8252390409628,46.3789601325593,35.38728,1909.2672,4.80000795648,2
2025-04-01T10:43:06.570,1743496986570,11.8252453558395,46.3789602290009,35.47872,1909.2672,4.80000795648,2
2025-04-01T10:43:06.670,1743496986670,11.825251765263,46.378960222326,35.47872,1909.2672,4.80000795648,2
2025-04-01T10:43:06.770,1743496986770,11.8252581071035,46.3789601079345,35.57016,1909.2672,4.90000812224,2
2025-04-01T10:43:06.880,1743496986880,11.8252645154842,46.378960112464,35.57016,1909.2672,4.90000812224,2
2025-04-01T10:43:06.980,1743496986980,11.8252707954521,46.3789603153793,35.69208,1909.572,4.90102826752,2
2025-04-01T10:43:07.050,1743496987050,11.8252772215604,46.3789604236355,35.69208,1909.572,4.90102826752,2
2025-04-01T10:43:07.180,1743496987180,11.8252837930643,46.3789604419237,35.78352,1909.572,4.90102826752,2
2025-04-01T10:43:07.280,1743496987280,11.8252902474274,46.3789605695344,35.78352,1909.572,4.90102826752,2
2025-04-01T10:43:07.380,1743496987380,11.8252966713011,46.3789607354408,35.87496,1909.572,4.90102826752,2
2025-04-01T10:43:07.480,1743496987480,11.8253031103202,46.3789608401577,35.87496,1909.572,4.90102826752,2
2025-04-01T10:43:07.590,1743496987590,11.8253094294178,46.3789609424809,35.87496,1909.572,4.90102826752,2
2025-04-01T10:43:07.690,1743496987690,11.8253158745447,46.3789610210989,35.99688,1909.8768,4.90102826752,2
2025-04-01T10:43:07.750,1743496987750,11.8253224323929,46.3789611131438,35.99688,1909.8768,4.90000812224,2
2025-04-01T10:43:07.850,1743496987850,11.8253288842235,46.3789611789441,36.08832,1909.8768,4.90000812224,2
2025-04-01T10:43:07.950,1743496987950,11.8253352527297,46.378961180596,36.08832,1909.8768,4.90000812224,2
2025-04-01T10:43:08.050,1743496988050,11.825341685492,46.3789612303038,36.08832,1909.8768,4.90000812224,2
2025-04-01T10:43:08.150,1743496988150,11.8253481551992,46.3789614936185,36.17976,1909.8768,4.90000812224,2
2025-04-01T10:43:08.250,1743496988250,11.8253546033552,46.3789615481801,36.17976,1909.8768,4.90000812224,2
2025-04-01T10:43:08.350,1743496988350,11.8253609387898,46.3789616637492,36.2712,1910.1816,4.90000812224,2
2025-04-01T10:43:08.450,1743496988450,11.8253673990125,46.378961722728,36.2712,1910.1816,5.000008288,2
2025-04-01T10:43:08.550,1743496988550,11.8253739388849,46.3789617020514,36.2712,1910.1816,4.90000812224,2
2025-04-01T10:43:08.650,1743496988650,11.8253804073009,46.3789617351881,36.39312,1910.1816,4.90000812224,2
2025-04-01T10:43:08.750,1743496988750,11.825386901042,46.3789617407314,36.39312,1910.1816,4.90000812224,2
2025-04-01T10:43:08.850,1743496988850,11.8253933804819,46.3789617735556,36.48456,1910.1816,4.90000812224,2
2025-04-01T10:43:08.950,1743496988950,11.8253998220335,46.3789616377541,36.48456,1910.1816,4.90000812224,2
2025-04-01T10:43:09.050,1743496989050,11.8254063188037,46.3789616609669,36.48456,1910.1816,5.000008288,2
2025-04-01T10:43:09.150,1743496989150,11.8254129175196,46.378961784321,36.576,1910.4864,5.000008288,2
2025-04-01T10:43:09.250,1743496989250,11.8254194076854,46.3789618204543,36.576,1910.4864,4.90000812224,2
2025-04-01T10:43:09.350,1743496989350,11.825425772219,46.3789617686696,36.69792,1910.4864,4.90000812224,2
2025-04-01T10:43:09.450,1743496989450,11.825432208209,46.3789618077608,36.69792,1910.4864,4.90000812224,2
2025-04-01T10:43:09.550,1743496989550,11.8254386387865,46.3789617778774,36.69792,1910.4864,4.90000812224,2
2025-04-01T10:43:09.650,1743496989650,11.8254450648948,46.3789617983431,36.78936,1910.4864,4.90000812224,2
2025-04-01T10:43:09.750,1743496989750,11.8254509618087,46.3789617609574,36.78936,1910.4864,4.90000812224,2
2025-04-01T10:43:09.850,1743496989850,11.8254573293715,46.3789617522955,36.8808,1910.7912,4.90000812224,2
2025-04-01T10:43:09.950,1743496989950,11.8254638494804,46.3789618167576,36.8808,1910.7912,4.90000812224,2
2025-04-01T10:43:10.050,1743496990050,11.8254702576625,46.3789618043896,36.97224,1910.7912,4.90000812224,2
2025-04-01T10:43:10.130,1743496990130,11.8254772793565,46.3789616920963,36.97224,1910.7912,4.90000812224,2
2025-04-01T10:43:10.250,1743496990250,11.8254837648049,46.3789616782755,37.09416,1910.7912,4.90000812224,2
2025-04-01T10:43:10.350,1743496990350,11.8254904878122,46.3789617040694,37.09416,1910.7912,4.90000812224,2
2025-04-01T10:43:10.450,1743496990450,11.8254969875618,46.3789616994917,37.09416,1910.7912,4.90000812224,2
2025-04-01T10:43:10.550,1743496990550,11.8255026856989,46.3789615838305,37.1856,1911.096,4.90000812224,2
2025-04-01T10:43:10.650,1743496990650,11.8255090644841,46.3789615698395,37.1856,1911.096,4.90000812224,2
2025-04-01T10:43:10.750,1743496990750,11.8255161556482,46.3789616235212,37.27704,1911.096,4.90000812224,2
2025-04-01T10:43:10.840,1743496990840,11.8255226179564,46.3789616321156,37.27704,1911.096,4.90000812224,2
2025-04-01T10:43:10.950,1743496990950,11.8255290004411,46.3789615189198,37.27704,1911.096,4.90000812224,2
2025-04-01T10:43:11.050,1743496991050,11.8255359713608,46.3789616305236,37.39896,1911.096,4.90000812224,2
2025-04-01T10:43:11.150,1743496991150,11.825542525013,46.3789616872778,37.39896,1911.096,4.90000812224,2
2025-04-01T10:43:11.250,1743496991250,11.8255490874297,46.3789617573089,37.4904,1911.4008,4.90000812224,2
2025-04-01T10:43:11.350,1743496991350,11.8255549277844,46.3789616772275,37.4904,1911.4008,4.90000812224,2
2025-04-01T10:43:11.450,1743496991450,11.8255614317052,46.3789617323854,37.58184,1911.4008,4.90000812224,2
2025-04-01T10:43:11.550,1743496991550,11.8255679923838,46.3789618744122,37.58184,1911.4008,5.000008288,2
2025-04-01T10:43:11.650,1743496991650,11.8255745112265,46.3789619464324,37.58184,1911.4008,5.000008288,2
2025-04-01T10:43:11.760,1743496991760,11.825580857263,46.3789619756306,37.67328,1911.4008,4.90000812224,2
2025-04-01T10:43:11.850,1743496991850,11.8255873276653,46.3789620359978,37.67328,1911.4008,4.90000812224,2
2025-04-01T10:43:11.960,1743496991960,11.8255939542884,46.3789620620754,37.7952,1911.7056,4.90000812224,2
2025-04-01T10:43:12.060,1743496992060,11.825600401923,46.3789621258694,37.7952,1911.7056,4.90000812224,2
2025-04-01T10:43:12.170,1743496992170,11.8256068115204,46.3789623058568,37.88664,1911.7056,4.90102826752,2
2025-04-01T10:43:12.270,1743496992270,11.8256132758397,46.378962390972,37.88664,1911.7056,4.90102826752,2
2025-04-01T10:43:12.370,1743496992370,11.8256196552704,46.3789624176255,37.97808,1911.7056,4.90102826752,2
2025-04-01T10:43:12.470,1743496992470,11.8256261274356,46.3789625064212,37.97808,1911.7056,4.90102826752,2
2025-04-01T10:43:12.570,1743496992570,11.8256320851297,46.3789625485666,37.97808,1911.7056,4.90102826752,2
2025-04-01T10:43:12.670,1743496992670,11.8256385423977,46.3789626524196,38.1,1912.0104,5.00100786944,2
2025-04-01T10:43:12.770,1743496992770,11.8256456695879,46.3789629924612,38.1,1912.0104,5.00100786944,2
2025-04-01T10:43:12.880,1743496992880,11.8256522383359,46.3789630925641,38.19144,1912.0104,5.00100786944,2
2025-04-01T10:43:12.980,1743496992980,11.8256589109662,46.3789631572468,38.19144,1912.0104,5.00100786944,2
2025-04-01T10:43:13.080,1743496993080,11.8256654706021,46.3789632223228,38.28288,1912.0104,5.000008288,2
2025-04-01T10:43:13.180,1743496993180,11.8256717965771,46.3789630350552,38.28288,1912.0104,4.90000812224,2
2025-04-01T10:43:13.280,1743496993280,11.8256782597791,46.3789630485302,38.28288,1912.0104,4.90000812224,2
2025-04-01T10:43:13.380,1743496993380,11.825684689711,46.3789631152828,38.37432,1912.3152,4.90000812224,2
2025-04-01T10:43:13.450,1743496993450,11.8256911290529,46.3789631264963,38.37432,1912.3152,4.90000812224,2
2025-04-01T10:43:13.550,1743496993550,11.8256976362262,46.3789631131567,38.49624,1912.3152,4.90000812224,2
2025-04-01T10:43:13.650,1743496993650,11.8257041007193,46.378963113511,38.49624,1912.3152,4.90000812224,2
2025-04-01T10:43:13.750,1743496993750,11.8257106914157,46.3789632220654,38.58768,1912.3152,4.90000812224,2
2025-04-01T10:43:13.850,1743496993850,11.8257172290535,46.3789632464274,38.58768,1912.3152,5.000008288,2
2025-04-01T10:43:13.950,1743496993950,11.825723629365,46.3789632000816,38.58768,1912.3152,5.000008288,2
2025-04-01T10:43:14.050,1743496994050,11.8257301864436,46.3789632132076,38.67912,1912.62,5.000008288,2
2025-04-01T10:43:14.150,1743496994150,11.8257368190628,46.3789632141064,38.67912,1912.62,5.000008288,2
2025-04-01T10:43:14.250,1743496994250,11.825743337322,46.3789632324203,38.67912,1912.62,5.000008288,2
2025-04-01T10:43:14.350,1743496994350,11.8257497646965,46.3789632106223,38.77056,1912.62,4.90000812224,2
2025-04-01T10:43:14.450,1743496994450,11.8257562865683,46.3789632356357,38.77056,1912.62,5.000008288,2
2025-04-01T10:43:14.550,1743496994550,11.8257621154522,46.3789632453434,38.89248,1912.62,5.000008288,2
2025-04-01T10:43:14.650,1743496994650,11.8257685714789,46.378963308234,38.89248,1912.62,5.000008288,2
2025-04-01T10:43:14.750,1743496994750,11.8257758120732,46.3789635238498,38.89248,1912.62,5.00100786944,2
2025-04-01T10:43:14.850,1743496994850,11.8257823350498,46.3789636371178,38.98392,1912.9248,5.00100786944,2
2025-04-01T10:43:14.950,1743496994950,11.825788601362,46.3789636473035,38.98392,1912.9248,4.90102826752,2
2025-04-01T10:43:15.050,1743496995050,11.8257950983928,46.3789637626933,38.98392,1912.9248,4.90102826752,2
2025-04-01T10:43:15.120,1743496995120,11.8258017076236,46.3789638576415,39.07536,1912.9248,4.90102826752,2
2025-04-01T10:43:15.250,1743496995250,11.8258082013026,46.3789639852988,39.07536,1912.9248,4.90102826752,2
2025-04-01T10:43:15.350,1743496995350,11.8258146923126,46.3789641161425,39.19728,1912.9248,4.90102826752,2
2025-04-01T10:43:15.450,1743496995450,11.8258211968665,46.378964243205,39.19728,1912.9248,5.00100786944,2
2025-04-01T10:43:15.550,1743496995550,11.8258278339424,46.3789641731086,39.28872,1913.2296,5.00100786944,2
2025-04-01T10:43:15.630,1743496995630,11.8258343569439,46.3789642856957,39.28872,1913.2296,5.00100786944,2
2025-04-01T10:43:15.750,1743496995750,11.8258407329855,46.3789645244365,39.38016,1913.2296,5.00100786944,2
2025-04-01T10:43:15.850,1743496995850,11.8258472631934,46.3789646791305,39.38016,1913.2296,5.00100786944,2
2025-04-01T10:43:15.930,1743496995930,11.8258538047666,46.3789649288048,39.38016,1913.2296,5.00100786944,2
2025-04-01T10:43:16.050,1743496996050,11.8258603459425,46.3789650770765,39.4716,1913.2296,5.00100786944,2
2025-04-01T10:43:16.140,1743496996140,11.8258668198456,46.3789651088756,39.4716,1913.2296,5.00100786944,2
2025-04-01T10:43:16.240,1743496996240,11.8258739008486,46.3789652272924,39.4716,1913.2296,5.00100786944,2
2025-04-01T10:43:16.350,1743496996350,11.8258804232108,46.3789653442292,39.59352,1913.5344,4.90102826752,2
2025-04-01T10:43:16.450,1743496996450,11.8258869191802,46.3789654639499,39.59352,1913.5344,4.90102826752,2
2025-04-01T10:43:16.550,1743496996550,11.8258926108123,46.3789656035909,39.59352,1913.5344,4.90102826752,2
2025-04-01T10:43:16.650,1743496996650,11.8258989970274,46.3789657383988,39.68496,1913.5344,4.90102826752,2
2025-04-01T10:43:16.750,1743496996750,11.825905432316,46.3789659699749,39.68496,1913.5344,4.90102826752,2
2025-04-01T10:43:16.850,1743496996850,11.8259118325639,46.3789661212833,39.7764,1913.5344,4.90102826752,2
2025-04-01T10:43:16.960,1743496996960,11.8259182911851,46.378966175307,39.7764,1913.5344,4.90102826752,2
2025-04-01T10:43:17.060,1743496997060,11.8259247137678,46.3789663222465,39.89832,1913.5344,4.90102826752,2
2025-04-01T10:43:17.160,1743496997160,11.8259312522769,46.3789665528356,39.89832,1913.5344,4.90102826752,2
2025-04-01T10:43:17.260,1743496997260,11.8259376812471,46.3789667078191,39.89832,1913.5344,4.90102826752,2
2025-04-01T10:43:17.360,1743496997360,11.8259441967007,46.3789667184042,39.98976,1913.8392,4.90102826752,2
2025-04-01T10:43:17.470,1743496997470,11.8259506324313,46.3789668409271,39.98976,1913.8392,4.90102826752,2
2025-04-01T10:43:17.570,1743496997570,11.8259570942211,46.3789668243314,40.0812,1913.8392,4.90102826752,2
2025-04-01T10:43:17.670,1743496997670,11.8259635061531,46.3789669176984,40.0812,1913.8392,4.90102826752,2
2025-04-01T10:43:17.770,1743496997770,11.8259699566042,46.3789670406372,40.0812,1913.8392,4.90000812224,2
2025-04-01T10:43:17.880,1743496997880,11.8259763492049,46.3789671002949,40.17264,1913.8392,4.90000812224,2
2025-04-01T10:43:17.980,1743496997980,11.8259826031928,46.3789672723605,40.17264,1913.8392,4.90000812224,2
2025-04-01T10:43:18.080,1743496998080,11.8259889946282,46.3789673584456,40.29456,1914.144,4.90102826752,2
2025-04-01T10:43:18.180,1743496998180,11.8259955360089,46.37896745504,40.29456,1914.144,4.90102826752,2
2025-04-01T10:43:18.280,1743496998280,11.8260019699444,46.3789675748466,40.29456,1914.144,4.90102826752,2
2025-04-01T10:43:18.380,1743496998380,11.8260082169152,46.3789678116946,40.386,1914.144,4.90102826752,2
2025-04-01T10:43:18.490,1743496998490,11.8260146371019,46.3789679278606,40.386,1914.144,4.90102826752,2
2025-04-01T10:43:18.550,1743496998550,11.8260200436595,46.3789678732256,40.47744,1914.144,4.90000812224,2
2025-04-01T10:43:18.650,1743496998650,11.8260264073862,46.3789679471864,40.47744,1914.144,4.90000812224,2
2025-04-01T10:43:18.750,1743496998750,11.8260340774326,46.3789679725885,40.47744,1914.144,5.000008288,2
2025-04-01T10:43:18.850,1743496998850,11.8260411892354,46.3789680363298,40.47744,1914.144,5.000008288,2
2025-04-01T10:43:18.950,1743496998950,11.8260477766481,46.3789681281475,40.59936,1914.4488,5.00100786944,2
2025-04-01T10:43:19.050,1743496999050,11.8260543547812,46.3789682415546,40.59936,1914.4488,5.00100786944,2
2025-04-01T10:43:19.150,1743496999150,11.8260601526172,46.3789684597277,40.59936,1914.4488,5.00100786944,2
2025-04-01T10:43:19.250,1743496999250,11.8260666392821,46.378968616892,40.6908,1914.4488,5.00100786944,2
2025-04-01T10:43:19.350,1743496999350,11.8260730650304,46.3789686602257,40.6908,1914.4488,4.90102826752,2
2025-04-01T10:43:19.450,1743496999450,11.8260795354327,46.3789688022899,40.6908,1914.4488,4.90102826752,2
2025-04-01T10:43:19.550,1743496999550,11.8260861082525,46.378968928985,40.6908,1914.4488,4.90102826752,2
2025-04-01T10:43:19.650,1743496999650,11.8260925798466,46.3789690676092,40.78224,1914.4488,4.90102826752,2
2025-04-01T10:43:19.750,1743496999750,11.826099056605,46.3789690667632,40.78224,1914.4488,4.90102826752,2
2025-04-01T10:43:19.850,1743496999850,11.8261055308309,46.378969201595,40.78224,1914.4488,4.90102826752,2
2025-04-01T10:43:19.950,1743496999950,11.8261121635122,46.3789694473235,40.87368,1914.7536,4.90102826752,2
2025-04-01T10:43:20.050,1743497000050,11.8261186685751,46.3789695990347,40.87368,1914.7536,4.90102826752,2
2025-04-01T10:43:20.150,1743497000150,11.8261246747096,46.3789698222368,40.87368,1914.7536,5.00400661376,2
2025-04-01T10:43:20.250,1743497000250,11.8261312008767,46.3789699987204,40.87368,1914.7536,5.00400661376,2
2025-04-01T10:43:20.350,1743497000350,11.82613791831,46.3789701923917,40.9956,1914.7536,5.00400661376,2
2025-04-01T10:43:20.450,1743497000450,11.8261445062628,46.3789703785843,40.9956,1914.7536,5.00400661376,2
2025-04-01T10:43:20.550,1743497000550,11.8261509795824,46.3789703861856,40.9956,1914.7536,5.10098836544,2
2025-04-01T10:43:20.650,1743497000650,11.8261575603101,46.3789705409068,41.08704,1914.7536,5.10098836544,2
2025-04-01T10:43:20.750,1743497000750,11.8261649024157,46.3789708321964,41.08704,1914.7536,5.00100786944,2
2025-04-01T10:43:20.850,1743497000850,11.8261715591061,46.3789710044921,41.08704,1914.7536,5.10098836544,2
2025-04-01T10:43:20.920,1743497000920,11.826178013643,46.378971046222,41.17848,1915.0584,5.10098836544,2
2025-04-01T10:43:21.020,1743497001020,11.8261846246739,46.3789712154319,41.17848,1915.0584,5.00100786944,2
2025-04-01T10:43:21.130,1743497001130,11.82619127836,46.3789713687967,41.17848,1915.0584,5.00100786944,2
2025-04-01T10:43:21.250,1743497001250,11.8261978736745,46.3789715268634,41.17848,1915.0584,5.00100786944,2
2025-04-01T10:43:21.330,1743497001330,11.8262043373234,46.3789716369136,41.26992,1915.0584,5.00100786944,2
2025-04-01T10:43:21.450,1743497001450,11.8262115352748,46.3789718913363,41.26992,1915.0584,5.00100786944,2
2025-04-01T10:43:21.530,1743497001530,11.8262181798241,46.378972039085,41.26992,1915.0584,5.00100786944,2
2025-04-01T10:43:21.630,1743497001630,11.8262248366883,46.3789721977016,41.39184,1915.0584,5.00100786944,2
2025-04-01T10:43:21.750,1743497001750,11.8262306811646,46.3789722978714,41.39184,1915.0584,5.00400661376,2
2025-04-01T10:43:21.840,1743497001840,11.826237279657,46.3789724657335,41.39184,1915.0584,5.00400661376,2
2025-04-01T10:43:21.940,1743497001940,11.8262439365957,46.3789726775663,41.48328,1915.3632,5.00400661376,2
2025-04-01T10:43:22.050,1743497002050,11.8262505127426,46.3789728758035,41.48328,1915.3632,5.00400661376,2
2025-04-01T10:43:22.140,1743497002140,11.8262570906026,46.3789729131199,41.48328,1915.3632,5.00400661376,2
2025-04-01T10:43:22.250,1743497002250,11.8262636602443,46.3789731272889,41.48328,1915.3632,5.00400661376,2
2025-04-01T10:43:22.350,1743497002350,11.8262702034934,46.3789735163649,41.57472,1915.3632,5.00400661376,2
2025-04-01T10:43:22.450,1743497002450,11.8262767473136,46.3789737877386,41.57472,1915.3632,5.00900005056,2
2025-04-01T10:43:22.550,1743497002550,11.8262826273938,46.3789740716552,41.57472,1915.3632,5.00900005056,2
2025-04-01T10:43:22.650,1743497002650,11.8262890792493,46.3789743478679,41.57472,1915.3632,4.9091831712,2
2025-04-01T10:43:22.750,1743497002750,11.8262961550445,46.3789743985159,41.69664,1915.3632,4.9091831712,2
2025-04-01T10:43:22.860,1743497002860,11.8263026862021,46.3789746589396,41.69664,1915.3632,5.00900005056,2
2025-04-01T10:43:22.960,1743497002960,11.8263093001379,46.3789749119926,41.69664,1915.3632,5.00900005056,2
2025-04-01T10:43:23.050,1743497003050,11.8263158665768,46.3789751940526,41.69664,1915.3632,5.00900005056,2
2025-04-01T10:43:23.160,1743497003160,11.8263223841781,46.3789756333915,41.69664,1915.3632,5.00900005056,2
2025-04-01T10:43:23.250,1743497003250,11.8263289639498,46.3789759349556,41.69664,1915.3632,5.00900005056,2
2025-04-01T10:43:23.370,1743497003370,11.8263355812375,46.3789760160661,41.78808,1915.668,5.00900005056,2
2025-04-01T10:43:23.470,1743497003470,11.8263421579057,46.37897630713,41.78808,1915.668,5.00900005056,2
2025-04-01T10:43:23.570,1743497003570,11.8263486637631,46.3789765377266,41.78808,1915.668,5.00900005056,2
2025-04-01T10:43:23.670,1743497003670,11.8263552117296,46.3789768452813,41.78808,1915.668,5.00900005056,2
2025-04-01T10:43:23.750,1743497003750,11.8263617853936,46.3789772519159,41.78808,1915.668,5.00900005056,2
2025-04-01T10:43:23.870,1743497003870,11.8263682545793,46.3789776015716,41.87952,1915.668,4.91630720064,2
2025-04-01T10:43:23.980,1743497003980,11.8263745800329,46.3789779963997,41.87952,1915.668,4.91630720064,2
2025-04-01T10:43:24.080,1743497004080,11.8263816157301,46.3789783422474,41.87952,1915.668,4.9091831712,2
2025-04-01T10:43:24.180,1743497004180,11.8263880807695,46.3789787028682,41.87952,1915.668,4.91630720064,2
2025-04-01T10:43:24.280,1743497004280,11.8263945491855,46.3789790845381,41.87952,1915.668,4.91630720064,2
2025-04-01T10:43:24.350,1743497004350,11.8264002922622,46.3789794535531,41.97096,1915.668,4.91630720064,2
2025-04-01T10:43:24.490,1743497004490,11.8264067079426,46.3789798721607,41.97096,1915.668,4.91630720064,2
2025-04-01T10:43:24.550,1743497004550,11.8264128636687,46.3789802652417,41.97096,1915.668,4.91630720064,2
2025-04-01T10:43:24.650,1743497004650,11.8264192336646,46.3789806856104,41.97096,1915.668,4.91630720064,2
2025-04-01T10:43:24.750,1743497004750,11.8264261208378,46.3789812225728,41.97096,1915.668,4.91630720064,2
2025-04-01T10:43:24.850,1743497004850,11.8264325062274,46.3789816497513,41.97096,1915.668,4.91630720064,2
2025-04-01T10:43:24.950,1743497004950,11.8264389285618,46.3789820087807,41.97096,1915.668,4.91630720064,2
2025-04-01T10:43:25.050,1743497005050,11.8264453001964,46.3789824205925,41.97096,1915.668,4.91630720064,2
2025-04-01T10:43:25.150,1743497005150,11.8264515941675,46.3789829234343,41.97096,1915.668,4.91630720064,2
2025-04-01T10:43:25.250,1743497005250,11.8264579719099,46.3789833339614,42.09288,1915.9728,4.91630720064,2
2025-04-01T10:43:25.350,1743497005350,11.8264644455896,46.378983791034,42.09288,1915.9728,4.91630720064,2
2025-04-01T10:43:25.450,1743497005450,11.8264708739821,46.378984194988,42.09288,1915.9728,4.91630720064,2
2025-04-01T10:43:25.550,1743497005550,11.8264772986007,46.3789846718143,42.09288,1915.9728,4.91630720064,2
2025-04-01T10:43:25.650,1743497005650,11.8264837875251,46.3789850997358,42.09288,1915.9728,4.91630720064,2
2025-04-01T10:43:25.750,1743497005750,11.8264903550564,46.3789854743363,42.09288,1915.9728,5.01598236832,2
2025-04-01T10:43:25.850,1743497005850,11.8264968866361,46.378985910926,42.09288,1915.9728,5.02494596736,2
2025-04-01T10:43:25.950,1743497005950,11.826503408781,46.3789865375235,42.09288,1915.9728,5.02494596736,2
2025-04-01T10:43:26.050,1743497006050,11.8265099274499,46.378986991956,42.09288,1915.9728,5.01598236832,2
2025-04-01T10:43:26.150,1743497006150,11.826516412352,46.378987342314,42.18432,1915.9728,5.01598236832,2
2025-04-01T10:43:26.250,1743497006250,11.8265229180604,46.3789877453194,42.18432,1915.9728,5.01598236832,2
2025-04-01T10:43:26.350,1743497006350,11.8265293218728,46.3789879926862,42.18432,1915.9728,5.01598236832,2
2025-04-01T10:43:26.450,1743497006450,11.8265358314048,46.3789883523386,42.18432,1915.9728,5.01598236832,2
2025-04-01T10:43:26.550,1743497006550,11.8265418651237,46.3789886697204,42.18432,1915.9728,5.00900005056,2
2025-04-01T10:43:26.630,1743497006630,11.8265483262898,46.3789890174544,42.18432,1915.9728,4.9091831712,2
2025-04-01T10:43:26.750,1743497006750,11.8265556097753,46.3789894147838,42.18432,1915.9728,4.91630720064,2
2025-04-01T10:43:26.830,1743497006830,11.8265620960182,46.3789897445283,42.18432,1915.9728,4.9091831712,2
2025-04-01T10:43:26.950,1743497006950,11.82656840002,46.3789900310354,42.27576,1915.9728,4.9091831712,2
2025-04-01T10:43:27.030,1743497007030,11.8265747946458,46.3789903166947,42.27576,1915.9728,4.9091831712,2
2025-04-01T10:43:27.130,1743497007130,11.8265812812859,46.3789906014397,42.27576,1915.9728,4.90408780928,2
2025-04-01T10:43:27.230,1743497007230,11.826587696867,46.378990874552,42.27576,1915.9728,4.90408780928,2
2025-04-01T10:43:27.350,1743497007350,11.8265942270066,46.378991217991,42.27576,1915.9728,4.9091831712,2
2025-04-01T10:43:27.450,1743497007450,11.8266006890666,46.3789915202759,42.27576,1915.9728,4.9091831712,2
2025-04-01T10:43:27.550,1743497007550,11.8266070825502,46.3789918645349,42.27576,1915.9728,4.9091831712,2
2025-04-01T10:43:27.640,1743497007640,11.826613542177,46.3789921702863,42.27576,1915.9728,4.9091831712,2
2025-04-01T10:43:27.750,1743497007750,11.8266200946126,46.3789923564528,42.27576,1915.9728,4.9091831712,2
2025-04-01T10:43:27.850,1743497007850,11.8266265555304,46.3789926311689,42.39768,1916.2776,4.9091831712,2
2025-04-01T10:43:27.950,1743497007950,11.8266330072121,46.3789929121926,42.39768,1916.2776,4.9091831712,2
2025-04-01T10:43:28.050,1743497008050,11.8266394728473,46.3789932003784,42.39768,1916.2776,4.9091831712,2
2025-04-01T10:43:28.150,1743497008150,11.8266459045172,46.3789935172977,42.39768,1916.2776,4.9091831712,2
2025-04-01T10:43:28.250,1743497008250,11.8266524043661,46.3789938274533,42.39768,1916.2776,5.00900005056,2
2025-04-01T10:43:28.360,1743497008360,11.826658866873,46.3789940557353,42.39768,1916.2776,5.00900005056,2
2025-04-01T10:43:28.460,1743497008460,11.8266653773981,46.3789943656275,42.39768,1916.2776,5.00900005056,2
2025-04-01T10:43:28.560,1743497008560,11.8266720095828,46.3789947414421,42.39768,1916.2776,5.00900005056,2
2025-04-01T10:43:28.660,1743497008660,11.8266785255702,46.37899506966,42.39768,1916.2776,5.00900005056,2
2025-04-01T10:43:28.760,1743497008760,11.8266850214466,46.3789952157515,42.48912,1916.2776,4.9091831712,2
2025-04-01T10:43:28.870,1743497008870,11.8266915229341,46.3789955255196,42.48912,1916.2776,4.9091831712,2
2025-04-01T10:43:28.970,1743497008970,11.826697427396,46.3789957946988,42.48912,1916.2776,4.9091831712,2
2025-04-01T10:43:29.070,1743497009070,11.8267038639322,46.3789960901899,42.48912,1916.2776,4.9091831712,2
2025-04-01T10:43:29.170,1743497009170,11.826710932999,46.3789963677451,42.48912,1916.2776,4.9091831712,2
2025-04-01T10:43:29.270,1743497009270,11.8267179242532,46.3789966476576,42.48912,1916.2776,4.9091831712,2
2025-04-01T10:43:29.350,1743497009350,11.826724465814,46.3789969086364,42.48912,1916.2776,4.9091831712,2
2025-04-01T10:43:29.470,1743497009470,11.8267310013662,46.3789971588304,42.48912,1916.2776,4.90408780928,2
2025-04-01T10:43:29.570,1743497009570,11.8267367617732,46.3789973803466,42.58056,1916.2776,4.90408780928,2
2025-04-01T10:43:29.680,1743497009680,11.8267432185695,46.3789976212653,42.58056,1916.2776,4.90408780928,2
2025-04-01T10:43:29.780,1743497009780,11.8267497396219,46.3789979573111,42.58056,1916.2776,4.90408780928,2
2025-04-01T10:43:29.880,1743497009880,11.8267562135002,46.3789982326031,42.58056,1916.2776,4.9091831712,2
2025-04-01T10:43:29.980,1743497009980,11.8267627630061,46.3789983443536,42.58056,1916.2776,4.9091831712,2
2025-04-01T10:43:30.080,1743497010080,11.8267692256619,46.3789986463601,42.672,1916.5824,4.9091831712,2
2025-04-01T10:43:30.180,1743497010180,11.8267756050927,46.3789990075767,42.672,1916.5824,4.9091831712,2
2025-04-01T10:43:30.250,1743497010250,11.8267820666064,46.3789993378822,42.672,1916.5824,4.91630720064,2
2025-04-01T10:43:30.350,1743497010350,11.826788061146,46.3789996318082,42.672,1916.5824,4.91630720064,2
2025-04-01T10:43:30.450,1743497010450,11.8267944634189,46.3789999933031,42.672,1916.5824,4.91630720064,2
2025-04-01T10:43:30.550,1743497010550,11.8268014619727,46.3790003889314,42.672,1916.5824,4.91630720064,2
2025-04-01T10:43:30.650,1743497010650,11.8268079013891,46.3790007657373,42.672,1916.5824,4.91630720064,2
2025-04-01T10:43:30.750,1743497010750,11.8268142205363,46.3790010615346,42.79392,1916.5824,4.9091831712,2
2025-04-01T10:43:30.850,1743497010850,11.8268205757344,46.3790013965612,42.79392,1916.5824,4.80937344448,2
2025-04-01T10:43:30.950,1743497010950,11.8268270572599,46.3790016915193,42.79392,1916.5824,4.80937344448,2
2025-04-01T10:43:31.050,1743497011050,11.8268333686606,46.3790020025484,42.79392,1916.5824,4.80937344448,2
2025-04-01T10:43:31.150,1743497011150,11.8268396095484,46.379002245377,42.88536,1916.5824,4.80937344448,2
2025-04-01T10:43:31.250,1743497011250,11.8268459570994,46.3790025688653,42.88536,1916.5824,4.80937344448,2
2025-04-01T10:43:31.350,1743497011350,11.8268523114037,46.3790029725848,42.88536,1916.5824,4.9091831712,2
2025-04-01T10:43:31.450,1743497011450,11.8268587218204,46.3790033258193,42.88536,1916.5824,4.9091831712,2
2025-04-01T10:43:31.550,1743497011550,11.8268652384037,46.3790036505707,42.88536,1916.5824,4.9091831712,2
2025-04-01T10:43:31.650,1743497011650,11.8268716659024,46.3790039970865,42.88536,1916.5824,4.9091831712,2
2025-04-01T10:43:31.750,1743497011750,11.8268782220126,46.3790042499805,42.88536,1916.5824,4.9091831712,2
2025-04-01T10:43:31.850,1743497011850,11.8268849612578,46.3790045937749,42.88536,1916.5824,4.9091831712,2
2025-04-01T10:43:31.950,1743497011950,11.8268914282834,46.3790048951498,42.88536,1916.5824,4.9091831712,2
2025-04-01T10:43:32.050,1743497012050,11.826897912689,46.3790051942252,42.88536,1916.5824,4.9091831712,2
2025-04-01T10:43:32.150,1743497012150,11.8269037330816,46.3790054764501,42.9768,1916.8872,4.9091831712,2
2025-04-01T10:43:32.250,1743497012250,11.8269102135146,46.3790057680316,42.9768,1916.8872,4.9091831712,2
2025-04-01T10:43:32.350,1743497012350,11.8269167003037,46.3790060025785,42.9768,1916.8872,4.9091831712,2
2025-04-01T10:43:32.450,1743497012450,11.8269232291027,46.3790062859317,42.9768,1916.8872,5.00900005056,2
2025-04-01T10:43:32.550,1743497012550,11.8269298723112,46.3790065612323,42.9768,1916.8872,5.00900005056,2
2025-04-01T10:43:32.650,1743497012650,11.8269364212709,46.3790068388217,42.9768,1916.8872,5.00900005056,2
2025-04-01T10:43:32.750,1743497012750,11.8269430205827,46.3790070005648,42.9768,1916.8872,5.00900005056,2
2025-04-01T10:43:32.830,1743497012830,11.8269495920866,46.3790072827404,43.09872,1916.8872,5.00900005056,2
2025-04-01T10:43:32.950,1743497012950,11.8269561990455,46.3790075034216,43.09872,1916.8872,5.00900005056,2
2025-04-01T10:43:33.030,1743497013030,11.8269627768062,46.3790077897852,43.09872,1916.8872,5.00900005056,2
2025-04-01T10:43:33.140,1743497013140,11.8269693156358,46.3790080323805,43.09872,1916.8872,5.00900005056,2
2025-04-01T10:43:33.240,1743497013240,11.8269758802871,46.3790083129332,43.09872,1916.8872,5.00900005056,2
2025-04-01T10:43:33.340,1743497013340,11.8269825584541,46.379008514612,43.19016,1916.8872,5.00900005056,2
2025-04-01T10:43:33.450,1743497013450,11.8269891219136,46.3790087991301,43.19016,1916.8872,5.00900005056,2
2025-04-01T10:43:33.540,1743497013540,11.8269957387047,46.3790090081657,43.19016,1916.8872,5.00900005056,2
2025-04-01T10:43:33.650,1743497013650,11.8270022866712,46.379009308378,43.19016,1916.8872,5.00900005056,2
2025-04-01T10:43:33.750,1743497013750,11.8270088776406,46.3790097357417,43.19016,1916.8872,5.00900005056,2
2025-04-01T10:43:33.850,1743497013850,11.8270154329563,46.3790100531642,43.19016,1916.8872,5.00900005056,2
2025-04-01T10:43:33.950,1743497013950,11.8270218978964,46.3790102668418,43.19016,1916.8872,5.00900005056,2
2025-04-01T10:43:34.050,1743497014050,11.827028476253,46.3790105648102,43.2816,1917.192,5.00900005056,2
2025-04-01T10:43:34.150,1743497014150,11.8270350779483,46.3790110175973,43.2816,1917.192,5.00900005056,2
2025-04-01T10:43:34.250,1743497014250,11.8270416404146,46.3790113396746,43.2816,1917.192,5.00900005056,2
2025-04-01T10:43:34.350,1743497014350,11.8270483696291,46.3790117647173,43.2816,1917.192,5.01598236832,2
2025-04-01T10:43:34.460,1743497014460,11.8270552799921,46.3790119624522,43.2816,1917.192,5.01598236832,2
2025-04-01T10:43:34.550,1743497014550,11.8270618552699,46.379012328846,43.2816,1917.192,5.01598236832,2
2025-04-01T10:43:34.660,1743497014660,11.827068420815,46.3790127036842,43.2816,1917.192,5.01598236832,2
2025-04-01T10:43:34.760,1743497014760,11.827074220451,46.3790131860656,43.2816,1917.192,4.91630720064,2
2025-04-01T10:43:34.860,1743497014860,11.8270807125037,46.3790135597905,43.2816,1917.192,4.91630720064,2
2025-04-01T10:43:34.970,1743497014970,11.827087273381,46.3790138963886,43.2816,1917.192,4.91630720064,2
2025-04-01T10:43:35.070,1743497015070,11.8270937631496,46.3790142628123,43.19016,1916.8872,4.91630720064,2
2025-04-01T10:43:35.170,1743497015170,11.8271002152781,46.3790145465596,43.19016,1916.8872,4.91630720064,2
2025-04-01T10:43:35.270,1743497015270,11.8271066671087,46.3790149624384,43.19016,1916.8872,4.91630720064,2
2025-04-01T10:43:35.350,1743497015350,11.8271129068048,46.3790155358123,43.19016,1916.8872,4.92545229792,2
2025-04-01T10:43:35.470,1743497015470,11.8271192422394,46.3790160162026,43.19016,1916.8872,4.82597919232,2
2025-04-01T10:43:35.570,1743497015570,11.8271254357545,46.379016609463,43.19016,1916.8872,4.82597919232,2
2025-04-01T10:43:35.680,1743497015680,11.8271317320595,46.3790170822052,43.09872,1916.8872,4.82597919232,2
2025-04-01T10:43:35.780,1743497015780,11.8271381431714,46.3790174396149,43.09872,1916.8872,4.81664544416,2
2025-04-01T10:43:35.850,1743497015850,11.8271445555744,46.3790178676166,43.09872,1916.8872,4.91630720064,2
2025-04-01T10:43:35.980,1743497015980,11.8271509885353,46.3790183394852,43.09872,1916.8872,5.01598236832,2
2025-04-01T10:43:36.080,1743497016080,11.8271575475257,46.3790188019801,42.9768,1916.8872,5.02494596736,2
2025-04-01T10:43:36.180,1743497016180,11.8271641548819,46.3790192258196,42.9768,1916.8872,5.02494596736,2
2025-04-01T10:43:36.250,1743497016250,11.8271707870666,46.3790197394568,42.9768,1916.8872,5.12445930656,2
2025-04-01T10:43:36.350,1743497016350,11.8271772904412,46.379020219209,42.88536,1916.5824,5.13518111392,2
2025-04-01T10:43:36.450,1743497016450,11.8271838988899,46.3790207676519,42.88536,1916.5824,5.03587967168,2
2025-04-01T10:43:36.550,1743497016550,11.82719048976,46.3790213172768,42.88536,1916.5824,5.03587967168,2
2025-04-01T10:43:36.650,1743497016650,11.8271970441819,46.3790218911089,42.88536,1916.5824,5.03587967168,2
2025-04-01T10:43:36.750,1743497016750,11.8272033392951,46.3790224642045,42.79392,1916.5824,5.03587967168,2
2025-04-01T10:43:36.850,1743497016850,11.8272098357177,46.3790230505064,42.79392,1916.5824,4.93660594592,2
2025-04-01T10:43:36.950,1743497016950,11.8272163292601,46.3790235021073,42.672,1916.5824,4.93660594592,2
2025-04-01T10:43:37.050,1743497017050,11.8272234463948,46.379024080804,42.672,1916.5824,4.93660594592,2
2025-04-01T10:43:37.150,1743497017150,11.8272299567213,46.3790246206141,42.58056,1916.2776,4.93660594592,2
2025-04-01T10:43:37.250,1743497017250,11.8272364252367,46.3790251583387,42.58056,1916.2776,4.93660594592,2
2025-04-01T10:43:37.350,1743497017350,11.8272421424421,46.3790257400757,42.58056,1916.2776,4.93660594592,2
2025-04-01T10:43:37.450,1743497017450,11.8272485017121,46.3790262852771,42.48912,1916.2776,4.93660594592,2
2025-04-01T10:43:37.550,1743497017550,11.8272547689181,46.3790268242092,42.48912,1916.2776,4.93660594592,2
2025-04-01T10:43:37.650,1743497017650,11.8272611505338,46.3790273901707,42.39768,1916.2776,4.93660594592,2
2025-04-01T10:43:37.750,1743497017750,11.8272676817162,46.3790280126358,42.27576,1915.9728,4.93660594592,2
2025-04-01T10:43:37.850,1743497017850,11.827274110208,46.3790285944328,42.27576,1915.9728,4.93660594592,2
2025-04-01T10:43:37.950,1743497017950,11.8272805746515,46.379029227325,42.18432,1915.9728,4.93660594592,2
2025-04-01T10:43:38.050,1743497018050,11.8272870157562,46.379029826405,42.18432,1915.9728,4.93660594592,2
2025-04-01T10:43:38.130,1743497018130,11.8272935609419,46.3790303925078,42.09288,1915.9728,4.93660594592,2
2025-04-01T10:43:38.250,1743497018250,11.827299997081,46.3790309950135,41.97096,1915.668,4.93660594592,2
2025-04-01T10:43:38.330,1743497018330,11.8273064236858,46.3790315176562,41.97096,1915.668,4.93660594592,2
2025-04-01T10:43:38.450,1743497018450,11.8273128321162,46.3790321222089,41.87952,1915.668,4.93660594592,2
2025-04-01T10:43:38.550,1743497018550,11.8273192269406,46.3790327698361,41.87952,1915.668,4.93660594592,2
2025-04-01T10:43:38.650,1743497018650,11.8273256053782,46.3790333853898,41.78808,1915.668,4.93660594592,2
2025-04-01T10:43:38.750,1743497018750,11.8273320296989,46.379033996233,41.69664,1915.3632,4.93660594592,2
2025-04-01T10:43:38.840,1743497018840,11.8273384112152,46.3790345903113,41.69664,1915.3632,4.93660594592,2
2025-04-01T10:43:38.940,1743497018940,11.8273444137496,46.3790350897445,41.57472,1915.3632,4.93660594592,2
2025-04-01T10:43:39.040,1743497019040,11.8273507654718,46.3790356535648,41.48328,1915.3632,4.93660594592,2
2025-04-01T10:43:39.140,1743497019140,11.8273576260785,46.3790362232346,41.48328,1915.3632,4.93660594592,2
2025-04-01T10:43:39.250,1743497019250,11.8273639991532,46.3790367602013,41.39184,1915.0584,4.92545229792,2
2025-04-01T10:43:39.350,1743497019350,11.8273703738169,46.3790373290232,41.26992,1915.0584,4.82597919232,2
2025-04-01T10:43:39.450,1743497019450,11.8273767003133,46.3790378591769,41.17848,1915.0584,4.82597919232,2
2025-04-01T10:43:39.550,1743497019550,11.8273830325699,46.3790383388306,41.17848,1915.0584,4.82597919232,2
2025-04-01T10:43:39.650,1743497019650,11.8273897353668,46.3790389702968,41.08704,1914.7536,4.83736261888,2
2025-04-01T10:43:39.750,1743497019750,11.8273960693118,46.3790395224996,40.9956,1914.7536,4.83736261888,2
2025-04-01T10:43:39.850,1743497019850,11.8274023723701,46.379040065427,40.87368,1914.7536,4.82597919232,2
2025-04-01T10:43:39.960,1743497019960,11.8274078996873,46.3790406273975,40.87368,1914.7536,4.72652843872,2
2025-04-01T10:43:40.050,1743497020050,11.8274141132638,46.3790411633535,40.78224,1914.4488,4.72652843872,2
2025-04-01T10:43:40.160,1743497020160,11.8274204443286,46.3790416738048,40.6908,1914.4488,4.73815058464,2
2025-04-01T10:43:40.260,1743497020260,11.8274266776686,46.3790422399889,40.59936,1914.4488,4.73815058464,2
2025-04-01T10:43:40.360,1743497020360,11.8274324914072,46.3790427599381,40.47744,1914.144,4.83736261888,2
2025-04-01T10:43:40.460,1743497020460,11.8274387341819,46.3790433489249,40.386,1914.144,4.83736261888,2
2025-04-01T10:43:40.550,1743497020550,11.8274450228397,46.3790440156722,40.29456,1914.144,4.83736261888,2
2025-04-01T10:43:40.650,1743497020650,11.8274513061346,46.3790446442823,40.17264,1913.8392,4.85078097152,2
2025-04-01T10:43:40.770,1743497020770,11.8274582344735,46.3790452931643,40.0812,1913.8392,4.85078097152,2
2025-04-01T10:43:40.870,1743497020870,11.8274645783499,46.3790459492489,39.98976,1913.8392,4.85078097152,2
2025-04-01T10:43:40.970,1743497020970,11.8274709955199,46.3790465214881,39.89832,1913.5344,4.85078097152,2
2025-04-01T10:43:41.070,1743497021070,11.8274773399921,46.3790471666617,39.68496,1913.5344,4.85078097152,2
2025-04-01T10:43:41.180,1743497021180,11.827483630239,46.3790476261333,39.59352,1913.5344,4.85078097152,2
2025-04-01T10:43:41.280,1743497021280,11.8274899643826,46.3790482727971,39.4716,1913.2296,4.85078097152,2
2025-04-01T10:43:41.380,1743497021380,11.8274962734991,46.3790488442655,39.38016,1913.2296,4.85078097152,2
2025-04-01T10:43:41.480,1743497021480,11.8275026076427,46.379049500864,39.28872,1913.2296,4.85078097152,2
2025-04-01T10:43:41.590,1743497021590,11.8275088924272,46.3790502741525,39.19728,1912.9248,4.85078097152,2
2025-04-01T10:43:41.650,1743497021650,11.8275151936979,46.3790509481368,38.98392,1912.9248,4.85078097152,2
2025-04-01T10:43:41.750,1743497021750,11.8275215490947,46.3790514667114,38.89248,1912.62,4.85078097152,2
2025-04-01T10:43:41.850,1743497021850,11.827527862581,46.3790521214771,38.77056,1912.62,4.85078097152,2
2025-04-01T10:43:41.950,1743497021950,11.8275342569088,46.3790527522111,38.67912,1912.62,4.85078097152,2
2025-04-01T10:43:42.050,1743497022050,11.82754057258,46.3790533983354,38.58768,1912.3152,4.85078097152,2
2025-04-01T10:43:42.150,1743497022150,11.8275468038344,46.3790540105446,38.49624,1912.3152,4.85078097152,2
2025-04-01T10:43:42.250,1743497022250,11.8275534746522,46.3790546784224,38.37432,1912.3152,4.83736261888,2
2025-04-01T10:43:42.350,1743497022350,11.8275597358001,46.3790552824612,38.28288,1912.0104,4.73815058464,2
2025-04-01T10:43:42.450,1743497022450,11.8275659773831,46.3790558748438,38.19144,1912.0104,4.73815058464,2
2025-04-01T10:43:42.550,1743497022550,11.82757110665,46.3790563364137,38.1,1912.0104,4.73815058464,2
2025-04-01T10:43:42.650,1743497022650,11.8275772552751,46.3790569171573,37.97808,1911.7056,4.73815058464,2
2025-04-01T10:43:42.750,1743497022750,11.8275840215337,46.3790576465961,37.88664,1911.7056,4.73815058464,2
2025-04-01T10:43:42.850,1743497022850,11.8275902783117,46.3790582717632,37.67328,1911.4008,4.85078097152,2
2025-04-01T10:43:42.950,1743497022950,11.8275964135295,46.3790587737914,37.58184,1911.4008,4.85078097152,2
2025-04-01T10:43:43.050,1743497023050,11.8276027034784,46.3790594185196,37.4904,1911.4008,4.85078097152,2
2025-04-01T10:43:43.150,1743497023150,11.8276091415044,46.3790601429996,37.39896,1911.096,4.85078097152,2
2025-04-01T10:43:43.250,1743497023250,11.8276154534017,46.3790607922242,37.27704,1911.096,4.85078097152,2
2025-04-01T10:43:43.350,1743497023350,11.8276217075975,46.3790612295226,37.1856,1911.096,4.85078097152,2
2025-04-01T10:43:43.450,1743497023450,11.8276280033066,46.3790618502448,37.09416,1910.7912,4.85078097152,2
2025-04-01T10:43:43.550,1743497023550,11.8276343236456,46.3790625292992,36.97224,1910.7912,4.85078097152,2
2025-04-01T10:43:43.650,1743497023650,11.8276406080329,46.3790631687603,36.8808,1910.7912,4.85078097152,2
2025-04-01T10:43:43.750,1743497023750,11.8276467065045,46.3790638526793,36.78936,1910.4864,4.85078097152,2
2025-04-01T10:43:43.850,1743497023850,11.8276529324952,46.3790644989149,36.69792,1910.4864,4.75184923136,2
2025-04-01T10:43:43.950,1743497023950,11.8276592293961,46.3790651823799,36.576,1910.4864,4.75184923136,2
2025-04-01T10:43:44.020,1743497024020,11.8276654498252,46.3790658187236,36.48456,1910.1816,4.75184923136,2
2025-04-01T10:43:44.130,1743497024130,11.8276716700558,46.3790664474193,36.39312,1910.1816,4.85078097152,2
2025-04-01T10:43:44.250,1743497024250,11.827677932594,46.3790671061333,36.2712,1910.1816,4.85078097152,2
2025-04-01T10:43:44.330,1743497024330,11.8276841579888,46.3790675904417,36.17976,1909.8768,4.85078097152,2
2025-04-01T10:43:44.450,1743497024450,11.8276904674033,46.3790682378078,36.08832,1909.8768,4.85078097152,2
2025-04-01T10:43:44.550,1743497024550,11.827696194838,46.3790689435488,35.99688,1909.8768,4.85078097152,2
2025-04-01T10:43:44.650,1743497024650,11.8277025022662,46.3790696126942,35.78352,1909.572,4.85078097152,2
2025-04-01T10:43:44.750,1743497024750,11.8277095595146,46.379070196718,35.69208,1909.572,4.85078097152,2
2025-04-01T10:43:44.840,1743497024840,11.8277162495,46.379070949272,35.57016,1909.2672,4.85078097152,2
2025-04-01T10:43:44.940,1743497024940,11.8277225757978,46.3790715902405,35.47872,1909.2672,4.85078097152,2
2025-04-01T10:43:45.040,1743497025040,11.8277288576029,46.3790722211287,35.38728,1909.2672,4.75184923136,2
2025-04-01T10:43:45.150,1743497025150,11.8277344557309,46.379072737742,35.29584,1908.9624,4.73815058464,2
2025-04-01T10:43:45.250,1743497025250,11.8277406638451,46.3790733562632,35.17392,1908.9624,4.73815058464,2
2025-04-01T10:43:45.350,1743497025350,11.8277467154406,46.3790739541699,35.08248,1908.9624,4.83736261888,2
2025-04-01T10:43:45.450,1743497025450,11.8277529322944,46.379074577667,34.99104,1908.6576,4.83736261888,2
2025-04-01T10:43:45.550,1743497025550,11.827759285407,46.3790752802734,34.8996,1908.6576,4.85078097152,2
2025-04-01T10:43:45.650,1743497025650,11.8277654833912,46.3790759380282,34.77768,1908.6576,4.75184923136,2
2025-04-01T10:43:45.750,1743497025750,11.8277717912166,46.3790765420241,34.68624,1908.3528,4.75184923136,2
2025-04-01T10:43:45.860,1743497025860,11.8277779641736,46.3790772377448,34.5948,1908.3528,4.75184923136,2
2025-04-01T10:43:45.950,1743497025950,11.82778407933,46.3790780876591,34.47288,1908.3528,4.76760649728,2
2025-04-01T10:43:46.050,1743497026050,11.8277902316298,46.379078807146,34.38144,1908.048,4.76760649728,2
2025-04-01T10:43:46.160,1743497026160,11.8277962997113,46.3790794981391,34.29,1908.048,4.75184923136,2
2025-04-01T10:43:46.260,1743497026260,11.8278024504221,46.3790801631907,34.19856,1908.048,4.75184923136,2
2025-04-01T10:43:46.350,1743497026350,11.827808846041,46.3790806484926,34.07664,1907.7432,4.75184923136,2
2025-04-01T10:43:46.470,1743497026470,11.8278150287308,46.3790812640248,33.89376,1907.7432,4.73815058464,2
2025-04-01T10:43:46.570,1743497026570,11.8278207315357,46.3790817845007,33.77184,1907.4384,4.73815058464,2
2025-04-01T10:43:46.670,1743497026670,11.8278269104517,46.3790823899697,33.6804,1907.4384,4.83736261888,2
2025-04-01T10:43:46.770,1743497026770,11.8278338922215,46.3790830539507,33.58896,1907.4384,4.83736261888,2
2025-04-01T10:43:46.870,1743497026870,11.8278402828747,46.3790836664683,33.49752,1907.1336,4.93660594592,2
2025-04-01T10:43:46.980,1743497026980,11.8278467513901,46.3790843869915,33.3756,1907.1336,4.94975562752,2
2025-04-01T10:43:47.080,1743497027080,11.8278532121589,46.3790850269237,33.28416,1907.1336,4.94975562752,2
2025-04-01T10:43:47.180,1743497027180,11.8278596967631,46.3790856050551,33.19272,1907.1336,4.94975562752,2
2025-04-01T10:43:47.280,1743497027280,11.8278661481965,46.3790862595125,33.0708,1906.8288,4.94975562752,2
2025-04-01T10:43:47.380,1743497027380,11.8278726065818,46.3790870341285,32.97936,1906.8288,4.94975562752,2
2025-04-01T10:43:47.480,1743497027480,11.8278794626202,46.3790876222032,32.88792,1906.8288,4.85078097152,2
2025-04-01T10:43:47.550,1743497027550,11.8278859023345,46.3790882620498,32.67456,1906.524,4.85078097152,2
2025-04-01T10:43:47.650,1743497027650,11.827892323775,46.3790889060501,32.58312,1906.524,4.85078097152,2
2025-04-01T10:43:47.750,1743497027750,11.8278981066269,46.3790896434366,32.49168,1906.2192,4.85078097152,2
2025-04-01T10:43:47.850,1743497027850,11.8279044734448,46.3790903135326,32.36976,1906.2192,4.85078097152,2
2025-04-01T10:43:47.950,1743497027950,11.8279108142424,46.3790909700369,32.27832,1906.2192,4.85078097152,2
2025-04-01T10:43:48.050,1743497028050,11.8279178178613,46.379091725777,32.18688,1905.9144,4.85078097152,2
2025-04-01T10:43:48.150,1743497028150,11.8279242055351,46.3790924145605,31.97352,1905.9144,4.85078097152,2
2025-04-01T10:43:48.250,1743497028250,11.8279304648953,46.3790930502961,31.88208,1905.6096,4.85078097152,2
2025-04-01T10:43:48.350,1743497028350,11.827936766166,46.3790937257963,31.79064,1905.6096,4.75184923136,2
2025-04-01T10:43:48.450,1743497028450,11.8279430302932,46.37909440044,31.6992,1905.6096,4.75184923136,2
2025-04-01T10:43:48.550,1743497028550,11.8279485604905,46.3790949083433,31.57728,1905.3048,4.75184923136,2
2025-04-01T10:43:48.650,1743497028650,11.8279546748523,46.3790955510589,31.48584,1905.3048,4.75184923136,2
2025-04-01T10:43:48.750,1743497028750,11.8279608190084,46.3790962711882,31.3944,1905.3048,4.65296353632,2
2025-04-01T10:43:48.850,1743497028850,11.8279669184731,46.3790968872771,31.27248,1905,4.73815058464,2
2025-04-01T10:43:48.950,1743497028950,11.8279732376203,46.3790973994284,31.18104,1905,4.73815058464,2
2025-04-01T10:43:49.050,1743497029050,11.8279794133582,46.379097997866,31.0896,1905,4.73815058464,2
2025-04-01T10:43:49.150,1743497029150,11.8279855797606,46.3790985845704,30.99816,1904.6952,4.73815058464,2
2025-04-01T10:43:49.250,1743497029250,11.8279917846967,46.3790991890888,30.87624,1904.6952,4.73815058464,2
2025-04-01T10:43:49.350,1743497029350,11.8279981229122,46.3790997805037,30.7848,1904.6952,4.75184923136,2
2025-04-01T10:43:49.450,1743497029450,11.8280043628069,46.3791004446903,30.69336,1904.3904,4.85078097152,2
2025-04-01T10:43:49.550,1743497029550,11.8280105395379,46.3791011609484,30.57144,1904.3904,4.85078097152,2
2025-04-01T10:43:49.650,1743497029650,11.8280168183636,46.3791018925283,30.48,1904.3904,4.86621770976,2
2025-04-01T10:43:49.750,1743497029750,11.8280229289516,46.3791026219242,30.38856,1904.0856,4.86621770976,2
2025-04-01T10:43:49.850,1743497029850,11.8280292381674,46.3791033787348,30.29712,1904.0856,4.86621770976,2
2025-04-01T10:43:49.950,1743497029950,11.8280357505795,46.3791039447219,30.1752,1904.0856,4.86621770976,2
2025-04-01T10:43:50.050,1743497030050,11.8280426238984,46.3791046904416,30.08376,1903.7808,4.94975562752,2
2025-04-01T10:43:50.150,1743497030150,11.8280490497088,46.3791053537803,29.8704,1903.7808,4.94975562752,2
2025-04-01T10:43:50.230,1743497030230,11.8280554701562,46.3791059850196,29.77896,1903.476,4.93660594592,2
2025-04-01T10:43:50.330,1743497030330,11.8280613437811,46.3791063895763,29.68752,1903.476,4.83736261888,2
2025-04-01T10:43:50.450,1743497030450,11.8280676808048,46.3791069940433,29.59608,1903.476,4.83736261888,2
2025-04-01T10:43:50.550,1743497030550,11.8280734825264,46.379107576988,29.47416,1903.1712,4.85078097152,2
2025-04-01T10:43:50.650,1743497030650,11.8280797728725,46.3791082232664,29.38272,1903.1712,4.85078097152,2
2025-04-01T10:43:50.740,1743497030740,11.8280866670474,46.3791090415437,29.29128,1903.1712,4.94975562752,2
2025-04-01T10:43:50.840,1743497030840,11.82809302016,46.3791097239039,29.19984,1902.8664,4.94975562752,2
2025-04-01T10:43:50.940,1743497030940,11.8280995514417,46.3791105177384,29.07792,1902.8664,4.94975562752,2
2025-04-01T10:43:51.050,1743497031050,11.8281065059995,46.3791110811734,28.98648,1902.8664,4.85078097152,2
2025-04-01T10:43:51.150,1743497031150,11.8281128996321,46.3791117706335,28.89504,1902.5616,4.94975562752,2
2025-04-01T10:43:51.250,1743497031250,11.8281192809498,46.3791124606674,28.77312,1902.5616,4.85078097152,2
2025-04-01T10:43:51.350,1743497031350,11.8281248969543,46.3791131670765,28.68168,1902.5616,4.85078097152,2
2025-04-01T10:43:51.460,1743497031460,11.8281311531365,46.3791138436472,28.4988,1902.2568,4.85078097152,2
2025-04-01T10:43:51.550,1743497031550,11.8281373924353,46.3791145510326,28.37688,1902.2568,4.75184923136,2
2025-04-01T10:43:51.660,1743497031660,11.8281436178301,46.3791152149708,28.28544,1901.952,4.75184923136,2
2025-04-01T10:43:51.760,1743497031760,11.8281498243553,46.3791157140272,28.194,1901.952,4.85078097152,2
2025-04-01T10:43:51.860,1743497031860,11.8281560827224,46.3791163651274,28.07208,1901.952,4.85078097152,2
2025-04-01T10:43:51.960,1743497031960,11.8281624072325,46.3791171204906,27.98064,1901.6472,4.85078097152,2
2025-04-01T10:43:52.070,1743497032070,11.8281687692833,46.379117837845,27.8892,1901.6472,4.96488480224,2
2025-04-01T10:43:52.170,1743497032170,11.8281752352165,46.3791185650313,27.67584,1901.3424,4.96488480224,2
2025-04-01T10:43:52.270,1743497032270,11.8281816457325,46.3791193176881,27.5844,1901.3424,4.96488480224,2
2025-04-01T10:43:52.380,1743497032380,11.828187827032,46.3791199150552,27.49296,1901.3424,4.86621770976,2
2025-04-01T10:43:52.480,1743497032480,11.8281941271109,46.3791206146642,27.37104,1901.0376,4.85078097152,2
2025-04-01T10:43:52.580,1743497032580,11.8281997794643,46.379121251359,27.2796,1901.0376,4.75184923136,2
2025-04-01T10:43:52.680,1743497032680,11.8282069314581,46.3791219005065,27.18816,1901.0376,4.75184923136,2
2025-04-01T10:43:52.780,1743497032780,11.8282131647981,46.3791225482494,27.09672,1900.7328,4.75184923136,2
2025-04-01T10:43:52.890,1743497032890,11.8282194088639,46.3791231890038,26.9748,1900.7328,4.75184923136,2
2025-04-01T10:43:52.950,1743497032950,11.8282249436297,46.3791237402088,26.88336,1900.7328,4.73815058464,2
2025-04-01T10:43:53.050,1743497033050,11.8282311575041,46.379124368048,26.79192,1900.7328,4.75184923136,2
2025-04-01T10:43:53.150,1743497033150,11.8282374563912,46.3791249836573,26.67,1900.428,4.85078097152,2
2025-04-01T10:43:53.250,1743497033250,11.8282437254842,46.3791255942478,26.57856,1900.428,4.83736261888,2
2025-04-01T10:43:53.350,1743497033350,11.8282498507706,46.3791260793013,26.39568,1900.1232,4.83736261888,2
2025-04-01T10:43:53.450,1743497033450,11.8282561860067,46.3791265848066,26.27376,1900.1232,4.82597919232,2
2025-04-01T10:43:53.550,1743497033550,11.8282628138216,46.3791271436853,26.18232,1900.1232,4.91630720064,2
2025-04-01T10:43:53.650,1743497033650,11.8282692293033,46.3791274715306,26.09088,1899.8184,4.9091831712,2
2025-04-01T10:43:53.750,1743497033750,11.8282753049327,46.3791276002707,25.99944,1899.8184,4.80104911264,2
2025-04-01T10:43:53.850,1743497033850,11.8282815966692,46.379127675312,25.87752,1899.8184,4.80000795648,2
2025-04-01T10:43:53.950,1743497033950,11.8282879221725,46.3791276699849,25.78608,1899.5136,4.70000779072,2
2025-04-01T10:43:54.050,1743497034050,11.8282941136019,46.3791275196453,25.69464,1899.5136,4.70107129888,2
2025-04-01T10:43:54.150,1743497034150,11.8283001852588,46.3791272956176,25.57272,1899.5136,4.70426092928,2
2025-04-01T10:43:54.250,1743497034250,11.8283063824485,46.3791269338744,25.48128,1899.2088,4.71699799296,2
2025-04-01T10:43:54.350,1743497034350,11.828312669418,46.3791264950344,25.38984,1899.2088,4.82597919232,2
2025-04-01T10:43:54.450,1743497034450,11.8283189555929,46.3791259021378,25.17648,1898.904,4.83736261888,2
2025-04-01T10:43:54.550,1743497034550,11.8283247823416,46.3791253369557,25.08504,1898.904,4.86621770976,2
2025-04-01T10:43:54.650,1743497034650,11.8283310365375,46.3791244928482,24.9936,1898.904,4.88365405792,2
2025-04-01T10:43:54.750,1743497034750,11.8283379881158,46.3791236217456,24.87168,1898.5992,4.92443662304,2
2025-04-01T10:43:54.820,1743497034820,11.828344204771,46.3791225037141,24.78024,1898.5992,4.85078097152,2
2025-04-01T10:43:54.950,1743497034950,11.8283501729427,46.379121216844,24.6888,1898.5992,4.80833407648,2
2025-04-01T10:43:55.050,1743497035050,11.8283561756757,46.3791197780072,24.59736,1898.2944,4.77598939136,2
2025-04-01T10:43:55.150,1743497035150,11.8283620822727,46.3791181482526,24.47544,1898.2944,4.75395344864,2
2025-04-01T10:43:55.250,1743497035250,11.8283683366672,46.3791162937853,24.384,1898.2944,4.83322615776,2
2025-04-01T10:43:55.350,1743497035350,11.8283740627115,46.3791143549929,24.29256,1897.9896,4.7854022656,2
2025-04-01T10:43:55.450,1743497035450,11.8283797011609,46.3791122730893,24.17064,1897.9896,4.78853556896,2
2025-04-01T10:43:55.550,1743497035550,11.8283846428238,46.3791102189001,24.0792,1897.9896,4.83736261888,2
2025-04-01T10:43:55.650,1743497035650,11.8283900391458,46.3791078785656,23.98776,1897.6848,4.85490223328,2
2025-04-01T10:43:55.750,1743497035750,11.828395534186,46.3791054608432,23.89632,1897.6848,4.82597919232,2
2025-04-01T10:43:55.840,1743497035840,11.8284007076475,46.3791028535649,23.7744,1897.6848,4.8600490048,2
2025-04-01T10:43:55.950,1743497035950,11.8284056516939,46.3791001070807,23.68296,1897.38,4.84149505664,2
2025-04-01T10:43:56.050,1743497036050,11.8284105293985,46.3790972314797,23.59152,1897.38,4.8918380192,2
2025-04-01T10:43:56.150,1743497036150,11.82841530044,46.3790942729666,23.59152,1897.38,4.81041325952,2
2025-04-01T10:43:56.250,1743497036250,11.8284198788125,46.3790911664778,23.4696,1897.38,4.80833407648,2
2025-04-01T10:43:56.350,1743497036350,11.8284241242846,46.379088164389,23.37816,1897.0752,4.81041325952,2
2025-04-01T10:43:56.460,1743497036460,11.8284284108727,46.3790848425141,23.37816,1897.0752,4.8918380192,2
2025-04-01T10:43:56.550,1743497036550,11.8284327858502,46.3790811786111,23.28672,1897.0752,4.90408780928,2
2025-04-01T10:43:56.650,1743497036650,11.8284367443051,46.3790775972176,23.19528,1897.0752,4.8600490048,2
2025-04-01T10:43:56.750,1743497036750,11.8284401468005,46.3790741352632,23.19528,1897.0752,4.96488480224,2
2025-04-01T10:43:56.860,1743497036860,11.8284437131639,46.3790703724671,23.07336,1896.7704,4.9930031712,2
2025-04-01T10:43:56.960,1743497036960,11.8284476150098,46.3790660444204,23.07336,1896.7704,4.97394004448,2
2025-04-01T10:43:57.070,1743497037070,11.8284511346957,46.379061962763,22.98192,1896.7704,5.01199387744,2
2025-04-01T10:43:57.170,1743497037170,11.8284542471944,46.379057914875,22.98192,1896.7704,4.96488480224,2
2025-04-01T10:43:57.270,1743497037270,11.8284571918526,46.3790537293314,22.89048,1896.7704,4.96589153632,2
2025-04-01T10:43:57.350,1743497037350,11.8284599283488,46.3790495435993,22.89048,1896.7704,5.01598236832,2
2025-04-01T10:43:57.470,1743497037470,11.82846226024,46.3790452666393,22.79904,1896.4656,4.93964358272,2
2025-04-01T10:43:57.570,1743497037570,11.8284646127885,46.3790409451572,22.79904,1896.4656,4.998007784,2
2025-04-01T10:43:57.680,1743497037680,11.8284668054415,46.3790365521366,22.79904,1896.4656,5.0596523648,2
2025-04-01T10:43:57.780,1743497037780,11.8284686163318,46.3790325490233,22.79904,1896.4656,5.12445930656,2
2025-04-01T10:43:57.880,1743497037880,11.8284708443406,46.3790274523814,22.67712,1896.4656,5.06952479616,2
2025-04-01T10:43:57.980,1743497037980,11.8284725912727,46.3790228418379,22.67712,1896.4656,5.14199221536,2
2025-04-01T10:43:58.080,1743497038080,11.8284739677639,46.3790186120206,22.67712,1896.4656,5.2172876096,2
2025-04-01T10:43:58.180,1743497038180,11.8284753909326,46.379013937638,22.67712,1896.4656,5.19712297632,2
2025-04-01T10:43:58.250,1743497038250,11.8284765324469,46.3790092124556,22.58568,1896.4656,5.17881132384,2
2025-04-01T10:43:58.350,1743497038350,11.8284776606532,46.3790045106755,22.58568,1896.4656,5.16237232192,2
2025-04-01T10:43:58.450,1743497038450,11.8284786386968,46.3789998092465,22.58568,1896.4656,5.14782340512,2
2025-04-01T10:43:58.550,1743497038550,11.8284792461008,46.3789954253192,22.58568,1896.4656,5.13518111392,2
2025-04-01T10:43:58.650,1743497038650,11.8284799393121,46.3789907348206,22.58568,1896.4656,5.22399142144,2
2025-04-01T10:43:58.750,1743497038750,11.8284806333178,46.3789861380497,22.58568,1896.4656,5.21537025504,2
2025-04-01T10:43:58.850,1743497038850,11.8284811515379,46.3789814338779,22.58568,1896.4656,5.2086552672,2
2025-04-01T10:43:58.950,1743497038950,11.8284815044997,46.378976529524,22.58568,1896.4656,5.2086552672,2
2025-04-01T10:43:59.050,1743497039050,11.8284819385015,46.3789714096724,22.58568,1896.4656,5.20385316352,2
2025-04-01T10:43:59.150,1743497039150,11.8284823043741,46.3789666842295,22.58568,1896.4656,5.20385316352,2
2025-04-01T10:43:59.250,1743497039250,11.8284826025145,46.3789619930002,22.58568,1896.4656,5.10392810048,2
2025-04-01T10:43:59.350,1743497039350,11.8284829479284,46.3789573382751,22.58568,1896.4656,5.10392810048,2
2025-04-01T10:43:59.450,1743497039450,11.8284832045556,46.3789527701901,22.58568,1896.4656,5.10392810048,2
2025-04-01T10:43:59.550,1743497039550,11.8284835082576,46.3789481609684,22.58568,1896.4656,5.00400661376,2
2025-04-01T10:43:59.650,1743497039650,11.8284837940831,46.3789435595329,22.58568,1896.4656,5.00400661376,2
2025-04-01T10:43:59.750,1743497039750,11.8284839766221,46.3789393905951,22.58568,1896.4656,5.00400661376,2
2025-04-01T10:43:59.850,1743497039850,11.8284841780308,46.3789344384363,22.58568,1896.4656,5.10098836544,2
2025-04-01T10:43:59.950,1743497039950,11.8284844338635,46.3789298146501,22.58568,1896.4656,5.10098836544,2
2025-04-01T10:44:00.050,1743497040050,11.8284847550448,46.3789251786649,22.58568,1896.4656,5.10098836544,2
2025-04-01T10:44:00.150,1743497040150,11.8284850144528,46.3789205512452,22.49424,1896.1608,5.10098836544,2
2025-04-01T10:44:00.250,1743497040250,11.8284853856883,46.3789161083285,22.49424,1896.1608,5.10098836544,2
2025-04-01T10:44:00.350,1743497040350,11.8284856675412,46.3789115227523,22.49424,1896.1608,5.10098836544,2
2025-04-01T10:44:00.450,1743497040450,11.8284859531681,46.3789069522003,22.49424,1896.1608,5.00400661376,2
2025-04-01T10:44:00.550,1743497040550,11.8284861692752,46.378902818664,22.49424,1896.1608,5.00400661376,2
2025-04-01T10:44:00.650,1743497040650,11.828486469402,46.3788983112102,22.49424,1896.1608,5.00400661376,2
2025-04-01T10:44:00.750,1743497040750,11.8284867178854,46.3788937070686,22.49424,1896.1608,5.00400661376,2
2025-04-01T10:44:00.850,1743497040850,11.8284870090739,46.3788888689389,22.49424,1896.1608,5.00400661376,2
2025-04-01T10:44:00.950,1743497040950,11.8284874136789,46.3788844014252,22.49424,1896.1608,4.9091831712,2
2025-04-01T10:44:01.050,1743497041050,11.8284878947556,46.378879938973,22.49424,1896.1608,4.9091831712,2
2025-04-01T10:44:01.150,1743497041150,11.8284884072155,46.3788755287123,22.37232,1896.1608,4.9091831712,2
2025-04-01T10:44:01.240,1743497041240,11.8284889466888,46.3788711716323,22.37232,1896.1608,4.81664544416,2
2025-04-01T10:44:01.340,1743497041340,11.8284894764294,46.3788667844655,22.37232,1896.1608,4.80937344448,2
2025-04-01T10:44:01.450,1743497041450,11.828489916986,46.3788624720488,22.37232,1896.1608,4.9091831712,2
2025-04-01T10:44:01.540,1743497041540,11.8284903734328,46.3788580572276,22.37232,1896.1608,4.9091831712,2
2025-04-01T10:44:01.650,1743497041650,11.8284908084279,46.3788536283179,22.37232,1896.1608,4.9091831712,2
2025-04-01T10:44:01.740,1743497041740,11.8284912424298,46.3788494980832,22.37232,1896.1608,4.9091831712,2
2025-04-01T10:44:01.850,1743497041850,11.82849163035,46.3788450861482,22.37232,1896.1608,4.90408780928,2
2025-04-01T10:44:01.950,1743497041950,11.8284920135032,46.3788405783946,22.28088,1896.1608,4.90408780928,2
2025-04-01T10:44:02.050,1743497042050,11.8284924161219,46.3788356883775,22.28088,1896.1608,4.90408780928,2
2025-04-01T10:44:02.150,1743497042150,11.8284927750425,46.3788312095545,22.28088,1896.1608,4.90408780928,2
2025-04-01T10:44:02.250,1743497042250,11.8284932851188,46.3788268816534,22.28088,1896.1608,4.90408780928,2
2025-04-01T10:44:02.350,1743497042350,11.8284936986621,46.3788224200705,22.28088,1896.1608,4.9091831712,2
2025-04-01T10:44:02.450,1743497042450,11.828494142794,46.3788179682082,22.28088,1896.1608,4.9091831712,2
2025-04-01T10:44:02.560,1743497042560,11.8284945090638,46.3788139220503,22.18944,1895.856,4.9091831712,2
2025-04-01T10:44:02.660,1743497042660,11.8284950054349,46.3788095071092,22.18944,1895.856,4.9091831712,2
2025-04-01T10:44:02.760,1743497042760,11.8284955667572,46.3788050386062,22.18944,1895.856,4.9091831712,2
2025-04-01T10:44:02.860,1743497042860,11.8284960794158,46.3788003405773,22.18944,1895.856,4.9091831712,2
2025-04-01T10:44:02.960,1743497042960,11.8284965159998,46.3787958890919,22.18944,1895.856,4.9091831712,2
2025-04-01T10:44:03.060,1743497043060,11.8284969019338,46.3787915193451,22.18944,1895.856,4.9091831712,2
2025-04-01T10:44:03.170,1743497043170,11.8284973351412,46.3787870811516,22.098,1895.856,4.9091831712,2
2025-04-01T10:44:03.270,1743497043270,11.8284977842388,46.378782644397,22.098,1895.856,4.9091831712,2
2025-04-01T10:44:03.350,1743497043350,11.8284981602414,46.3787785427845,22.098,1895.856,4.9091831712,2
2025-04-01T10:44:03.470,1743497043470,11.8284986546262,46.3787741223022,22.098,1895.856,4.9091831712,2
2025-04-01T10:44:03.580,1743497043580,11.8284990820734,46.3787695701508,22.098,1895.856,4.9091831712,2
2025-04-01T10:44:03.680,1743497043680,11.8284996102249,46.3787651154965,22.098,1895.856,4.91630720064,2
2025-04-01T10:44:03.780,1743497043780,11.8285001937936,46.3787605622317,22.098,1895.856,4.91630720064,2
2025-04-01T10:44:03.880,1743497043880,11.8285007640542,46.3787560921615,22.098,1895.856,4.91630720064,2
2025-04-01T10:44:03.980,1743497043980,11.8285012649937,46.3787517594643,22.098,1895.856,4.91630720064,2
2025-04-01T10:44:04.080,1743497044080,11.8285019059658,46.3787472999455,22.098,1895.856,4.91630720064,2
2025-04-01T10:44:04.180,1743497044180,11.8285025562735,46.3787427159344,22.098,1895.856,4.92545229792,2
2025-04-01T10:44:04.290,1743497044290,11.8285032699435,46.3787382517052,22.098,1895.856,4.92545229792,2
2025-04-01T10:44:04.350,1743497044350,11.8285039899695,46.3787338751411,22.098,1895.856,4.92545229792,2
2025-04-01T10:44:04.450,1743497044450,11.8285047048312,46.378729413721,22.098,1895.856,4.92545229792,2
2025-04-01T10:44:04.550,1743497044550,11.8285053279269,46.3787248568934,22.098,1895.856,4.92545229792,2
2025-04-01T10:44:04.650,1743497044650,11.8285060221313,46.3787203814619,22.098,1895.856,4.92545229792,2
2025-04-01T10:44:04.750,1743497044750,11.8285067403697,46.3787157915757,21.97608,1895.856,5.02494596736,2
2025-04-01T10:44:04.850,1743497044850,11.8285074168962,46.3787112961206,21.97608,1895.856,5.02494596736,2
2025-04-01T10:44:04.950,1743497044950,11.8285080538958,46.3787069058021,21.97608,1895.856,5.02494596736,2
2025-04-01T10:44:05.050,1743497045050,11.8285087194978,46.3787024218918,21.97608,1895.856,5.02494596736,2
2025-04-01T10:44:05.150,1743497045150,11.8285094129077,46.3786980153181,21.97608,1895.856,4.92545229792,2
2025-04-01T10:44:05.250,1743497045250,11.8285101083039,46.3786935541892,21.97608,1895.856,4.92545229792,2
2025-04-01T10:44:05.350,1743497045350,11.8285108481927,46.3786890152098,21.97608,1895.856,4.92545229792,2
2025-04-01T10:44:05.450,1743497045450,11.8285114679117,46.3786845421421,21.97608,1895.856,4.91630720064,2
2025-04-01T10:44:05.550,1743497045550,11.8285119762004,46.3786800032654,21.97608,1895.856,4.91630720064,2
2025-04-01T10:44:05.650,1743497045650,11.8285126122069,46.3786750296255,21.97608,1895.856,5.01598236832,2
2025-04-01T10:44:05.750,1743497045750,11.8285132537749,46.3786704592661,21.97608,1895.856,5.02494596736,2
2025-04-01T10:44:05.850,1743497045850,11.8285139265275,46.3786658905512,21.97608,1895.856,5.02494596736,2
2025-04-01T10:44:05.950,1743497045950,11.8285146392043,46.3786617355825,21.97608,1895.856,5.02494596736,2
2025-04-01T10:44:06.050,1743497046050,11.828515361018,46.3786572263558,21.97608,1895.856,5.02494596736,2
2025-04-01T10:44:06.150,1743497046150,11.8285159322718,46.3786526808846,21.97608,1895.856,4.92545229792,2
2025-04-01T10:44:06.250,1743497046250,11.8285166372021,46.3786481942337,21.88464,1895.5512,4.92545229792,2
2025-04-01T10:44:06.350,1743497046350,11.8285173320024,46.3786438264225,21.88464,1895.5512,4.92545229792,2
2025-04-01T10:44:06.450,1743497046450,11.8285180146864,46.3786393368597,21.88464,1895.5512,4.92545229792,2
2025-04-01T10:44:06.530,1743497046530,11.8285188252868,46.37863467642,21.88464,1895.5512,5.02494596736,2
2025-04-01T10:44:06.650,1743497046650,11.8285195071763,46.3786301510923,21.88464,1895.5512,5.02494596736,2
2025-04-01T10:44:06.750,1743497046750,11.8285201354362,46.3786256030175,21.88464,1895.5512,5.02494596736,2
2025-04-01T10:44:06.850,1743497046850,11.8285208187161,46.3786210691596,21.88464,1895.5512,5.02494596736,2
2025-04-01T10:44:06.930,1743497046930,11.8285213685181,46.3786165514371,21.88464,1895.5512,5.02494596736,2
2025-04-01T10:44:07.030,1743497047030,11.828522217255,46.3786116039871,21.88464,1895.5512,5.02494596736,2
2025-04-01T10:44:07.150,1743497047150,11.8285229319181,46.3786070492321,21.88464,1895.5512,5.02494596736,2
2025-04-01T10:44:07.240,1743497047240,11.8285236336703,46.3786025003351,21.88464,1895.5512,5.02494596736,2
2025-04-01T10:44:07.350,1743497047350,11.8285241663903,46.3785983937724,21.7932,1895.5512,4.92545229792,2
2025-04-01T10:44:07.450,1743497047450,11.8285247346646,46.3785935145293,21.7932,1895.5512,4.91630720064,2
2025-04-01T10:44:07.550,1743497047550,11.8285253438563,46.3785889837889,21.7932,1895.5512,4.91630720064,2
2025-04-01T10:44:07.650,1743497047650,11.8285259462947,46.3785844534253,21.7932,1895.5512,4.91630720064,2
2025-04-01T10:44:07.750,1743497047750,11.8285265562809,46.3785804453875,21.7932,1895.5512,4.91630720064,2
2025-04-01T10:44:07.850,1743497047850,11.8285272421429,46.3785756309598,21.7932,1895.5512,4.91630720064,2
2025-04-01T10:44:07.950,1743497047950,11.8285278308759,46.3785711438293,21.67128,1895.5512,4.91630720064,2
2025-04-01T10:44:08.050,1743497048050,11.8285283743218,46.3785667041799,21.67128,1895.5512,4.91630720064,2
2025-04-01T10:44:08.150,1743497048150,11.8285289457742,46.378562241064,21.67128,1895.5512,4.91630720064,2
2025-04-01T10:44:08.250,1743497048250,11.828529494583,46.3785579056605,21.67128,1895.5512,4.91630720064,2
2025-04-01T10:44:08.350,1743497048350,11.8285300372343,46.3785534591938,21.67128,1895.5512,4.91630720064,2
2025-04-01T10:44:08.450,1743497048450,11.8285305488997,46.3785490070403,21.67128,1895.5512,4.9091831712,2
2025-04-01T10:44:08.560,1743497048560,11.8285310464626,46.378544944807,21.67128,1895.5512,4.9091831712,2
2025-04-01T10:44:08.660,1743497048660,11.8285315422377,46.3785405006013,21.57984,1895.2464,4.9091831712,2
2025-04-01T10:44:08.760,1743497048760,11.8285321250119,46.3785359270731,21.57984,1895.2464,4.9091831712,2
2025-04-01T10:44:08.860,1743497048860,11.8285326354856,46.3785314573797,21.57984,1895.2464,4.91630720064,2
2025-04-01T10:44:08.960,1743497048960,11.8285330210223,46.3785272894616,21.57984,1895.2464,4.9091831712,2
2025-04-01T10:44:09.060,1743497049060,11.828533634981,46.3785221411935,21.57984,1895.2464,4.9091831712,2
2025-04-01T10:44:09.170,1743497049170,11.8285341442629,46.3785176456014,21.57984,1895.2464,4.9091831712,2
2025-04-01T10:44:09.270,1743497049270,11.8285346563255,46.3785131524758,21.57984,1895.2464,4.9091831712,2
2025-04-01T10:44:09.370,1743497049370,11.8285349570481,46.3785091990447,21.57984,1895.2464,4.9091831712,2
2025-04-01T10:44:09.470,1743497049470,11.8285354617616,46.3785047702892,21.57984,1895.2464,4.9091831712,2
2025-04-01T10:44:09.570,1743497049570,11.8285359793858,46.3785003944959,21.57984,1895.2464,4.91630720064,2
2025-04-01T10:44:09.670,1743497049670,11.8285365206468,46.3784959849932,21.57984,1895.2464,4.91630720064,2
2025-04-01T10:44:09.780,1743497049780,11.8285370736268,46.3784917440036,21.57984,1895.2464,4.91630720064,2
2025-04-01T10:44:09.880,1743497049880,11.8285376895718,46.378487357385,21.57984,1895.2464,4.91630720064,2
2025-04-01T10:44:09.980,1743497049980,11.8285383752352,46.3784825089737,21.57984,1895.2464,4.91630720064,2
2025-04-01T10:44:10.080,1743497050080,11.8285390328921,46.3784780737093,21.57984,1895.2464,4.92545229792,2
2025-04-01T10:44:10.180,1743497050180,11.8285395548862,46.3784737245684,21.4884,1895.2464,4.92545229792,2
2025-04-01T10:44:10.280,1743497050280,11.8285401815571,46.3784692727918,21.4884,1895.2464,4.91630720064,2
2025-04-01T10:44:10.380,1743497050380,11.8285408948298,46.3784645330799,21.4884,1895.2464,4.91630720064,2
2025-04-01T10:44:10.490,1743497050490,11.8285415020352,46.3784600664355,21.4884,1895.2464,4.91630720064,2
2025-04-01T10:44:10.550,1743497050550,11.8285420436934,46.3784561277351,21.4884,1895.2464,4.91630720064,2
2025-04-01T10:44:10.650,1743497050650,11.828542653481,46.3784517409795,21.4884,1895.2464,4.91630720064,2
2025-04-01T10:44:10.750,1743497050750,11.8285431051608,46.3784469517654,21.4884,1895.2464,4.92545229792,2
2025-04-01T10:44:10.850,1743497050850,11.8285438668987,46.3784420833476,21.4884,1895.2464,4.82597919232,2
2025-04-01T10:44:10.950,1743497050950,11.8285445287268,46.3784376296868,21.4884,1895.2464,4.82597919232,2
2025-04-01T10:44:11.050,1743497051050,11.8285451875754,46.3784331765399,21.39696,1895.2464,4.82597919232,2
2025-04-01T10:44:11.150,1743497051150,11.8285457419458,46.3784291540797,21.39696,1895.2464,4.82597919232,2
2025-04-01T10:44:11.250,1743497051250,11.8285463553087,46.3784247445427,21.39696,1895.2464,4.81664544416,2
2025-04-01T10:44:11.350,1743497051350,11.8285469364938,46.3784203863578,21.39696,1895.2464,4.81664544416,2
2025-04-01T10:44:11.450,1743497051450,11.8285475436992,46.3784159754163,21.39696,1895.2464,4.81664544416,2
2025-04-01T10:44:11.550,1743497051550,11.82854799379,46.3784115528614,21.39696,1895.2464,4.91630720064,2
2025-04-01T10:44:11.650,1743497051650,11.8285485829203,46.3784071120472,21.39696,1895.2464,4.91630720064,2
2025-04-01T10:44:11.750,1743497051750,11.8285491531809,46.3784026775706,21.27504,1894.9416,4.91630720064,2
2025-04-01T10:44:11.850,1743497051850,11.8285497391331,46.3783982075004,21.27504,1894.9416,4.91630720064,2
2025-04-01T10:44:11.950,1743497051950,11.8285505169599,46.3783937731267,21.27504,1894.9416,4.91630720064,2
2025-04-01T10:44:12.050,1743497052050,11.8285511114531,46.378389299939,21.27504,1894.9416,4.91630720064,2
2025-04-01T10:44:12.150,1743497052150,11.8285514981816,46.3783849282224,21.27504,1894.9416,4.91630720064,2
2025-04-01T10:44:12.250,1743497052250,11.8285520503671,46.3783804655519,21.27504,1894.9416,4.91630720064,2
2025-04-01T10:44:12.350,1743497052350,11.828552815283,46.3783758412539,21.27504,1894.9416,4.91630720064,2
2025-04-01T10:44:12.450,1743497052450,11.8285533827629,46.3783713479913,21.27504,1894.9416,5.01598236832,2
2025-04-01T10:44:12.550,1743497052550,11.8285539679206,46.3783669384201,21.27504,1894.9416,5.01598236832,2
2025-04-01T10:44:12.630,1743497052630,11.8285545135513,46.3783624367644,21.27504,1894.9416,5.01598236832,2
2025-04-01T10:44:12.750,1743497052750,11.8285549537107,46.3783579869747,21.27504,1894.9416,5.01598236832,2
2025-04-01T10:44:12.850,1743497052850,11.8285554842458,46.3783534816876,21.27504,1894.9416,5.01598236832,2
2025-04-01T10:44:12.950,1743497052950,11.8285561206495,46.3783490629354,21.27504,1894.9416,5.01598236832,2
2025-04-01T10:44:13.030,1743497053030,11.828556658931,46.3783445676516,21.27504,1894.9416,5.01598236832,2
2025-04-01T10:44:13.130,1743497053130,11.8285570625428,46.3783400549649,21.27504,1894.9416,5.01598236832,2
2025-04-01T10:44:13.250,1743497053250,11.8285576057901,46.3783355727675,21.27504,1894.9416,5.01598236832,2
2025-04-01T10:44:13.350,1743497053350,11.8285582316665,46.3783310933107,21.27504,1894.9416,4.91630720064,2
2025-04-01T10:44:13.450,1743497053450,11.8285587647837,46.3783259078046,21.27504,1894.9416,5.01598236832,2
2025-04-01T10:44:13.550,1743497053550,11.8285592979009,46.3783213469517,21.1836,1894.9416,5.01598236832,2
2025-04-01T10:44:13.640,1743497053640,11.8285597940734,46.3783167850711,21.1836,1894.9416,5.00900005056,2
2025-04-01T10:44:13.750,1743497053750,11.8285600072011,46.3783130981984,21.1836,1894.9416,5.00900005056,2
2025-04-01T10:44:13.850,1743497053850,11.8285604322647,46.3783085969538,21.1836,1894.9416,5.00900005056,2
2025-04-01T10:44:13.950,1743497053950,11.8285608962594,46.3783038636481,21.1836,1894.9416,5.00900005056,2
2025-04-01T10:44:14.050,1743497054050,11.8285613691924,46.3782990050281,21.1836,1894.9416,5.00400661376,2
2025-04-01T10:44:14.150,1743497054150,11.828561738243,46.3782944294444,21.1836,1894.9416,5.00400661376,2
2025-04-01T10:44:14.250,1743497054250,11.8285621092799,46.3782898326896,21.09216,1894.9416,5.00400661376,2
2025-04-01T10:44:14.350,1743497054350,11.8285624660155,46.378285252858,21.09216,1894.9416,5.00400661376,2
2025-04-01T10:44:14.460,1743497054460,11.8285628247375,46.3782806852907,21.09216,1894.9416,5.00400661376,2
2025-04-01T10:44:14.560,1743497054560,11.8285629999273,46.378276541764,21.09216,1894.9416,5.00400661376,2
2025-04-01T10:44:14.660,1743497054660,11.828563352889,46.3782720279811,21.09216,1894.9416,5.00400661376,2
2025-04-01T10:44:14.760,1743497054760,11.8285637237272,46.3782673527763,21.09216,1894.9416,5.00400661376,2
2025-04-01T10:44:14.860,1743497054860,11.8285641406471,46.3782625001856,21.09216,1894.9416,5.00400661376,2
2025-04-01T10:44:14.960,1743497054960,11.8285645003622,46.3782579542691,21.09216,1894.9416,5.00400661376,2
2025-04-01T10:44:15.070,1743497055070,11.8285646662165,46.3782534117098,21.09216,1894.9416,5.00400661376,2
2025-04-01T10:44:15.170,1743497055170,11.8285650015003,46.3782488685339,21.09216,1894.9416,5.00400661376,2
2025-04-01T10:44:15.270,1743497055270,11.828565320894,46.3782443109012,20.97024,1894.6368,5.00400661376,2
2025-04-01T10:44:15.350,1743497055350,11.828565653397,46.3782397941036,20.97024,1894.6368,5.00400661376,2
2025-04-01T10:44:15.470,1743497055470,11.8285660033793,46.3782351183507,20.97024,1894.6368,4.90408780928,2
2025-04-01T10:44:15.580,1743497055580,11.8285663511767,46.3782306082677,20.97024,1894.6368,4.90408780928,2
2025-04-01T10:44:15.680,1743497055680,11.8285667158575,46.3782261063379,20.97024,1894.6368,4.9091831712,2
2025-04-01T10:44:15.780,1743497055780,11.8285670908669,46.3782221362233,20.8788,1894.6368,4.90408780928,2
2025-04-01T10:44:15.880,1743497055880,11.8285675004376,46.3782171673622,20.8788,1894.6368,4.90408780928,2
2025-04-01T10:44:15.990,1743497055990,11.8285678406872,46.3782126955792,20.8788,1894.6368,4.90408780928,2
2025-04-01T10:44:16.050,1743497056050,11.8285681781559,46.3782079078724,20.8788,1894.6368,4.90408780928,2
2025-04-01T10:44:16.150,1743497056150,11.8285685050974,46.3782034148496,20.8788,1894.6368,4.90408780928,2
2025-04-01T10:44:16.250,1743497056250,11.8285687742382,46.3781994419259,20.8788,1894.6368,4.90408780928,2
2025-04-01T10:44:16.350,1743497056350,11.8285691343505,46.378195006867,20.8788,1894.6368,4.90408780928,2
2025-04-01T10:44:16.450,1743497056450,11.8285695318049,46.3781905885943,20.78736,1894.6368,4.9091831712,2
2025-04-01T10:44:16.550,1743497056550,11.828569980108,46.3781863801837,20.78736,1894.6368,4.9091831712,2
2025-04-01T10:44:16.650,1743497056650,11.8285704192742,46.3781819856173,20.78736,1894.6368,4.9091831712,2
2025-04-01T10:44:16.750,1743497056750,11.8285707464143,46.3781775097233,20.78736,1894.6368,4.9091831712,2
2025-04-01T10:44:16.850,1743497056850,11.8285712684084,46.3781727901892,20.69592,1894.332,4.9091831712,2
2025-04-01T10:44:16.950,1743497056950,11.8285717409441,46.3781683419068,20.69592,1894.332,4.9091831712,2
2025-04-01T10:44:17.050,1743497057050,11.8285722772393,46.3781638183262,20.69592,1894.332,4.9091831712,2
2025-04-01T10:44:17.150,1743497057150,11.8285727648708,46.3781593743604,20.69592,1894.332,4.9091831712,2
2025-04-01T10:44:17.250,1743497057250,11.8285730697646,46.3781550976401,20.69592,1894.332,4.80937344448,2
2025-04-01T10:44:17.350,1743497057350,11.8285735389236,46.3781506853283,20.69592,1894.332,4.80937344448,2
2025-04-01T10:44:17.450,1743497057450,11.8285741141499,46.3781462365663,20.574,1894.332,4.80937344448,2
2025-04-01T10:44:17.550,1743497057550,11.8285745797337,46.3781418095237,20.574,1894.332,4.9091831712,2
2025-04-01T10:44:17.620,1743497057620,11.8285750316121,46.3781373780275,20.574,1894.332,4.9091831712,2
2025-04-01T10:44:17.750,1743497057750,11.8285754697852,46.3781333554302,20.574,1894.332,4.9091831712,2
2025-04-01T10:44:17.850,1743497057850,11.8285759043829,46.3781289576436,20.574,1894.332,4.9091831712,2
2025-04-01T10:44:17.950,1743497057950,11.8285763987677,46.3781245187478,20.574,1894.332,4.9091831712,2
2025-04-01T10:44:18.050,1743497058050,11.8285768444887,46.3781201015029,20.574,1894.332,4.9091831712,2
2025-04-01T10:44:18.140,1743497058140,11.8285772840521,46.3781155000205,20.574,1894.332,4.9091831712,2
2025-04-01T10:44:18.240,1743497058240,11.8285777635398,46.3781110238524,20.574,1894.332,4.9091831712,2
2025-04-01T10:44:18.340,1743497058340,11.8285782851366,46.3781065455604,20.69592,1894.332,5.01598236832,2
2025-04-01T10:44:18.450,1743497058450,11.8285787554874,46.3781020149913,20.574,1894.332,5.00900005056,2
2025-04-01T10:44:18.540,1743497058540,11.8285793541519,46.3780974250194,20.574,1894.332,5.00900005056,2
2025-04-01T10:44:18.650,1743497058650,11.8285797992769,46.3780924618452,20.574,1894.332,5.00900005056,2
2025-04-01T10:44:18.750,1743497058750,11.828580193156,46.3780878756417,20.574,1894.332,5.00900005056,2
2025-04-01T10:44:18.850,1743497058850,11.8285805820694,46.37808330643,20.574,1894.332,5.00900005056,2
2025-04-01T10:44:18.950,1743497058950,11.8285808339295,46.3780793242567,20.574,1894.332,4.9091831712,2
2025-04-01T10:44:19.050,1743497059050,11.828581276671,46.3780745255875,20.574,1894.332,4.9091831712,2
2025-04-01T10:44:19.150,1743497059150,11.8285816985566,46.3780700618892,20.574,1894.332,4.9091831712,2
2025-04-01T10:44:19.250,1743497059250,11.8285821246134,46.3780656258026,20.48256,1894.332,4.80937344448,2
2025-04-01T10:44:19.350,1743497059350,11.8285824404318,46.3780614266415,20.48256,1894.332,4.80937344448,2
2025-04-01T10:44:19.460,1743497059460,11.8285828831733,46.3780570301567,20.48256,1894.332,4.80937344448,2
2025-04-01T10:44:19.560,1743497059560,11.8285832097175,46.3780527409667,20.48256,1894.332,4.80937344448,2
2025-04-01T10:44:19.660,1743497059660,11.8285836852326,46.3780483582534,20.48256,1894.332,4.80937344448,2
2025-04-01T10:44:19.750,1743497059750,11.8285843117049,46.3780438586532,20.48256,1894.332,4.80937344448,2
2025-04-01T10:44:19.850,1743497059850,11.82858483211,46.378039465183,20.39112,1894.332,4.81664544416,2
2025-04-01T10:44:19.970,1743497059970,11.828585215859,46.378034919746,20.39112,1894.332,4.91630720064,2
2025-04-01T10:44:20.070,1743497060070,11.8285857412297,46.3780305153819,20.39112,1894.332,4.81664544416,2
2025-04-01T10:44:20.170,1743497060170,11.8285862034368,46.3780261413701,20.39112,1894.332,4.81664544416,2
2025-04-01T10:44:20.270,1743497060270,11.8285867411225,46.3780217265231,20.39112,1894.332,4.91630720064,2
2025-04-01T10:44:20.370,1743497060370,11.82858732052,46.3780172936567,20.39112,1894.332,4.91630720064,2
2025-04-01T10:44:20.470,1743497060470,11.8285879183898,46.3780128405783,20.39112,1894.332,4.91630720064,2
2025-04-01T10:44:20.580,1743497060580,11.8285884961983,46.3780083974346,20.39112,1894.332,4.92545229792,2
2025-04-01T10:44:20.680,1743497060680,11.828589139554,46.3780039409304,20.29968,1894.0272,4.92545229792,2
2025-04-01T10:44:20.780,1743497060780,11.8285900397355,46.3779993998784,20.29968,1894.0272,4.92545229792,2
2025-04-01T10:44:20.880,1743497060880,11.8285907178511,46.377994937893,20.29968,1894.0272,4.92545229792,2
2025-04-01T10:44:20.980,1743497060980,11.8285914104665,46.3779905294865,20.29968,1894.0272,4.92545229792,2
2025-04-01T10:44:21.090,1743497061090,11.8285921306912,46.377985774119,20.29968,1894.0272,4.92545229792,2
2025-04-01T10:44:21.150,1743497061150,11.8285927847728,46.3779812815072,20.17776,1894.0272,4.92545229792,2
2025-04-01T10:44:21.250,1743497061250,11.8285933145133,46.3779768697435,20.17776,1894.0272,4.91630720064,2
2025-04-01T10:44:21.350,1743497061350,11.8285939231091,46.3779723824075,20.17776,1894.0272,4.91630720064,2
2025-04-01T10:44:21.450,1743497061450,11.8285945187941,46.377967900073,20.17776,1894.0272,4.91630720064,2
2025-04-01T10:44:21.550,1743497061550,11.8285951698963,46.3779636949512,20.17776,1894.0272,4.91630720064,2
2025-04-01T10:44:21.650,1743497061650,11.8285957367802,46.3779592124798,20.08632,1894.0272,4.91630720064,2
2025-04-01T10:44:21.750,1743497061750,11.8285963731839,46.3779547722137,20.08632,1894.0272,4.91630720064,2
2025-04-01T10:44:21.850,1743497061850,11.8285969074929,46.3779502562383,20.08632,1894.0272,5.01598236832,2
2025-04-01T10:44:21.950,1743497061950,11.8285972249003,46.3779455852814,20.08632,1894.0272,5.00900005056,2
2025-04-01T10:44:22.050,1743497062050,11.8285976988264,46.3779410412833,20.08632,1894.0272,5.00900005056,2
2025-04-01T10:44:22.150,1743497062150,11.8285982637241,46.3779366004691,20.08632,1894.0272,5.00900005056,2
2025-04-01T10:44:22.250,1743497062250,11.8285987573143,46.3779320894954,20.08632,1894.0272,5.00900005056,2
2025-04-01T10:44:22.350,1743497062350,11.8285991660905,46.3779274731452,19.99488,1893.7224,4.91630720064,2
2025-04-01T10:44:22.450,1743497062450,11.8285996990091,46.3779230134208,19.99488,1893.7224,4.91630720064,2
2025-04-01T10:44:22.550,1743497062550,11.828600279797,46.3779187795911,19.99488,1893.7224,4.91630720064,2
2025-04-01T10:44:22.650,1743497062650,11.82860077299,46.377914391054,19.99488,1893.7224,4.80937344448,2
2025-04-01T10:44:22.750,1743497062750,11.8286011829579,46.3779096741234,19.99488,1893.7224,4.9091831712,2
2025-04-01T10:44:22.850,1743497062850,11.8286016253022,46.3779052395441,19.87296,1893.7224,4.9091831712,2
2025-04-01T10:44:22.950,1743497062950,11.8286019520451,46.3779006748544,19.87296,1893.7224,4.9091831712,2
2025-04-01T10:44:23.050,1743497063050,11.8286023663828,46.3778962056064,19.87296,1893.7224,4.9091831712,2
2025-04-01T10:44:23.150,1743497063150,11.8286028262063,46.3778916675006,19.87296,1893.7224,4.9091831712,2
2025-04-01T10:44:23.250,1743497063250,11.8286032355784,46.3778871785202,19.87296,1893.7224,4.9091831712,2
2025-04-01T10:44:23.350,1743497063350,11.8286036642173,46.37788267707,19.87296,1893.7224,4.9091831712,2
2025-04-01T10:44:23.420,1743497063420,11.8286040797468,46.3778781998057,19.87296,1893.7224,4.9091831712,2
2025-04-01T10:44:23.550,1743497063550,11.8286044178115,46.377873788179,19.78152,1893.7224,4.9091831712,2
2025-04-01T10:44:23.630,1743497063630,11.828604850423,46.3778693285231,19.78152,1893.7224,4.9091831712,2
2025-04-01T10:44:23.750,1743497063750,11.8286052687333,46.3778649760251,19.78152,1893.7224,4.9091831712,2
2025-04-01T10:44:23.830,1743497063830,11.8286057229952,46.3778600782143,19.78152,1893.7224,4.9091831712,2
2025-04-01T10:44:23.950,1743497063950,11.8286061738805,46.3778555707348,19.78152,1893.7224,4.9091831712,2
2025-04-01T10:44:24.050,1743497064050,11.8286066269507,46.3778510629127,19.78152,1893.7224,4.9091831712,2
2025-04-01T10:44:24.140,1743497064140,11.8286069544881,46.3778472157144,19.78152,1893.7224,4.9091831712,2
2025-04-01T10:44:24.250,1743497064250,11.8286073948461,46.377842778326,19.78152,1893.7224,4.9091831712,2
2025-04-01T10:44:24.340,1743497064340,11.8286078522861,46.3778381769121,19.69008,1893.4176,4.9091831712,2
2025-04-01T10:44:24.450,1743497064450,11.8286082404049,46.3778337267799,19.69008,1893.4176,4.9091831712,2
2025-04-01T10:44:24.550,1743497064550,11.828608735187,46.3778296942479,19.69008,1893.4176,4.90408780928,2
2025-04-01T10:44:24.640,1743497064640,11.8286090893405,46.3778252772085,19.69008,1893.4176,4.90408780928,2
2025-04-01T10:44:24.750,1743497064750,11.8286094883839,46.3778204244807,19.69008,1893.4176,4.90408780928,2
2025-04-01T10:44:24.850,1743497064850,11.8286098679617,46.377815976815,19.69008,1893.4176,4.9091831712,2
2025-04-01T10:44:24.950,1743497064950,11.8286102437657,46.377811552513,19.69008,1893.4176,4.9091831712,2
2025-04-01T10:44:25.050,1743497065050,11.8286106136108,46.3778071248537,19.69008,1893.4176,4.80417258112,2
2025-04-01T10:44:25.150,1743497065150,11.8286109439289,46.3778027453607,19.59864,1893.4176,4.80417258112,2
2025-04-01T10:44:25.260,1743497065260,11.828611276432,46.3777983255806,19.59864,1893.4176,4.80417258112,2
2025-04-01T10:44:25.360,1743497065360,11.8286116967286,46.3777938791482,19.59864,1893.4176,4.90408780928,2
2025-04-01T10:44:25.450,1743497065450,11.8286120022183,46.3777894330583,19.59864,1893.4176,4.90408780928,2
2025-04-01T10:44:25.560,1743497065560,11.8286122312362,46.3777849013244,19.59864,1893.4176,4.90408780928,2
2025-04-01T10:44:25.660,1743497065660,11.8286125210343,46.3777804261841,19.59864,1893.4176,4.90408780928,2
2025-04-01T10:44:25.770,1743497065770,11.82861283288,46.3777760083225,19.47672,1893.4176,4.90408780928,2
2025-04-01T10:44:25.870,1743497065870,11.8286131425409,46.377771550174,19.47672,1893.4176,4.90408780928,2
2025-04-01T10:44:25.970,1743497065970,11.82861346114,46.377767224945,19.47672,1893.4176,4.90408780928,2
2025-04-01T10:44:26.070,1743497066070,11.8286137886773,46.3777627835141,19.47672,1893.4176,4.90408780928,2
2025-04-01T10:44:26.170,1743497066170,11.8286141142284,46.3777583438647,19.47672,1893.4176,4.90408780928,2
2025-04-01T10:44:26.280,1743497066280,11.8286144153483,46.3777538665319,19.47672,1893.4176,4.90408780928,2
2025-04-01T10:44:26.380,1743497066380,11.8286147816181,46.3777492011933,19.47672,1893.4176,4.90408780928,2
2025-04-01T10:44:26.480,1743497066480,11.8286149599859,46.3777443768994,19.47672,1893.4176,5.00400661376,2
2025-04-01T10:44:26.580,1743497066580,11.8286152277363,46.3777398200889,19.47672,1893.4176,5.00400661376,2
2025-04-01T10:44:26.680,1743497066680,11.8286154946922,46.3777352471088,19.47672,1893.4176,5.00400661376,2
2025-04-01T10:44:26.780,1743497066780,11.8286157477441,46.3777310783686,19.38528,1893.1128,5.00400661376,2
2025-04-01T10:44:26.890,1743497066890,11.8286160452886,46.377726534713,19.38528,1893.1128,5.00400661376,2
2025-04-01T10:44:26.950,1743497066950,11.8286162888064,46.3777218892439,19.38528,1893.1128,5.00400661376,2
2025-04-01T10:44:27.050,1743497067050,11.8286165710566,46.3777173562767,19.38528,1893.1128,5.00400661376,2
2025-04-01T10:44:27.150,1743497067150,11.8286166723568,46.3777129611622,19.38528,1893.1128,5.00400661376,2
2025-04-01T10:44:27.250,1743497067250,11.8286169706959,46.377708468619,19.38528,1893.1128,4.90408780928,2
2025-04-01T10:44:27.350,1743497067350,11.8286172154054,46.3777038009509,19.38528,1893.1128,4.90408780928,2
2025-04-01T10:44:27.450,1743497067450,11.8286175413537,46.3776993152592,19.38528,1893.1128,4.90408780928,2
2025-04-01T10:44:27.550,1743497067550,11.8286178784252,46.3776948228531,19.38528,1893.1128,5.00400661376,2
2025-04-01T10:44:27.650,1743497067650,11.8286182262226,46.3776903170179,19.29384,1893.1128,5.00400661376,2
2025-04-01T10:44:27.750,1743497067750,11.8286186069923,46.377685722387,19.29384,1893.1128,5.00400661376,2
2025-04-01T10:44:27.850,1743497067850,11.8286189347283,46.3776812172371,19.29384,1893.1128,5.00400661376,2
2025-04-01T10:44:27.950,1743497067950,11.8286191367328,46.377676707428,19.29384,1893.1128,4.90408780928,2
2025-04-01T10:44:28.050,1743497068050,11.8286194261337,46.3776722538015,19.29384,1893.1128,4.90408780928,2
2025-04-01T10:44:28.150,1743497068150,11.8286197340069,46.3776678115485,19.29384,1893.1128,4.90408780928,2
2025-04-01T10:44:28.250,1743497068250,11.8286200242022,46.3776633644994,19.29384,1893.1128,4.90408780928,2
2025-04-01T10:44:28.350,1743497068350,11.8286202220355,46.377658916217,19.17192,1893.1128,4.90408780928,2
2025-04-01T10:44:28.450,1743497068450,11.8286204927653,46.3776544975333,19.17192,1893.1128,4.90408780928,2
2025-04-01T10:44:28.550,1743497068550,11.8286207863373,46.3776501381837,19.17192,1893.1128,4.80417258112,2
2025-04-01T10:44:28.650,1743497068650,11.8286210572658,46.3776457432062,19.17192,1893.1128,4.80417258112,2
2025-04-01T10:44:28.750,1743497068750,11.8286213685156,46.377641309175,19.17192,1893.1128,4.90408780928,2
2025-04-01T10:44:28.850,1743497068850,11.8286216414303,46.3776368780214,19.17192,1893.1128,4.90408780928,2
2025-04-01T10:44:28.950,1743497068950,11.8286219755224,46.3776323162778,19.17192,1893.1128,4.90408780928,2
2025-04-01T10:44:29.050,1743497069050,11.8286223038543,46.3776275366559,19.17192,1893.1128,4.90408780928,2
2025-04-01T10:44:29.150,1743497069150,11.8286225821319,46.3776230474014,19.08048,1892.808,4.90408780928,2
2025-04-01T10:44:29.230,1743497069230,11.8286228427317,46.3776185935008,19.08048,1892.808,4.80417258112,2
2025-04-01T10:44:29.330,1743497069330,11.8286229178131,46.3776149346509,19.08048,1892.808,4.80104911264,2
2025-04-01T10:44:29.450,1743497069450,11.8286231355092,46.3776105953077,19.08048,1892.808,4.80104911264,2
2025-04-01T10:44:29.550,1743497069550,11.8286235027721,46.3776058007494,18.98904,1892.808,4.80417258112,2
2025-04-01T10:44:29.630,1743497069630,11.828623795351,46.3776014120753,18.98904,1892.808,4.80417258112,2
2025-04-01T10:44:29.750,1743497069750,11.8286240390674,46.3775969199432,18.98904,1892.808,4.80417258112,2
2025-04-01T10:44:29.840,1743497069840,11.82862433979,46.3775925086591,18.98904,1892.808,4.80417258112,2
2025-04-01T10:44:29.950,1743497069950,11.8286245648354,46.377588264004,18.98904,1892.808,4.80417258112,2
2025-04-01T10:44:30.050,1743497070050,11.8286249048863,46.3775838662859,18.98904,1892.808,4.80417258112,2
2025-04-01T10:44:30.150,1743497070150,11.8286253367033,46.3775792611036,18.98904,1892.808,4.80417258112,2
2025-04-01T10:44:30.240,1743497070240,11.828625681124,46.3775748505047,18.98904,1892.808,4.80417258112,2
2025-04-01T10:44:30.350,1743497070350,11.8286259206692,46.3775705456932,18.8976,1892.808,4.80417258112,2
2025-04-01T10:44:30.450,1743497070450,11.8286262897198,46.3775661545525,18.8976,1892.808,4.80417258112,2
2025-04-01T10:44:30.550,1743497070550,11.8286266877701,46.3775617706745,18.8976,1892.808,4.80417258112,2
2025-04-01T10:44:30.650,1743497070650,11.8286270226567,46.3775573458243,18.8976,1892.808,4.90408780928,2
2025-04-01T10:44:30.750,1743497070750,11.8286273579405,46.3775529037083,18.8976,1892.808,4.90408780928,2
2025-04-01T10:44:30.850,1743497070850,11.8286276451564,46.3775484313086,18.77568,1892.5032,4.90408780928,2
2025-04-01T10:44:30.960,1743497070960,11.8286278789415,46.3775438869679,18.77568,1892.5032,5.00400661376,2
2025-04-01T10:44:31.060,1743497071060,11.8286281633766,46.3775393531786,18.77568,1892.5032,5.00400661376,2
2025-04-01T10:44:31.160,1743497071160,11.8286283451211,46.3775347081205,18.77568,1892.5032,5.00400661376,2
2025-04-01T10:44:31.260,1743497071260,11.8286286776241,46.3775301184227,18.77568,1892.5032,5.10392810048,2
2025-04-01T10:44:31.360,1743497071360,11.8286290949413,46.377525457195,18.77568,1892.5032,5.10392810048,2
2025-04-01T10:44:31.460,1743497071460,11.8286294492934,46.377520839543,18.77568,1892.5032,5.10392810048,2
2025-04-01T10:44:31.570,1743497071570,11.8286296858592,46.3775163317894,18.77568,1892.5032,5.10392810048,2
2025-04-01T10:44:31.670,1743497071670,11.8286299361303,46.3775112856433,18.77568,1892.5032,5.10392810048,2
2025-04-01T10:44:31.770,1743497071770,11.8286302227504,46.3775065930356,18.77568,1892.5032,5.10392810048,2
2025-04-01T10:44:31.870,1743497071870,11.828630509569,46.3775018728848,18.8976,1892.808,5.20385316352,2
2025-04-01T10:44:31.970,1743497071970,11.8286306778068,46.3774974528308,18.8976,1892.808,5.20385316352,2
2025-04-01T10:44:32.070,1743497072070,11.8286310146796,46.3774927045888,18.8976,1892.808,5.2086552672,2
2025-04-01T10:44:32.170,1743497072170,11.8286315561392,46.3774878249346,18.8976,1892.808,5.2086552672,2
2025-04-01T10:44:32.280,1743497072280,11.8286320076203,46.3774830891623,18.8976,1892.808,5.2086552672,2
2025-04-01T10:44:32.380,1743497072380,11.8286323828284,46.3774785546878,18.8976,1892.808,5.10882408256,2
2025-04-01T10:44:32.480,1743497072480,11.8286328704598,46.3774738708501,18.8976,1892.808,5.11567050016,2
2025-04-01T10:44:32.580,1743497072580,11.8286333342559,46.3774693574783,18.8976,1892.808,5.21537025504,2
2025-04-01T10:44:32.680,1743497072680,11.8286338282434,46.377464657471,18.8976,1892.808,5.21537025504,2
2025-04-01T10:44:32.780,1743497072780,11.828634407045,46.3774595902221,18.8976,1892.808,5.21537025504,2
2025-04-01T10:44:32.890,1743497072890,11.8286348791835,46.3774548896668,18.8976,1892.808,5.10882408256,2
2025-04-01T10:44:32.950,1743497072950,11.8286352313508,46.3774500650988,18.77568,1892.5032,5.10882408256,2
2025-04-01T10:44:33.050,1743497073050,11.8286355801414,46.3774454037341,18.77568,1892.5032,5.10392810048,2
2025-04-01T10:44:33.150,1743497073150,11.828635959322,46.3774407438767,18.77568,1892.5032,5.10392810048,2
2025-04-01T10:44:33.250,1743497073250,11.828636269976,46.3774361086849,18.77568,1892.5032,5.10392810048,2
2025-04-01T10:44:33.350,1743497073350,11.8286365583836,46.3774315072025,18.77568,1892.5032,5.10392810048,2
2025-04-01T10:44:33.450,1743497073450,11.8286369657693,46.3774268921541,18.77568,1892.5032,5.10882408256,2
2025-04-01T10:44:33.550,1743497073550,11.8286376989048,46.3774221519968,18.77568,1892.5032,5.10882408256,2
2025-04-01T10:44:33.650,1743497073650,11.8286381835568,46.3774175333857,18.77568,1892.5032,5.10882408256,2
2025-04-01T10:44:33.750,1743497073750,11.8286386938318,46.3774130561899,18.77568,1892.5032,5.10882408256,2
2025-04-01T10:44:33.850,1743497073850,11.8286391651758,46.37740842552,18.77568,1892.5032,5.10882408256,2
2025-04-01T10:44:33.950,1743497073950,11.8286395765341,46.3774036560383,18.77568,1892.5032,5.10882408256,2
2025-04-01T10:44:34.050,1743497074050,11.8286400609875,46.3773989880961,18.77568,1892.5032,5.10882408256,2
2025-04-01T10:44:34.150,1743497074150,11.8286404790992,46.3773943616742,18.77568,1892.5032,5.10882408256,2
2025-04-01T10:44:34.250,1743497074250,11.8286410340654,46.3773893332049,18.77568,1892.5032,5.11567050016,2
2025-04-01T10:44:34.350,1743497074350,11.8286415922097,46.3773846405973,18.77568,1892.5032,5.11567050016,2
2025-04-01T10:44:34.450,1743497074450,11.8286421535321,46.3773799374383,18.77568,1892.5032,5.11567050016,2
2025-04-01T10:44:34.550,1743497074550,11.8286425364867,46.3773762828362,18.77568,1892.5032,5.21537025504,2
2025-04-01T10:44:34.650,1743497074650,11.8286430475562,46.3773716061241,18.77568,1892.5032,5.2086552672,2
2025-04-01T10:44:34.750,1743497074750,11.8286436319194,46.3773663501843,18.77568,1892.5032,5.2086552672,2
2025-04-01T10:44:34.850,1743497074850,11.8286441278932,46.3773615796063,18.77568,1892.5032,5.2086552672,2
2025-04-01T10:44:34.950,1743497074950,11.8286444371568,46.3773566648724,18.77568,1892.5032,5.30849226336,2
2025-04-01T10:44:35.050,1743497075050,11.828644927569,46.3773519111491,18.77568,1892.5032,5.2086552672,2
2025-04-01T10:44:35.150,1743497075150,11.8286455836368,46.3773472597877,18.77568,1892.5032,5.21537025504,2
2025-04-01T10:44:35.220,1743497075220,11.8286461793218,46.3773425611507,18.77568,1892.5032,5.21537025504,2
2025-04-01T10:44:35.350,1743497075350,11.8286468361842,46.3773378066053,18.77568,1892.5032,5.11567050016,2
2025-04-01T10:44:35.450,1743497075450,11.8286474582867,46.3773331272896,18.77568,1892.5032,5.11567050016,2
2025-04-01T10:44:35.550,1743497075550,11.8286479034118,46.3773285269035,18.77568,1892.5032,5.11567050016,2
2025-04-01T10:44:35.650,1743497075650,11.8286484200429,46.3773238748568,18.77568,1892.5032,5.10882408256,2
2025-04-01T10:44:35.750,1743497075750,11.8286488222644,46.3773192685784,18.77568,1892.5032,5.10882408256,2
2025-04-01T10:44:35.830,1743497075830,11.8286492590471,46.3773146280423,18.77568,1892.5032,5.10882408256,2
2025-04-01T10:44:35.950,1743497075950,11.8286497055626,46.3773099139209,18.77568,1892.5032,5.10882408256,2
2025-04-01T10:44:36.050,1743497076050,11.8286501373795,46.3773052970911,18.77568,1892.5032,5.10882408256,2
2025-04-01T10:44:36.150,1743497076150,11.8286506742707,46.3773006982123,18.77568,1892.5032,5.10882408256,2
2025-04-01T10:44:36.240,1743497076240,11.8286511348887,46.3772961213954,18.77568,1892.5032,5.00900005056,2
2025-04-01T10:44:36.340,1743497076340,11.8286517844019,46.3772915614332,18.77568,1892.5032,5.00900005056,2
2025-04-01T10:44:36.450,1743497076450,11.8286522775949,46.3772870355916,18.77568,1892.5032,5.00900005056,2
2025-04-01T10:44:36.550,1743497076550,11.8286525850708,46.3772825763468,18.8976,1892.808,5.00900005056,2
2025-04-01T10:44:36.640,1743497076640,11.8286530067578,46.377278058179,18.8976,1892.808,5.00900005056,2
2025-04-01T10:44:36.750,1743497076750,11.8286534933961,46.3772735898902,18.8976,1892.808,5.00400661376,2
2025-04-01T10:44:36.850,1743497076850,11.8286537541946,46.3772686306213,18.8976,1892.808,5.00400661376,2
2025-04-01T10:44:36.950,1743497076950,11.8286540557117,46.3772640773736,18.8976,1892.808,5.00400661376,2
2025-04-01T10:44:37.050,1743497077050,11.8286543290237,46.3772595342662,18.8976,1892.808,5.00400661376,2
2025-04-01T10:44:37.150,1743497077150,11.8286546392804,46.3772553536043,18.8976,1892.808,5.00400661376,2
2025-04-01T10:44:37.250,1743497077250,11.8286549149759,46.3772508418768,18.8976,1892.808,5.00400661376,2
2025-04-01T10:44:37.360,1743497077360,11.8286552033836,46.3772464078456,18.98904,1892.808,5.00400661376,2
2025-04-01T10:44:37.460,1743497077460,11.8286554733188,46.3772418972144,18.98904,1892.808,5.00400661376,2
2025-04-01T10:44:37.550,1743497077550,11.828655784966,46.3772372766848,18.98904,1892.808,4.90408780928,2
2025-04-01T10:44:37.660,1743497077660,11.82865603047,46.3772327737273,19.08048,1892.808,4.90408780928,2
2025-04-01T10:44:37.750,1743497077750,11.8286562863027,46.3772282788546,19.08048,1892.808,4.90102826752,2
2025-04-01T10:44:37.860,1743497077860,11.8286565262452,46.3772237769933,19.08048,1892.808,4.90102826752,2
2025-04-01T10:44:37.970,1743497077970,11.8286566529698,46.3772191787997,19.08048,1892.808,4.90102826752,2
2025-04-01T10:44:38.070,1743497078070,11.828656872255,46.3772147120182,19.17192,1893.1128,4.90102826752,2
2025-04-01T10:44:38.170,1743497078170,11.8286571064372,46.3772102853867,19.17192,1893.1128,4.90102826752,2
2025-04-01T10:44:38.270,1743497078270,11.8286573503523,46.3772058427226,19.17192,1893.1128,4.90102826752,2
2025-04-01T10:44:38.370,1743497078370,11.8286574691317,46.3772013804631,19.17192,1893.1128,4.90408780928,2
2025-04-01T10:44:38.480,1743497078480,11.8286577285397,46.3771969499947,19.17192,1893.1128,4.90408780928,2
2025-04-01T10:44:38.580,1743497078580,11.8286579547769,46.3771924666326,19.17192,1893.1128,4.80104911264,2
2025-04-01T10:44:38.680,1743497078680,11.8286581569801,46.3771880686404,19.17192,1893.1128,4.80104911264,2
2025-04-01T10:44:38.780,1743497078780,11.8286582618556,46.3771837224457,19.17192,1893.1128,4.80104911264,2
2025-04-01T10:44:38.880,1743497078880,11.8286584151963,46.3771793772103,19.17192,1893.1128,4.80104911264,2
2025-04-01T10:44:38.990,1743497078990,11.8286585780712,46.3771749646929,19.17192,1893.1128,4.80104911264,2
2025-04-01T10:44:39.050,1743497079050,11.8286587707402,46.3771706419304,19.17192,1893.1128,4.70107129888,2
2025-04-01T10:44:39.150,1743497079150,11.8286590094909,46.3771667265595,19.17192,1893.1128,4.70107129888,2
2025-04-01T10:44:39.250,1743497079250,11.8286592025572,46.3771624632682,19.17192,1893.1128,4.70107129888,2
2025-04-01T10:44:39.350,1743497079350,11.8286593988015,46.3771577887486,19.17192,1893.1128,4.70107129888,2
2025-04-01T10:44:39.450,1743497079450,11.8286594814307,46.3771530480433,19.08048,1892.808,4.80104911264,2
2025-04-01T10:44:39.550,1743497079550,11.8286597174006,46.377148667865,19.17192,1893.1128,4.80417258112,2
2025-04-01T10:44:39.650,1743497079650,11.8286600089863,46.3771442908385,19.17192,1893.1128,4.80417258112,2
2025-04-01T10:44:39.750,1743497079750,11.8286603879682,46.3771404023256,19.17192,1893.1128,4.70957221152,2
2025-04-01T10:44:39.850,1743497079850,11.8286608179975,46.3771361154651,19.17192,1893.1128,4.70957221152,2
2025-04-01T10:44:39.950,1743497079950,11.8286613175466,46.3771319209631,19.17192,1893.1128,4.70957221152,2
2025-04-01T10:44:40.050,1743497080050,11.8286618184861,46.3771275994339,19.29384,1893.1128,4.80937344448,2
2025-04-01T10:44:40.150,1743497080150,11.8286621597288,46.3771231426556,19.29384,1893.1128,4.9091831712,2
2025-04-01T10:44:40.250,1743497080250,11.8286625913472,46.377118670941,19.29384,1893.1128,4.9091831712,2
2025-04-01T10:44:40.350,1743497080350,11.8286631099646,46.3771141571581,19.29384,1893.1128,5.00900005056,2
2025-04-01T10:44:40.450,1743497080450,11.8286634635223,46.3771096069251,19.38528,1893.1128,5.00400661376,2
2025-04-01T10:44:40.550,1743497080550,11.8286635574733,46.3771053370564,19.38528,1893.1128,5.00400661376,2
2025-04-01T10:44:40.650,1743497080650,11.8286637694093,46.377100821081,19.38528,1893.1128,5.00100786944,2
2025-04-01T10:44:40.750,1743497080750,11.8286640605977,46.3770959277238,19.38528,1893.1128,4.90102826752,2
2025-04-01T10:44:40.850,1743497080850,11.8286643100743,46.3770914587498,19.38528,1893.1128,4.90408780928,2
2025-04-01T10:44:40.950,1743497080950,11.8286648086302,46.3770874796597,19.38528,1893.1128,4.80417258112,2
2025-04-01T10:44:41.050,1743497081050,11.8286651395443,46.3770831259284,19.29384,1893.1128,4.80417258112,2
2025-04-01T10:44:41.150,1743497081150,11.8286654144452,46.377078321641,19.29384,1893.1128,4.80417258112,2
2025-04-01T10:44:41.250,1743497081250,11.8286657827013,46.3770739363926,19.29384,1893.1128,4.80937344448,2
2025-04-01T10:44:41.320,1743497081320,11.828666197039,46.3770696546022,19.29384,1893.1128,4.80937344448,2
2025-04-01T10:44:41.450,1743497081450,11.8286665863497,46.3770652664762,19.29384,1893.1128,4.80937344448,2
2025-04-01T10:44:41.530,1743497081530,11.8286669593728,46.3770607354275,19.29384,1893.1128,4.80937344448,2
2025-04-01T10:44:41.650,1743497081650,11.8286673699366,46.3770563519606,19.29384,1893.1128,4.80937344448,2
2025-04-01T10:44:41.730,1743497081730,11.8286677878496,46.3770519680825,19.29384,1893.1128,4.80937344448,2
2025-04-01T10:44:41.850,1743497081850,11.8286682415157,46.3770476121587,19.38528,1893.1128,4.80937344448,2
2025-04-01T10:44:41.950,1743497081950,11.828668735106,46.3770432528091,19.38528,1893.1128,4.80937344448,2
2025-04-01T10:44:42.050,1743497082050,11.8286691391151,46.3770386936691,19.38528,1893.1128,4.80937344448,2
2025-04-01T10:44:42.150,1743497082150,11.8286694606937,46.377034323083,19.38528,1893.1128,4.80417258112,2
2025-04-01T10:44:42.240,1743497082240,11.828669698054,46.3770299286536,19.38528,1893.1128,4.80104911264,2
2025-04-01T10:44:42.340,1743497082340,11.8286698670863,46.3770257919785,19.38528,1893.1128,4.80104911264,2
2025-04-01T10:44:42.450,1743497082450,11.8286701620487,46.3770213920679,19.47672,1893.4176,4.80417258112,2
2025-04-01T10:44:42.550,1743497082550,11.8286707007274,46.3770173369259,19.47672,1893.4176,4.9091831712,2
2025-04-01T10:44:42.650,1743497082650,11.8286712004751,46.3770129563366,19.47672,1893.4176,4.91630720064,2
2025-04-01T10:44:42.750,1743497082750,11.8286717343868,46.3770083873304,19.47672,1893.4176,4.81664544416,2
2025-04-01T10:44:42.850,1743497082850,11.8286722474426,46.3770039897493,19.47672,1893.4176,4.80937344448,2
2025-04-01T10:44:42.950,1743497082950,11.8286725521378,46.3769994322537,19.47672,1893.4176,4.80937344448,2
2025-04-01T10:44:43.050,1743497083050,11.8286729887219,46.3769950660526,19.47672,1893.4176,4.80937344448,2
2025-04-01T10:44:43.150,1743497083150,11.8286734807231,46.3769906864225,19.59864,1893.4176,4.80937344448,2
2025-04-01T10:44:43.250,1743497083250,11.8286738942664,46.3769863614675,19.59864,1893.4176,4.70957221152,2
2025-04-01T10:44:43.360,1743497083360,11.8286741123598,46.3769821947827,19.59864,1893.4176,4.80937344448,2
2025-04-01T10:44:43.450,1743497083450,11.8286745467589,46.3769778735276,19.59864,1893.4176,4.80937344448,2
2025-04-01T10:44:43.560,1743497083560,11.8286752574494,46.3769732719082,19.59864,1893.4176,4.80937344448,2
2025-04-01T10:44:43.650,1743497083650,11.8286757333618,46.3769689051589,19.69008,1893.4176,4.80937344448,2
2025-04-01T10:44:43.770,1743497083770,11.8286760871181,46.3769645008633,19.69008,1893.4176,4.80937344448,2
2025-04-01T10:44:43.850,1743497083850,11.8286764809972,46.3769600925939,19.69008,1893.4176,4.80417258112,2
2025-04-01T10:44:43.970,1743497083970,11.8286768278015,46.3769556939165,19.69008,1893.4176,4.80417258112,2
2025-04-01T10:44:44.080,1743497084080,11.8286771128325,46.3769512960614,19.69008,1893.4176,4.80417258112,2
2025-04-01T10:44:44.180,1743497084180,11.8286773317204,46.3769469145129,19.69008,1893.4176,4.80417258112,2
2025-04-01T10:44:44.250,1743497084250,11.8286776086077,46.3769425440638,19.69008,1893.4176,4.80417258112,2
2025-04-01T10:44:44.350,1743497084350,11.8286779007893,46.3769381457976,19.69008,1893.4176,4.80417258112,2
2025-04-01T10:44:44.450,1743497084450,11.8286781951558,46.3769337667156,19.69008,1893.4176,4.80417258112,2
2025-04-01T10:44:44.580,1743497084580,11.8286784009343,46.3769294033921,19.69008,1893.4176,4.80417258112,2
2025-04-01T10:44:44.690,1743497084690,11.8286787020541,46.3769249847083,19.78152,1893.7224,4.80417258112,2
2025-04-01T10:44:44.750,1743497084750,11.828679093351,46.3769204925762,19.78152,1893.7224,4.90408780928,2
2025-04-01T10:44:44.850,1743497084850,11.8286793835464,46.376916044842,19.78152,1893.7224,4.90408780928,2
2025-04-01T10:44:44.950,1743497084950,11.8286796890361,46.3769115658648,19.78152,1893.7224,4.90408780928,2
2025-04-01T10:44:45.050,1743497085050,11.8286799687041,46.3769071167603,19.78152,1893.7224,4.90408780928,2
2025-04-01T10:44:45.150,1743497085150,11.8286802124205,46.3769028795048,19.78152,1893.7224,4.90408780928,2
2025-04-01T10:44:45.250,1743497085250,11.8286804996364,46.3768984565731,19.78152,1893.7224,4.90408780928,2
2025-04-01T10:44:45.350,1743497085350,11.8286806658879,46.3768939485455,19.78152,1893.7224,4.90408780928,2
2025-04-01T10:44:45.450,1743497085450,11.8286809668091,46.376889481764,19.87296,1893.7224,4.90408780928,2
2025-04-01T10:44:45.550,1743497085550,11.8286813815441,46.3768849487968,19.87296,1893.7224,4.90408780928,2
2025-04-01T10:44:45.650,1743497085650,11.8286817233827,46.3768804480318,19.87296,1893.7224,4.90408780928,2
2025-04-01T10:44:45.750,1743497085750,11.8286819549828,46.3768760733348,19.87296,1893.7224,4.90408780928,2
2025-04-01T10:44:45.850,1743497085850,11.8286823268141,46.376871596276,19.87296,1893.7224,4.90408780928,2
2025-04-01T10:44:45.950,1743497085950,11.8286828799928,46.3768671464864,19.87296,1893.7224,4.9091831712,2
2025-04-01T10:44:46.050,1743497086050,11.8286832907552,46.3768626843639,19.87296,1893.7224,4.9091831712,2
2025-04-01T10:44:46.150,1743497086150,11.8286835668479,46.3768581712662,19.99488,1893.7224,4.9091831712,2
2025-04-01T10:44:46.250,1743497086250,11.8286839658914,46.3768536895484,19.99488,1893.7224,4.9091831712,2
2025-04-01T10:44:46.350,1743497086350,11.8286842781344,46.3768491501408,19.99488,1893.7224,4.90408780928,2
2025-04-01T10:44:46.450,1743497086450,11.8286846457946,46.376844659379,19.99488,1893.7224,4.90408780928,2
2025-04-01T10:44:46.550,1743497086550,11.8286849987563,46.3768406130069,19.99488,1893.7224,4.90408780928,2
2025-04-01T10:44:46.650,1743497086650,11.8286853809163,46.3768361626691,19.99488,1893.7224,4.9091831712,2
2025-04-01T10:44:46.750,1743497086750,11.8286858165073,46.3768311746238,20.08632,1894.0272,4.90408780928,2
2025-04-01T10:44:46.850,1743497086850,11.8286861931057,46.3768266585114,20.08632,1894.0272,5.00400661376,2
2025-04-01T10:44:46.950,1743497086950,11.8286865184582,46.376822300121,20.08632,1894.0272,5.00900005056,2
2025-04-01T10:44:47.030,1743497087030,11.8286868950566,46.3768177853789,20.08632,1894.0272,5.00900005056,2
2025-04-01T10:44:47.130,1743497087130,11.8286871926012,46.3768132173319,20.08632,1894.0272,5.00900005056,2
2025-04-01T10:44:47.250,1743497087250,11.8286875658229,46.3768083697429,20.08632,1894.0272,5.00900005056,2
2025-04-01T10:44:47.340,1743497087340,11.8286879295106,46.3768038084104,20.08632,1894.0272,5.00900005056,2
2025-04-01T10:44:47.450,1743497087450,11.8286882981639,46.3767992591366,20.08632,1894.0272,5.00900005056,2
2025-04-01T10:44:47.550,1743497087550,11.8286887234262,46.3767950660049,20.08632,1894.0272,4.9091831712,2
2025-04-01T10:44:47.650,1743497087650,11.8286890889015,46.3767905634585,20.08632,1894.0272,4.9091831712,2
2025-04-01T10:44:47.750,1743497087750,11.8286895105885,46.3767859732126,20.08632,1894.0272,5.00400661376,2
2025-04-01T10:44:47.840,1743497087840,11.828689842297,46.3767814188687,20.08632,1894.0272,5.00400661376,2
2025-04-01T10:44:47.950,1743497087950,11.8286900528426,46.3767768975491,20.08632,1894.0272,5.10392810048,2
2025-04-01T10:44:48.050,1743497088050,11.8286903076822,46.3767722518059,20.08632,1894.0272,5.10392810048,2
2025-04-01T10:44:48.150,1743497088150,11.8286906324388,46.3767676008555,20.08632,1894.0272,5.20096975552,2
2025-04-01T10:44:48.250,1743497088250,11.8286908268955,46.3767629390797,20.08632,1894.0272,5.10098836544,2
2025-04-01T10:44:48.350,1743497088350,11.828691044393,46.3767582568864,20.08632,1894.0272,5.10098836544,2
2025-04-01T10:44:48.460,1743497088460,11.828691264274,46.3767536271757,20.08632,1894.0272,5.10098836544,2
2025-04-01T10:44:48.550,1743497088550,11.8286916535846,46.3767489904765,20.08632,1894.0272,5.00400661376,2
2025-04-01T10:44:48.660,1743497088660,11.8286919545059,46.3767444237998,20.08632,1894.0272,5.00400661376,2
2025-04-01T10:44:48.760,1743497088760,11.8286922482765,46.3767399420821,20.17776,1894.0272,5.00400661376,2
2025-04-01T10:44:48.860,1743497088860,11.8286925488005,46.376735373624,20.17776,1894.0272,5.00400661376,2
2025-04-01T10:44:48.970,1743497088970,11.8286927585515,46.376730711163,20.17776,1894.0272,5.10392810048,2
2025-04-01T10:44:49.070,1743497089070,11.8286930839039,46.3767260996774,20.17776,1894.0272,5.10392810048,2
2025-04-01T10:44:49.170,1743497089170,11.8286934573243,46.3767213896669,20.17776,1894.0272,5.10392810048,2
2025-04-01T10:44:49.270,1743497089270,11.8286938329296,46.3767167694114,20.17776,1894.0272,5.10392810048,2
2025-04-01T10:44:49.350,1743497089350,11.8286940945225,46.3767121446338,20.17776,1894.0272,5.10392810048,2
2025-04-01T10:44:49.470,1743497089470,11.8286944683402,46.3767075741203,20.17776,1894.0272,5.00400661376,2
2025-04-01T10:44:49.570,1743497089570,11.8286949887452,46.3767029634568,20.17776,1894.0272,5.00400661376,2
2025-04-01T10:44:49.680,1743497089680,11.8286953869941,46.3766984459741,20.17776,1894.0272,5.00900005056,2
2025-04-01T10:44:49.780,1743497089780,11.8286957272436,46.3766940109837,20.17776,1894.0272,5.00400661376,2
2025-04-01T10:44:49.880,1743497089880,11.8286961952109,46.3766890810394,20.17776,1894.0272,4.9091831712,2
2025-04-01T10:44:49.980,1743497089980,11.8286966069665,46.3766845558829,20.17776,1894.0272,4.9091831712,2
2025-04-01T10:44:50.080,1743497090080,11.8286970290507,46.3766800359336,20.17776,1894.0272,4.9091831712,2
2025-04-01T10:44:50.190,1743497090190,11.8286974074368,46.376675905973,20.17776,1894.0272,4.9091831712,2
2025-04-01T10:44:50.250,1743497090250,11.8286978166102,46.3766714386434,20.17776,1894.0272,4.9091831712,2
2025-04-01T10:44:50.350,1743497090350,11.8286983811107,46.3766669793986,20.17776,1894.0272,4.9091831712,2
2025-04-01T10:44:50.450,1743497090450,11.8286988192837,46.376662520565,20.29968,1894.0272,4.9091831712,2
2025-04-01T10:44:50.550,1743497090550,11.8286991974712,46.3766580140447,20.29968,1894.0272,4.9091831712,2
2025-04-01T10:44:50.650,1743497090650,11.8286996815273,46.376653555622,20.29968,1894.0272,4.9091831712,2
2025-04-01T10:44:50.750,1743497090750,11.8287003089927,46.3766491788696,20.29968,1894.0272,4.9091831712,2
2025-04-01T10:44:50.850,1743497090850,11.8287008442948,46.3766447209951,20.29968,1894.0272,4.91630720064,2
2025-04-01T10:44:50.950,1743497090950,11.8287012633996,46.3766401471929,20.29968,1894.0272,4.9091831712,2
2025-04-01T10:44:51.050,1743497091050,11.8287017704966,46.376635673971,20.29968,1894.0272,4.9091831712,2
2025-04-01T10:44:51.150,1743497091150,11.828702334997,46.376631416709,20.29968,1894.0272,4.9091831712,2
2025-04-01T10:44:51.250,1743497091250,11.8287028323613,46.3766269755523,20.29968,1894.0272,4.9091831712,2
2025-04-01T10:44:51.350,1743497091350,11.8287033503827,46.3766229008149,20.39112,1894.332,4.9091831712,2
2025-04-01T10:44:51.450,1743497091450,11.8287038499318,46.3766185131,20.39112,1894.332,4.9091831712,2
2025-04-01T10:44:51.550,1743497091550,11.8287043546453,46.3766137022351,20.39112,1894.332,4.9091831712,2
2025-04-01T10:44:51.650,1743497091650,11.8287048553861,46.3766092717667,20.39112,1894.332,4.9091831712,2
2025-04-01T10:44:51.750,1743497091750,11.8287053755925,46.3766048347209,20.39112,1894.332,4.9091831712,2
2025-04-01T10:44:51.850,1743497091850,11.8287058789156,46.3766004089115,20.39112,1894.332,4.9091831712,2
2025-04-01T10:44:51.950,1743497091950,11.8287063838276,46.3765959337712,20.39112,1894.332,4.9091831712,2
2025-04-01T10:44:52.050,1743497092050,11.8287068794042,46.3765915101543,20.39112,1894.332,4.9091831712,2
2025-04-01T10:44:52.150,1743497092150,11.8287073628644,46.3765871830069,20.39112,1894.332,4.9091831712,2
2025-04-01T10:44:52.250,1743497092250,11.8287078759202,46.3765827744634,20.39112,1894.332,4.80937344448,2
2025-04-01T10:44:52.350,1743497092350,11.8287083909622,46.3765782710948,20.39112,1894.332,4.81664544416,2
2025-04-01T10:44:52.450,1743497092450,11.8287088186081,46.3765736101411,20.39112,1894.332,4.81664544416,2
2025-04-01T10:44:52.550,1743497092550,11.8287093332529,46.3765691703547,20.39112,1894.332,4.80937344448,2
2025-04-01T10:44:52.650,1743497092650,11.8287098337951,46.3765647313904,20.48256,1894.332,4.80937344448,2
2025-04-01T10:44:52.750,1743497092750,11.8287102775298,46.3765606130774,20.48256,1894.332,4.80937344448,2
2025-04-01T10:44:52.850,1743497092850,11.828710793565,46.3765562067263,20.48256,1894.332,4.80937344448,2
2025-04-01T10:44:52.950,1743497092950,11.8287114540027,46.3765518423066,20.48256,1894.332,4.81664544416,2
2025-04-01T10:44:53.050,1743497093050,11.8287120149278,46.3765474321187,20.48256,1894.332,4.81664544416,2
2025-04-01T10:44:53.140,1743497093140,11.8287124115876,46.3765430537219,20.48256,1894.332,4.81664544416,2
2025-04-01T10:44:53.250,1743497093250,11.8287129754921,46.376538638875,20.48256,1894.332,4.81664544416,2
2025-04-01T10:44:53.350,1743497093350,11.828713534431,46.3765340985081,20.48256,1894.332,4.81664544416,2
2025-04-01T10:44:53.450,1743497093450,11.828714097541,46.3765296622845,20.48256,1894.332,4.91630720064,2
2025-04-01T10:44:53.550,1743497093550,11.8287145297553,46.3765252849839,20.48256,1894.332,4.91630720064,2
2025-04-01T10:44:53.650,1743497093650,11.8287150831325,46.376520843279,20.48256,1894.332,4.91630720064,2
2025-04-01T10:44:53.750,1743497093750,11.8287156295578,46.3765162903054,20.48256,1894.332,4.91630720064,2
2025-04-01T10:44:53.850,1743497093850,11.8287161789625,46.3765118250312,20.48256,1894.332,4.91630720064,2
2025-04-01T10:44:53.950,1743497093950,11.8287167077099,46.3765073057671,20.48256,1894.332,4.91630720064,2
2025-04-01T10:44:54.050,1743497094050,11.8287172501626,46.3765028256937,20.48256,1894.332,4.91630720064,2
2025-04-01T10:44:54.160,1743497094160,11.8287177884442,46.3764983612417,20.48256,1894.332,4.91630720064,2
2025-04-01T10:44:54.250,1743497094250,11.8287183233491,46.3764938784277,20.48256,1894.332,4.91630720064,2
2025-04-01T10:44:54.350,1743497094350,11.8287188741441,46.3764894660473,20.48256,1894.332,4.91630720064,2
2025-04-01T10:44:54.460,1743497094460,11.8287194241447,46.3764849813149,20.48256,1894.332,4.91630720064,2
2025-04-01T10:44:54.570,1743497094570,11.8287199743439,46.3764807796873,20.48256,1894.332,5.01598236832,2
2025-04-01T10:44:54.670,1743497094670,11.8287205402347,46.3764763245534,20.48256,1894.332,5.01598236832,2
2025-04-01T10:44:54.770,1743497094770,11.8287212195421,46.3764713933758,20.48256,1894.332,5.01598236832,2
2025-04-01T10:44:54.870,1743497094870,11.8287217993368,46.3764669105618,20.48256,1894.332,4.91630720064,2
2025-04-01T10:44:54.970,1743497094970,11.8287225271093,46.3764624236368,20.48256,1894.332,4.91630720064,2
2025-04-01T10:44:55.070,1743497095070,11.8287230796921,46.3764576149644,20.48256,1894.332,4.91630720064,2
2025-04-01T10:44:55.170,1743497095170,11.8287236831236,46.3764531326985,20.48256,1894.332,4.91630720064,2
2025-04-01T10:44:55.280,1743497095280,11.828724281788,46.376448665506,20.48256,1894.332,4.91630720064,2
2025-04-01T10:44:55.380,1743497095380,11.8287247181734,46.3764447763078,20.48256,1894.332,4.91630720064,2
2025-04-01T10:44:55.450,1743497095450,11.8287252926052,46.3764403598165,20.48256,1894.332,4.91630720064,2
2025-04-01T10:44:55.580,1743497095580,11.8287258966326,46.376435600201,20.48256,1894.332,4.91630720064,2
2025-04-01T10:44:55.680,1743497095680,11.8287264764274,46.3764311472596,20.39112,1894.332,4.91630720064,2
2025-04-01T10:44:55.780,1743497095780,11.8287270927697,46.3764266910295,20.39112,1894.332,4.91630720064,2
2025-04-01T10:44:55.850,1743497095850,11.8287276644207,46.3764222282219,20.39112,1894.332,4.91630720064,2
2025-04-01T10:44:55.950,1743497095950,11.8287281129224,46.3764177500669,20.39112,1894.332,4.91630720064,2
2025-04-01T10:44:56.050,1743497096050,11.8287286766283,46.3764132990439,20.39112,1894.332,4.91630720064,2
2025-04-01T10:44:56.150,1743497096150,11.8287291726021,46.3764090261606,20.39112,1894.332,4.91630720064,2
2025-04-01T10:44:56.250,1743497096250,11.8287297357121,46.3764045871963,20.39112,1894.332,4.91630720064,2
2025-04-01T10:44:56.350,1743497096350,11.8287302950482,46.3763999865361,20.39112,1894.332,4.91630720064,2
2025-04-01T10:44:56.450,1743497096450,11.8287308621308,46.3763955229063,20.39112,1894.332,4.91630720064,2
2025-04-01T10:44:56.550,1743497096550,11.8287313656525,46.3763914374806,20.39112,1894.332,4.91630720064,2
2025-04-01T10:44:56.650,1743497096650,11.8287319188311,46.3763869960497,20.39112,1894.332,4.91630720064,2
2025-04-01T10:44:56.750,1743497096750,11.8287324537359,46.3763824773337,20.39112,1894.332,4.91630720064,2
2025-04-01T10:44:56.850,1743497096850,11.8287330007571,46.3763780068524,20.39112,1894.332,4.91630720064,2
2025-04-01T10:44:56.950,1743497096950,11.8287335646617,46.3763729512511,20.39112,1894.332,4.91630720064,2
2025-04-01T10:44:57.050,1743497097050,11.8287341061212,46.3763684158174,20.39112,1894.332,4.91630720064,2
2025-04-01T10:44:57.150,1743497097150,11.8287346293071,46.3763638464002,20.39112,1894.332,4.91630720064,2
2025-04-01T10:44:57.250,1743497097250,11.8287351652051,46.3763593200104,20.39112,1894.332,4.91630720064,2
2025-04-01T10:44:57.350,1743497097350,11.8287357156029,46.3763548640544,20.39112,1894.332,4.91630720064,2
2025-04-01T10:44:57.450,1743497097450,11.8287362586515,46.37635034342,20.39112,1894.332,4.91630720064,2
2025-04-01T10:44:57.550,1743497097550,11.8287366719961,46.3763459129515,20.39112,1894.332,5.01598236832,2
2025-04-01T10:44:57.650,1743497097650,11.828737316345,46.3763410870133,20.39112,1894.332,5.01598236832,2
2025-04-01T10:44:57.750,1743497097750,11.8287378806467,46.376336517322,20.39112,1894.332,5.01598236832,2
2025-04-01T10:44:57.850,1743497097850,11.8287384532909,46.3763319457122,20.39112,1894.332,5.01598236832,2
2025-04-01T10:44:57.950,1743497097950,11.8287390110379,46.3763278745376,20.39112,1894.332,5.01598236832,2
2025-04-01T10:44:58.050,1743497098050,11.8287395961957,46.3763233697987,20.39112,1894.332,5.01598236832,2
2025-04-01T10:44:58.150,1743497098150,11.8287400135128,46.3763189396044,20.39112,1894.332,4.91630720064,2
2025-04-01T10:44:58.230,1743497098230,11.8287406028417,46.3763144603532,20.29968,1894.0272,4.91630720064,2
2025-04-01T10:44:58.350,1743497098350,11.8287413524633,46.3763099068314,20.29968,1894.0272,4.91630720064,2
2025-04-01T10:44:58.450,1743497098450,11.8287419840999,46.3763054338836,20.29968,1894.0272,4.91630720064,2
2025-04-01T10:44:58.550,1743497098550,11.8287425158267,46.3763009908084,20.29968,1894.0272,4.91630720064,2
2025-04-01T10:44:58.630,1743497098630,11.8287431347512,46.3762965225196,20.29968,1894.0272,4.91630720064,2
2025-04-01T10:44:58.750,1743497098750,11.8287439262833,46.3762920196991,20.29968,1894.0272,4.91630720064,2
2025-04-01T10:44:58.850,1743497098850,11.8287445193861,46.3762875459291,20.29968,1894.0272,4.91630720064,2
2025-04-01T10:44:58.940,1743497098940,11.8287449861617,46.376283139304,20.29968,1894.0272,4.91630720064,2
2025-04-01T10:44:59.050,1743497099050,11.8287455596003,46.3762786636156,20.29968,1894.0272,4.91630720064,2
2025-04-01T10:44:59.140,1743497099140,11.8287462309625,46.3762742262956,20.29968,1894.0272,4.91630720064,2
2025-04-01T10:44:59.240,1743497099240,11.8287468234695,46.3762697426594,20.29968,1894.0272,4.91630720064,2
2025-04-01T10:44:59.350,1743497099350,11.8287474495445,46.3762653102726,20.29968,1894.0272,4.91630720064,2
2025-04-01T10:44:59.450,1743497099450,11.8287480672772,46.376260829377,20.29968,1894.0272,4.91630720064,2
2025-04-01T10:44:59.550,1743497099550,11.8287487436051,46.3762562473529,20.29968,1894.0272,4.91630720064,2
2025-04-01T10:44:59.650,1743497099650,11.8287493883511,46.3762517593318,20.29968,1894.0272,4.91630720064,2
2025-04-01T10:44:59.750,1743497099750,11.8287500436245,46.3762472255424,20.29968,1894.0272,4.92545229792,2
2025-04-01T10:44:59.850,1743497099850,11.8287506986992,46.3762427342325,20.29968,1894.0272,4.92545229792,2
2025-04-01T10:44:59.950,1743497099950,11.8287514368004,46.3762383733756,20.29968,1894.0272,4.92545229792,2
2025-04-01T10:45:00.050,1743497100050,11.828752099423,46.3762338957687,20.29968,1894.0272,4.92545229792,2
2025-04-01T10:45:00.160,1743497100160,11.8287526061227,46.3762293600609,20.29968,1894.0272,4.92545229792,2
2025-04-01T10:45:00.260,1743497100260,11.8287533048956,46.3762246423767,20.29968,1894.0272,4.92545229792,2
2025-04-01T10:45:00.360,1743497100360,11.8287539593744,46.3762201324306,20.29968,1894.0272,4.91630720064,2
2025-04-01T10:45:00.460,1743497100460,11.8287546136546,46.3762156164552,20.29968,1894.0272,5.01598236832,2
2025-04-01T10:45:00.570,1743497100570,11.828755362879,46.3762114759433,20.29968,1894.0272,5.01598236832,2
2025-04-01T10:45:00.670,1743497100670,11.8287560163647,46.3762069972402,20.29968,1894.0272,4.91630720064,2
2025-04-01T10:45:00.750,1743497100750,11.8287564787704,46.3762026199396,20.29968,1894.0272,4.91630720064,2
2025-04-01T10:45:00.870,1743497100870,11.8287571114001,46.3761981511026,20.29968,1894.0272,4.91630720064,2
2025-04-01T10:45:00.970,1743497100970,11.8287577700502,46.3761935989512,20.29968,1894.0272,5.01598236832,2
2025-04-01T10:45:01.070,1743497101070,11.8287584145976,46.3761891229887,20.29968,1894.0272,5.01598236832,2
2025-04-01T10:45:01.180,1743497101180,11.8287592446635,46.3761847489769,20.29968,1894.0272,4.91630720064,2
2025-04-01T10:45:01.280,1743497101280,11.828759855047,46.3761802801399,20.29968,1894.0272,4.91630720064,2
2025-04-01T10:45:01.380,1743497101380,11.8287602397893,46.376175869678,20.29968,1894.0272,4.91630720064,2
2025-04-01T10:45:01.480,1743497101480,11.8287607029896,46.3761713967302,20.29968,1894.0272,4.9091831712,2
2025-04-01T10:45:01.590,1743497101590,11.8287610893209,46.3761667842853,20.29968,1894.0272,4.90408780928,2
2025-04-01T10:45:01.650,1743497101650,11.8287613632288,46.3761623011972,20.29968,1894.0272,4.90102826752,2
2025-04-01T10:45:01.750,1743497101750,11.8287615123985,46.3761578430487,20.29968,1894.0272,4.90102826752,2
2025-04-01T10:45:01.850,1743497101850,11.8287615618569,46.3761533588644,20.29968,1894.0272,4.90000812224,2
2025-04-01T10:45:01.950,1743497101950,11.8287615423915,46.3761489056489,20.29968,1894.0272,4.90000812224,2
2025-04-01T10:45:02.050,1743497102050,11.8287613026479,46.3761440802588,20.29968,1894.0272,4.90102826752,2
2025-04-01T10:45:02.150,1743497102150,11.8287609387618,46.3761395746977,20.29968,1894.0272,4.9091831712,2
2025-04-01T10:45:02.250,1743497102250,11.8287604296787,46.3761350790028,20.39112,1894.332,4.91630720064,2
2025-04-01T10:45:02.350,1743497102350,11.8287598461102,46.37613114157,20.39112,1894.332,4.92545229792,2
2025-04-01T10:45:02.450,1743497102450,11.8287589951885,46.3761267256268,20.39112,1894.332,4.93660594592,2
2025-04-01T10:45:02.550,1743497102550,11.8287578906192,46.3761221816972,20.39112,1894.332,4.96488480224,2
2025-04-01T10:45:02.650,1743497102650,11.8287566478048,46.3761177890492,20.48256,1894.332,4.88365405792,2
2025-04-01T10:45:02.750,1743497102750,11.8287552441018,46.376113399964,20.48256,1894.332,4.92443662304,2
2025-04-01T10:45:02.850,1743497102850,11.828753550998,46.3761086159571,20.48256,1894.332,4.94773455968,2
2025-04-01T10:45:02.950,1743497102950,11.8287517452722,46.3761042649663,20.574,1894.332,4.90408780928,2
2025-04-01T10:45:03.050,1743497103050,11.8287497719044,46.3760999515219,20.574,1894.332,4.93356652096,2
2025-04-01T10:45:03.150,1743497103150,11.8287476529425,46.3760960982258,20.69592,1894.332,4.87032600736,2
2025-04-01T10:45:03.250,1743497103250,11.8287453119145,46.3760919166047,20.69592,1894.332,4.93964358272,2
2025-04-01T10:45:03.350,1743497103350,11.8287428278746,46.376087916686,20.78736,1894.6368,4.88467777952,2
2025-04-01T10:45:03.450,1743497103450,11.8287401469943,46.3760838460596,20.78736,1894.6368,4.96589153632,2
2025-04-01T10:45:03.550,1743497103550,11.8287372625206,46.376079689378,20.8788,1894.6368,4.91935735456,2
2025-04-01T10:45:03.650,1743497103650,11.8287342354319,46.3760757100138,20.8788,1894.6368,4.96488480224,2
2025-04-01T10:45:03.750,1743497103750,11.8287310281878,46.3760716944737,20.97024,1894.6368,4.97394004448,2
2025-04-01T10:45:03.850,1743497103850,11.8287276533018,46.3760678288448,21.09216,1894.9416,4.93964358272,2
2025-04-01T10:45:03.950,1743497103950,11.8287240911097,46.3760639936367,21.09216,1894.9416,4.9091831712,2
2025-04-01T10:45:04.050,1743497104050,11.8287203757755,46.3760602694232,21.1836,1894.9416,4.88263033632,2
2025-04-01T10:45:04.130,1743497104130,11.8287165905243,46.3760567447261,21.27504,1894.9416,5.000008288,2
2025-04-01T10:45:04.230,1743497104230,11.8287125659265,46.3760531589134,21.27504,1894.9416,4.98197558848,2
2025-04-01T10:45:04.350,1743497104350,11.8287084028851,46.3760495193847,21.39696,1895.2464,4.96790500448,2
2025-04-01T10:45:04.450,1743497104450,11.8287040863043,46.3760460656694,21.4884,1895.2464,4.957830064,2
2025-04-01T10:45:04.540,1743497104540,11.8286996044651,46.3760428243512,21.57984,1895.2464,4.95177535424,2
2025-04-01T10:45:04.640,1743497104640,11.828695017949,46.376039551516,21.67128,1895.5512,5.02096418208,2
2025-04-01T10:45:04.740,1743497104740,11.8286901996342,46.3760363902237,21.67128,1895.5512,4.95177535424,2
2025-04-01T10:45:04.840,1743497104840,11.8286853759564,46.3760333122458,21.7932,1895.5512,4.957830064,2
2025-04-01T10:45:04.950,1743497104950,11.8286804769986,46.3760304022673,21.88464,1895.5512,4.96790500448,2
2025-04-01T10:45:05.050,1743497105050,11.8286753976868,46.3760275440862,21.97608,1895.856,4.98197558848,2
2025-04-01T10:45:05.150,1743497105150,11.8286701338496,46.3760246267081,22.098,1895.856,5.000008288,2
2025-04-01T10:45:05.260,1743497105260,11.8286648048626,46.3760219631103,22.18944,1895.856,5.02195974016,2
2025-04-01T10:45:05.350,1743497105350,11.8286592440767,46.3760194962882,22.28088,1896.1608,4.9930031712,2
2025-04-01T10:45:05.460,1743497105460,11.8286534026297,46.376017033577,22.37232,1896.1608,4.93964358272,2
2025-04-01T10:45:05.560,1743497105560,11.8286477266397,46.3760146991264,22.49424,1896.1608,4.97394004448,2
2025-04-01T10:45:05.670,1743497105670,11.828641973582,46.3760124679967,22.58568,1896.4656,5.01199387744,2
2025-04-01T10:45:05.750,1743497105750,11.828636512706,46.3760106147969,22.67712,1896.4656,4.91935735456,2
2025-04-01T10:45:05.870,1743497105870,11.8286306281567,46.3760086311442,22.79904,1896.4656,4.96589153632,2
2025-04-01T10:45:05.970,1743497105970,11.8286247648605,46.3760068670143,22.89048,1896.7704,4.92443662304,2
2025-04-01T10:45:06.070,1743497106070,11.8286187047242,46.3760051338532,22.98192,1896.7704,4.93964358272,2
2025-04-01T10:45:06.180,1743497106180,11.828612410207,46.3760034141211,23.07336,1896.7704,4.998007784,2
2025-04-01T10:45:06.280,1743497106280,11.8286062048737,46.376001914734,23.19528,1897.0752,4.96488480224,2
2025-04-01T10:45:06.380,1743497106380,11.8286000203962,46.3760005477183,23.28672,1897.0752,5.02892462336,2
2025-04-01T10:45:06.480,1743497106480,11.8285937294542,46.375999276898,23.37816,1897.0752,4.97293465152,2
2025-04-01T10:45:06.550,1743497106550,11.8285880880254,46.3759983006931,23.4696,1897.38,4.94773455968,2
2025-04-01T10:45:06.650,1743497106650,11.8285817800014,46.3759972482993,23.59152,1897.38,5.02195974016,2
2025-04-01T10:45:06.750,1743497106750,11.8285747811497,46.3759962145416,23.68296,1897.38,5.00100786944,2
2025-04-01T10:45:06.850,1743497106850,11.8285683118399,46.3759953408355,23.7744,1897.6848,4.98197558848,2
2025-04-01T10:45:06.950,1743497106950,11.8285619394605,46.3759945468811,23.89632,1897.6848,5.06360375136,2
2025-04-01T10:45:07.050,1743497107050,11.8285554220827,46.3759938318563,23.98776,1897.6848,5.04877051712,2
2025-04-01T10:45:07.150,1743497107150,11.8285489696562,46.3759931793173,24.0792,1897.9896,5.04877051712,2
2025-04-01T10:45:07.250,1743497107250,11.8285424526757,46.3759925909086,24.17064,1897.9896,5.03587967168,2
2025-04-01T10:45:07.350,1743497107350,11.8285358759081,46.3759920997915,24.29256,1897.9896,5.03587967168,2
2025-04-01T10:45:07.450,1743497107450,11.8285293772013,46.3759915867495,24.47544,1898.2944,4.92545229792,2
2025-04-01T10:45:07.550,1743497107550,11.8285229613224,46.3759912447215,24.59736,1898.2944,4.92545229792,2
2025-04-01T10:45:07.650,1743497107650,11.8285164850605,46.3759907719664,24.6888,1898.5992,4.92545229792,2
2025-04-01T10:45:07.750,1743497107750,11.8285099954906,46.375990157796,24.78024,1898.5992,4.92545229792,2
2025-04-01T10:45:07.850,1743497107850,11.8285035269752,46.3759896842188,24.87168,1898.5992,4.92545229792,2
2025-04-01T10:45:07.950,1743497107950,11.8284970352204,46.3759893435611,24.9936,1898.904,4.92545229792,2
2025-04-01T10:45:08.050,1743497108050,11.8284900915872,46.3759888236676,25.08504,1898.904,4.92545229792,2
2025-04-01T10:45:08.150,1743497108150,11.8284835954626,46.3759883736596,25.17648,1898.904,4.92545229792,2
2025-04-01T10:45:08.250,1743497108250,11.8284771106598,46.3759879225554,25.2984,1899.2088,4.92545229792,2
2025-04-01T10:45:08.350,1743497108350,11.8284711623508,46.3759875725796,25.38984,1899.2088,4.92545229792,2
2025-04-01T10:45:08.450,1743497108450,11.8284647385267,46.3759871036614,25.48128,1899.2088,4.92545229792,2
2025-04-01T10:45:08.550,1743497108550,11.8284583591953,46.3759865991153,25.57272,1899.5136,4.92545229792,2
2025-04-01T10:45:08.630,1743497108630,11.8284519403369,46.3759860888139,25.69464,1899.5136,4.92545229792,2
2025-04-01T10:45:08.750,1743497108750,11.8284456607167,46.3759857160911,25.78608,1899.5136,4.92545229792,2
2025-04-01T10:45:08.850,1743497108850,11.8284392635088,46.3759852019529,25.87752,1899.8184,4.92545229792,2
2025-04-01T10:45:08.950,1743497108950,11.8284327550692,46.3759847135764,25.99944,1899.8184,4.92545229792,2
2025-04-01T10:45:09.040,1743497109040,11.8284263818952,46.3759841816242,26.09088,1899.8184,4.93660594592,2
2025-04-01T10:45:09.140,1743497109140,11.8284200945284,46.3759836165106,26.18232,1900.1232,4.83736261888,2
2025-04-01T10:45:09.240,1743497109240,11.8284131546691,46.3759830651001,26.39568,1900.1232,4.83736261888,2
2025-04-01T10:45:09.340,1743497109340,11.8284068095017,46.3759825046455,26.48712,1900.428,4.83736261888,2
2025-04-01T10:45:09.450,1743497109450,11.8284004782382,46.3759819387098,26.57856,1900.428,4.83736261888,2
2025-04-01T10:45:09.550,1743497109550,11.8283954122342,46.3759815648907,26.67,1900.428,4.83736261888,2
2025-04-01T10:45:09.650,1743497109650,11.8283892035241,46.3759809934738,26.79192,1900.7328,4.83736261888,2
2025-04-01T10:45:09.750,1743497109750,11.8283830367245,46.3759802154149,26.88336,1900.7328,4.85078097152,2
2025-04-01T10:45:09.850,1743497109850,11.8283768158982,46.3759795927485,26.9748,1900.7328,4.85078097152,2
2025-04-01T10:45:09.950,1743497109950,11.8283698450529,46.3759787913945,27.09672,1900.7328,4.85078097152,2
2025-04-01T10:45:10.050,1743497110050,11.8283635564944,46.3759781374852,27.18816,1901.0376,4.85078097152,2
2025-04-01T10:45:10.150,1743497110150,11.828357341031,46.3759776419831,27.2796,1901.0376,4.85078097152,2
2025-04-01T10:45:10.260,1743497110260,11.8283510937871,46.3759769954734,27.37104,1901.0376,4.85078097152,2
2025-04-01T10:45:10.350,1743497110350,11.8283449488365,46.3759762472872,27.49296,1901.3424,4.85078097152,2
2025-04-01T10:45:10.460,1743497110460,11.8283387258252,46.3759755794008,27.67584,1901.3424,4.75184923136,2
2025-04-01T10:45:10.560,1743497110560,11.8283330806224,46.375974783528,27.79776,1901.6472,4.85078097152,2
2025-04-01T10:45:10.670,1743497110670,11.8283268872067,46.3759741013904,27.8892,1901.6472,4.85078097152,2
2025-04-01T10:45:10.770,1743497110770,11.8283200011756,46.3759734217194,27.98064,1901.6472,4.85078097152,2
2025-04-01T10:45:10.870,1743497110870,11.828313731884,46.3759727508183,28.07208,1901.952,4.85078097152,2
2025-04-01T10:45:10.970,1743497110970,11.828307396648,46.3759720037283,28.194,1901.952,4.85078097152,2
2025-04-01T10:45:11.080,1743497111080,11.8283011251715,46.3759713306348,28.28544,1901.952,4.85078097152,2
2025-04-01T10:45:11.180,1743497111180,11.8282950356381,46.3759706134174,28.37688,1902.2568,4.85078097152,2
2025-04-01T10:45:11.280,1743497111280,11.8282887905791,46.3759699359389,28.4988,1902.2568,4.85078097152,2
2025-04-01T10:45:11.380,1743497111380,11.8282830792332,46.3759694122085,28.59024,1902.2568,4.85078097152,2
2025-04-01T10:45:11.480,1743497111480,11.8282768570165,46.3759687435,28.68168,1902.5616,4.85078097152,2
2025-04-01T10:45:11.580,1743497111580,11.8282700166698,46.3759679070661,28.77312,1902.5616,4.85078097152,2
2025-04-01T10:45:11.650,1743497111650,11.8282637203648,46.3759672232842,28.89504,1902.5616,4.85078097152,2
2025-04-01T10:45:11.750,1743497111750,11.8282574216763,46.3759666206243,28.98648,1902.8664,4.85078097152,2
2025-04-01T10:45:11.850,1743497111850,11.8282511184194,46.3759659453382,29.07792,1902.8664,4.85078097152,2
2025-04-01T10:45:11.950,1743497111950,11.828244887463,46.3759651853674,29.19984,1902.8664,4.85078097152,2
2025-04-01T10:45:12.050,1743497112050,11.8282385889731,46.3759645059704,29.29128,1903.1712,4.85078097152,2
2025-04-01T10:45:12.150,1743497112150,11.8282322299017,46.3759637758722,29.38272,1903.1712,4.85078097152,2
2025-04-01T10:45:12.250,1743497112250,11.828225913138,46.3759630929125,29.47416,1903.1712,4.85078097152,2
2025-04-01T10:45:12.350,1743497112350,11.8282197336262,46.3759625256064,29.59608,1903.476,4.85078097152,2
2025-04-01T10:45:12.450,1743497112450,11.8282134079243,46.3759618270252,29.68752,1903.476,4.85078097152,2
2025-04-01T10:45:12.550,1743497112550,11.8282075877304,46.3759610856905,29.77896,1903.476,4.85078097152,2
2025-04-01T10:45:12.650,1743497112650,11.8282013134731,46.3759603788874,29.8704,1903.7808,4.85078097152,2
2025-04-01T10:45:12.750,1743497112750,11.8281943108474,46.3759596970239,29.99232,1903.7808,4.85078097152,2
2025-04-01T10:45:12.850,1743497112850,11.8281879897139,46.3759590044721,30.08376,1903.7808,4.85078097152,2
2025-04-01T10:45:12.950,1743497112950,11.8281818048392,46.3759583047946,30.1752,1904.0856,4.85078097152,2
2025-04-01T10:45:13.050,1743497113050,11.8281755172738,46.3759576158055,30.29712,1904.0856,4.85078097152,2
2025-04-01T10:45:13.150,1743497113150,11.8281691419149,46.37595695203,30.38856,1904.0856,4.85078097152,2
2025-04-01T10:45:13.250,1743497113250,11.8281624183614,46.3759563469036,30.57144,1904.3904,4.85078097152,2
2025-04-01T10:45:13.350,1743497113350,11.8281560843171,46.3759556740841,30.69336,1904.3904,4.85078097152,2
2025-04-01T10:45:13.450,1743497113450,11.8281497464989,46.3759550001684,30.7848,1904.6952,4.85078097152,2
2025-04-01T10:45:13.550,1743497113550,11.8281440186669,46.3759543347485,30.87624,1904.6952,4.85078097152,2
2025-04-01T10:45:13.650,1743497113650,11.8281377432179,46.3759536605587,30.99816,1904.6952,4.85078097152,2
2025-04-01T10:45:13.750,1743497113750,11.8281315764183,46.3759529003138,31.0896,1905,4.85078097152,2
2025-04-01T10:45:13.850,1743497113850,11.8281253116951,46.3759522168059,31.18104,1905,4.85078097152,2
2025-04-01T10:45:13.950,1743497113950,11.8281189812261,46.3759514612201,31.27248,1905,4.85078097152,2
2025-04-01T10:45:14.050,1743497114050,11.8281127115373,46.3759507760678,31.3944,1905.3048,4.85078097152,2
2025-04-01T10:45:14.150,1743497114150,11.8281063612055,46.3759502139689,31.48584,1905.3048,4.85078097152,2
2025-04-01T10:45:14.250,1743497114250,11.8281000889345,46.37594955266,31.57728,1905.3048,4.85078097152,2
2025-04-01T10:45:14.350,1743497114350,11.828093752904,46.3759488354426,31.6992,1905.6096,4.85078097152,2
2025-04-01T10:45:14.450,1743497114450,11.8280874834138,46.3759481930439,31.79064,1905.6096,4.85078097152,2
2025-04-01T10:45:14.550,1743497114550,11.8280811436093,46.3759476608177,31.97352,1905.9144,4.83736261888,2
2025-04-01T10:45:14.650,1743497114650,11.8280748532632,46.3759470482916,32.09544,1905.9144,4.83736261888,2
2025-04-01T10:45:14.750,1743497114750,11.8280686574639,46.3759464705712,32.18688,1905.9144,4.83736261888,2
2025-04-01T10:45:14.850,1743497114850,11.8280623663233,46.375945862156,32.27832,1906.2192,4.83736261888,2
2025-04-01T10:45:14.940,1743497114940,11.8280561079562,46.3759452076986,32.36976,1906.2192,4.83736261888,2
2025-04-01T10:45:15.050,1743497115050,11.8280498406509,46.3759445877729,32.49168,1906.2192,4.83736261888,2
2025-04-01T10:45:15.150,1743497115150,11.8280435012436,46.375943854934,32.58312,1906.524,4.85078097152,2
2025-04-01T10:45:15.250,1743497115250,11.8280372615475,46.3759432054097,32.67456,1906.524,4.75184923136,2
2025-04-01T10:45:15.350,1743497115350,11.8280310099338,46.3759426148085,32.79648,1906.524,4.75184923136,2
2025-04-01T10:45:15.450,1743497115450,11.8280247867239,46.3759419639139,32.88792,1906.8288,4.75184923136,2
2025-04-01T10:45:15.550,1743497115550,11.8280186554787,46.3759413998966,32.97936,1906.8288,4.75184923136,2
2025-04-01T10:45:15.650,1743497115650,11.8280124410084,46.37594075832,33.0708,1906.8288,4.75184923136,2
2025-04-01T10:45:15.750,1743497115750,11.8280061697305,46.3759400690569,33.19272,1907.1336,4.75184923136,2
2025-04-01T10:45:15.860,1743497115860,11.8279995170872,46.375939214809,33.28416,1907.1336,4.75184923136,2
2025-04-01T10:45:15.960,1743497115960,11.8279932213781,46.3759385461005,33.3756,1907.1336,4.85078097152,2
2025-04-01T10:45:16.050,1743497116050,11.8279869197102,46.3759378850656,33.49752,1907.1336,4.85078097152,2
2025-04-01T10:45:16.160,1743497116160,11.8279811549334,46.3759373215964,33.58896,1907.4384,4.85078097152,2
2025-04-01T10:45:16.260,1743497116260,11.8279748947787,46.3759366794718,33.6804,1907.4384,4.85078097152,2
2025-04-01T10:45:16.370,1743497116370,11.8279684346057,46.3759362256269,33.77184,1907.4384,4.85078097152,2
2025-04-01T10:45:16.450,1743497116450,11.8279621321433,46.3759356032346,33.9852,1907.7432,4.85078097152,2
2025-04-01T10:45:16.570,1743497116570,11.8279563955717,46.3759349942713,34.07664,1907.7432,4.85078097152,2
2025-04-01T10:45:16.670,1743497116670,11.8279501364101,46.3759343502282,34.19856,1908.048,4.85078097152,2
2025-04-01T10:45:16.770,1743497116770,11.8279431709278,46.3759335633994,34.29,1908.048,4.85078097152,2
2025-04-01T10:45:16.880,1743497116880,11.8279368527738,46.3759328903058,34.38144,1908.048,4.85078097152,2
2025-04-01T10:45:16.980,1743497116980,11.8279305594482,46.3759321582892,34.47288,1908.3528,4.85078097152,2
2025-04-01T10:45:17.080,1743497117080,11.8279242625474,46.375931482181,34.5948,1908.3528,4.85078097152,2
2025-04-01T10:45:17.180,1743497117180,11.8279180220568,46.3759308436191,34.68624,1908.3528,4.85078097152,2
2025-04-01T10:45:17.280,1743497117280,11.8279117416421,46.3759301740883,34.77768,1908.6576,4.85078097152,2
2025-04-01T10:45:17.380,1743497117380,11.8279054912201,46.3759295752653,34.8996,1908.6576,4.85078097152,2
2025-04-01T10:45:17.450,1743497117450,11.8278991959083,46.3759289158748,34.99104,1908.6576,4.85078097152,2
2025-04-01T10:45:17.550,1743497117550,11.8278928696105,46.3759283162295,35.08248,1908.9624,4.85078097152,2
2025-04-01T10:45:17.650,1743497117650,11.8278865492716,46.3759276688977,35.17392,1908.9624,4.85078097152,2
2025-04-01T10:45:17.750,1743497117750,11.8278801447144,46.375926896046,35.29584,1908.9624,4.85078097152,2
2025-04-01T10:45:17.850,1743497117850,11.827873808088,46.3759262451514,35.29584,1908.9624,4.85078097152,2
2025-04-01T10:45:17.950,1743497117950,11.8278674615302,46.3759256559205,35.38728,1909.2672,4.85078097152,2
2025-04-01T10:45:18.050,1743497118050,11.8278611229175,46.3759250217436,35.47872,1909.2672,4.85078097152,2
2025-04-01T10:45:18.150,1743497118150,11.8278548577971,46.375924569269,35.57016,1909.2672,4.83736261888,2
2025-04-01T10:45:18.250,1743497118250,11.827848512431,46.3759239556467,35.69208,1909.572,4.83736261888,2
2025-04-01T10:45:18.350,1743497118350,11.827842081655,46.375923286664,35.78352,1909.572,4.83736261888,2
2025-04-01T10:45:18.450,1743497118450,11.8278353406222,46.3759225477959,35.78352,1909.572,4.83736261888,2
2025-04-01T10:45:18.550,1743497118550,11.8278289225583,46.3759219188261,35.87496,1909.572,4.83736261888,2
2025-04-01T10:45:18.650,1743497118650,11.82782249357,46.3759213005447,35.99688,1909.8768,4.93660594592,2
2025-04-01T10:45:18.750,1743497118750,11.8278166817184,46.3759208456037,36.08832,1909.8768,4.93660594592,2
2025-04-01T10:45:18.850,1743497118850,11.8278102936473,46.3759202571949,36.08832,1909.8768,4.93660594592,2
2025-04-01T10:45:18.950,1743497118950,11.8278038988229,46.375919577798,36.17976,1909.8768,4.93660594592,2
2025-04-01T10:45:19.050,1743497119050,11.8277974968479,46.3759189847302,36.2712,1910.1816,4.93660594592,2
2025-04-01T10:45:19.150,1743497119150,11.8277911490983,46.375918605978,36.2712,1910.1816,4.93660594592,2
2025-04-01T10:45:19.250,1743497119250,11.8277847342125,46.3759180255171,36.39312,1910.1816,4.93660594592,2
2025-04-01T10:45:19.350,1743497119350,11.8277782442454,46.3759173757187,36.39312,1910.1816,4.93660594592,2
2025-04-01T10:45:19.450,1743497119450,11.8277717930107,46.3759167722366,36.48456,1910.1816,4.93660594592,2
2025-04-01T10:45:19.550,1743497119550,11.8277653344268,46.3759161029799,36.576,1910.4864,4.93660594592,2
2025-04-01T10:45:19.650,1743497119650,11.8277588563773,46.3759154942907,36.576,1910.4864,4.93660594592,2
2025-04-01T10:45:19.750,1743497119750,11.8277524162658,46.3759148718984,36.69792,1910.4864,4.93660594592,2
2025-04-01T10:45:19.850,1743497119850,11.8277459356341,46.3759142793787,36.69792,1910.4864,4.93660594592,2
2025-04-01T10:45:19.950,1743497119950,11.827739434941,46.3759137318051,36.78936,1910.4864,4.93660594592,2
2025-04-01T10:45:20.050,1743497120050,11.8277329543094,46.3759131568253,36.78936,1910.4864,4.93660594592,2
2025-04-01T10:45:20.150,1743497120150,11.8277263721789,46.3759126051407,36.8808,1910.7912,5.03587967168,2
2025-04-01T10:45:20.250,1743497120250,11.8277198514245,46.3759120350941,36.8808,1910.7912,5.03587967168,2
2025-04-01T10:45:20.350,1743497120350,11.8277134335592,46.3759112833451,36.97224,1910.7912,5.03587967168,2
2025-04-01T10:45:20.450,1743497120450,11.8277069328661,46.375910729742,36.97224,1910.7912,5.02494596736,2
2025-04-01T10:45:20.550,1743497120550,11.8277005241378,46.3759103433162,37.09416,1910.7912,4.92545229792,2
2025-04-01T10:45:20.640,1743497120640,11.8276940544306,46.3759098502807,37.09416,1910.7912,4.92545229792,2
2025-04-01T10:45:20.750,1743497120750,11.8276874133077,46.3759094561811,37.1856,1911.096,4.92545229792,2
2025-04-01T10:45:20.850,1743497120850,11.8276809096352,46.375909000966,37.1856,1911.096,5.02494596736,2
2025-04-01T10:45:20.950,1743497120950,11.8276745678445,46.3759084999826,37.27704,1911.096,5.02494596736,2
2025-04-01T10:45:21.050,1743497121050,11.8276674815965,46.3759079803632,37.27704,1911.096,5.02494596736,2
2025-04-01T10:45:21.150,1743497121150,11.8276609227054,46.3759075048675,37.39896,1911.096,5.02494596736,2
2025-04-01T10:45:21.250,1743497121250,11.8276543753348,46.375907025261,37.39896,1911.096,4.92545229792,2
2025-04-01T10:45:21.350,1743497121350,11.8276484935662,46.3759066347242,37.39896,1911.096,4.92545229792,2
2025-04-01T10:45:21.460,1743497121460,11.827642039352,46.3759061540214,37.4904,1911.4008,4.92545229792,2
2025-04-01T10:45:21.560,1743497121560,11.8276354592078,46.375905711139,37.4904,1911.4008,4.92545229792,2
2025-04-01T10:45:21.660,1743497121660,11.8276290012197,46.375905229614,37.58184,1911.4008,4.92545229792,2
2025-04-01T10:45:21.770,1743497121770,11.827622536081,46.3759048135896,37.58184,1911.4008,4.92545229792,2
2025-04-01T10:45:21.870,1743497121870,11.8276160845484,46.3759043454936,37.58184,1911.4008,4.92545229792,2
2025-04-01T10:45:21.970,1743497121970,11.8276096976691,46.3759038006605,37.67328,1911.4008,4.92545229792,2
2025-04-01T10:45:22.070,1743497122070,11.8276032987728,46.3759033270833,37.67328,1911.4008,4.92545229792,2
2025-04-01T10:45:22.170,1743497122170,11.827596913979,46.3759029639526,37.67328,1911.4008,4.92545229792,2
2025-04-01T10:45:22.280,1743497122280,11.8275905584829,46.3759024766723,37.67328,1911.4008,4.82597919232,2
2025-04-01T10:45:22.380,1743497122380,11.8275840017768,46.3759018827824,37.7952,1911.7056,4.82597919232,2
2025-04-01T10:45:22.480,1743497122480,11.8275776506505,46.375901363711,37.7952,1911.7056,4.82597919232,2
2025-04-01T10:45:22.580,1743497122580,11.8275718746512,46.3759009542641,37.7952,1911.7056,4.82597919232,2
2025-04-01T10:45:22.680,1743497122680,11.8275655416995,46.3759004513623,37.7952,1911.7056,4.92545229792,2
2025-04-01T10:45:22.790,1743497122790,11.8275586078984,46.3758997086573,37.7952,1911.7056,4.92545229792,2
2025-04-01T10:45:22.850,1743497122850,11.827552166893,46.375899225762,37.7952,1911.7056,4.92545229792,2
2025-04-01T10:45:22.950,1743497122950,11.8275456768265,46.3758988804453,37.88664,1911.7056,4.91630720064,2
2025-04-01T10:45:23.050,1743497123050,11.8275392069208,46.3758984751092,37.88664,1911.7056,4.91630720064,2
2025-04-01T10:45:23.150,1743497123150,11.8275327755489,46.375898001532,37.88664,1911.7056,4.91630720064,2
2025-04-01T10:45:23.250,1743497123250,11.8275263153759,46.3758975986625,37.88664,1911.7056,4.91630720064,2
2025-04-01T10:45:23.350,1743497123350,11.8275199127057,46.3758971579726,37.88664,1911.7056,4.91630720064,2
2025-04-01T10:45:23.450,1743497123450,11.8275134564059,46.3758967430444,37.88664,1911.7056,4.91630720064,2
2025-04-01T10:45:23.550,1743497123550,11.8275068829157,46.3758963799137,37.88664,1911.7056,4.91630720064,2
2025-04-01T10:45:23.650,1743497123650,11.8274999770218,46.3758959373054,37.88664,1911.7056,4.91630720064,2
2025-04-01T10:45:23.750,1743497123750,11.8274934610344,46.3758955385468,37.88664,1911.7056,4.91630720064,2
2025-04-01T10:45:23.850,1743497123850,11.8274869507079,46.3758951556837,37.88664,1911.7056,4.91630720064,2
2025-04-01T10:45:23.950,1743497123950,11.8274811784826,46.3758946837508,37.88664,1911.7056,4.91630720064,2
2025-04-01T10:45:24.050,1743497124050,11.827474736782,46.3758943159611,37.88664,1911.7056,4.91630720064,2
2025-04-01T10:45:24.150,1743497124150,11.8274682825679,46.3758940232641,37.7952,1911.7056,4.91630720064,2
2025-04-01T10:45:24.250,1743497124250,11.8274618226928,46.3758936697256,37.7952,1911.7056,4.9091831712,2
2025-04-01T10:45:24.350,1743497124350,11.8274553279586,46.3758934592468,37.7952,1911.7056,4.9091831712,2
2025-04-01T10:45:24.450,1743497124450,11.8274488734465,46.3758931188632,37.7952,1911.7056,4.9091831712,2
2025-04-01T10:45:24.550,1743497124550,11.8274429578118,46.3758926565224,37.7952,1911.7056,4.9091831712,2
2025-04-01T10:45:24.650,1743497124650,11.8274365694428,46.3758923120279,37.7952,1911.7056,4.9091831712,2
2025-04-01T10:45:24.750,1743497124750,11.827429424401,46.3758919373867,37.7952,1911.7056,4.9091831712,2
2025-04-01T10:45:24.850,1743497124850,11.8274229783306,46.3758915920699,37.7952,1911.7056,4.9091831712,2
2025-04-01T10:45:24.950,1743497124950,11.8274164559871,46.3758912308577,37.67328,1911.4008,4.9091831712,2
2025-04-01T10:45:25.050,1743497125050,11.8274100125981,46.3758908764969,37.67328,1911.4008,4.9091831712,2
2025-04-01T10:45:25.150,1743497125150,11.8274035918528,46.3758906758844,37.67328,1911.4008,4.9091831712,2
2025-04-01T10:45:25.250,1743497125250,11.8273971765697,46.375890318509,37.67328,1911.4008,4.91630720064,2
2025-04-01T10:45:25.350,1743497125350,11.8273909490892,46.3758898915221,37.67328,1911.4008,4.91630720064,2
2025-04-01T10:45:25.450,1743497125450,11.8273845610182,46.3758895160586,37.67328,1911.4008,4.91630720064,2
2025-04-01T10:45:25.550,1743497125550,11.8273781194169,46.3758892817366,37.67328,1911.4008,4.91630720064,2
2025-04-01T10:45:25.650,1743497125650,11.8273717017503,46.375888923539,37.58184,1911.4008,4.91630720064,2
2025-04-01T10:45:25.750,1743497125750,11.8273653061315,46.3758885615046,37.58184,1911.4008,4.91630720064,2
2025-04-01T10:45:25.830,1743497125830,11.8273588558899,46.3758882052254,37.58184,1911.4008,4.9091831712,2
2025-04-01T10:45:25.950,1743497125950,11.8273523486421,46.3758879029362,37.58184,1911.4008,4.91630720064,2
2025-04-01T10:45:26.050,1743497126050,11.8273458709899,46.3758875455608,37.58184,1911.4008,4.91630720064,2
2025-04-01T10:45:26.140,1743497126140,11.8273394263099,46.375887046496,37.58184,1911.4008,4.91630720064,2
2025-04-01T10:45:26.240,1743497126240,11.8273324539749,46.3758865356464,37.4904,1911.4008,4.91630720064,2
2025-04-01T10:45:26.350,1743497126350,11.8273259176282,46.3758861519612,37.4904,1911.4008,4.91630720064,2
2025-04-01T10:45:26.450,1743497126450,11.8273193736342,46.3758857743053,37.4904,1911.4008,4.91630720064,2
2025-04-01T10:45:26.550,1743497126550,11.827313937388,46.3758855547825,37.4904,1911.4008,4.91630720064,2
2025-04-01T10:45:26.640,1743497126640,11.8273074790026,46.3758851935703,37.4904,1911.4008,4.91630720064,2
2025-04-01T10:45:26.750,1743497126750,11.8273004683325,46.3758848740153,37.4904,1911.4008,5.01598236832,2
2025-04-01T10:45:26.850,1743497126850,11.8272939322837,46.3758845138992,37.4904,1911.4008,5.01598236832,2
2025-04-01T10:45:26.950,1743497126950,11.8272871885695,46.3758841992773,37.39896,1911.096,5.01598236832,2
2025-04-01T10:45:27.050,1743497127050,11.827280618456,46.3758838440944,37.39896,1911.096,5.01598236832,2
2025-04-01T10:45:27.150,1743497127150,11.8272741166705,46.3758835037108,37.39896,1911.096,5.01598236832,2
2025-04-01T10:45:27.250,1743497127250,11.8272675747621,46.3758831411282,37.39896,1911.096,5.01598236832,2
2025-04-01T10:45:27.350,1743497127350,11.8272610275901,46.375882622331,37.39896,1911.096,5.01598236832,2
2025-04-01T10:45:27.460,1743497127460,11.8272545233217,46.3758822350829,37.39896,1911.096,4.91630720064,2
2025-04-01T10:45:27.550,1743497127550,11.8272480805287,46.3758818903143,37.39896,1911.096,4.91630720064,2
2025-04-01T10:45:27.650,1743497127650,11.827241601784,46.3758814959407,37.27704,1911.096,4.91630720064,2
2025-04-01T10:45:27.750,1743497127750,11.8272350885774,46.3758811670676,37.27704,1911.096,5.01598236832,2
2025-04-01T10:45:27.860,1743497127860,11.8272285911617,46.3758807833824,37.27704,1911.096,5.01598236832,2
2025-04-01T10:45:27.950,1743497127950,11.8272221000027,46.3758803437887,37.27704,1911.096,4.91630720064,2
2025-04-01T10:45:28.070,1743497128070,11.8272156349633,46.3758799507854,37.27704,1911.096,4.91630720064,2
2025-04-01T10:45:28.170,1743497128170,11.8272091232464,46.3758796981012,37.27704,1911.096,4.91630720064,2
2025-04-01T10:45:28.270,1743497128270,11.8272026736007,46.3758793097569,37.27704,1911.096,4.91630720064,2
2025-04-01T10:45:28.370,1743497128370,11.8271962524581,46.3758788246692,37.27704,1911.096,4.91630720064,2
2025-04-01T10:45:28.470,1743497128470,11.8271898068843,46.3758784313918,37.1856,1911.096,4.91630720064,2
2025-04-01T10:45:28.580,1743497128580,11.8271836530948,46.3758781776114,37.1856,1911.096,4.91630720064,2
2025-04-01T10:45:28.680,1743497128680,11.827177228079,46.3758777991333,37.1856,1911.096,4.91630720064,2
2025-04-01T10:45:28.780,1743497128780,11.8271702027104,46.3758773356963,37.1856,1911.096,4.91630720064,2
2025-04-01T10:45:28.880,1743497128880,11.8271631223219,46.3758770205263,37.1856,1911.096,5.01598236832,2
2025-04-01T10:45:28.980,1743497128980,11.827156534034,46.3758766341004,37.1856,1911.096,5.01598236832,2
2025-04-01T10:45:29.080,1743497129080,11.8271499371058,46.3758762545261,37.1856,1911.096,5.01598236832,2
2025-04-01T10:45:29.180,1743497129180,11.827143957215,46.3758758448051,37.1856,1911.096,5.01598236832,2
2025-04-01T10:45:29.250,1743497129250,11.8271374322893,46.3758754734526,37.09416,1910.7912,5.01598236832,2
2025-04-01T10:45:29.350,1743497129350,11.8271311342959,46.3758750727755,37.09416,1910.7912,4.91630720064,2
2025-04-01T10:45:29.450,1743497129450,11.8271246771023,46.3758747071783,37.09416,1910.7912,4.91630720064,2
2025-04-01T10:45:29.550,1743497129550,11.8271180992424,46.3758743281521,37.09416,1910.7912,4.9091831712,2
2025-04-01T10:45:29.650,1743497129650,11.8271115708408,46.3758739932497,37.09416,1910.7912,5.00900005056,2
2025-04-01T10:45:29.750,1743497129750,11.8271050058917,46.3758737687938,37.09416,1910.7912,5.00900005056,2
2025-04-01T10:45:29.850,1743497129850,11.827098319283,46.3758734936367,36.97224,1910.7912,5.10882408256,2
2025-04-01T10:45:29.950,1743497129950,11.8270914986005,46.3758732686327,36.97224,1910.7912,5.10392810048,2
2025-04-01T10:45:30.050,1743497130050,11.8270847505164,46.3758730356809,36.97224,1910.7912,5.10392810048,2
2025-04-01T10:45:30.150,1743497130150,11.8270780547708,46.3758727887521,36.97224,1910.7912,5.10392810048,2
2025-04-01T10:45:30.250,1743497130250,11.8270713445253,46.3758725637481,36.97224,1910.7912,5.10392810048,2
2025-04-01T10:45:30.350,1743497130350,11.8270651834859,46.3758723228485,36.97224,1910.7912,5.10392810048,2
2025-04-01T10:45:30.450,1743497130450,11.8270585273665,46.3758720649572,36.97224,1910.7912,5.10882408256,2
2025-04-01T10:45:30.550,1743497130550,11.8270519646022,46.375871631667,36.8808,1910.7912,5.10882408256,2
2025-04-01T10:45:30.650,1743497130650,11.8270453308285,46.3758713417106,36.8808,1910.7912,5.10882408256,2
2025-04-01T10:45:30.750,1743497130750,11.8270378832763,46.3758711580897,36.8808,1910.7912,5.10882408256,2
2025-04-01T10:45:30.850,1743497130850,11.8270312241775,46.3758708404532,36.8808,1910.7912,5.00900005056,2
2025-04-01T10:45:30.950,1743497130950,11.8270246507865,46.3758705258313,36.8808,1910.7912,5.00900005056,2
2025-04-01T10:45:31.050,1743497131050,11.8270180899091,46.375870173663,36.8808,1910.7912,5.01598236832,2
2025-04-01T10:45:31.150,1743497131150,11.8270115846476,46.3758697329731,36.78936,1910.4864,4.91630720064,2
2025-04-01T10:45:31.230,1743497131230,11.8270051197075,46.3758693597022,36.78936,1910.4864,4.91630720064,2
2025-04-01T10:45:31.330,1743497131330,11.8269987358076,46.3758690264441,36.78936,1910.4864,4.91630720064,2
2025-04-01T10:45:31.450,1743497131450,11.8269917004083,46.3758686301521,36.78936,1910.4864,4.91630720064,2
2025-04-01T10:45:31.550,1743497131550,11.8269852181876,46.3758682574292,36.78936,1910.4864,4.91630720064,2
2025-04-01T10:45:31.640,1743497131640,11.8269787257376,46.3758678860767,36.69792,1910.4864,4.91630720064,2
2025-04-01T10:45:31.750,1743497131750,11.8269734724276,46.3758676701168,36.69792,1910.4864,4.91630720064,2
2025-04-01T10:45:31.850,1743497131850,11.8269671085891,46.3758673141116,36.69792,1910.4864,4.9091831712,2
2025-04-01T10:45:31.950,1743497131950,11.8269600094303,46.375866829846,36.69792,1910.4864,4.9091831712,2
2025-04-01T10:45:32.040,1743497132040,11.8269536104347,46.375866487544,36.69792,1910.4864,4.9091831712,2
2025-04-01T10:45:32.140,1743497132140,11.826947206374,46.3758662195124,36.576,1910.4864,4.80937344448,2
2025-04-01T10:45:32.250,1743497132250,11.8269408282344,46.3758658994093,36.576,1910.4864,4.80937344448,2
2025-04-01T10:45:32.350,1743497132350,11.8269343835543,46.3758654504976,36.576,1910.4864,4.80937344448,2
2025-04-01T10:45:32.450,1743497132450,11.8269280472258,46.3758651112102,36.576,1910.4864,4.80937344448,2
2025-04-01T10:45:32.550,1743497132550,11.8269217655199,46.3758647404058,36.48456,1910.1816,4.81664544416,2
2025-04-01T10:45:32.650,1743497132650,11.8269154651431,46.3758643663127,36.48456,1910.1816,4.81664544416,2
2025-04-01T10:45:32.750,1743497132750,11.8269091343762,46.3758640870446,36.48456,1910.1816,4.81664544416,2
2025-04-01T10:45:32.860,1743497132860,11.8269028416465,46.3758637282989,36.39312,1910.1816,4.80937344448,2
2025-04-01T10:45:32.960,1743497132960,11.8268966845797,46.3758633314588,36.39312,1910.1816,4.80937344448,2
2025-04-01T10:45:33.060,1743497133060,11.8268903865863,46.3758629973785,36.39312,1910.1816,4.80937344448,2
2025-04-01T10:45:33.160,1743497133160,11.8268840462853,46.3758627186586,36.2712,1910.1816,4.80937344448,2
2025-04-01T10:45:33.260,1743497133260,11.8268777607062,46.3758623673125,36.2712,1910.1816,4.80937344448,2
2025-04-01T10:45:33.350,1743497133350,11.8268714063025,46.3758618860616,36.2712,1910.1816,4.81664544416,2
2025-04-01T10:45:33.470,1743497133470,11.826865141778,46.3758615078576,36.17976,1909.8768,4.81664544416,2
2025-04-01T10:45:33.570,1743497133570,11.8268589222427,46.3758612543512,36.17976,1909.8768,4.81664544416,2
2025-04-01T10:45:33.670,1743497133670,11.8268526466944,46.3758608914946,36.17976,1909.8768,4.81664544416,2
2025-04-01T10:45:33.770,1743497133770,11.8268464892303,46.3758605280899,36.08832,1909.8768,4.80937344448,2
2025-04-01T10:45:33.880,1743497133880,11.8268401867679,46.375860173181,36.08832,1909.8768,4.80937344448,2
2025-04-01T10:45:33.980,1743497133980,11.8268336775338,46.3758599037792,36.08832,1909.8768,4.80937344448,2
2025-04-01T10:45:34.080,1743497134080,11.8268269198163,46.3758594299279,35.99688,1909.8768,4.80937344448,2
2025-04-01T10:45:34.180,1743497134180,11.8268205287658,46.375859070634,35.99688,1909.8768,4.80937344448,2
2025-04-01T10:45:34.280,1743497134280,11.82681413126,46.3758587044887,35.99688,1909.8768,4.80937344448,2
2025-04-01T10:45:34.390,1743497134390,11.8268083722434,46.3758584180951,35.87496,1909.572,4.80937344448,2
2025-04-01T10:45:34.450,1743497134450,11.8268020202233,46.3758580560606,35.87496,1909.572,4.81664544416,2
2025-04-01T10:45:34.550,1743497134550,11.8267955837864,46.3758576929299,35.87496,1909.572,4.9091831712,2
2025-04-01T10:45:34.650,1743497134650,11.8267891582741,46.3758573451467,35.78352,1909.572,4.9091831712,2
2025-04-01T10:45:34.750,1743497134750,11.8267825494778,46.3758570297026,35.78352,1909.572,4.9091831712,2
2025-04-01T10:45:34.850,1743497134850,11.826776023857,46.3758567364574,35.69208,1909.572,5.00900005056,2
2025-04-01T10:45:34.950,1743497134950,11.8267695748569,46.3758563242699,35.69208,1909.572,5.00400661376,2
2025-04-01T10:45:35.050,1743497135050,11.8267630185977,46.3758560581567,35.57016,1909.2672,5.00400661376,2
2025-04-01T10:45:35.150,1743497135150,11.8267563991251,46.3758558194497,35.57016,1909.2672,5.00400661376,2
2025-04-01T10:45:35.250,1743497135250,11.8267498904869,46.3758555785502,35.47872,1909.2672,5.00400661376,2
2025-04-01T10:45:35.350,1743497135350,11.8267432795553,46.3758555484035,35.47872,1909.2672,4.90408780928,2
2025-04-01T10:45:35.450,1743497135450,11.8267367918227,46.3758553603977,35.38728,1909.2672,4.90408780928,2
2025-04-01T10:45:35.550,1743497135550,11.8267304059862,46.3758550000076,35.38728,1909.2672,4.90102826752,2
2025-04-01T10:45:35.650,1743497135650,11.8267239204386,46.375854835297,35.29584,1908.9624,4.90102826752,2
2025-04-01T10:45:35.750,1743497135750,11.8267173209281,46.3758548163869,35.29584,1908.9624,5.00100786944,2
2025-04-01T10:45:35.850,1743497135850,11.8267108417365,46.3758546977185,35.17392,1908.9624,4.90102826752,2
2025-04-01T10:45:35.950,1743497135950,11.826704330963,46.3758545894644,35.17392,1908.9624,4.90102826752,2
2025-04-01T10:45:36.050,1743497136050,11.8266978964627,46.3758544949134,35.17392,1908.9624,4.90000812224,2
2025-04-01T10:45:36.150,1743497136150,11.8266912805158,46.375854448049,35.08248,1908.9624,4.90000812224,2
2025-04-01T10:45:36.250,1743497136250,11.826684885592,46.375854362542,35.08248,1908.9624,4.90000812224,2
2025-04-01T10:45:36.350,1743497136350,11.8266786397385,46.3758541827581,34.99104,1908.6576,4.80000795648,2
2025-04-01T10:45:36.450,1743497136450,11.8266722791277,46.3758540843702,34.99104,1908.6576,4.80000795648,2
2025-04-01T10:45:36.550,1743497136550,11.8266663925424,46.3758541660404,34.8996,1908.6576,4.80104911264,2
2025-04-01T10:45:36.650,1743497136650,11.8266589363003,46.375854006811,34.8996,1908.6576,4.90102826752,2
2025-04-01T10:45:36.750,1743497136750,11.8266524415165,46.3758539081491,34.77768,1908.6576,4.90102826752,2
2025-04-01T10:45:36.850,1743497136850,11.8266459289554,46.3758538061984,34.68624,1908.3528,4.90102826752,2
2025-04-01T10:45:36.950,1743497136950,11.8266400121786,46.3758536672495,34.68624,1908.3528,4.90102826752,2
2025-04-01T10:45:37.030,1743497137030,11.8266335767845,46.375853552418,34.5948,1908.3528,4.90102826752,2
2025-04-01T10:45:37.150,1743497137150,11.8266273091315,46.3758536168223,34.5948,1908.3528,4.90102826752,2
2025-04-01T10:45:37.240,1743497137240,11.8266208885352,46.3758535198048,34.47288,1908.3528,4.90102826752,2
2025-04-01T10:45:37.350,1743497137350,11.8266145614925,46.3758534066176,34.38144,1908.048,4.90102826752,2
2025-04-01T10:45:37.450,1743497137450,11.8266075327473,46.3758532909639,34.38144,1908.048,4.90102826752,2
2025-04-01T10:45:37.550,1743497137550,11.8266010233643,46.3758531684587,34.29,1908.048,4.90102826752,2
2025-04-01T10:45:37.650,1743497137650,11.8265945093135,46.3758530363613,34.19856,1908.048,4.90102826752,2
2025-04-01T10:45:37.750,1743497137750,11.826588739422,46.3758530782927,34.19856,1908.048,4.90102826752,2
2025-04-01T10:45:37.850,1743497137850,11.826582291415,46.3758529514025,34.07664,1907.7432,4.90102826752,2
2025-04-01T10:45:37.950,1743497137950,11.8265756181639,46.3758528404078,33.9852,1907.7432,4.90102826752,2
2025-04-01T10:45:38.050,1743497138050,11.8265686964295,46.3758527562711,33.89376,1907.7432,4.90102826752,2
2025-04-01T10:45:38.160,1743497138160,11.8265621731921,46.3758526411655,33.89376,1907.7432,4.90102826752,2
2025-04-01T10:45:38.260,1743497138260,11.8265556604324,46.3758525378446,33.77184,1907.4384,4.90102826752,2
2025-04-01T10:45:38.360,1743497138360,11.8265497154008,46.37585236409,33.77184,1907.4384,4.90102826752,2
2025-04-01T10:45:38.460,1743497138460,11.826543313823,46.3758522717315,33.6804,1907.4384,4.90102826752,2
2025-04-01T10:45:38.550,1743497138550,11.8265369755579,46.3758522837901,33.58896,1907.4384,4.90102826752,2
2025-04-01T10:45:38.660,1743497138660,11.8265306101304,46.3758521911576,33.58896,1907.4384,4.80104911264,2
2025-04-01T10:45:38.750,1743497138750,11.826524115843,46.3758520856441,33.49752,1907.1336,4.80104911264,2
2025-04-01T10:45:38.870,1743497138870,11.8265177546364,46.3758519573836,33.3756,1907.1336,4.80104911264,2
2025-04-01T10:45:38.970,1743497138970,11.8265113092612,46.375851743342,33.3756,1907.1336,4.80417258112,2
2025-04-01T10:45:39.070,1743497139070,11.8265049428406,46.3758515742465,33.28416,1907.1336,4.80417258112,2
2025-04-01T10:45:39.170,1743497139170,11.8264985789525,46.3758513662342,33.19272,1907.1336,4.80417258112,2
2025-04-01T10:45:39.270,1743497139270,11.8264916852741,46.3758511091651,33.19272,1907.1336,4.80417258112,2
2025-04-01T10:45:39.380,1743497139380,11.8264852761485,46.3758509299293,33.0708,1906.8288,4.80417258112,2
2025-04-01T10:45:39.480,1743497139480,11.8264788542611,46.3758507556266,32.97936,1906.8288,4.80417258112,2
2025-04-01T10:45:39.580,1743497139580,11.8264731606428,46.3758506572387,32.97936,1906.8288,4.80417258112,2
2025-04-01T10:45:39.680,1743497139680,11.826466776147,46.3758504752623,32.88792,1906.8288,4.90408780928,2
2025-04-01T10:45:39.780,1743497139780,11.8264602145249,46.3758503733116,32.79648,1906.524,4.90408780928,2
2025-04-01T10:45:39.880,1743497139880,11.8264537706891,46.3758501781803,32.79648,1906.524,4.90408780928,2
2025-04-01T10:45:39.950,1743497139950,11.826447757975,46.3758498747949,32.67456,1906.524,4.90408780928,2
2025-04-01T10:45:40.050,1743497140050,11.8264413477073,46.3758496744564,32.58312,1906.524,4.90408780928,2
2025-04-01T10:45:40.150,1743497140150,11.8264341648765,46.3758494058767,32.58312,1906.524,4.90408780928,2
2025-04-01T10:45:40.250,1743497140250,11.8264276965101,46.3758492115675,32.49168,1906.2192,4.90408780928,2
2025-04-01T10:45:40.350,1743497140350,11.8264214553244,46.3758491830652,32.36976,1906.2192,4.90102826752,2
2025-04-01T10:45:40.450,1743497140450,11.8264150157094,46.3758490041034,32.36976,1906.2192,4.90102826752,2
2025-04-01T10:45:40.550,1743497140550,11.8264089798552,46.3758488119867,32.27832,1906.2192,4.90408780928,2
2025-04-01T10:45:40.650,1743497140650,11.82640258369,46.3758486250772,32.18688,1905.9144,4.90408780928,2
2025-04-01T10:45:40.750,1743497140750,11.8263953766266,46.3758483644453,32.18688,1905.9144,4.90408780928,2
2025-04-01T10:45:40.850,1743497140850,11.8263888809986,46.3758481465669,32.09544,1905.9144,4.90408780928,2
2025-04-01T10:45:40.950,1743497140950,11.8263824226133,46.37584787278,31.97352,1905.9144,4.90408780928,2
2025-04-01T10:45:41.050,1743497141050,11.8263759093073,46.3758476436651,31.97352,1905.9144,4.90408780928,2
2025-04-01T10:45:41.150,1743497141150,11.8263692704934,46.3758474318161,31.88208,1905.6096,4.90408780928,2
2025-04-01T10:45:41.250,1743497141250,11.8263627629228,46.3758472460028,31.88208,1905.6096,4.90408780928,2
2025-04-01T10:45:41.350,1743497141350,11.8263564103813,46.375847152274,31.79064,1905.6096,4.90102826752,2
2025-04-01T10:45:41.450,1743497141450,11.8263499204638,46.3758470160657,31.6992,1905.6096,4.90102826752,2
2025-04-01T10:45:41.550,1743497141550,11.8263434310677,46.3758469618016,31.6992,1905.6096,4.90102826752,2
2025-04-01T10:45:41.650,1743497141650,11.8263369223054,46.3758468535476,31.57728,1905.3048,4.90102826752,2
2025-04-01T10:45:41.750,1743497141750,11.8263303592184,46.3758467063769,31.48584,1905.3048,4.90102826752,2
2025-04-01T10:45:41.850,1743497141850,11.8263232879171,46.375846603056,31.48584,1905.3048,4.90000812224,2
2025-04-01T10:45:41.950,1743497141950,11.8263167249542,46.3758465153565,31.3944,1905.3048,4.90000812224,2
2025-04-01T10:45:42.050,1743497142050,11.826310188806,46.3758464246423,31.27248,1905,4.90102826752,2
2025-04-01T10:45:42.150,1743497142150,11.8263043520017,46.3758464073765,31.27248,1905,4.90102826752,2
2025-04-01T10:45:42.250,1743497142250,11.8262979188918,46.3758463089886,31.18104,1905,4.90102826752,2
2025-04-01T10:45:42.330,1743497142330,11.826291514285,46.3758461826465,31.18104,1905,4.90102826752,2
2025-04-01T10:45:42.430,1743497142430,11.8262850965439,46.3758460746665,31.0896,1905,4.90102826752,2
2025-04-01T10:45:42.550,1743497142550,11.8262791222643,46.3758459521613,30.99816,1904.6952,4.90102826752,2
2025-04-01T10:45:42.630,1743497142630,11.8262727539567,46.3758458573363,30.99816,1904.6952,4.90102826752,2
2025-04-01T10:45:42.750,1743497142750,11.8262656705143,46.3758457921098,30.87624,1904.6952,4.90000812224,2
2025-04-01T10:45:42.840,1743497142840,11.8262592294593,46.3758457101656,30.7848,1904.6952,4.90000812224,2
2025-04-01T10:45:42.950,1743497142950,11.8262527253399,46.3758456498722,30.7848,1904.6952,4.90000812224,2
2025-04-01T10:45:43.040,1743497143040,11.8262462636772,46.3758455564174,30.69336,1904.3904,4.90000812224,2
2025-04-01T10:45:43.140,1743497143140,11.8262399107137,46.3758454248682,30.57144,1904.3904,4.90102826752,2
2025-04-01T10:45:43.240,1743497143240,11.8262334231549,46.3758453138735,30.57144,1904.3904,4.90102826752,2
2025-04-01T10:45:43.350,1743497143350,11.8262268323344,46.3758453122291,30.48,1904.3904,5.00100786944,2
2025-04-01T10:45:43.450,1743497143450,11.8262203389658,46.375845176569,30.38856,1904.0856,4.90102826752,2
2025-04-01T10:45:43.550,1743497143550,11.8262138875572,46.3758449754083,30.38856,1904.0856,4.90102826752,2
2025-04-01T10:45:43.650,1743497143650,11.8262074498291,46.375844775892,30.29712,1904.0856,4.90408780928,2
2025-04-01T10:45:43.750,1743497143750,11.8262008862207,46.3758445445846,30.1752,1904.0856,4.90408780928,2
2025-04-01T10:45:43.850,1743497143850,11.8261944457119,46.3758443294468,30.08376,1903.7808,4.90408780928,2
2025-04-01T10:45:43.950,1743497143950,11.8261880878322,46.3758442096821,30.08376,1903.7808,4.90408780928,2
2025-04-01T10:45:44.050,1743497144050,11.8261816474227,46.375844028802,29.99232,1903.7808,4.90408780928,2
2025-04-01T10:45:44.160,1743497144160,11.8261750605252,46.3758438147604,29.8704,1903.7808,4.90102826752,2
2025-04-01T10:45:44.260,1743497144260,11.8261685966279,46.3758436766337,29.77896,1903.476,4.90102826752,2
2025-04-01T10:45:44.360,1743497144360,11.8261621674657,46.3758435659131,29.77896,1903.476,4.90102826752,2
2025-04-01T10:45:44.460,1743497144460,11.8261552241056,46.3758435848234,29.68752,1903.476,4.90000812224,2
2025-04-01T10:45:44.560,1743497144560,11.8261486943757,46.3758435820827,29.59608,1903.476,4.90000812224,2
2025-04-01T10:45:44.670,1743497144670,11.8261421664085,46.3758436248362,29.47416,1903.1712,4.90000812224,2
2025-04-01T10:45:44.750,1743497144750,11.8261363145334,46.3758435138416,29.47416,1903.1712,4.90102826752,2
2025-04-01T10:45:44.870,1743497144870,11.826129857464,46.3758436508721,29.38272,1903.1712,4.90102826752,2
2025-04-01T10:45:44.970,1743497144970,11.8261233845292,46.3758439487763,29.29128,1903.1712,4.90408780928,2
2025-04-01T10:45:45.070,1743497145070,11.8261169271618,46.3758442390068,29.29128,1903.1712,4.9091831712,2
2025-04-01T10:45:45.170,1743497145170,11.8261104063576,46.3758445878863,29.19984,1902.8664,4.91630720064,2
2025-04-01T10:45:45.270,1743497145270,11.8261039616652,46.3758450576267,29.07792,1902.8664,4.92545229792,2
2025-04-01T10:45:45.380,1743497145380,11.8260975666049,46.3758455851939,29.07792,1902.8664,4.93660594592,2
2025-04-01T10:45:45.480,1743497145480,11.8260911733943,46.3758462248521,28.98648,1902.8664,4.85078097152,2
2025-04-01T10:45:45.580,1743497145580,11.8260848052108,46.3758469565947,28.89504,1902.5616,4.86621770976,2
2025-04-01T10:45:45.680,1743497145680,11.8260784643511,46.375847772748,28.89504,1902.5616,4.88365405792,2
2025-04-01T10:45:45.780,1743497145780,11.8260722339781,46.3758486237071,28.77312,1902.5616,4.90306811104,2
2025-04-01T10:45:45.890,1743497145890,11.8260659871934,46.3758496048451,28.68168,1902.5616,4.827014984,2
2025-04-01T10:45:45.950,1743497145950,11.8260596959658,46.3758505602214,28.68168,1902.5616,4.85078097152,2
2025-04-01T10:45:46.050,1743497146050,11.8260535445536,46.3758517027813,28.59024,1902.2568,4.8764821952,2
2025-04-01T10:45:46.150,1743497146150,11.8260475433661,46.3758527584639,28.59024,1902.2568,4.80833407648,2
2025-04-01T10:45:46.250,1743497146250,11.8260415173688,46.3758540572385,28.4988,1902.2568,4.83839617536,2
2025-04-01T10:45:46.350,1743497146350,11.8260354774861,46.3758554516603,28.37688,1902.2568,4.77598939136,2
2025-04-01T10:45:46.450,1743497146450,11.8260295542601,46.3758569452922,28.37688,1902.2568,4.81041325952,2
2025-04-01T10:45:46.550,1743497146550,11.8260241091872,46.3758584087774,28.28544,1901.952,4.75395344864,2
2025-04-01T10:45:46.650,1743497146650,11.8260183493574,46.3758600797267,28.194,1901.952,4.79271047552,2
2025-04-01T10:45:46.750,1743497146750,11.8260121037955,46.3758618553672,28.194,1901.952,4.83322615776,2
2025-04-01T10:45:46.850,1743497146850,11.826006374449,46.3758637211738,28.07208,1901.952,4.7854022656,2
2025-04-01T10:45:46.950,1743497146950,11.8260007211303,46.3758658144509,28.07208,1901.952,4.83012146496,2
2025-04-01T10:45:47.050,1743497147050,11.8259946031279,46.3758680096787,27.98064,1901.6472,4.92443662304,2
2025-04-01T10:45:47.150,1743497147150,11.825988903619,46.375870252319,27.98064,1901.6472,4.97394004448,2
2025-04-01T10:45:47.250,1743497147250,11.8259832422404,46.3758726188349,27.8892,1901.6472,4.93964358272,2
2025-04-01T10:45:47.450,1743497147450,11.8259727576539,46.3758775768705,27.79776,1901.6472,5.10392810048,2
2025-04-01T10:45:47.550,1743497147550,11.8259673789196,46.3758803794172,27.79776,1901.6472,5.08036238688,2
2025-04-01T10:45:47.650,1743497147650,11.8259620216324,46.3758831803196,27.67584,1901.3424,5.0606403232,2
2025-04-01T10:45:47.750,1743497147750,11.8259567686009,46.3758861330517,27.67584,1901.3424,5.12250752992,2
2025-04-01T10:45:47.850,1743497147850,11.8259515563864,46.375889100309,27.5844,1901.3424,5.10882408256,2
2025-04-01T10:45:47.950,1743497147950,11.8259464197711,46.3758920807212,27.5844,1901.3424,5.10882408256,2
2025-04-01T10:45:48.050,1743497148050,11.8259413653895,46.3758951954233,27.49296,1901.3424,5.099027648,2
2025-04-01T10:45:48.150,1743497148150,11.8259364600442,46.3758985285519,27.49296,1901.3424,5.09314102528,2
2025-04-01T10:45:48.250,1743497148250,11.8259315987965,46.3759017948096,27.37104,1901.0376,5.09117717856,2
2025-04-01T10:45:48.350,1743497148350,11.8259267545147,46.375905221393,27.37104,1901.0376,5.09117717856,2
2025-04-01T10:45:48.450,1743497148450,11.8259220821484,46.3759086044006,27.37104,1901.0376,5.09314102528,2
2025-04-01T10:45:48.550,1743497148550,11.8259174417357,46.3759119262927,27.2796,1901.0376,5.099027648,2
2025-04-01T10:45:48.650,1743497148650,11.8259129525144,46.3759154175544,27.2796,1901.0376,5.099027648,2
2025-04-01T10:45:48.750,1743497148750,11.8259085831107,46.3759191905508,27.18816,1901.0376,5.10882408256,2
2025-04-01T10:45:48.830,1743497148830,11.8259043109415,46.3759228232279,27.18816,1901.0376,5.12250752992,2
2025-04-01T10:45:48.930,1743497148930,11.8259002011693,46.3759264674156,27.18816,1901.0376,5.0606403232,2
2025-04-01T10:45:49.040,1743497149040,11.8258961518451,46.3759302053322,27.09672,1900.7328,5.08036238688,2
2025-04-01T10:45:49.140,1743497149140,11.825892152901,46.3759340734276,27.09672,1900.7328,5.10392810048,2
2025-04-01T10:45:49.240,1743497149240,11.8258883440934,46.3759379226129,26.9748,1900.7328,5.04777987648,2
2025-04-01T10:45:49.350,1743497149350,11.8258847274738,46.375941798108,26.9748,1900.7328,5.13128471328,2
2025-04-01T10:45:49.450,1743497149450,11.8258807080524,46.3759459520489,26.9748,1900.7328,5.07740924064,2
2025-04-01T10:45:49.550,1743497149550,11.8258772048525,46.3759499223691,26.88336,1900.7328,5.02494596736,2
2025-04-01T10:45:49.650,1743497149650,11.8258739950569,46.3759539839515,26.88336,1900.7328,4.97394004448,2
2025-04-01T10:45:49.750,1743497149750,11.825870778868,46.3759580022324,26.88336,1900.7328,5.01199387744,2
2025-04-01T10:45:49.850,1743497149850,11.8258677101851,46.3759620528524,26.79192,1900.7328,4.96488480224,2
2025-04-01T10:45:49.950,1743497149950,11.8258651440121,46.3759658513364,26.79192,1900.7328,4.96589153632,2
2025-04-01T10:45:50.050,1743497150050,11.8258623739414,46.3759699622498,26.79192,1900.7328,4.92443662304,2
2025-04-01T10:45:50.160,1743497150160,11.8258600394865,46.3759737160618,26.79192,1900.7328,4.97695488224,2
2025-04-01T10:45:50.260,1743497150260,11.8258575473645,46.3759778727434,26.79192,1900.7328,4.97695488224,2
2025-04-01T10:45:50.350,1743497150350,11.8258547127708,46.3759825114981,26.67,1900.428,4.93964358272,2
2025-04-01T10:45:50.460,1743497150460,11.8258524033554,46.3759867736931,26.67,1900.428,4.998007784,2
2025-04-01T10:45:50.560,1743497150560,11.8258502139175,46.3759911296169,26.67,1900.428,4.96488480224,2
2025-04-01T10:45:50.660,1743497150660,11.8258480641493,46.3759954164774,26.67,1900.428,4.96488480224,2
2025-04-01T10:45:50.770,1743497150770,11.8258459708039,46.3759995934395,26.67,1900.428,4.96488480224,2
2025-04-01T10:45:50.870,1743497150870,11.8258438895748,46.3760038586492,26.67,1900.428,4.93356652096,2
2025-04-01T10:45:50.970,1743497150970,11.8258417539962,46.3760081024821,26.67,1900.428,4.87032600736,2
2025-04-01T10:45:51.070,1743497151070,11.825839680824,46.3760123739952,26.67,1900.428,4.93356652096,2
2025-04-01T10:45:51.170,1743497151170,11.8258377169901,46.3760167079941,26.67,1900.428,4.93356652096,2
2025-04-01T10:45:51.270,1743497151270,11.8258357176081,46.3760210063652,26.67,1900.428,4.93356652096,2
2025-04-01T10:45:51.380,1743497151380,11.825833790508,46.3760252258067,26.57856,1900.428,4.90408780928,2
2025-04-01T10:45:51.450,1743497151450,11.8258318680012,46.3760295104747,26.57856,1900.428,4.90408780928,2
2025-04-01T10:45:51.580,1743497151580,11.8258300652422,46.376033675104,26.57856,1900.428,4.90408780928,2
2025-04-01T10:45:51.680,1743497151680,11.8258281407491,46.376037937299,26.57856,1900.428,4.90408780928,2
2025-04-01T10:45:51.780,1743497151780,11.825826345389,46.3760422863714,26.57856,1900.428,4.90408780928,2
2025-04-01T10:45:51.850,1743497151850,11.8258244024236,46.376046542263,26.48712,1900.428,4.90408780928,2
2025-04-01T10:45:51.950,1743497151950,11.8258224693523,46.3760503506131,26.48712,1900.428,4.90408780928,2
2025-04-01T10:45:52.050,1743497152050,11.8258205118746,46.3760545412782,26.48712,1900.428,4.83839617536,2
2025-04-01T10:45:52.150,1743497152150,11.8258184323525,46.3760591120658,26.48712,1900.428,4.83839617536,2
2025-04-01T10:45:52.250,1743497152250,11.8258162922861,46.376063793848,26.39568,1900.1232,4.83839617536,2
2025-04-01T10:45:52.350,1743497152350,11.82581428319,46.3760680568652,26.39568,1900.1232,4.83839617536,2
2025-04-01T10:45:52.450,1743497152450,11.8258122593209,46.3760723165937,26.39568,1900.1232,4.83839617536,2
2025-04-01T10:45:52.550,1743497152550,11.8258104813284,46.376076012853,26.39568,1900.1232,4.83839617536,2
2025-04-01T10:45:52.650,1743497152650,11.8258084578566,46.3760802150286,26.39568,1900.1232,4.83839617536,2
2025-04-01T10:45:52.750,1743497152750,11.8258063434877,46.3760843585553,26.27376,1900.1232,4.83839617536,2
2025-04-01T10:45:52.850,1743497152850,11.8258042858643,46.3760885607309,26.27376,1900.1232,4.83839617536,2
2025-04-01T10:45:52.950,1743497152950,11.8258022578986,46.3760929229582,26.27376,1900.1232,4.87032600736,2
2025-04-01T10:45:53.050,1743497153050,11.8258001855891,46.3760971443181,26.27376,1900.1232,4.87032600736,2
2025-04-01T10:45:53.150,1743497153150,11.8257980370438,46.37610118562,26.27376,1900.1232,4.87032600736,2
2025-04-01T10:45:53.250,1743497153250,11.825795915934,46.3761053910844,26.27376,1900.1232,4.87032600736,2
2025-04-01T10:45:53.350,1743497153350,11.8257938064564,46.3761096132666,26.18232,1900.1232,4.87032600736,2
2025-04-01T10:45:53.450,1743497153450,11.825791651704,46.3761138491517,26.18232,1900.1232,4.96488480224,2
2025-04-01T10:45:53.550,1743497153550,11.8257894301257,46.3761181086061,26.18232,1900.1232,4.96488480224,2
2025-04-01T10:45:53.650,1743497153650,11.825787259781,46.3761223831339,26.18232,1900.1232,4.96488480224,2
2025-04-01T10:45:53.750,1743497153750,11.8257849831331,46.3761267903071,26.18232,1900.1232,4.96488480224,2
2025-04-01T10:45:53.850,1743497153850,11.8257827650929,46.3761310546946,26.18232,1900.1232,4.998007784,2
2025-04-01T10:45:53.950,1743497153950,11.8257805352965,46.3761352716696,26.09088,1899.8184,4.90408780928,2
2025-04-01T10:45:54.050,1743497154050,11.8257782398659,46.3761394812449,26.09088,1899.8184,4.90408780928,2
2025-04-01T10:45:54.150,1743497154150,11.8257758241041,46.3761435589969,26.09088,1899.8184,4.93964358272,2
2025-04-01T10:45:54.250,1743497154250,11.8257734582102,46.3761477614466,26.09088,1899.8184,4.93964358272,2
2025-04-01T10:45:54.530,1743497154530,11.8257663798329,46.3761602449203,25.99944,1899.8184,5.03290015008,2
2025-04-01T10:45:54.650,1743497154650,11.8257639189453,46.3761644662802,25.99944,1899.8184,5.03290015008,2
2025-04-01T10:45:54.750,1743497154750,11.8257612454016,46.3761689932181,25.99944,1899.8184,5.03290015008,2
2025-04-01T10:45:54.830,1743497154830,11.8257587217351,46.3761735182375,25.99944,1899.8184,4.93964358272,2
2025-04-01T10:45:54.950,1743497154950,11.8257563109265,46.3761777670035,25.99944,1899.8184,4.93964358272,2
2025-04-01T10:45:55.050,1743497155050,11.825753929639,46.3761820157695,25.87752,1899.8184,5.03290015008,2
2025-04-01T10:45:55.150,1743497155150,11.8257516873909,46.3761859534764,25.87752,1899.8184,4.998007784,2
2025-04-01T10:45:55.250,1743497155250,11.8257493618185,46.3761901816879,25.87752,1899.8184,4.998007784,2
2025-04-01T10:45:55.350,1743497155350,11.8257471404389,46.3761942761576,25.87752,1899.8184,4.90408780928,2
2025-04-01T10:45:55.450,1743497155450,11.8257448274173,46.3761984966954,25.78608,1899.5136,4.998007784,2
2025-04-01T10:45:55.550,1743497155550,11.8257424039338,46.3762028369978,25.78608,1899.5136,4.998007784,2
2025-04-01T10:45:55.650,1743497155650,11.8257401015139,46.3762070635649,25.78608,1899.5136,4.998007784,2
2025-04-01T10:45:55.750,1743497155750,11.8257377468922,46.3762113665949,25.78608,1899.5136,4.90408780928,2
2025-04-01T10:45:55.850,1743497155850,11.8257354927016,46.3762156016579,25.69464,1899.5136,4.90408780928,2
2025-04-01T10:45:55.950,1743497155950,11.8257333264784,46.3762198432984,25.69464,1899.5136,4.90408780928,2
2025-04-01T10:45:56.050,1743497156050,11.8257311237201,46.3762240747986,25.69464,1899.5136,4.87032600736,2
2025-04-01T10:45:56.160,1743497156160,11.8257289146553,46.3762283005435,25.57272,1899.5136,4.87032600736,2
2025-04-01T10:45:56.260,1743497156260,11.8257267345654,46.3762325284809,25.57272,1899.5136,4.87032600736,2
2025-04-01T10:45:56.360,1743497156360,11.8257245423344,46.3762367660104,25.57272,1899.5136,4.87032600736,2
2025-04-01T10:45:56.460,1743497156460,11.8257223694448,46.3762409827113,25.57272,1899.5136,4.87032600736,2
2025-04-01T10:45:56.570,1743497156570,11.8257202218802,46.3762451007503,25.48128,1899.2088,4.87032600736,2
2025-04-01T10:45:56.670,1743497156670,11.8257180346149,46.3762492782604,25.48128,1899.2088,4.87032600736,2
2025-04-01T10:45:56.750,1743497156750,11.8257159560239,46.3762532178858,25.48128,1899.2088,4.87032600736,2
2025-04-01T10:45:56.870,1743497156870,11.8257137286109,46.3762573353766,25.48128,1899.2088,4.90408780928,2
2025-04-01T10:45:56.970,1743497156970,11.8257113553306,46.3762618398415,25.48128,1899.2088,4.90408780928,2
2025-04-01T10:45:57.070,1743497157070,11.8257090871741,46.376265978435,25.48128,1899.2088,4.90408780928,2
2025-04-01T10:45:57.180,1743497157180,11.8257067884536,46.3762701674558,25.38984,1899.2088,4.90408780928,2
2025-04-01T10:45:57.280,1743497157280,11.8257045422951,46.3762743087899,25.38984,1899.2088,4.90408780928,2
2025-04-01T10:45:57.350,1743497157350,11.8257025885665,46.3762785630372,25.38984,1899.2088,4.87032600736,2
2025-04-01T10:45:57.480,1743497157480,11.8257001933378,46.376282981995,25.38984,1899.2088,4.87032600736,2
2025-04-01T10:45:57.580,1743497157580,11.8256979890153,46.3762871770451,25.38984,1899.2088,4.87032600736,2
2025-04-01T10:45:57.680,1743497157680,11.825695793631,46.3762913775764,25.38984,1899.2088,4.87032600736,2
2025-04-01T10:45:57.780,1743497157780,11.8256939115822,46.3762951349513,25.2984,1899.2088,4.87032600736,2
2025-04-01T10:45:57.850,1743497157850,11.8256917905593,46.3762993160242,25.2984,1899.2088,4.87032600736,2
2025-04-01T10:45:57.950,1743497157950,11.8256895159473,46.3763035091559,25.2984,1899.2088,4.87032600736,2
2025-04-01T10:45:58.050,1743497158050,11.8256874453014,46.3763077074947,25.2984,1899.2088,4.83839617536,2
2025-04-01T10:45:58.150,1743497158150,11.8256855402366,46.3763119132332,25.2984,1899.2088,4.83839617536,2
2025-04-01T10:45:58.250,1743497158250,11.8256835065851,46.3763161099276,25.17648,1898.904,4.83839617536,2
2025-04-01T10:45:58.350,1743497158350,11.8256814283168,46.3763201243716,25.17648,1898.904,4.83839617536,2
2025-04-01T10:45:58.450,1743497158450,11.825679379222,46.376324316133,25.17648,1898.904,4.83839617536,2
2025-04-01T10:45:58.550,1743497158550,11.8256774117136,46.3763286454729,25.17648,1898.904,4.83839617536,2
2025-04-01T10:45:58.650,1743497158650,11.8256753624946,46.3763328734103,25.17648,1898.904,4.93356652096,2
2025-04-01T10:45:58.750,1743497158750,11.8256732911038,46.3763370344768,25.17648,1898.904,4.93356652096,2
2025-04-01T10:45:58.850,1743497158850,11.8256712478934,46.3763412714582,25.17648,1898.904,4.93356652096,2
2025-04-01T10:45:58.950,1743497158950,11.8256693800713,46.3763455555781,25.17648,1898.904,4.93356652096,2
2025-04-01T10:45:59.050,1743497159050,11.8256673692868,46.3763497906411,25.08504,1898.904,4.93356652096,2
2025-04-01T10:45:59.150,1743497159150,11.8256653457157,46.3763541202551,25.08504,1898.904,4.93356652096,2
2025-04-01T10:45:59.250,1743497159250,11.8256633636578,46.3763583580587,25.08504,1898.904,4.93356652096,2
2025-04-01T10:45:59.350,1743497159350,11.8256615212353,46.3763626383417,25.08504,1898.904,4.93356652096,2
2025-04-01T10:45:59.450,1743497159450,11.8256595756007,46.3763668854634,25.08504,1898.904,4.93356652096,2
2025-04-01T10:45:59.550,1743497159550,11.8256574860852,46.3763710051467,25.08504,1898.904,4.93356652096,2
2025-04-01T10:45:59.650,1743497159650,11.8256555131145,46.3763752508981,25.08504,1898.904,4.93356652096,2
2025-04-01T10:45:59.750,1743497159750,11.8256536353859,46.3763795616019,24.9936,1898.904,4.93356652096,2
2025-04-01T10:45:59.850,1743497159850,11.8256516610497,46.3763838202341,24.9936,1898.904,4.93356652096,2
2025-04-01T10:45:59.950,1743497159950,11.8256496824429,46.376388099969,24.9936,1898.904,4.93356652096,2
2025-04-01T10:46:00.050,1743497160050,11.8256476059871,46.3763926724009,24.9936,1898.904,4.93356652096,2
2025-04-01T10:46:00.150,1743497160150,11.8256456461258,46.3763969806382,24.9936,1898.904,4.93356652096,2
2025-04-01T10:46:00.250,1743497160250,11.825643690262,46.3764012875051,24.9936,1898.904,4.93356652096,2
2025-04-01T10:46:00.350,1743497160350,11.8256418369646,46.3764052871498,24.9936,1898.904,4.93356652096,2
2025-04-01T10:46:00.450,1743497160450,11.8256398822677,46.3764095477004,24.87168,1898.5992,4.93356652096,2
2025-04-01T10:46:00.550,1743497160550,11.8256381153734,46.3764133475547,24.87168,1898.5992,4.93356652096,2
2025-04-01T10:46:00.630,1743497160630,11.8256361676533,46.3764175587744,24.87168,1898.5992,4.93356652096,2
2025-04-01T10:46:00.750,1743497160750,11.8256341590786,46.3764222770067,24.87168,1898.5992,4.93356652096,2
2025-04-01T10:46:00.830,1743497160830,11.8256321946738,46.3764265452311,24.87168,1898.5992,4.93356652096,2
2025-04-01T10:46:00.940,1743497160940,11.8256300311445,46.3764307608357,24.87168,1898.5992,4.93356652096,2
2025-04-01T10:46:01.040,1743497161040,11.8256280473734,46.376435015083,24.87168,1898.5992,4.93356652096,2
2025-04-01T10:46:01.140,1743497161140,11.8256261168595,46.3764394274633,24.78024,1898.5992,4.93356652096,2
2025-04-01T10:46:01.240,1743497161240,11.8256241355464,46.3764436712962,24.78024,1898.5992,4.93356652096,2
2025-04-01T10:46:01.350,1743497161350,11.8256222623366,46.3764478652501,24.78024,1898.5992,4.93356652096,2
2025-04-01T10:46:01.450,1743497161450,11.8256202867341,46.3764521049721,24.78024,1898.5992,4.93356652096,2
2025-04-01T10:46:01.550,1743497161550,11.8256182522136,46.3764562117746,24.78024,1898.5992,4.93356652096,2
2025-04-01T10:46:01.650,1743497161650,11.8256162500695,46.3764604684884,24.78024,1898.5992,4.93356652096,2
2025-04-01T10:46:01.750,1743497161750,11.8256143589831,46.3764648655214,24.78024,1898.5992,4.93356652096,2
2025-04-01T10:46:01.850,1743497161850,11.825612350036,46.3764691658109,24.78024,1898.5992,4.93356652096,2
2025-04-01T10:46:01.950,1743497161950,11.8256102622336,46.3764733677125,24.78024,1898.5992,4.93356652096,2
2025-04-01T10:46:02.060,1743497162060,11.8256082647075,46.3764776660835,24.78024,1898.5992,4.93356652096,2
2025-04-01T10:46:02.160,1743497162160,11.8256064592049,46.3764820935372,24.78024,1898.5992,4.93356652096,2
2025-04-01T10:46:02.260,1743497162260,11.8256045420486,46.3764863943748,24.78024,1898.5992,4.90408780928,2
2025-04-01T10:46:02.360,1743497162360,11.8256028394601,46.3764903537326,24.78024,1898.5992,4.90408780928,2
2025-04-01T10:46:02.460,1743497162460,11.8256009862124,46.3764946192163,24.6888,1898.5992,4.90408780928,2
2025-04-01T10:46:02.570,1743497162570,11.8255988987576,46.3764993278565,24.6888,1898.5992,4.90408780928,2
2025-04-01T10:46:02.670,1743497162670,11.8255970344612,46.376503641849,24.6888,1898.5992,4.90408780928,2
2025-04-01T10:46:02.770,1743497162770,11.8255950995525,46.3765079681743,24.6888,1898.5992,4.90408780928,2
2025-04-01T10:46:02.870,1743497162870,11.8255932663165,46.3765122942255,24.6888,1898.5992,4.90408780928,2
2025-04-01T10:46:02.970,1743497162970,11.8255915675764,46.3765166295947,24.6888,1898.5992,4.8764821952,2
2025-04-01T10:46:03.080,1743497163080,11.8255897884169,46.3765209537275,24.6888,1898.5992,4.8764821952,2
2025-04-01T10:46:03.180,1743497163180,11.8255879129228,46.3765252378474,24.6888,1898.5992,4.8764821952,2
2025-04-01T10:46:03.280,1743497163280,11.8255861458796,46.3765295496474,24.6888,1898.5992,4.8764821952,2
2025-04-01T10:46:03.380,1743497163380,11.8255843292787,46.3765338014281,24.6888,1898.5992,4.97293465152,2
2025-04-01T10:46:03.480,1743497163480,11.8255825532972,46.3765381274793,24.59736,1898.2944,4.97293465152,2
2025-04-01T10:46:03.590,1743497163590,11.8255809113399,46.3765425941238,24.59736,1898.2944,4.97293465152,2
2025-04-01T10:46:03.650,1743497163650,11.825579115744,46.3765469464848,24.59736,1898.2944,4.97293465152,2
2025-04-01T10:46:03.750,1743497163750,11.8255771765649,46.3765512563664,24.59736,1898.2944,5.000008288,2
2025-04-01T10:46:03.850,1743497163850,11.8255753345396,46.3765555966688,24.59736,1898.2944,5.000008288,2
2025-04-01T10:46:03.950,1743497163950,11.8255735709476,46.3765598276208,24.59736,1898.2944,4.90408780928,2
2025-04-01T10:46:04.050,1743497164050,11.8255717206544,46.3765641462724,24.59736,1898.2944,4.90408780928,2
2025-04-01T10:46:04.150,1743497164150,11.8255698467991,46.3765684684867,24.59736,1898.2944,4.90408780928,2
2025-04-01T10:46:04.250,1743497164250,11.8255679815344,46.3765727613765,24.59736,1898.2944,4.90408780928,2
2025-04-01T10:46:04.350,1743497164350,11.8255662096496,46.3765770652288,24.59736,1898.2944,4.90408780928,2
2025-04-01T10:46:04.450,1743497164450,11.8255643496485,46.3765813315347,24.59736,1898.2944,4.90408780928,2
2025-04-01T10:46:04.550,1743497164550,11.8255626036102,46.3765851418033,24.47544,1898.2944,4.90408780928,2
2025-04-01T10:46:04.650,1743497164650,11.8255607631988,46.3765893763182,24.47544,1898.2944,4.90408780928,2
2025-04-01T10:46:04.750,1743497164750,11.8255587594904,46.3765942398028,24.47544,1898.2944,4.90408780928,2
2025-04-01T10:46:04.850,1743497164850,11.8255569144361,46.3765985543434,24.47544,1898.2944,4.90408780928,2
2025-04-01T10:46:04.950,1743497164950,11.8255549437,46.376602945073,24.47544,1898.2944,4.90408780928,2
2025-04-01T10:46:05.050,1743497165050,11.8255530943255,46.3766072653689,24.47544,1898.2944,4.90408780928,2
2025-04-01T10:46:05.150,1743497165150,11.8255514501088,46.3766114505528,24.47544,1898.2944,4.90408780928,2
2025-04-01T10:46:05.250,1743497165250,11.8255494361711,46.3766160449096,24.47544,1898.2944,4.90408780928,2
2025-04-01T10:46:05.350,1743497165350,11.8255475653697,46.3766203811011,24.47544,1898.2944,4.90408780928,2
2025-04-01T10:46:05.450,1743497165450,11.825545681136,46.3766247208553,24.47544,1898.2944,4.90408780928,2
2025-04-01T10:46:05.550,1743497165550,11.8255439286423,46.3766285925136,24.47544,1898.2944,4.90408780928,2
2025-04-01T10:46:05.650,1743497165650,11.8255420441603,46.3766328908846,24.47544,1898.2944,4.90408780928,2
2025-04-01T10:46:05.750,1743497165750,11.8255399927068,46.3766373736986,24.47544,1898.2944,4.90408780928,2
2025-04-01T10:46:05.850,1743497165850,11.8255380986907,46.3766416939945,24.47544,1898.2944,4.90408780928,2
2025-04-01T10:46:05.950,1743497165950,11.8255365033364,46.3766458238181,24.47544,1898.2944,4.90408780928,2
2025-04-01T10:46:06.050,1743497166050,11.825534663794,46.3766501468547,24.47544,1898.2944,5.000008288,2
2025-04-01T10:46:06.130,1743497166130,11.8255326266913,46.3766544979824,24.47544,1898.2944,4.97293465152,2
2025-04-01T10:46:06.230,1743497166230,11.8255308370293,46.3766588228004,24.384,1898.2944,4.97293465152,2
2025-04-01T10:46:06.350,1743497166350,11.8255292438599,46.3766631515922,24.384,1898.2944,4.97293465152,2
2025-04-01T10:46:06.450,1743497166450,11.82552755885,46.3766674703808,24.384,1898.2944,4.94773455968,2
2025-04-01T10:46:06.550,1743497166550,11.8255260760184,46.3766715575879,24.384,1898.2944,4.85078097152,2
2025-04-01T10:46:06.640,1743497166640,11.8255244645752,46.3766758525332,24.384,1898.2944,4.85078097152,2
2025-04-01T10:46:06.750,1743497166750,11.8255226321338,46.3766805226678,24.384,1898.2944,4.94773455968,2
2025-04-01T10:46:06.840,1743497166840,11.8255209916413,46.3766848477598,24.384,1898.2944,4.94773455968,2
2025-04-01T10:46:06.950,1743497166950,11.8255193171091,46.3766891263985,24.384,1898.2944,4.94773455968,2
2025-04-01T10:46:07.050,1743497167050,11.8255176368166,46.3766934472425,24.384,1898.2944,4.8764821952,2
2025-04-01T10:46:07.150,1743497167150,11.8255158899838,46.3766977147817,24.384,1898.2944,4.8764821952,2
2025-04-01T10:46:07.250,1743497167250,11.8255141756266,46.3767020316518,24.384,1898.2944,4.8764821952,2
2025-04-01T10:46:07.350,1743497167350,11.8255124382286,46.3767062939839,24.29256,1897.9896,4.97293465152,2
2025-04-01T10:46:07.450,1743497167450,11.8255107024692,46.3767106127725,24.29256,1897.9896,4.97293465152,2
2025-04-01T10:46:07.550,1743497167550,11.8255089097534,46.3767148962072,24.29256,1897.9896,4.97293465152,2
2025-04-01T10:46:07.660,1743497167660,11.8255071669924,46.3767192180105,24.29256,1897.9896,4.97293465152,2
2025-04-01T10:46:07.750,1743497167750,11.8255056712251,46.3767236825994,24.29256,1897.9896,4.97293465152,2
2025-04-01T10:46:07.870,1743497167870,11.825503763901,46.3767284112461,24.29256,1897.9896,4.97293465152,2
2025-04-01T10:46:07.970,1743497167970,11.825502067023,46.3767327771731,24.29256,1897.9896,4.94773455968,2
2025-04-01T10:46:08.050,1743497168050,11.8255003783881,46.3767371328229,24.29256,1897.9896,4.85078097152,2
2025-04-01T10:46:08.170,1743497168170,11.8254989754298,46.3767409034897,24.29256,1897.9896,4.85078097152,2
2025-04-01T10:46:08.270,1743497168270,11.8254973178802,46.3767451811691,24.29256,1897.9896,4.85078097152,2
2025-04-01T10:46:08.350,1743497168350,11.8254956201581,46.3767495220196,24.29256,1897.9896,4.85078097152,2
2025-04-01T10:46:08.480,1743497168480,11.8254939451293,46.3767538024397,24.29256,1897.9896,4.8764821952,2
2025-04-01T10:46:08.580,1743497168580,11.8254923005898,46.3767580221552,24.29256,1897.9896,4.8764821952,2
2025-04-01T10:46:08.680,1743497168680,11.8254906077837,46.3767623077825,24.29256,1897.9896,4.8764821952,2
2025-04-01T10:46:08.780,1743497168780,11.8254889213337,46.3767666493181,24.29256,1897.9896,4.8764821952,2
2025-04-01T10:46:08.880,1743497168880,11.8254872281304,46.376770947141,24.29256,1897.9896,4.8764821952,2
2025-04-01T10:46:08.980,1743497168980,11.8254854375994,46.3767753099164,24.29256,1897.9896,4.8764821952,2
2025-04-01T10:46:09.090,1743497169090,11.8254837394801,46.3767796148649,24.29256,1897.9896,4.8764821952,2
2025-04-01T10:46:09.150,1743497169150,11.8254821928642,46.3767839352978,24.17064,1897.9896,4.8764821952,2
2025-04-01T10:46:09.250,1743497169250,11.8254804953903,46.3767882428499,24.17064,1897.9896,4.8764821952,2
2025-04-01T10:46:09.350,1743497169350,11.8254787556584,46.3767925424543,24.17064,1897.9896,4.97293465152,2
2025-04-01T10:46:09.450,1743497169450,11.8254770348459,46.376796857543,24.17064,1897.9896,4.97293465152,2
2025-04-01T10:46:09.550,1743497169550,11.8254754267049,46.3768011583806,24.17064,1897.9896,4.97293465152,2
2025-04-01T10:46:09.650,1743497169650,11.825473700877,46.3768054925166,24.17064,1897.9896,4.97293465152,2
2025-04-01T10:46:09.750,1743497169750,11.8254720767465,46.3768096246697,24.17064,1897.9896,4.97293465152,2
2025-04-01T10:46:09.850,1743497169850,11.8254703480881,46.3768139566132,24.17064,1897.9896,4.97293465152,2
2025-04-01T10:46:09.950,1743497169950,11.825468486945,46.376818654428,24.17064,1897.9896,4.97293465152,2
2025-04-01T10:46:10.050,1743497170050,11.8254667412542,46.3768230317286,24.17064,1897.9896,4.97293465152,2
2025-04-01T10:46:10.150,1743497170150,11.8254650851447,46.3768274323244,24.17064,1897.9896,4.97293465152,2
2025-04-01T10:46:10.250,1743497170250,11.8254633509744,46.3768318030475,24.0792,1897.9896,4.97293465152,2
2025-04-01T10:46:10.350,1743497170350,11.8254618759637,46.3768357754231,24.0792,1897.9896,4.97293465152,2
2025-04-01T10:46:10.450,1743497170450,11.8254601731766,46.3768401087369,24.0792,1897.9896,4.97293465152,2
2025-04-01T10:46:10.550,1743497170550,11.8254582126202,46.3768448016186,24.0792,1897.9896,4.97293465152,2
2025-04-01T10:46:10.650,1743497170650,11.8254564595306,46.3768491743972,24.0792,1897.9896,4.97293465152,2
2025-04-01T10:46:10.750,1743497170750,11.8254547731303,46.376853638027,24.0792,1897.9896,4.97293465152,2
2025-04-01T10:46:10.850,1743497170850,11.8254529882602,46.3768580053243,24.0792,1897.9896,4.97293465152,2
2025-04-01T10:46:10.950,1743497170950,11.8254510649962,46.3768622780707,24.0792,1897.9896,5.000008288,2
2025-04-01T10:46:11.050,1743497171050,11.825449231363,46.376866618236,24.0792,1897.9896,5.000008288,2
2025-04-01T10:46:11.150,1743497171150,11.8254475449627,46.3768708637133,24.0792,1897.9896,5.000008288,2
2025-04-01T10:46:11.250,1743497171250,11.8254456842168,46.3768751944235,24.0792,1897.9896,5.000008288,2
2025-04-01T10:46:11.350,1743497171350,11.8254437349325,46.3768796713453,24.0792,1897.9896,5.000008288,2
2025-04-01T10:46:11.450,1743497171450,11.8254418347589,46.3768840216508,24.0792,1897.9896,5.000008288,2
2025-04-01T10:46:11.550,1743497171550,11.8254400035589,46.376888383467,24.0792,1897.9896,5.000008288,2
2025-04-01T10:46:11.650,1743497171650,11.825438100108,46.376892739939,24.0792,1897.9896,5.000008288,2
2025-04-01T10:46:11.750,1743497171750,11.8254360631295,46.376897110525,24.0792,1897.9896,5.000008288,2
2025-04-01T10:46:11.850,1743497171850,11.8254341502934,46.3769014683673,23.98776,1897.6848,5.000008288,2
2025-04-01T10:46:11.950,1743497171950,11.8254322381028,46.3769057961999,23.98776,1897.6848,5.000008288,2
2025-04-01T10:46:12.050,1743497172050,11.8254303365389,46.3769101356801,23.98776,1897.6848,5.000008288,2
2025-04-01T10:46:12.150,1743497172150,11.8254284778785,46.3769144280218,23.98776,1897.6848,5.000008288,2
2025-04-01T10:46:12.250,1743497172250,11.8254265998023,46.37691875421,23.98776,1897.6848,5.000008288,2
2025-04-01T10:46:12.350,1743497172350,11.8254247528114,46.3769230598437,23.98776,1897.6848,5.000008288,2
2025-04-01T10:46:12.450,1743497172450,11.8254228866528,46.3769273878133,23.98776,1897.6848,5.000008288,2
2025-04-01T10:46:12.550,1743497172550,11.8254210094208,46.3769317626473,23.98776,1897.6848,5.000008288,2
2025-04-01T10:46:12.640,1743497172640,11.825419158209,46.3769360984277,23.98776,1897.6848,5.000008288,2
2025-04-01T10:46:12.750,1743497172750,11.8254172502393,46.3769405098488,23.98776,1897.6848,5.000008288,2
2025-04-01T10:46:12.850,1743497172850,11.8254154247498,46.3769448497401,23.98776,1897.6848,5.000008288,2
2025-04-01T10:46:12.950,1743497172950,11.8254136931616,46.3769490758961,23.98776,1897.6848,4.97293465152,2
2025-04-01T10:46:13.050,1743497173050,11.8254116316525,46.3769537957728,23.98776,1897.6848,4.97293465152,2
2025-04-01T10:46:13.160,1743497173160,11.8254098386387,46.3769581659478,23.89632,1897.6848,4.97293465152,2
2025-04-01T10:46:13.260,1743497173260,11.8254080549604,46.3769625344784,23.89632,1897.6848,4.97293465152,2
2025-04-01T10:46:13.350,1743497173350,11.8254065832271,46.3769665249421,23.89632,1897.6848,4.97293465152,2
2025-04-01T10:46:13.460,1743497173460,11.8254048447863,46.3769708578448,23.89632,1897.6848,4.97293465152,2
2025-04-01T10:46:13.550,1743497173550,11.8254030755582,46.376975075916,23.89632,1897.6848,4.97293465152,2
2025-04-01T10:46:13.660,1743497173660,11.8254013444666,46.3769793951157,23.89632,1897.6848,4.97293465152,2
2025-04-01T10:46:13.760,1743497173760,11.8253994944962,46.3769837818714,23.89632,1897.6848,4.97293465152,2
2025-04-01T10:46:13.870,1743497173870,11.8253977575948,46.3769881013451,23.89632,1897.6848,4.97293465152,2
2025-04-01T10:46:13.970,1743497173970,11.8253961918112,46.3769924926228,23.89632,1897.6848,4.97293465152,2
2025-04-01T10:46:14.070,1743497174070,11.8253944703531,46.3769968101781,23.89632,1897.6848,4.8764821952,2
2025-04-01T10:46:14.170,1743497174170,11.8253926816594,46.3770011972078,23.89632,1897.6848,4.97293465152,2
2025-04-01T10:46:14.270,1743497174270,11.8253909544411,46.3770055195592,23.7744,1897.6848,4.8764821952,2
2025-04-01T10:46:14.350,1743497174350,11.825389319982,46.3770097455782,23.7744,1897.6848,4.8764821952,2
2025-04-01T10:46:14.480,1743497174480,11.8253875885428,46.3770140624483,23.7744,1897.6848,4.8764821952,2
2025-04-01T10:46:14.580,1743497174580,11.8253858871461,46.3770179889188,23.7744,1897.6848,4.97293465152,2
2025-04-01T10:46:14.680,1743497174680,11.8253841120088,46.3770222807123,23.7744,1897.6848,4.97293465152,2
2025-04-01T10:46:14.780,1743497174780,11.825382231847,46.3770269874341,23.7744,1897.6848,4.97293465152,2
2025-04-01T10:46:14.880,1743497174880,11.8253804020871,46.3770313251329,23.7744,1897.6848,5.000008288,2
2025-04-01T10:46:14.980,1743497174980,11.8253786697044,46.3770357780743,23.7744,1897.6848,5.000008288,2
2025-04-01T10:46:15.090,1743497175090,11.8253768271826,46.3770401260504,23.68296,1897.38,5.000008288,2
2025-04-01T10:46:15.150,1743497175150,11.8253748839068,46.3770443516582,23.68296,1897.38,5.000008288,2
2025-04-01T10:46:15.250,1743497175250,11.8253730199331,46.3770486826425,23.68296,1897.38,5.000008288,2
2025-04-01T10:46:15.350,1743497175350,11.8253712053186,46.3770530115714,23.68296,1897.38,5.000008288,2
2025-04-01T10:46:15.450,1743497175450,11.8253693189496,46.3770573299489,23.68296,1897.38,4.90408780928,2
2025-04-01T10:46:15.550,1743497175550,11.8253673661397,46.37706163339,23.68296,1897.38,4.90408780928,2
2025-04-01T10:46:15.650,1743497175650,11.8253652913723,46.377066426578,23.68296,1897.38,4.93356652096,2
2025-04-01T10:46:15.750,1743497175750,11.8253633035045,46.377070747011,23.68296,1897.38,4.93356652096,2
2025-04-01T10:46:15.850,1743497175850,11.8253612916028,46.3770750448339,23.68296,1897.38,4.93356652096,2
2025-04-01T10:46:15.950,1743497175950,11.8253595672646,46.3770787505482,23.68296,1897.38,4.83839617536,2
2025-04-01T10:46:16.050,1743497176050,11.8253575422037,46.377082966427,23.68296,1897.38,4.83839617536,2
2025-04-01T10:46:16.150,1743497176150,11.8253554396284,46.3770871935422,23.59152,1897.38,4.83839617536,2
2025-04-01T10:46:16.250,1743497176250,11.8253533659037,46.3770914175057,23.59152,1897.38,4.87032600736,2
2025-04-01T10:46:16.350,1743497176350,11.8253512362157,46.3770956306438,23.59152,1897.38,4.96488480224,2
2025-04-01T10:46:16.450,1743497176450,11.82534912356,46.3770998688585,23.59152,1897.38,4.96488480224,2
2025-04-01T10:46:16.550,1743497176550,11.8253471121051,46.3771038826173,23.59152,1897.38,4.96488480224,2
2025-04-01T10:46:16.650,1743497176650,11.8253449903622,46.3771081112398,23.59152,1897.38,4.96488480224,2
2025-04-01T10:46:16.750,1743497176750,11.8253427435333,46.3771126573619,23.59152,1897.38,4.96488480224,2
2025-04-01T10:46:16.850,1743497176850,11.8253406025235,46.3771169265455,23.59152,1897.38,4.96488480224,2
2025-04-01T10:46:16.950,1743497176950,11.8253384820219,46.3771213687985,23.4696,1897.38,4.96488480224,2
2025-04-01T10:46:17.050,1743497177050,11.8253363330173,46.377125641956,23.4696,1897.38,4.96488480224,2
2025-04-01T10:46:17.150,1743497177150,11.8253342437004,46.3771298038447,23.4696,1897.38,4.96488480224,2
2025-04-01T10:46:17.250,1743497177250,11.8253320752799,46.3771340441148,23.4696,1897.38,4.96488480224,2
2025-04-01T10:46:17.350,1743497177350,11.8253298172285,46.3771383227535,23.4696,1897.38,4.96488480224,2
2025-04-01T10:46:17.450,1743497177450,11.8253276052092,46.377142555898,23.37816,1897.0752,4.96488480224,2
2025-04-01T10:46:17.550,1743497177550,11.8253253522726,46.3771466955878,23.37816,1897.0752,4.998007784,2
2025-04-01T10:46:17.650,1743497177650,11.825323109317,46.3771509102333,23.37816,1897.0752,4.90408780928,2
2025-04-01T10:46:17.750,1743497177750,11.825321083412,46.3771551252898,23.37816,1897.0752,4.90408780928,2
2025-04-01T10:46:17.830,1743497177830,11.825318828787,46.3771593230805,23.37816,1897.0752,4.90408780928,2
2025-04-01T10:46:17.930,1743497177930,11.8253165125377,46.3771635449885,23.37816,1897.0752,4.90408780928,2
2025-04-01T10:46:18.050,1743497178050,11.8253142060212,46.3771677293502,23.37816,1897.0752,4.90408780928,2
2025-04-01T10:46:18.150,1743497178150,11.825311937095,46.3771719766089,23.28672,1897.0752,4.93964358272,2
2025-04-01T10:46:18.240,1743497178240,11.8253092442969,46.3771764259875,23.28672,1897.0752,4.93964358272,2
2025-04-01T10:46:18.350,1743497178350,11.8253068213844,46.3771806229561,23.28672,1897.0752,4.93964358272,2
2025-04-01T10:46:18.450,1743497178450,11.8253043708627,46.3771848077288,23.28672,1897.0752,4.93964358272,2
2025-04-01T10:46:18.550,1743497178550,11.8253021626173,46.377188544138,23.28672,1897.0752,4.84665613344,2
2025-04-01T10:46:18.640,1743497178640,11.8252997162668,46.3771926538182,23.28672,1897.0752,4.84665613344,2
2025-04-01T10:46:18.750,1743497178750,11.8252973190766,46.3771967985781,23.28672,1897.0752,4.84665613344,2
2025-04-01T10:46:18.850,1743497178850,11.8252948836506,46.3772008794818,23.19528,1897.0752,4.84665613344,2
2025-04-01T10:46:18.950,1743497178950,11.825292345087,46.3772048989959,23.19528,1897.0752,4.84665613344,2
2025-04-01T10:46:19.050,1743497179050,11.8252899007227,46.3772089468753,23.19528,1897.0752,4.84665613344,2
2025-04-01T10:46:19.150,1743497179150,11.8252874262167,46.3772129114401,23.19528,1897.0752,4.75395344864,2
2025-04-01T10:46:19.260,1743497179260,11.8252849631317,46.3772169354762,23.19528,1897.0752,4.75395344864,2
2025-04-01T10:46:19.360,1743497179360,11.825282613513,46.377221187805,23.07336,1896.7704,4.79271047552,2
2025-04-01T10:46:19.450,1743497179450,11.8252801220739,46.3772252497986,23.07336,1896.7704,4.88467777952,2
2025-04-01T10:46:19.560,1743497179560,11.8252775416495,46.377229257391,23.07336,1896.7704,4.88467777952,2
2025-04-01T10:46:19.660,1743497179660,11.8252750194728,46.3772333589864,23.07336,1896.7704,4.88467777952,2
2025-04-01T10:46:19.750,1743497179750,11.8252725026093,46.377237470859,23.07336,1896.7704,4.88467777952,2
2025-04-01T10:46:19.870,1743497179870,11.8252699922509,46.3772416060268,22.98192,1896.7704,4.88467777952,2
2025-04-01T10:46:19.970,1743497179970,11.8252674570144,46.37724568926,22.98192,1896.7704,4.88467777952,2
2025-04-01T10:46:20.050,1743497180050,11.8252649359301,46.3772498111358,22.98192,1896.7704,4.88467777952,2
2025-04-01T10:46:20.170,1743497180170,11.8252624607289,46.3772539225973,22.98192,1896.7704,4.88467777952,2
2025-04-01T10:46:20.270,1743497180270,11.8252599062751,46.3772580310442,22.98192,1896.7704,4.88467777952,2
2025-04-01T10:46:20.380,1743497180380,11.8252573674633,46.3772620575468,22.89048,1896.7704,4.88467777952,2
2025-04-01T10:46:20.480,1743497180480,11.825254778051,46.3772661511944,22.89048,1896.7704,4.92443662304,2
2025-04-01T10:46:20.580,1743497180580,11.8252522755881,46.3772698684193,22.89048,1896.7704,4.92443662304,2
2025-04-01T10:46:20.680,1743497180680,11.8252496654192,46.3772739395939,22.89048,1896.7704,4.92443662304,2
2025-04-01T10:46:20.750,1743497180750,11.8252470163689,46.3772780950422,22.89048,1896.7704,4.92443662304,2
2025-04-01T10:46:20.850,1743497180850,11.8252440584026,46.3772830160796,22.79904,1896.4656,4.92443662304,2
2025-04-01T10:46:20.950,1743497180950,11.825241359447,46.3772871790645,22.79904,1896.4656,4.92443662304,2
2025-04-01T10:46:21.050,1743497181050,11.8252386515532,46.3772913302649,22.79904,1896.4656,4.92443662304,2
2025-04-01T10:46:21.150,1743497181150,11.8252360943683,46.3772949488279,22.79904,1896.4656,4.92443662304,2
2025-04-01T10:46:21.250,1743497181250,11.8252333940224,46.3772990231541,22.67712,1896.4656,4.92443662304,2
2025-04-01T10:46:21.350,1743497181350,11.8252308799893,46.3773031277641,22.67712,1896.4656,4.92443662304,2
2025-04-01T10:46:21.450,1743497181450,11.8252281740818,46.3773071920872,22.67712,1896.4656,4.92443662304,2
2025-04-01T10:46:21.550,1743497181550,11.8252255137097,46.3773111477451,22.58568,1896.4656,4.92443662304,2
2025-04-01T10:46:21.650,1743497181650,11.8252227645013,46.3773152038463,22.58568,1896.4656,4.96589153632,2
2025-04-01T10:46:21.750,1743497181750,11.8252199014295,46.3773193037973,22.58568,1896.4656,4.96589153632,2
2025-04-01T10:46:21.850,1743497181850,11.8252171002799,46.377323357706,22.49424,1896.1608,4.96589153632,2
2025-04-01T10:46:21.950,1743497181950,11.8252143035001,46.377327511921,22.49424,1896.1608,4.96589153632,2
2025-04-01T10:46:22.050,1743497182050,11.8252114777207,46.3773315637743,22.49424,1896.1608,4.96589153632,2
2025-04-01T10:46:22.150,1743497182150,11.82520864633,46.3773355376572,22.37232,1896.1608,4.96589153632,2
2025-04-01T10:46:22.250,1743497182250,11.8252058075404,46.3773395803294,22.37232,1896.1608,4.96589153632,2
2025-04-01T10:46:22.350,1743497182350,11.8252031792964,46.3773432539787,22.37232,1896.1608,4.87545668544,2
2025-04-01T10:46:22.450,1743497182450,11.8252003506865,46.3773472680116,22.37232,1896.1608,4.96589153632,2
2025-04-01T10:46:22.550,1743497182550,11.8251975399034,46.377351527466,22.28088,1896.1608,4.96589153632,2
2025-04-01T10:46:22.650,1743497182650,11.8251947025539,46.3773555676716,22.28088,1896.1608,4.96589153632,2
2025-04-01T10:46:22.750,1743497182750,11.8251916893194,46.3773599884109,22.28088,1896.1608,4.91935735456,2
2025-04-01T10:46:22.850,1743497182850,11.825188829376,46.377364053145,22.28088,1896.1608,4.91935735456,2
2025-04-01T10:46:22.950,1743497182950,11.8251859406811,46.3773680740294,22.18944,1895.856,4.87545668544,2
2025-04-01T10:46:23.050,1743497183050,11.8251830885338,46.3773721128648,22.18944,1895.856,4.87545668544,2
2025-04-01T10:46:23.150,1743497183150,11.8251802466655,46.3773760824998,22.18944,1895.856,4.87545668544,2
2025-04-01T10:46:23.250,1743497183250,11.8251773900491,46.3773801044804,22.18944,1895.856,4.91935735456,2
2025-04-01T10:46:23.350,1743497183350,11.8251745476345,46.3773840952181,22.098,1895.856,4.91935735456,2
2025-04-01T10:46:23.450,1743497183450,11.8251714376186,46.3773886157155,22.098,1895.856,4.91935735456,2
2025-04-01T10:46:23.550,1743497183550,11.825168518931,46.377392700182,22.098,1895.856,4.91935735456,2
2025-04-01T10:46:23.650,1743497183650,11.8251656009385,46.3773967934185,21.97608,1895.856,4.91935735456,2
2025-04-01T10:46:23.750,1743497183750,11.8251628413021,46.377400346892,21.97608,1895.856,4.91935735456,2
2025-04-01T10:46:23.850,1743497183850,11.8251599634325,46.377404388194,21.97608,1895.856,4.91935735456,2
2025-04-01T10:46:23.940,1743497183940,11.8251572410885,46.377408479238,21.97608,1895.856,4.91935735456,2
2025-04-01T10:46:24.050,1743497184050,11.8251543848197,46.3774125161549,21.88464,1895.5512,4.91935735456,2
2025-04-01T10:46:24.150,1743497184150,11.8251514845548,46.3774165167588,21.88464,1895.5512,4.91935735456,2
2025-04-01T10:46:24.250,1743497184250,11.8251485943702,46.3774205403838,21.88464,1895.5512,4.91935735456,2
2025-04-01T10:46:24.350,1743497184350,11.8251455818309,46.3774245586646,21.88464,1895.5512,4.91935735456,2
2025-04-01T10:46:24.450,1743497184450,11.8251426582769,46.3774285724234,21.7932,1895.5512,4.91935735456,2
2025-04-01T10:46:24.550,1743497184550,11.8251402670456,46.3774319916071,21.7932,1895.5512,4.91935735456,2
2025-04-01T10:46:24.660,1743497184660,11.8251373885304,46.3774359564461,21.7932,1895.5512,4.91935735456,2
2025-04-01T10:46:24.750,1743497184750,11.8251339140323,46.3774408292488,21.7932,1895.5512,5.00900005056,2
2025-04-01T10:46:24.850,1743497184850,11.8251309869526,46.3774448906942,21.67128,1895.5512,5.00900005056,2
2025-04-01T10:46:24.970,1743497184970,11.8251281292438,46.377448832512,21.67128,1895.5512,5.00900005056,2
2025-04-01T10:46:25.070,1743497185070,11.8251252295747,46.3774528755953,21.67128,1895.5512,4.91935735456,2
2025-04-01T10:46:25.170,1743497185170,11.8251222472268,46.3774569663652,21.57984,1895.2464,4.91935735456,2
2025-04-01T10:46:25.280,1743497185280,11.825119360121,46.3774610019119,21.57984,1895.2464,4.91935735456,2
2025-04-01T10:46:25.380,1743497185380,11.8251164112916,46.3774650362252,21.57984,1895.2464,4.91935735456,2
2025-04-01T10:46:25.480,1743497185480,11.8251135173331,46.3774690625909,21.4884,1895.2464,4.91935735456,2
2025-04-01T10:46:25.580,1743497185580,11.825110672684,46.3774731238992,21.4884,1895.2464,4.91935735456,2
2025-04-01T10:46:25.680,1743497185680,11.825107773015,46.3774771535536,21.4884,1895.2464,4.91935735456,2
2025-04-01T10:46:25.780,1743497185780,11.8251048485175,46.3774810876977,21.39696,1895.2464,4.91935735456,2
2025-04-01T10:46:25.880,1743497185880,11.8251019400095,46.3774851110486,21.39696,1895.2464,4.91935735456,2
2025-04-01T10:46:25.990,1743497185990,11.8250990055806,46.3774892359391,21.39696,1895.2464,4.91935735456,2
2025-04-01T10:46:26.050,1743497186050,11.8250958798731,46.3774936291353,21.39696,1895.2464,4.91935735456,2
2025-04-01T10:46:26.150,1743497186150,11.8250929568653,46.3774977085317,21.27504,1894.9416,4.91935735456,2
2025-04-01T10:46:26.250,1743497186250,11.825090044782,46.3775017891613,21.27504,1894.9416,4.91935735456,2
2025-04-01T10:46:26.350,1743497186350,11.8250874688764,46.3775053170102,21.27504,1894.9416,4.91935735456,2
2025-04-01T10:46:26.450,1743497186450,11.825084601981,46.3775093458423,21.27504,1894.9416,4.91935735456,2
2025-04-01T10:46:26.550,1743497186550,11.8250819846615,46.3775131100687,21.1836,1894.9416,4.91935735456,2
2025-04-01T10:46:26.650,1743497186650,11.8250791320673,46.3775171227313,21.1836,1894.9416,4.91935735456,2
2025-04-01T10:46:26.750,1743497186750,11.8250759212477,46.3775215738912,21.1836,1894.9416,5.00900005056,2
2025-04-01T10:46:26.850,1743497186850,11.8250730059864,46.3775256264297,21.09216,1894.9416,5.00900005056,2
2025-04-01T10:46:26.950,1743497186950,11.825069978401,46.3775296941785,21.09216,1894.9416,4.91935735456,2
2025-04-01T10:46:27.050,1743497187050,11.8250670433762,46.3775337458947,21.09216,1894.9416,4.91935735456,2
2025-04-01T10:46:27.150,1743497187150,11.8250642419286,46.3775377677383,21.09216,1894.9416,4.91935735456,2
2025-04-01T10:46:27.250,1743497187250,11.825061367386,46.3775417975297,20.97024,1894.6368,4.87545668544,2
2025-04-01T10:46:27.350,1743497187350,11.8250585689179,46.3775457971744,20.97024,1894.6368,4.87545668544,2
2025-04-01T10:46:27.450,1743497187450,11.8250557571417,46.3775498183328,20.97024,1894.6368,4.87545668544,2
2025-04-01T10:46:27.550,1743497187550,11.8250528682979,46.3775540231121,20.8788,1894.6368,4.87545668544,2
2025-04-01T10:46:27.650,1743497187650,11.8250500595011,46.3775580574254,20.8788,1894.6368,4.87545668544,2
2025-04-01T10:46:27.750,1743497187750,11.8250473365116,46.3775619504604,20.8788,1894.6368,4.87545668544,2
2025-04-01T10:46:27.850,1743497187850,11.82504452841,46.3775659614786,20.8788,1894.6368,4.87545668544,2
2025-04-01T10:46:27.950,1743497187950,11.8250417674826,46.3775700701995,20.78736,1894.6368,4.87545668544,2
2025-04-01T10:46:28.050,1743497188050,11.8250389531242,46.3775740787512,20.78736,1894.6368,4.87545668544,2
2025-04-01T10:46:28.150,1743497188150,11.8250359750965,46.3775781656843,20.78736,1894.6368,4.87545668544,2
2025-04-01T10:46:28.250,1743497188250,11.8250331395843,46.3775821662881,20.78736,1894.6368,4.87545668544,2
2025-04-01T10:46:28.350,1743497188350,11.8250305123334,46.3775860717929,20.69592,1894.332,4.87545668544,2
2025-04-01T10:46:28.450,1743497188450,11.82502768278,46.3775900577345,20.69592,1894.332,4.87545668544,2
2025-04-01T10:46:28.550,1743497188550,11.8250249484687,46.3775936864378,20.69592,1894.332,4.87545668544,2
2025-04-01T10:46:28.650,1743497188650,11.8250215739797,46.3775983351957,20.69592,1894.332,4.87545668544,2
2025-04-01T10:46:28.750,1743497188750,11.8250186866256,46.3776023590947,20.574,1894.332,4.91935735456,2
2025-04-01T10:46:28.850,1743497188850,11.8250157960935,46.3776063827197,20.574,1894.332,4.87545668544,2
2025-04-01T10:46:28.950,1743497188950,11.8250133514809,46.3776100152599,20.574,1894.332,4.87545668544,2
2025-04-01T10:46:29.050,1743497189050,11.8250105119961,46.3776139903761,20.48256,1894.332,4.87545668544,2
2025-04-01T10:46:29.150,1743497189150,11.8250076735045,46.3776181545943,20.48256,1894.332,4.87545668544,2
2025-04-01T10:46:29.250,1743497189250,11.8250048554715,46.3776221490318,20.48256,1894.332,4.87545668544,2
2025-04-01T10:46:29.350,1743497189350,11.8250022233542,46.3776259656038,20.48256,1894.332,4.87545668544,2
2025-04-01T10:46:29.450,1743497189450,11.8249994224032,46.3776299605895,20.39112,1894.332,4.87545668544,2
2025-04-01T10:46:29.550,1743497189550,11.8249965483572,46.3776340546481,20.39112,1894.332,4.87545668544,2
2025-04-01T10:46:29.650,1743497189650,11.8249937383687,46.377638068955,20.39112,1894.332,4.87545668544,2
2025-04-01T10:46:29.750,1743497189750,11.8249908040391,46.3776419854222,20.39112,1894.332,4.87545668544,2
2025-04-01T10:46:29.850,1743497189850,11.8249879738898,46.3776459894519,20.29968,1894.0272,4.87545668544,2
2025-04-01T10:46:29.950,1743497189950,11.8249851764148,46.3776499986887,20.29968,1894.0272,4.87545668544,2
2025-04-01T10:46:30.050,1743497190050,11.8249823227282,46.3776539844933,20.29968,1894.0272,4.87545668544,2
2025-04-01T10:46:30.160,1743497190160,11.824979505589,46.377658074167,20.29968,1894.0272,4.87545668544,2
2025-04-01T10:46:30.260,1743497190260,11.8249766573646,46.3776620521608,20.17776,1894.0272,4.87545668544,2
2025-04-01T10:46:30.360,1743497190360,11.8249739018001,46.3776659721908,20.17776,1894.0272,4.87545668544,2
2025-04-01T10:46:30.460,1743497190460,11.8249711075032,46.3776699507328,20.17776,1894.0272,4.87545668544,2
2025-04-01T10:46:30.560,1743497190560,11.8249683341615,46.3776739992973,20.17776,1894.0272,4.87545668544,2
2025-04-01T10:46:30.650,1743497190650,11.8249655813777,46.3776780022307,20.08632,1894.0272,4.87545668544,2
2025-04-01T10:46:30.760,1743497190760,11.8249628299844,46.377681972825,20.08632,1894.0272,4.87545668544,2
2025-04-01T10:46:30.870,1743497190870,11.8249600820671,46.3776859891874,20.08632,1894.0272,4.87545668544,2
2025-04-01T10:46:30.970,1743497190970,11.8249573259067,46.3776901050338,20.08632,1894.0272,4.87545668544,2
2025-04-01T10:46:31.070,1743497191070,11.8249545812667,46.3776941455136,19.99488,1893.7224,4.87545668544,2
2025-04-01T10:46:31.170,1743497191170,11.8249518528149,46.3776981654388,19.99488,1893.7224,4.87545668544,2
2025-04-01T10:46:31.270,1743497191270,11.8249488752838,46.3777024188638,19.99488,1893.7224,4.87545668544,2
2025-04-01T10:46:31.380,1743497191380,11.82494609211,46.3777064982602,19.99488,1893.7224,4.87545668544,2
2025-04-01T10:46:31.480,1743497191480,11.824943301587,46.377710583686,19.87296,1893.7224,4.96589153632,2
2025-04-01T10:46:31.580,1743497191580,11.824940748325,46.3777144321861,19.87296,1893.7224,4.96589153632,2
2025-04-01T10:46:31.680,1743497191680,11.8249379730963,46.3777184974683,19.87296,1893.7224,4.96589153632,2
2025-04-01T10:46:31.780,1743497191780,11.8249353454482,46.3777225263005,19.78152,1893.7224,4.96589153632,2
2025-04-01T10:46:31.880,1743497191880,11.824932560884,46.377726583635,19.78152,1893.7224,4.96589153632,2
2025-04-01T10:46:31.990,1743497191990,11.8249296590301,46.3777306175372,19.78152,1893.7224,4.87545668544,2
2025-04-01T10:46:32.050,1743497192050,11.8249268904554,46.3777346667869,19.78152,1893.7224,4.87545668544,2
2025-04-01T10:46:32.150,1743497192150,11.8249242424479,46.3777387250806,19.69008,1893.4176,4.87545668544,2
2025-04-01T10:46:32.250,1743497192250,11.8249215113146,46.3777427709046,19.69008,1893.4176,4.87545668544,2
2025-04-01T10:46:32.350,1743497192350,11.8249187453222,46.3777468515343,19.69008,1893.4176,4.87545668544,2
2025-04-01T10:46:32.450,1743497192450,11.8249159701928,46.3777508896845,19.69008,1893.4176,4.87545668544,2
2025-04-01T10:46:32.550,1743497192550,11.8249134313314,46.3777546130758,19.59864,1893.4176,4.87545668544,2
2025-04-01T10:46:32.650,1743497192650,11.8249105992952,46.3777586247791,19.59864,1893.4176,4.91935735456,2
2025-04-01T10:46:32.750,1743497192750,11.8249073780476,46.3777631940594,19.59864,1893.4176,4.91935735456,2
2025-04-01T10:46:32.850,1743497192850,11.8249044231601,46.3777672512568,19.47672,1893.4176,4.91935735456,2
2025-04-01T10:46:32.950,1743497192950,11.8249014959811,46.3777712155476,19.47672,1893.4176,4.96488480224,2
2025-04-01T10:46:33.050,1743497193050,11.8248984682964,46.3777752205365,19.47672,1893.4176,4.96488480224,2
2025-04-01T10:46:33.150,1743497193150,11.8248953904582,46.3777791187786,19.47672,1893.4176,4.8764821952,2
2025-04-01T10:46:33.250,1743497193250,11.8248922956373,46.3777830744365,19.38528,1893.1128,4.8764821952,2
2025-04-01T10:46:33.350,1743497193350,11.8248891337795,46.3777872867524,19.38528,1893.1128,4.92443662304,2
2025-04-01T10:46:33.450,1743497193450,11.8248859830448,46.3777912328182,19.38528,1893.1128,4.92443662304,2
2025-04-01T10:46:33.550,1743497193550,11.824882884152,46.3777950317133,19.29384,1893.1128,4.92443662304,2
2025-04-01T10:46:33.650,1743497193650,11.8248796947843,46.3777989468102,19.29384,1893.1128,4.92443662304,2
2025-04-01T10:46:33.750,1743497193750,11.8248766079085,46.3778029228856,19.29384,1893.1128,4.92443662304,2
2025-04-01T10:46:33.850,1743497193850,11.8248730930889,46.3778071295148,19.29384,1893.1128,4.92443662304,2
2025-04-01T10:46:33.950,1743497193950,11.8248698119551,46.3778110550945,19.17192,1893.1128,4.97394004448,2
2025-04-01T10:46:34.050,1743497194050,11.8248665053968,46.3778149658749,19.17192,1893.1128,4.8877476032,2
2025-04-01T10:46:34.150,1743497194150,11.8248634400722,46.3778183518972,19.17192,1893.1128,4.8877476032,2
2025-04-01T10:46:34.250,1743497194250,11.8248601264627,46.3778221827889,19.08048,1892.808,4.8877476032,2
2025-04-01T10:46:34.350,1743497194350,11.8248568858489,46.3778261128221,19.08048,1892.808,4.8877476032,2
2025-04-01T10:46:34.450,1743497194450,11.8248535508869,46.377829924598,19.08048,1892.808,4.8877476032,2
2025-04-01T10:46:34.540,1743497194540,11.824850532637,46.3778334084601,18.98904,1892.808,4.8877476032,2
2025-04-01T10:46:34.650,1743497194650,11.8248471871477,46.3778371744679,18.98904,1892.808,4.93964358272,2
2025-04-01T10:46:34.750,1743497194750,11.8248433135069,46.3778413101153,18.98904,1892.808,4.93964358272,2
2025-04-01T10:46:34.850,1743497194850,11.824839886183,46.3778451064753,18.98904,1892.808,4.93964358272,2
2025-04-01T10:46:34.950,1743497194950,11.8248364209211,46.377848978202,18.8976,1892.808,4.93964358272,2
2025-04-01T10:46:35.050,1743497195050,11.8248329797925,46.377852767505,18.8976,1892.808,4.93964358272,2
2025-04-01T10:46:35.150,1743497195150,11.8248296574433,46.3778565127526,18.8976,1892.808,4.85490223328,2
2025-04-01T10:46:35.250,1743497195250,11.8248262165133,46.3778602782122,18.77568,1892.5032,4.85490223328,2
2025-04-01T10:46:35.350,1743497195350,11.8248226465746,46.3778641740564,18.77568,1892.5032,4.85490223328,2
2025-04-01T10:46:35.450,1743497195450,11.8248191525116,46.3778679377346,18.77568,1892.5032,4.85490223328,2
2025-04-01T10:46:35.550,1743497195550,11.8248157462422,46.3778714939487,18.77568,1892.5032,4.9091831712,2
2025-04-01T10:46:35.660,1743497195660,11.8248122078853,46.3778752258359,18.68424,1892.5032,4.9091831712,2
2025-04-01T10:46:35.750,1743497195750,11.8248086079537,46.3778790271975,18.68424,1892.5032,4.9091831712,2
2025-04-01T10:46:35.850,1743497195850,11.8248050208336,46.3778827584681,18.68424,1892.5032,4.9091831712,2
2025-04-01T10:46:35.950,1743497195950,11.8248013683649,46.3778866042276,18.68424,1892.5032,4.9091831712,2
2025-04-01T10:46:36.060,1743497196060,11.8247977410227,46.3778903332371,18.5928,1892.5032,4.9091831712,2
2025-04-01T10:46:36.160,1743497196160,11.8247940686912,46.3778940231244,18.5928,1892.5032,4.9091831712,2
2025-04-01T10:46:36.250,1743497196250,11.8247904127466,46.3778977212336,18.5928,1892.5032,4.88263033632,2
2025-04-01T10:46:36.350,1743497196350,11.8247868775677,46.37790140886,18.47088,1892.1984,4.88263033632,2
2025-04-01T10:46:36.470,1743497196470,11.8247829864476,46.3779052437255,18.47088,1892.1984,4.88263033632,2
2025-04-01T10:46:36.570,1743497196570,11.8247792839247,46.3779089229245,18.47088,1892.1984,4.88263033632,2
2025-04-01T10:46:36.670,1743497196670,11.8247755732581,46.3779125980811,18.47088,1892.1984,4.88263033632,2
2025-04-01T10:46:36.750,1743497196750,11.8247721930089,46.3779160413821,18.37944,1892.1984,4.88263033632,2
2025-04-01T10:46:36.870,1743497196870,11.8247685065749,46.3779196989303,18.37944,1892.1984,4.88263033632,2
2025-04-01T10:46:36.950,1743497196950,11.8247646799096,46.3779232549389,18.37944,1892.1984,4.88263033632,2
2025-04-01T10:46:37.080,1743497197080,11.8247609425275,46.3779269064577,18.288,1892.1984,4.88263033632,2
2025-04-01T10:46:37.180,1743497197180,11.8247573015792,46.3779305224171,18.288,1892.1984,4.94065568128,2
2025-04-01T10:46:37.280,1743497197280,11.8247535149374,46.3779341702361,18.288,1892.1984,4.94065568128,2
2025-04-01T10:46:37.380,1743497197380,11.824749661656,46.3779379537838,18.19656,1891.8936,4.94065568128,2
2025-04-01T10:46:37.480,1743497197480,11.8247458359838,46.3779415976289,18.19656,1891.8936,4.94065568128,2
2025-04-01T10:46:37.590,1743497197590,11.8247421060503,46.3779451827565,18.19656,1891.8936,4.94065568128,2
2025-04-01T10:46:37.650,1743497197650,11.8247382764056,46.3779488141318,18.07464,1891.8936,4.94065568128,2
2025-04-01T10:46:37.750,1743497197750,11.824734367409,46.3779524015204,18.07464,1891.8936,4.94065568128,2
2025-04-01T10:46:37.850,1743497197850,11.8247304968469,46.3779560217278,18.07464,1891.8936,4.94065568128,2
2025-04-01T10:46:37.950,1743497197950,11.8247264949918,46.3779598010275,18.07464,1891.8936,5.000008288,2
2025-04-01T10:46:38.050,1743497198050,11.8247225632524,46.3779634110946,17.9832,1891.8936,4.92037392352,2
2025-04-01T10:46:38.150,1743497198150,11.8247187493986,46.3779668136976,17.9832,1891.8936,4.92037392352,2
2025-04-01T10:46:38.250,1743497198250,11.8247148041524,46.3779703770373,17.9832,1891.8936,4.92037392352,2
2025-04-01T10:46:38.350,1743497198350,11.8247107488664,46.3779739958744,17.89176,1891.5888,4.92037392352,2
2025-04-01T10:46:38.450,1743497198450,11.8247067775007,46.3779775730542,17.89176,1891.5888,4.92037392352,2
2025-04-01T10:46:38.550,1743497198550,11.8247031911751,46.3779808373935,17.89176,1891.5888,4.92037392352,2
2025-04-01T10:46:38.650,1743497198650,11.8246992030253,46.3779843801787,17.76984,1891.5888,4.92037392352,2
2025-04-01T10:46:38.750,1743497198750,11.8246947561445,46.3779883082249,17.76984,1891.5888,4.98197558848,2
2025-04-01T10:46:38.850,1743497198850,11.8246906513008,46.3779918489546,17.76984,1891.5888,4.98197558848,2
2025-04-01T10:46:38.950,1743497198950,11.8246865553954,46.377995478206,17.76984,1891.5888,4.90408780928,2
2025-04-01T10:46:39.050,1743497199050,11.8246819646087,46.3779991978289,17.6784,1891.5888,4.96790500448,2
2025-04-01T10:46:39.150,1743497199150,11.8246777037429,46.3780026710026,17.6784,1891.5888,4.96790500448,2
2025-04-01T10:46:39.250,1743497199250,11.8246734248019,46.378006115811,17.6784,1891.5888,4.8918380192,2
2025-04-01T10:46:39.350,1743497199350,11.8246697515766,46.3780091199295,17.58696,1891.284,4.8918380192,2
2025-04-01T10:46:39.450,1743497199450,11.8246655367924,46.3780125139681,17.58696,1891.284,4.8918380192,2
2025-04-01T10:46:39.550,1743497199550,11.8246612523892,46.3780159804273,17.58696,1891.284,4.8918380192,2
2025-04-01T10:46:39.650,1743497199650,11.8246570470398,46.378019401598,17.49552,1891.284,4.96790500448,2
2025-04-01T10:46:39.750,1743497199750,11.8246527880609,46.3780229384223,17.49552,1891.284,4.96790500448,2
2025-04-01T10:46:39.850,1743497199850,11.8246485764548,46.3780263769273,17.49552,1891.284,4.96790500448,2
2025-04-01T10:46:39.950,1743497199950,11.8246444372485,46.3780297814488,17.3736,1891.284,4.96790500448,2
2025-04-01T10:46:40.050,1743497200050,11.8246402140226,46.3780332171446,17.3736,1891.284,4.96790500448,2
2025-04-01T10:46:40.150,1743497200150,11.8246360006289,46.3780367140246,17.3736,1891.284,4.96790500448,2
2025-04-01T10:46:40.250,1743497200250,11.8246317694579,46.3780401443763,17.3736,1891.284,4.96790500448,2
2025-04-01T10:46:40.350,1743497200350,11.8246273837544,46.3780435656839,17.28216,1890.9792,4.8918380192,2
2025-04-01T10:46:40.450,1743497200450,11.8246231302378,46.3780469745218,17.28216,1890.9792,4.8918380192,2
2025-04-01T10:46:40.550,1743497200550,11.8246193105245,46.378050080591,17.28216,1890.9792,4.8918380192,2
2025-04-01T10:46:40.650,1743497200650,11.8246150587955,46.378053426943,17.19072,1890.9792,4.957830064,2
2025-04-01T10:46:40.750,1743497200750,11.8246106523354,46.3780568431805,17.19072,1890.9792,4.957830064,2
2025-04-01T10:46:40.840,1743497200840,11.824606354922,46.3780601568508,17.19072,1890.9792,4.88365405792,2
2025-04-01T10:46:40.950,1743497200950,11.8246016408867,46.3780637240274,17.09928,1890.9792,4.88365405792,2
2025-04-01T10:46:41.050,1743497201050,11.8245973275831,46.3780670464676,17.09928,1890.9792,4.88365405792,2
2025-04-01T10:46:41.150,1743497201150,11.8245930224232,46.3780704586627,17.09928,1890.9792,4.81664544416,2
2025-04-01T10:46:41.250,1743497201250,11.8245887760572,46.3780738165938,16.97736,1890.6744,4.8918380192,2
2025-04-01T10:46:41.350,1743497201350,11.8245846591966,46.3780771018303,16.97736,1890.6744,4.8918380192,2
2025-04-01T10:46:41.450,1743497201450,11.8245804706312,46.3780804838102,16.97736,1890.6744,4.8918380192,2
2025-04-01T10:46:41.550,1743497201550,11.8245761599098,46.3780838588016,16.88592,1890.6744,4.8918380192,2
2025-04-01T10:46:41.650,1743497201650,11.8245718230688,46.3780874997691,16.88592,1890.6744,4.827014984,2
2025-04-01T10:46:41.750,1743497201750,11.8245676496985,46.3780909005907,16.88592,1890.6744,4.827014984,2
2025-04-01T10:46:41.860,1743497201860,11.8245634849686,46.3780943102508,16.88592,1890.6744,4.827014984,2
2025-04-01T10:46:41.950,1743497201950,11.8245597100458,46.3780972836059,16.79448,1890.6744,4.827014984,2
2025-04-01T10:46:42.060,1743497202060,11.8245555671649,46.3781006622971,16.79448,1890.6744,4.827014984,2
2025-04-01T10:46:42.160,1743497202160,11.8245514316333,46.3781041513663,16.79448,1890.6744,4.8918380192,2
2025-04-01T10:46:42.270,1743497202270,11.8245472585609,46.3781075287558,16.67256,1890.3696,4.8918380192,2
2025-04-01T10:46:42.370,1743497202370,11.8245430060375,46.3781109263572,16.67256,1890.3696,4.8918380192,2
2025-04-01T10:46:42.470,1743497202470,11.8245387856917,46.3781142962784,16.67256,1890.3696,4.8918380192,2
2025-04-01T10:46:42.570,1743497202570,11.8245348755034,46.3781173880964,16.58112,1890.3696,4.8918380192,2
2025-04-01T10:46:42.680,1743497202680,11.8245306631027,46.3781207277339,16.58112,1890.3696,4.8918380192,2
2025-04-01T10:46:42.780,1743497202780,11.8245261254489,46.3781242784668,16.58112,1890.3696,4.8918380192,2
2025-04-01T10:46:42.880,1743497202880,11.8245219013292,46.3781276337259,16.48968,1890.3696,4.8918380192,2
2025-04-01T10:46:42.980,1743497202980,11.8245177460341,46.3781312524944,16.48968,1890.3696,4.8918380192,2
2025-04-01T10:46:43.080,1743497203080,11.8245135586606,46.3781346339947,16.48968,1890.3696,4.8918380192,2
2025-04-01T10:46:43.180,1743497203180,11.8245094813269,46.3781379246439,16.39824,1890.0648,4.8918380192,2
2025-04-01T10:46:43.280,1743497203280,11.8245052879945,46.3781412837397,16.39824,1890.0648,4.8918380192,2
2025-04-01T10:46:43.350,1743497203350,11.8245011118434,46.3781447301925,16.39824,1890.0648,4.8918380192,2
2025-04-01T10:46:43.450,1743497203450,11.8244968786862,46.378148090316,16.27632,1890.0648,4.8918380192,2
2025-04-01T10:46:43.550,1743497203550,11.8244923947612,46.3781515099108,16.27632,1890.0648,4.8918380192,2
2025-04-01T10:46:43.650,1743497203650,11.8244881151251,46.3781548897668,16.27632,1890.0648,4.8918380192,2
2025-04-01T10:46:43.750,1743497203750,11.8244838698515,46.3781582195382,16.18488,1890.0648,4.8918380192,2
2025-04-01T10:46:43.850,1743497203850,11.8244796083898,46.3781616130972,16.18488,1890.0648,4.8918380192,2
2025-04-01T10:46:43.950,1743497203950,11.8244753591436,46.3781649878145,16.18488,1890.0648,4.8918380192,2
2025-04-01T10:46:44.050,1743497204050,11.8244711281713,46.3781684033669,16.09344,1889.76,4.8918380192,2
2025-04-01T10:46:44.150,1743497204150,11.8244669795302,46.3781718664688,16.09344,1889.76,4.8918380192,2
2025-04-01T10:46:44.250,1743497204250,11.8244624478352,46.3781755088066,16.09344,1889.76,4.8918380192,2
2025-04-01T10:46:44.350,1743497204350,11.8244581979932,46.3781789315531,15.97152,1889.76,4.8918380192,2
2025-04-01T10:46:44.450,1743497204450,11.8244539580826,46.3781823409391,15.97152,1889.76,4.8918380192,2
2025-04-01T10:46:44.550,1743497204550,11.8244504362118,46.3781850483867,15.97152,1889.76,4.8918380192,2
2025-04-01T10:46:44.650,1743497204650,11.8244462886631,46.3781883883668,15.88008,1889.76,4.8918380192,2
2025-04-01T10:46:44.750,1743497204750,11.8244416493119,46.3781922611213,15.88008,1889.76,4.827014984,2
2025-04-01T10:46:44.850,1743497204850,11.8244375089138,46.3781956744812,15.88008,1889.76,4.827014984,2
2025-04-01T10:46:44.950,1743497204950,11.8244334633606,46.3781991582062,15.88008,1889.76,4.827014984,2
2025-04-01T10:46:45.050,1743497205050,11.8244293801674,46.3782025912985,15.78864,1889.4552,4.827014984,2
2025-04-01T10:46:45.150,1743497205150,11.8244252477144,46.378205921618,15.78864,1889.4552,4.827014984,2
2025-04-01T10:46:45.250,1743497205250,11.8244211506173,46.3782093228507,15.78864,1889.4552,4.827014984,2
2025-04-01T10:46:45.350,1743497205350,11.8244169983016,46.3782127379235,15.78864,1889.4552,4.827014984,2
2025-04-01T10:46:45.450,1743497205450,11.8244128642596,46.378216129427,15.6972,1889.4552,4.827014984,2
2025-04-01T10:46:45.550,1743497205550,11.8244087036015,46.3782194228168,15.6972,1889.4552,4.827014984,2
2025-04-01T10:46:45.650,1743497205650,11.8244045525769,46.3782227983563,15.6972,1889.4552,4.827014984,2
2025-04-01T10:46:45.750,1743497205750,11.8244004077097,46.3782261451194,15.57528,1889.4552,4.827014984,2
2025-04-01T10:46:45.850,1743497205850,11.8243962509249,46.3782295168906,15.57528,1889.4552,4.827014984,2
2025-04-01T10:46:45.950,1743497205950,11.8243921954402,46.3782329285376,15.57528,1889.4552,4.827014984,2
2025-04-01T10:46:46.050,1743497206050,11.8243880349808,46.3782363047623,15.57528,1889.4552,4.8918380192,2
2025-04-01T10:46:46.130,1743497206130,11.8243838390663,46.3782397292216,15.48384,1889.1504,4.8918380192,2
2025-04-01T10:46:46.230,1743497206230,11.8243796584461,46.3782430954431,15.48384,1889.1504,4.8918380192,2
2025-04-01T10:46:46.350,1743497206350,11.8243754650144,46.3782465108584,15.48384,1889.1504,4.8918380192,2
2025-04-01T10:46:46.450,1743497206450,11.824371251124,46.3782498873572,15.3924,1889.1504,4.8918380192,2
2025-04-01T10:46:46.550,1743497206550,11.8243672368547,46.3782528871592,15.3924,1889.1504,4.8918380192,2
2025-04-01T10:46:46.650,1743497206650,11.8243630029029,46.3782562509826,15.3924,1889.1504,4.8918380192,2
2025-04-01T10:46:46.750,1743497206750,11.8243584628656,46.3782599429939,15.27048,1889.1504,4.8918380192,2
2025-04-01T10:46:46.840,1743497206840,11.8243539160749,46.3782635792338,15.27048,1889.1504,4.8918380192,2
2025-04-01T10:46:46.950,1743497206950,11.8243496019768,46.3782669958825,15.27048,1889.1504,4.8918380192,2
2025-04-01T10:46:47.050,1743497207050,11.8243452871835,46.378270412257,15.17904,1888.8456,4.8918380192,2
2025-04-01T10:46:47.150,1743497207150,11.8243414145358,46.3782733804735,15.17904,1888.8456,4.8918380192,2
2025-04-01T10:46:47.250,1743497207250,11.8243371340058,46.378276764646,15.17904,1888.8456,4.8918380192,2
2025-04-01T10:46:47.350,1743497207350,11.8243327626035,46.3782801795132,15.0876,1888.8456,4.8918380192,2
2025-04-01T10:46:47.450,1743497207450,11.8243284763133,46.3782835839661,15.0876,1888.8456,4.8918380192,2
2025-04-01T10:46:47.560,1743497207560,11.8243241538728,46.3782868859888,15.0876,1888.8456,4.96790500448,2
2025-04-01T10:46:47.660,1743497207660,11.8243198928084,46.3782903159294,15.0876,1888.8456,4.96790500448,2
2025-04-01T10:46:47.750,1743497207750,11.8243157837935,46.3782938395303,14.99616,1888.8456,4.96790500448,2
2025-04-01T10:46:47.860,1743497207860,11.8243115569924,46.3782972877645,14.99616,1888.8456,4.96790500448,2
2025-04-01T10:46:47.950,1743497207950,11.8243072565002,46.3783009001611,14.87424,1888.5408,4.96790500448,2
2025-04-01T10:46:48.060,1743497208060,11.8243030177814,46.3783043569597,14.87424,1888.5408,4.96790500448,2
2025-04-01T10:46:48.170,1743497208170,11.8242987912782,46.3783076830312,14.87424,1888.5408,4.96790500448,2
2025-04-01T10:46:48.270,1743497208270,11.8242945351794,46.378311122975,14.7828,1888.5408,4.96790500448,2
2025-04-01T10:46:48.350,1743497208350,11.8242902176053,46.3783145543544,14.7828,1888.5408,4.96790500448,2
2025-04-01T10:46:48.470,1743497208470,11.824285954058,46.3783179918317,14.7828,1888.5408,4.96790500448,2
2025-04-01T10:46:48.570,1743497208570,11.8242816779971,46.3783214106043,14.69136,1888.5408,4.96790500448,2
2025-04-01T10:46:48.680,1743497208680,11.8242774311345,46.3783248495889,14.69136,1888.5408,4.96790500448,2
2025-04-01T10:46:48.780,1743497208780,11.8242732242954,46.3783283105669,14.69136,1888.5408,4.96790500448,2
2025-04-01T10:46:48.880,1743497208880,11.8242689944155,46.378331762912,14.59992,1888.236,4.96790500448,2
2025-04-01T10:46:48.980,1743497208980,11.824264800388,46.378335271371,14.59992,1888.236,4.96790500448,2
2025-04-01T10:46:49.080,1743497209080,11.8242605735868,46.3783387149461,14.59992,1888.236,4.96790500448,2
2025-04-01T10:46:49.180,1743497209180,11.8242561626576,46.3783421844885,14.478,1888.236,4.96790500448,2
2025-04-01T10:46:49.280,1743497209280,11.8242519205621,46.3783456027815,14.478,1888.236,4.8918380192,2
2025-04-01T10:46:49.390,1743497209390,11.8242478133349,46.378349133508,14.478,1888.236,4.8918380192,2
2025-04-01T10:46:49.450,1743497209450,11.8242431996066,46.3783527578262,14.478,1888.236,4.8918380192,2
2025-04-01T10:46:49.550,1743497209550,11.8242389418195,46.3783561781062,14.38656,1888.236,4.8918380192,2
2025-04-01T10:46:49.650,1743497209650,11.8242346995254,46.3783596046895,14.38656,1888.236,4.8918380192,2
2025-04-01T10:46:49.750,1743497209750,11.8242308660074,46.3783627534437,14.38656,1888.236,4.8918380192,2
2025-04-01T10:46:49.850,1743497209850,11.8242267005822,46.378366191195,14.38656,1888.236,4.90408780928,2
2025-04-01T10:46:49.950,1743497209950,11.8242225055615,46.3783696512138,14.29512,1888.236,4.90408780928,2
2025-04-01T10:46:50.050,1743497210050,11.8242183677456,46.3783731249699,14.29512,1888.236,4.90408780928,2
2025-04-01T10:46:50.150,1743497210150,11.8242144563655,46.3783766367861,14.29512,1888.236,4.90408780928,2
2025-04-01T10:46:50.250,1743497210250,11.8242103662203,46.3783801377085,14.29512,1888.236,4.90408780928,2
2025-04-01T10:46:50.350,1743497210350,11.8242061253166,46.3783837074201,14.1732,1887.9312,4.90408780928,2
2025-04-01T10:46:50.450,1743497210450,11.82420201511,46.3783872306442,14.1732,1887.9312,4.90408780928,2
2025-04-01T10:46:50.550,1743497210550,11.8241980121624,46.3783906889844,14.1732,1887.9312,4.98197558848,2
2025-04-01T10:46:50.650,1743497210650,11.8241939226131,46.3783942436227,14.1732,1887.9312,4.98197558848,2
2025-04-01T10:46:50.750,1743497210750,11.8241898535225,46.3783978744842,14.1732,1887.9312,4.98197558848,2
2025-04-01T10:46:50.850,1743497210850,11.8241858112466,46.3784014944518,14.08176,1887.9312,5.0606403232,2
2025-04-01T10:46:50.950,1743497210950,11.8241818033334,46.3784051628596,14.08176,1887.9312,5.000008288,2
2025-04-01T10:46:51.050,1743497211050,11.8241778087282,46.378408832946,14.08176,1887.9312,5.000008288,2
2025-04-01T10:46:51.150,1743497211150,11.8241741204072,46.378412102561,14.08176,1887.9312,5.000008288,2
2025-04-01T10:46:51.250,1743497211250,11.8241701873766,46.3784157440766,14.08176,1887.9312,5.000008288,2
2025-04-01T10:46:51.350,1743497211350,11.8241658525219,46.3784197699626,14.08176,1887.9312,5.000008288,2
2025-04-01T10:46:51.450,1743497211450,11.8241619284296,46.3784234303884,14.08176,1887.9312,5.000008288,2
2025-04-01T10:46:51.550,1743497211550,11.8241580502204,46.3784270870801,14.08176,1887.9312,4.94065568128,2
2025-04-01T10:46:51.650,1743497211650,11.8241541771755,46.378430714276,14.08176,1887.9312,4.94065568128,2
2025-04-01T10:46:51.730,1743497211730,11.8241503764311,46.37843443616,13.99032,1887.9312,4.94065568128,2
2025-04-01T10:46:51.850,1743497211850,11.8241465363584,46.378438044754,13.99032,1887.9312,4.94065568128,2
2025-04-01T10:46:51.950,1743497211950,11.8241427491207,46.3784415749666,13.99032,1887.9312,4.8600490048,2
2025-04-01T10:46:52.050,1743497212050,11.8241385058334,46.3784454923588,13.99032,1887.9312,4.8600490048,2
2025-04-01T10:46:52.150,1743497212150,11.8241346296104,46.3784491050637,13.99032,1887.9312,4.8600490048,2
2025-04-01T10:46:52.240,1743497212240,11.8241307800036,46.3784527266072,13.99032,1887.9312,4.8600490048,2
2025-04-01T10:46:52.350,1743497212350,11.8241272102635,46.3784560261976,13.99032,1887.9312,4.88263033632,2
2025-04-01T10:46:52.450,1743497212450,11.8241234798333,46.3784596531537,13.99032,1887.9312,4.88263033632,2
2025-04-01T10:46:52.540,1743497212540,11.824120170693,46.3784629975873,13.99032,1887.9312,4.88263033632,2
2025-04-01T10:46:52.640,1743497212640,11.8241165542752,46.3784666301274,13.99032,1887.9312,4.82597919232,2
2025-04-01T10:46:52.740,1743497212740,11.8241129646723,46.3784702891144,13.99032,1887.9312,4.82597919232,2
2025-04-01T10:46:52.850,1743497212850,11.8241093544121,46.3784739335418,13.89888,1887.6264,4.82597919232,2
2025-04-01T10:46:52.950,1743497212950,11.8241052628765,46.3784780601795,13.89888,1887.6264,4.88263033632,2
2025-04-01T10:46:53.050,1743497213050,11.8241015842882,46.3784817376998,13.89888,1887.6264,4.88263033632,2
2025-04-01T10:46:53.150,1743497213150,11.8240980719515,46.3784853459856,13.89888,1887.6264,4.88263033632,2
2025-04-01T10:46:53.250,1743497213250,11.8240944021029,46.3784890257669,13.89888,1887.6264,4.88263033632,2
2025-04-01T10:46:53.350,1743497213350,11.82409052588,46.3784927968791,13.89888,1887.6264,4.88263033632,2
2025-04-01T10:46:53.460,1743497213460,11.8240868449082,46.3784965330485,13.89888,1887.6264,4.96488480224,2
2025-04-01T10:46:53.560,1743497213560,11.8240832664284,46.3785002189962,13.89888,1887.6264,4.96488480224,2
2025-04-01T10:46:53.660,1743497213660,11.8240796126686,46.3785040119304,13.89888,1887.6264,4.9091831712,2
2025-04-01T10:46:53.760,1743497213760,11.8240760755035,46.3785078989018,13.89888,1887.6264,4.9930031712,2
2025-04-01T10:46:53.860,1743497213860,11.8240724678254,46.3785117119796,13.89888,1887.6264,4.9930031712,2
2025-04-01T10:46:53.960,1743497213960,11.8240689215233,46.3785155733605,13.89888,1887.6264,4.9930031712,2
2025-04-01T10:46:54.050,1743497214050,11.8240653303313,46.3785193747564,13.89888,1887.6264,4.9930031712,2
2025-04-01T10:46:54.170,1743497214170,11.8240616974275,46.3785229489215,13.89888,1887.6264,4.9091831712,2
2025-04-01T10:46:54.270,1743497214270,11.8240581018657,46.3785267055769,13.89888,1887.6264,4.9091831712,2
2025-04-01T10:46:54.350,1743497214350,11.8240545178244,46.3785305560297,13.99032,1887.9312,4.9091831712,2
2025-04-01T10:46:54.470,1743497214470,11.8240509165024,46.3785343234078,13.99032,1887.9312,4.9091831712,2
2025-04-01T10:46:54.580,1743497214580,11.8240475795541,46.3785377903809,13.99032,1887.9312,4.9091831712,2
2025-04-01T10:46:54.680,1743497214680,11.8240435426412,46.3785422763808,13.99032,1887.9312,4.9091831712,2
2025-04-01T10:46:54.780,1743497214780,11.8240399254289,46.3785461030588,13.99032,1887.9312,4.9930031712,2
2025-04-01T10:46:54.880,1743497214880,11.8240363211275,46.3785499398086,13.99032,1887.9312,4.9930031712,2
2025-04-01T10:46:54.990,1743497214990,11.8240332280943,46.3785530230279,13.99032,1887.9312,4.9930031712,2
2025-04-01T10:46:55.050,1743497215050,11.8240297147644,46.3785568004092,13.99032,1887.9312,4.9930031712,2
2025-04-01T10:46:55.150,1743497215150,11.8240258830341,46.3785610758276,13.99032,1887.9312,4.93964358272,2
2025-04-01T10:46:55.250,1743497215250,11.8240223877794,46.3785649132282,13.99032,1887.9312,4.93964358272,2
2025-04-01T10:46:55.350,1743497215350,11.8240189012643,46.378568799446,14.08176,1887.9312,4.93964358272,2
2025-04-01T10:46:55.450,1743497215450,11.8240154715568,46.3785726467813,14.08176,1887.9312,4.93964358272,2
2025-04-01T10:46:55.550,1743497215550,11.8240120815749,46.3785763556131,14.08176,1887.9312,4.8877476032,2
2025-04-01T10:46:55.650,1743497215650,11.8240087319144,46.3785802004476,14.08176,1887.9312,4.8877476032,2
2025-04-01T10:46:55.750,1743497215750,11.8240054188015,46.378584043672,14.08176,1887.9312,4.8877476032,2
2025-04-01T10:46:55.850,1743497215850,11.8240020983393,46.378587894022,14.08176,1887.9312,4.8877476032,2
2025-04-01T10:46:55.950,1743497215950,11.8239987234531,46.3785918594434,14.1732,1887.9312,4.8877476032,2
2025-04-01T10:46:56.050,1743497216050,11.8239953942513,46.3785957115062,14.1732,1887.9312,4.8877476032,2
2025-04-01T10:46:56.150,1743497216150,11.8239920865013,46.3785995730927,14.1732,1887.9312,4.8877476032,2
2025-04-01T10:46:56.250,1743497216250,11.8239887731897,46.3786034178588,14.1732,1887.9312,4.8877476032,2
2025-04-01T10:46:56.350,1743497216350,11.8239853988994,46.3786070852388,14.1732,1887.9312,4.8877476032,2
2025-04-01T10:46:56.450,1743497216450,11.8239821167724,46.3786109213719,14.29512,1888.236,4.8877476032,2
2025-04-01T10:46:56.550,1743497216550,11.8239792406408,46.3786145068421,14.29512,1888.236,4.83736261888,2
2025-04-01T10:46:56.650,1743497216650,11.8239760226706,46.3786183253325,14.29512,1888.236,4.83736261888,2
2025-04-01T10:46:56.750,1743497216750,11.8239727804678,46.3786223006543,14.29512,1888.236,4.83736261888,2
2025-04-01T10:46:56.850,1743497216850,11.8239695626962,46.3786261389456,14.38656,1888.236,4.83736261888,2
2025-04-01T10:46:56.950,1743497216950,11.8239659349567,46.3786302369096,14.38656,1888.236,4.83736261888,2
2025-04-01T10:46:57.050,1743497217050,11.8239626860006,46.3786340959953,14.38656,1888.236,4.83736261888,2
2025-04-01T10:46:57.130,1743497217130,11.8239596207752,46.3786379672082,14.38656,1888.236,4.83736261888,2
2025-04-01T10:46:57.230,1743497217230,11.8239562919707,46.3786420932635,14.478,1888.236,4.83736261888,2
2025-04-01T10:46:57.330,1743497217330,11.8239530914797,46.3786459704372,14.478,1888.236,4.83736261888,2
2025-04-01T10:46:57.450,1743497217450,11.8239499023106,46.3786498461378,14.478,1888.236,4.83736261888,2
2025-04-01T10:46:57.550,1743497217550,11.8239469691728,46.3786533129396,14.478,1888.236,4.83736261888,2
2025-04-01T10:46:57.640,1743497217640,11.8239438006609,46.3786571569519,14.478,1888.236,4.83736261888,2
2025-04-01T10:46:57.750,1743497217750,11.8239406138753,46.3786610168769,14.59992,1888.236,4.83736261888,2
2025-04-01T10:46:57.850,1743497217850,11.8239374225212,46.3786648703786,14.59992,1888.236,4.83736261888,2
2025-04-01T10:46:57.950,1743497217950,11.823934279831,46.3786687234521,14.59992,1888.236,4.83736261888,2
2025-04-01T10:46:58.050,1743497218050,11.8239310735798,46.3786725717467,14.59992,1888.236,4.83736261888,2
2025-04-01T10:46:58.150,1743497218150,11.8239279084447,46.3786765754851,14.59992,1888.236,4.83736261888,2
2025-04-01T10:46:58.250,1743497218250,11.8239246968306,46.3786804259036,14.69136,1888.5408,4.83736261888,2
2025-04-01T10:46:58.350,1743497218350,11.8239214214569,46.3786840477725,14.69136,1888.5408,4.83736261888,2
2025-04-01T10:46:58.460,1743497218460,11.8239181955416,46.3786878671707,14.69136,1888.5408,4.83736261888,2
2025-04-01T10:46:58.560,1743497218560,11.8239152475067,46.3786913885278,14.69136,1888.5408,4.83736261888,2
2025-04-01T10:46:58.660,1743497218660,11.8239120269543,46.3786951895982,14.69136,1888.5408,4.83736261888,2
2025-04-01T10:46:58.750,1743497218750,11.8239085072684,46.3786994528381,14.7828,1888.5408,4.8877476032,2
2025-04-01T10:46:58.870,1743497218870,11.8239052156073,46.378703319666,14.7828,1888.5408,4.97394004448,2
2025-04-01T10:46:58.970,1743497218970,11.8239019863153,46.3787071016035,14.7828,1888.5408,4.97394004448,2
2025-04-01T10:46:59.070,1743497219070,11.8238986888939,46.3787109821002,14.7828,1888.5408,4.97394004448,2
2025-04-01T10:46:59.170,1743497219170,11.8238953616784,46.3787149295363,14.7828,1888.5408,4.97394004448,2
2025-04-01T10:46:59.270,1743497219270,11.8238920612776,46.3787188235819,14.7828,1888.5408,4.97394004448,2
2025-04-01T10:46:59.380,1743497219380,11.823888703672,46.3787228314998,14.7828,1888.5408,4.97394004448,2
2025-04-01T10:46:59.450,1743497219450,11.823885372484,46.3787267290225,14.87424,1888.5408,4.97394004448,2
2025-04-01T10:46:59.580,1743497219580,11.8238820289809,46.3787304577066,14.87424,1888.5408,4.97394004448,2
2025-04-01T10:46:59.680,1743497219680,11.823878680115,46.3787343426225,14.87424,1888.5408,4.97394004448,2
2025-04-01T10:46:59.790,1743497219790,11.8238753449543,46.3787382385694,14.87424,1888.5408,4.97394004448,2
2025-04-01T10:46:59.890,1743497219890,11.8238717021191,46.3787424694701,14.87424,1888.5408,4.97394004448,2
2025-04-01T10:46:59.950,1743497219950,11.8238683566298,46.3787463943989,14.87424,1888.5408,4.97394004448,2
2025-04-01T10:47:00.050,1743497220050,11.8238650292157,46.378750312442,14.99616,1888.8456,4.97394004448,2
2025-04-01T10:47:00.150,1743497220150,11.8238620708521,46.3787537041168,14.99616,1888.8456,4.8877476032,2
2025-04-01T10:47:00.250,1743497220250,11.8238588000469,46.378757556625,14.99616,1888.8456,4.8877476032,2
2025-04-01T10:47:00.350,1743497220350,11.8238554758108,46.3787614557065,14.99616,1888.8456,4.8877476032,2
2025-04-01T10:47:00.450,1743497220450,11.823852199444,46.3787653072555,14.99616,1888.8456,4.8877476032,2
2025-04-01T10:47:00.550,1743497220550,11.823848929632,46.3787692237227,14.99616,1888.8456,4.8877476032,2
2025-04-01T10:47:00.650,1743497220650,11.8238456494912,46.3787730899854,15.0876,1888.8456,4.8877476032,2
2025-04-01T10:47:00.750,1743497220750,11.8238422837419,46.3787769120043,15.0876,1888.8456,4.97394004448,2
2025-04-01T10:47:00.850,1743497220850,11.8238389934712,46.3787807759888,15.0876,1888.8456,4.97394004448,2
2025-04-01T10:47:00.950,1743497220950,11.8238357999322,46.3787846250884,15.0876,1888.8456,4.97394004448,2
2025-04-01T10:47:01.050,1743497221050,11.8238325134354,46.3787884841399,15.0876,1888.8456,4.97394004448,2
2025-04-01T10:47:01.150,1743497221150,11.8238291582133,46.3787924681288,15.17904,1888.8456,4.97394004448,2
2025-04-01T10:47:01.250,1743497221250,11.8238258572167,46.3787963336549,15.17904,1888.8456,4.97394004448,2
2025-04-01T10:47:01.350,1743497221350,11.8238227759025,46.378799807411,15.17904,1888.8456,4.8877476032,2
2025-04-01T10:47:01.450,1743497221450,11.8238194776866,46.3788036407692,15.17904,1888.8456,4.97394004448,2
2025-04-01T10:47:01.550,1743497221550,11.8238158145913,46.3788079746911,15.17904,1888.8456,4.97394004448,2
2025-04-01T10:47:01.650,1743497221650,11.8238124647322,46.3788118581425,15.17904,1888.8456,4.97394004448,2
2025-04-01T10:47:01.750,1743497221750,11.8238091333455,46.3788156586477,15.27048,1889.1504,4.97394004448,2
2025-04-01T10:47:01.850,1743497221850,11.823805777329,46.3788195346224,15.27048,1889.1504,4.97394004448,2
2025-04-01T10:47:01.930,1743497221930,11.8238023374914,46.3788235061416,15.27048,1889.1504,4.97394004448,2
2025-04-01T10:47:02.050,1743497222050,11.8237989763105,46.3788273861672,15.27048,1889.1504,4.97394004448,2
2025-04-01T10:47:02.150,1743497222150,11.8237957875387,46.3788313161234,15.27048,1889.1504,4.97394004448,2
2025-04-01T10:47:02.240,1743497222240,11.8237924402617,46.3788351991294,15.27048,1889.1504,4.97394004448,2
2025-04-01T10:47:02.350,1743497222350,11.8237889303085,46.3788389637583,15.27048,1889.1504,4.97394004448,2
2025-04-01T10:47:02.450,1743497222450,11.823785359178,46.3788432069232,15.3924,1889.1504,4.97394004448,2
2025-04-01T10:47:02.550,1743497222550,11.823781988463,46.3788471140038,15.3924,1889.1504,4.97394004448,2
2025-04-01T10:47:02.650,1743497222650,11.8237786223164,46.378851020759,15.3924,1889.1504,4.97394004448,2
2025-04-01T10:47:02.750,1743497222750,11.8237756347545,46.3788545948642,15.3924,1889.1504,4.97394004448,2
2025-04-01T10:47:02.850,1743497222850,11.8237723127033,46.3788584632765,15.3924,1889.1504,4.97394004448,2
2025-04-01T10:47:02.950,1743497222950,11.8237692540327,46.3788619117076,15.3924,1889.1504,4.97394004448,2
2025-04-01T10:47:03.050,1743497223050,11.8237659570086,46.3788657445092,15.3924,1889.1504,4.97394004448,2
2025-04-01T10:47:03.150,1743497223150,11.8237624395076,46.3788700757418,15.48384,1889.1504,4.97394004448,2
2025-04-01T10:47:03.260,1743497223260,11.8237591164632,46.378873963317,15.48384,1889.1504,4.97394004448,2
2025-04-01T10:47:03.350,1743497223350,11.8237556821873,46.3788777857385,15.48384,1889.1504,4.97394004448,2
2025-04-01T10:47:03.460,1743497223460,11.8237523563621,46.3788816622913,15.48384,1889.1504,4.8877476032,2
2025-04-01T10:47:03.560,1743497223560,11.8237489530721,46.378885629554,15.48384,1889.1504,4.8877476032,2
2025-04-01T10:47:03.650,1743497223650,11.8237456419455,46.3788895076484,15.48384,1889.1504,4.8877476032,2
2025-04-01T10:47:03.760,1743497223760,11.823742471646,46.3788932630876,15.57528,1889.4552,4.97394004448,2
2025-04-01T10:47:03.860,1743497223860,11.823739192697,46.3788971269608,15.57528,1889.4552,4.8877476032,2
2025-04-01T10:47:03.970,1743497223970,11.8237360041238,46.3789010846314,15.57528,1889.4552,4.8877476032,2
2025-04-01T10:47:04.070,1743497224070,11.8237327426541,46.3789049549835,15.57528,1889.4552,4.8877476032,2
2025-04-01T10:47:04.150,1743497224150,11.8237293030152,46.3789087464147,15.57528,1889.4552,4.8877476032,2
2025-04-01T10:47:04.270,1743497224270,11.8237260280388,46.3789126008821,15.57528,1889.4552,4.8877476032,2
2025-04-01T10:47:04.350,1743497224350,11.8237228730336,46.3789165673868,15.6972,1889.4552,4.8877476032,2
2025-04-01T10:47:04.470,1743497224470,11.8237196151392,46.3789204280012,15.6972,1889.4552,4.8877476032,2
2025-04-01T10:47:04.550,1743497224550,11.8237166814055,46.3789239069216,15.6972,1889.4552,4.8877476032,2
2025-04-01T10:47:04.680,1743497224680,11.8237134523122,46.3789277350973,15.6972,1889.4552,4.8877476032,2
2025-04-01T10:47:04.780,1743497224780,11.8237097651829,46.3789319301988,15.6972,1889.4552,4.8877476032,2
2025-04-01T10:47:04.880,1743497224880,11.823706491001,46.3789357953181,15.6972,1889.4552,4.8877476032,2
2025-04-01T10:47:04.980,1743497224980,11.8237031079711,46.3789396364614,15.78864,1889.4552,4.8877476032,2
2025-04-01T10:47:05.080,1743497225080,11.8236996582022,46.3789437663413,15.78864,1889.4552,4.8877476032,2
2025-04-01T10:47:05.190,1743497225190,11.8236963691232,46.378947650882,15.78864,1889.4552,4.8877476032,2
2025-04-01T10:47:05.250,1743497225250,11.8236930838181,46.3789515302026,15.78864,1889.4552,4.8877476032,2
2025-04-01T10:47:05.350,1743497225350,11.8236900473938,46.3789549693601,15.78864,1889.4552,4.8877476032,2
2025-04-01T10:47:05.450,1743497225450,11.8236867771845,46.3789588015257,15.88008,1889.76,4.8877476032,2
2025-04-01T10:47:05.550,1743497225550,11.8236835693443,46.378962625007,15.88008,1889.76,4.8877476032,2
2025-04-01T10:47:05.650,1743497225650,11.8236802872173,46.3789664601509,15.88008,1889.76,4.8877476032,2
2025-04-01T10:47:05.750,1743497225750,11.8236770535555,46.3789704964756,15.88008,1889.76,4.8877476032,2
2025-04-01T10:47:05.850,1743497225850,11.8236737897023,46.3789743571992,15.88008,1889.76,4.8877476032,2
2025-04-01T10:47:05.950,1743497225950,11.8236704168024,46.3789782504331,15.97152,1889.76,4.8877476032,2
2025-04-01T10:47:06.050,1743497226050,11.8236671545382,46.3789821163869,15.97152,1889.76,4.8877476032,2
2025-04-01T10:47:06.150,1743497226150,11.8236638501648,46.3789858244201,15.97152,1889.76,4.8877476032,2
2025-04-01T10:47:06.250,1743497226250,11.8236605849212,46.3789896714342,15.97152,1889.76,4.83736261888,2
2025-04-01T10:47:06.350,1743497226350,11.8236574215737,46.3789935254626,15.97152,1889.76,4.83736261888,2
2025-04-01T10:47:06.450,1743497226450,11.8236541843366,46.3789973764057,16.09344,1889.76,4.83736261888,2
2025-04-01T10:47:06.550,1743497226550,11.8236512603356,46.3790009173196,16.09344,1889.76,4.83736261888,2
2025-04-01T10:47:06.650,1743497226650,11.8236480759336,46.3790047538894,16.09344,1889.76,4.83736261888,2
2025-04-01T10:47:06.750,1743497226750,11.8236445898158,46.3790090093186,16.09344,1889.76,4.92443662304,2
2025-04-01T10:47:06.850,1743497226850,11.8236413891262,46.3790128966668,16.09344,1889.76,4.92443662304,2
2025-04-01T10:47:06.950,1743497226950,11.8236381433481,46.3790167717337,16.18488,1890.0648,4.92443662304,2
2025-04-01T10:47:07.050,1743497227050,11.8236349422613,46.379020665214,16.18488,1890.0648,4.92443662304,2
2025-04-01T10:47:07.150,1743497227150,11.8236317882492,46.3790245062588,16.18488,1890.0648,4.92443662304,2
2025-04-01T10:47:07.250,1743497227250,11.8236285949089,46.3790284066634,16.18488,1890.0648,4.92443662304,2
2025-04-01T10:47:07.350,1743497227350,11.8236254051439,46.379032372012,16.27632,1890.0648,4.92443662304,2
2025-04-01T10:47:07.450,1743497227450,11.8236222114063,46.3790362840813,16.27632,1890.0648,4.92443662304,2
2025-04-01T10:47:07.550,1743497227550,11.8236191674341,46.3790402222122,16.27632,1890.0648,4.92443662304,2
2025-04-01T10:47:07.650,1743497227650,11.8236155476397,46.3790444245806,16.27632,1890.0648,4.92443662304,2
2025-04-01T10:47:07.750,1743497227750,11.8236123201354,46.3790483722222,16.27632,1890.0648,4.92443662304,2
2025-04-01T10:47:07.840,1743497227840,11.8236091013707,46.3790523197353,16.39824,1890.0648,4.92443662304,2
2025-04-01T10:47:07.940,1743497227940,11.8236063831482,46.3790558341295,16.39824,1890.0648,4.92443662304,2
2025-04-01T10:47:08.050,1743497228050,11.8236032285403,46.379059740268,16.39824,1890.0648,4.92443662304,2
2025-04-01T10:47:08.150,1743497228150,11.8236000371863,46.3790636277019,16.39824,1890.0648,4.92443662304,2
2025-04-01T10:47:08.240,1743497228240,11.8235968581471,46.3790675306287,16.48968,1890.3696,4.92443662304,2
2025-04-01T10:47:08.350,1743497228350,11.8235936008486,46.3790715708944,16.48968,1890.3696,4.92443662304,2
2025-04-01T10:47:08.450,1743497228450,11.823590383077,46.3790754760737,16.48968,1890.3696,4.92443662304,2
2025-04-01T10:47:08.550,1743497228550,11.8235871956955,46.3790793179963,16.48968,1890.3696,4.92443662304,2
2025-04-01T10:47:08.650,1743497228650,11.823583960842,46.3790832100121,16.58112,1890.3696,4.92443662304,2
2025-04-01T10:47:08.750,1743497228750,11.8235806626261,46.3790870672736,16.58112,1890.3696,4.92443662304,2
2025-04-01T10:47:08.850,1743497228850,11.8235774377039,46.379090971528,16.58112,1890.3696,4.92443662304,2
2025-04-01T10:47:08.960,1743497228960,11.8235742888563,46.3790948861538,16.67256,1890.3696,4.92443662304,2
2025-04-01T10:47:09.060,1743497229060,11.8235711036597,46.3790988183966,16.67256,1890.3696,4.92443662304,2
2025-04-01T10:47:09.160,1743497229160,11.8235677204311,46.3791028035418,16.67256,1890.3696,4.92443662304,2
2025-04-01T10:47:09.250,1743497229250,11.8235645433782,46.3791067545578,16.67256,1890.3696,4.92443662304,2
2025-04-01T10:47:09.360,1743497229360,11.8235613442777,46.3791107137785,16.79448,1890.6744,4.92443662304,2
2025-04-01T10:47:09.470,1743497229470,11.8235581950328,46.379114668914,16.79448,1890.6744,4.92443662304,2
2025-04-01T10:47:09.570,1743497229570,11.8235550922667,46.3791185472353,16.79448,1890.6744,4.92443662304,2
2025-04-01T10:47:09.670,1743497229670,11.8235519710283,46.3791225048973,16.79448,1890.6744,5.01199387744,2
2025-04-01T10:47:09.770,1743497229770,11.8235490521917,46.3791263450727,16.88592,1890.6744,4.96488480224,2
2025-04-01T10:47:09.850,1743497229850,11.8235459692885,46.3791303064859,16.88592,1890.6744,4.96488480224,2
2025-04-01T10:47:09.980,1743497229980,11.8235427401951,46.3791346253088,16.88592,1890.6744,4.96488480224,2
2025-04-01T10:47:10.050,1743497230050,11.8235396574905,46.3791386291843,16.97736,1890.6744,4.96488480224,2
2025-04-01T10:47:10.180,1743497230180,11.8235364591845,46.3791425340381,16.97736,1890.6744,4.96488480224,2
2025-04-01T10:47:10.250,1743497230250,11.8235331558043,46.3791468474311,16.97736,1890.6744,4.96488480224,2
2025-04-01T10:47:10.350,1743497230350,11.8235300683326,46.3791508469901,16.97736,1890.6744,4.8764821952,2
2025-04-01T10:47:10.450,1743497230450,11.8235270126414,46.3791548089,17.09928,1890.9792,4.8764821952,2
2025-04-01T10:47:10.580,1743497230580,11.8235247097499,46.3791579658246,17.09928,1890.9792,4.74131562784,2
2025-04-01T10:47:10.690,1743497230690,11.8235218344128,46.3791617033985,17.09928,1890.9792,4.65296353632,2
2025-04-01T10:47:10.750,1743497230750,11.823518790242,46.379165762874,17.09928,1890.9792,4.42945381824,2
2025-04-01T10:47:10.850,1743497230850,11.8235161077726,46.3791692401757,17.19072,1890.9792,4.29418890208,2
2025-04-01T10:47:10.950,1743497230950,11.8235136433966,46.3791724122592,17.19072,1890.9792,3.98246791008,2
2025-04-01T10:47:11.050,1743497231050,11.8235112741634,46.379175475592,17.19072,1890.9792,3.71214818656,2
2025-04-01T10:47:11.150,1743497231150,11.8235091538109,46.3791781203652,17.19072,1890.9792,3.40000563584,2
2025-04-01T10:47:11.250,1743497231250,11.8235071546214,46.3791807021729,17.19072,1890.9792,3.13049997216,2
2025-04-01T10:47:11.350,1743497231350,11.8235050791588,46.3791834509179,17.19072,1890.9792,2.81780488,2
2025-04-01T10:47:11.450,1743497231450,11.8235034482254,46.3791855848588,17.19072,1890.9792,2.59422855296,2
2025-04-01T10:47:11.550,1743497231550,11.8235019980434,46.3791876884987,17.19072,1890.9792,2.23607128096,2
2025-04-01T10:47:11.650,1743497231650,11.8235007878038,46.3791893366324,17.19072,1890.9792,1.87883222912,2
2025-04-01T10:47:11.750,1743497231750,11.8234995396263,46.3791907728655,17.19072,1890.9792,1.56524976256,2
2025-04-01T10:47:11.850,1743497231850,11.8234987212795,46.3791919222768,17.19072,1890.9792,1.20830620416,2
2025-04-01T10:47:11.950,1743497231950,11.8234981230125,46.3791929474701,17.19072,1890.9792,0.9848872352,2
2025-04-01T10:47:12.050,1743497232050,11.8234977122501,46.379193620889,17.19072,1890.9792,0.6324565456,2
2025-04-01T10:47:12.150,1743497232150,11.8234972550088,46.3791942266834,17.19072,1890.9792,0.41231080352,2
2025-04-01T10:47:12.250,1743497232250,11.8234971942287,46.3791944668635,17.19072,1890.9792,0.10000016576,2
2025-04-01T10:47:12.350,1743497232350,11.8234972422967,46.3791944562607,17.19072,1890.9792,0.10000016576,2
2025-04-01T10:47:12.450,1743497232450,11.8234975603,46.3791942743528,17.19072,1890.9792,0.3605556416,2
2025-04-01T10:47:12.550,1743497232550,11.823498347661,46.3791939872396,17.19072,1890.9792,0.7071077552,2
2025-04-01T10:47:12.650,1743497232650,11.8234992212265,46.379193397392,17.19072,1890.9792,0.98995085728,2
2025-04-01T10:47:12.750,1743497232750,11.8235002715708,46.3791922833345,17.19072,1890.9792,1.27279395936,2
2025-04-01T10:47:12.850,1743497232850,11.8235018222587,46.379191303738,17.19072,1890.9792,1.55563706144,2
2025-04-01T10:47:12.950,1743497232950,11.8235034102886,46.3791901743502,17.19072,1890.9792,1.769183152,2
2025-04-01T10:47:13.050,1743497233050,11.823505130406,46.3791889314669,17.19072,1890.9792,1.91050009568,2
2025-04-01T10:47:13.150,1743497233150,11.8235068044418,46.3791874032519,17.19072,1890.9792,1.98494656096,2
2025-04-01T10:47:13.250,1743497233250,11.8235086256607,46.3791860221563,17.28216,1890.9792,2.12603238496,2
2025-04-01T10:47:13.350,1743497233350,11.8235102343479,46.3791845408914,17.28216,1890.9792,2.12603238496,2
2025-04-01T10:47:13.450,1743497233450,11.8235120599367,46.379183085491,17.28216,1890.9792,2.06155580576,2
2025-04-01T10:47:13.550,1743497233550,11.8235137113288,46.3791813452729,17.28216,1890.9792,2.1400967104,2
2025-04-01T10:47:13.650,1743497233650,11.8235155031509,46.3791798338099,17.3736,1891.284,2.1400967104,2
2025-04-01T10:47:13.740,1743497233740,11.8235171769879,46.3791780028434,17.3736,1891.284,2.1400967104,2
2025-04-01T10:47:13.840,1743497233840,11.8235189139887,46.3791765066764,17.3736,1891.284,2.06155580576,2
2025-04-01T10:47:13.950,1743497233950,11.8235206569483,46.3791749558515,17.3736,1891.284,2.0000033152,2
2025-04-01T10:47:14.050,1743497234050,11.8235223794492,46.3791734644806,17.49552,1891.284,2.06155580576,2
2025-04-01T10:47:14.150,1743497234150,11.8235241657097,46.3791718233697,17.49552,1891.284,2.1400967104,2
2025-04-01T10:47:14.250,1743497234250,11.8235259916958,46.3791702883889,17.49552,1891.284,2.20227505696,2
2025-04-01T10:47:14.350,1743497234350,11.823528026837,46.379168819217,17.49552,1891.284,2.26716023072,2
2025-04-01T10:47:14.450,1743497234450,11.8235301855248,46.3791671814119,17.49552,1891.284,2.40832249856,2
2025-04-01T10:47:14.550,1743497234550,11.8235324927863,46.3791654557019,17.49552,1891.284,2.61725468928,2
2025-04-01T10:47:14.650,1743497234650,11.82353505449,46.3791636748542,17.58696,1891.284,2.6870099168,2
2025-04-01T10:47:14.750,1743497234750,11.8235379177109,46.3791616901737,17.58696,1891.284,2.90000480704,2
2025-04-01T10:47:14.860,1743497234860,11.8235407998014,46.3791597773828,17.58696,1891.284,3.04138612448,2
2025-04-01T10:47:14.960,1743497234960,11.8235438598625,46.3791580081484,17.58696,1891.284,3.1144874464,2
2025-04-01T10:47:15.060,1743497235060,11.8235470128814,46.3791560204019,17.58696,1891.284,3.25576907392,2
2025-04-01T10:47:15.170,1743497235170,11.8235501208118,46.3791539231338,17.6784,1891.5888,3.33017038816,2
2025-04-01T10:47:15.270,1743497235270,11.8235535546905,46.3791518322375,17.6784,1891.5888,3.47131656256,2
2025-04-01T10:47:15.350,1743497235350,11.8235569124948,46.379149700729,17.6784,1891.5888,3.54683502976,2
2025-04-01T10:47:15.450,1743497235450,11.8235607754097,46.3791473567889,17.6784,1891.5888,3.68782384608,2
2025-04-01T10:47:15.580,1743497235580,11.8235646224344,46.3791451220792,17.76984,1891.5888,3.76431194304,2
2025-04-01T10:47:15.680,1743497235680,11.8235685916152,46.3791428558183,17.76984,1891.5888,3.90513088416,2
2025-04-01T10:47:15.780,1743497235780,11.8235724589,46.3791407582933,17.76984,1891.5888,3.98246791008,2
2025-04-01T10:47:15.880,1743497235880,11.8235766427976,46.37913842869,17.76984,1891.5888,4.06079468256,2
2025-04-01T10:47:15.980,1743497235980,11.8235807885586,46.3791361223306,17.89176,1891.5888,4.2011969824,2
2025-04-01T10:47:16.080,1743497236080,11.8235851980974,46.3791337080596,17.89176,1891.5888,4.28019386784,2
2025-04-01T10:47:16.190,1743497236190,11.8235897536277,46.379131251943,17.9832,1891.8936,4.4204142224,2
2025-04-01T10:47:16.250,1743497236250,11.8235944120473,46.3791287626308,17.9832,1891.8936,4.5000074592,2
2025-04-01T10:47:16.350,1743497236350,11.8235990913228,46.3791263234717,17.9832,1891.8936,4.64005078592,2
2025-04-01T10:47:16.450,1743497236450,11.8236039517469,46.3791237311468,18.07464,1891.8936,4.64005078592,2
2025-04-01T10:47:16.550,1743497236550,11.8236084975444,46.3791211554712,18.07464,1891.8936,4.78017502688,2
2025-04-01T10:47:16.650,1743497236650,11.8236134968094,46.3791184554061,18.19656,1891.8936,4.92037392352,2
2025-04-01T10:47:16.750,1743497236750,11.8236190579927,46.3791154118571,18.19656,1891.8936,4.92037392352,2
2025-04-01T10:47:16.850,1743497236850,11.8236242695908,46.3791126003606,18.19656,1891.8936,5.0606403232,2
2025-04-01T10:47:16.950,1743497236950,11.8236295588525,46.3791097299667,18.288,1892.1984,5.14004714432,2
2025-04-01T10:47:17.050,1743497237050,11.8236349617294,46.3791068386757,18.288,1892.1984,5.20096975552,2
2025-04-01T10:47:17.150,1743497237150,11.823640522714,46.3791039764265,18.37944,1892.1984,5.28016020928,2
2025-04-01T10:47:17.250,1743497237250,11.8236461695058,46.3791010001338,18.37944,1892.1984,5.36004581024,2
2025-04-01T10:47:17.350,1743497237350,11.8236518435097,46.3790980240123,18.37944,1892.1984,5.5000091168,2
2025-04-01T10:47:17.450,1743497237450,11.8236576337109,46.3790949678822,18.47088,1892.1984,5.5000091168,2
2025-04-01T10:47:17.550,1743497237550,11.8236634165628,46.3790918719876,18.47088,1892.1984,5.56058437792,2
2025-04-01T10:47:17.650,1743497237650,11.8236692407293,46.3790888020003,18.47088,1892.1984,5.56058437792,2
2025-04-01T10:47:17.750,1743497237750,11.823674980479,46.379085610878,18.5928,1892.5032,5.56058437792,2
2025-04-01T10:47:17.850,1743497237850,11.823680748831,46.3790825483589,18.5928,1892.5032,5.56058437792,2
2025-04-01T10:47:17.950,1743497237950,11.823686442499,46.3790795067626,18.5928,1892.5032,5.56058437792,2
2025-04-01T10:47:18.050,1743497238050,11.8236927171536,46.3790763585309,18.68424,1892.5032,5.5000091168,2
2025-04-01T10:47:18.150,1743497238150,11.8236984571018,46.3790733445634,18.68424,1892.5032,5.42034077728,2
2025-04-01T10:47:18.230,1743497238230,11.823704163482,46.3790703601516,18.68424,1892.5032,5.36004581024,2
2025-04-01T10:47:18.330,1743497238330,11.8237093055604,46.3790675696122,18.77568,1892.5032,5.36004581024,2
2025-04-01T10:47:18.450,1743497238450,11.8237148677367,46.3790646422736,18.77568,1892.5032,5.36004581024,2
2025-04-01T10:47:18.550,1743497238550,11.8237204785769,46.3790617820114,18.77568,1892.5032,5.28016020928,2
2025-04-01T10:47:18.630,1743497238630,11.8237259817608,46.379058884691,18.77568,1892.5032,5.28016020928,2
2025-04-01T10:47:18.740,1743497238740,11.8237315834641,46.3790558926227,18.8976,1892.808,5.28016020928,2
2025-04-01T10:47:18.850,1743497238850,11.8237370592373,46.3790530186746,18.8976,1892.808,5.22016162976,2
2025-04-01T10:47:18.950,1743497238950,11.8237425828798,46.3790502749653,18.8976,1892.808,5.22016162976,2
2025-04-01T10:47:19.050,1743497239050,11.8237480105851,46.3790474407817,18.8976,1892.808,5.14004714432,2
2025-04-01T10:47:19.140,1743497239140,11.8237533399696,46.3790446312636,18.98904,1892.808,5.14004714432,2
2025-04-01T10:47:19.250,1743497239250,11.8237587059016,46.3790418265716,18.98904,1892.808,5.14004714432,2
2025-04-01T10:47:19.350,1743497239350,11.8237639657663,46.3790391097802,19.08048,1892.808,5.14004714432,2
2025-04-01T10:47:19.450,1743497239450,11.8237693003151,46.3790363273685,19.08048,1892.808,5.08036238688,2
2025-04-01T10:47:19.550,1743497239550,11.8237747603967,46.3790336306906,19.08048,1892.808,5.08036238688,2
2025-04-01T10:47:19.660,1743497239660,11.823780125137,46.3790308533233,19.17192,1893.1128,5.08036238688,2
2025-04-01T10:47:19.760,1743497239760,11.823785439823,46.3790280579664,19.17192,1893.1128,5.08036238688,2
2025-04-01T10:47:19.860,1743497239860,11.8237908222411,46.3790252578691,19.17192,1893.1128,5.14004714432,2
2025-04-01T10:47:19.960,1743497239960,11.8237962277001,46.379022380598,19.29384,1893.1128,5.14004714432,2
2025-04-01T10:47:20.070,1743497240070,11.8238016109127,46.3790195593038,19.29384,1893.1128,5.14004714432,2
2025-04-01T10:47:20.150,1743497240150,11.823806963338,46.3790168370741,19.38528,1893.1128,5.14004714432,2
2025-04-01T10:47:20.270,1743497240270,11.8238123511191,46.3790140064833,19.38528,1893.1128,5.14004714432,2
2025-04-01T10:47:20.370,1743497240370,11.8238176479286,46.379011326536,19.38528,1893.1128,5.14004714432,2
2025-04-01T10:47:20.470,1743497240470,11.8238230204154,46.3790085274622,19.47672,1893.4176,5.14004714432,2
2025-04-01T10:47:20.570,1743497240570,11.8238282896156,46.3790057363319,19.47672,1893.4176,5.08036238688,2
2025-04-01T10:47:20.670,1743497240670,11.8238339415717,46.3790027701623,19.59864,1893.4176,5.0606403232,2
2025-04-01T10:47:20.780,1743497240780,11.8238392796958,46.3789999415819,19.59864,1893.4176,5.0606403232,2
2025-04-01T10:47:20.880,1743497240880,11.8238446206007,46.378997093828,19.69008,1893.4176,5.0606403232,2
2025-04-01T10:47:20.950,1743497240950,11.8238492665067,46.3789944541891,19.69008,1893.4176,5.14004714432,2
2025-04-01T10:47:21.080,1743497241080,11.8238545945008,46.3789915848444,19.78152,1893.7224,5.14004714432,2
2025-04-01T10:47:21.180,1743497241180,11.8238600778219,46.3789888737205,19.78152,1893.7224,5.14004714432,2
2025-04-01T10:47:21.250,1743497241250,11.8238653639055,46.3789860466872,19.87296,1893.7224,5.0606403232,2
2025-04-01T10:47:21.350,1743497241350,11.8238705888117,46.3789831736683,19.87296,1893.7224,5.0606403232,2
2025-04-01T10:47:21.450,1743497241450,11.823875789088,46.378980352889,19.99488,1893.7224,5.0606403232,2
2025-04-01T10:47:21.550,1743497241550,11.8238808791259,46.3789775380107,19.99488,1893.7224,5.0606403232,2
2025-04-01T10:47:21.650,1743497241650,11.8238860674846,46.3789747268477,20.08632,1894.0272,5.0606403232,2
2025-04-01T10:47:21.750,1743497241750,11.8238913466163,46.3789718720059,20.08632,1894.0272,5.0606403232,2
2025-04-01T10:47:21.850,1743497241850,11.8238965504679,46.3789690700879,20.08632,1894.0272,5.0606403232,2
2025-04-01T10:47:21.950,1743497241950,11.8239018905783,46.3789662075545,20.17776,1894.0272,5.0606403232,2
2025-04-01T10:47:22.050,1743497242050,11.8239070886698,46.3789634064092,20.17776,1894.0272,5.0606403232,2
2025-04-01T10:47:22.150,1743497242150,11.8239122637204,46.3789606588904,20.29968,1894.0272,5.0606403232,2
2025-04-01T10:47:22.250,1743497242250,11.8239174469148,46.3789578571819,20.29968,1894.0272,4.98197558848,2
2025-04-01T10:47:22.350,1743497242350,11.8239225891918,46.3789550372305,20.29968,1894.0272,4.98197558848,2
2025-04-01T10:47:22.450,1743497242450,11.8239277404071,46.3789522446142,20.39112,1894.332,4.98197558848,2
2025-04-01T10:47:22.550,1743497242550,11.8239328912251,46.3789492851958,20.39112,1894.332,4.98197558848,2
2025-04-01T10:47:22.650,1743497242650,11.8239379963587,46.3789465033399,20.39112,1894.332,4.98197558848,2
2025-04-01T10:47:22.750,1743497242750,11.8239429624528,46.3789436265476,20.48256,1894.332,4.92037392352,2
2025-04-01T10:47:22.850,1743497242850,11.8239479972721,46.3789408488098,20.48256,1894.332,4.84149505664,2
2025-04-01T10:47:22.950,1743497242950,11.8239532114524,46.3789381071582,20.574,1894.332,4.84149505664,2
2025-04-01T10:47:23.050,1743497243050,11.8239582440869,46.3789353516643,20.574,1894.332,4.84149505664,2
2025-04-01T10:47:23.150,1743497243150,11.8239628367606,46.3789329157298,20.69592,1894.332,4.84149505664,2
2025-04-01T10:47:23.250,1743497243250,11.8239685234766,46.3789295999805,20.69592,1894.332,4.84149505664,2
2025-04-01T10:47:23.350,1743497243350,11.8239735696177,46.3789268181746,20.69592,1894.332,4.84149505664,2
2025-04-01T10:47:23.450,1743497243450,11.8239786211218,46.378924025734,20.78736,1894.6368,4.84149505664,2
2025-04-01T10:47:23.550,1743497243550,11.8239834144097,46.3789215280008,20.78736,1894.6368,4.84149505664,2
2025-04-01T10:47:23.650,1743497243650,11.8239884400921,46.3789187544874,20.78736,1894.6368,4.84149505664,2
2025-04-01T10:47:23.750,1743497243750,11.8239933803646,46.3789159801604,20.8788,1894.6368,4.84149505664,2
2025-04-01T10:47:23.850,1743497243850,11.8239984000882,46.3789132125479,20.8788,1894.6368,4.84149505664,2
2025-04-01T10:47:23.950,1743497243950,11.8240033465182,46.3789105114252,20.8788,1894.6368,4.84149505664,2
2025-04-01T10:47:24.050,1743497244050,11.8240083714061,46.3789077550663,20.97024,1894.6368,4.84149505664,2
2025-04-01T10:47:24.150,1743497244150,11.8240135236146,46.3789050899398,20.97024,1894.6368,4.84149505664,2
2025-04-01T10:47:24.250,1743497244250,11.8240185898171,46.3789023433614,20.97024,1894.6368,4.92037392352,2
2025-04-01T10:47:24.350,1743497244350,11.824023589678,46.3788994873686,21.09216,1894.9416,4.92037392352,2
2025-04-01T10:47:24.550,1743497244550,11.8240333764705,46.3788941525164,21.09216,1894.9416,4.92037392352,2
2025-04-01T10:47:24.650,1743497244650,11.8240384172487,46.3788914165965,21.1836,1894.9416,4.92037392352,2
2025-04-01T10:47:24.750,1743497244750,11.8240437609344,46.3788884400297,21.1836,1894.9416,4.92037392352,2
2025-04-01T10:47:24.860,1743497244860,11.824048828726,46.3788856551984,21.1836,1894.9416,4.98197558848,2
2025-04-01T10:47:24.950,1743497244950,11.8240538530181,46.3788828594562,21.27504,1894.9416,4.98197558848,2
2025-04-01T10:47:25.050,1743497245050,11.8240589212069,46.3788800855488,21.27504,1894.9416,4.98197558848,2
2025-04-01T10:47:25.150,1743497245150,11.8240641192984,46.3788773555169,21.39696,1895.2464,4.92037392352,2
2025-04-01T10:47:25.260,1743497245260,11.8240692150965,46.3788746073114,21.39696,1895.2464,4.92037392352,2
2025-04-01T10:47:25.350,1743497245350,11.8240742326352,46.3788718037027,21.39696,1895.2464,4.92037392352,2
2025-04-01T10:47:25.470,1743497245470,11.8240793063856,46.3788690456909,21.4884,1895.2464,4.92037392352,2
2025-04-01T10:47:25.550,1743497245550,11.824084279233,46.3788663772628,21.4884,1895.2464,4.84149505664,2
2025-04-01T10:47:25.670,1743497245670,11.8240893317303,46.378863604289,21.57984,1895.2464,4.84149505664,2
2025-04-01T10:47:25.770,1743497245770,11.8240944583157,46.3788606247161,21.57984,1895.2464,4.84149505664,2
2025-04-01T10:47:25.870,1743497245870,11.8240998532474,46.3788577851454,21.57984,1895.2464,4.98197558848,2
2025-04-01T10:47:25.950,1743497245950,11.8241049645384,46.3788549620271,21.67128,1895.5512,4.98197558848,2
2025-04-01T10:47:26.050,1743497246050,11.8241100855623,46.3788521405017,21.67128,1895.5512,4.92037392352,2
2025-04-01T10:47:26.180,1743497246180,11.8241148518367,46.3788495052178,21.7932,1895.5512,4.92037392352,2
2025-04-01T10:47:26.280,1743497246280,11.824119958758,46.3788467076042,21.7932,1895.5512,4.92037392352,2
2025-04-01T10:47:26.380,1743497246380,11.8241249909952,46.3788438884511,21.7932,1895.5512,4.92037392352,2
2025-04-01T10:47:26.480,1743497246480,11.8241300925535,46.3788410900153,21.7932,1895.5512,4.92037392352,2
2025-04-01T10:47:26.580,1743497246580,11.8241349795937,46.3788385474839,21.88464,1895.5512,4.92037392352,2
2025-04-01T10:47:26.690,1743497246690,11.8241400479812,46.3788357644127,21.88464,1895.5512,4.92037392352,2
2025-04-01T10:47:26.750,1743497246750,11.8241455831441,46.3788326811934,21.88464,1895.5512,4.98197558848,2
2025-04-01T10:47:26.850,1743497246850,11.8241506924489,46.3788298717266,21.97608,1895.856,4.98197558848,2
2025-04-01T10:47:26.950,1743497246950,11.8241557385901,46.3788270700449,21.97608,1895.856,4.92037392352,2
2025-04-01T10:47:27.050,1743497247050,11.8241608288266,46.3788242756344,21.97608,1895.856,4.92037392352,2
2025-04-01T10:47:27.150,1743497247150,11.8241658980085,46.3788216793956,22.098,1895.856,4.92037392352,2
2025-04-01T10:47:27.250,1743497247250,11.8241709640125,46.3788189145495,22.098,1895.856,4.84149505664,2
2025-04-01T10:47:27.350,1743497247350,11.8241760252493,46.3788161224856,22.098,1895.856,4.92037392352,2
2025-04-01T10:47:27.450,1743497247450,11.8241810938354,46.3788133515929,22.18944,1895.856,4.84149505664,2
2025-04-01T10:47:27.550,1743497247550,11.824186211284,46.3788105002548,22.18944,1895.856,4.92037392352,2
2025-04-01T10:47:27.650,1743497247650,11.8241912802673,46.3788077276493,22.28088,1896.1608,4.84149505664,2
2025-04-01T10:47:27.750,1743497247750,11.8241964374414,46.378805043377,22.28088,1896.1608,4.84149505664,2
2025-04-01T10:47:27.850,1743497247850,11.824201503644,46.3788022724501,22.37232,1896.1608,4.84149505664,2
2025-04-01T10:47:27.950,1743497247950,11.8242064752996,46.3787995509912,22.37232,1896.1608,4.84149505664,2
2025-04-01T10:47:28.050,1743497248050,11.8242115478583,46.3787967761418,22.37232,1896.1608,4.84149505664,2
2025-04-01T10:47:28.150,1743497248150,11.824216577116,46.3787940247931,22.49424,1896.1608,4.92037392352,2
2025-04-01T10:47:28.250,1743497248250,11.8242216659622,46.378791270207,22.49424,1896.1608,4.92037392352,2
2025-04-01T10:47:28.350,1743497248350,11.8242267349455,46.3787884147152,22.58568,1896.4656,4.92037392352,2
2025-04-01T10:47:28.450,1743497248450,11.8242318126685,46.3787856744489,22.58568,1896.4656,4.84149505664,2
2025-04-01T10:47:28.550,1743497248550,11.8242366448874,46.3787829053376,22.67712,1896.4656,4.84149505664,2
2025-04-01T10:47:28.650,1743497248650,11.8242416743438,46.3787801729505,22.67712,1896.4656,4.84149505664,2
2025-04-01T10:47:28.750,1743497248750,11.8242466376571,46.378777475352,22.67712,1896.4656,4.84149505664,2
2025-04-01T10:47:28.850,1743497248850,11.8242516597642,46.3787747416631,22.79904,1896.4656,4.84149505664,2
2025-04-01T10:47:28.950,1743497248950,11.8242566929946,46.3787720933956,22.79904,1896.4656,4.84149505664,2
2025-04-01T10:47:29.050,1743497249050,11.8242617313892,46.3787693611626,22.89048,1896.7704,4.84149505664,2
2025-04-01T10:47:29.150,1743497249150,11.8242666863602,46.3787665180378,22.89048,1896.7704,4.84149505664,2
2025-04-01T10:47:29.230,1743497249230,11.8242716946627,46.3787637862159,22.98192,1896.7704,4.84149505664,2
2025-04-01T10:47:29.330,1743497249330,11.8242766311612,46.3787611708871,22.98192,1896.7704,4.84149505664,2
2025-04-01T10:47:29.450,1743497249450,11.8242816104641,46.3787584560227,22.98192,1896.7704,4.84149505664,2
2025-04-01T10:47:29.550,1743497249550,11.8242866743824,46.378755636176,23.07336,1896.7704,4.84149505664,2
2025-04-01T10:47:29.650,1743497249650,11.824291658353,46.378752916036,23.07336,1896.7704,4.84149505664,2
2025-04-01T10:47:29.740,1743497249740,11.8242966419264,46.3787502565662,23.19528,1897.0752,4.84149505664,2
2025-04-01T10:47:29.840,1743497249840,11.8243016866771,46.3787475369572,23.19528,1897.0752,4.84149505664,2
2025-04-01T10:47:29.940,1743497249940,11.8243068193207,46.3787448639214,23.19528,1897.0752,4.92037392352,2
2025-04-01T10:47:30.050,1743497250050,11.8243119457075,46.3787421491598,23.28672,1897.0752,4.92037392352,2
2025-04-01T10:47:30.150,1743497250150,11.8243169499382,46.3787393538415,23.28672,1897.0752,4.92037392352,2
2025-04-01T10:47:30.250,1743497250250,11.8243220827804,46.3787366355342,23.28672,1897.0752,4.92037392352,2
2025-04-01T10:47:30.350,1743497250350,11.8243272311155,46.3787338854702,23.37816,1897.0752,4.92037392352,2
2025-04-01T10:47:30.450,1743497250450,11.8243323518414,46.3787311579991,23.37816,1897.0752,4.92037392352,2
2025-04-01T10:47:30.550,1743497250550,11.8243369924838,46.378728788657,23.37816,1897.0752,4.92037392352,2
2025-04-01T10:47:30.650,1743497250650,11.8243420635527,46.3787260922233,23.4696,1897.38,4.92037392352,2
2025-04-01T10:47:30.750,1743497250750,11.8243477248444,46.3787230202233,23.4696,1897.38,4.92037392352,2
2025-04-01T10:47:30.860,1743497250860,11.8243528498408,46.3787202917245,23.4696,1897.38,4.92037392352,2
2025-04-01T10:47:30.960,1743497250960,11.8243578863484,46.3787176452212,23.59152,1897.38,4.92037392352,2
2025-04-01T10:47:31.050,1743497251050,11.8243633251769,46.3787147704937,23.59152,1897.38,4.92037392352,2
2025-04-01T10:47:31.160,1743497251160,11.824368420975,46.3787120302959,23.68296,1897.38,4.84149505664,2
2025-04-01T10:47:31.260,1743497251260,11.8243734962151,46.3787092971551,23.68296,1897.38,4.84149505664,2
2025-04-01T10:47:31.350,1743497251350,11.8243780067562,46.378706881788,23.68296,1897.38,4.84149505664,2
2025-04-01T10:47:31.470,1743497251470,11.8243830483289,46.3787041953061,23.7744,1897.6848,4.84149505664,2
2025-04-01T10:47:31.570,1743497251570,11.8243880006183,46.3787013959625,23.7744,1897.6848,4.78017502688,2
2025-04-01T10:47:31.670,1743497251670,11.8243930328555,46.3786986953836,23.89632,1897.6848,4.84149505664,2
2025-04-01T10:47:31.750,1743497251750,11.8243981482185,46.3786960901436,23.89632,1897.6848,4.84149505664,2
2025-04-01T10:47:31.870,1743497251870,11.8244032096539,46.3786933906609,23.98776,1897.6848,4.92037392352,2
2025-04-01T10:47:31.970,1743497251970,11.824407745818,46.3786908436931,23.98776,1897.6848,4.92037392352,2
2025-04-01T10:47:32.070,1743497252070,11.8244127786511,46.3786881360057,23.98776,1897.6848,4.92037392352,2
2025-04-01T10:47:32.180,1743497252180,11.8244184003165,46.3786851268343,24.0792,1897.9896,4.92037392352,2
2025-04-01T10:47:32.280,1743497252280,11.8244235133952,46.3786823733959,24.0792,1897.9896,4.92037392352,2
2025-04-01T10:47:32.380,1743497252380,11.8244286019434,46.3786796515601,24.0792,1897.9896,4.92037392352,2
2025-04-01T10:47:32.480,1743497252480,11.8244337197892,46.3786768903624,24.17064,1897.9896,4.92037392352,2
2025-04-01T10:47:32.580,1743497252580,11.8244388954357,46.378674265253,24.17064,1897.9896,4.92037392352,2
2025-04-01T10:47:32.680,1743497252680,11.8244440064288,46.3786715122942,24.17064,1897.9896,4.92037392352,2
2025-04-01T10:47:32.790,1743497252790,11.8244488942636,46.3786687503085,24.29256,1897.9896,4.92037392352,2
2025-04-01T10:47:32.850,1743497252850,11.8244539620551,46.3786659938896,24.29256,1897.9896,4.92037392352,2
2025-04-01T10:47:32.950,1743497252950,11.8244591646157,46.3786632446649,24.29256,1897.9896,4.92037392352,2
2025-04-01T10:47:33.050,1743497253050,11.8244642381675,46.3786604831589,24.384,1898.2944,4.98197558848,2
2025-04-01T10:47:33.150,1743497253150,11.8244693179761,46.3786577132939,24.384,1898.2944,4.98197558848,2
2025-04-01T10:47:33.250,1743497253250,11.8244744210241,46.3786549471631,24.384,1898.2944,4.98197558848,2
2025-04-01T10:47:33.350,1743497253350,11.8244790358448,46.3786524217262,24.47544,1898.2944,4.98197558848,2
2025-04-01T10:47:33.450,1743497253450,11.8244841381976,46.3786496829329,24.47544,1898.2944,4.98197558848,2
2025-04-01T10:47:33.550,1743497253550,11.8244896961035,46.3786465649422,24.47544,1898.2944,4.92037392352,2
2025-04-01T10:47:33.650,1743497253650,11.8244952382184,46.378643546778,24.47544,1898.2944,4.92037392352,2
2025-04-01T10:47:33.750,1743497253750,11.8245004107862,46.3786407544401,24.59736,1898.2944,4.92037392352,2
2025-04-01T10:47:33.850,1743497253850,11.8245055581282,46.3786379774839,24.59736,1898.2944,4.92037392352,2
2025-04-01T10:47:33.950,1743497253950,11.8245101772194,46.378635602986,24.59736,1898.2944,4.84149505664,2
2025-04-01T10:47:34.050,1743497254050,11.8245152062785,46.3786328439465,24.6888,1898.5992,4.84149505664,2
2025-04-01T10:47:34.150,1743497254150,11.8245200659081,46.3786299390723,24.6888,1898.5992,4.84149505664,2
2025-04-01T10:47:34.250,1743497254250,11.8245250525602,46.378627131387,24.6888,1898.5992,4.90408780928,2
2025-04-01T10:47:34.350,1743497254350,11.8245300665236,46.378624318563,24.78024,1898.5992,4.90408780928,2
2025-04-01T10:47:34.450,1743497254450,11.8245350744289,46.3786214975515,24.78024,1898.5992,4.90408780928,2
2025-04-01T10:47:34.550,1743497254550,11.8245401781721,46.3786187576619,24.78024,1898.5992,4.90408780928,2
2025-04-01T10:47:34.650,1743497254650,11.8245451826014,46.378615941652,24.87168,1898.5992,4.90408780928,2
2025-04-01T10:47:34.750,1743497254750,11.8245501710411,46.3786131308835,24.87168,1898.5992,4.90408780928,2
2025-04-01T10:47:34.850,1743497254850,11.8245551371352,46.3786102955865,24.87168,1898.5992,4.90408780928,2
2025-04-01T10:47:34.950,1743497254950,11.8245602285635,46.3786072666313,24.9936,1898.904,4.90408780928,2
2025-04-01T10:47:35.050,1743497255050,11.8245651779729,46.3786043888549,24.9936,1898.904,4.96790500448,2
2025-04-01T10:47:35.150,1743497255150,11.8245699278605,46.378601516868,25.08504,1898.904,4.8918380192,2
2025-04-01T10:47:35.250,1743497255250,11.8245748479723,46.3785986154538,25.08504,1898.904,4.8918380192,2
2025-04-01T10:47:35.350,1743497255350,11.8245800630464,46.3785956812209,25.08504,1898.904,4.96790500448,2
2025-04-01T10:47:35.450,1743497255450,11.8245850332124,46.3785927727839,25.08504,1898.904,4.96790500448,2
2025-04-01T10:47:35.550,1743497255550,11.8245899967243,46.3785897756882,25.17648,1898.904,4.96790500448,2
2025-04-01T10:47:35.640,1743497255640,11.8245949766231,46.3785868710196,25.17648,1898.904,4.96790500448,2
2025-04-01T10:47:35.750,1743497255750,11.8245999677443,46.3785838443939,25.2984,1899.2088,4.96790500448,2
2025-04-01T10:47:35.850,1743497255850,11.824604934037,46.3785809324626,25.2984,1899.2088,4.96790500448,2
2025-04-01T10:47:35.940,1743497255940,11.8246096780651,46.3785780976453,25.2984,1899.2088,4.96790500448,2
2025-04-01T10:47:36.050,1743497256050,11.8246146319436,46.378575192223,25.38984,1899.2088,4.96790500448,2
2025-04-01T10:47:36.150,1743497256150,11.8246195597026,46.3785721450084,25.38984,1899.2088,4.96790500448,2
2025-04-01T10:47:36.250,1743497256250,11.8246249338776,46.3785690710044,25.38984,1899.2088,4.96790500448,2
2025-04-01T10:47:36.350,1743497256350,11.8246299847858,46.3785661572918,25.48128,1899.2088,4.96790500448,2
2025-04-01T10:47:36.450,1743497256450,11.824635044533,46.3785632514241,25.48128,1899.2088,4.96790500448,2
2025-04-01T10:47:36.560,1743497256560,11.8246393287376,46.3785609309163,25.57272,1899.5136,4.96790500448,2
2025-04-01T10:47:36.660,1743497256660,11.8246442966193,46.3785580689326,25.57272,1899.5136,4.96790500448,2
2025-04-01T10:47:36.760,1743497256760,11.8246495995863,46.3785548813647,25.57272,1899.5136,4.96790500448,2
2025-04-01T10:47:36.850,1743497256850,11.824654569653,46.3785519934823,25.69464,1899.5136,4.96790500448,2
2025-04-01T10:47:36.960,1743497256960,11.8246594758608,46.3785490483896,25.69464,1899.5136,4.90408780928,2
2025-04-01T10:47:37.060,1743497257060,11.824664427753,46.3785461721548,25.69464,1899.5136,4.90408780928,2
2025-04-01T10:47:37.170,1743497257170,11.8246695626808,46.3785432732415,25.78608,1899.5136,4.90408780928,2
2025-04-01T10:47:37.270,1743497257270,11.8246745255968,46.3785404062905,25.78608,1899.5136,4.90408780928,2
2025-04-01T10:47:37.370,1743497257370,11.8246795533649,46.3785375087132,25.87752,1899.8184,4.90408780928,2
2025-04-01T10:47:37.470,1743497257470,11.8246845205514,46.3785346387818,25.87752,1899.8184,4.90408780928,2
2025-04-01T10:47:37.580,1743497257580,11.8246894236805,46.3785318497326,25.87752,1899.8184,4.90408780928,2
2025-04-01T10:47:37.680,1743497257680,11.8246943951376,46.3785289904553,25.99944,1899.8184,4.90408780928,2
2025-04-01T10:47:37.780,1743497257780,11.824699333821,46.378525989694,25.99944,1899.8184,4.90408780928,2
2025-04-01T10:47:37.880,1743497257880,11.8247043019014,46.3785231283955,25.99944,1899.8184,4.90408780928,2
2025-04-01T10:47:37.990,1743497257990,11.8247092377047,46.3785204971712,26.09088,1899.8184,4.90408780928,2
2025-04-01T10:47:38.050,1743497258050,11.8247141974427,46.3785176503979,26.09088,1899.8184,4.90408780928,2
2025-04-01T10:47:38.150,1743497258150,11.8247192674192,46.3785146385372,26.09088,1899.8184,4.90408780928,2
2025-04-01T10:47:38.250,1743497258250,11.8247242304346,46.3785117655226,26.18232,1900.1232,4.90408780928,2
2025-04-01T10:47:38.350,1743497258350,11.8247291161837,46.3785088989484,26.18232,1900.1232,4.90408780928,2
2025-04-01T10:47:38.450,1743497258450,11.8247340762197,46.3785060228506,26.18232,1900.1232,4.90408780928,2
2025-04-01T10:47:38.550,1743497258550,11.8247385999695,46.3785034121466,26.27376,1900.1232,4.90408780928,2
2025-04-01T10:47:38.650,1743497258650,11.8247435410365,46.3785005782199,26.27376,1900.1232,4.90408780928,2
2025-04-01T10:47:38.750,1743497258750,11.8247491361851,46.3784973704057,26.27376,1900.1232,4.90408780928,2
2025-04-01T10:47:38.850,1743497258850,11.8247544376623,46.3784943910897,26.27376,1900.1232,4.90408780928,2
2025-04-01T10:47:38.950,1743497258950,11.8247594525196,46.3784915066331,26.39568,1900.1232,4.90408780928,2
2025-04-01T10:47:39.050,1743497259050,11.8247644406614,46.3784886227931,26.39568,1900.1232,4.90408780928,2
2025-04-01T10:47:39.150,1743497259150,11.8247689308431,46.3784860464151,26.48712,1900.428,4.827014984,2
2025-04-01T10:47:39.250,1743497259250,11.8247738258284,46.3784831718932,26.48712,1900.428,4.827014984,2
2025-04-01T10:47:39.350,1743497259350,11.8247787713645,46.3784801177586,26.48712,1900.428,4.8918380192,2
2025-04-01T10:47:39.450,1743497259450,11.8247836810483,46.3784772155565,26.48712,1900.428,4.8918380192,2
2025-04-01T10:47:39.550,1743497259550,11.8247885970882,46.3784743513804,26.57856,1900.428,4.8918380192,2
2025-04-01T10:47:39.650,1743497259650,11.8247935258402,46.3784714337966,26.57856,1900.428,4.8918380192,2
2025-04-01T10:47:39.750,1743497259750,11.8247986051522,46.3784684450941,26.57856,1900.428,4.8918380192,2
2025-04-01T10:47:39.850,1743497259850,11.8248035200004,46.3784655163766,26.67,1900.428,4.8918380192,2
2025-04-01T10:47:39.950,1743497259950,11.8248083440755,46.3784625991354,26.67,1900.428,4.8918380192,2
2025-04-01T10:47:40.050,1743497260050,11.8248132306192,46.3784596704522,26.67,1900.428,4.8918380192,2
2025-04-01T10:47:40.150,1743497260150,11.8248181753608,46.3784567831179,26.79192,1900.7328,4.8918380192,2
2025-04-01T10:47:40.250,1743497260250,11.8248230543565,46.3784538596076,26.79192,1900.7328,4.8918380192,2
2025-04-01T10:47:40.350,1743497260350,11.824827883894,46.3784508433962,26.79192,1900.7328,4.8918380192,2
2025-04-01T10:47:40.450,1743497260450,11.8248327548453,46.3784479136852,26.88336,1900.7328,4.8918380192,2
2025-04-01T10:47:40.550,1743497260550,11.8248370995321,46.3784453092503,26.88336,1900.7328,4.8918380192,2
2025-04-01T10:47:40.640,1743497260640,11.824841925097,46.3784424008819,26.88336,1900.7328,4.8918380192,2
2025-04-01T10:47:40.740,1743497260740,11.8248473560796,46.3784390910827,26.9748,1900.7328,4.8918380192,2
2025-04-01T10:47:40.840,1743497260840,11.8248522333871,46.3784361396182,26.9748,1900.7328,4.8918380192,2
2025-04-01T10:47:40.940,1743497260940,11.8248571857759,46.378433296442,26.9748,1900.7328,4.8918380192,2
2025-04-01T10:47:41.050,1743497261050,11.8248620364672,46.3784303644358,27.09672,1900.7328,4.8918380192,2
2025-04-01T10:47:41.150,1743497261150,11.8248667628174,46.3784273774461,27.09672,1900.7328,4.81664544416,2
2025-04-01T10:47:41.250,1743497261250,11.8248715608724,46.3784244567449,27.18816,1901.0376,4.81664544416,2
2025-04-01T10:47:41.350,1743497261350,11.8248762707365,46.3784215163456,27.18816,1901.0376,4.81664544416,2
2025-04-01T10:47:41.450,1743497261450,11.8248810449561,46.3784186102381,27.18816,1901.0376,4.81664544416,2
2025-04-01T10:47:41.550,1743497261550,11.8248858757846,46.3784156674408,27.2796,1901.0376,4.81664544416,2
2025-04-01T10:47:41.660,1743497261660,11.8248906913188,46.3784127614018,27.2796,1901.0376,4.8918380192,2
2025-04-01T10:47:41.760,1743497261760,11.824895538832,46.3784099471048,27.2796,1901.0376,4.827014984,2
2025-04-01T10:47:41.850,1743497261850,11.824900399554,46.3784070550087,27.37104,1901.0376,4.827014984,2
2025-04-01T10:47:41.960,1743497261960,11.8249051661264,46.3784041974443,27.37104,1901.0376,4.827014984,2
2025-04-01T10:47:42.060,1743497262060,11.8249100421428,46.3784013139468,27.37104,1901.0376,4.827014984,2
2025-04-01T10:47:42.160,1743497262160,11.8249148843924,46.3783982683424,27.49296,1901.3424,4.827014984,2
2025-04-01T10:47:42.260,1743497262260,11.8249197542513,46.3783953642904,27.49296,1901.3424,4.827014984,2
2025-04-01T10:47:42.370,1743497262370,11.824924633545,46.3783924759627,27.49296,1901.3424,4.8918380192,2
2025-04-01T10:47:42.470,1743497262470,11.8249295222736,46.3783895626268,27.5844,1901.3424,4.8918380192,2
2025-04-01T10:47:42.570,1743497262570,11.8249339572367,46.3783868809753,27.5844,1901.3424,4.8918380192,2
2025-04-01T10:47:42.670,1743497262670,11.8249388402051,46.3783839728466,27.5844,1901.3424,4.8918380192,2
2025-04-01T10:47:42.770,1743497262770,11.8249441810107,46.3783807665397,27.67584,1901.3424,4.96790500448,2
2025-04-01T10:47:42.870,1743497262870,11.8249491383651,46.3783778096625,27.67584,1901.3424,4.96790500448,2
2025-04-01T10:47:42.980,1743497262980,11.824954158784,46.3783748905029,27.67584,1901.3424,4.96790500448,2
2025-04-01T10:47:43.050,1743497263050,11.8249591303403,46.3783719308508,27.67584,1901.3424,4.96790500448,2
2025-04-01T10:47:43.180,1743497263180,11.8249640345618,46.3783690597203,27.79776,1901.6472,5.03290015008,2
2025-04-01T10:47:43.280,1743497263280,11.8249690159503,46.3783661060976,27.79776,1901.6472,5.03290015008,2
2025-04-01T10:47:43.380,1743497263380,11.8249735926344,46.3783633621999,27.79776,1901.6472,4.96790500448,2
2025-04-01T10:47:43.480,1743497263480,11.8249785554512,46.3783604200192,27.8892,1901.6472,4.96790500448,2
2025-04-01T10:47:43.590,1743497263590,11.8249839748141,46.3783571850729,27.8892,1901.6472,5.03290015008,2
2025-04-01T10:47:43.650,1743497263650,11.8249889872878,46.3783542163768,27.8892,1901.6472,4.96790500448,2
2025-04-01T10:47:43.750,1743497263750,11.8249939027318,46.3783512852956,27.8892,1901.6472,5.03290015008,2
2025-04-01T10:47:43.850,1743497263850,11.8249989027913,46.3783483156402,27.98064,1901.6472,5.03290015008,2
2025-04-01T10:47:43.950,1743497263950,11.8250039116897,46.3783454071005,27.98064,1901.6472,4.96790500448,2
2025-04-01T10:47:44.050,1743497264050,11.8250092593479,46.3783422636221,28.07208,1901.952,4.96790500448,2
2025-04-01T10:47:44.150,1743497264150,11.8250142739072,46.3783392986258,28.07208,1901.952,4.96790500448,2
2025-04-01T10:47:44.250,1743497264250,11.8250192547991,46.3783363415088,28.07208,1901.952,4.8918380192,2
2025-04-01T10:47:44.350,1743497264350,11.8250236885705,46.3783335795231,28.194,1901.952,4.8918380192,2
2025-04-01T10:47:44.450,1743497264450,11.8250285683608,46.3783306587876,28.194,1901.952,4.8918380192,2
2025-04-01T10:47:44.550,1743497264550,11.8250329524752,46.3783280128667,28.28544,1901.952,4.8918380192,2
2025-04-01T10:47:44.650,1743497264650,11.8250378184609,46.3783251195374,28.28544,1901.952,4.8918380192,2
2025-04-01T10:47:44.750,1743497264750,11.8250428778108,46.3783221330273,28.37688,1902.2568,4.96790500448,2
2025-04-01T10:47:44.850,1743497264850,11.8250477983198,46.378319221747,28.37688,1902.2568,4.96790500448,2
2025-04-01T10:47:44.950,1743497264950,11.8250532545282,46.378315936579,28.37688,1902.2568,4.96790500448,2
2025-04-01T10:47:45.050,1743497265050,11.8250582067183,46.3783129898763,28.4988,1902.2568,4.8918380192,2
2025-04-01T10:47:45.150,1743497265150,11.8250630799539,46.3783101014115,28.4988,1902.2568,4.8918380192,2
2025-04-01T10:47:45.250,1743497265250,11.8250680001649,46.3783071605326,28.59024,1902.2568,4.8918380192,2
2025-04-01T10:47:45.350,1743497265350,11.8250729060748,46.3783041536735,28.59024,1902.2568,4.8918380192,2
2025-04-01T10:47:45.450,1743497265450,11.8250778285701,46.378301209917,28.59024,1902.2568,4.8918380192,2
2025-04-01T10:47:45.550,1743497265550,11.8250827853287,46.378298401752,28.59024,1902.2568,4.96790500448,2
2025-04-01T10:47:45.650,1743497265650,11.8250877503303,46.3782954577899,28.68168,1902.5616,4.96790500448,2
2025-04-01T10:47:45.750,1743497265750,11.8250928305361,46.3782924574398,28.68168,1902.5616,4.96790500448,2
2025-04-01T10:47:45.850,1743497265850,11.8250978456913,46.3782894938138,28.68168,1902.5616,4.96790500448,2
2025-04-01T10:47:45.950,1743497265950,11.8251027552758,46.3782864900379,28.68168,1902.5616,4.96790500448,2
2025-04-01T10:47:46.050,1743497266050,11.8251077731621,46.3782835292895,28.77312,1902.5616,4.96790500448,2
2025-04-01T10:47:46.130,1743497266130,11.8251129066002,46.3782805907401,28.77312,1902.5616,4.96790500448,2
2025-04-01T10:47:46.250,1743497266250,11.8251179246851,46.3782776452707,28.77312,1902.5616,4.96790500448,2
2025-04-01T10:47:46.350,1743497266350,11.8251227259678,46.3782747584502,28.89504,1902.5616,4.96790500448,2
2025-04-01T10:47:46.450,1743497266450,11.8251277059658,46.3782718157214,28.89504,1902.5616,4.96790500448,2
2025-04-01T10:47:46.550,1743497266550,11.825132396712,46.378269149383,28.89504,1902.5616,4.96790500448,2
2025-04-01T10:47:46.640,1743497266640,11.8251381524016,46.3782657072467,28.98648,1902.8664,4.96790500448,2
2025-04-01T10:47:46.750,1743497266750,11.8251431665636,46.3782627567756,28.98648,1902.8664,4.96790500448,2
2025-04-01T10:47:46.850,1743497266850,11.825148175611,46.3782598232278,28.98648,1902.8664,4.96790500448,2
2025-04-01T10:47:46.950,1743497266950,11.8251526901743,46.37825719101,29.07792,1902.8664,4.96790500448,2
2025-04-01T10:47:47.050,1743497267050,11.8251576369518,46.3782543079579,29.07792,1902.8664,4.96790500448,2
2025-04-01T10:47:47.150,1743497267150,11.8251624839189,46.378251376397,29.19984,1902.8664,4.8918380192,2
2025-04-01T10:47:47.250,1743497267250,11.8251674059176,46.3782484918376,29.19984,1902.8664,4.8918380192,2
2025-04-01T10:47:47.360,1743497267360,11.8251724518601,46.3782456392748,29.19984,1902.8664,4.8918380192,2
2025-04-01T10:47:47.460,1743497267460,11.8251773815556,46.3782427547154,29.29128,1903.1712,4.8918380192,2
2025-04-01T10:47:47.560,1743497267560,11.8251823033557,46.3782396365876,29.29128,1903.1712,4.8918380192,2
2025-04-01T10:47:47.660,1743497267660,11.8251872093152,46.3782367438749,29.29128,1903.1712,4.8918380192,2
2025-04-01T10:47:47.760,1743497267760,11.8251921580791,46.3782340308091,29.38272,1903.1712,4.8918380192,2
2025-04-01T10:47:47.850,1743497267850,11.8251970592715,46.3782311704355,29.38272,1903.1712,4.827014984,2
2025-04-01T10:47:47.950,1743497267950,11.8252018699393,46.3782282716935,29.38272,1903.1712,4.827014984,2
2025-04-01T10:47:48.070,1743497268070,11.8252067870716,46.3782254078257,29.47416,1903.1712,4.827014984,2
2025-04-01T10:47:48.170,1743497268170,11.825211708822,46.3782224755111,29.47416,1903.1712,4.827014984,2
2025-04-01T10:47:48.270,1743497268270,11.8252166574865,46.3782195978718,29.47416,1903.1712,4.90408780928,2
2025-04-01T10:47:48.350,1743497268350,11.8252216263118,46.3782166491136,29.47416,1903.1712,4.90408780928,2
2025-04-01T10:47:48.470,1743497268470,11.8252265753735,46.3782137699669,29.59608,1903.476,4.90408780928,2
2025-04-01T10:47:48.580,1743497268580,11.8252310470829,46.378211227641,29.59608,1903.476,4.827014984,2
2025-04-01T10:47:48.680,1743497268680,11.8252359311437,46.3782083846703,29.59608,1903.476,4.827014984,2
2025-04-01T10:47:48.750,1743497268750,11.8252413288065,46.378205180967,29.59608,1903.476,4.827014984,2
2025-04-01T10:47:48.880,1743497268880,11.8252462374971,46.3782023079867,29.68752,1903.476,4.827014984,2
2025-04-01T10:47:48.980,1743497268980,11.8252511373985,46.37819954374,29.68752,1903.476,4.827014984,2
2025-04-01T10:47:49.080,1743497269080,11.8252560214096,46.3781966758298,29.68752,1903.476,4.827014984,2
2025-04-01T10:47:49.180,1743497269180,11.8252608018363,46.3781938743793,29.77896,1903.476,4.827014984,2
2025-04-01T10:47:49.290,1743497269290,11.8252661867373,46.3781906724574,29.77896,1903.476,4.827014984,2
2025-04-01T10:47:49.350,1743497269350,11.8252711109209,46.3781877681656,29.77896,1903.476,4.827014984,2
2025-04-01T10:47:49.450,1743497269450,11.8252760380343,46.3781848636682,29.8704,1903.7808,4.827014984,2
2025-04-01T10:47:49.550,1743497269550,11.8252799317365,46.378182569299,29.8704,1903.7808,4.827014984,2
2025-04-01T10:47:49.650,1743497269650,11.8252847634588,46.378179715914,29.8704,1903.7808,4.827014984,2
2025-04-01T10:47:49.750,1743497269750,11.8252901897241,46.3781764835028,29.99232,1903.7808,4.8918380192,2
2025-04-01T10:47:49.850,1743497269850,11.8252950753739,46.3781735822256,29.99232,1903.7808,4.8918380192,2
2025-04-01T10:47:49.950,1743497269950,11.8252998447271,46.3781707754995,30.08376,1903.7808,4.8918380192,2
2025-04-01T10:47:50.050,1743497270050,11.8253047078326,46.3781678723725,30.08376,1903.7808,4.8918380192,2
2025-04-01T10:47:50.150,1743497270150,11.8253096523756,46.3781650425567,30.08376,1903.7808,4.8918380192,2
2025-04-01T10:47:50.250,1743497270250,11.8253145120548,46.3781621437461,30.1752,1904.0856,4.8918380192,2
2025-04-01T10:47:50.350,1743497270350,11.8253192703345,46.378159172652,30.1752,1904.0856,4.8918380192,2
2025-04-01T10:47:50.450,1743497270450,11.8253241157622,46.3781562569181,30.1752,1904.0856,4.8918380192,2
2025-04-01T10:47:50.550,1743497270550,11.8253285092618,46.3781535558425,30.29712,1904.0856,4.8918380192,2
2025-04-01T10:47:50.650,1743497270650,11.8253333018544,46.3781506323664,30.29712,1904.0856,4.8918380192,2
2025-04-01T10:47:50.750,1743497270750,11.8253386058145,46.3781474040662,30.29712,1904.0856,4.8918380192,2
2025-04-01T10:47:50.850,1743497270850,11.8253434687215,46.3781444460584,30.38856,1904.0856,4.8918380192,2
2025-04-01T10:47:50.950,1743497270950,11.8253483640047,46.3781415478645,30.38856,1904.0856,4.8918380192,2
2025-04-01T10:47:51.050,1743497271050,11.825353242206,46.378138608904,30.38856,1904.0856,4.8918380192,2
2025-04-01T10:47:51.150,1743497271150,11.8253581431005,46.3781355200322,30.48,1904.3904,4.8918380192,2
2025-04-01T10:47:51.250,1743497271250,11.8253630057095,46.378132569013,30.48,1904.3904,4.8918380192,2
2025-04-01T10:47:51.350,1743497271350,11.8253678161786,46.3781296520459,30.48,1904.3904,4.8918380192,2
2025-04-01T10:47:51.450,1743497271450,11.8253726716867,46.3781266869126,30.48,1904.3904,4.8918380192,2
2025-04-01T10:47:51.550,1743497271550,11.825377617918,46.3781238747052,30.57144,1904.3904,4.8918380192,2
2025-04-01T10:47:51.650,1743497271650,11.8253824736247,46.3781209245767,30.57144,1904.3904,4.8918380192,2
2025-04-01T10:47:51.750,1743497271750,11.8253874269569,46.3781179362853,30.57144,1904.3904,4.8918380192,2
2025-04-01T10:47:51.850,1743497271850,11.825392273477,46.3781149821829,30.69336,1904.3904,4.8918380192,2
2025-04-01T10:47:51.950,1743497271950,11.8253970375169,46.3781118783062,30.69336,1904.3904,4.8918380192,2
2025-04-01T10:47:52.050,1743497272050,11.8254018596555,46.3781089175579,30.69336,1904.3904,4.8918380192,2
2025-04-01T10:47:52.130,1743497272130,11.8254066405788,46.378105999289,30.7848,1904.6952,4.81664544416,2
2025-04-01T10:47:52.250,1743497272250,11.8254114358529,46.3781030499827,30.7848,1904.6952,4.81664544416,2
2025-04-01T10:47:52.350,1743497272350,11.8254162607226,46.378100109926,30.7848,1904.6952,4.81664544416,2
2025-04-01T10:47:52.450,1743497272450,11.8254210463136,46.3780971579476,30.87624,1904.6952,4.81664544416,2
2025-04-01T10:47:52.550,1743497272550,11.8254255269115,46.3780944582422,30.87624,1904.6952,4.81664544416,2
2025-04-01T10:47:52.640,1743497272640,11.8254302815662,46.3780915278461,30.87624,1904.6952,4.81664544416,2
2025-04-01T10:47:52.750,1743497272750,11.8254355163045,46.3780883011217,30.99816,1904.6952,4.81664544416,2
2025-04-01T10:47:52.850,1743497272850,11.8254403389397,46.3780853416751,30.99816,1904.6952,4.8918380192,2
2025-04-01T10:47:52.940,1743497272940,11.8254451785575,46.3780823965483,30.99816,1904.6952,4.8918380192,2
2025-04-01T10:47:53.040,1743497273040,11.8254500061583,46.3780794453921,31.0896,1905,4.8918380192,2
2025-04-01T10:47:53.150,1743497273150,11.8254550085516,46.3780765112961,31.0896,1905,4.8918380192,2
2025-04-01T10:47:53.250,1743497273250,11.825459862272,46.378073578502,31.0896,1905,4.8918380192,2
2025-04-01T10:47:53.350,1743497273350,11.825464620502,46.3780706616034,31.18104,1905,4.8918380192,2
2025-04-01T10:47:53.450,1743497273450,11.8254694901126,46.3780677087343,31.18104,1905,4.8918380192,2
2025-04-01T10:47:53.550,1743497273550,11.8254740184309,46.3780649686735,31.18104,1905,4.957830064,2
2025-04-01T10:47:53.650,1743497273650,11.825478859886,46.3780619912074,31.18104,1905,4.957830064,2
2025-04-01T10:47:53.750,1743497273750,11.8254841917533,46.3780588067569,31.27248,1905,4.957830064,2
2025-04-01T10:47:53.860,1743497273860,11.8254890821702,46.3780557954443,31.27248,1905,4.957830064,2
2025-04-01T10:47:53.960,1743497273960,11.8254938868792,46.3780527919425,31.27248,1905,4.957830064,2
2025-04-01T10:47:54.060,1743497274060,11.8254987591216,46.3780497916609,31.3944,1905.3048,4.957830064,2
2025-04-01T10:47:54.160,1743497274160,11.8255035389524,46.378046810632,31.3944,1905.3048,4.8918380192,2
2025-04-01T10:47:54.260,1743497274260,11.8255084044912,46.3780438360436,31.3944,1905.3048,4.8918380192,2
2025-04-01T10:47:54.350,1743497274350,11.8255131941044,46.3780409176377,31.48584,1905.3048,4.8918380192,2
2025-04-01T10:47:54.470,1743497274470,11.8255180680848,46.3780379536691,31.48584,1905.3048,4.8918380192,2
2025-04-01T10:47:54.570,1743497274570,11.8255230717196,46.3780349681182,31.48584,1905.3048,4.8918380192,2
2025-04-01T10:47:54.670,1743497274670,11.825527979715,46.3780319870209,31.57728,1905.3048,4.957830064,2
2025-04-01T10:47:54.770,1743497274770,11.8255324238151,46.3780293123921,31.57728,1905.3048,4.957830064,2
2025-04-01T10:47:54.870,1743497274870,11.8255372925319,46.3780263468477,31.57728,1905.3048,4.957830064,2
2025-04-01T10:47:54.970,1743497274970,11.8255427257491,46.3780230936079,31.57728,1905.3048,4.957830064,2
2025-04-01T10:47:55.080,1743497275080,11.8255476393061,46.3780200888728,31.6992,1905.6096,4.957830064,2
2025-04-01T10:47:55.180,1743497275180,11.8255523584064,46.3780169996584,31.6992,1905.6096,4.957830064,2
2025-04-01T10:47:55.280,1743497275280,11.8255572541366,46.3780140026655,31.6992,1905.6096,4.957830064,2
2025-04-01T10:47:55.380,1743497275380,11.8255621542366,46.3780110032746,31.6992,1905.6096,4.8918380192,2
2025-04-01T10:47:55.480,1743497275480,11.8255670684143,46.3780080262196,31.79064,1905.6096,4.8918380192,2
2025-04-01T10:47:55.590,1743497275590,11.8255719985568,46.3780052480643,31.79064,1905.6096,4.8918380192,2
2025-04-01T10:47:55.650,1743497275650,11.8255769117911,46.378002274024,31.79064,1905.6096,4.8918380192,2
2025-04-01T10:47:55.750,1743497275750,11.8255818243053,46.3779992197524,31.88208,1905.6096,4.957830064,2
2025-04-01T10:47:55.850,1743497275850,11.8255867265157,46.3779962005606,31.88208,1905.6096,4.957830064,2
2025-04-01T10:47:55.950,1743497275950,11.8255915840845,46.3779932021974,31.88208,1905.6096,4.957830064,2
2025-04-01T10:47:56.050,1743497276050,11.8255964851528,46.3779901865683,31.88208,1905.6096,4.957830064,2
2025-04-01T10:47:56.150,1743497276150,11.825601362783,46.3779872379472,31.97352,1905.9144,4.957830064,2
2025-04-01T10:47:56.250,1743497276250,11.8256062655396,46.3779842368434,31.97352,1905.9144,4.8918380192,2
2025-04-01T10:47:56.350,1743497276350,11.8256110162466,46.3779812813707,31.97352,1905.9144,4.8918380192,2
2025-04-01T10:47:56.450,1743497276450,11.8256159023434,46.3779782843778,32.09544,1905.9144,4.8918380192,2
2025-04-01T10:47:56.550,1743497276550,11.8256204239331,46.3779755635698,32.09544,1905.9144,4.957830064,2
2025-04-01T10:47:56.650,1743497276650,11.8256252737803,46.3779725844594,32.09544,1905.9144,4.957830064,2
2025-04-01T10:47:56.750,1743497276750,11.8256302564846,46.3779695132645,32.09544,1905.9144,4.957830064,2
2025-04-01T10:47:56.850,1743497276850,11.8256351270387,46.3779665014038,32.18688,1905.9144,4.957830064,2
2025-04-01T10:47:56.950,1743497276950,11.82564050176,46.3779631568331,32.18688,1905.9144,4.957830064,2
2025-04-01T10:47:57.050,1743497277050,11.8256457577267,46.37795988852,32.18688,1905.9144,4.957830064,2
2025-04-01T10:47:57.150,1743497277150,11.8256506549217,46.3779568133512,32.27832,1906.2192,4.957830064,2
2025-04-01T10:47:57.250,1743497277250,11.8256555188218,46.377953754215,32.27832,1906.2192,4.88365405792,2
2025-04-01T10:47:57.350,1743497277350,11.8256596651787,46.3779511042517,32.27832,1906.2192,4.88365405792,2
2025-04-01T10:47:57.450,1743497277450,11.8256644264378,46.3779480989,32.27832,1906.2192,4.88365405792,2
2025-04-01T10:47:57.550,1743497277550,11.8256691376675,46.3779450827913,32.36976,1906.2192,4.88365405792,2
2025-04-01T10:47:57.650,1743497277650,11.8256738929181,46.3779420708621,32.36976,1906.2192,4.88365405792,2
2025-04-01T10:47:57.750,1743497277750,11.8256787845516,46.3779388197462,32.36976,1906.2192,4.88365405792,2
2025-04-01T10:47:57.850,1743497277850,11.8256835443955,46.3779357772592,32.49168,1906.2192,4.88365405792,2
2025-04-01T10:47:57.950,1743497277950,11.8256883941681,46.3779326227498,32.49168,1906.2192,4.88365405792,2
2025-04-01T10:47:58.050,1743497278050,11.8256931689587,46.3779295469644,32.49168,1906.2192,4.88365405792,2
2025-04-01T10:47:58.150,1743497278150,11.8256978793195,46.3779263938253,32.49168,1906.2192,4.95177535424,2
2025-04-01T10:47:58.240,1743497278240,11.825702657015,46.377923304611,32.58312,1906.524,4.95177535424,2
2025-04-01T10:47:58.350,1743497278350,11.8257075618573,46.3779202301959,32.58312,1906.524,4.88365405792,2
2025-04-01T10:47:58.450,1743497278450,11.8257123485159,46.377917159275,32.58312,1906.524,4.88365405792,2
2025-04-01T10:47:58.550,1743497278550,11.8257166321991,46.377914274099,32.58312,1906.524,4.88365405792,2
2025-04-01T10:47:58.640,1743497278640,11.8257213393073,46.3779112307213,32.58312,1906.524,4.88365405792,2
2025-04-01T10:47:58.750,1743497278750,11.825726598452,46.3779078455896,32.67456,1906.524,4.88365405792,2
2025-04-01T10:47:58.850,1743497278850,11.8257313669362,46.3779047682284,32.67456,1906.524,4.88365405792,2
2025-04-01T10:47:58.950,1743497278950,11.8257361994779,46.377901777813,32.67456,1906.524,4.88365405792,2
2025-04-01T10:47:59.050,1743497279050,11.8257409792218,46.3778987012054,32.67456,1906.524,4.88365405792,2
2025-04-01T10:47:59.160,1743497279160,11.825745717167,46.3778954840046,32.67456,1906.524,4.95177535424,2
2025-04-01T10:47:59.260,1743497279260,11.8257504830566,46.3778923875961,32.67456,1906.524,4.95177535424,2
2025-04-01T10:47:59.350,1743497279350,11.8257553407619,46.3778893827239,32.79648,1906.524,4.95177535424,2
2025-04-01T10:47:59.460,1743497279460,11.825760098185,46.3778862964557,32.79648,1906.524,4.95177535424,2
2025-04-01T10:47:59.570,1743497279570,11.825764744302,46.3778832951463,32.79648,1906.524,4.95177535424,2
2025-04-01T10:47:59.670,1743497279670,11.8257699382844,46.3778799229641,32.79648,1906.524,4.95177535424,2
2025-04-01T10:47:59.770,1743497279770,11.8257747089287,46.3778767959978,32.79648,1906.524,4.95177535424,2
2025-04-01T10:47:59.850,1743497279850,11.8257794794488,46.3778736666335,32.88792,1906.8288,4.95177535424,2
2025-04-01T10:47:59.970,1743497279970,11.8257837408112,46.3778708011898,32.88792,1906.8288,4.95177535424,2
2025-04-01T10:48:00.050,1743497280050,11.8257884786943,46.3778677089608,32.88792,1906.8288,4.95177535424,2
2025-04-01T10:48:00.170,1743497280170,11.825793270989,46.3778646206371,32.88792,1906.8288,4.95177535424,2
2025-04-01T10:48:00.280,1743497280280,11.8257980319253,46.3778615468386,32.88792,1906.8288,4.95177535424,2
2025-04-01T10:48:00.350,1743497280350,11.825802688371,46.3778586507001,32.97936,1906.8288,4.95177535424,2
2025-04-01T10:48:00.480,1743497280480,11.8258074250871,46.377855601019,32.97936,1906.8288,4.95177535424,2
2025-04-01T10:48:00.580,1743497280580,11.8258118225965,46.3778527139931,32.97936,1906.8288,4.95177535424,2
2025-04-01T10:48:00.680,1743497280680,11.825816529382,46.3778496828111,32.97936,1906.8288,4.95177535424,2
2025-04-01T10:48:00.790,1743497280790,11.8258217132094,46.377846388051,32.97936,1906.8288,4.88365405792,2
2025-04-01T10:48:00.850,1743497280850,11.8258264731154,46.3778433430975,33.0708,1906.8288,4.88365405792,2
2025-04-01T10:48:00.950,1743497280950,11.8258312321648,46.3778401637856,33.0708,1906.8288,4.95177535424,2
2025-04-01T10:48:01.050,1743497281050,11.8258359576274,46.377837109925,33.0708,1906.8288,4.95177535424,2
2025-04-01T10:48:01.150,1743497281150,11.8258406735373,46.377834092035,33.0708,1906.8288,4.95177535424,2
2025-04-01T10:48:01.250,1743497281250,11.8258453575178,46.3778310305693,33.0708,1906.8288,4.87955693632,2
2025-04-01T10:48:01.350,1743497281350,11.8258500032934,46.377828103873,33.0708,1906.8288,4.87955693632,2
2025-04-01T10:48:01.450,1743497281450,11.825854657101,46.3778250318559,33.19272,1907.1336,4.87955693632,2
2025-04-01T10:48:01.550,1743497281550,11.8258593906826,46.3778218629584,33.19272,1907.1336,4.87955693632,2
2025-04-01T10:48:01.650,1743497281650,11.8258640381093,46.3778187458583,33.19272,1907.1336,4.87955693632,2
2025-04-01T10:48:01.750,1743497281750,11.8258685594321,46.3778156118349,33.19272,1907.1336,4.87955693632,2
2025-04-01T10:48:01.850,1743497281850,11.8258732028615,46.3778124659584,33.19272,1907.1336,4.94975562752,2
2025-04-01T10:48:01.950,1743497281950,11.8258778390347,46.3778094090147,33.19272,1907.1336,4.94975562752,2
2025-04-01T10:48:02.050,1743497282050,11.825882487678,46.3778062569719,33.19272,1907.1336,4.94975562752,2
2025-04-01T10:48:02.150,1743497282150,11.8258873285962,46.3778029577583,33.19272,1907.1336,4.94975562752,2
2025-04-01T10:48:02.250,1743497282250,11.8258921459118,46.3777995635827,33.19272,1907.1336,4.94975562752,2
2025-04-01T10:48:02.350,1743497282350,11.8258967944837,46.3777963681697,33.19272,1907.1336,4.94975562752,2
2025-04-01T10:48:02.450,1743497282450,11.8259014366375,46.3777931724827,33.19272,1907.1336,4.94975562752,2
2025-04-01T10:48:02.550,1743497282550,11.8259052287229,46.3777906083689,33.19272,1907.1336,4.94975562752,2
2025-04-01T10:48:02.650,1743497282650,11.8259097995413,46.3777874740715,33.19272,1907.1336,4.94975562752,2
2025-04-01T10:48:02.750,1743497282750,11.825914389847,46.3777843194936,33.19272,1907.1336,4.94975562752,2
2025-04-01T10:48:02.850,1743497282850,11.8259189760762,46.3777811727264,33.28416,1907.1336,4.94975562752,2
2025-04-01T10:48:02.950,1743497282950,11.8259240305457,46.377777570059,33.28416,1907.1336,4.94975562752,2
2025-04-01T10:48:03.050,1743497283050,11.8259286644999,46.3777743804013,33.28416,1907.1336,4.94975562752,2
2025-04-01T10:48:03.150,1743497283150,11.8259334251852,46.3777712370599,33.28416,1907.1336,4.94975562752,2
2025-04-01T10:48:03.250,1743497283250,11.8259380290882,46.37776806919,33.28416,1907.1336,4.94975562752,2
2025-04-01T10:48:03.350,1743497283350,11.8259425050686,46.3777648245831,33.28416,1907.1336,4.87955693632,2
2025-04-01T10:48:03.450,1743497283450,11.825947071838,46.3777616902857,33.28416,1907.1336,4.87955693632,2
2025-04-01T10:48:03.550,1743497283550,11.825951532574,46.3777587270023,33.3756,1907.1336,4.87955693632,2
2025-04-01T10:48:03.650,1743497283650,11.8259560956094,46.3777556443654,33.3756,1907.1336,4.87955693632,2
2025-04-01T10:48:03.750,1743497283750,11.8259603323136,46.3777528930681,33.3756,1907.1336,4.87955693632,2
2025-04-01T10:48:03.840,1743497283840,11.8259648951939,46.3777498304376,33.3756,1907.1336,4.87955693632,2
2025-04-01T10:48:03.940,1743497283940,11.8259695300636,46.3777465718536,33.3756,1907.1336,4.87955693632,2
2025-04-01T10:48:04.050,1743497284050,11.8259741602516,46.3777434624957,33.49752,1907.1336,4.87955693632,2
2025-04-01T10:48:04.150,1743497284150,11.8259793905208,46.3777399882258,33.49752,1907.1336,4.95177535424,2
2025-04-01T10:48:04.240,1743497284240,11.8259841212998,46.377736816245,33.49752,1907.1336,4.95177535424,2
2025-04-01T10:48:04.350,1743497284350,11.8259888242802,46.3777336674224,33.49752,1907.1336,4.95177535424,2
2025-04-01T10:48:04.450,1743497284450,11.8259935576849,46.3777304896863,33.49752,1907.1336,4.95177535424,2
2025-04-01T10:48:04.550,1743497284550,11.8259978157824,46.3777277087904,33.49752,1907.1336,4.95177535424,2
2025-04-01T10:48:04.650,1743497284650,11.8260024659402,46.3777245690118,33.49752,1907.1336,4.87955693632,2
2025-04-01T10:48:04.750,1743497284750,11.8260075073453,46.3777211372213,33.49752,1907.1336,4.87955693632,2
2025-04-01T10:48:04.860,1743497284860,11.8260124261908,46.3777177969671,33.49752,1907.1336,4.87955693632,2
2025-04-01T10:48:04.960,1743497284960,11.8260170738472,46.3777146210125,33.58896,1907.4384,4.87955693632,2
2025-04-01T10:48:05.060,1743497285060,11.8260217222795,46.3777114469762,33.58896,1907.4384,4.87955693632,2
2025-04-01T10:48:05.160,1743497285160,11.8260259591858,46.3777084429948,33.58896,1907.4384,4.87955693632,2
2025-04-01T10:48:05.260,1743497285260,11.8260305822185,46.377705297735,33.58896,1907.4384,4.87955693632,2
2025-04-01T10:48:05.350,1743497285350,11.8260351037152,46.3777021964619,33.58896,1907.4384,4.87955693632,2
2025-04-01T10:48:05.460,1743497285460,11.8260397301308,46.3776990631237,33.58896,1907.4384,4.87955693632,2
2025-04-01T10:48:05.570,1743497285570,11.826044333158,46.3776961173802,33.58896,1907.4384,4.87955693632,2
2025-04-01T10:48:05.670,1743497285670,11.8260489508277,46.3776930096667,33.58896,1907.4384,4.87955693632,2
2025-04-01T10:48:05.750,1743497285750,11.8260536805423,46.3776898411117,33.6804,1907.4384,4.87955693632,2
2025-04-01T10:48:05.850,1743497285850,11.8260582969706,46.3776867403867,33.6804,1907.4384,4.87955693632,2
2025-04-01T10:48:05.970,1743497285970,11.8260628089393,46.3776835430553,33.6804,1907.4384,4.87955693632,2
2025-04-01T10:48:06.080,1743497286080,11.8260674153804,46.3776804505522,33.6804,1907.4384,4.87955693632,2
2025-04-01T10:48:06.150,1743497286150,11.8260721251328,46.3776774623293,33.6804,1907.4384,4.87955693632,2
2025-04-01T10:48:06.280,1743497286280,11.8260767457634,46.3776743854476,33.6804,1907.4384,4.87955693632,2
2025-04-01T10:48:06.380,1743497286380,11.8260813065201,46.3776713314501,33.6804,1907.4384,4.87955693632,2
2025-04-01T10:48:06.480,1743497286480,11.8260859076106,46.3776682382618,33.6804,1907.4384,4.87955693632,2
2025-04-01T10:48:06.590,1743497286590,11.8260900907633,46.3776654872386,33.77184,1907.4384,4.87955693632,2
2025-04-01T10:48:06.650,1743497286650,11.8260946522028,46.3776624076163,33.77184,1907.4384,4.87955693632,2
2025-04-01T10:48:06.750,1743497286750,11.8260998143798,46.3776590473557,33.77184,1907.4384,4.87955693632,2
2025-04-01T10:48:06.850,1743497286850,11.8261044393554,46.3776559318315,33.77184,1907.4384,4.87955693632,2
2025-04-01T10:48:06.950,1743497286950,11.8261090279945,46.3776527539584,33.77184,1907.4384,4.87955693632,2
2025-04-01T10:48:07.050,1743497287050,11.8261136464153,46.377649638023,33.77184,1907.4384,4.87955693632,2
2025-04-01T10:48:07.150,1743497287150,11.826118220058,46.3776465338723,33.77184,1907.4384,4.87955693632,2
2025-04-01T10:48:07.250,1743497287250,11.8261228165801,46.3776434046451,33.77184,1907.4384,4.87955693632,2
2025-04-01T10:48:07.350,1743497287350,11.8261275189833,46.3776403159788,33.89376,1907.7432,4.87955693632,2
2025-04-01T10:48:07.450,1743497287450,11.8261324164142,46.377636986413,33.89376,1907.7432,4.87955693632,2
2025-04-01T10:48:07.550,1743497287550,11.826137061625,46.3776338364941,33.89376,1907.7432,4.94975562752,2
2025-04-01T10:48:07.650,1743497287650,11.8261417155381,46.3776306812311,33.89376,1907.7432,4.94975562752,2
2025-04-01T10:48:07.750,1743497287750,11.8261459025889,46.3776279202046,33.89376,1907.7432,4.94975562752,2
2025-04-01T10:48:07.850,1743497287850,11.8261505255906,46.3776247935809,33.89376,1907.7432,4.94975562752,2
2025-04-01T10:48:07.950,1743497287950,11.8261551355325,46.3776215503443,33.89376,1907.7432,4.94975562752,2
2025-04-01T10:48:08.050,1743497288050,11.8261597736671,46.3776184037141,33.89376,1907.7432,4.94975562752,2
2025-04-01T10:48:08.150,1743497288150,11.8261645469432,46.3776153706822,33.89376,1907.7432,4.94975562752,2
2025-04-01T10:48:08.250,1743497288250,11.8261692221716,46.3776122304925,33.89376,1907.7432,5.02096418208,2
2025-04-01T10:48:08.350,1743497288350,11.8261739635431,46.3776090258985,33.89376,1907.7432,4.94975562752,2
2025-04-01T10:48:08.450,1743497288450,11.8261786485043,46.3776058789943,33.89376,1907.7432,4.94975562752,2
2025-04-01T10:48:08.550,1743497288550,11.8261829322868,46.3776029617531,33.9852,1907.7432,4.94975562752,2
2025-04-01T10:48:08.650,1743497288650,11.826187553985,46.3775998299223,33.9852,1907.7432,4.94975562752,2
2025-04-01T10:48:08.750,1743497288750,11.8261925398674,46.3775963783994,33.9852,1907.7432,4.94975562752,2
2025-04-01T10:48:08.850,1743497288850,11.8261971739302,46.3775932116258,33.9852,1907.7432,4.94975562752,2
2025-04-01T10:48:08.950,1743497288950,11.8262018615729,46.3775900630772,33.9852,1907.7432,4.94975562752,2
2025-04-01T10:48:09.050,1743497289050,11.8262064733397,46.3775869023329,33.9852,1907.7432,4.94975562752,2
2025-04-01T10:48:09.150,1743497289150,11.8262110586641,46.3775837596767,33.9852,1907.7432,4.94975562752,2
2025-04-01T10:48:09.250,1743497289250,11.8262156664335,46.3775806011249,33.9852,1907.7432,4.94975562752,2
2025-04-01T10:48:09.350,1743497289350,11.826220330936,46.3775774655942,34.07664,1907.7432,4.94975562752,2
2025-04-01T10:48:09.450,1743497289450,11.8262249620939,46.3775743019723,34.07664,1907.7432,4.94975562752,2
2025-04-01T10:48:09.550,1743497289550,11.8262295540227,46.3775711612344,34.07664,1907.7432,4.94975562752,2
2025-04-01T10:48:09.650,1743497289650,11.8262341996804,46.3775679810318,34.07664,1907.7432,4.94975562752,2
2025-04-01T10:48:09.750,1743497289750,11.8262384375551,46.3775650585835,34.07664,1907.7432,4.94975562752,2
2025-04-01T10:48:09.850,1743497289850,11.8262430518047,46.3775618830399,34.07664,1907.7432,4.94975562752,2
2025-04-01T10:48:09.950,1743497289950,11.8262480518145,46.3775584219249,34.07664,1907.7432,4.94975562752,2
2025-04-01T10:48:10.050,1743497290050,11.8262530748155,46.3775549217562,34.07664,1907.7432,4.94975562752,2
2025-04-01T10:48:10.150,1743497290150,11.826257748579,46.3775516989371,34.19856,1908.048,4.94975562752,2
2025-04-01T10:48:10.250,1743497290250,11.8262624121629,46.377548480092,34.19856,1908.048,4.94975562752,2
2025-04-01T10:48:10.350,1743497290350,11.8262665920134,46.3775456143742,34.19856,1908.048,4.94975562752,2
2025-04-01T10:48:10.450,1743497290450,11.8262711830236,46.3775424423935,34.19856,1908.048,4.94975562752,2
2025-04-01T10:48:10.550,1743497290550,11.8262752491596,46.3775395562582,34.19856,1908.048,4.94975562752,2
2025-04-01T10:48:10.660,1743497290660,11.826279795553,46.3775364025025,34.19856,1908.048,4.94975562752,2
2025-04-01T10:48:10.750,1743497290750,11.8262849421005,46.3775328571137,34.19856,1908.048,4.94975562752,2
2025-04-01T10:48:10.850,1743497290850,11.8262895685906,46.3775296623859,34.29,1908.048,4.94975562752,2
2025-04-01T10:48:10.950,1743497290950,11.8262942200085,46.3775264002391,34.29,1908.048,4.94975562752,2
2025-04-01T10:48:11.060,1743497291060,11.8262988579694,46.3775232061964,34.29,1908.048,4.94975562752,2
2025-04-01T10:48:11.170,1743497291170,11.8263033356375,46.3775201509656,34.29,1908.048,4.94975562752,2
2025-04-01T10:48:11.270,1743497291270,11.8263079496886,46.3775169874807,34.29,1908.048,4.94975562752,2
2025-04-01T10:48:11.350,1743497291350,11.8263126840584,46.3775136140651,34.38144,1908.048,4.94975562752,2
2025-04-01T10:48:11.470,1743497291470,11.8263173050118,46.377510440577,34.38144,1908.048,4.94975562752,2
2025-04-01T10:48:11.570,1743497291570,11.8263218162977,46.377507411382,34.38144,1908.048,4.94975562752,2
2025-04-01T10:48:11.670,1743497291670,11.8263264238437,46.3775042458416,34.38144,1908.048,4.94975562752,2
2025-04-01T10:48:11.750,1743497291750,11.8263309744579,46.3775009967127,34.38144,1908.048,4.94975562752,2
2025-04-01T10:48:11.870,1743497291870,11.8263355775596,46.3774978056847,34.38144,1908.048,4.94975562752,2
2025-04-01T10:48:11.980,1743497291980,11.8263399309612,46.3774947588127,34.47288,1908.3528,4.94975562752,2
2025-04-01T10:48:12.080,1743497292080,11.8263444955538,46.3774915638108,34.47288,1908.3528,4.94975562752,2
2025-04-01T10:48:12.180,1743497292180,11.8263493304046,46.377488135172,34.47288,1908.3528,4.94975562752,2
2025-04-01T10:48:12.280,1743497292280,11.8263539365105,46.3774849163268,34.47288,1908.3528,4.94975562752,2
2025-04-01T10:48:12.380,1743497292380,11.8263585526223,46.3774816877525,34.47288,1908.3528,4.94975562752,2
2025-04-01T10:48:12.480,1743497292480,11.8263631804779,46.3774784874064,34.47288,1908.3528,4.94975562752,2
2025-04-01T10:48:12.550,1743497292550,11.826367467513,46.3774756485467,34.47288,1908.3528,4.94975562752,2
2025-04-01T10:48:12.650,1743497292650,11.8263729775992,46.3774718392373,34.47288,1908.3528,4.94975562752,2
2025-04-01T10:48:12.750,1743497292750,11.8263776692392,46.3774686097037,34.5948,1908.3528,4.94975562752,2
2025-04-01T10:48:12.850,1743497292850,11.8263823576515,46.3774653663301,34.5948,1908.3528,4.94975562752,2
2025-04-01T10:48:12.950,1743497292950,11.8263864272884,46.3774623182248,34.5948,1908.3528,5.02096418208,2
2025-04-01T10:48:13.050,1743497293050,11.8263910392787,46.3774590796472,34.5948,1908.3528,5.02096418208,2
2025-04-01T10:48:13.150,1743497293150,11.8263956550429,46.3774558410697,34.5948,1908.3528,5.02096418208,2
2025-04-01T10:48:13.250,1743497293250,11.8264002376859,46.3774525985182,34.5948,1908.3528,5.02096418208,2
2025-04-01T10:48:13.350,1743497293350,11.8264046843681,46.3774493980351,34.5948,1908.3528,5.02096418208,2
2025-04-01T10:48:13.450,1743497293450,11.8264092289738,46.3774461687756,34.5948,1908.3528,4.87955693632,2
2025-04-01T10:48:13.550,1743497293550,11.8264139003538,46.3774428937479,34.5948,1908.3528,4.87955693632,2
2025-04-01T10:48:13.650,1743497293650,11.8264184308074,46.3774396768212,34.5948,1908.3528,4.87955693632,2
2025-04-01T10:48:13.750,1743497293750,11.8264226347663,46.3774368476906,34.5948,1908.3528,4.87955693632,2
2025-04-01T10:48:13.850,1743497293850,11.826427133787,46.3774336651585,34.68624,1908.3528,4.87955693632,2
2025-04-01T10:48:13.950,1743497293950,11.8264322378281,46.377430053447,34.68624,1908.3528,4.87955693632,2
2025-04-01T10:48:14.050,1743497294050,11.8264367983241,46.3774268520047,34.68624,1908.3528,4.87955693632,2
2025-04-01T10:48:14.150,1743497294150,11.8264411967894,46.3774237323695,34.68624,1908.3528,4.87955693632,2
2025-04-01T10:48:14.250,1743497294250,11.8264457411469,46.3774205665551,34.68624,1908.3528,4.87955693632,2
2025-04-01T10:48:14.350,1743497294350,11.8264503295997,46.3774172915275,34.68624,1908.3528,4.87955693632,2
2025-04-01T10:48:14.450,1743497294450,11.8264548872156,46.3774141152987,34.68624,1908.3528,4.94975562752,2
2025-04-01T10:48:14.550,1743497294550,11.8264590763271,46.3774111918912,34.68624,1908.3528,4.87955693632,2
2025-04-01T10:48:14.650,1743497294650,11.826463608022,46.377408022377,34.68624,1908.3528,4.94975562752,2
2025-04-01T10:48:14.750,1743497294750,11.8264686055986,46.3774046090856,34.77768,1908.6576,4.94975562752,2
2025-04-01T10:48:14.850,1743497294850,11.8264731868512,46.3774014281978,34.77768,1908.6576,4.94975562752,2
2025-04-01T10:48:14.950,1743497294950,11.8264775705188,46.3773981745469,34.77768,1908.6576,4.94975562752,2
2025-04-01T10:48:15.050,1743497295050,11.8264821385129,46.3773950050327,34.77768,1908.6576,4.94975562752,2
2025-04-01T10:48:15.150,1743497295150,11.8264867006476,46.3773920052992,34.77768,1908.6576,4.94975562752,2
2025-04-01T10:48:15.250,1743497295250,11.8264916016911,46.3773887003989,34.77768,1908.6576,4.94975562752,2
2025-04-01T10:48:15.350,1743497295350,11.8264962429293,46.3773855502059,34.77768,1908.6576,4.87955693632,2
2025-04-01T10:48:15.450,1743497295450,11.8265008895304,46.3773823963132,34.77768,1908.6576,4.87955693632,2
2025-04-01T10:48:15.550,1743497295550,11.8265050187557,46.3773794023349,34.77768,1908.6576,4.94975562752,2
2025-04-01T10:48:15.650,1743497295650,11.8265096288589,46.3773762356983,34.77768,1908.6576,4.94975562752,2
2025-04-01T10:48:15.750,1743497295750,11.8265143033673,46.3773731933484,34.77768,1908.6576,4.94975562752,2
2025-04-01T10:48:15.850,1743497295850,11.826518945698,46.3773700094459,34.77768,1908.6576,4.94975562752,2
2025-04-01T10:48:15.950,1743497295950,11.8265235818712,46.3773667592208,34.77768,1908.6576,4.94975562752,2
2025-04-01T10:48:16.050,1743497296050,11.8265282526553,46.3773635520232,34.77768,1908.6576,4.94975562752,2
2025-04-01T10:48:16.150,1743497296150,11.8265328743286,46.3773603900456,34.77768,1908.6576,5.09117717856,2
2025-04-01T10:48:16.250,1743497296250,11.8265375319537,46.3773571905217,34.77768,1908.6576,4.94975562752,2
2025-04-01T10:48:16.350,1743497296350,11.8265422209619,46.3773539581105,34.77768,1908.6576,4.94975562752,2
2025-04-01T10:48:16.450,1743497296450,11.8265468683079,46.3773507758525,34.77768,1908.6576,4.94975562752,2
2025-04-01T10:48:16.560,1743497296560,11.8265510834397,46.3773478649147,34.77768,1908.6576,4.94975562752,2
2025-04-01T10:48:16.660,1743497296660,11.8265557000977,46.3773447175994,34.77768,1908.6576,4.94975562752,2
2025-04-01T10:48:16.750,1743497296750,11.8265607593979,46.3773412577176,34.77768,1908.6576,4.94975562752,2
2025-04-01T10:48:16.850,1743497296850,11.8265654050059,46.3773380850517,34.77768,1908.6576,4.94975562752,2
2025-04-01T10:48:16.960,1743497296960,11.8265700575163,46.3773350194066,34.77768,1908.6576,4.94975562752,2
2025-04-01T10:48:17.060,1743497297060,11.8265746858437,46.3773318656508,34.8996,1908.6576,4.94975562752,2
2025-04-01T10:48:17.170,1743497297170,11.8265794646317,46.3773287538264,34.8996,1908.6576,4.94975562752,2
2025-04-01T10:48:17.270,1743497297270,11.8265840969317,46.3773256065112,34.8996,1908.6576,4.94975562752,2
2025-04-01T10:48:17.350,1743497297350,11.8265887144339,46.3773223172323,34.8996,1908.6576,4.94975562752,2
2025-04-01T10:48:17.470,1743497297470,11.8265933472304,46.3773191626544,34.8996,1908.6576,4.94975562752,2
2025-04-01T10:48:17.570,1743497297570,11.8265980135454,46.3773160523373,34.8996,1908.6576,4.94975562752,2
2025-04-01T10:48:17.670,1743497297670,11.8266026602955,46.3773129103662,34.8996,1908.6576,4.94975562752,2
2025-04-01T10:48:17.770,1743497297770,11.826607363307,46.3773098192334,34.8996,1908.6576,4.87955693632,2
2025-04-01T10:48:17.880,1743497297880,11.8266124001623,46.377306311254,34.8996,1908.6576,4.87955693632,2
2025-04-01T10:48:17.980,1743497297980,11.8266170946824,46.3773031535244,34.8996,1908.6576,4.87955693632,2
2025-04-01T10:48:18.050,1743497298050,11.8266217924799,46.3772999981243,34.8996,1908.6576,4.87955693632,2
2025-04-01T10:48:18.180,1743497298180,11.8266260037384,46.3772973254824,34.8996,1908.6576,4.87955693632,2
2025-04-01T10:48:18.280,1743497298280,11.8266306564474,46.3772942233872,34.8996,1908.6576,4.87955693632,2
2025-04-01T10:48:18.390,1743497298390,11.8266352912302,46.3772910131749,34.8996,1908.6576,4.87955693632,2
2025-04-01T10:48:18.450,1743497298450,11.8266399320215,46.3772878932657,34.8996,1908.6576,4.87955693632,2
2025-04-01T10:48:18.550,1743497298550,11.8266441675126,46.3772849282009,34.8996,1908.6576,4.87955693632,2
2025-04-01T10:48:18.650,1743497298650,11.82664876689,46.3772818054141,34.8996,1908.6576,4.87955693632,2
2025-04-01T10:48:18.750,1743497298750,11.8266538414846,46.3772784034962,34.99104,1908.6576,4.94975562752,2
2025-04-01T10:48:18.850,1743497298850,11.8266584931508,46.3772752426149,34.99104,1908.6576,4.94975562752,2
2025-04-01T10:48:18.950,1743497298950,11.8266631655736,46.3772719970488,34.99104,1908.6576,4.94975562752,2
2025-04-01T10:48:19.050,1743497299050,11.8266678100892,46.3772688309603,34.99104,1908.6576,4.87955693632,2
2025-04-01T10:48:19.150,1743497299150,11.8266724734744,46.3772656848783,34.99104,1908.6576,4.87955693632,2
2025-04-01T10:48:19.250,1743497299250,11.826677107711,46.3772625244081,34.99104,1908.6576,4.87955693632,2
2025-04-01T10:48:19.350,1743497299350,11.8266815795196,46.3772592634945,34.99104,1908.6576,4.87955693632,2
2025-04-01T10:48:19.450,1743497299450,11.8266862088898,46.3772560980912,34.99104,1908.6576,4.87955693632,2
2025-04-01T10:48:19.550,1743497299550,11.8266908907474,46.3772530257316,34.99104,1908.6576,4.87955693632,2
2025-04-01T10:48:19.650,1743497299650,11.8266955224515,46.3772498825272,34.99104,1908.6576,4.87955693632,2
2025-04-01T10:48:19.750,1743497299750,11.8267000516636,46.3772467978348,34.99104,1908.6576,4.87955693632,2
2025-04-01T10:48:19.850,1743497299850,11.8267046597806,46.3772436565489,34.99104,1908.6576,4.87955693632,2
2025-04-01T10:48:19.950,1743497299950,11.8267091799551,46.3772403585001,34.99104,1908.6576,4.87955693632,2
2025-04-01T10:48:20.050,1743497300050,11.8267137777932,46.3772371915894,34.99104,1908.6576,4.87955693632,2
2025-04-01T10:48:20.150,1743497300150,11.826718479017,46.37723402139,34.99104,1908.6576,4.94975562752,2
2025-04-01T10:48:20.250,1743497300250,11.8267230831614,46.3772308487241,34.99104,1908.6576,4.94975562752,2
2025-04-01T10:48:20.350,1743497300350,11.8267276516522,46.3772276790729,34.99104,1908.6576,4.94975562752,2
2025-04-01T10:48:20.450,1743497300450,11.8267322513772,46.3772245091475,34.99104,1908.6576,4.87955693632,2
2025-04-01T10:48:20.550,1743497300550,11.826736855323,46.3772213895124,34.99104,1908.6576,4.87955693632,2
2025-04-01T10:48:20.650,1743497300650,11.8267414790323,46.3772182312347,34.99104,1908.6576,4.87955693632,2
2025-04-01T10:48:20.750,1743497300750,11.8267462669572,46.3772149889573,34.99104,1908.6576,4.87955693632,2
2025-04-01T10:48:20.850,1743497300850,11.826750908543,46.37721182835,34.99104,1908.6576,4.87955693632,2
2025-04-01T10:48:20.950,1743497300950,11.8267555036996,46.377208758731,34.99104,1908.6576,4.87955693632,2
2025-04-01T10:48:21.050,1743497301050,11.8267601341622,46.3772056074418,34.99104,1908.6576,4.87955693632,2
2025-04-01T10:48:21.150,1743497301150,11.8267648246601,46.3772023218628,34.99104,1908.6576,4.94975562752,2
2025-04-01T10:48:21.230,1743497301230,11.8267694594926,46.377199158652,34.99104,1908.6576,4.94975562752,2
2025-04-01T10:48:21.350,1743497301350,11.8267741193522,46.3771962103049,34.99104,1908.6576,4.94975562752,2
2025-04-01T10:48:21.450,1743497301450,11.8267787612856,46.3771930718966,34.99104,1908.6576,4.94975562752,2
2025-04-01T10:48:21.550,1743497301550,11.8267834491517,46.3771897508266,34.99104,1908.6576,4.87955693632,2
2025-04-01T10:48:21.640,1743497301640,11.8267881008675,46.3771866032373,34.99104,1908.6576,4.87955693632,2
2025-04-01T10:48:21.750,1743497301750,11.8267927863004,46.3771834812726,34.99104,1908.6576,4.87955693632,2
2025-04-01T10:48:21.850,1743497301850,11.8267974333982,46.3771803467012,34.99104,1908.6576,4.87955693632,2
2025-04-01T10:48:21.950,1743497301950,11.8268020895335,46.3771772251476,34.99104,1908.6576,4.87955693632,2
2025-04-01T10:48:22.050,1743497302050,11.8268067368298,46.377174094687,34.99104,1908.6576,4.87955693632,2
2025-04-01T10:48:22.150,1743497302150,11.8268108287627,46.3771711992337,34.99104,1908.6576,4.87955693632,2
2025-04-01T10:48:22.250,1743497302250,11.8268154311691,46.3771680739803,34.99104,1908.6576,4.87955693632,2
2025-04-01T10:48:22.350,1743497302350,11.8268207119891,46.3771645746338,34.99104,1908.6576,4.94975562752,2
2025-04-01T10:48:22.450,1743497302450,11.8268253769633,46.3771614106008,34.99104,1908.6576,4.94975562752,2
2025-04-01T10:48:22.560,1743497302560,11.8268298152039,46.3771584632129,34.99104,1908.6576,4.94975562752,2
2025-04-01T10:48:22.660,1743497302660,11.8268344474045,46.3771553297377,34.99104,1908.6576,4.94975562752,2
2025-04-01T10:48:22.750,1743497302750,11.8268394807342,46.377151919461,34.99104,1908.6576,4.94975562752,2
2025-04-01T10:48:22.850,1743497302850,11.8268441390544,46.3771487629646,34.99104,1908.6576,4.94975562752,2
2025-04-01T10:48:22.960,1743497302960,11.8268487136529,46.3771456481256,34.99104,1908.6576,4.94975562752,2
2025-04-01T10:48:23.060,1743497303060,11.8268536652472,46.3771422648438,34.99104,1908.6576,4.94975562752,2
2025-04-01T10:48:23.150,1743497303150,11.8268583274407,46.3771390916298,34.99104,1908.6576,4.94975562752,2
2025-04-01T10:48:23.270,1743497303270,11.8268629877472,46.3771359273227,34.99104,1908.6576,4.87955693632,2
2025-04-01T10:48:23.350,1743497303350,11.8268671775042,46.377133102303,34.99104,1908.6576,4.87955693632,2
2025-04-01T10:48:23.470,1743497303470,11.826871800568,46.3771299856826,34.99104,1908.6576,4.87955693632,2
2025-04-01T10:48:23.570,1743497303570,11.826876475275,46.3771268807097,34.99104,1908.6576,4.87955693632,2
2025-04-01T10:48:23.670,1743497303670,11.8268810944655,46.3771237557303,34.99104,1908.6576,4.87955693632,2
2025-04-01T10:48:23.750,1743497303750,11.8268854192895,46.3771208453407,34.99104,1908.6576,4.87955693632,2
2025-04-01T10:48:23.880,1743497303880,11.8268900363944,46.3771177440676,34.99104,1908.6576,4.87955693632,2
2025-04-01T10:48:23.980,1743497303980,11.8268946636294,46.3771146527978,34.99104,1908.6576,4.87955693632,2
2025-04-01T10:48:24.080,1743497304080,11.8268993107271,46.3771115693387,34.99104,1908.6576,4.87955693632,2
2025-04-01T10:48:24.180,1743497304180,11.8269041416549,46.3771083743368,34.99104,1908.6576,4.87955693632,2
2025-04-01T10:48:24.290,1743497304290,11.8269088052388,46.3771052779968,34.99104,1908.6576,4.87955693632,2
2025-04-01T10:48:24.350,1743497304350,11.8269139000437,46.377101966382,34.99104,1908.6576,4.87955693632,2
2025-04-01T10:48:24.450,1743497304450,11.826918580213,46.3770988389361,34.99104,1908.6576,4.87955693632,2
2025-04-01T10:48:24.550,1743497304550,11.8269227239878,46.3770959744517,34.99104,1908.6576,4.87955693632,2
2025-04-01T10:48:24.650,1743497304650,11.8269273246066,46.377092857009,34.99104,1908.6576,4.87955693632,2
2025-04-01T10:48:24.750,1743497304750,11.8269322643825,46.3770894293294,34.99104,1908.6576,4.87955693632,2
2025-04-01T10:48:24.850,1743497304850,11.8269368696691,46.3770862917433,34.99104,1908.6576,4.87955693632,2
2025-04-01T10:48:24.950,1743497304950,11.8269415922454,46.3770830900269,34.99104,1908.6576,4.87955693632,2
2025-04-01T10:48:25.050,1743497305050,11.8269462153091,46.3770799590182,34.99104,1908.6576,4.87955693632,2
2025-04-01T10:48:25.150,1743497305150,11.8269508771053,46.3770769654511,34.99104,1908.6576,4.87955693632,2
2025-04-01T10:48:25.250,1743497305250,11.826955510895,46.377073837046,34.99104,1908.6576,4.87955693632,2
2025-04-01T10:48:25.350,1743497305350,11.8269599174544,46.3770706572545,34.99104,1908.6576,4.87955693632,2
2025-04-01T10:48:25.450,1743497305450,11.8269645346586,46.3770675169278,35.08248,1908.9624,4.87955693632,2
2025-04-01T10:48:25.550,1743497305550,11.8269691310069,46.3770644840329,35.08248,1908.9624,4.87955693632,2
2025-04-01T10:48:25.650,1743497305650,11.8269740710808,46.3770610400467,35.08248,1908.9624,4.94975562752,2
2025-04-01T10:48:25.750,1743497305750,11.8269787400276,46.3770578714916,35.08248,1908.9624,4.94975562752,2
2025-04-01T10:48:25.850,1743497305850,11.8269834060943,46.3770547003331,35.08248,1908.9624,4.94975562752,2
2025-04-01T10:48:25.950,1743497305950,11.8269875521532,46.3770518165273,35.08248,1908.9624,4.94975562752,2
2025-04-01T10:48:26.050,1743497306050,11.8269921585323,46.3770486696231,35.08248,1908.9624,4.87955693632,2
2025-04-01T10:48:26.150,1743497306150,11.8269966885389,46.3770454770878,35.08248,1908.9624,4.87955693632,2
2025-04-01T10:48:26.250,1743497306250,11.8270012840927,46.3770423264837,35.08248,1908.9624,4.87955693632,2
2025-04-01T10:48:26.350,1743497306350,11.8270058296915,46.3770391576547,35.08248,1908.9624,4.87955693632,2
2025-04-01T10:48:26.450,1743497306450,11.8270104477896,46.3770360007472,35.08248,1908.9624,4.87955693632,2
2025-04-01T10:48:26.550,1743497306550,11.8270148787802,46.3770331262596,35.08248,1908.9624,4.87955693632,2
2025-04-01T10:48:26.650,1743497306650,11.8270195107822,46.3770299949768,35.08248,1908.9624,4.87955693632,2
2025-04-01T10:48:26.750,1743497306750,11.8270245940667,46.3770265582532,35.08248,1908.9624,4.94975562752,2
2025-04-01T10:48:26.850,1743497306850,11.8270292654964,46.3770233947683,35.08248,1908.9624,4.94975562752,2
2025-04-01T10:48:26.950,1743497306950,11.8270338130816,46.3770202536194,35.08248,1908.9624,4.94975562752,2
2025-04-01T10:48:27.050,1743497307050,11.8270384473678,46.3770170943825,35.08248,1908.9624,4.94975562752,2
2025-04-01T10:48:27.150,1743497307150,11.8270432120533,46.3770137800271,35.08248,1908.9624,4.94975562752,2
2025-04-01T10:48:27.250,1743497307250,11.8270478489217,46.3770106284638,35.08248,1908.9624,4.94975562752,2
2025-04-01T10:48:27.350,1743497307350,11.8270524261024,46.3770075481564,35.08248,1908.9624,4.87955693632,2
2025-04-01T10:48:27.450,1743497307450,11.8270570590975,46.3770044290694,35.08248,1908.9624,4.87955693632,2
2025-04-01T10:48:27.550,1743497307550,11.8270617142397,46.3770012191312,35.08248,1908.9624,4.87955693632,2
2025-04-01T10:48:27.650,1743497307650,11.8270663452486,46.3769981103214,35.08248,1908.9624,4.87955693632,2
2025-04-01T10:48:27.750,1743497307750,11.8270710327671,46.3769950323436,35.17392,1908.9624,4.87955693632,2
2025-04-01T10:48:27.850,1743497307850,11.8270756802621,46.3769919209302,35.17392,1908.9624,4.87955693632,2
2025-04-01T10:48:27.950,1743497307950,11.827080363808,46.3769888899538,35.17392,1908.9624,4.87955693632,2
2025-04-01T10:48:28.050,1743497308050,11.8270850057415,46.3769857742925,35.17392,1908.9624,4.87955693632,2
2025-04-01T10:48:28.150,1743497308150,11.8270895126079,46.3769826626052,35.17392,1908.9624,4.87955693632,2
2025-04-01T10:48:28.250,1743497308250,11.8270946688882,46.3769791428411,35.17392,1908.9624,4.87955693632,2
2025-04-01T10:48:28.350,1743497308350,11.8270993400199,46.3769759768897,35.17392,1908.9624,4.87955693632,2
2025-04-01T10:48:28.450,1743497308450,11.8271040112509,46.376972814364,35.17392,1908.9624,4.87955693632,2
2025-04-01T10:48:28.550,1743497308550,11.8271078386114,46.3769703080771,35.17392,1908.9624,4.87955693632,2
2025-04-01T10:48:28.660,1743497308660,11.8271124342645,46.3769671943343,35.17392,1908.9624,4.87955693632,2
2025-04-01T10:48:28.750,1743497308750,11.8271175578705,46.3769638503803,35.17392,1908.9624,4.94975562752,2
2025-04-01T10:48:28.860,1743497308860,11.8271222187729,46.3769606790847,35.17392,1908.9624,4.94975562752,2
2025-04-01T10:48:28.950,1743497308950,11.8271267537452,46.3769574004942,35.17392,1908.9624,4.94975562752,2
2025-04-01T10:48:29.060,1743497309060,11.8271314081922,46.3769541843896,35.17392,1908.9624,4.94975562752,2
2025-04-01T10:48:29.170,1743497309170,11.8271361199433,46.3769509403308,35.17392,1908.9624,4.94975562752,2
2025-04-01T10:48:29.270,1743497309270,11.8271407642603,46.3769477420402,35.17392,1908.9624,4.94975562752,2
2025-04-01T10:48:29.370,1743497309370,11.827145215213,46.3769446726952,35.17392,1908.9624,4.94975562752,2
2025-04-01T10:48:29.470,1743497309470,11.8271498129517,46.376941520995,35.17392,1908.9624,4.94975562752,2
2025-04-01T10:48:29.570,1743497309570,11.8271544272758,46.3769382693995,35.17392,1908.9624,4.87955693632,2
2025-04-01T10:48:29.670,1743497309670,11.82715905173,46.3769351163289,35.17392,1908.9624,4.94975562752,2
2025-04-01T10:48:29.750,1743497309750,11.8271637699365,46.3769321126215,35.17392,1908.9624,4.94975562752,2
2025-04-01T10:48:29.880,1743497309880,11.8271684595405,46.3769289539327,35.17392,1908.9624,5.02096418208,2
2025-04-01T10:48:29.980,1743497309980,11.8271731432851,46.3769258060693,35.17392,1908.9624,5.02096418208,2
2025-04-01T10:48:30.080,1743497310080,11.8271778726148,46.3769226421733,35.08248,1908.9624,5.02096418208,2
2025-04-01T10:48:30.180,1743497310180,11.827182515144,46.3769193112372,35.08248,1908.9624,5.02096418208,2
2025-04-01T10:48:30.290,1743497310290,11.8271872538092,46.3769161443266,35.08248,1908.9624,5.02096418208,2
2025-04-01T10:48:30.350,1743497310350,11.8271918858113,46.3769130778593,35.17392,1908.9624,5.02096418208,2
2025-04-01T10:48:30.450,1743497310450,11.8271965734291,46.3769099234184,35.17392,1908.9624,4.94975562752,2
2025-04-01T10:48:30.550,1743497310550,11.8272008087713,46.3769070888066,35.17392,1908.9624,4.94975562752,2
2025-04-01T10:48:30.650,1743497310650,11.8272054193215,46.3769039456022,35.17392,1908.9624,4.94975562752,2
2025-04-01T10:48:30.750,1743497310750,11.8272104224597,46.376900429812,35.17392,1908.9624,4.94975562752,2
2025-04-01T10:48:30.850,1743497310850,11.8272154755528,46.3768969854147,35.17392,1908.9624,4.94975562752,2
2025-04-01T10:48:30.950,1743497310950,11.8272201678384,46.3768937673917,35.17392,1908.9624,4.94975562752,2
2025-04-01T10:48:31.050,1743497311050,11.8272248641958,46.3768905534796,35.17392,1908.9624,4.94975562752,2
2025-04-01T10:48:31.150,1743497311150,11.827228923951,46.3768877503848,35.17392,1908.9624,4.94975562752,2
2025-04-01T10:48:31.250,1743497311250,11.8272335656857,46.3768845836112,35.17392,1908.9624,4.94975562752,2
2025-04-01T10:48:31.350,1743497311350,11.82723824079,46.3768813755914,35.17392,1908.9624,4.94975562752,2
2025-04-01T10:48:31.450,1743497311450,11.8272428650455,46.3768781840153,35.17392,1908.9624,4.94975562752,2
2025-04-01T10:48:31.550,1743497311550,11.8272474878114,46.376874919676,35.17392,1908.9624,4.94975562752,2
2025-04-01T10:48:31.650,1743497311650,11.8272520931973,46.3768717227556,35.17392,1908.9624,4.94975562752,2
2025-04-01T10:48:31.750,1743497311750,11.8272567066276,46.3768684637605,35.17392,1908.9624,4.94975562752,2
2025-04-01T10:48:31.850,1743497311850,11.8272612843049,46.3768652901354,35.17392,1908.9624,4.94975562752,2
2025-04-01T10:48:31.950,1743497311950,11.827265919187,46.3768621192509,35.17392,1908.9624,4.87955693632,2
2025-04-01T10:48:32.050,1743497312050,11.8272704647859,46.376858978102,35.29584,1908.9624,4.87955693632,2
2025-04-01T10:48:32.150,1743497312150,11.8272749706592,46.3768560050894,35.29584,1908.9624,4.80833407648,2
2025-04-01T10:48:32.250,1743497312250,11.8272795142719,46.3768528659959,35.29584,1908.9624,4.94975562752,2
2025-04-01T10:48:32.350,1743497312350,11.8272841326679,46.3768495959013,35.29584,1908.9624,4.94975562752,2
2025-04-01T10:48:32.450,1743497312450,11.8272887023007,46.3768464324164,35.29584,1908.9624,4.94975562752,2
2025-04-01T10:48:32.550,1743497312550,11.8272930805556,46.3768435018833,35.29584,1908.9624,4.94975562752,2
2025-04-01T10:48:32.650,1743497312650,11.8272976722361,46.3768403689562,35.29584,1908.9624,4.94975562752,2
2025-04-01T10:48:32.750,1743497312750,11.8273027106308,46.3768367679331,35.29584,1908.9624,4.94975562752,2
2025-04-01T10:48:32.850,1743497312850,11.8273073901048,46.3768335889638,35.29584,1908.9624,5.02096418208,2
2025-04-01T10:48:32.950,1743497312950,11.8273121164551,46.3768303599783,35.29584,1908.9624,4.94975562752,2
2025-04-01T10:48:33.040,1743497313040,11.8273167834156,46.3768271926566,35.29584,1908.9624,4.87955693632,2
2025-04-01T10:48:33.140,1743497313140,11.8273214900024,46.3768241412626,35.29584,1908.9624,4.87955693632,2
2025-04-01T10:48:33.240,1743497313240,11.827326126275,46.3768210287531,35.17392,1908.9624,4.87955693632,2
2025-04-01T10:48:33.350,1743497313350,11.8273306621411,46.3768178592388,35.17392,1908.9624,4.87955693632,2
2025-04-01T10:48:33.450,1743497313450,11.827335608571,46.3768145962698,35.17392,1908.9624,4.87955693632,2
2025-04-01T10:48:33.550,1743497313550,11.8273402964868,46.3768114978744,35.17392,1908.9624,4.87955693632,2
2025-04-01T10:48:33.650,1743497313650,11.827345003868,46.3768084009863,35.17392,1908.9624,4.87955693632,2
2025-04-01T10:48:33.750,1743497313750,11.8273494733924,46.3768055347205,35.17392,1908.9624,4.95177535424,2
2025-04-01T10:48:33.850,1743497313850,11.8273541743183,46.3768024608535,35.17392,1908.9624,4.95177535424,2
2025-04-01T10:48:33.950,1743497313950,11.8273588683916,46.3767993580731,35.17392,1908.9624,4.88365405792,2
2025-04-01T10:48:34.050,1743497314050,11.827363561273,46.3767962829729,35.17392,1908.9624,4.81041325952,2
2025-04-01T10:48:34.150,1743497314150,11.8273677575848,46.3767935718255,35.17392,1908.9624,4.81041325952,2
2025-04-01T10:48:34.260,1743497314260,11.8273724148126,46.3767905348197,35.17392,1908.9624,4.88365405792,2
2025-04-01T10:48:34.350,1743497314350,11.8273772045251,46.3767873528357,35.17392,1908.9624,4.88365405792,2
2025-04-01T10:48:34.450,1743497314450,11.8273819045571,46.3767842995233,35.17392,1908.9624,4.95177535424,2
2025-04-01T10:48:34.550,1743497314550,11.8273867388616,46.3767812841683,35.08248,1908.9624,4.95177535424,2
2025-04-01T10:48:34.670,1743497314670,11.8273914623318,46.3767782442849,35.17392,1908.9624,4.95177535424,2
2025-04-01T10:48:34.750,1743497314750,11.8273966404611,46.3767748219495,35.08248,1908.9624,4.88365405792,2
2025-04-01T10:48:34.870,1743497314870,11.8274014159718,46.3767717654854,35.08248,1908.9624,4.88365405792,2
2025-04-01T10:48:34.950,1743497314950,11.8274062249512,46.3767688228936,35.08248,1908.9624,4.88365405792,2
2025-04-01T10:48:35.070,1743497315070,11.8274110156569,46.3767658038388,35.08248,1908.9624,4.88365405792,2
2025-04-01T10:48:35.180,1743497315180,11.8274157662398,46.3767626914662,35.08248,1908.9624,4.88365405792,2
2025-04-01T10:48:35.280,1743497315280,11.8274205516818,46.3767596755631,35.08248,1908.9624,4.88365405792,2
2025-04-01T10:48:35.350,1743497315350,11.8274254193558,46.3767566917252,35.08248,1908.9624,4.88365405792,2
2025-04-01T10:48:35.480,1743497315480,11.827430212743,46.3767536743147,35.08248,1908.9624,4.88365405792,2
2025-04-01T10:48:35.580,1743497315580,11.8274350353284,46.3767507435076,35.08248,1908.9624,4.88365405792,2
2025-04-01T10:48:35.690,1743497315690,11.8274398315957,46.3767477414445,35.08248,1908.9624,4.88365405792,2
2025-04-01T10:48:35.790,1743497315790,11.8274444804811,46.3767446139987,35.08248,1908.9624,4.88365405792,2
2025-04-01T10:48:35.850,1743497315850,11.8274492676115,46.3767416115245,35.08248,1908.9624,4.88365405792,2
2025-04-01T10:48:35.950,1743497315950,11.8274541039023,46.3767387070272,35.08248,1908.9624,4.81664544416,2
2025-04-01T10:48:36.050,1743497316050,11.8274592840179,46.3767355379241,35.08248,1908.9624,4.81664544416,2
2025-04-01T10:48:36.150,1743497316150,11.827464111867,46.3767325370943,35.08248,1908.9624,4.81664544416,2
2025-04-01T10:48:36.250,1743497316250,11.8274689392195,46.376729533935,35.08248,1908.9624,4.81664544416,2
2025-04-01T10:48:36.350,1743497316350,11.827473301187,46.3767268237469,35.08248,1908.9624,4.88365405792,2
2025-04-01T10:48:36.450,1743497316450,11.8274781026186,46.376723849501,34.99104,1908.6576,4.88365405792,2
2025-04-01T10:48:36.550,1743497316550,11.827482549698,46.3767212174202,34.99104,1908.6576,4.8918380192,2
2025-04-01T10:48:36.650,1743497316650,11.8274873449721,46.3767182753765,34.99104,1908.6576,4.8918380192,2
2025-04-01T10:48:36.750,1743497316750,11.8274926675039,46.3767149525252,34.99104,1908.6576,4.8918380192,2
2025-04-01T10:48:36.850,1743497316850,11.8274975417326,46.3767119829384,34.99104,1908.6576,4.8918380192,2
2025-04-01T10:48:36.950,1743497316950,11.8275025505317,46.3767091181799,34.99104,1908.6576,4.8918380192,2
2025-04-01T10:48:37.050,1743497317050,11.8275074482978,46.3767061595555,34.99104,1908.6576,4.957830064,2
2025-04-01T10:48:37.150,1743497317150,11.8275121884527,46.3767031065172,34.99104,1908.6576,4.957830064,2
2025-04-01T10:48:37.250,1743497317250,11.8275170814517,46.3767001478928,34.99104,1908.6576,4.957830064,2
2025-04-01T10:48:37.350,1743497317350,11.8275220823057,46.3766972620316,34.8996,1908.6576,4.8918380192,2
2025-04-01T10:48:37.450,1743497317450,11.8275269987428,46.3766943478051,34.8996,1908.6576,4.8918380192,2
2025-04-01T10:48:37.550,1743497317550,11.8275319428886,46.3766913410831,34.8996,1908.6576,4.8918380192,2
2025-04-01T10:48:37.650,1743497317650,11.8275368649866,46.3766884448075,34.8996,1908.6576,4.8918380192,2
2025-04-01T10:48:37.750,1743497317750,11.8275417657321,46.3766856311614,34.8996,1908.6576,4.8918380192,2
2025-04-01T10:48:37.850,1743497317850,11.8275466804809,46.3766827566737,34.8996,1908.6576,4.8918380192,2
2025-04-01T10:48:37.940,1743497317940,11.8275517021908,46.3766799604304,34.8996,1908.6576,4.8918380192,2
2025-04-01T10:48:38.050,1743497318050,11.827556621806,46.3766770956719,34.8996,1908.6576,4.8918380192,2
2025-04-01T10:48:38.150,1743497318150,11.8275614558126,46.3766741806232,34.8996,1908.6576,4.8918380192,2
2025-04-01T10:48:38.250,1743497318250,11.8275663796983,46.3766713187423,34.8996,1908.6576,4.827014984,2
2025-04-01T10:48:38.350,1743497318350,11.8275712435983,46.3766685556604,34.77768,1908.6576,4.827014984,2
2025-04-01T10:48:38.450,1743497318450,11.8275761687751,46.376665709538,34.77768,1908.6576,4.827014984,2
2025-04-01T10:48:38.550,1743497318550,11.8275808260028,46.376663171186,34.77768,1908.6576,4.827014984,2
2025-04-01T10:48:38.650,1743497318650,11.8275864975238,46.3766597467952,34.77768,1908.6576,4.90408780928,2
2025-04-01T10:48:38.750,1743497318750,11.8275915178433,46.3766568665522,34.77768,1908.6576,4.90408780928,2
2025-04-01T10:48:38.850,1743497318850,11.8275965577276,46.3766539765801,34.77768,1908.6576,4.90408780928,2
2025-04-01T10:48:38.960,1743497318960,11.8276011578499,46.376651397119,34.77768,1908.6576,4.90408780928,2
2025-04-01T10:48:39.050,1743497319050,11.8276061836316,46.3766485279755,34.77768,1908.6576,4.90408780928,2
2025-04-01T10:48:39.170,1743497319170,11.827611166907,46.3766456697945,34.68624,1908.3528,4.96790500448,2
2025-04-01T10:48:39.270,1743497319270,11.8276161993428,46.3766428050359,34.68624,1908.3528,4.90408780928,2
2025-04-01T10:48:39.350,1743497319350,11.827621240419,46.3766400068742,34.68624,1908.3528,4.90408780928,2
2025-04-01T10:48:39.450,1743497319450,11.8276262752383,46.3766371555447,34.68624,1908.3528,4.90408780928,2
2025-04-01T10:48:39.580,1743497319580,11.8276314071867,46.3766341926724,34.68624,1908.3528,4.90408780928,2
2025-04-01T10:48:39.680,1743497319680,11.8276364485608,46.3766313405207,34.68624,1908.3528,4.90408780928,2
2025-04-01T10:48:39.780,1743497319780,11.8276413512926,46.3766284006695,34.5948,1908.3528,4.90408780928,2
2025-04-01T10:48:39.880,1743497319880,11.8276463735984,46.3766255490659,34.5948,1908.3528,4.90408780928,2
2025-04-01T10:48:39.980,1743497319980,11.8276514521158,46.3766227739253,34.5948,1908.3528,4.90408780928,2
2025-04-01T10:48:40.090,1743497320090,11.8276564730312,46.376619946439,34.5948,1908.3528,4.90408780928,2
2025-04-01T10:48:40.190,1743497320190,11.8276615320832,46.3766170139875,34.5948,1908.3528,4.90408780928,2
2025-04-01T10:48:40.250,1743497320250,11.8276665488274,46.3766142056855,34.5948,1908.3528,4.90408780928,2
2025-04-01T10:48:40.350,1743497320350,11.8276716217833,46.3766114590472,34.5948,1908.3528,4.90408780928,2
2025-04-01T10:48:40.450,1743497320450,11.8276766498493,46.3766086551302,34.47288,1908.3528,4.90408780928,2
2025-04-01T10:48:40.550,1743497320550,11.8276813372685,46.3766058473764,34.47288,1908.3528,4.90408780928,2
2025-04-01T10:48:40.650,1743497320650,11.8276863345472,46.376603005639,34.47288,1908.3528,4.90408780928,2
2025-04-01T10:48:40.750,1743497320750,11.8276919062577,46.3765999018994,34.47288,1908.3528,4.96790500448,2
2025-04-01T10:48:40.850,1743497320850,11.8276969380976,46.376597006446,34.47288,1908.3528,4.96790500448,2
2025-04-01T10:48:40.950,1743497320950,11.8277018366582,46.3765941315473,34.47288,1908.3528,4.96790500448,2
2025-04-01T10:48:41.050,1743497321050,11.8277068468477,46.3765912380124,34.38144,1908.048,4.96790500448,2
2025-04-01T10:48:41.150,1743497321150,11.8277119027216,46.3765881962105,34.38144,1908.048,4.96790500448,2
2025-04-01T10:48:41.250,1743497321250,11.8277173580362,46.3765850894562,34.38144,1908.048,4.96790500448,2
2025-04-01T10:48:41.350,1743497321350,11.8277224019924,46.376582180848,34.38144,1908.048,4.90408780928,2
2025-04-01T10:48:41.450,1743497321450,11.8277274445583,46.3765792829281,34.38144,1908.048,4.90408780928,2
2025-04-01T10:48:41.550,1743497321550,11.8277319033568,46.3765768906506,34.29,1908.048,4.90408780928,2
2025-04-01T10:48:41.650,1743497321650,11.8277368889164,46.3765740604237,34.29,1908.048,4.90408780928,2
2025-04-01T10:48:41.750,1743497321750,11.8277418663323,46.3765711740144,34.29,1908.048,4.90408780928,2
2025-04-01T10:48:41.850,1743497321850,11.8277468463304,46.3765683437875,34.29,1908.048,4.90408780928,2
2025-04-01T10:48:41.950,1743497321950,11.8277520142304,46.3765655445296,34.29,1908.048,4.90408780928,2
2025-04-01T10:48:42.050,1743497322050,11.8277570119063,46.3765627162212,34.29,1908.048,4.90408780928,2
2025-04-01T10:48:42.150,1743497322150,11.8277620054111,46.3765598224122,34.29,1908.048,4.90408780928,2
2025-04-01T10:48:42.250,1743497322250,11.8277669937515,46.3765569878004,34.29,1908.048,4.90408780928,2
2025-04-01T10:48:42.350,1743497322350,11.8277719975849,46.3765540780959,34.29,1908.048,4.90408780928,2
2025-04-01T10:48:42.450,1743497322450,11.8277769817541,46.3765512311513,34.19856,1908.048,4.90408780928,2
2025-04-01T10:48:42.550,1743497322550,11.8277811473779,46.3765488413403,34.19856,1908.048,4.90408780928,2
2025-04-01T10:48:42.650,1743497322650,11.8277860473289,46.3765460294756,34.19856,1908.048,4.90408780928,2
2025-04-01T10:48:42.750,1743497322750,11.8277919861037,46.3765427939127,34.19856,1908.048,4.90408780928,2
2025-04-01T10:48:42.850,1743497322850,11.8277969925193,46.3765399486125,34.19856,1908.048,4.90408780928,2
2025-04-01T10:48:42.940,1743497322940,11.8278020187976,46.3765370780987,34.19856,1908.048,4.90408780928,2
2025-04-01T10:48:43.040,1743497323040,11.8278070182612,46.3765342160808,34.07664,1907.7432,4.90408780928,2
2025-04-01T10:48:43.140,1743497323140,11.8278120383821,46.376531377084,34.07664,1907.7432,4.90408780928,2
2025-04-01T10:48:43.250,1743497323250,11.8278170229486,46.3765285260285,34.07664,1907.7432,4.90408780928,2
2025-04-01T10:48:43.350,1743497323350,11.8278219866592,46.3765256527741,34.07664,1907.7432,4.90408780928,2
2025-04-01T10:48:43.450,1743497323450,11.8278269714243,46.3765227915784,34.07664,1907.7432,4.90408780928,2
2025-04-01T10:48:43.550,1743497323550,11.8278319653263,46.3765199465522,34.07664,1907.7432,4.96790500448,2
2025-04-01T10:48:43.660,1743497323660,11.8278369467148,46.3765170746682,33.9852,1907.7432,4.96790500448,2
2025-04-01T10:48:43.750,1743497323750,11.8278419626644,46.3765142027841,33.9852,1907.7432,4.96790500448,2
2025-04-01T10:48:43.850,1743497323850,11.8278472066389,46.3765111346724,33.9852,1907.7432,4.90408780928,2
2025-04-01T10:48:43.960,1743497323960,11.8278522295406,46.3765082496333,33.9852,1907.7432,4.90408780928,2
2025-04-01T10:48:44.050,1743497324050,11.827857257408,46.3765053777493,33.9852,1907.7432,4.90408780928,2
2025-04-01T10:48:44.170,1743497324170,11.827861263335,46.3765031178431,33.9852,1907.7432,4.90408780928,2
2025-04-01T10:48:44.250,1743497324250,11.8278661759982,46.3765003257107,33.9852,1907.7432,4.90408780928,2
2025-04-01T10:48:44.350,1743497324350,11.8278712930494,46.3764973732527,33.89376,1907.7432,4.90408780928,2
2025-04-01T10:48:44.470,1743497324470,11.8278762293494,46.3764945630324,33.89376,1907.7432,4.90408780928,2
2025-04-01T10:48:44.570,1743497324570,11.8278811616767,46.3764916911482,33.89376,1907.7432,4.90408780928,2
2025-04-01T10:48:44.670,1743497324670,11.8278861210174,46.3764888557142,33.89376,1907.7432,4.90408780928,2
2025-04-01T10:48:44.780,1743497324780,11.8278915586541,46.3764858054165,33.89376,1907.7432,4.90408780928,2
2025-04-01T10:48:44.880,1743497324880,11.8278965706313,46.3764829253106,33.89376,1907.7432,4.90408780928,2
2025-04-01T10:48:44.980,1743497324980,11.8279015144791,46.3764799627123,33.89376,1907.7432,4.90408780928,2
2025-04-01T10:48:45.080,1743497325080,11.8279065177166,46.376477062874,33.89376,1907.7432,4.90408780928,2
2025-04-01T10:48:45.150,1743497325150,11.8279113906542,46.3764741792053,33.89376,1907.7432,4.90408780928,2
2025-04-01T10:48:45.280,1743497325280,11.8279163960766,46.3764712722414,33.77184,1907.4384,4.96790500448,2
2025-04-01T10:48:45.380,1743497325380,11.8279214211632,46.3764682973104,33.77184,1907.4384,4.96790500448,2
2025-04-01T10:48:45.450,1743497325450,11.8279264373115,46.3764653711623,33.77184,1907.4384,4.96790500448,2
2025-04-01T10:48:45.550,1743497325550,11.8279314709391,46.3764624707758,33.77184,1907.4384,4.96790500448,2
2025-04-01T10:48:45.650,1743497325650,11.8279364970188,46.3764595602491,33.77184,1907.4384,4.96790500448,2
2025-04-01T10:48:45.750,1743497325750,11.8279416623366,46.3764566990534,33.6804,1907.4384,4.90408780928,2
2025-04-01T10:48:45.850,1743497325850,11.8279467100668,46.3764538252509,33.6804,1907.4384,4.90408780928,2
2025-04-01T10:48:45.950,1743497325950,11.8279516690103,46.376451044081,33.6804,1907.4384,4.90408780928,2
2025-04-01T10:48:46.050,1743497326050,11.8279567115761,46.3764482105654,33.6804,1907.4384,4.90408780928,2
2025-04-01T10:48:46.150,1743497326150,11.827961825648,46.3764453967822,33.58896,1907.4384,4.90408780928,2
2025-04-01T10:48:46.250,1743497326250,11.8279668821178,46.3764425657332,33.58896,1907.4384,4.90408780928,2
2025-04-01T10:48:46.350,1743497326350,11.8279721167568,46.3764396527399,33.58896,1907.4384,4.90408780928,2
2025-04-01T10:48:46.450,1743497326450,11.8279771865346,46.3764368140172,33.58896,1907.4384,4.90408780928,2
2025-04-01T10:48:46.550,1743497326550,11.8279823619825,46.3764339577546,33.49752,1907.1336,4.90408780928,2
2025-04-01T10:48:46.650,1743497326650,11.827987428185,46.3764311343793,33.49752,1907.1336,4.90408780928,2
2025-04-01T10:48:46.750,1743497326750,11.8279925639073,46.3764282942862,33.3756,1907.1336,4.90408780928,2
2025-04-01T10:48:46.850,1743497326850,11.8279976517603,46.3764254791327,33.3756,1907.1336,4.98197558848,2
2025-04-01T10:48:46.950,1743497326950,11.8280026418884,46.3764226489059,33.3756,1907.1336,4.98197558848,2
2025-04-01T10:48:47.050,1743497327050,11.8280077440426,46.3764198537588,33.28416,1907.1336,4.98197558848,2
2025-04-01T10:48:47.150,1743497327150,11.8280125474604,46.376417419824,33.28416,1907.1336,4.98197558848,2
2025-04-01T10:48:47.250,1743497327250,11.8280176398818,46.3764146666083,33.19272,1907.1336,4.98197558848,2
2025-04-01T10:48:47.350,1743497327350,11.8280232979954,46.3764115077825,33.19272,1907.1336,4.98197558848,2
2025-04-01T10:48:47.450,1743497327450,11.8280284432519,46.3764087309975,33.0708,1906.8288,4.92037392352,2
2025-04-01T10:48:47.550,1743497327550,11.8280335283241,46.3764059646268,33.0708,1906.8288,4.92037392352,2
2025-04-01T10:48:47.650,1743497327650,11.8280386539164,46.3764032094927,32.97936,1906.8288,4.92037392352,2
2025-04-01T10:48:47.750,1743497327750,11.8280438271794,46.3764005804266,32.97936,1906.8288,4.92037392352,2
2025-04-01T10:48:47.850,1743497327850,11.8280489503881,46.3763978699643,32.88792,1906.8288,4.92037392352,2
2025-04-01T10:48:47.950,1743497327950,11.8280539349546,46.3763950775579,32.88792,1906.8288,4.8600490048,2
2025-04-01T10:48:48.050,1743497328050,11.8280590637249,46.3763923750434,32.79648,1906.524,4.8600490048,2
2025-04-01T10:48:48.150,1743497328150,11.8280642981653,46.3763897144603,32.79648,1906.524,4.8600490048,2
2025-04-01T10:48:48.250,1743497328250,11.8280694517641,46.3763870160567,32.67456,1906.524,4.8600490048,2
2025-04-01T10:48:48.350,1743497328350,11.8280745288912,46.3763842318721,32.58312,1906.524,4.8600490048,2
2025-04-01T10:48:48.450,1743497328450,11.8280796626272,46.3763815194914,32.58312,1906.524,4.8600490048,2
2025-04-01T10:48:48.550,1743497328550,11.8280844312852,46.3763788893291,32.49168,1906.2192,4.8600490048,2
2025-04-01T10:48:48.650,1743497328650,11.8280895477406,46.3763761870886,32.49168,1906.2192,4.8600490048,2
2025-04-01T10:48:48.750,1743497328750,11.8280951941352,46.3763731069183,32.36976,1906.2192,4.8600490048,2
2025-04-01T10:48:48.850,1743497328850,11.8281003695831,46.3763703687759,32.27832,1906.2192,4.8600490048,2
2025-04-01T10:48:48.950,1743497328950,11.8281053801698,46.3763676251523,32.27832,1906.2192,4.8600490048,2
2025-04-01T10:48:49.040,1743497329040,11.8281108958673,46.376364666939,32.18688,1905.9144,4.8600490048,2
2025-04-01T10:48:49.150,1743497329150,11.8281160027886,46.3763619364703,32.18688,1905.9144,4.78017502688,2
2025-04-01T10:48:49.250,1743497329250,11.8281210497243,46.3763592303931,32.09544,1905.9144,4.78017502688,2
2025-04-01T10:48:49.350,1743497329350,11.8281255126941,46.3763569515768,32.09544,1905.9144,4.78017502688,2
2025-04-01T10:48:49.450,1743497329450,11.8281304752129,46.3763543296362,31.97352,1905.9144,4.78017502688,2
2025-04-01T10:48:49.550,1743497329550,11.8281354140949,46.376351700296,31.88208,1905.6096,4.78017502688,2
2025-04-01T10:48:49.660,1743497329660,11.8281404165379,46.3763490761629,31.88208,1905.6096,4.78017502688,2
2025-04-01T10:48:49.760,1743497329760,11.8281456122458,46.376346339939,31.79064,1905.6096,4.78017502688,2
2025-04-01T10:48:49.870,1743497329870,11.8281507066534,46.376343671408,31.6992,1905.6096,4.8600490048,2
2025-04-01T10:48:49.970,1743497329970,11.8281557249867,46.3763409497093,31.6992,1905.6096,4.92037392352,2
2025-04-01T10:48:50.070,1743497330070,11.8281608380654,46.3763382534983,31.57728,1905.3048,4.92037392352,2
2025-04-01T10:48:50.170,1743497330170,11.8281660645606,46.3763355353623,31.48584,1905.3048,4.8600490048,2
2025-04-01T10:48:50.270,1743497330270,11.8281711877694,46.3763328320257,31.3944,1905.3048,4.8600490048,2
2025-04-01T10:48:50.350,1743497330350,11.8281763590461,46.3763302062482,31.3944,1905.3048,4.8600490048,2
2025-04-01T10:48:50.480,1743497330480,11.8281815039052,46.3763275330583,31.27248,1905,4.8600490048,2
2025-04-01T10:48:50.580,1743497330580,11.8281861502085,46.3763250941904,31.18104,1905,4.8600490048,2
2025-04-01T10:48:50.680,1743497330680,11.8281912398491,46.3763224601912,31.0896,1905,4.8600490048,2
2025-04-01T10:48:50.780,1743497330780,11.8281971051316,46.3763195345912,30.99816,1904.6952,4.8600490048,2
2025-04-01T10:48:50.880,1743497330880,11.8282022770042,46.3763168808595,30.87624,1904.6952,4.8600490048,2
2025-04-01T10:48:50.990,1743497330990,11.8282075936765,46.3763143194864,30.7848,1904.6952,4.8600490048,2
2025-04-01T10:48:51.050,1743497331050,11.8282127798502,46.3763117038492,30.7848,1904.6952,4.8600490048,2
2025-04-01T10:48:51.150,1743497331150,11.8282180512354,46.3763089857133,30.69336,1904.3904,4.80104911264,2
2025-04-01T10:48:51.250,1743497331250,11.82822321993,46.3763063947416,30.57144,1904.3904,4.80104911264,2
2025-04-01T10:48:51.350,1743497331350,11.8282283836588,46.3763040479582,30.48,1904.3904,4.80104911264,2
2025-04-01T10:48:51.450,1743497331450,11.8282335166003,46.3763014811039,30.38856,1904.0856,4.80104911264,2
2025-04-01T10:48:51.550,1743497331550,11.8282386852949,46.3762987785894,30.29712,1904.0856,4.80104911264,2
2025-04-01T10:48:51.650,1743497331650,11.8282443295045,46.37629607169,30.1752,1904.0856,4.80104911264,2
2025-04-01T10:48:51.750,1743497331750,11.8282495546093,46.3762934735927,30.08376,1903.7808,4.80104911264,2
2025-04-01T10:48:51.850,1743497331850,11.8282547767348,46.3762908845395,29.99232,1903.7808,4.80104911264,2
2025-04-01T10:48:51.950,1743497331950,11.8282594577979,46.3762884749961,29.8704,1903.7808,4.80104911264,2
2025-04-01T10:48:52.050,1743497332050,11.8282646058351,46.3762859456881,29.77896,1903.476,4.80104911264,2
2025-04-01T10:48:52.150,1743497332150,11.8282698424604,46.3762835640989,29.68752,1903.476,4.74342431552,2
2025-04-01T10:48:52.250,1743497332250,11.8282749948675,46.3762810764482,29.59608,1903.476,4.74342431552,2
2025-04-01T10:48:52.350,1743497332350,11.8282800783506,46.3762786427875,29.47416,1903.1712,4.74342431552,2
2025-04-01T10:48:52.450,1743497332450,11.8282852915377,46.3762761962459,29.38272,1903.1712,4.82597919232,2
2025-04-01T10:48:52.550,1743497332550,11.8282901199827,46.376274049801,29.29128,1903.1712,4.82597919232,2
2025-04-01T10:48:52.650,1743497332650,11.8282953903746,46.3762716517682,29.19984,1902.8664,4.82597919232,2
2025-04-01T10:48:52.750,1743497332750,11.828301327759,46.3762688431922,28.98648,1902.8664,4.77075187072,2
2025-04-01T10:48:52.850,1743497332850,11.8283066793898,46.3762664013096,28.89504,1902.5616,4.9091831712,2
2025-04-01T10:48:52.950,1743497332950,11.8283120518766,46.3762640846729,28.77312,1902.5616,4.82597919232,2
2025-04-01T10:48:53.050,1743497333050,11.8283173425287,46.3762616422422,28.68168,1902.5616,4.82597919232,2
2025-04-01T10:48:53.150,1743497333150,11.8283225132096,46.3762590068726,28.59024,1902.2568,4.74342431552,2
2025-04-01T10:48:53.250,1743497333250,11.8283277146778,46.3762565589607,28.4988,1902.2568,4.68722423488,2
2025-04-01T10:48:53.350,1743497333350,11.8283329129679,46.3762542875441,28.37688,1902.2568,4.68722423488,2
2025-04-01T10:48:53.450,1743497333450,11.8283380693475,46.376251879371,28.28544,1901.952,4.68722423488,2
2025-04-01T10:48:53.550,1743497333550,11.8283432451927,46.3762494690054,28.194,1901.952,4.68722423488,2
2025-04-01T10:48:53.650,1743497333650,11.8283483769424,46.3762470534327,28.07208,1901.952,4.68722423488,2
2025-04-01T10:48:53.750,1743497333750,11.8283536320401,46.376244597299,27.98064,1901.6472,4.68722423488,2
2025-04-01T10:48:53.850,1743497333850,11.8283587655775,46.3762421584311,27.79776,1901.6472,4.74342431552,2
2025-04-01T10:48:53.950,1743497333950,11.8283639990247,46.3762397091489,27.67584,1901.3424,4.74342431552,2
2025-04-01T10:48:54.050,1743497334050,11.828369111309,46.3762372601408,27.5844,1901.3424,4.74342431552,2
2025-04-01T10:48:54.150,1743497334150,11.8283740243694,46.3762347357659,27.49296,1901.3424,4.66155251584,2
2025-04-01T10:48:54.250,1743497334250,11.8283795273547,46.3762320812121,27.37104,1901.0376,4.66155251584,2
2025-04-01T10:48:54.350,1743497334350,11.8283846350705,46.3762296001388,27.2796,1901.0376,4.66155251584,2
2025-04-01T10:48:54.450,1743497334450,11.82838975093,46.3762271245468,27.18816,1901.0376,4.6043533008,2
2025-04-01T10:48:54.550,1743497334550,11.8283935073803,46.3762253453434,27.09672,1900.7328,4.6043533008,2
2025-04-01T10:48:54.640,1743497334640,11.8283985229328,46.3762229366222,26.9748,1900.7328,4.74342431552,2
2025-04-01T10:48:54.750,1743497334750,11.828404689931,46.3762198865986,26.88336,1900.7328,4.74342431552,2
2025-04-01T10:48:54.850,1743497334850,11.8284098379682,46.3762173967553,26.79192,1900.7328,4.74342431552,2
2025-04-01T10:48:54.950,1743497334950,11.8284148878832,46.3762149036234,26.67,1900.428,4.74342431552,2
2025-04-01T10:48:55.050,1743497335050,11.8284200349273,46.3762124209058,26.57856,1900.428,4.74342431552,2
2025-04-01T10:48:55.160,1743497335160,11.8284251760126,46.3762099546318,26.48712,1900.428,4.74342431552,2
2025-04-01T10:48:55.260,1743497335260,11.8284303236526,46.3762074631442,26.39568,1900.1232,4.74342431552,2
2025-04-01T10:48:55.350,1743497335350,11.8284353610541,46.3762050829254,26.27376,1900.1232,4.74342431552,2
2025-04-01T10:48:55.450,1743497335450,11.8284405047215,46.3762025933562,26.27376,1900.1232,4.74342431552,2
2025-04-01T10:48:55.570,1743497335570,11.8284458456264,46.3762000086879,26.18232,1900.1232,4.74342431552,2
2025-04-01T10:48:55.670,1743497335670,11.8284510029992,46.3761974988382,26.09088,1899.8184,4.74342431552,2
2025-04-01T10:48:55.750,1743497335750,11.8284559833945,46.3761949388354,25.99944,1899.8184,4.80104911264,2
2025-04-01T10:48:55.880,1743497335880,11.8284611294454,46.3761924095275,25.87752,1899.8184,4.80104911264,2
2025-04-01T10:48:55.980,1743497335980,11.8284663003249,46.3761900246496,25.78608,1899.5136,4.74342431552,2
2025-04-01T10:48:56.080,1743497336080,11.8284714461772,46.3761874983562,25.69464,1899.5136,4.74342431552,2
2025-04-01T10:48:56.180,1743497336180,11.8284766095088,46.3761848183148,25.57272,1899.5136,4.80104911264,2
2025-04-01T10:48:56.250,1743497336250,11.8284817706554,46.3761822859921,25.48128,1899.2088,4.80104911264,2
2025-04-01T10:48:56.380,1743497336380,11.8284867788587,46.3761798547979,25.38984,1899.2088,4.74342431552,2
2025-04-01T10:48:56.480,1743497336480,11.8284919501353,46.3761773331637,25.2984,1899.2088,4.74342431552,2
2025-04-01T10:48:56.550,1743497336550,11.8284967416355,46.3761749419824,25.17648,1898.904,4.80104911264,2
2025-04-01T10:48:56.650,1743497336650,11.8285018753716,46.376172406371,24.9936,1898.904,4.80104911264,2
2025-04-01T10:48:56.750,1743497336750,11.8285071078256,46.3761699017285,24.87168,1898.5992,4.80104911264,2
2025-04-01T10:48:56.850,1743497336850,11.8285132064959,46.3761668073069,24.78024,1898.5992,4.80104911264,2
2025-04-01T10:48:56.950,1743497336950,11.8285184435184,46.3761641875588,24.6888,1898.5992,4.80104911264,2
2025-04-01T10:48:57.050,1743497337050,11.8285236632604,46.3761615667145,24.59736,1898.2944,4.80104911264,2
2025-04-01T10:48:57.150,1743497337150,11.8285281995238,46.3761592621365,24.47544,1898.2944,4.80104911264,2
2025-04-01T10:48:57.250,1743497337250,11.8285333231298,46.3761566862381,24.384,1898.2944,4.80104911264,2
2025-04-01T10:48:57.350,1743497337350,11.8285385083104,46.3761540632013,24.29256,1897.9896,4.80104911264,2
2025-04-01T10:48:57.450,1743497337450,11.8285436819706,46.3761514930583,24.17064,1897.9896,4.80104911264,2
2025-04-01T10:48:57.550,1743497337550,11.8285488456994,46.376148890302,24.0792,1897.9896,4.80104911264,2
2025-04-01T10:48:57.650,1743497337650,11.8285540851054,46.376146311663,23.98776,1897.6848,4.88263033632,2
2025-04-01T10:48:57.750,1743497337750,11.828559229766,46.3761436935593,23.89632,1897.6848,4.88263033632,2
2025-04-01T10:48:57.850,1743497337850,11.8285645061168,46.3761410976545,23.7744,1897.6848,4.88263033632,2
2025-04-01T10:48:57.950,1743497337950,11.8285699036306,46.376138615211,23.59152,1897.38,4.88263033632,2
2025-04-01T10:48:58.050,1743497338050,11.8285752040155,46.376136013825,23.4696,1897.38,4.88263033632,2
2025-04-01T10:48:58.150,1743497338150,11.8285803945591,46.3761333337835,23.37816,1897.0752,4.88263033632,2
2025-04-01T10:48:58.250,1743497338250,11.8285856822317,46.3761307271904,23.28672,1897.0752,4.88263033632,2
2025-04-01T10:48:58.350,1743497338350,11.828590870789,46.376128119775,23.19528,1897.0752,4.88263033632,2
2025-04-01T10:48:58.450,1743497338450,11.8285961129759,46.3761255112634,23.07336,1896.7704,4.88263033632,2
2025-04-01T10:48:58.550,1743497338550,11.8286009400305,46.376123141733,22.98192,1896.7704,4.88263033632,2
2025-04-01T10:48:58.650,1743497338650,11.8286060928349,46.3761205471985,22.89048,1896.7704,4.80104911264,2
2025-04-01T10:48:58.750,1743497338750,11.8286118192765,46.3761175111519,22.79904,1896.4656,4.8600490048,2
2025-04-01T10:48:58.850,1743497338850,11.8286169756561,46.3761148719455,22.67712,1896.4656,4.8600490048,2
2025-04-01T10:48:58.950,1743497338950,11.8286221322344,46.3761122500049,22.58568,1896.4656,4.8600490048,2
2025-04-01T10:48:59.050,1743497339050,11.8286272931824,46.3761096023026,22.37232,1896.1608,4.8600490048,2
2025-04-01T10:48:59.150,1743497339150,11.8286326509706,46.3761068373023,22.28088,1896.1608,4.8600490048,2
2025-04-01T10:48:59.230,1743497339230,11.8286378810411,46.3761041928887,22.18944,1895.856,4.94065568128,2
2025-04-01T10:48:59.340,1743497339340,11.8286430539068,46.3761017329182,22.098,1895.856,4.94065568128,2
2025-04-01T10:48:59.450,1743497339450,11.8286485966176,46.376099004642,21.97608,1895.856,4.88263033632,2
2025-04-01T10:48:59.550,1743497339550,11.8286538630371,46.3760964114778,21.88464,1895.5512,4.88263033632,2
2025-04-01T10:48:59.650,1743497339650,11.8286590921146,46.3760938169433,21.7932,1895.5512,4.80104911264,2
2025-04-01T10:48:59.750,1743497339750,11.8286638556083,46.3760914372726,21.67128,1895.5512,4.80104911264,2
2025-04-01T10:48:59.850,1743497339850,11.8286689706733,46.3760888605521,21.57984,1895.2464,4.80104911264,2
2025-04-01T10:48:59.950,1743497339950,11.8286739731163,46.3760861906508,21.4884,1895.2464,4.80104911264,2
2025-04-01T10:49:00.050,1743497340050,11.8286790935443,46.3760836251668,21.39696,1895.2464,4.80104911264,2
2025-04-01T10:49:00.150,1743497340150,11.8286843349366,46.3760811076435,21.27504,1894.9416,4.80104911264,2
2025-04-01T10:49:00.250,1743497340250,11.8286895799041,46.3760785681952,21.1836,1894.9416,4.88263033632,2
2025-04-01T10:49:00.350,1743497340350,11.828695142279,46.3760759758533,21.09216,1894.9416,4.9091831712,2
2025-04-01T10:49:00.450,1743497340450,11.8287005340326,46.3760734583299,20.97024,1894.6368,4.9091831712,2
2025-04-01T10:49:00.550,1743497340550,11.8287054824488,46.3760712436438,20.8788,1894.6368,4.9091831712,2
2025-04-01T10:49:00.650,1743497340650,11.8287108763873,46.3760687417419,20.78736,1894.6368,4.9091831712,2
2025-04-01T10:49:00.750,1743497340750,11.8287163438182,46.376066203664,20.69592,1894.332,4.9091831712,2
2025-04-01T10:49:00.850,1743497340850,11.8287217544415,46.3760637151911,20.574,1894.332,4.9091831712,2
2025-04-01T10:49:00.960,1743497340960,11.8287275788067,46.3760608978451,20.48256,1894.332,4.9091831712,2
2025-04-01T10:49:01.050,1743497341050,11.8287329671837,46.376058431023,20.39112,1894.332,4.9091831712,2
2025-04-01T10:49:01.160,1743497341160,11.8287382083774,46.3760561023276,20.17776,1894.0272,4.82597919232,2
2025-04-01T10:49:01.260,1743497341260,11.8287435139266,46.3760536585266,20.08632,1894.0272,4.82597919232,2
2025-04-01T10:49:01.350,1743497341350,11.8287488478796,46.3760512032151,19.99488,1893.7224,4.82597919232,2
2025-04-01T10:49:01.470,1743497341470,11.8287540819227,46.3760487087128,19.87296,1893.7224,4.82597919232,2
2025-04-01T10:49:01.550,1743497341550,11.8287593227192,46.3760461766642,19.78152,1893.7224,4.80104911264,2
2025-04-01T10:49:01.670,1743497341670,11.8287644242777,46.3760435591086,19.69008,1893.4176,4.78017502688,2
2025-04-01T10:49:01.770,1743497341770,11.8287693681256,46.3760410021204,19.59864,1893.4176,4.84149505664,2
2025-04-01T10:49:01.880,1743497341880,11.8287742176253,46.3760381960109,19.47672,1893.4176,4.7507968992,2
2025-04-01T10:49:01.980,1743497341980,11.8287789612564,46.3760352915135,19.38528,1893.1128,4.81041325952,2
2025-04-01T10:49:02.080,1743497342080,11.8287836655593,46.3760319674289,19.29384,1893.1128,4.73815058464,2
2025-04-01T10:49:02.180,1743497342180,11.8287878158891,46.3760286995268,19.17192,1893.1128,4.6861571504,2
2025-04-01T10:49:02.280,1743497342280,11.8287915967711,46.3760252655438,19.08048,1892.808,4.66155251584,2
2025-04-01T10:49:02.350,1743497342350,11.828794508259,46.3760220790377,19.08048,1892.808,4.57930877888,2
2025-04-01T10:49:02.450,1743497342450,11.8287973416862,46.37601848884,18.98904,1892.808,4.47214300896,2
2025-04-01T10:49:02.550,1743497342550,11.8287994276767,46.3760150825372,18.98904,1892.808,4.30813878528,2
2025-04-01T10:49:02.650,1743497342650,11.8288011980475,46.3760115238565,18.8976,1892.808,4.08044790208,2
2025-04-01T10:49:02.750,1743497342750,11.8288026462438,46.376008006559,18.8976,1892.808,3.98121217472,2
2025-04-01T10:49:02.850,1743497342850,11.8288042859174,46.3760039704643,18.8976,1892.808,3.83275957856,2
2025-04-01T10:49:02.950,1743497342950,11.8288048001654,46.3760005016756,18.8976,1892.808,3.7054072704,2
2025-04-01T10:49:03.050,1743497343050,11.8288052633659,46.3759973003703,18.8976,1892.808,3.70000613312,2
2025-04-01T10:49:03.150,1743497343150,11.828805140217,46.3759939261326,18.8976,1892.808,3.7054072704,2
2025-04-01T10:49:03.250,1743497343250,11.828805019253,46.3759903910211,18.8976,1892.808,3.72156463712,2
2025-04-01T10:49:03.350,1743497343350,11.8288042340774,46.3759869246989,18.98904,1892.808,3.86394195968,2
2025-04-01T10:49:03.450,1743497343450,11.8288030375436,46.3759833942465,18.98904,1892.808,3.92938280416,2
2025-04-01T10:49:03.550,1743497343550,11.8288013082899,46.3759800879759,19.08048,1892.808,4.1436763456,2
2025-04-01T10:49:03.650,1743497343650,11.8287990981582,46.3759765561531,19.08048,1892.808,4.20476614976,2
2025-04-01T10:49:03.750,1743497343750,11.8287961781303,46.375973004324,19.17192,1893.1128,4.3046554496,2
2025-04-01T10:49:03.850,1743497343850,11.8287930670223,46.3759696829801,19.29384,1893.1128,4.32666859328,2
2025-04-01T10:49:03.950,1743497343950,11.8287896728695,46.3759664701643,19.38528,1893.1128,4.26380806368,2
2025-04-01T10:49:04.050,1743497344050,11.8287859795832,46.3759635346981,19.38528,1893.1128,4.24500377312,2
2025-04-01T10:49:04.150,1743497344150,11.8287820227176,46.3759609133057,19.47672,1893.4176,4.24500377312,2
2025-04-01T10:49:04.250,1743497344250,11.8287778441833,46.3759584048264,19.59864,1893.4176,4.2011969824,2
2025-04-01T10:49:04.350,1743497344350,11.828773515089,46.3759561912366,19.69008,1893.4176,4.24382582272,2
2025-04-01T10:49:04.450,1743497344450,11.8287687911226,46.375954095219,19.78152,1893.7224,4.3046554496,2
2025-04-01T10:49:04.550,1743497344550,11.8287633846709,46.3759518018774,19.87296,1893.7224,4.38292857728,2
2025-04-01T10:49:04.650,1743497344650,11.8287572903707,46.3759495184021,19.99488,1893.7224,4.47772966784,2
2025-04-01T10:49:04.750,1743497344750,11.8287517214413,46.3759479409077,20.08632,1894.0272,4.58803544672,2
2025-04-01T10:49:04.850,1743497344850,11.8287459860616,46.3759465434712,20.17776,1894.0272,4.61736618816,2
2025-04-01T10:49:04.950,1743497344950,11.8287403325166,46.375945561237,20.29968,1894.0272,4.65726003776,2
2025-04-01T10:49:05.050,1743497345050,11.8287343508383,46.3759445288497,20.48256,1894.332,4.70744832448,2
2025-04-01T10:49:05.150,1743497345150,11.8287282881198,46.3759435674441,20.574,1894.332,4.7854022656,2
2025-04-01T10:49:05.250,1743497345250,11.8287220659032,46.3759427967849,20.69592,1894.332,4.85078097152,2
2025-04-01T10:49:05.350,1743497345350,11.828715694517,46.3759422711361,20.78736,1894.6368,4.83736261888,2
2025-04-01T10:49:05.450,1743497345450,11.8287092557959,46.3759417271253,20.8788,1894.6368,4.92545229792,2
2025-04-01T10:49:05.550,1743497345550,11.8287025395917,46.3759412291566,21.09216,1894.9416,5.01598236832,2
2025-04-01T10:49:05.630,1743497345630,11.8286959556736,46.3759408161469,21.1836,1894.9416,5.01598236832,2
2025-04-01T10:49:05.750,1743497345750,11.828689333619,46.3759405231758,21.27504,1894.9416,5.10882408256,2
2025-04-01T10:49:05.840,1743497345840,11.8286826339009,46.3759401600451,21.39696,1895.2464,5.10882408256,2
2025-04-01T10:49:05.950,1743497345950,11.8286758179855,46.3759399021538,21.57984,1895.2464,5.2086552672,2
2025-04-01T10:49:06.050,1743497346050,11.8286689963098,46.3759394946253,21.67128,1895.5512,5.21537025504,2
2025-04-01T10:49:06.150,1743497346150,11.8286622358115,46.3759391391683,21.7932,1895.5512,5.21537025504,2
2025-04-01T10:49:06.250,1743497346250,11.8286553738144,46.3759386557249,21.97608,1895.856,5.22399142144,2
2025-04-01T10:49:06.350,1743497346350,11.8286483386138,46.3759383624797,22.098,1895.856,5.32354141792,2
2025-04-01T10:49:06.450,1743497346450,11.828641460925,46.3759378647851,22.18944,1895.856,5.22399142144,2
2025-04-01T10:49:06.550,1743497346550,11.8286351475379,46.3759376581432,22.37232,1896.1608,5.22399142144,2
2025-04-01T10:49:06.650,1743497346650,11.82862842895,46.3759371527749,22.49424,1896.1608,5.22399142144,2
2025-04-01T10:49:06.760,1743497346760,11.8286210036441,46.3759366967376,22.58568,1896.4656,5.12445930656,2
2025-04-01T10:49:06.860,1743497346860,11.828614362521,46.3759361351868,22.67712,1896.4656,5.03587967168,2
2025-04-01T10:49:06.960,1743497346960,11.8286079514091,46.3759357123108,22.89048,1896.7704,5.03587967168,2
2025-04-01T10:49:07.070,1743497347070,11.8286013952988,46.375935082793,22.98192,1896.7704,5.04877051712,2
2025-04-01T10:49:07.150,1743497347150,11.828594806415,46.3759345374118,23.07336,1896.7704,4.94975562752,2
2025-04-01T10:49:07.270,1743497347270,11.8285877239408,46.3759338218388,23.19528,1897.0752,4.94975562752,2
2025-04-01T10:49:07.350,1743497347350,11.8285812045767,46.3759331350422,23.28672,1897.0752,4.94975562752,2
2025-04-01T10:49:07.470,1743497347470,11.828574732486,46.3759324312538,23.4696,1897.38,4.94975562752,2
2025-04-01T10:49:07.580,1743497347580,11.8285689885651,46.3759318403785,23.59152,1897.38,4.86621770976,2
2025-04-01T10:49:07.680,1743497347680,11.8285626894793,46.3759311072656,23.68296,1897.38,4.86621770976,2
2025-04-01T10:49:07.780,1743497347780,11.8285564408449,46.3759303900483,23.7744,1897.6848,4.86621770976,2
2025-04-01T10:49:07.880,1743497347880,11.8285502210116,46.3759296108931,23.89632,1897.6848,4.76760649728,2
2025-04-01T10:49:07.980,1743497347980,11.8285442123198,46.3759287763777,24.0792,1897.9896,4.7854022656,2
2025-04-01T10:49:08.080,1743497348080,11.8285380341984,46.3759279459732,24.17064,1897.9896,4.7854022656,2
2025-04-01T10:49:08.150,1743497348150,11.8285317873518,46.3759270618528,24.29256,1897.9896,4.7854022656,2
2025-04-01T10:49:08.250,1743497348250,11.8285256018811,46.375926207879,24.384,1898.2944,4.7854022656,2
2025-04-01T10:49:08.350,1743497348350,11.8285194640812,46.3759252958044,24.59736,1898.2944,4.7854022656,2
2025-04-01T10:49:08.450,1743497348450,11.8285132678847,46.3759244336088,24.6888,1898.5992,4.7854022656,2
2025-04-01T10:49:08.550,1743497348550,11.8285076755169,46.3759235941603,24.78024,1898.5992,4.7854022656,2
2025-04-01T10:49:08.650,1743497348650,11.8285015353334,46.375922751149,24.87168,1898.5992,4.7854022656,2
2025-04-01T10:49:08.750,1743497348750,11.8284948735531,46.375921864562,24.9936,1898.904,4.7854022656,2
2025-04-01T10:49:08.850,1743497348850,11.8284887335682,46.3759210316909,25.17648,1898.904,4.7854022656,2
2025-04-01T10:49:08.950,1743497348950,11.8284827081917,46.375920253358,25.2984,1899.2088,4.68722423488,2
2025-04-01T10:49:09.050,1743497349050,11.8284766037612,46.3759194273385,25.38984,1899.2088,4.68722423488,2
2025-04-01T10:49:09.150,1743497349150,11.8284705640835,46.3759184086541,25.48128,1899.2088,4.7854022656,2
2025-04-01T10:49:09.250,1743497349250,11.8284644014552,46.3759175667391,25.57272,1899.5136,4.7854022656,2
2025-04-01T10:49:09.350,1743497349350,11.8284582747784,46.3759167261943,25.69464,1899.5136,4.7854022656,2
2025-04-01T10:49:09.450,1743497349450,11.8284520771915,46.3759159086707,25.87752,1899.8184,4.7854022656,2
2025-04-01T10:49:09.550,1743497349550,11.8284458531871,46.3759149324658,25.99944,1899.8184,4.7854022656,2
2025-04-01T10:49:09.650,1743497349650,11.8284396836066,46.3759141152162,26.09088,1899.8184,4.7854022656,2
2025-04-01T10:49:09.750,1743497349750,11.8284342072375,46.3759133736074,26.18232,1900.1232,4.7854022656,2
2025-04-01T10:49:09.850,1743497349850,11.828427217324,46.3759123467012,26.39568,1900.1232,4.7854022656,2
2025-04-01T10:49:09.950,1743497349950,11.828421070983,46.3759115042381,26.48712,1900.428,4.7854022656,2
2025-04-01T10:49:10.050,1743497350050,11.8284149069642,46.3759106746557,26.57856,1900.428,4.76760649728,2
2025-04-01T10:49:10.150,1743497350150,11.8284094033831,46.3759100108803,26.67,1900.428,4.76760649728,2
2025-04-01T10:49:10.250,1743497350250,11.8284032782954,46.3759092199405,26.88336,1900.7328,4.76760649728,2
2025-04-01T10:49:10.350,1743497350350,11.8283971416872,46.3759083654186,26.9748,1900.7328,4.76760649728,2
2025-04-01T10:49:10.450,1743497350450,11.8283909921683,46.3759075572131,27.09672,1900.7328,4.76760649728,2
2025-04-01T10:49:10.550,1743497350550,11.8283853425957,46.3759068616465,27.2796,1901.0376,4.7854022656,2
2025-04-01T10:49:10.650,1743497350650,11.828379212145,46.3759060372714,27.37104,1901.0376,4.7854022656,2
2025-04-01T10:49:10.750,1743497350750,11.8283723874899,46.3759051068346,27.49296,1901.3424,4.7854022656,2
2025-04-01T10:49:10.850,1743497350850,11.8283661853345,46.3759042679342,27.5844,1901.3424,4.7854022656,2
2025-04-01T10:49:10.940,1743497350940,11.8283601859781,46.3759034515068,27.79776,1901.6472,4.7854022656,2
2025-04-01T10:49:11.050,1743497351050,11.828354026925,46.3759026246651,27.8892,1901.6472,4.7854022656,2
2025-04-01T10:49:11.140,1743497351140,11.8283478035164,46.3759017251973,27.98064,1901.6472,4.7854022656,2
2025-04-01T10:49:11.250,1743497351250,11.8283417032571,46.3759008758826,28.194,1901.952,4.7854022656,2
2025-04-01T10:49:11.350,1743497351350,11.8283357650782,46.3759001416734,28.28544,1901.952,4.68722423488,2
2025-04-01T10:49:11.450,1743497351450,11.8283297057362,46.3758992898922,28.37688,1902.2568,4.68722423488,2
2025-04-01T10:49:11.550,1743497351550,11.8283236841336,46.3758983504114,28.59024,1902.2568,4.68722423488,2
2025-04-01T10:49:11.650,1743497351650,11.8283176092988,46.3758975010967,28.68168,1902.5616,4.7854022656,2
2025-04-01T10:49:11.750,1743497351750,11.8283113276923,46.3758968088189,28.77312,1902.5616,4.7854022656,2
2025-04-01T10:49:11.950,1743497351950,11.8282989474156,46.3758951512986,29.07792,1902.8664,4.7854022656,2
2025-04-01T10:49:12.060,1743497352060,11.8282927776366,46.3758943307603,29.19984,1902.8664,4.7854022656,2
2025-04-01T10:49:12.150,1743497352150,11.8282865967344,46.3758934732238,29.29128,1903.1712,4.76760649728,2
2025-04-01T10:49:12.250,1743497352250,11.828280452777,46.3758926367899,29.38272,1903.1712,4.7854022656,2
2025-04-01T10:49:12.350,1743497352350,11.8282744538179,46.3758918828484,29.59608,1903.476,4.7854022656,2
2025-04-01T10:49:12.460,1743497352460,11.8282683511751,46.3758910165419,29.68752,1903.476,4.7854022656,2
2025-04-01T10:49:12.570,1743497352570,11.828262277532,46.3758900321152,29.77896,1903.476,4.7854022656,2
2025-04-01T10:49:12.670,1743497352670,11.8282561800535,46.3758891430617,29.8704,1903.7808,4.7854022656,2
2025-04-01T10:49:12.770,1743497352770,11.8282507183828,46.375888433244,30.08376,1903.7808,4.7854022656,2
2025-04-01T10:49:12.870,1743497352870,11.8282446745339,46.3758875628266,30.1752,1904.0856,4.7854022656,2
2025-04-01T10:49:12.970,1743497352970,11.8282379976579,46.3758866439004,30.29712,1904.0856,4.7854022656,2
2025-04-01T10:49:13.070,1743497353070,11.8282318787276,46.3758857743052,30.38856,1904.0856,4.7854022656,2
2025-04-01T10:49:13.150,1743497353150,11.8282257210649,46.3758848268767,30.57144,1904.3904,4.7854022656,2
2025-04-01T10:49:13.280,1743497353280,11.8282195735323,46.3758839556371,30.69336,1904.3904,4.7854022656,2
2025-04-01T10:49:13.350,1743497353350,11.828213396404,46.3758830320519,30.7848,1904.6952,4.7854022656,2
2025-04-01T10:49:13.480,1743497353480,11.8282072107348,46.3758821651973,30.99816,1904.6952,4.7854022656,2
2025-04-01T10:49:13.590,1743497353590,11.8282010715445,46.3758812331162,31.0896,1905,4.7854022656,2
2025-04-01T10:49:13.650,1743497353650,11.8281948723685,46.375880354477,31.18104,1905,4.7854022656,2
2025-04-01T10:49:13.750,1743497353750,11.8281888048829,46.3758794119815,31.3944,1905.3048,4.7854022656,2
2025-04-01T10:49:13.850,1743497353850,11.828182620604,46.3758785190912,31.48584,1905.3048,4.7854022656,2
2025-04-01T10:49:13.950,1743497353950,11.8281765114065,46.3758777240405,31.57728,1905.3048,4.7854022656,2
2025-04-01T10:49:14.050,1743497354050,11.8281703565245,46.3758768382757,31.79064,1905.6096,4.7854022656,2
2025-04-01T10:49:14.150,1743497354150,11.8281643214152,46.3758760319886,31.88208,1905.6096,4.7854022656,2
2025-04-01T10:49:14.250,1743497354250,11.8281581716976,46.3758751577343,31.97352,1905.9144,4.7854022656,2
2025-04-01T10:49:14.350,1743497354350,11.828152416455,46.3758742793692,32.09544,1905.9144,4.7854022656,2
2025-04-01T10:49:14.450,1743497354450,11.8281462544225,46.3758734223807,32.27832,1906.2192,4.88365405792,2
2025-04-01T10:49:14.550,1743497354550,11.8281399630832,46.3758725067433,32.36976,1906.2192,4.88365405792,2
2025-04-01T10:49:14.650,1743497354650,11.8281337408665,46.3758716618136,32.49168,1906.2192,4.88365405792,2
2025-04-01T10:49:14.750,1743497354750,11.8281270510797,46.3758706867049,32.58312,1906.524,4.88365405792,2
2025-04-01T10:49:14.850,1743497354850,11.8281207919181,46.3758698151913,32.67456,1906.524,4.88365405792,2
2025-04-01T10:49:14.950,1743497354950,11.8281145182567,46.3758690360362,32.88792,1906.8288,4.88365405792,2
2025-04-01T10:49:15.050,1743497355050,11.8281078670037,46.3758679850126,32.97936,1906.8288,4.86621770976,2
2025-04-01T10:49:15.150,1743497355150,11.8281015774521,46.3758671672149,33.0708,1906.8288,4.86621770976,2
2025-04-01T10:49:15.250,1743497355250,11.8280952652569,46.375866366409,33.19272,1907.1336,4.86621770976,2
2025-04-01T10:49:15.350,1743497355350,11.8280895787395,46.3758657366171,33.28416,1907.1336,4.86621770976,2
2025-04-01T10:49:15.450,1743497355450,11.8280832893865,46.3758649599285,33.49752,1907.1336,4.86621770976,2
2025-04-01T10:49:15.550,1743497355550,11.8280771055049,46.3758643027305,33.58896,1907.4384,4.86621770976,2
2025-04-01T10:49:15.650,1743497355650,11.828070802248,46.3758635485149,33.6804,1907.4384,4.86621770976,2
2025-04-01T10:49:15.750,1743497355750,11.8280644562861,46.3758627636045,33.77184,1907.4384,4.86621770976,2
2025-04-01T10:49:15.850,1743497355850,11.8280581202555,46.375862018707,33.89376,1907.7432,4.86621770976,2
2025-04-01T10:49:15.950,1743497355950,11.8280517031848,46.3758611803547,33.9852,1907.7432,4.96488480224,2
2025-04-01T10:49:16.050,1743497356050,11.8280453468942,46.3758604173692,34.07664,1907.7432,4.96488480224,2
2025-04-01T10:49:16.150,1743497356150,11.8280389689532,46.3758598733583,34.19856,1908.048,4.96488480224,2
2025-04-01T10:49:16.250,1743497356250,11.8280325882314,46.3758591177725,34.29,1908.048,4.96488480224,2
2025-04-01T10:49:16.350,1743497356350,11.828026285769,46.3758583391654,34.29,1908.048,4.96488480224,2
2025-04-01T10:49:16.440,1743497356440,11.8280198911432,46.3758575950901,34.38144,1908.048,4.96488480224,2
2025-04-01T10:49:16.550,1743497356550,11.8280139777928,46.3758569335071,34.47288,1908.3528,4.96488480224,2
2025-04-01T10:49:16.650,1743497356650,11.8280076419608,46.3758562245116,34.5948,1908.3528,4.94975562752,2
2025-04-01T10:49:16.750,1743497356750,11.8280005255214,46.3758554823547,34.68624,1908.3528,4.94975562752,2
2025-04-01T10:49:16.850,1743497356850,11.8279941032863,46.3758547802107,34.77768,1908.6576,4.94975562752,2
2025-04-01T10:49:16.950,1743497356950,11.8279878731244,46.3758541989276,34.8996,1908.6576,4.94975562752,2
2025-04-01T10:49:17.050,1743497357050,11.8279814643961,46.3758534973317,34.99104,1908.6576,4.94975562752,2
2025-04-01T10:49:17.150,1743497357150,11.8279750548732,46.3758526260921,34.99104,1908.6576,4.94975562752,2
2025-04-01T10:49:17.250,1743497357250,11.8279686286656,46.375851919015,35.08248,1908.9624,4.94975562752,2
2025-04-01T10:49:17.350,1743497357350,11.8279621929239,46.3758514155651,35.17392,1908.9624,4.94975562752,2
2025-04-01T10:49:17.450,1743497357450,11.8279557506274,46.3758507465825,35.29584,1908.9624,4.94975562752,2
2025-04-01T10:49:17.560,1743497357560,11.8279491909419,46.3758499096005,35.29584,1908.9624,4.94975562752,2
2025-04-01T10:49:17.650,1743497357650,11.8279422179118,46.3758493439388,35.38728,1909.2672,4.94975562752,2
2025-04-01T10:49:17.750,1743497357750,11.8279357112599,46.3758486853705,35.47872,1909.2672,4.94975562752,2
2025-04-01T10:49:17.850,1743497357850,11.8279292054025,46.3758480278984,35.47872,1909.2672,4.94975562752,2
2025-04-01T10:49:17.960,1743497357960,11.8279234005029,46.3758473252063,35.57016,1909.2672,4.94975562752,2
2025-04-01T10:49:18.070,1743497358070,11.8279169627748,46.3758466707489,35.69208,1909.572,4.94975562752,2
2025-04-01T10:49:18.170,1743497358170,11.8279105512657,46.3758459009118,35.69208,1909.572,4.94975562752,2
2025-04-01T10:49:18.270,1743497358270,11.8279040910928,46.3758452511135,35.78352,1909.572,4.94975562752,2
2025-04-01T10:49:18.350,1743497358350,11.8278975933791,46.3758446733931,35.87496,1909.572,4.94975562752,2
2025-04-01T10:49:18.480,1743497358480,11.8278910851382,46.3758440449715,35.87496,1909.572,5.04877051712,2
2025-04-01T10:49:18.580,1743497358580,11.8278848950992,46.3758435113749,35.99688,1909.8768,5.03587967168,2
2025-04-01T10:49:18.680,1743497358680,11.8278784065225,46.3758429131,35.99688,1909.8768,5.03587967168,2
2025-04-01T10:49:18.780,1743497358780,11.8278713367605,46.3758422411027,36.08832,1909.8768,5.03587967168,2
2025-04-01T10:49:18.880,1743497358880,11.8278648070678,46.3758416532421,36.08832,1909.8768,5.03587967168,2
2025-04-01T10:49:18.990,1743497358990,11.8278581311849,46.3758410218058,36.17976,1909.8768,5.03587967168,2
2025-04-01T10:49:19.050,1743497359050,11.8278516265193,46.3758404355895,36.17976,1909.8768,4.93660594592,2
2025-04-01T10:49:19.150,1743497359150,11.8278452604959,46.3758398959636,36.17976,1909.8768,4.93660594592,2
2025-04-01T10:49:19.250,1743497359250,11.827838809857,46.3758393094733,36.2712,1910.1816,4.93660594592,2
2025-04-01T10:49:19.350,1743497359350,11.8278324752169,46.375838678037,36.2712,1910.1816,4.93660594592,2
2025-04-01T10:49:19.450,1743497359450,11.8278260374888,46.3758380783918,36.39312,1910.1816,4.93660594592,2
2025-04-01T10:49:19.550,1743497359550,11.8278195381862,46.3758374346228,36.39312,1910.1816,4.93660594592,2
2025-04-01T10:49:19.650,1743497359650,11.8278130944993,46.3758368360738,36.39312,1910.1816,4.93660594592,2
2025-04-01T10:49:19.750,1743497359750,11.8278066239977,46.3758362380729,36.48456,1910.1816,4.93660594592,2
2025-04-01T10:49:19.850,1743497359850,11.8278001815026,46.3758356699447,36.48456,1910.1816,4.93660594592,2
2025-04-01T10:49:19.950,1743497359950,11.8277938391159,46.3758349932883,36.576,1910.4864,4.93660594592,2
2025-04-01T10:49:20.050,1743497360050,11.8277873942373,46.3758344624324,36.576,1910.4864,4.92545229792,2
2025-04-01T10:49:20.150,1743497360150,11.8277810198716,46.3758339921439,36.576,1910.4864,4.92545229792,2
2025-04-01T10:49:20.250,1743497360250,11.8277739930133,46.3758335125373,36.576,1910.4864,4.92545229792,2
2025-04-01T10:49:20.350,1743497360350,11.8277674766287,46.3758329904513,36.69792,1910.4864,4.92545229792,2
2025-04-01T10:49:20.450,1743497360450,11.827760954881,46.375832457951,36.69792,1910.4864,4.92545229792,2
2025-04-01T10:49:20.550,1743497360550,11.8277557486458,46.3758321016718,36.69792,1910.4864,4.92545229792,2
2025-04-01T10:49:20.650,1743497360650,11.8277493311779,46.3758315858892,36.69792,1910.4864,4.92545229792,2
2025-04-01T10:49:20.750,1743497360750,11.8277422095741,46.3758309075885,36.69792,1910.4864,5.02494596736,2
2025-04-01T10:49:20.850,1743497360850,11.8277356852443,46.3758304131827,36.78936,1910.4864,5.02494596736,2
2025-04-01T10:49:20.950,1743497360950,11.8277291625036,46.375830031964,36.78936,1910.4864,5.02494596736,2
2025-04-01T10:49:21.050,1743497361050,11.8277225916949,46.3758295630458,36.78936,1910.4864,5.02494596736,2
2025-04-01T10:49:21.150,1743497361150,11.8277157100337,46.3758293481821,36.78936,1910.4864,5.02494596736,2
2025-04-01T10:49:21.250,1743497361250,11.8277090617601,46.3758289151659,36.78936,1910.4864,5.11567050016,2
2025-04-01T10:49:21.350,1743497361350,11.8277023372135,46.375828407331,36.78936,1910.4864,5.11567050016,2
2025-04-01T10:49:21.450,1743497361450,11.827695691522,46.3758279647227,36.78936,1910.4864,5.01598236832,2
2025-04-01T10:49:21.550,1743497361550,11.8276891874522,46.37582756569,36.78936,1910.4864,5.02494596736,2
2025-04-01T10:49:21.650,1743497361650,11.8276826464376,46.3758271085564,36.78936,1910.4864,5.02494596736,2
2025-04-01T10:49:21.750,1743497361750,11.8276760607318,46.3758266127803,36.78936,1910.4864,4.92545229792,2
2025-04-01T10:49:21.850,1743497361850,11.8276695820864,46.3758261216632,36.78936,1910.4864,4.92545229792,2
2025-04-01T10:49:21.940,1743497361940,11.8276630837769,46.3758255924516,36.78936,1910.4864,4.92545229792,2
2025-04-01T10:49:22.050,1743497362050,11.8276565940084,46.3758251224372,36.78936,1910.4864,4.92545229792,2
2025-04-01T10:49:22.150,1743497362150,11.8276499356048,46.3758247305301,36.78936,1910.4864,5.01598236832,2
2025-04-01T10:49:22.250,1743497362250,11.8276433175228,46.3758243846652,36.78936,1910.4864,5.10882408256,2
2025-04-01T10:49:22.350,1743497362350,11.8276364485738,46.3758240662065,36.78936,1910.4864,5.10882408256,2
2025-04-01T10:49:22.450,1743497362450,11.8276296666237,46.3758238332548,36.69792,1910.4864,5.20385316352,2
2025-04-01T10:49:22.550,1743497362550,11.8276232630597,46.3758237093792,36.78936,1910.4864,5.20385316352,2
2025-04-01T10:49:22.650,1743497362650,11.8276164574729,46.3758235065742,36.69792,1910.4864,5.20385316352,2
2025-04-01T10:49:22.750,1743497362750,11.8276090315712,46.3758232733483,36.69792,1910.4864,5.20385316352,2
2025-04-01T10:49:22.850,1743497362850,11.827601672607,46.3758228814413,36.69792,1910.4864,5.2086552672,2
2025-04-01T10:49:22.950,1743497362950,11.8275948309692,46.3758226314977,36.69792,1910.4864,5.10392810048,2
2025-04-01T10:49:23.050,1743497363050,11.8275880018449,46.3758224010125,36.69792,1910.4864,5.10392810048,2
2025-04-01T10:49:23.150,1743497363150,11.827582573941,46.3758222368501,36.69792,1910.4864,5.10392810048,2
2025-04-01T10:49:23.250,1743497363250,11.827575858134,46.375822029386,36.69792,1910.4864,5.10392810048,2
2025-04-01T10:49:23.350,1743497363350,11.8275683817808,46.3758218331584,36.576,1910.4864,5.10392810048,2
2025-04-01T10:49:23.460,1743497363460,11.8275616642853,46.3758215316913,36.576,1910.4864,5.10882408256,2
2025-04-01T10:49:23.570,1743497363570,11.827554889585,46.3758211030601,36.576,1910.4864,5.01598236832,2
2025-04-01T10:49:23.650,1743497363650,11.8275482834205,46.3758207026571,36.576,1910.4864,5.01598236832,2
2025-04-01T10:49:23.750,1743497363750,11.8275416417016,46.3758201841339,36.576,1910.4864,5.01598236832,2
2025-04-01T10:49:23.850,1743497363850,11.827535041496,46.3758197692057,36.576,1910.4864,5.01598236832,2
2025-04-01T10:49:23.970,1743497363970,11.8275284008696,46.3758193929201,36.48456,1910.1816,5.01598236832,2
2025-04-01T10:49:24.050,1743497364050,11.8275218287698,46.3758189862138,36.48456,1910.1816,5.01598236832,2
2025-04-01T10:49:24.150,1743497364150,11.8275151103805,46.3758185342874,36.48456,1910.1816,4.91630720064,2
2025-04-01T10:49:24.250,1743497364250,11.8275085888315,46.375818109767,36.48456,1910.1816,4.91630720064,2
2025-04-01T10:49:24.380,1743497364380,11.8275019548592,46.3758177411551,36.48456,1910.1816,5.01598236832,2
2025-04-01T10:49:24.480,1743497364480,11.8274953717356,46.3758173319822,36.48456,1910.1816,5.01598236832,2
2025-04-01T10:49:24.580,1743497364580,11.8274899902113,46.3758168370282,36.48456,1910.1816,5.01598236832,2
2025-04-01T10:49:24.680,1743497364680,11.8274835329184,46.3758163999011,36.48456,1910.1816,5.02494596736,2
2025-04-01T10:49:24.790,1743497364790,11.8274761756425,46.3758159589371,36.48456,1910.1816,4.92545229792,2
2025-04-01T10:49:24.850,1743497364850,11.8274697538047,46.37581552181,36.48456,1910.1816,4.91630720064,2
2025-04-01T10:49:24.950,1743497364950,11.8274628582394,46.3758149303866,36.48456,1910.1816,4.91630720064,2
2025-04-01T10:49:25.050,1743497365050,11.8274564279599,46.3758145066885,36.48456,1910.1816,4.91630720064,2
2025-04-01T10:49:25.150,1743497365150,11.8274500570701,46.3758141005302,36.48456,1910.1816,4.91630720064,2
2025-04-01T10:49:25.250,1743497365250,11.8274436611532,46.3758137132822,36.48456,1910.1816,4.81664544416,2
2025-04-01T10:49:25.350,1743497365350,11.8274375288155,46.3758131580348,36.48456,1910.1816,4.81664544416,2
2025-04-01T10:49:25.450,1743497365450,11.8274306508287,46.3758128321764,36.48456,1910.1816,4.81664544416,2
2025-04-01T10:49:25.550,1743497365550,11.8274243300925,46.375812438625,36.48456,1910.1816,4.71699799296,2
2025-04-01T10:49:25.650,1743497365650,11.8274180461024,46.375812033563,36.48456,1910.1816,4.71699799296,2
2025-04-01T10:49:25.750,1743497365750,11.8274125429185,46.3758114859893,36.39312,1910.1816,4.71699799296,2
2025-04-01T10:49:25.850,1743497365850,11.8274063596328,46.3758110485881,36.39312,1910.1816,4.71699799296,2
2025-04-01T10:49:25.950,1743497365950,11.8274002679146,46.3758107956299,36.39312,1910.1816,4.71699799296,2
2025-04-01T10:49:26.050,1743497366050,11.8273940102427,46.3758104001601,36.39312,1910.1816,4.81664544416,2
2025-04-01T10:49:26.150,1743497366150,11.8273876209799,46.3758098534086,36.39312,1910.1816,4.81664544416,2
2025-04-01T10:49:26.250,1743497366250,11.8273813537739,46.3758094387544,36.39312,1910.1816,4.71699799296,2
2025-04-01T10:49:26.350,1743497366350,11.8273751851866,46.3758090761719,36.2712,1910.1816,4.71699799296,2
2025-04-01T10:49:26.450,1743497366450,11.8273690354689,46.3758086431557,36.2712,1910.1816,4.71699799296,2
2025-04-01T10:49:26.550,1743497366550,11.8273635578087,46.3758082098654,36.2712,1910.1816,4.61736618816,2
2025-04-01T10:49:26.650,1743497366650,11.8273574914155,46.3758077878116,36.2712,1910.1816,4.71699799296,2
2025-04-01T10:49:26.750,1743497366750,11.8273508026219,46.3758073413664,36.17976,1909.8768,4.71699799296,2
2025-04-01T10:49:26.850,1743497366850,11.8273445947064,46.3758069310973,36.17976,1909.8768,4.71699799296,2
2025-04-01T10:49:26.950,1743497366950,11.8273381797213,46.3758066186678,36.17976,1909.8768,4.81664544416,2
2025-04-01T10:49:27.050,1743497367050,11.8273318628584,46.375806218539,36.17976,1909.8768,4.81664544416,2
2025-04-01T10:49:27.150,1743497367150,11.8273255318929,46.3758058370462,36.17976,1909.8768,4.91630720064,2
2025-04-01T10:49:27.250,1743497367250,11.8273191436233,46.3758054380135,36.17976,1909.8768,4.91630720064,2
2025-04-01T10:49:27.350,1743497367350,11.8273128788008,46.3758050137673,36.17976,1909.8768,4.91630720064,2
2025-04-01T10:49:27.450,1743497367450,11.8273064928153,46.3758046177493,36.17976,1909.8768,4.91630720064,2
2025-04-01T10:49:27.550,1743497367550,11.8273001725757,46.3758043699982,36.08832,1909.8768,4.9091831712,2
2025-04-01T10:49:27.650,1743497367650,11.8272938116173,46.3758039915201,36.08832,1909.8768,4.81664544416,2
2025-04-01T10:49:27.750,1743497367750,11.8272875461989,46.3758035691923,36.08832,1909.8768,4.81664544416,2
2025-04-01T10:49:27.840,1743497367840,11.8272812179148,46.3758031781074,36.08832,1909.8768,4.81664544416,2
2025-04-01T10:49:27.940,1743497367940,11.8272748337171,46.3758028799292,36.08832,1909.8768,4.91630720064,2
2025-04-01T10:49:28.050,1743497368050,11.8272679690386,46.3758023877158,36.08832,1909.8768,4.91630720064,2
2025-04-01T10:49:28.150,1743497368150,11.8272613717132,46.3758020360957,36.08832,1909.8768,5.00900005056,2
2025-04-01T10:49:28.240,1743497368240,11.8272546778546,46.375801722296,36.08832,1909.8768,5.10882408256,2
2025-04-01T10:49:28.350,1743497368350,11.8272484286245,46.3758014964698,36.08832,1909.8768,5.10392810048,2
2025-04-01T10:49:28.450,1743497368450,11.8272416844137,46.3758012528296,36.08832,1909.8768,5.10392810048,2
2025-04-01T10:49:28.550,1743497368550,11.8272354961623,46.375800871885,36.08832,1909.8768,5.10392810048,2
2025-04-01T10:49:28.650,1743497368650,11.8272288276286,46.375800619749,36.08832,1909.8768,5.10392810048,2
2025-04-01T10:49:28.750,1743497368750,11.8272217685926,46.3758005125912,36.08832,1909.8768,5.10392810048,2
2025-04-01T10:49:28.850,1743497368850,11.827215076025,46.3758002747063,36.08832,1909.8768,5.10392810048,2
2025-04-01T10:49:28.960,1743497368960,11.8272084626106,46.3757999507663,36.08832,1909.8768,5.10392810048,2
2025-04-01T10:49:29.060,1743497369060,11.8272017713341,46.3757996942454,35.99688,1909.8768,5.10392810048,2
2025-04-01T10:49:29.160,1743497369160,11.827195142824,46.3757994799297,35.99688,1909.8768,5.10392810048,2
2025-04-01T10:49:29.260,1743497369260,11.8271884758794,46.3757992031282,35.99688,1909.8768,5.10392810048,2
2025-04-01T10:49:29.350,1743497369350,11.8271815678005,46.375798913994,35.99688,1909.8768,5.10882408256,2
2025-04-01T10:49:29.450,1743497369450,11.8271749168455,46.3757986221191,35.99688,1909.8768,5.10882408256,2
2025-04-01T10:49:29.570,1743497369570,11.8271682948901,46.375798499888,35.99688,1909.8768,5.00900005056,2
2025-04-01T10:49:29.670,1743497369670,11.8271616691607,46.3757982008875,35.99688,1909.8768,5.00900005056,2
2025-04-01T10:49:29.770,1743497369770,11.8271552078953,46.3757977552645,35.99688,1909.8768,5.00900005056,2
2025-04-01T10:49:29.850,1743497369850,11.8271486695621,46.3757974170734,35.87496,1909.572,5.00900005056,2
2025-04-01T10:49:29.970,1743497369970,11.8271420211892,46.3757971745295,35.87496,1909.572,4.9091831712,2
2025-04-01T10:49:30.080,1743497370080,11.8271355518793,46.3757968286646,35.87496,1909.572,4.9091831712,2
2025-04-01T10:49:30.180,1743497370180,11.8271290588334,46.3757964638896,35.87496,1909.572,4.91630720064,2
2025-04-01T10:49:30.250,1743497370250,11.827122641564,46.375796105692,35.87496,1909.572,4.91630720064,2
2025-04-01T10:49:30.350,1743497370350,11.8271161256759,46.3757958165578,35.87496,1909.572,4.91630720064,2
2025-04-01T10:49:30.480,1743497370480,11.8271097296597,46.3757954493162,35.87496,1909.572,4.91630720064,2
2025-04-01T10:49:30.580,1743497370580,11.8271036852149,46.3757950593275,35.78352,1909.572,4.91630720064,2
2025-04-01T10:49:30.690,1743497370690,11.827096399743,46.3757944837996,35.78352,1909.572,4.81664544416,2
2025-04-01T10:49:30.750,1743497370750,11.8270899745286,46.3757940839448,35.78352,1909.572,4.81664544416,2
2025-04-01T10:49:30.850,1743497370850,11.8270835458381,46.3757936903933,35.78352,1909.572,4.81664544416,2
2025-04-01T10:49:30.950,1743497370950,11.8270776211659,46.375793288072,35.78352,1909.572,4.81664544416,2
2025-04-01T10:49:31.050,1743497371050,11.8270712447146,46.3757928975352,35.78352,1909.572,4.81664544416,2
2025-04-01T10:49:31.150,1743497371150,11.8270647848395,46.3757925075465,35.78352,1909.572,4.91630720064,2
2025-04-01T10:49:31.250,1743497371250,11.8270583851488,46.3757921033067,35.78352,1909.572,4.91630720064,2
2025-04-01T10:49:31.350,1743497371350,11.8270521187373,46.3757916664536,35.78352,1909.572,4.91630720064,2
2025-04-01T10:49:31.450,1743497371450,11.8270457127897,46.3757912515254,35.69208,1909.572,4.91630720064,2
2025-04-01T10:49:31.550,1743497371550,11.8270392393087,46.3757908113837,35.69208,1909.572,4.91630720064,2
2025-04-01T10:49:31.650,1743497371650,11.8270328185634,46.3757904011145,35.69208,1909.572,4.91630720064,2
2025-04-01T10:49:31.750,1743497371750,11.8270264108281,46.3757901733699,35.69208,1909.572,4.91630720064,2
2025-04-01T10:49:31.850,1743497371850,11.8270200032915,46.3757897973584,35.69208,1909.572,4.91630720064,2
2025-04-01T10:49:31.950,1743497371950,11.8270136560385,46.3757894183321,35.69208,1909.572,4.91630720064,2
2025-04-01T10:49:32.050,1743497372050,11.827007278594,46.37578903081,35.69208,1909.572,4.81664544416,2
2025-04-01T10:49:32.150,1743497372150,11.8270008467254,46.3757885854611,35.69208,1909.572,4.81664544416,2
2025-04-01T10:49:32.250,1743497372250,11.8269944783186,46.3757881787547,35.69208,1909.572,4.81664544416,2
2025-04-01T10:49:32.350,1743497372350,11.8269881503324,46.375787702711,35.69208,1909.572,4.81664544416,2
2025-04-01T10:49:32.450,1743497372450,11.8269817640491,46.3757873034042,35.69208,1909.572,4.81664544416,2
2025-04-01T10:49:32.550,1743497372550,11.8269758009424,46.3757871167688,35.57016,1909.2672,4.91630720064,2
2025-04-01T10:49:32.650,1743497372650,11.8269694078063,46.3757867582971,35.57016,1909.2672,4.91630720064,2
2025-04-01T10:49:32.750,1743497372750,11.8269622478674,46.375786357346,35.57016,1909.2672,4.91630720064,2
2025-04-01T10:49:32.850,1743497372850,11.8269557484655,46.3757859887341,35.57016,1909.2672,4.91630720064,2
2025-04-01T10:49:32.950,1743497372950,11.8269492651523,46.3757855713394,35.57016,1909.2672,4.91630720064,2
2025-04-01T10:49:33.050,1743497373050,11.8269427677366,46.3757851994388,35.57016,1909.2672,4.9091831712,2
2025-04-01T10:49:33.150,1743497373150,11.8269368376021,46.3757849064677,35.57016,1909.2672,4.91630720064,2
2025-04-01T10:49:33.250,1743497373250,11.8269294665217,46.3757845181234,35.57016,1909.2672,4.91630720064,2
2025-04-01T10:49:33.350,1743497373350,11.8269229740716,46.375784129231,35.57016,1909.2672,4.91630720064,2
2025-04-01T10:49:33.450,1743497373450,11.8269164965187,46.3757837258133,35.57016,1909.2672,4.91630720064,2
2025-04-01T10:49:33.550,1743497373550,11.8269106726501,46.3757832289409,35.47872,1909.2672,4.91630720064,2
2025-04-01T10:49:33.650,1743497373650,11.8269042823941,46.3757827983913,35.47872,1909.2672,4.91630720064,2
2025-04-01T10:49:33.750,1743497373750,11.8268977916324,46.375782464311,35.47872,1909.2672,4.81664544416,2
2025-04-01T10:49:33.850,1743497373850,11.826891405647,46.3757820425313,35.47872,1909.2672,4.81664544416,2
2025-04-01T10:49:33.940,1743497373940,11.8268851564168,46.3757816122557,35.47872,1909.2672,4.81664544416,2
2025-04-01T10:49:34.050,1743497374050,11.8268787898969,46.3757811852688,35.47872,1909.2672,4.81664544416,2
2025-04-01T10:49:34.140,1743497374140,11.8268724005347,46.375780664005,35.38728,1909.2672,4.81664544416,2
2025-04-01T10:49:34.250,1743497374250,11.8268660528844,46.3757802375663,35.38728,1909.2672,4.81664544416,2
2025-04-01T10:49:34.350,1743497374350,11.8268596415738,46.3757799328106,35.38728,1909.2672,4.81664544416,2
2025-04-01T10:49:34.450,1743497374450,11.8268533398065,46.3757795447404,35.38728,1909.2672,4.81664544416,2
2025-04-01T10:49:34.550,1743497374550,11.8268477487298,46.3757791566701,35.38728,1909.2672,4.81664544416,2
2025-04-01T10:49:34.660,1743497374660,11.8268415364444,46.375778782577,35.38728,1909.2672,4.81664544416,2
2025-04-01T10:49:34.760,1743497374760,11.8268351083499,46.3757784926206,35.29584,1908.9624,4.81664544416,2
2025-04-01T10:49:34.850,1743497374850,11.8268288607087,46.3757781234606,35.29584,1908.9624,4.81664544416,2
2025-04-01T10:49:34.960,1743497374960,11.8268219412088,46.3757775153194,35.29584,1908.9624,4.81664544416,2
2025-04-01T10:49:35.060,1743497375060,11.8268156179897,46.3757771267011,35.29584,1908.9624,4.81664544416,2
2025-04-01T10:49:35.160,1743497375160,11.8268094119612,46.375776847159,35.17392,1908.9624,4.81664544416,2
2025-04-01T10:49:35.260,1743497375260,11.8268030455406,46.3757764848505,35.17392,1908.9624,4.81664544416,2
2025-04-01T10:49:35.350,1743497375350,11.8267968156766,46.3757760490937,35.17392,1908.9624,4.81664544416,2
2025-04-01T10:49:35.470,1743497375470,11.8267904520368,46.3757756796596,35.08248,1908.9624,4.81664544416,2
2025-04-01T10:49:35.570,1743497375570,11.8267841166021,46.3757752499321,35.08248,1908.9624,4.81664544416,2
2025-04-01T10:49:35.670,1743497375670,11.8267777905029,46.3757748607656,35.08248,1908.9624,4.81664544416,2
2025-04-01T10:49:35.750,1743497375750,11.8267714620699,46.3757745455956,34.99104,1908.6576,4.81664544416,2
2025-04-01T10:49:35.880,1743497375880,11.8267646506236,46.3757740470788,34.99104,1908.6576,4.9091831712,2
2025-04-01T10:49:35.980,1743497375980,11.8267581510231,46.3757737091618,34.8996,1908.6576,4.9091831712,2
2025-04-01T10:49:36.080,1743497376080,11.8267516005738,46.3757734055023,34.8996,1908.6576,4.9091831712,2
2025-04-01T10:49:36.190,1743497376190,11.8267456002244,46.3757733035517,34.8996,1908.6576,5.00400661376,2
2025-04-01T10:49:36.290,1743497376290,11.8267390582167,46.3757730703258,34.77768,1908.6576,5.00400661376,2
2025-04-01T10:49:36.350,1743497376350,11.8267323729984,46.3757727655701,34.77768,1908.6576,5.00400661376,2
2025-04-01T10:49:36.450,1743497376450,11.8267257096293,46.3757725866084,34.68624,1908.3528,5.10098836544,2
2025-04-01T10:49:36.550,1743497376550,11.8267196271969,46.3757724876724,34.68624,1908.3528,5.10098836544,2
2025-04-01T10:49:36.650,1743497376650,11.8267129036931,46.3757723673597,34.5948,1908.3528,5.20096975552,2
2025-04-01T10:49:36.750,1743497376750,11.826705379123,46.3757722659571,34.5948,1908.3528,5.20096975552,2
2025-04-01T10:49:36.850,1743497376850,11.8266985773597,46.3757721670212,34.5948,1908.3528,5.20096975552,2
2025-04-01T10:49:36.950,1743497376950,11.8266919463171,46.375772017658,34.47288,1908.3528,5.20096975552,2
2025-04-01T10:49:37.050,1743497377050,11.8266851820945,46.3757719022783,34.47288,1908.3528,5.10098836544,2
2025-04-01T10:49:37.150,1743497377150,11.8266783395132,46.3757718589767,34.38144,1908.048,5.10098836544,2
2025-04-01T10:49:37.250,1743497377250,11.8266716085607,46.375771738938,34.38144,1908.048,5.10098836544,2
2025-04-01T10:49:37.350,1743497377350,11.8266648951868,46.375771608211,34.29,1908.048,5.10098836544,2
2025-04-01T10:49:37.450,1743497377450,11.8266582194529,46.3757714832392,34.29,1908.048,5.00100786944,2
2025-04-01T10:49:37.550,1743497377550,11.8266516605618,46.3757712247998,34.19856,1908.048,5.00100786944,2
2025-04-01T10:49:37.650,1743497377650,11.8266450755015,46.3757710937987,34.19856,1908.048,5.00100786944,2
2025-04-01T10:49:37.750,1743497377750,11.8266382973749,46.3757710559783,34.07664,1907.7432,5.00100786944,2
2025-04-01T10:49:37.850,1743497377850,11.8266317699167,46.3757709353915,34.07664,1907.7432,5.00100786944,2
2025-04-01T10:49:37.950,1743497377950,11.8266253836333,46.3757707462895,33.9852,1907.7432,4.90102826752,2
2025-04-01T10:49:38.050,1743497378050,11.8266189096556,46.3757706163846,33.9852,1907.7432,4.90102826752,2
2025-04-01T10:49:38.150,1743497378150,11.8266124112468,46.3757705941857,33.89376,1907.7432,4.90102826752,2
2025-04-01T10:49:38.250,1743497378250,11.826605943526,46.3757704799023,33.89376,1907.7432,4.90102826752,2
2025-04-01T10:49:38.350,1743497378350,11.8265993617927,46.3757702858672,33.77184,1907.4384,4.90102826752,2
2025-04-01T10:49:38.450,1743497378450,11.8265929045991,46.3757701565104,33.77184,1907.4384,4.90102826752,2
2025-04-01T10:49:38.550,1743497378550,11.8265863931801,46.3757699578163,33.6804,1907.4384,4.90102826752,2
2025-04-01T10:49:38.650,1743497378650,11.8265799679656,46.3757698076309,33.58896,1907.4384,4.90102826752,2
2025-04-01T10:49:38.750,1743497378750,11.8265736385394,46.3757697555594,33.58896,1907.4384,4.90102826752,2
2025-04-01T10:49:38.850,1743497378850,11.8265672392459,46.3757696237361,33.49752,1907.1336,4.90102826752,2
2025-04-01T10:49:38.950,1743497378950,11.8265608274388,46.3757694272344,33.49752,1907.1336,4.90102826752,2
2025-04-01T10:49:39.050,1743497379050,11.8265543998408,46.3757692986998,33.3756,1907.1336,4.90102826752,2
2025-04-01T10:49:39.150,1743497379150,11.8265480402729,46.3757691581066,33.28416,1907.1336,4.90102826752,2
2025-04-01T10:49:39.250,1743497379250,11.8265416149094,46.3757690424529,33.28416,1907.1336,4.90102826752,2
2025-04-01T10:49:39.350,1743497379350,11.8265350380426,46.3757688848679,33.19272,1907.1336,4.90102826752,2
2025-04-01T10:49:39.450,1743497379450,11.8265286124805,46.3757687675698,33.0708,1906.8288,4.90102826752,2
2025-04-01T10:49:39.550,1743497379550,11.8265223028674,46.3757686023111,33.0708,1906.8288,4.90102826752,2
2025-04-01T10:49:39.640,1743497379640,11.8265159023325,46.3757684929608,32.97936,1906.8288,4.90000812224,2
2025-04-01T10:49:39.750,1743497379750,11.826509572956,46.3757683219468,32.88792,1906.8288,4.90000812224,2
2025-04-01T10:49:39.850,1743497379850,11.8265031750032,46.3757682246552,32.88792,1906.8288,4.90000812224,2
2025-04-01T10:49:39.950,1743497379950,11.8264967835554,46.3757682400026,32.79648,1906.524,4.90000812224,2
2025-04-01T10:49:40.050,1743497380050,11.8264904090407,46.3757681709393,32.67456,1906.524,4.90000812224,2
2025-04-01T10:49:40.150,1743497380150,11.8264840166494,46.3757681555919,32.67456,1906.524,4.80000795648,2
2025-04-01T10:49:40.250,1743497380250,11.8264776735676,46.3757681092756,32.58312,1906.524,4.80000795648,2
2025-04-01T10:49:40.350,1743497380350,11.8264713177239,46.3757678741314,32.49168,1906.2192,4.80000795648,2
2025-04-01T10:49:40.450,1743497380450,11.8264649772738,46.3757678286372,32.36976,1906.2192,4.80000795648,2
2025-04-01T10:49:40.550,1743497380550,11.8264592340979,46.3757679031818,32.36976,1906.2192,4.80000795648,2
2025-04-01T10:49:40.660,1743497380660,11.8264529261732,46.37576788619,32.27832,1906.2192,4.80000795648,2
2025-04-01T10:49:40.750,1743497380750,11.8264460439656,46.3757679029077,32.18688,1905.9144,4.90000812224,2
2025-04-01T10:49:40.850,1743497380850,11.8264396475025,46.3757678938637,32.09544,1905.9144,4.90000812224,2
2025-04-01T10:49:40.950,1743497380950,11.8264331411982,46.3757676935252,31.97352,1905.9144,4.90000812224,2
2025-04-01T10:49:41.070,1743497381070,11.8264262561602,46.3757677812247,31.97352,1905.9144,4.90000812224,2
2025-04-01T10:49:41.170,1743497381170,11.8264197912699,46.375767787254,31.88208,1905.6096,4.90000812224,2
2025-04-01T10:49:41.270,1743497381270,11.8264133399358,46.3757677990387,31.79064,1905.6096,4.90000812224,2
2025-04-01T10:49:41.350,1743497381350,11.8264077203063,46.3757677025692,31.6992,1905.6096,4.80000795648,2
2025-04-01T10:49:41.470,1743497381470,11.8264013454936,46.3757677099689,31.57728,1905.3048,4.80000795648,2
2025-04-01T10:49:41.570,1743497381570,11.8263949871671,46.3757677538186,31.48584,1905.3048,4.90000812224,2
2025-04-01T10:49:41.650,1743497381650,11.8263885916476,46.3757677798544,31.3944,1905.3048,4.90000812224,2
2025-04-01T10:49:41.750,1743497381750,11.8263821521815,46.3757677831432,31.3944,1905.3048,4.90000812224,2
2025-04-01T10:49:41.880,1743497381880,11.826375751001,46.3757678157564,31.27248,1905,4.90000812224,2
2025-04-01T10:49:41.980,1743497381980,11.8263691038199,46.3757680037622,31.18104,1905,4.90000812224,2
2025-04-01T10:49:42.080,1743497382080,11.8263627000572,46.3757680413085,31.0896,1905,4.90000812224,2
2025-04-01T10:49:42.180,1743497382180,11.8263563437666,46.3757679642974,30.99816,1904.6952,4.90000812224,2
2025-04-01T10:49:42.280,1743497382280,11.8263499584763,46.3757679763561,30.87624,1904.6952,4.80000795648,2
2025-04-01T10:49:42.390,1743497382390,11.8263436472991,46.3757680267833,30.87624,1904.6952,4.80000795648,2
2025-04-01T10:49:42.450,1743497382450,11.8263372793639,46.3757680426788,30.7848,1904.6952,4.80000795648,2
2025-04-01T10:49:42.550,1743497382550,11.8263314054411,46.3757681435332,30.69336,1904.3904,4.80000795648,2
2025-04-01T10:49:42.650,1743497382650,11.8263251086395,46.3757681755983,30.57144,1904.3904,4.80000795648,2
2025-04-01T10:49:42.750,1743497382750,11.8263181382908,46.3757682868671,30.48,1904.3904,4.80000795648,2
2025-04-01T10:49:42.850,1743497382850,11.8263118249783,46.3757682876892,30.48,1904.3904,4.80000795648,2
2025-04-01T10:49:42.950,1743497382950,11.8263054960238,46.3757681454516,30.38856,1904.0856,4.80000795648,2
2025-04-01T10:49:43.050,1743497383050,11.8262992403382,46.3757680996835,30.29712,1904.0856,4.70000779072,2
2025-04-01T10:49:43.150,1743497383150,11.8262937125244,46.3757681525772,30.1752,1904.0856,4.70000779072,2
2025-04-01T10:49:43.250,1743497383250,11.8262875403122,46.3757681692949,30.08376,1903.7808,4.70000779072,2
2025-04-01T10:49:43.350,1743497383350,11.8262805694174,46.3757680377457,30.08376,1903.7808,4.80000795648,2
2025-04-01T10:49:43.450,1743497383450,11.8262742692392,46.3757680791289,29.99232,1903.7808,4.80000795648,2
2025-04-01T10:49:43.550,1743497383550,11.8262679925735,46.3757682438395,29.8704,1903.7808,4.80000795648,2
2025-04-01T10:49:43.650,1743497383650,11.8262612053846,46.3757682030044,29.8704,1903.7808,4.80000795648,2
2025-04-01T10:49:43.750,1743497383750,11.8262548774233,46.3757681723096,29.77896,1903.476,4.80000795648,2
2025-04-01T10:49:43.850,1743497383850,11.8262485509269,46.3757681229786,29.68752,1903.476,4.80000795648,2
2025-04-01T10:49:43.950,1743497383950,11.8262428802997,46.3757680577521,29.59608,1903.476,4.80000795648,2
2025-04-01T10:49:44.050,1743497384050,11.8262366075321,46.3757679722451,29.47416,1903.1712,4.80000795648,2
2025-04-01T10:49:44.150,1743497384150,11.8262303517472,46.3757680092434,29.47416,1903.1712,4.80000795648,2
2025-04-01T10:49:44.250,1743497384250,11.8262240912697,46.3757678941378,29.38272,1903.1712,4.80104911264,2
2025-04-01T10:49:44.350,1743497384350,11.8262177875906,46.3757677028433,29.29128,1903.1712,4.80104911264,2
2025-04-01T10:49:44.450,1743497384450,11.8262115650262,46.375767539777,29.19984,1902.8664,4.70107129888,2
2025-04-01T10:49:44.550,1743497384550,11.8262059673699,46.3757673005219,29.07792,1902.8664,4.70107129888,2
2025-04-01T10:49:44.650,1743497384650,11.8261998186703,46.3757671284116,28.98648,1902.8664,4.70107129888,2
2025-04-01T10:49:44.750,1743497384750,11.8261933988437,46.3757671952825,28.98648,1902.8664,4.80104911264,2
2025-04-01T10:49:44.850,1743497384850,11.8261871473294,46.3757670642814,28.89504,1902.5616,4.80104911264,2
2025-04-01T10:49:44.950,1743497384950,11.8261801966946,46.3757667356824,28.77312,1902.5616,4.90102826752,2
2025-04-01T10:49:45.050,1743497385050,11.8261737774887,46.3757666238656,28.68168,1902.5616,4.90000812224,2
2025-04-01T10:49:45.150,1743497385150,11.8261672357542,46.3757666101625,28.68168,1902.5616,4.90000812224,2
2025-04-01T10:49:45.250,1743497385250,11.8261607124424,46.3757666041332,28.59024,1902.2568,5.000008288,2
2025-04-01T10:49:45.350,1743497385350,11.8261543262459,46.3757666477089,28.4988,1902.2568,5.000008288,2
2025-04-01T10:49:45.450,1743497385450,11.8261477537737,46.3757667326678,28.4988,1902.2568,5.00100786944,2
2025-04-01T10:49:45.550,1743497385550,11.8261412918628,46.3757665548022,28.37688,1902.2568,5.00100786944,2
2025-04-01T10:49:45.650,1743497385650,11.8261347296323,46.3757666405833,28.28544,1901.952,5.00100786944,2
2025-04-01T10:49:45.750,1743497385750,11.8261281190607,46.3757668513361,28.194,1901.952,5.00100786944,2
2025-04-01T10:49:45.850,1743497385850,11.8261215969282,46.3757669302656,28.07208,1901.952,4.90000812224,2
2025-04-01T10:49:45.940,1743497385940,11.8261152636163,46.3757667973461,28.07208,1901.952,4.90000812224,2
2025-04-01T10:49:46.050,1743497386050,11.8261087927547,46.3757668096788,27.98064,1901.6472,4.90000812224,2
2025-04-01T10:49:46.150,1743497386150,11.8261023240531,46.3757668790162,27.8892,1901.6472,4.90000812224,2
2025-04-01T10:49:46.250,1743497386250,11.826095418395,46.3757668129676,27.79776,1901.6472,4.90000812224,2
2025-04-01T10:49:46.350,1743497386350,11.8260889130342,46.3757667861096,27.67584,1901.3424,4.90000812224,2
2025-04-01T10:49:46.450,1743497386450,11.8260824002745,46.3757667603479,27.67584,1901.3424,4.90000812224,2
2025-04-01T10:49:46.550,1743497386550,11.8260770087071,46.3757668414699,27.5844,1901.3424,4.90000812224,2
2025-04-01T10:49:46.650,1743497386650,11.826070581556,46.3757668562692,27.49296,1901.3424,4.90000812224,2
2025-04-01T10:49:46.760,1743497386760,11.8260635424325,46.3757668864159,27.37104,1901.0376,5.000008288,2
2025-04-01T10:49:46.850,1743497386850,11.8260570102942,46.3757669061483,27.37104,1901.0376,5.000008288,2
2025-04-01T10:49:46.960,1743497386960,11.8260502938106,46.375766981515,27.2796,1901.0376,5.000008288,2
2025-04-01T10:49:47.050,1743497387050,11.8260437198921,46.3757669686342,27.18816,1901.0376,5.000008288,2
2025-04-01T10:49:47.160,1743497387160,11.8260370870494,46.3757667381489,27.09672,1900.7328,5.000008288,2
2025-04-01T10:49:47.270,1743497387270,11.8260305297846,46.3757666649747,27.09672,1900.7328,5.000008288,2
2025-04-01T10:49:47.350,1743497387350,11.8260240757939,46.3757665978298,26.9748,1900.7328,5.000008288,2
2025-04-01T10:49:47.470,1743497387470,11.8260175425011,46.3757665252036,26.88336,1900.7328,5.000008288,2
2025-04-01T10:49:47.570,1743497387570,11.8260110147139,46.3757664246233,26.79192,1900.7328,5.000008288,2
2025-04-01T10:49:47.670,1743497387670,11.8260044873675,46.375766373648,26.79192,1900.7328,5.000008288,2
2025-04-01T10:49:47.780,1743497387780,11.8259979035114,46.3757664361338,26.67,1900.428,5.000008288,2
2025-04-01T10:49:47.890,1743497387890,11.825991386177,46.3757663994097,26.57856,1900.428,5.000008288,2
2025-04-01T10:49:47.950,1743497387950,11.8259849848134,46.3757662788229,26.48712,1900.428,4.90000812224,2
2025-04-01T10:49:48.050,1743497388050,11.8259785324179,46.375766234425,26.39568,1900.1232,4.90000812224,2
2025-04-01T10:49:48.150,1743497388150,11.8259720013161,46.3757662023599,26.27376,1900.1232,4.90000812224,2
2025-04-01T10:49:48.250,1743497388250,11.8259655738996,46.3757661467255,26.27376,1900.1232,4.90000812224,2
2025-04-01T10:49:48.350,1743497388350,11.8259591923988,46.375766220722,26.18232,1900.1232,4.90000812224,2
2025-04-01T10:49:48.450,1743497388450,11.8259527666065,46.3757661497402,26.09088,1899.8184,4.90000812224,2
2025-04-01T10:49:48.550,1743497388550,11.8259467695858,46.3757659902368,25.99944,1899.8184,4.90000812224,2
2025-04-01T10:49:48.650,1743497388650,11.8259403833761,46.3757659052779,25.87752,1899.8184,4.90000812224,2
2025-04-01T10:49:48.750,1743497388750,11.8259333360231,46.3757658063419,25.78608,1899.5136,4.90000812224,2
2025-04-01T10:49:48.850,1743497388850,11.8259263729748,46.3757658367627,25.69464,1899.5136,4.90000812224,2
2025-04-01T10:49:48.950,1743497388950,11.825919875504,46.3757658074382,25.57272,1899.5136,4.90000812224,2
2025-04-01T10:49:49.050,1743497389050,11.8259133885752,46.375765775099,25.57272,1899.5136,4.90000812224,2
2025-04-01T10:49:49.150,1743497389150,11.8259075813556,46.3757656660227,25.48128,1899.2088,4.90000812224,2
2025-04-01T10:49:49.250,1743497389250,11.8259012515165,46.3757655931225,25.38984,1899.2088,4.80000795648,2
2025-04-01T10:49:49.350,1743497389350,11.8258948775604,46.3757654448556,25.2984,1899.2088,4.80000795648,2
2025-04-01T10:49:49.450,1743497389450,11.8258885954635,46.3757653519489,25.17648,1898.904,4.80000795648,2
2025-04-01T10:49:49.550,1743497389550,11.8258822251076,46.375765311936,25.08504,1898.904,4.80000795648,2
2025-04-01T10:49:49.650,1743497389650,11.8258758641059,46.37576523054,24.9936,1898.904,4.80000795648,2
2025-04-01T10:49:49.750,1743497389750,11.825869386522,46.3757650060841,24.87168,1898.5992,4.90000812224,2
2025-04-01T10:49:49.850,1743497389850,11.8258629104403,46.375764947161,24.78024,1898.5992,4.90000812224,2
2025-04-01T10:49:49.950,1743497389950,11.8258564111501,46.3757650767918,24.6888,1898.5992,5.000008288,2
2025-04-01T10:49:50.050,1743497390050,11.8258498343454,46.3757651277672,24.59736,1898.2944,5.000008288,2
2025-04-01T10:49:50.150,1743497390150,11.8258431887781,46.3757650436305,24.47544,1898.2944,5.00100786944,2
2025-04-01T10:49:50.250,1743497390250,11.8258365932774,46.3757651428405,24.384,1898.2944,5.00100786944,2
2025-04-01T10:49:50.350,1743497390350,11.8258301180583,46.3757653829179,24.29256,1897.9896,5.00100786944,2
2025-04-01T10:49:50.450,1743497390450,11.8258236473207,46.3757655298145,24.29256,1897.9896,4.90102826752,2
2025-04-01T10:49:50.550,1743497390550,11.8258177214443,46.3757656405351,24.17064,1897.9896,4.90408780928,2
2025-04-01T10:49:50.650,1743497390650,11.8258113111766,46.375765882805,24.0792,1897.9896,4.9091831712,2
2025-04-01T10:49:50.750,1743497390750,11.825804198387,46.3757661157567,23.98776,1897.6848,5.00900005056,2
2025-04-01T10:49:50.850,1743497390850,11.8257975982932,46.3757664180459,23.98776,1897.6848,5.00900005056,2
2025-04-01T10:49:50.950,1743497390950,11.8257907710808,46.3757668891566,23.89632,1897.6848,5.00900005056,2
2025-04-01T10:49:51.050,1743497391050,11.825784087737,46.3757671966529,23.7744,1897.6848,5.10882408256,2
2025-04-01T10:49:51.150,1743497391150,11.8257773117953,46.3757673654744,23.68296,1897.38,5.10882408256,2
2025-04-01T10:49:51.250,1743497391250,11.825770645608,46.3757676088405,23.59152,1897.38,5.10392810048,2
2025-04-01T10:49:51.350,1743497391350,11.8257642187052,46.3757679275733,23.4696,1897.38,5.10392810048,2
2025-04-01T10:49:51.450,1743497391450,11.8257571167159,46.3757680917358,23.37816,1897.0752,5.10392810048,2
2025-04-01T10:49:51.550,1743497391550,11.8257504019392,46.3757682833043,23.28672,1897.0752,5.10392810048,2
2025-04-01T10:49:51.650,1743497391650,11.8257436960015,46.3757684606217,23.19528,1897.0752,5.00100786944,2
2025-04-01T10:49:51.750,1743497391750,11.8257376416997,46.3757686447906,23.07336,1896.7704,5.00100786944,2
2025-04-01T10:49:51.850,1743497391850,11.8257310573718,46.3757687957982,22.98192,1896.7704,5.00100786944,2
2025-04-01T10:49:51.950,1743497391950,11.8257245797071,46.3757690210762,22.89048,1896.7704,5.00100786944,2
2025-04-01T10:49:52.050,1743497392050,11.8257181024768,46.3757691444036,22.79904,1896.4656,4.90102826752,2
2025-04-01T10:49:52.150,1743497392150,11.8257116254948,46.3757692389546,22.67712,1896.4656,4.80104911264,2
2025-04-01T10:49:52.250,1743497392250,11.8257054257476,46.3757693299428,22.58568,1896.4656,4.70107129888,2
2025-04-01T10:49:52.350,1743497392350,11.825699301305,46.3757695220595,22.49424,1896.1608,4.5000074592,2
2025-04-01T10:49:52.470,1743497392470,11.825693630454,46.3757695968781,22.49424,1896.1608,4.20000696192,2
2025-04-01T10:49:52.550,1743497392550,11.825689006198,46.3757695157561,22.37232,1896.1608,4.0000066304,2
2025-04-01T10:49:52.670,1743497392670,11.825684110666,46.3757695502878,22.28088,1896.1608,3.70000613312,2
2025-04-01T10:49:52.770,1743497392770,11.8256788667407,46.3757695686499,22.28088,1896.1608,3.40000563584,2
2025-04-01T10:49:52.850,1743497392850,11.8256746906636,46.3757695787901,22.18944,1895.856,3.10000513856,2
2025-04-01T10:49:52.970,1743497392970,11.825670584429,46.3757696632009,22.098,1895.856,2.70000447552,2
2025-04-01T10:49:53.050,1743497393050,11.8256672331045,46.375769654705,22.098,1895.856,2.40000397824,2
2025-04-01T10:49:53.180,1743497393180,11.8256641017852,46.3757696741633,22.098,1895.856,2.10000348096,2
2025-04-01T10:49:53.280,1743497393280,11.8256616056034,46.3757696686821,21.97608,1895.856,1.70000281792,2
2025-04-01T10:49:53.350,1743497393350,11.8256597525041,46.3757694499815,21.97608,1895.856,1.40000232064,2
2025-04-01T10:49:53.450,1743497393450,11.8256581030978,46.3757694324416,21.97608,1895.856,1.20000198912,2
2025-04-01T10:49:53.580,1743497393580,11.8256560892093,46.3757694719064,21.97608,1895.856,0.90000149184,2
2025-04-01T10:49:53.650,1743497393650,11.8256551419774,46.3757694721804,21.97608,1895.856,0.60000099456,2
2025-04-01T10:49:53.750,1743497393750,11.8256544951949,46.3757692008601,21.97608,1895.856,0.30000049728,2
2025-04-01T10:49:53.850,1743497393850,11.8256542308209,46.3757691638619,21.97608,1895.856,0.10000016576,2
2025-04-01T10:49:53.950,1743497393950,11.825654109012,46.3757690153209,21.97608,1895.856,0,2
2025-04-01T10:49:54.050,1743497394050,11.82565428152,46.3757689509166,22.098,1895.856,0.20000033152,2
2025-04-01T10:49:54.150,1743497394150,11.8256547648558,46.3757689183034,22.098,1895.856,0.40000066304,2
2025-04-01T10:49:54.250,1743497394250,11.8256555141791,46.3757689972329,22.098,1895.856,0.60827704608,2
2025-04-01T10:49:54.350,1743497394350,11.825656706964,46.3757692521096,22.098,1895.856,0.85440162368,2
2025-04-01T10:49:54.450,1743497394450,11.8256579440926,46.3757696448389,22.098,1895.856,1.07703469632,2
2025-04-01T10:49:54.550,1743497394550,11.8256593084921,46.3757702609278,22.18944,1895.856,1.25299813408,2
2025-04-01T10:49:54.650,1743497394650,11.8256608763858,46.3757709384064,22.18944,1895.856,1.38924653824,2
2025-04-01T10:49:54.750,1743497394750,11.8256628159869,46.3757713848516,22.18944,1895.856,1.5264359616,2
2025-04-01T10:49:54.850,1743497394850,11.8256646242949,46.3757721785319,22.28088,1896.1608,1.6643343904,2
2025-04-01T10:49:54.950,1743497394950,11.8256665746716,46.3757726148369,22.28088,1896.1608,1.74928808384,2
2025-04-01T10:49:55.050,1743497395050,11.8256685199336,46.3757734419526,22.37232,1896.1608,1.74928808384,2
2025-04-01T10:49:55.150,1743497395150,11.8256710188957,46.3757742038419,22.37232,1896.1608,1.835758584,2
2025-04-01T10:49:55.250,1743497395250,11.8256730665504,46.3757750293133,22.49424,1896.1608,1.835758584,2
2025-04-01T10:49:55.350,1743497395350,11.8256753783305,46.3757756774673,22.49424,1896.1608,1.835758584,2
2025-04-01T10:49:55.450,1743497395450,11.8256775164602,46.3757765314411,22.58568,1896.4656,1.835758584,2
2025-04-01T10:49:55.550,1743497395550,11.8256796151871,46.3757772705834,22.58568,1896.4656,1.9723114224,2
2025-04-01T10:49:55.650,1743497395650,11.8256818472926,46.3757782744684,22.67712,1896.4656,2.02484890432,2
2025-04-01T10:49:55.750,1743497395750,11.8256842732589,46.3757795241861,22.67712,1896.4656,2.16333429664,2
2025-04-01T10:49:55.850,1743497395850,11.8256866041322,46.375780761023,22.79904,1896.4656,2.28035461632,2
2025-04-01T10:49:55.950,1743497395950,11.8256890256542,46.3757821710663,22.79904,1896.4656,2.34307835168,2
2025-04-01T10:49:56.050,1743497396050,11.8256914002256,46.3757836065973,22.89048,1896.7704,2.40832249856,2
2025-04-01T10:49:56.150,1743497396150,11.8256938412877,46.3757852317784,22.89048,1896.7704,2.47588767712,2
2025-04-01T10:49:56.250,1743497396250,11.8256962843112,46.3757868643591,22.98192,1896.7704,2.54558836576,2
2025-04-01T10:49:56.350,1743497396350,11.8256987945454,46.3757886128676,22.98192,1896.7704,2.6870099168,2
2025-04-01T10:49:56.450,1743497396450,11.8257013199001,46.3757904482535,23.07336,1896.7704,2.75862706592,2
2025-04-01T10:49:56.550,1743497396550,11.8257037067616,46.3757922543148,23.07336,1896.7704,2.831964872,2
2025-04-01T10:49:56.650,1743497396650,11.8257063028526,46.3757942598924,23.19528,1897.0752,2.973218336,2
2025-04-01T10:49:56.750,1743497396750,11.8257094311423,46.3757965288426,23.19528,1897.0752,3.04795493024,2
2025-04-01T10:49:56.850,1743497396850,11.8257121273667,46.3757987191372,23.19528,1897.0752,3.12410461792,2
2025-04-01T10:49:56.940,1743497396940,11.8257148180792,46.3758010245375,23.28672,1897.0752,3.20156726208,2
2025-04-01T10:49:57.040,1743497397040,11.8257175500814,46.3758033795428,23.28672,1897.0752,3.342160448,2
2025-04-01T10:49:57.150,1743497397150,11.8257203750911,46.3758059157023,23.37816,1897.0752,3.42053192448,2
2025-04-01T10:49:57.250,1743497397250,11.8257231811071,46.3758084554246,23.37816,1897.0752,3.5000058016,2
2025-04-01T10:49:57.350,1743497397350,11.8257260381952,46.3758110828464,23.4696,1897.38,3.58050831776,2
2025-04-01T10:49:57.450,1743497397450,11.8257289297204,46.3758138042711,23.4696,1897.38,3.72022083488,2
2025-04-01T10:49:57.550,1743497397550,11.8257316980964,46.3758165646124,23.59152,1897.38,3.80132149056,2
2025-04-01T10:49:57.650,1743497397650,11.8257346633746,46.3758194630804,23.59152,1897.38,3.88330370912,2
2025-04-01T10:49:57.750,1743497397750,11.8257376670625,46.37582247638,23.68296,1897.38,4.022443568,2
2025-04-01T10:49:57.850,1743497397850,11.8257407405432,46.3758255327071,23.68296,1897.38,4.10488176736,2
2025-04-01T10:49:57.960,1743497397960,11.825743906808,46.3758287447008,23.7744,1897.6848,4.24382582272,2
2025-04-01T10:49:58.060,1743497398060,11.8257470717942,46.3758319281921,23.7744,1897.6848,4.24382582272,2
2025-04-01T10:49:58.160,1743497398160,11.8257502120512,46.3758351382674,23.89632,1897.6848,4.32666859328,2
2025-04-01T10:49:58.250,1743497398250,11.8257534585741,46.375838431109,23.98776,1897.6848,4.38292857728,2
2025-04-01T10:49:58.370,1743497398370,11.8257567116889,46.3758417488902,23.98776,1897.6848,4.46542980928,2
2025-04-01T10:49:58.450,1743497398450,11.8257600642791,46.3758451587558,24.0792,1897.9896,4.54863334112,2
2025-04-01T10:49:58.570,1743497398570,11.8257632029471,46.3758484307688,24.0792,1897.9896,4.6043533008,2
2025-04-01T10:49:58.650,1743497398650,11.8257666218169,46.3758519403926,24.17064,1897.9896,4.68722423488,2
2025-04-01T10:49:58.770,1743497398770,11.8257704089677,46.3758558342498,24.29256,1897.9896,4.68722423488,2
2025-04-01T10:49:58.880,1743497398880,11.8257739134461,46.3758594485649,24.384,1898.2944,4.77075187072,2
2025-04-01T10:49:58.980,1743497398980,11.8257774162611,46.3758630302667,24.384,1898.2944,4.82597919232,2
2025-04-01T10:49:59.080,1743497399080,11.8257809787265,46.3758667158376,24.47544,1898.2944,4.9091831712,2
2025-04-01T10:49:59.180,1743497399180,11.8257844655518,46.3758703734543,24.59736,1898.2944,4.9091831712,2
2025-04-01T10:49:59.290,1743497399290,11.8257884104131,46.3758744580579,24.6888,1898.5992,4.9930031712,2
2025-04-01T10:49:59.350,1743497399350,11.8257921518794,46.3758783823358,24.6888,1898.5992,5.13128471328,2
2025-04-01T10:49:59.450,1743497399450,11.8257959421833,46.3758823718402,24.78024,1898.5992,5.21537025504,2
2025-04-01T10:49:59.550,1743497399550,11.8257993309362,46.375886245965,24.87168,1898.5992,5.21537025504,2
2025-04-01T10:49:59.650,1743497399650,11.8258031270625,46.3758902913779,24.9936,1898.904,5.35351232064,2
2025-04-01T10:49:59.750,1743497399750,11.8258070902845,46.3758943924251,25.08504,1898.904,5.35351232064,2
2025-04-01T10:49:59.850,1743497399850,11.8258109077508,46.3758984479782,25.17648,1898.904,5.35351232064,2
2025-04-01T10:49:59.950,1743497399950,11.8258145679288,46.3759024237795,25.17648,1898.904,5.21537025504,2
2025-04-01T10:50:00.050,1743497400050,11.8258183502256,46.3759064598743,25.2984,1899.2088,5.21537025504,2
2025-04-01T10:50:00.150,1743497400150,11.8258221436456,46.3759105159755,25.38984,1899.2088,5.21537025504,2
2025-04-01T10:50:00.250,1743497400250,11.8258259148192,46.3759145306935,25.48128,1899.2088,5.21537025504,2
2025-04-01T10:50:00.350,1743497400350,11.8258298012591,46.3759185180055,25.57272,1899.5136,5.21537025504,2
2025-04-01T10:50:00.450,1743497400450,11.8258335518996,46.375922517102,25.57272,1899.5136,5.21537025504,2
2025-04-01T10:50:00.550,1743497400550,11.8258370106006,46.3759262229534,25.69464,1899.5136,5.21537025504,2
2025-04-01T10:50:00.650,1743497400650,11.8258406896544,46.375930181763,25.78608,1899.5136,5.21537025504,2
2025-04-01T10:50:00.750,1743497400750,11.8258444698781,46.3759343258378,25.87752,1899.8184,5.21537025504,2
2025-04-01T10:50:00.850,1743497400850,11.8258481039861,46.3759382923211,25.87752,1899.8184,5.21537025504,2
2025-04-01T10:50:00.950,1743497400950,11.8258518892127,46.3759427924009,25.99944,1899.8184,5.16237232192,2
2025-04-01T10:50:01.050,1743497401050,11.8258554698278,46.3759467876606,26.09088,1899.8184,5.16237232192,2
2025-04-01T10:50:01.150,1743497401150,11.825859134239,46.3759507091979,26.18232,1900.1232,5.07740924064,2
2025-04-01T10:50:01.250,1743497401250,11.8258626449805,46.3759546323796,26.27376,1900.1232,5.02494596736,2
2025-04-01T10:50:01.350,1743497401350,11.825866091739,46.3759584928013,26.27376,1900.1232,5.02494596736,2
2025-04-01T10:50:01.450,1743497401450,11.8258695622336,46.375962371037,26.39568,1900.1232,5.02494596736,2
2025-04-01T10:50:01.550,1743497401550,11.8258729320486,46.3759662857228,26.48712,1900.428,5.02494596736,2
2025-04-01T10:50:01.650,1743497401650,11.8258763677956,46.3759701642326,26.48712,1900.428,5.02494596736,2
2025-04-01T10:50:01.750,1743497401750,11.8258797806508,46.3759741279753,26.57856,1900.428,5.02494596736,2
2025-04-01T10:50:01.850,1743497401850,11.8258833862867,46.3759781901058,26.57856,1900.428,5.02494596736,2
2025-04-01T10:50:01.930,1743497401930,11.8258868203051,46.375982092733,26.67,1900.428,5.02494596736,2
2025-04-01T10:50:02.050,1743497402050,11.8258902388553,46.3759859841236,26.79192,1900.7328,4.93964358272,2
2025-04-01T10:50:02.150,1743497402150,11.8258933105392,46.375989370694,26.79192,1900.7328,4.93964358272,2
2025-04-01T10:50:02.250,1743497402250,11.8258966560068,46.3759931911029,26.88336,1900.7328,4.8877476032,2
2025-04-01T10:50:02.350,1743497402350,11.8258999183672,46.3759969457371,26.88336,1900.7328,4.8877476032,2
2025-04-01T10:50:02.450,1743497402450,11.8259032506229,46.3760007683384,26.9748,1900.7328,4.8877476032,2
2025-04-01T10:50:02.550,1743497402550,11.8259063443979,46.376004299613,26.9748,1900.7328,4.8877476032,2
2025-04-01T10:50:02.650,1743497402650,11.8259096439297,46.3760081222144,27.09672,1900.7328,4.97394004448,2
2025-04-01T10:50:02.750,1743497402750,11.8259129763406,46.3760121344659,27.09672,1900.7328,4.97394004448,2
2025-04-01T10:50:02.850,1743497402850,11.8259162559118,46.3760159981763,27.18816,1901.0376,4.97394004448,2
2025-04-01T10:50:02.960,1743497402960,11.8259197222212,46.3760202940808,27.18816,1901.0376,4.97394004448,2
2025-04-01T10:50:03.060,1743497403060,11.8259230119566,46.3760241884861,27.2796,1901.0376,4.97394004448,2
2025-04-01T10:50:03.160,1743497403160,11.8259263836647,46.3760280053322,27.37104,1901.0376,4.8877476032,2
2025-04-01T10:50:03.260,1743497403260,11.8259296793248,46.3760318632874,27.37104,1901.0376,4.8877476032,2
2025-04-01T10:50:03.360,1743497403360,11.8259329577768,46.376035561465,27.49296,1901.3424,4.8877476032,2
2025-04-01T10:50:03.460,1743497403460,11.825936226059,46.3760393810517,27.49296,1901.3424,4.8877476032,2
2025-04-01T10:50:03.560,1743497403560,11.8259393537655,46.3760432727164,27.49296,1901.3424,4.8877476032,2
2025-04-01T10:50:03.670,1743497403670,11.8259425829997,46.3760471024433,27.5844,1901.3424,4.8877476032,2
2025-04-01T10:50:03.770,1743497403770,11.8259458518448,46.3760509365552,27.5844,1901.3424,4.8877476032,2
2025-04-01T10:50:03.870,1743497403870,11.8259490494679,46.3760547786149,27.67584,1901.3424,4.83736261888,2
2025-04-01T10:50:03.970,1743497403970,11.8259521856135,46.3760585450337,27.67584,1901.3424,4.83736261888,2
2025-04-01T10:50:04.080,1743497404080,11.8259553766619,46.3760624038111,27.79776,1901.6472,4.83736261888,2
2025-04-01T10:50:04.180,1743497404180,11.8259586253309,46.3760662053098,27.79776,1901.6472,4.92443662304,2
2025-04-01T10:50:04.250,1743497404250,11.8259618148787,46.376070095056,27.79776,1901.6472,4.92443662304,2
2025-04-01T10:50:04.350,1743497404350,11.8259649695378,46.3760740450957,27.8892,1901.6472,4.92443662304,2
2025-04-01T10:50:04.490,1743497404490,11.8259681501148,46.376077944434,27.8892,1901.6472,4.92443662304,2
2025-04-01T10:50:04.550,1743497404550,11.8259713329899,46.3760818078704,27.8892,1901.6472,4.92443662304,2
2025-04-01T10:50:04.650,1743497404650,11.8259745304487,46.3760856967945,27.98064,1901.6472,4.92443662304,2
2025-04-01T10:50:04.750,1743497404750,11.825977763558,46.3760896038066,27.98064,1901.6472,4.92443662304,2
2025-04-01T10:50:04.850,1743497404850,11.8259809961212,46.3760934773833,27.98064,1901.6472,4.83736261888,2
2025-04-01T10:50:04.950,1743497404950,11.8259842790923,46.3760973389012,28.07208,1901.952,4.8877476032,2
2025-04-01T10:50:05.050,1743497405050,11.8259875496151,46.3761011894568,28.07208,1901.952,4.8877476032,2
2025-04-01T10:50:05.150,1743497405150,11.825990548297,46.3761045708201,28.07208,1901.952,4.8877476032,2
2025-04-01T10:50:05.250,1743497405250,11.82599380675,46.3761083523123,28.07208,1901.952,4.8877476032,2
2025-04-01T10:50:05.350,1743497405350,11.8259974326895,46.3761126314991,28.194,1901.952,4.8877476032,2
2025-04-01T10:50:05.450,1743497405450,11.8260007154123,46.376116429709,28.194,1901.952,4.8877476032,2
2025-04-01T10:50:05.550,1743497405550,11.8260038956681,46.3761202142158,28.194,1901.952,4.7507968992,2
2025-04-01T10:50:05.650,1743497405650,11.8260071546736,46.3761239861159,28.28544,1901.952,4.7507968992,2
2025-04-01T10:50:05.750,1743497405750,11.82601048899,46.3761278503745,28.28544,1901.952,4.80209071584,2
2025-04-01T10:50:05.850,1743497405850,11.826013760298,46.3761316261114,28.37688,1902.2568,4.80209071584,2
2025-04-01T10:50:05.950,1743497405950,11.8260170910888,46.3761353908859,28.37688,1902.2568,4.80209071584,2
2025-04-01T10:50:06.050,1743497406050,11.8260203768159,46.3761391784075,28.37688,1902.2568,4.8877476032,2
2025-04-01T10:50:06.150,1743497406150,11.82602358735,46.3761430391033,28.4988,1902.2568,4.8877476032,2
2025-04-01T10:50:06.250,1743497406250,11.8260268729964,46.3761468507422,28.4988,1902.2568,4.8877476032,2
2025-04-01T10:50:06.350,1743497406350,11.8260302206955,46.3761505656376,28.59024,1902.2568,4.83736261888,2
2025-04-01T10:50:06.450,1743497406450,11.8260334776526,46.3761543767284,28.59024,1902.2568,4.83736261888,2
2025-04-01T10:50:06.550,1743497406550,11.826036489143,46.3761579159507,28.59024,1902.2568,4.83736261888,2
2025-04-01T10:50:06.650,1743497406650,11.8260397008253,46.376161679629,28.68168,1902.5616,4.7507968992,2
2025-04-01T10:50:06.750,1743497406750,11.8260432760091,46.3761658001345,28.68168,1902.5616,4.7507968992,2
2025-04-01T10:50:06.850,1743497406850,11.8260465280067,46.3761695840932,28.77312,1902.5616,4.7507968992,2
2025-04-01T10:50:06.950,1743497406950,11.8260497517247,46.3761733269428,28.77312,1902.5616,4.83736261888,2
2025-04-01T10:50:07.050,1743497407050,11.8260532751225,46.3761773013739,28.77312,1902.5616,4.83736261888,2
2025-04-01T10:50:07.150,1743497407150,11.8260565370267,46.3761811415152,28.89504,1902.5616,4.83736261888,2
2025-04-01T10:50:07.250,1743497407250,11.8260597839221,46.3761849991963,28.89504,1902.5616,4.83736261888,2
2025-04-01T10:50:07.350,1743497407350,11.8260626439029,46.3761885748688,28.98648,1902.8664,4.83736261888,2
2025-04-01T10:50:07.450,1743497407450,11.8260658257104,46.3761924407717,28.98648,1902.8664,4.83736261888,2
2025-04-01T10:50:07.550,1743497407550,11.826069203427,46.3761963239405,28.98648,1902.8664,4.92443662304,2
2025-04-01T10:50:07.640,1743497407640,11.8260724062642,46.3762002194421,29.07792,1902.8664,4.92443662304,2
2025-04-01T10:50:07.750,1743497407750,11.8260755138221,46.3762040149114,29.07792,1902.8664,4.92443662304,2
2025-04-01T10:50:07.850,1743497407850,11.8260787301785,46.3762079271306,29.07792,1902.8664,4.92443662304,2
2025-04-01T10:50:07.950,1743497407950,11.8260821550568,46.3762119856984,29.19984,1902.8664,4.92443662304,2
2025-04-01T10:50:08.050,1743497408050,11.826085375274,46.3762159135391,29.19984,1902.8664,4.92443662304,2
2025-04-01T10:50:08.150,1743497408150,11.8260885543504,46.3762198430242,29.19984,1902.8664,4.92443662304,2
2025-04-01T10:50:08.250,1743497408250,11.8260917682611,46.3762237555175,29.29128,1903.1712,4.92443662304,2
2025-04-01T10:50:08.350,1743497408350,11.8260948741307,46.3762277283042,29.29128,1903.1712,4.92443662304,2
2025-04-01T10:50:08.460,1743497408460,11.8260980751803,46.3762316054436,29.29128,1903.1712,4.92443662304,2
2025-04-01T10:50:08.550,1743497408550,11.8261010035883,46.3762351907082,29.38272,1903.1712,4.83736261888,2
2025-04-01T10:50:08.650,1743497408650,11.8261041899767,46.376239010569,29.38272,1903.1712,4.83736261888,2
2025-04-01T10:50:08.750,1743497408750,11.8261074749589,46.376242858658,29.38272,1903.1712,4.83736261888,2
2025-04-01T10:50:08.870,1743497408870,11.8261106669337,46.3762467188056,29.38272,1903.1712,4.92443662304,2
2025-04-01T10:50:08.970,1743497408970,11.8261141630574,46.3762510558193,29.47416,1903.1712,4.92443662304,2
2025-04-01T10:50:09.070,1743497409070,11.826117368663,46.3762549680385,29.47416,1903.1712,4.92443662304,2
2025-04-01T10:50:09.170,1743497409170,11.8261206085816,46.3762590016667,29.59608,1903.476,4.92443662304,2
2025-04-01T10:50:09.270,1743497409270,11.8261238374763,46.3762628809987,29.59608,1903.476,4.83736261888,2
2025-04-01T10:50:09.350,1743497409350,11.8261270443109,46.3762666975707,29.59608,1903.476,4.8877476032,2
2025-04-01T10:50:09.480,1743497409480,11.8261303242902,46.3762704938622,29.68752,1903.476,4.80209071584,2
2025-04-01T10:50:09.580,1743497409580,11.8261334781905,46.3762742046466,29.68752,1903.476,4.80209071584,2
2025-04-01T10:50:09.680,1743497409680,11.8261367514289,46.3762779713396,29.68752,1903.476,4.7507968992,2
2025-04-01T10:50:09.750,1743497409750,11.8261398639774,46.3762818597155,29.77896,1903.476,4.7507968992,2
2025-04-01T10:50:09.880,1743497409880,11.826143118073,46.3762856677916,29.77896,1903.476,4.83736261888,2
2025-04-01T10:50:09.980,1743497409980,11.8261463319341,46.3762895038219,29.77896,1903.476,4.83736261888,2
2025-04-01T10:50:10.050,1743497410050,11.8261495992882,46.3762933587625,29.8704,1903.7808,4.83736261888,2
2025-04-01T10:50:10.150,1743497410150,11.8261528332106,46.3762972893438,29.8704,1903.7808,4.83736261888,2
2025-04-01T10:50:10.250,1743497410250,11.8261561053069,46.3763011536024,29.8704,1903.7808,4.83736261888,2
2025-04-01T10:50:10.350,1743497410350,11.8261593893209,46.376304963871,29.99232,1903.7808,4.83736261888,2
2025-04-01T10:50:10.450,1743497410450,11.8261626500954,46.376308821278,29.99232,1903.7808,4.83736261888,2
2025-04-01T10:50:10.550,1743497410550,11.826165610619,46.3763125230185,29.99232,1903.7808,4.83736261888,2
2025-04-01T10:50:10.650,1743497410650,11.8261688371799,46.3763163902918,29.99232,1903.7808,4.83736261888,2
2025-04-01T10:50:10.750,1743497410750,11.826172445578,46.3763205804088,30.08376,1903.7808,4.92443662304,2
2025-04-01T10:50:10.850,1743497410850,11.8261757196854,46.3763244918059,30.08376,1903.7808,4.92443662304,2
2025-04-01T10:50:10.950,1743497410950,11.8261788801528,46.3763283379764,30.1752,1904.0856,4.92443662304,2
2025-04-01T10:50:11.050,1743497411050,11.8261821675931,46.3763322581434,30.1752,1904.0856,4.97394004448,2
2025-04-01T10:50:11.150,1743497411150,11.8261856488942,46.3763362205158,30.1752,1904.0856,4.97394004448,2
2025-04-01T10:50:11.250,1743497411250,11.8261889746945,46.3763401447938,30.1752,1904.0856,4.97394004448,2
2025-04-01T10:50:11.350,1743497411350,11.8261922319433,46.3763438750366,30.29712,1904.0856,4.97394004448,2
2025-04-01T10:50:11.450,1743497411450,11.8261955431197,46.3763477697159,30.29712,1904.0856,4.97394004448,2
2025-04-01T10:50:11.550,1743497411550,11.8261988900987,46.3763518033442,30.38856,1904.0856,4.92443662304,2
2025-04-01T10:50:11.650,1743497411650,11.826202191716,46.3763557169337,30.38856,1904.0856,4.92443662304,2
2025-04-01T10:50:11.750,1743497411750,11.8262054438999,46.3763595776295,30.38856,1904.0856,4.92443662304,2
2025-04-01T10:50:11.850,1743497411850,11.8262087183549,46.3763635032777,30.38856,1904.0856,4.92443662304,2
2025-04-01T10:50:11.950,1743497411950,11.8262119405956,46.3763674338591,30.48,1904.3904,4.92443662304,2
2025-04-01T10:50:12.050,1743497412050,11.8262151998804,46.3763713712919,30.48,1904.3904,4.92443662304,2
2025-04-01T10:50:12.150,1743497412150,11.8262186296872,46.3763752758375,30.48,1904.3904,4.92443662304,2
2025-04-01T10:50:12.250,1743497412250,11.8262221568216,46.3763795742085,30.57144,1904.3904,4.97394004448,2
2025-04-01T10:50:12.350,1743497412350,11.8262254604253,46.3763835209594,30.57144,1904.3904,4.97394004448,2
2025-04-01T10:50:12.450,1743497412450,11.8262287680263,46.3763874424967,30.57144,1904.3904,4.8877476032,2
2025-04-01T10:50:12.550,1743497412550,11.8262315010465,46.3763906136553,30.69336,1904.3904,4.8877476032,2
2025-04-01T10:50:12.650,1743497412650,11.8262347502509,46.3763944137837,30.69336,1904.3904,4.8877476032,2
2025-04-01T10:50:12.750,1743497412750,11.8262382698127,46.3763985035944,30.69336,1904.3904,4.8877476032,2
2025-04-01T10:50:12.850,1743497412850,11.8262415409656,46.3764023308547,30.7848,1904.6952,4.8877476032,2
2025-04-01T10:50:12.950,1743497412950,11.8262447319968,46.3764062293709,30.7848,1904.6952,4.8877476032,2
2025-04-01T10:50:13.050,1743497413050,11.8262479916044,46.3764100788302,30.7848,1904.6952,4.8877476032,2
2025-04-01T10:50:13.150,1743497413150,11.8262511686325,46.376413997627,30.87624,1904.6952,4.83736261888,2
2025-04-01T10:50:13.250,1743497413250,11.8262544117043,46.3764178300945,30.87624,1904.6952,4.83736261888,2
2025-04-01T10:50:13.350,1743497413350,11.826257639432,46.3764215285462,30.87624,1904.6952,4.83736261888,2
2025-04-01T10:50:13.450,1743497413450,11.8262608918393,46.376425344296,30.87624,1904.6952,4.83736261888,2
2025-04-01T10:50:13.550,1743497413550,11.8262640306315,46.3764291995106,30.99816,1904.6952,4.83736261888,2
2025-04-01T10:50:13.660,1743497413660,11.8262672832871,46.3764330552733,30.99816,1904.6952,4.8877476032,2
2025-04-01T10:50:13.750,1743497413750,11.8262703057081,46.3764365333801,30.99816,1904.6952,4.97394004448,2
2025-04-01T10:50:13.860,1743497413860,11.8262735509896,46.3764404020237,31.0896,1905,4.97394004448,2
2025-04-01T10:50:13.950,1743497413950,11.8262770550088,46.3764446231096,31.0896,1905,4.92443662304,2
2025-04-01T10:50:14.050,1743497414050,11.8262802971123,46.3764485457431,31.18104,1905,4.92443662304,2
2025-04-01T10:50:14.160,1743497414160,11.8262834920914,46.3764522970886,31.18104,1905,4.92443662304,2
2025-04-01T10:50:14.270,1743497414270,11.8262867166659,46.3764561851905,31.18104,1905,4.92443662304,2
2025-04-01T10:50:14.370,1743497414370,11.8262898704545,46.376460089462,31.27248,1905,4.83736261888,2
2025-04-01T10:50:14.450,1743497414450,11.8262931095785,46.3764639205592,31.27248,1905,4.8877476032,2
2025-04-01T10:50:14.570,1743497414570,11.8262961889561,46.3764673740005,31.27248,1905,4.8877476032,2
2025-04-01T10:50:14.680,1743497414680,11.8262994342376,46.3764711415156,31.3944,1905.3048,4.8877476032,2
2025-04-01T10:50:14.780,1743497414780,11.8263031605213,46.3764753527353,31.3944,1905.3048,4.8877476032,2
2025-04-01T10:50:14.880,1743497414880,11.826306671269,46.3764794948916,31.3944,1905.3048,4.8877476032,2
2025-04-01T10:50:14.980,1743497414980,11.8263099652889,46.3764833361291,31.48584,1905.3048,4.8877476032,2
2025-04-01T10:50:15.080,1743497415080,11.826313252903,46.3764871798331,31.48584,1905.3048,4.8877476032,2
2025-04-01T10:50:15.180,1743497415180,11.8263158245381,46.3764901468164,31.57728,1905.3048,4.83736261888,2
2025-04-01T10:50:15.280,1743497415280,11.8263190189461,46.3764939151536,31.57728,1905.3048,4.83736261888,2
2025-04-01T10:50:15.380,1743497415380,11.826322632285,46.3764982535376,31.57728,1905.3048,4.8877476032,2
2025-04-01T10:50:15.450,1743497415450,11.8263258696711,46.3765020725761,31.6992,1905.6096,4.8877476032,2
2025-04-01T10:50:15.550,1743497415550,11.8263289208932,46.3765058477649,31.6992,1905.6096,4.8877476032,2
2025-04-01T10:50:15.650,1743497415650,11.8263321429352,46.3765096747512,31.6992,1905.6096,4.8877476032,2
2025-04-01T10:50:15.750,1743497415750,11.8263353285787,46.3765134743315,31.6992,1905.6096,4.8877476032,2
2025-04-01T10:50:15.850,1743497415850,11.8263385443889,46.3765173046065,31.79064,1905.6096,4.83736261888,2
2025-04-01T10:50:15.950,1743497415950,11.8263418571543,46.3765210951427,31.79064,1905.6096,4.83736261888,2
2025-04-01T10:50:16.050,1743497416050,11.8263450567017,46.3765249215809,31.79064,1905.6096,4.83736261888,2
2025-04-01T10:50:16.150,1743497416150,11.8263481482453,46.3765288359926,31.88208,1905.6096,4.83736261888,2
2025-04-01T10:50:16.250,1743497416250,11.826351355564,46.3765326654455,31.88208,1905.6096,4.83736261888,2
2025-04-01T10:50:16.350,1743497416350,11.8263544898622,46.376536380889,31.88208,1905.6096,4.83736261888,2
2025-04-01T10:50:16.450,1743497416450,11.8263577098932,46.3765402097938,31.88208,1905.6096,4.83736261888,2
2025-04-01T10:50:16.550,1743497416550,11.8263607305514,46.3765438210942,31.97352,1905.9144,4.83736261888,2
2025-04-01T10:50:16.650,1743497416650,11.8263639198199,46.3765476554801,31.97352,1905.9144,4.92443662304,2
2025-04-01T10:50:16.750,1743497416750,11.8263674274889,46.3765519749538,31.97352,1905.9144,4.92443662304,2
2025-04-01T10:50:16.850,1743497416850,11.8263706458563,46.3765558797735,32.09544,1905.9144,4.92443662304,2
2025-04-01T10:50:16.950,1743497416950,11.8263737631222,46.3765596409851,32.09544,1905.9144,4.92443662304,2
2025-04-01T10:50:17.050,1743497417050,11.8263769618255,46.3765635441604,32.09544,1905.9144,4.92443662304,2
2025-04-01T10:50:17.150,1743497417150,11.8263801279538,46.3765674144483,32.18688,1905.9144,4.92443662304,2
2025-04-01T10:50:17.250,1743497417250,11.8263833241246,46.376571310772,32.18688,1905.9144,4.92443662304,2
2025-04-01T10:50:17.350,1743497417350,11.8263865272473,46.3765750700653,32.18688,1905.9144,4.92443662304,2
2025-04-01T10:50:17.450,1743497417450,11.8263901620381,46.3765794100936,32.18688,1905.9144,4.92443662304,2
2025-04-01T10:50:17.550,1743497417550,11.8263934250968,46.3765833190241,32.27832,1906.2192,4.92443662304,2
2025-04-01T10:50:17.650,1743497417650,11.8263966806077,46.3765872263103,32.27832,1906.2192,4.92443662304,2
2025-04-01T10:50:17.750,1743497417750,11.826399423609,46.3765907348378,32.27832,1906.2192,4.92443662304,2
2025-04-01T10:50:17.850,1743497417850,11.8264026170486,46.3765946092367,32.27832,1906.2192,4.92443662304,2
2025-04-01T10:50:17.950,1743497417950,11.8264059194357,46.3765983751074,32.36976,1906.2192,4.83736261888,2
2025-04-01T10:50:18.050,1743497418050,11.8264091376045,46.3766022322404,32.36976,1906.2192,4.83736261888,2
2025-04-01T10:50:18.150,1743497418150,11.8264123621294,46.3766062042049,32.36976,1906.2192,4.83736261888,2
2025-04-01T10:50:18.250,1743497418250,11.8264156244929,46.3766100605157,32.36976,1906.2192,4.8877476032,2
2025-04-01T10:50:18.350,1743497418350,11.8264187949414,46.3766139921933,32.49168,1906.2192,4.8877476032,2
2025-04-01T10:50:18.450,1743497418450,11.8264220444437,46.3766177857442,32.49168,1906.2192,4.7507968992,2
2025-04-01T10:50:18.550,1743497418550,11.8264250669641,46.376621178344,32.49168,1906.2192,4.80209071584,2
2025-04-01T10:50:18.650,1743497418650,11.8264283018177,46.3766249181789,32.49168,1906.2192,4.80209071584,2
2025-04-01T10:50:18.750,1743497418750,11.8264318355565,46.3766292094244,32.49168,1906.2192,4.83736261888,2
2025-04-01T10:50:18.850,1743497418850,11.8264350665369,46.3766330627206,32.49168,1906.2192,4.83736261888,2
2025-04-01T10:50:18.950,1743497418950,11.8264379438603,46.3766367943337,32.58312,1906.524,4.92443662304,2
2025-04-01T10:50:19.050,1743497419050,11.8264411024407,46.3766406939461,32.58312,1906.524,4.92443662304,2
2025-04-01T10:50:19.150,1743497419150,11.8264446609584,46.376644964363,32.58312,1906.524,4.92443662304,2
2025-04-01T10:50:19.260,1743497419260,11.8264478782334,46.3766489023439,32.58312,1906.524,4.92443662304,2
2025-04-01T10:50:19.350,1743497419350,11.8264510820017,46.3766527693431,32.58312,1906.524,4.92443662304,2
2025-04-01T10:50:19.460,1743497419460,11.8264543103006,46.3766566811513,32.58312,1906.524,4.92443662304,2
2025-04-01T10:50:19.550,1743497419550,11.8264576592162,46.3766606559934,32.58312,1906.524,4.83736261888,2
2025-04-01T10:50:19.670,1743497419670,11.8264608376098,46.3766645439583,32.58312,1906.524,4.83736261888,2
2025-04-01T10:50:19.750,1743497419750,11.8264639335232,46.3766682844784,32.67456,1906.524,4.78853556896,2
2025-04-01T10:50:19.850,1743497419850,11.8264670281952,46.3766721698397,32.67456,1906.524,4.8764821952,2
2025-04-01T10:50:19.950,1743497419950,11.8264701019119,46.3766762007273,32.67456,1906.524,4.8764821952,2
2025-04-01T10:50:20.070,1743497420070,11.8264735056984,46.3766804477119,32.67456,1906.524,4.8764821952,2
2025-04-01T10:50:20.170,1743497420170,11.8264766625408,46.3766844074807,32.67456,1906.524,4.92443662304,2
2025-04-01T10:50:20.280,1743497420280,11.8264798584633,46.3766883708124,32.67456,1906.524,4.92443662304,2
2025-04-01T10:50:20.350,1743497420350,11.8264827112065,46.3766919663542,32.79648,1906.524,4.92443662304,2
2025-04-01T10:50:20.480,1743497420480,11.8264859293753,46.3766959052944,32.79648,1906.524,4.92443662304,2
2025-04-01T10:50:20.580,1743497420580,11.8264888731894,46.3766994882295,32.79648,1906.524,4.92443662304,2
2025-04-01T10:50:20.680,1743497420680,11.8264920596274,46.3767034515611,32.79648,1906.524,5.01199387744,2
2025-04-01T10:50:20.750,1743497420750,11.8264954845182,46.3767077518506,32.79648,1906.524,5.01199387744,2
2025-04-01T10:50:20.850,1743497420850,11.8264987027863,46.3767118120627,32.79648,1906.524,5.10000845376,2
2025-04-01T10:50:20.950,1743497420950,11.826501766224,46.3767160478109,32.79648,1906.524,5.01199387744,2
2025-04-01T10:50:21.050,1743497421050,11.8265049592168,46.3767200965124,32.79648,1906.524,5.01199387744,2
2025-04-01T10:50:21.150,1743497421150,11.8265080722122,46.3767240655993,32.79648,1906.524,4.96488480224,2
2025-04-01T10:50:21.250,1743497421250,11.8265111502491,46.3767280583925,32.79648,1906.524,4.96488480224,2
2025-04-01T10:50:21.350,1743497421350,11.8265143394679,46.3767319652675,32.79648,1906.524,4.8764821952,2
2025-04-01T10:50:21.450,1743497421450,11.8265173825959,46.3767359412059,32.79648,1906.524,4.8764821952,2
2025-04-01T10:50:21.550,1743497421550,11.8265204300938,46.3767399070041,32.79648,1906.524,4.8764821952,2
2025-04-01T10:50:21.650,1743497421650,11.8265234645318,46.3767438534809,32.79648,1906.524,4.8764821952,2
2025-04-01T10:50:21.750,1743497421750,11.8265266184445,46.3767479379474,32.88792,1906.8288,4.8764821952,2
2025-04-01T10:50:21.850,1743497421850,11.8265297113784,46.3767518368747,32.88792,1906.8288,4.8764821952,2
2025-04-01T10:50:21.950,1743497421950,11.8265328273531,46.3767557703337,32.88792,1906.8288,4.92443662304,2
2025-04-01T10:50:22.050,1743497422050,11.8265359893599,46.3767596858417,32.88792,1906.8288,4.92443662304,2
2025-04-01T10:50:22.150,1743497422150,11.8265390809531,46.3767636127232,32.88792,1906.8288,4.92443662304,2
2025-04-01T10:50:22.250,1743497422250,11.8265422045255,46.3767675733142,32.97936,1906.8288,4.92443662304,2
2025-04-01T10:50:22.350,1743497422350,11.8265453330635,46.376771523902,32.97936,1906.8288,4.96488480224,2
2025-04-01T10:50:22.450,1743497422450,11.8265484326515,46.3767754994293,32.97936,1906.8288,4.96488480224,2
2025-04-01T10:50:22.550,1743497422550,11.8265512198475,46.3767790729093,32.97936,1906.8288,4.8764821952,2
2025-04-01T10:50:22.650,1743497422650,11.8265548691381,46.3767836516446,33.0708,1906.8288,4.8764821952,2
2025-04-01T10:50:22.750,1743497422750,11.8265579970305,46.3767876415601,33.0708,1906.8288,4.8764821952,2
2025-04-01T10:50:22.850,1743497422850,11.8265611476162,46.3767916395604,33.0708,1906.8288,4.92443662304,2
2025-04-01T10:50:22.950,1743497422950,11.8265640389428,46.3767951808383,33.0708,1906.8288,4.92443662304,2
2025-04-01T10:50:23.050,1743497423050,11.8265671736383,46.3767991212858,33.19272,1907.1336,4.92443662304,2
2025-04-01T10:50:23.150,1743497423150,11.8265704913197,46.3768030811916,33.19272,1907.1336,4.92443662304,2
2025-04-01T10:50:23.250,1743497423250,11.8265736458283,46.3768069750488,33.19272,1907.1336,4.92443662304,2
2025-04-01T10:50:23.350,1743497423350,11.8265765803068,46.3768107154318,33.19272,1907.1336,4.92443662304,2
2025-04-01T10:50:23.450,1743497423450,11.8265797340209,46.3768146014783,33.19272,1907.1336,4.92443662304,2
2025-04-01T10:50:23.550,1743497423550,11.8265827382675,46.3768181000026,33.19272,1907.1336,4.92443662304,2
2025-04-01T10:50:23.650,1743497423650,11.8265858669545,46.3768219941338,33.28416,1907.1336,4.92443662304,2
2025-04-01T10:50:23.750,1743497423750,11.8265893192559,46.3768263743121,33.28416,1907.1336,4.8764821952,2
2025-04-01T10:50:23.850,1743497423850,11.8265924004709,46.3768303432619,33.28416,1907.1336,4.96488480224,2
2025-04-01T10:50:23.950,1743497423950,11.8265953041125,46.3768343392068,33.28416,1907.1336,4.96488480224,2
2025-04-01T10:50:24.050,1743497424050,11.826598267988,46.3768383239151,33.28416,1907.1336,4.91935735456,2
2025-04-01T10:50:24.150,1743497424150,11.8266011581229,46.376842342607,33.28416,1907.1336,4.91935735456,2
2025-04-01T10:50:24.250,1743497424250,11.8266041796997,46.3768463432109,33.28416,1907.1336,4.96488480224,2
2025-04-01T10:50:24.350,1743497424350,11.8266074159933,46.3768502742034,33.28416,1907.1336,4.96488480224,2
2025-04-01T10:50:24.450,1743497424450,11.826610534004,46.3768543360598,33.28416,1907.1336,5.05371969696,2
2025-04-01T10:50:24.550,1743497424550,11.8266134190242,46.3768582096365,33.28416,1907.1336,5.05371969696,2
2025-04-01T10:50:24.660,1743497424660,11.8266165126534,46.3768623457635,33.28416,1907.1336,5.14296452736,2
2025-04-01T10:50:24.750,1743497424750,11.8266199846686,46.3768670670105,33.28416,1907.1336,5.14296452736,2
2025-04-01T10:50:24.850,1743497424850,11.8266230905134,46.3768712797376,33.3756,1907.1336,5.14296452736,2
2025-04-01T10:50:24.960,1743497424960,11.8266261068266,46.3768753466642,33.3756,1907.1336,5.14296452736,2
2025-04-01T10:50:25.050,1743497425050,11.826629209394,46.3768794963572,33.3756,1907.1336,5.05371969696,2
2025-04-01T10:50:25.160,1743497425160,11.8266322670219,46.3768835593099,33.3756,1907.1336,5.05371969696,2
2025-04-01T10:50:25.260,1743497425260,11.826635620506,46.3768879675794,33.3756,1907.1336,5.05371969696,2
2025-04-01T10:50:25.350,1743497425350,11.8266387432837,46.376892052594,33.3756,1907.1336,4.96488480224,2
2025-04-01T10:50:25.450,1743497425450,11.8266418399916,46.376896116917,33.3756,1907.1336,4.96488480224,2
2025-04-01T10:50:25.570,1743497425570,11.82664462684,46.3768997538421,33.3756,1907.1336,4.96488480224,2
2025-04-01T10:50:25.670,1743497425670,11.8266476576035,46.3769037585569,33.49752,1907.1336,4.96488480224,2
2025-04-01T10:50:25.780,1743497425780,11.8266506524649,46.3769078342535,33.49752,1907.1336,4.96488480224,2
2025-04-01T10:50:25.880,1743497425880,11.826653683427,46.3769118280058,33.49752,1907.1336,4.96488480224,2
2025-04-01T10:50:25.950,1743497425950,11.8266568055592,46.376915847931,33.49752,1907.1336,4.96488480224,2
2025-04-01T10:50:26.050,1743497426050,11.8266598572282,46.3769198138662,33.49752,1907.1336,4.8764821952,2
2025-04-01T10:50:26.150,1743497426150,11.8266628172304,46.3769238838075,33.49752,1907.1336,4.8764821952,2
2025-04-01T10:50:26.250,1743497426250,11.8266658751066,46.3769278167183,33.49752,1907.1336,4.8764821952,2
2025-04-01T10:50:26.350,1743497426350,11.8266688506514,46.3769317149605,33.58896,1907.4384,4.8764821952,2
2025-04-01T10:50:26.450,1743497426450,11.826671909769,46.3769356063511,33.58896,1907.4384,4.8764821952,2
2025-04-01T10:50:26.550,1743497426550,11.8266747660378,46.3769392435502,33.58896,1907.4384,4.8764821952,2
2025-04-01T10:50:26.650,1743497426650,11.8266777936232,46.3769430928725,33.58896,1907.4384,4.8764821952,2
2025-04-01T10:50:26.750,1743497426750,11.8266809534451,46.3769473949434,33.58896,1907.4384,4.8764821952,2
2025-04-01T10:50:26.850,1743497426850,11.8266839604725,46.3769513048331,33.6804,1907.4384,4.8764821952,2
2025-04-01T10:50:26.950,1743497426950,11.8266869527021,46.3769552178745,33.6804,1907.4384,4.83012146496,2
2025-04-01T10:50:27.050,1743497427050,11.8266899464214,46.3769591547593,33.6804,1907.4384,4.83012146496,2
2025-04-01T10:50:27.150,1743497427150,11.8266929572724,46.3769631345345,33.6804,1907.4384,4.83012146496,2
2025-04-01T10:50:27.250,1743497427250,11.8266959528787,46.3769670808744,33.6804,1907.4384,4.83012146496,2
2025-04-01T10:50:27.350,1743497427350,11.8266989210743,46.3769709885716,33.6804,1907.4384,4.8764821952,2
2025-04-01T10:50:27.450,1743497427450,11.8267019291942,46.3769749395705,33.77184,1907.4384,4.8764821952,2
2025-04-01T10:50:27.550,1743497427550,11.8267049616459,46.3769787820412,33.77184,1907.4384,4.8764821952,2
2025-04-01T10:50:27.650,1743497427650,11.8267079741356,46.3769827361918,33.77184,1907.4384,4.8764821952,2
2025-04-01T10:50:27.750,1743497427750,11.8267109860294,46.3769867313144,33.77184,1907.4384,4.8764821952,2
2025-04-01T10:50:27.850,1743497427850,11.8267140433593,46.3769909766547,33.77184,1907.4384,4.8764821952,2
2025-04-01T10:50:27.950,1743497427950,11.8267170534157,46.3769949338199,33.77184,1907.4384,4.8764821952,2
2025-04-01T10:50:28.050,1743497428050,11.8267200641674,46.3769988822152,33.89376,1907.7432,4.8764821952,2
2025-04-01T10:50:28.150,1743497428150,11.8267227959959,46.377002238639,33.89376,1907.7432,4.8764821952,2
2025-04-01T10:50:28.250,1743497428250,11.8267257847495,46.3770061322221,33.89376,1907.7432,4.8764821952,2
2025-04-01T10:50:28.350,1743497428350,11.8267288205283,46.3770101241931,33.89376,1907.7432,4.8764821952,2
2025-04-01T10:50:28.450,1743497428450,11.8267318148435,46.3770140480599,33.89376,1907.7432,4.8764821952,2
2025-04-01T10:50:28.550,1743497428550,11.8267345913632,46.3770176345578,33.89376,1907.7432,4.8764821952,2
2025-04-01T10:50:28.650,1743497428650,11.8267375653687,46.3770215462289,33.89376,1907.7432,4.8764821952,2
2025-04-01T10:50:28.750,1743497428750,11.8267408413879,46.3770260105438,33.9852,1907.7432,4.8764821952,2
2025-04-01T10:50:28.850,1743497428850,11.8267438452373,46.3770299638722,33.9852,1907.7432,4.8764821952,2
2025-04-01T10:50:28.950,1743497428950,11.8267470040164,46.3770337898993,33.9852,1907.7432,4.8764821952,2
2025-04-01T10:50:29.050,1743497429050,11.8267500394972,46.3770377151364,33.9852,1907.7432,4.8764821952,2
2025-04-01T10:50:29.150,1743497429150,11.8267528961633,46.3770416473621,33.9852,1907.7432,4.8764821952,2
2025-04-01T10:50:29.240,1743497429240,11.8267559163498,46.3770455599925,33.9852,1907.7432,4.8764821952,2
2025-04-01T10:50:29.350,1743497429350,11.8267589103671,46.377049482352,33.9852,1907.7432,4.8764821952,2
2025-04-01T10:50:29.450,1743497429450,11.8267618904307,46.3770533814163,33.9852,1907.7432,4.83012146496,2
2025-04-01T10:50:29.550,1743497429550,11.8267648288818,46.3770573568066,34.07664,1907.7432,4.83012146496,2
2025-04-01T10:50:29.640,1743497429640,11.8267678144078,46.3770612757403,34.07664,1907.7432,4.83012146496,2
2025-04-01T10:50:29.750,1743497429750,11.8267709173724,46.3770653133424,34.07664,1907.7432,4.83012146496,2
2025-04-01T10:50:29.850,1743497429850,11.8267738968898,46.3770692733853,34.07664,1907.7432,4.83012146496,2
2025-04-01T10:50:29.950,1743497429950,11.8267769094291,46.3770731861527,34.07664,1907.7432,4.8764821952,2
2025-04-01T10:50:30.050,1743497430050,11.8267799862245,46.377077130163,34.07664,1907.7432,4.8764821952,2
2025-04-01T10:50:30.150,1743497430150,11.8267829876903,46.3770811283003,34.07664,1907.7432,4.92443662304,2
2025-04-01T10:50:30.260,1743497430260,11.8267861472639,46.3770850387382,34.07664,1907.7432,4.92443662304,2
2025-04-01T10:50:30.350,1743497430350,11.8267894825239,46.3770889706898,34.19856,1908.048,4.92443662304,2
2025-04-01T10:50:30.450,1743497430450,11.8267927996094,46.3770931717692,34.19856,1908.048,4.8764821952,2
2025-04-01T10:50:30.560,1743497430560,11.8267959305806,46.3770971181091,34.19856,1908.048,4.8764821952,2
2025-04-01T10:50:30.660,1743497430660,11.8267990284802,46.3771010750002,34.19856,1908.048,4.8764821952,2
2025-04-01T10:50:30.760,1743497430760,11.8268017258468,46.3771047205582,34.19856,1908.048,4.8764821952,2
2025-04-01T10:50:30.850,1743497430850,11.8268047547233,46.3771086693646,34.19856,1908.048,4.8764821952,2
2025-04-01T10:50:30.970,1743497430970,11.8268077250045,46.3771125674697,34.19856,1908.048,4.8764821952,2
2025-04-01T10:50:31.070,1743497431070,11.8268107424598,46.3771165355974,34.19856,1908.048,4.96488480224,2
2025-04-01T10:50:31.170,1743497431170,11.8268138394656,46.3771205867655,34.29,1908.048,4.96488480224,2
2025-04-01T10:50:31.270,1743497431270,11.8268168903898,46.3771245796957,34.29,1908.048,4.96488480224,2
2025-04-01T10:50:31.350,1743497431350,11.8268201897974,46.3771285668706,34.29,1908.048,4.96488480224,2
2025-04-01T10:50:31.450,1743497431450,11.826823310142,46.3771325480162,34.29,1908.048,4.96488480224,2
2025-04-01T10:50:31.580,1743497431580,11.826826489777,46.3771366061728,34.29,1908.048,5.01199387744,2
2025-04-01T10:50:31.650,1743497431650,11.8268296581895,46.3771405774522,34.29,1908.048,5.01199387744,2
2025-04-01T10:50:31.780,1743497431780,11.8268326983877,46.3771445738081,34.29,1908.048,4.92443662304,2
2025-04-01T10:50:31.880,1743497431880,11.8268358789166,46.377148542621,34.29,1908.048,4.92443662304,2
2025-04-01T10:50:31.950,1743497431950,11.8268390527914,46.3771525544614,34.29,1908.048,4.92443662304,2
2025-04-01T10:50:32.050,1743497432050,11.8268422050158,46.3771565290294,34.38144,1908.048,5.01199387744,2
2025-04-01T10:50:32.150,1743497432150,11.8268452866279,46.3771605673167,34.38144,1908.048,5.01199387744,2
2025-04-01T10:50:32.250,1743497432250,11.8268484013116,46.3771645433922,34.38144,1908.048,4.8764821952,2
2025-04-01T10:50:32.350,1743497432350,11.8268515403273,46.3771684208057,34.38144,1908.048,4.96488480224,2
2025-04-01T10:50:32.450,1743497432450,11.8268546375317,46.3771723979773,34.38144,1908.048,4.96488480224,2
2025-04-01T10:50:32.550,1743497432550,11.8268576373092,46.3771759861196,34.38144,1908.048,5.01199387744,2
2025-04-01T10:50:32.650,1743497432650,11.8268607265685,46.3771799339668,34.38144,1908.048,5.01199387744,2
2025-04-01T10:50:32.750,1743497432750,11.8268640274658,46.3771843895117,34.38144,1908.048,5.01199387744,2
2025-04-01T10:50:32.850,1743497432850,11.8268671246703,46.377188360517,34.38144,1908.048,5.01199387744,2
2025-04-01T10:50:32.950,1743497432950,11.8268702165118,46.3771922197055,34.38144,1908.048,4.8764821952,2
2025-04-01T10:50:33.050,1743497433050,11.8268735465081,46.3771963843348,34.47288,1908.3528,4.8764821952,2
2025-04-01T10:50:33.150,1743497433150,11.8268766687397,46.3772003536958,34.47288,1908.3528,4.8764821952,2
2025-04-01T10:50:33.250,1743497433250,11.8268797933547,46.3772043211383,34.47288,1908.3528,4.8764821952,2
2025-04-01T10:50:33.350,1743497433350,11.8268827531087,46.3772080172605,34.47288,1908.3528,4.8764821952,2
2025-04-01T10:50:33.450,1743497433450,11.8268858495186,46.3772119583932,34.47288,1908.3528,4.8764821952,2
2025-04-01T10:50:33.550,1743497433550,11.8268887827558,46.3772158987037,34.47288,1908.3528,4.8764821952,2
2025-04-01T10:50:33.650,1743497433650,11.8268918721144,46.3772198407956,34.47288,1908.3528,4.8764821952,2
2025-04-01T10:50:33.750,1743497433750,11.8268947369242,46.3772234725135,34.47288,1908.3528,4.92443662304,2
2025-04-01T10:50:33.850,1743497433850,11.8268978641215,46.3772273700705,34.47288,1908.3528,4.92443662304,2
2025-04-01T10:50:33.950,1743497433950,11.8269014331664,46.3772316805002,34.5948,1908.3528,4.92443662304,2
2025-04-01T10:50:34.050,1743497434050,11.8269046651399,46.3772355659985,34.5948,1908.3528,4.92443662304,2
2025-04-01T10:50:34.150,1743497434150,11.8269078080287,46.3772394361494,34.5948,1908.3528,4.83736261888,2
2025-04-01T10:50:34.250,1743497434250,11.8269110368241,46.3772432771128,34.5948,1908.3528,4.83736261888,2
2025-04-01T10:50:34.350,1743497434350,11.8269142679038,46.3772471746698,34.5948,1908.3528,4.83736261888,2
2025-04-01T10:50:34.450,1743497434450,11.8269174882575,46.3772510167294,34.5948,1908.3528,4.83736261888,2
2025-04-01T10:50:34.550,1743497434550,11.8269203746184,46.3772544189214,34.5948,1908.3528,4.83736261888,2
2025-04-01T10:50:34.650,1743497434650,11.8269235722293,46.3772582361785,34.5948,1908.3528,4.83736261888,2
2025-04-01T10:50:34.750,1743497434750,11.8269270276591,46.3772626544512,34.68624,1908.3528,4.83736261888,2
2025-04-01T10:50:34.850,1743497434850,11.8269302656907,46.3772665295352,34.68624,1908.3528,4.83736261888,2
2025-04-01T10:50:34.950,1743497434950,11.8269336444502,46.3772704029748,34.68624,1908.3528,4.83736261888,2
2025-04-01T10:50:35.050,1743497435050,11.8269368864543,46.3772742684667,34.68624,1908.3528,4.83736261888,2
2025-04-01T10:50:35.150,1743497435150,11.8269400192132,46.3772780822981,34.68624,1908.3528,4.83736261888,2
2025-04-01T10:50:35.250,1743497435250,11.8269432586352,46.3772819425828,34.68624,1908.3528,4.83736261888,2
2025-04-01T10:50:35.350,1743497435350,11.8269460963323,46.3772854193193,34.68624,1908.3528,4.83736261888,2
2025-04-01T10:50:35.450,1743497435450,11.8269493044704,46.3772892637085,34.68624,1908.3528,4.83736261888,2
2025-04-01T10:50:35.550,1743497435550,11.8269529212854,46.3772934893164,34.68624,1908.3528,4.92443662304,2
2025-04-01T10:50:35.650,1743497435650,11.8269564546766,46.3772976628527,34.77768,1908.6576,4.92443662304,2
2025-04-01T10:50:35.750,1743497435750,11.8269597222045,46.3773015974079,34.77768,1908.6576,4.92443662304,2
2025-04-01T10:50:35.850,1743497435850,11.8269629724517,46.3773055275781,34.77768,1908.6576,4.92443662304,2
2025-04-01T10:50:35.950,1743497435950,11.8269658801652,46.3773089766345,34.77768,1908.6576,4.92443662304,2
2025-04-01T10:50:36.050,1743497436050,11.8269690739028,46.3773128598032,34.77768,1908.6576,4.83736261888,2
2025-04-01T10:50:36.150,1743497436150,11.8269722806505,46.3773166067638,34.77768,1908.6576,4.92443662304,2
2025-04-01T10:50:36.260,1743497436260,11.826975478162,46.3773204825329,34.77768,1908.6576,4.92443662304,2
2025-04-01T10:50:36.350,1743497436350,11.8269786043661,46.3773244233915,34.77768,1908.6576,4.92443662304,2
2025-04-01T10:50:36.450,1743497436450,11.8269817897614,46.3773283156043,34.77768,1908.6576,4.92443662304,2
2025-04-01T10:50:36.550,1743497436550,11.8269849069279,46.3773319759616,34.8996,1908.6576,4.92443662304,2
2025-04-01T10:50:36.670,1743497436670,11.826988074248,46.3773358718743,34.8996,1908.6576,4.92443662304,2
2025-04-01T10:50:36.750,1743497436750,11.8269915503351,46.3773400571952,34.8996,1908.6576,4.92443662304,2
2025-04-01T10:50:36.850,1743497436850,11.82699473434,46.3773439972316,34.8996,1908.6576,4.92443662304,2
2025-04-01T10:50:36.970,1743497436970,11.8269978951053,46.3773479624817,34.8996,1908.6576,4.92443662304,2
2025-04-01T10:50:37.070,1743497437070,11.8270010616309,46.3773519044365,34.8996,1908.6576,4.92443662304,2
2025-04-01T10:50:37.180,1743497437180,11.8270042349098,46.3773559414905,34.8996,1908.6576,4.92443662304,2
2025-04-01T10:50:37.280,1743497437280,11.8270073905109,46.3773598885155,34.8996,1908.6576,4.92443662304,2
2025-04-01T10:50:37.350,1743497437350,11.8270105965634,46.3773636787776,34.8996,1908.6576,4.92443662304,2
2025-04-01T10:50:37.480,1743497437480,11.8270137492843,46.3773676192251,34.8996,1908.6576,4.92443662304,2
2025-04-01T10:50:37.550,1743497437550,11.8270168222562,46.3773717689182,34.99104,1908.6576,5.01199387744,2
2025-04-01T10:50:37.650,1743497437650,11.8270199571006,46.3773757414308,34.99104,1908.6576,5.01199387744,2
2025-04-01T10:50:37.750,1743497437750,11.8270230658255,46.3773795475885,34.99104,1908.6576,5.01199387744,2
2025-04-01T10:50:37.850,1743497437850,11.8270261932214,46.3773835081795,34.99104,1908.6576,5.01199387744,2
2025-04-01T10:50:37.950,1743497437950,11.8270293390896,46.3773874850771,34.99104,1908.6576,4.92443662304,2
2025-04-01T10:50:38.050,1743497438050,11.827032471054,46.3773914347056,34.99104,1908.6576,4.92443662304,2
2025-04-01T10:50:38.150,1743497438150,11.8270354982421,46.3773953465138,34.99104,1908.6576,4.8764821952,2
2025-04-01T10:50:38.250,1743497438250,11.8270389662848,46.3773995656813,34.99104,1908.6576,4.8764821952,2
2025-04-01T10:50:38.350,1743497438350,11.8270421275467,46.3774035462787,35.08248,1908.9624,4.92443662304,2
2025-04-01T10:50:38.450,1743497438450,11.8270452881135,46.3774075316722,35.08248,1908.9624,5.01199387744,2
2025-04-01T10:50:38.550,1743497438550,11.8270477549723,46.3774109679847,35.08248,1908.9624,4.92443662304,2
2025-04-01T10:50:38.650,1743497438650,11.8270508749197,46.3774149034991,35.08248,1908.9624,5.01199387744,2
2025-04-01T10:50:38.750,1743497438750,11.8270543938111,46.3774192154362,35.08248,1908.9624,5.01199387744,2
2025-04-01T10:50:38.850,1743497438850,11.8270575910246,46.3774231776716,35.08248,1908.9624,4.92443662304,2
2025-04-01T10:50:38.950,1743497438950,11.827060726167,46.3774270807098,35.08248,1908.9624,4.92443662304,2
2025-04-01T10:50:39.050,1743497439050,11.8270639381784,46.3774310171834,35.08248,1908.9624,4.92443662304,2
2025-04-01T10:50:39.150,1743497439150,11.8270671833606,46.3774349092592,35.17392,1908.9624,4.92443662304,2
2025-04-01T10:50:39.250,1743497439250,11.8270703783893,46.3774388288781,35.17392,1908.9624,4.92443662304,2
2025-04-01T10:50:39.350,1743497439350,11.8270734270292,46.3774428938863,35.17392,1908.9624,4.92443662304,2
2025-04-01T10:50:39.450,1743497439450,11.8270765881918,46.3774468199456,35.17392,1908.9624,4.92443662304,2
2025-04-01T10:50:39.550,1743497439550,11.8270798759797,46.3774505899272,35.17392,1908.9624,4.92443662304,2
2025-04-01T10:50:39.650,1743497439650,11.8270830567072,46.3774545031057,35.17392,1908.9624,4.92443662304,2
2025-04-01T10:50:39.750,1743497439750,11.8270862424997,46.3774585128906,35.17392,1908.9624,4.92443662304,2
2025-04-01T10:50:39.850,1743497439850,11.8270894281928,46.3774624353871,35.29584,1908.9624,4.92443662304,2
2025-04-01T10:50:39.950,1743497439950,11.8270925359246,46.377466291972,35.29584,1908.9624,4.92443662304,2
2025-04-01T10:50:40.050,1743497440050,11.8270957108918,46.3774702158389,35.29584,1908.9624,4.92443662304,2
2025-04-01T10:50:40.150,1743497440150,11.8270989404817,46.3774742493301,35.29584,1908.9624,4.92443662304,2
2025-04-01T10:50:40.250,1743497440250,11.8271021209113,46.3774781901887,35.29584,1908.9624,4.92443662304,2
2025-04-01T10:50:40.350,1743497440350,11.8271053345116,46.3774822081954,35.29584,1908.9624,4.92443662304,2
2025-04-01T10:50:40.450,1743497440450,11.8271085186158,46.3774861500133,35.29584,1908.9624,4.92443662304,2
2025-04-01T10:50:40.550,1743497440550,11.8271115157118,46.3774896364789,35.29584,1908.9624,4.92443662304,2
2025-04-01T10:50:40.650,1743497440650,11.8271146935591,46.3774935223883,35.29584,1908.9624,4.92443662304,2
2025-04-01T10:50:40.750,1743497440750,11.8271181012189,46.3774978499468,35.38728,1909.2672,4.92443662304,2
2025-04-01T10:50:40.850,1743497440850,11.8271215996517,46.3775020987128,35.38728,1909.2672,4.92443662304,2
2025-04-01T10:50:40.950,1743497440950,11.8271248318238,46.3775060388863,35.38728,1909.2672,4.92443662304,2
2025-04-01T10:50:41.050,1743497441050,11.8271280637972,46.3775099686455,35.38728,1909.2672,4.92443662304,2
2025-04-01T10:50:41.150,1743497441150,11.827130971908,46.377513405095,35.38728,1909.2672,4.92443662304,2
2025-04-01T10:50:41.250,1743497441250,11.8271341751797,46.3775172786717,35.38728,1909.2672,4.92443662304,2
2025-04-01T10:50:41.350,1743497441350,11.82713737865,46.3775212936637,35.38728,1909.2672,4.92443662304,2
2025-04-01T10:50:41.450,1743497441450,11.8271405829149,46.3775251851914,35.38728,1909.2672,4.92443662304,2
2025-04-01T10:50:41.550,1743497441550,11.8271437643376,46.3775290772672,35.38728,1909.2672,4.92443662304,2
2025-04-01T10:50:41.650,1743497441650,11.8271469671127,46.3775329819497,35.38728,1909.2672,4.92443662304,2
2025-04-01T10:50:41.750,1743497441750,11.8271501465491,46.3775369410334,35.38728,1909.2672,4.92443662304,2
2025-04-01T10:50:41.850,1743497441850,11.8271533426702,46.3775408583228,35.47872,1909.2672,4.92443662304,2
2025-04-01T10:50:41.950,1743497441950,11.8271567017656,46.3775446250157,35.47872,1909.2672,4.92443662304,2
2025-04-01T10:50:42.060,1743497442060,11.8271599050373,46.3775485220246,35.47872,1909.2672,4.92443662304,2
2025-04-01T10:50:42.170,1743497442170,11.8271630620287,46.37755258347,35.47872,1909.2672,4.92443662304,2
2025-04-01T10:50:42.250,1743497442250,11.8271662602354,46.3775564899339,35.47872,1909.2672,4.92443662304,2
2025-04-01T10:50:42.350,1743497442350,11.8271694450348,46.377560176327,35.47872,1909.2672,4.92443662304,2
2025-04-01T10:50:42.450,1743497442450,11.8271726360909,46.3775640678546,35.47872,1909.2672,4.92443662304,2
2025-04-01T10:50:42.570,1743497442570,11.8271755510543,46.377567832081,35.47872,1909.2672,4.92443662304,2
2025-04-01T10:50:42.680,1743497442680,11.8271786927514,46.3775717275826,35.47872,1909.2672,4.92443662304,2
2025-04-01T10:50:42.780,1743497442780,11.8271821504654,46.3775760126616,35.47872,1909.2672,4.92443662304,2
2025-04-01T10:50:42.850,1743497442850,11.827185306861,46.3775799466687,35.47872,1909.2672,4.92443662304,2
2025-04-01T10:50:42.980,1743497442980,11.8271884959308,46.3775838420332,35.47872,1909.2672,4.92443662304,2
2025-04-01T10:50:43.080,1743497443080,11.8271916828157,46.3775877502786,35.57016,1909.2672,4.92443662304,2
2025-04-01T10:50:43.180,1743497443180,11.8271950233393,46.3775915754835,35.57016,1909.2672,4.92443662304,2
2025-04-01T10:50:43.290,1743497443290,11.8271982290939,46.3775954546784,35.57016,1909.2672,4.92443662304,2
2025-04-01T10:50:43.350,1743497443350,11.8272013977051,46.3775994217098,35.57016,1909.2672,4.92443662304,2
2025-04-01T10:50:43.450,1743497443450,11.8272046918491,46.3776035779803,35.57016,1909.2672,4.92443662304,2
2025-04-01T10:50:43.550,1743497443550,11.8272078743642,46.3776074971881,35.57016,1909.2672,4.92443662304,2
2025-04-01T10:50:43.650,1743497443650,11.8272110538006,46.3776114152997,35.57016,1909.2672,4.92443662304,2
2025-04-01T10:50:43.750,1743497443750,11.8272139053023,46.3776149661696,35.57016,1909.2672,4.92443662304,2
2025-04-01T10:50:43.850,1743497443850,11.8272170753039,46.3776188444053,35.57016,1909.2672,4.92443662304,2
2025-04-01T10:50:43.950,1743497443950,11.8272199558053,46.3776226134278,35.57016,1909.2672,4.92443662304,2
2025-04-01T10:50:44.050,1743497444050,11.827223123324,46.3776264935819,35.57016,1909.2672,4.92443662304,2
2025-04-01T10:50:44.150,1743497444150,11.8272266152021,46.3776307686578,35.57016,1909.2672,4.92443662304,2
2025-04-01T10:50:44.250,1743497444250,11.827229821056,46.3776346934838,35.57016,1909.2672,4.92443662304,2
2025-04-01T10:50:44.350,1743497444350,11.8272331102342,46.3776386183098,35.57016,1909.2672,4.92443662304,2
2025-04-01T10:50:44.450,1743497444450,11.8272363165847,46.3776425258701,35.57016,1909.2672,4.92443662304,2
2025-04-01T10:50:44.550,1743497444550,11.8272390928065,46.3776460590631,35.69208,1909.572,4.92443662304,2
2025-04-01T10:50:44.650,1743497444650,11.8272422489041,46.3776499105778,35.69208,1909.572,4.92443662304,2
2025-04-01T10:50:44.750,1743497444750,11.8272457685901,46.3776540916508,35.69208,1909.572,4.83736261888,2
2025-04-01T10:50:44.850,1743497444850,11.8272489617318,46.3776579601574,35.69208,1909.572,4.83736261888,2
2025-04-01T10:50:44.950,1743497444950,11.8272521860581,46.3776619795344,35.69208,1909.572,4.83736261888,2
2025-04-01T10:50:45.050,1743497445050,11.8272553834703,46.3776658459855,35.69208,1909.572,4.83736261888,2
2025-04-01T10:50:45.150,1743497445150,11.8272584550517,46.3776695682806,35.69208,1909.572,4.83736261888,2
2025-04-01T10:50:45.250,1743497445250,11.8272616437243,46.3776734078736,35.69208,1909.572,4.83736261888,2
2025-04-01T10:50:45.350,1743497445350,11.8272648787765,46.3776773394142,35.69208,1909.572,4.83736261888,2
2025-04-01T10:50:45.450,1743497445450,11.8272680802606,46.3776811811998,35.69208,1909.572,4.83736261888,2
2025-04-01T10:50:45.550,1743497445550,11.8272710634526,46.3776846667062,35.69208,1909.572,4.83736261888,2
2025-04-01T10:50:45.650,1743497445650,11.8272742534163,46.377688482319,35.69208,1909.572,4.83736261888,2
2025-04-01T10:50:45.750,1743497445750,11.8272775189578,46.3776923961826,35.69208,1909.572,4.83736261888,2
2025-04-01T10:50:45.850,1743497445850,11.8272807306712,46.377696227965,35.69208,1909.572,4.83736261888,2
2025-04-01T10:50:45.940,1743497445940,11.8272842510524,46.3777003232569,35.69208,1909.572,4.83736261888,2
2025-04-01T10:50:46.050,1743497446050,11.8272878242685,46.3777045110444,35.78352,1909.572,4.83736261888,2
2025-04-01T10:50:46.150,1743497446150,11.8272911014298,46.3777084214823,35.78352,1909.572,4.97394004448,2
2025-04-01T10:50:46.250,1743497446250,11.8272943800808,46.3777123290425,35.78352,1909.572,4.8877476032,2
2025-04-01T10:50:46.350,1743497446350,11.8272971682203,46.3777158112602,35.78352,1909.572,4.8877476032,2
2025-04-01T10:50:46.450,1743497446450,11.8273004224401,46.3777196755188,35.78352,1909.572,4.8877476032,2
2025-04-01T10:50:46.550,1743497446550,11.8273036583861,46.3777233191584,35.78352,1909.572,4.8877476032,2
2025-04-01T10:50:46.650,1743497446650,11.8273069415062,46.3777271751951,35.78352,1909.572,4.97394004448,2
2025-04-01T10:50:46.750,1743497446750,11.8273104052784,46.3777313428391,35.78352,1909.572,4.97394004448,2
2025-04-01T10:50:46.850,1743497446850,11.8273137210728,46.3777352486179,35.78352,1909.572,4.97394004448,2
2025-04-01T10:50:46.960,1743497446960,11.8273169995252,46.3777392584029,35.78352,1909.572,4.97394004448,2
2025-04-01T10:50:47.060,1743497447060,11.8273203211792,46.3777431677445,35.78352,1909.572,4.97394004448,2
2025-04-01T10:50:47.150,1743497447150,11.8273235171017,46.3777471020256,35.78352,1909.572,4.97394004448,2
2025-04-01T10:50:47.270,1743497447270,11.8273268460055,46.3777509819057,35.78352,1909.572,4.8877476032,2
2025-04-01T10:50:47.350,1743497447350,11.827330187125,46.3777547934076,35.78352,1909.572,4.8877476032,2
2025-04-01T10:50:47.470,1743497447470,11.8273335259602,46.3777586349191,35.78352,1909.572,4.8877476032,2
2025-04-01T10:50:47.570,1743497447570,11.8273368693639,46.3777624387472,35.78352,1909.572,4.8877476032,2
2025-04-01T10:50:47.670,1743497447670,11.8273402359078,46.3777662535378,35.78352,1909.572,4.8877476032,2
2025-04-01T10:50:47.750,1743497447750,11.827343544353,46.3777699867953,35.78352,1909.572,4.8877476032,2
2025-04-01T10:50:47.870,1743497447870,11.8273469216227,46.377773788431,35.78352,1909.572,4.8877476032,2
2025-04-01T10:50:47.980,1743497447980,11.8273503549055,46.3777776466603,35.78352,1909.572,4.8877476032,2
2025-04-01T10:50:48.080,1743497448080,11.8273537173775,46.3777814552845,35.78352,1909.572,4.8877476032,2
2025-04-01T10:50:48.180,1743497448180,11.8273571804545,46.3777852178665,35.78352,1909.572,4.8877476032,2
2025-04-01T10:50:48.280,1743497448280,11.8273605448134,46.3777890162134,35.78352,1909.572,4.8877476032,2
2025-04-01T10:50:48.380,1743497448380,11.8273637507666,46.3777929532352,35.78352,1909.572,4.8877476032,2
2025-04-01T10:50:48.480,1743497448480,11.8273671090674,46.377796751034,35.78352,1909.572,4.8877476032,2
2025-04-01T10:50:48.580,1743497448580,11.8273703373663,46.3778001879632,35.78352,1909.572,4.85490223328,2
2025-04-01T10:50:48.690,1743497448690,11.8273742457669,46.3778045716357,35.78352,1909.572,4.93964358272,2
2025-04-01T10:50:48.750,1743497448750,11.8273776734882,46.3778083906057,35.78352,1909.572,4.93964358272,2
2025-04-01T10:50:48.850,1743497448850,11.8273810952506,46.3778122105349,35.78352,1909.572,4.93964358272,2
2025-04-01T10:50:48.950,1743497448950,11.8273841107196,46.3778156580839,35.78352,1909.572,4.80209071584,2
2025-04-01T10:50:49.050,1743497449050,11.8273874645513,46.3778194490998,35.78352,1909.572,4.8877476032,2
2025-04-01T10:50:49.150,1743497449150,11.8273908670468,46.3778232875966,35.78352,1909.572,4.8877476032,2
2025-04-01T10:50:49.250,1743497449250,11.8273942177997,46.3778271006743,35.78352,1909.572,4.8877476032,2
2025-04-01T10:50:49.350,1743497449350,11.8273975848401,46.3778307828195,35.78352,1909.572,4.8877476032,2
2025-04-01T10:50:49.450,1743497449450,11.827400939367,46.3778346093947,35.78352,1909.572,4.8877476032,2
2025-04-01T10:50:49.550,1743497449550,11.8274042614182,46.3778384918098,35.78352,1909.572,4.8877476032,2
2025-04-01T10:50:49.650,1743497449650,11.8274076222018,46.3778423362675,35.78352,1909.572,4.8877476032,2
2025-04-01T10:50:49.750,1743497449750,11.8274109806019,46.3778461625687,35.78352,1909.572,4.93964358272,2
2025-04-01T10:50:49.850,1743497449850,11.827414342776,46.3778500083282,35.78352,1909.572,4.93964358272,2
2025-04-01T10:50:49.950,1743497449950,11.8274177075322,46.377853930071,35.78352,1909.572,4.8877476032,2
2025-04-01T10:50:50.050,1743497450050,11.8274210733808,46.3778577909039,35.78352,1909.572,4.8877476032,2
2025-04-01T10:50:50.150,1743497450150,11.8274242804265,46.3778616747578,35.78352,1909.572,4.8877476032,2
2025-04-01T10:50:50.250,1743497450250,11.8274276462751,46.3778655523769,35.78352,1909.572,4.97394004448,2
2025-04-01T10:50:50.350,1743497450350,11.8274310363564,46.3778694334902,35.78352,1909.572,5.02494596736,2
2025-04-01T10:50:50.450,1743497450450,11.8274344302115,46.3778733355692,35.78352,1909.572,5.02494596736,2
2025-04-01T10:50:50.550,1743497450550,11.8274375474774,46.3778768888372,35.78352,1909.572,5.02494596736,2
2025-04-01T10:50:50.650,1743497450650,11.8274409336854,46.3778807667988,35.78352,1909.572,5.02494596736,2
2025-04-01T10:50:50.750,1743497450750,11.8274447677992,46.3778851127194,35.78352,1909.572,5.02494596736,2
2025-04-01T10:50:50.850,1743497450850,11.8274481977054,46.3778890241165,35.78352,1909.572,5.02494596736,2
2025-04-01T10:50:50.950,1743497450950,11.827451626817,46.3778929094778,35.78352,1909.572,5.02494596736,2
2025-04-01T10:50:51.050,1743497451050,11.8274550303056,46.3778968099809,35.78352,1909.572,5.02494596736,2
2025-04-01T10:50:51.150,1743497451150,11.8274583752984,46.3779006635511,35.78352,1909.572,5.02494596736,2
2025-04-01T10:50:51.250,1743497451250,11.82746192746,46.3779048177662,35.78352,1909.572,4.97394004448,2
2025-04-01T10:50:51.350,1743497451350,11.8274653130721,46.3779087319038,35.78352,1909.572,4.97394004448,2
2025-04-01T10:50:51.450,1743497451450,11.8274686879583,46.37791264611,35.78352,1909.572,4.97394004448,2
2025-04-01T10:50:51.550,1743497451550,11.8274717215025,46.3779161685462,35.78352,1909.572,4.8877476032,2
2025-04-01T10:50:51.640,1743497451640,11.827475060735,46.3779200393822,35.78352,1909.572,4.8877476032,2
2025-04-01T10:50:51.750,1743497451750,11.8274784893501,46.3779239681136,35.78352,1909.572,4.8877476032,2
2025-04-01T10:50:51.850,1743497451850,11.8274818533118,46.3779278370998,35.78352,1909.572,4.8877476032,2
2025-04-01T10:50:51.950,1743497451950,11.8274852289925,46.37793174466,35.78352,1909.572,4.93964358272,2
2025-04-01T10:50:52.050,1743497452050,11.8274886019917,46.377935603917,35.78352,1909.572,4.8877476032,2
2025-04-01T10:50:52.150,1743497452150,11.8274919916757,46.3779395273727,35.78352,1909.572,4.8877476032,2
2025-04-01T10:50:52.250,1743497452250,11.8274953499765,46.3779433788875,35.78352,1909.572,4.8877476032,2
2025-04-01T10:50:52.350,1743497452350,11.8274986491855,46.3779471359882,35.78352,1909.572,4.8877476032,2
2025-04-01T10:50:52.450,1743497452450,11.8275019857366,46.3779509731833,35.78352,1909.572,4.8877476032,2
2025-04-01T10:50:52.550,1743497452550,11.8275051220707,46.3779546254558,35.78352,1909.572,4.8877476032,2
2025-04-01T10:50:52.650,1743497452650,11.8275084381631,46.3779584403149,35.78352,1909.572,4.8877476032,2
2025-04-01T10:50:52.750,1743497452750,11.8275120443514,46.3779626294727,35.78352,1909.572,4.8877476032,2
2025-04-01T10:50:52.850,1743497452850,11.8275153789162,46.3779664776302,35.78352,1909.572,4.8877476032,2
2025-04-01T10:50:52.960,1743497452960,11.8275187160631,46.3779703105088,35.78352,1909.572,4.8877476032,2
2025-04-01T10:50:53.060,1743497453060,11.827522048443,46.3779741368785,35.78352,1909.572,4.8877476032,2
2025-04-01T10:50:53.160,1743497453160,11.8275253867816,46.377977802717,35.87496,1909.572,4.8877476032,2
2025-04-01T10:50:53.250,1743497453250,11.8275286999939,46.3779816044897,35.87496,1909.572,4.8877476032,2
2025-04-01T10:50:53.350,1743497453350,11.8275320313806,46.377985460321,35.87496,1909.572,4.8877476032,2
2025-04-01T10:50:53.450,1743497453450,11.8275353187713,46.3779892854574,35.87496,1909.572,4.8877476032,2
2025-04-01T10:50:53.570,1743497453570,11.8275384721874,46.3779930517392,35.87496,1909.572,4.8877476032,2
2025-04-01T10:50:53.670,1743497453670,11.8275417363386,46.3779968705722,35.87496,1909.572,4.8877476032,2
2025-04-01T10:50:53.750,1743497453750,11.8275449728805,46.3780008358222,35.87496,1909.572,4.8877476032,2
2025-04-01T10:50:53.880,1743497453880,11.8275484641626,46.3780048667098,35.87496,1909.572,4.8877476032,2
2025-04-01T10:50:53.980,1743497453980,11.8275517809502,46.378008722267,35.87496,1909.572,4.8877476032,2
2025-04-01T10:50:54.080,1743497454080,11.8275551076691,46.378012602147,35.87496,1909.572,4.8877476032,2
2025-04-01T10:50:54.180,1743497454180,11.8275580812277,46.3780161912485,35.87496,1909.572,4.8877476032,2
2025-04-01T10:50:54.280,1743497454280,11.8275613740806,46.3780200745543,35.87496,1909.572,4.97394004448,2
2025-04-01T10:50:54.380,1743497454380,11.8275647015941,46.3780238894134,35.87496,1909.572,4.97394004448,2
2025-04-01T10:50:54.490,1743497454490,11.8275679940498,46.3780277777209,35.87496,1909.572,4.97394004448,2
2025-04-01T10:50:54.550,1743497454550,11.8275708743526,46.3780313596282,35.78352,1909.572,4.97394004448,2
2025-04-01T10:50:54.650,1743497454650,11.8275741562809,46.378035220324,35.78352,1909.572,4.97394004448,2
2025-04-01T10:50:54.750,1743497454750,11.8275778593004,46.3780395487048,35.78352,1909.572,4.97394004448,2
2025-04-01T10:50:54.850,1743497454850,11.8275812006185,46.3780434445489,35.78352,1909.572,4.97394004448,2
2025-04-01T10:50:54.950,1743497454950,11.8275846027167,46.3780471825339,35.78352,1909.572,4.8877476032,2
2025-04-01T10:50:55.050,1743497455050,11.8275879438362,46.3780510533014,35.78352,1909.572,4.8877476032,2
2025-04-01T10:50:55.150,1743497455150,11.8275912145421,46.3780549565452,35.78352,1909.572,4.8877476032,2
2025-04-01T10:50:55.250,1743497455250,11.8275945511924,46.3780588197075,35.87496,1909.572,4.8877476032,2
2025-04-01T10:50:55.350,1743497455350,11.8275979191267,46.3780625579666,35.87496,1909.572,4.8877476032,2
2025-04-01T10:50:55.450,1743497455450,11.8276012582599,46.3780664053705,35.87496,1909.572,4.8877476032,2
2025-04-01T10:50:55.550,1743497455550,11.8276046396015,46.3780703720593,35.87496,1909.572,4.8877476032,2
2025-04-01T10:50:55.650,1743497455650,11.8276079855874,46.378074236729,35.87496,1909.572,4.8877476032,2
2025-04-01T10:50:55.750,1743497455750,11.8276110607441,46.3780777525192,35.87496,1909.572,4.8877476032,2
2025-04-01T10:50:55.850,1743497455850,11.8276143728639,46.3780816018414,35.87496,1909.572,4.97394004448,2
2025-04-01T10:50:55.950,1743497455950,11.8276180180827,46.3780858316973,35.87496,1909.572,4.97394004448,2
2025-04-01T10:50:56.050,1743497456050,11.827621355031,46.3780897318578,35.87496,1909.572,4.97394004448,2
2025-04-01T10:50:56.150,1743497456150,11.8276246913834,46.3780935899501,35.87496,1909.572,4.97394004448,2
2025-04-01T10:50:56.250,1743497456250,11.8276280138318,46.3780974967566,35.87496,1909.572,4.97394004448,2
2025-04-01T10:50:56.350,1743497456350,11.8276313517733,46.3781014791354,35.87496,1909.572,4.97394004448,2
2025-04-01T10:50:56.450,1743497456450,11.8276348212063,46.3781056713079,35.87496,1909.572,4.97394004448,2
2025-04-01T10:50:56.550,1743497456550,11.8276381704696,46.3781095831846,35.87496,1909.572,4.97394004448,2
2025-04-01T10:50:56.650,1743497456650,11.8276415318491,46.3781134725882,35.87496,1909.572,4.8877476032,2
2025-04-01T10:50:56.750,1743497456750,11.8276447081074,46.3781169056805,35.87496,1909.572,4.8877476032,2
2025-04-01T10:50:56.850,1743497456850,11.8276480653157,46.3781207219785,35.87496,1909.572,4.8877476032,2
2025-04-01T10:50:56.950,1743497456950,11.8276514135858,46.3781245629419,35.87496,1909.572,4.8877476032,2
2025-04-01T10:50:57.050,1743497457050,11.8276547694038,46.3781283684829,35.87496,1909.572,4.8877476032,2
2025-04-01T10:50:57.150,1743497457150,11.8276581665363,46.37813214929,35.87496,1909.572,4.8877476032,2
2025-04-01T10:50:57.240,1743497457240,11.8276615271213,46.378135941128,35.87496,1909.572,4.8877476032,2
2025-04-01T10:50:57.350,1743497457350,11.8276648271248,46.378139832039,35.87496,1909.572,4.8877476032,2
2025-04-01T10:50:57.450,1743497457450,11.8276681974426,46.3781436297008,35.87496,1909.572,4.8877476032,2
2025-04-01T10:50:57.550,1743497457550,11.8276717153409,46.3781473952289,35.78352,1909.572,4.8877476032,2
2025-04-01T10:50:57.650,1743497457650,11.8276750840696,46.3781512061827,35.78352,1909.572,4.8877476032,2
2025-04-01T10:50:57.750,1743497457750,11.8276783924155,46.3781550389243,35.78352,1909.572,4.8877476032,2
2025-04-01T10:50:57.850,1743497457850,11.8276817301583,46.3781588637866,35.78352,1909.572,4.8877476032,2
2025-04-01T10:50:57.950,1743497457950,11.8276851628452,46.3781627017354,35.78352,1909.572,4.8877476032,2
2025-04-01T10:50:58.050,1743497458050,11.8276885172728,46.3781665171426,35.78352,1909.572,4.8877476032,2
2025-04-01T10:50:58.150,1743497458150,11.82769183555,46.3781704495053,35.78352,1909.572,4.8877476032,2
2025-04-01T10:50:58.260,1743497458260,11.8276952005049,46.3781742550464,35.69208,1909.572,4.8877476032,2
2025-04-01T10:50:58.350,1743497458350,11.8276986296165,46.3781779449337,35.69208,1909.572,4.93964358272,2
2025-04-01T10:50:58.450,1743497458450,11.8277019985439,46.3781817339626,35.69208,1909.572,4.8877476032,2
2025-04-01T10:50:58.550,1743497458550,11.8277051104468,46.3781853308063,35.69208,1909.572,4.8877476032,2
2025-04-01T10:50:58.660,1743497458660,11.8277084744085,46.3781891211369,35.69208,1909.572,4.8877476032,2
2025-04-01T10:50:58.750,1743497458750,11.8277121023466,46.3781932894661,35.57016,1909.2672,4.8877476032,2
2025-04-01T10:50:58.860,1743497458860,11.8277154961024,46.3781971348145,35.57016,1909.2672,4.93964358272,2
2025-04-01T10:50:58.970,1743497458970,11.8277189498439,46.3782009727632,35.57016,1909.2672,4.93964358272,2
2025-04-01T10:50:59.070,1743497459070,11.8277224798585,46.3782050422249,35.57016,1909.2672,4.8877476032,2
2025-04-01T10:50:59.170,1743497459170,11.8277258680528,46.3782088993579,35.47872,1909.2672,4.8877476032,2
2025-04-01T10:50:59.270,1743497459270,11.8277292628018,46.3782127566965,35.47872,1909.2672,4.8877476032,2
2025-04-01T10:50:59.350,1743497459350,11.8277323667596,46.3782162694035,35.47872,1909.2672,4.8877476032,2
2025-04-01T10:50:59.480,1743497459480,11.8277357148311,46.3782201198905,35.47872,1909.2672,4.8877476032,2
2025-04-01T10:50:59.580,1743497459580,11.827739163011,46.3782240609547,35.38728,1909.2672,4.97394004448,2
2025-04-01T10:50:59.680,1743497459680,11.8277424709596,46.3782279866714,35.38728,1909.2672,4.97394004448,2
2025-04-01T10:50:59.750,1743497459750,11.8277456221908,46.3782318281144,35.38728,1909.2672,5.01199387744,2
2025-04-01T10:50:59.880,1743497459880,11.8277488447295,46.3782357993938,35.38728,1909.2672,5.01199387744,2
2025-04-01T10:50:59.980,1743497459980,11.8277519929813,46.3782399462092,35.29584,1908.9624,5.01199387744,2
2025-04-01T10:51:00.050,1743497460050,11.8277551879106,46.378243975658,35.29584,1908.9624,5.01199387744,2
2025-04-01T10:51:00.150,1743497460150,11.8277583294091,46.3782479107613,35.29584,1908.9624,5.01199387744,2
2025-04-01T10:51:00.250,1743497460250,11.8277615207632,46.3782519428822,35.17392,1908.9624,5.01199387744,2
2025-04-01T10:51:00.350,1743497460350,11.8277647353567,46.3782560237859,35.17392,1908.9624,5.01199387744,2
2025-04-01T10:51:00.450,1743497460450,11.8277679487584,46.3782600310358,35.17392,1908.9624,5.01199387744,2
2025-04-01T10:51:00.550,1743497460550,11.8277710535107,46.3782637463423,35.17392,1908.9624,5.01199387744,2
2025-04-01T10:51:00.650,1743497460650,11.8277742812137,46.3782676698665,35.08248,1908.9624,4.97394004448,2
2025-04-01T10:51:00.750,1743497460750,11.8277776658327,46.3782719961233,35.08248,1908.9624,4.97394004448,2
2025-04-01T10:51:00.850,1743497460850,11.8277809465693,46.3782759108776,34.99104,1908.6576,4.97394004448,2
2025-04-01T10:51:00.950,1743497460950,11.8277840475476,46.3782797523891,34.99104,1908.6576,4.97394004448,2
2025-04-01T10:51:01.050,1743497461050,11.8277873274897,46.3782836322692,34.99104,1908.6576,4.97394004448,2
2025-04-01T10:51:01.150,1743497461150,11.8277907061499,46.378287652948,34.8996,1908.6576,4.8877476032,2
2025-04-01T10:51:01.250,1743497461250,11.8277940168793,46.3782915069293,34.8996,1908.6576,4.8877476032,2
2025-04-01T10:51:01.350,1743497461350,11.8277971357342,46.3782952715668,34.77768,1908.6576,4.8877476032,2
2025-04-01T10:51:01.450,1743497461450,11.8278004591758,46.3782990676527,34.77768,1908.6576,4.80209071584,2
2025-04-01T10:51:01.550,1743497461550,11.8278037506383,46.3783028840192,34.77768,1908.6576,4.80209071584,2
2025-04-01T10:51:01.650,1743497461650,11.827807447103,46.3783069192232,34.68624,1908.3528,4.80209071584,2
2025-04-01T10:51:01.750,1743497461750,11.8278108531738,46.3783106670745,34.68624,1908.3528,4.80209071584,2
2025-04-01T10:51:01.850,1743497461850,11.8278142699705,46.3783144063613,34.5948,1908.3528,4.85490223328,2
2025-04-01T10:51:01.950,1743497461950,11.8278172972579,46.3783175991022,34.5948,1908.3528,4.85490223328,2
2025-04-01T10:51:02.050,1743497462050,11.8278206753222,46.3783212998149,34.5948,1908.3528,4.85490223328,2
2025-04-01T10:51:02.150,1743497462150,11.8278240378935,46.3783251009025,34.47288,1908.3528,4.85490223328,2
2025-04-01T10:51:02.250,1743497462250,11.8278274155605,46.3783288501926,34.47288,1908.3528,4.85490223328,2
2025-04-01T10:51:02.350,1743497462350,11.8278308875757,46.3783326220241,34.47288,1908.3528,4.85490223328,2
2025-04-01T10:51:02.450,1743497462450,11.8278342835165,46.3783363981036,34.38144,1908.048,4.85490223328,2
2025-04-01T10:51:02.550,1743497462550,11.8278374488503,46.3783398421584,34.38144,1908.048,4.85490223328,2
2025-04-01T10:51:02.640,1743497462640,11.8278408036751,46.3783435935038,34.38144,1908.048,4.85490223328,2
2025-04-01T10:51:02.750,1743497462750,11.8278441287057,46.3783472751694,34.29,1908.048,4.93964358272,2
2025-04-01T10:51:02.850,1743497462850,11.8278474757841,46.3783510489194,34.29,1908.048,4.93964358272,2
2025-04-01T10:51:02.950,1743497462950,11.8278512109812,46.3783551825113,34.19856,1908.048,4.93964358272,2
2025-04-01T10:51:03.050,1743497463050,11.8278546101001,46.3783590333409,34.19856,1908.048,4.93964358272,2
2025-04-01T10:51:03.150,1743497463150,11.827857890638,46.3783629916024,34.07664,1907.7432,4.8877476032,2
2025-04-01T10:51:03.250,1743497463250,11.82786128062,46.3783668638087,34.07664,1907.7432,4.8877476032,2
2025-04-01T10:51:03.350,1743497463350,11.8278647011906,46.3783706890137,33.9852,1907.7432,4.8877476032,2
2025-04-01T10:51:03.450,1743497463450,11.8278680730974,46.3783745405284,33.9852,1907.7432,4.8877476032,2
2025-04-01T10:51:03.550,1743497463550,11.8278714902913,46.3783781964665,33.89376,1907.7432,4.8877476032,2
2025-04-01T10:51:03.650,1743497463650,11.8278748850403,46.3783820057416,33.77184,1907.4384,4.93964358272,2
2025-04-01T10:51:03.750,1743497463750,11.8278783064055,46.3783857829173,33.77184,1907.4384,4.93964358272,2
2025-04-01T10:51:03.850,1743497463850,11.8278817375034,46.3783895747896,33.6804,1907.4384,4.93964358272,2
2025-04-01T10:51:03.950,1743497463950,11.8278852414977,46.3783934151021,33.6804,1907.4384,4.93964358272,2
2025-04-01T10:51:04.050,1743497464050,11.8278887043761,46.378397239108,33.58896,1907.4384,4.93964358272,2
2025-04-01T10:51:04.160,1743497464160,11.827892157323,46.3784010451287,33.58896,1907.4384,4.9930031712,2
2025-04-01T10:51:04.260,1743497464260,11.8278959145679,46.3784052066063,33.49752,1907.1336,5.07740924064,2
2025-04-01T10:51:04.350,1743497464350,11.8278994610686,46.3784091094047,33.3756,1907.1336,5.07740924064,2
2025-04-01T10:51:04.470,1743497464470,11.8279030373635,46.3784130134364,33.3756,1907.1336,5.07740924064,2
2025-04-01T10:51:04.570,1743497464570,11.82790643827,46.3784166185019,33.28416,1907.1336,5.07740924064,2
2025-04-01T10:51:04.670,1743497464670,11.827910054489,46.378420472723,33.28416,1907.1336,5.04777987648,2
2025-04-01T10:51:04.770,1743497464770,11.8279135723873,46.3784242708302,33.19272,1907.1336,5.04777987648,2
2025-04-01T10:51:04.850,1743497464850,11.8279175213081,46.3784283025742,33.0708,1906.8288,5.04777987648,2
2025-04-01T10:51:04.970,1743497464970,11.8279211716912,46.3784321278476,33.0708,1906.8288,5.04777987648,2
2025-04-01T10:51:05.070,1743497465070,11.8279248141291,46.378435941816,32.97936,1906.8288,5.04777987648,2
2025-04-01T10:51:05.180,1743497465180,11.8279279534427,46.3784395503073,32.97936,1906.8288,4.9930031712,2
2025-04-01T10:51:05.280,1743497465280,11.8279319659244,46.3784435642717,32.88792,1906.8288,5.04777987648,2
2025-04-01T10:51:05.350,1743497465350,11.8279356057802,46.3784473806724,32.79648,1906.524,5.04777987648,2
2025-04-01T10:51:05.480,1743497465480,11.827939257355,46.3784511425007,32.79648,1906.524,5.04777987648,2
2025-04-01T10:51:05.580,1743497465580,11.8279428987999,46.3784549554414,32.67456,1906.524,5.04777987648,2
2025-04-01T10:51:05.690,1743497465690,11.8279465241558,46.3784587601945,32.67456,1906.524,4.9930031712,2
2025-04-01T10:51:05.750,1743497465750,11.8279498434262,46.3784622266537,32.58312,1906.524,4.9091831712,2
2025-04-01T10:51:05.850,1743497465850,11.8279534091938,46.3784659865294,32.58312,1906.524,4.9091831712,2
2025-04-01T10:51:05.950,1743497465950,11.827956610082,46.3784694652528,32.49168,1906.2192,4.9091831712,2
2025-04-01T10:51:06.050,1743497466050,11.8279601555896,46.3784732030323,32.36976,1906.2192,4.9930031712,2
2025-04-01T10:51:06.150,1743497466150,11.8279641223869,46.3784773990759,32.36976,1906.2192,4.9930031712,2
2025-04-01T10:51:06.250,1743497466250,11.8279677282773,46.3784811703593,32.27832,1906.2192,4.9091831712,2
2025-04-01T10:51:06.350,1743497466350,11.8279714428172,46.3784848659677,32.27832,1906.2192,4.9091831712,2
2025-04-01T10:51:06.450,1743497466450,11.8279750701594,46.378488615429,32.18688,1905.9144,4.9091831712,2
2025-04-01T10:51:06.550,1743497466550,11.8279786879675,46.3784924649568,32.18688,1905.9144,5.04777987648,2
2025-04-01T10:51:06.650,1743497466650,11.8279823240494,46.3784962462777,32.09544,1905.9144,5.04777987648,2
2025-04-01T10:51:06.750,1743497466750,11.8279859357,46.3784999534309,32.09544,1905.9144,5.04777987648,2
2025-04-01T10:51:06.850,1743497466850,11.8279900528586,46.3785041546474,31.97352,1905.9144,4.96488480224,2
2025-04-01T10:51:06.950,1743497466950,11.8279937115841,46.3785079303158,31.97352,1905.9144,4.9091831712,2
2025-04-01T10:51:07.050,1743497467050,11.8279973260155,46.3785116555227,31.88208,1905.6096,4.82597919232,2
2025-04-01T10:51:07.150,1743497467150,11.8280003838916,46.378514808422,31.88208,1905.6096,4.68722423488,2
2025-04-01T10:51:07.250,1743497467250,11.8280038676259,46.3785183650472,31.79064,1905.6096,4.68722423488,2
2025-04-01T10:51:07.350,1743497467350,11.828007396846,46.3785218279436,31.79064,1905.6096,4.6043533008,2
2025-04-01T10:51:07.450,1743497467450,11.828010790006,46.3785253188628,31.6992,1905.6096,4.54863334112,2
2025-04-01T10:51:07.550,1743497467550,11.8280142312339,46.3785288909039,31.6992,1905.6096,4.54863334112,2
2025-04-01T10:51:07.650,1743497467650,11.8280175377921,46.3785323931623,31.57728,1905.3048,4.54863334112,2
2025-04-01T10:51:07.750,1743497467750,11.8280208199191,46.378536202369,31.57728,1905.3048,4.6325011744,2
2025-04-01T10:51:07.850,1743497467850,11.8280241227034,46.3785397176453,31.48584,1905.3048,4.54863334112,2
2025-04-01T10:51:07.950,1743497467950,11.8280272512911,46.3785431452563,31.48584,1905.3048,4.54863334112,2
2025-04-01T10:51:08.050,1743497468050,11.8280310005908,46.3785468473394,31.3944,1905.3048,4.54863334112,2
2025-04-01T10:51:08.150,1743497468150,11.8280344199697,46.3785503595668,31.3944,1905.3048,4.6043533008,2
2025-04-01T10:51:08.250,1743497468250,11.8280378596086,46.378553861928,31.27248,1905,4.6043533008,2
2025-04-01T10:51:08.350,1743497468350,11.8280409478748,46.3785569716284,31.27248,1905,4.6043533008,2
2025-04-01T10:51:08.450,1743497468450,11.8280443477881,46.3785604005755,31.18104,1905,4.46542980928,2
2025-04-01T10:51:08.550,1743497468550,11.8280474298968,46.3785635675204,31.18104,1905,4.46542980928,2
2025-04-01T10:51:08.650,1743497468650,11.8280507493659,46.3785669417581,31.18104,1905,4.46542980928,2
2025-04-01T10:51:08.750,1743497468750,11.8280544021325,46.3785706022867,31.0896,1905,4.46542980928,2
2025-04-01T10:51:08.850,1743497468850,11.8280577168345,46.3785740369206,30.99816,1904.6952,4.54863334112,2
2025-04-01T10:51:08.950,1743497468950,11.8280610259749,46.3785774439086,30.99816,1904.6952,4.6325011744,2
2025-04-01T10:51:09.040,1743497469040,11.828064303732,46.3785810419856,30.99816,1904.6952,4.71699799296,2
2025-04-01T10:51:09.140,1743497469140,11.8280676738512,46.3785849635229,30.87624,1904.6952,4.80209071584,2
2025-04-01T10:51:09.250,1743497469250,11.8280712044617,46.3785890509356,30.87624,1904.6952,4.8877476032,2
2025-04-01T10:51:09.350,1743497469350,11.8280745892793,46.3785929733979,30.7848,1904.6952,4.97394004448,2
2025-04-01T10:51:09.450,1743497469450,11.8280780044869,46.378596942519,30.7848,1904.6952,5.02494596736,2
2025-04-01T10:51:09.550,1743497469550,11.8280814701461,46.3786009068784,30.69336,1904.3904,5.02494596736,2
2025-04-01T10:51:09.660,1743497469660,11.8280849213054,46.378604902789,30.69336,1904.3904,5.11078122368,2
2025-04-01T10:51:09.750,1743497469750,11.8280877358624,46.3786080135171,30.57144,1904.3904,5.11078122368,2
2025-04-01T10:51:09.850,1743497469850,11.8280917225225,46.3786126665572,30.57144,1904.3904,5.14782340512,2
2025-04-01T10:51:09.960,1743497469960,11.8280951434904,46.378616769934,30.48,1904.3904,5.14782340512,2
2025-04-01T10:51:10.050,1743497470050,11.8280983477552,46.3786209518634,30.38856,1904.0856,5.14782340512,2
2025-04-01T10:51:10.160,1743497470160,11.8281017508466,46.378625060276,30.38856,1904.0856,5.14782340512,2
2025-04-01T10:51:10.260,1743497470260,11.8281051209657,46.3786290732126,30.29712,1904.0856,5.0606403232,2
2025-04-01T10:51:10.350,1743497470350,11.828108514523,46.3786330731656,30.1752,1904.0856,5.0606403232,2
2025-04-01T10:51:10.450,1743497470450,11.8281119013269,46.3786370173472,30.1752,1904.0856,4.97394004448,2
2025-04-01T10:51:10.570,1743497470570,11.8281146598708,46.3786400313318,30.08376,1903.7808,4.97394004448,2
2025-04-01T10:51:10.680,1743497470680,11.8281180007916,46.3786438453688,29.99232,1903.7808,5.02494596736,2
2025-04-01T10:51:10.780,1743497470780,11.8281219765272,46.3786485239651,29.8704,1903.7808,5.02494596736,2
2025-04-01T10:51:10.850,1743497470850,11.8281255277949,46.3786529211351,29.8704,1903.7808,5.02494596736,2
2025-04-01T10:51:10.980,1743497470980,11.8281289283042,46.37865687001,29.77896,1903.476,4.97394004448,2
2025-04-01T10:51:11.080,1743497471080,11.8281321117131,46.378660744306,29.68752,1903.476,4.97394004448,2
2025-04-01T10:51:11.180,1743497471180,11.828135431778,46.3786646936263,29.68752,1903.476,4.97394004448,2
2025-04-01T10:51:11.290,1743497471290,11.8281387341651,46.3786686375167,29.59608,1903.476,4.97394004448,2
2025-04-01T10:51:11.350,1743497471350,11.828141750528,46.3786723005632,29.59608,1903.476,4.97394004448,2
2025-04-01T10:51:11.450,1743497471450,11.8281450129908,46.3786762108469,29.47416,1903.1712,4.97394004448,2
2025-04-01T10:51:11.550,1743497471550,11.8281482901521,46.37868002783,29.47416,1903.1712,4.97394004448,2
2025-04-01T10:51:11.650,1743497471650,11.8281517915643,46.3786843164719,29.38272,1903.1712,4.97394004448,2
2025-04-01T10:51:11.750,1743497471750,11.8281550673352,46.3786882459741,29.29128,1903.1712,4.92443662304,2
2025-04-01T10:51:11.850,1743497471850,11.8281583343665,46.3786921536884,29.19984,1902.8664,4.83736261888,2
2025-04-01T10:51:11.950,1743497471950,11.8281614524268,46.3786957425672,29.19984,1902.8664,4.83736261888,2
2025-04-01T10:51:12.050,1743497472050,11.8281647983134,46.3786996541527,29.07792,1902.8664,4.83736261888,2
2025-04-01T10:51:12.150,1743497472150,11.8281680270095,46.3787034739278,29.07792,1902.8664,4.83736261888,2
2025-04-01T10:51:12.250,1743497472250,11.8281712662329,46.3787072803424,28.98648,1902.8664,4.7507968992,2
2025-04-01T10:51:12.350,1743497472350,11.8281741912269,46.3787107882876,28.89504,1902.5616,4.7507968992,2
2025-04-01T10:51:12.450,1743497472450,11.8281774288613,46.3787145597423,28.89504,1902.5616,4.7507968992,2
2025-04-01T10:51:12.550,1743497472550,11.8281805091824,46.3787181399881,28.77312,1902.5616,4.83736261888,2
2025-04-01T10:51:12.650,1743497472650,11.8281837440359,46.3787219046256,28.77312,1902.5616,4.8877476032,2
2025-04-01T10:51:12.750,1743497472750,11.8281872214141,46.3787259225296,28.77312,1902.5616,4.8877476032,2
2025-04-01T10:51:12.850,1743497472850,11.8281904781168,46.3787297230348,28.68168,1902.5616,4.8877476032,2
2025-04-01T10:51:12.950,1743497472950,11.8281937427645,46.378733615436,28.68168,1902.5616,4.8877476032,2
2025-04-01T10:51:13.050,1743497473050,11.8281970167478,46.3787374509524,28.59024,1902.2568,4.8877476032,2
2025-04-01T10:51:13.150,1743497473150,11.8282002796079,46.3787413318431,28.59024,1902.2568,4.8877476032,2
2025-04-01T10:51:13.250,1743497473250,11.8282035569678,46.3787452058138,28.4988,1902.2568,4.97394004448,2
2025-04-01T10:51:13.350,1743497473350,11.8282068297593,46.3787490628954,28.37688,1902.2568,4.97394004448,2
2025-04-01T10:51:13.450,1743497473450,11.8282101414818,46.3787529515625,28.37688,1902.2568,4.97394004448,2
2025-04-01T10:51:13.550,1743497473550,11.8282135316624,46.3787568631137,28.28544,1901.952,4.8877476032,2
2025-04-01T10:51:13.650,1743497473650,11.8282169017815,46.3787607118022,28.28544,1901.952,4.93964358272,2
2025-04-01T10:51:13.750,1743497473750,11.8282203211604,46.3787644414798,28.194,1901.952,4.93964358272,2
2025-04-01T10:51:13.850,1743497473850,11.8282237327928,46.3787682266718,28.194,1901.952,4.85490223328,2
2025-04-01T10:51:13.950,1743497473950,11.8282271368773,46.3787720503351,28.07208,1901.952,4.85490223328,2
2025-04-01T10:51:14.050,1743497474050,11.8282305354002,46.3787758111871,28.07208,1901.952,4.85490223328,2
2025-04-01T10:51:14.150,1743497474150,11.8282339365053,46.3787795987429,27.98064,1901.6472,4.85490223328,2
2025-04-01T10:51:14.250,1743497474250,11.828237333042,46.3787833592866,27.98064,1901.6472,4.85490223328,2
2025-04-01T10:51:14.350,1743497474350,11.8282406991886,46.3787871552013,27.8892,1901.6472,4.85490223328,2
2025-04-01T10:51:14.450,1743497474450,11.8282440834103,46.3787909228534,27.8892,1901.6472,4.85490223328,2
2025-04-01T10:51:14.550,1743497474550,11.8282474588924,46.3787948101674,27.79776,1901.6472,4.85490223328,2
2025-04-01T10:51:14.640,1743497474640,11.8282511609187,46.378798828825,27.79776,1901.6472,4.93964358272,2
2025-04-01T10:51:14.750,1743497474750,11.8282546081055,46.3788026703023,27.67584,1901.3424,4.93964358272,2
2025-04-01T10:51:14.850,1743497474850,11.8282580221214,46.3788065345266,27.5844,1901.3424,4.93964358272,2
2025-04-01T10:51:14.950,1743497474950,11.8282614561987,46.3788103932012,27.5844,1901.3424,4.93964358272,2
2025-04-01T10:51:15.050,1743497475050,11.8282648807419,46.3788142401255,27.49296,1901.3424,4.93964358272,2
2025-04-01T10:51:15.150,1743497475150,11.8282680359457,46.3788175033428,27.37104,1901.0376,4.85490223328,2
2025-04-01T10:51:15.250,1743497475250,11.8282714475781,46.3788212527442,27.37104,1901.0376,4.85490223328,2
2025-04-01T10:51:15.350,1743497475350,11.8282750042088,46.3788251210623,27.2796,1901.0376,4.85490223328,2
2025-04-01T10:51:15.460,1743497475460,11.8282784857582,46.3788288809979,27.18816,1901.0376,4.85490223328,2
2025-04-01T10:51:15.560,1743497475560,11.8282820213343,46.3788324545807,27.18816,1901.0376,4.85490223328,2
2025-04-01T10:51:15.660,1743497475660,11.8282857279291,46.3788366605333,27.09672,1900.7328,4.85490223328,2
2025-04-01T10:51:15.760,1743497475760,11.828289261519,46.3788404538529,26.9748,1900.7328,4.85490223328,2
2025-04-01T10:51:15.850,1743497475850,11.8282927831912,46.378844235268,26.9748,1900.7328,4.85490223328,2
2025-04-01T10:51:16.050,1743497476050,11.828299145242,46.3788509662549,26.79192,1900.7328,4.85490223328,2
2025-04-01T10:51:16.170,1743497476170,11.8283029074526,46.3788551588984,26.67,1900.428,4.85490223328,2
2025-04-01T10:51:16.270,1743497476270,11.8283063856253,46.3788589018423,26.67,1900.428,4.85490223328,2
2025-04-01T10:51:16.350,1743497476350,11.8283097793812,46.3788624797843,26.57856,1900.428,4.85490223328,2
2025-04-01T10:51:16.480,1743497476480,11.8283132615264,46.3788662548875,26.48712,1900.428,4.93964358272,2
2025-04-01T10:51:16.580,1743497476580,11.8283168505335,46.3788701584138,26.39568,1900.1232,4.93964358272,2
2025-04-01T10:51:16.680,1743497476680,11.8283203163913,46.3788739429293,26.39568,1900.1232,4.93964358272,2
2025-04-01T10:51:16.780,1743497476780,11.8283238249541,46.3788777535918,26.27376,1900.1232,4.85490223328,2
2025-04-01T10:51:16.850,1743497476850,11.828327267771,46.3788815192313,26.18232,1900.1232,4.85490223328,2
2025-04-01T10:51:16.950,1743497476950,11.8283307616353,46.3788851690672,26.09088,1899.8184,4.85490223328,2
2025-04-01T10:51:17.050,1743497477050,11.8283342048495,46.3788889160235,25.99944,1899.8184,4.85490223328,2
2025-04-01T10:51:17.150,1743497477150,11.828337588674,46.378892718066,25.99944,1899.8184,4.85490223328,2
2025-04-01T10:51:17.250,1743497477250,11.8283412553445,46.3788966842709,25.87752,1899.8184,4.85490223328,2
2025-04-01T10:51:17.350,1743497477350,11.8283446898191,46.3789004271206,25.78608,1899.5136,4.85490223328,2
2025-04-01T10:51:17.450,1743497477450,11.828348112376,46.3789041642663,25.69464,1899.5136,4.80209071584,2
2025-04-01T10:51:17.550,1743497477550,11.8283512111695,46.378907675436,25.69464,1899.5136,4.80209071584,2
2025-04-01T10:51:17.650,1743497477650,11.8283545969802,46.3789113709672,25.57272,1899.5136,4.80209071584,2
2025-04-01T10:51:17.750,1743497477750,11.8283580896528,46.3789151107936,25.48128,1899.2088,4.77075187072,2
2025-04-01T10:51:17.850,1743497477850,11.8283615052577,46.3789187983836,25.38984,1899.2088,4.77075187072,2
2025-04-01T10:51:17.950,1743497477950,11.8283649645608,46.3789224177966,25.2984,1899.2088,4.77075187072,2
2025-04-01T10:51:18.050,1743497478050,11.8283686000468,46.3789265558163,25.17648,1898.904,4.77075187072,2
2025-04-01T10:51:18.150,1743497478150,11.828372106226,46.378930286072,25.08504,1898.904,4.85490223328,2
2025-04-01T10:51:18.250,1743497478250,11.8283755553991,46.37893381585,24.9936,1898.904,4.85490223328,2
2025-04-01T10:51:18.350,1743497478350,11.8283790540305,46.3789375311532,24.9936,1898.904,4.85490223328,2
2025-04-01T10:51:18.450,1743497478450,11.8283825322032,46.3789412465818,24.87168,1898.5992,4.85490223328,2
2025-04-01T10:51:18.550,1743497478550,11.8283857910907,46.3789446356964,24.78024,1898.5992,4.85490223328,2
2025-04-01T10:51:18.650,1743497478650,11.8283892521814,46.378948327509,24.6888,1898.5992,4.85490223328,2
2025-04-01T10:51:18.750,1743497478750,11.8283925929036,46.3789520548092,24.59736,1898.2944,4.85490223328,2
2025-04-01T10:51:18.850,1743497478850,11.8283963416075,46.3789560799499,24.47544,1898.2944,4.85490223328,2
2025-04-01T10:51:18.950,1743497478950,11.8283998815535,46.3789598586191,24.384,1898.2944,4.9091831712,2
2025-04-01T10:51:19.050,1743497479050,11.8284034234858,46.3789636664222,24.29256,1897.9896,4.9930031712,2
2025-04-01T10:51:19.150,1743497479150,11.8284067866529,46.3789671285896,24.17064,1897.9896,4.9930031712,2
2025-04-01T10:51:19.250,1743497479250,11.8284103136881,46.3789709388734,24.0792,1897.9896,4.9930031712,2
2025-04-01T10:51:19.350,1743497479350,11.8284137698131,46.3789746739193,23.98776,1897.6848,4.93964358272,2
2025-04-01T10:51:19.450,1743497479450,11.8284172722184,46.3789784650082,23.89632,1897.6848,4.93964358272,2
2025-04-01T10:51:19.550,1743497479550,11.8284208773143,46.3789821684765,23.7744,1897.6848,4.85490223328,2
2025-04-01T10:51:19.650,1743497479650,11.8284246945448,46.3789863628275,23.68296,1897.38,4.85490223328,2
2025-04-01T10:51:19.750,1743497479750,11.8284281894023,46.3789901277369,23.59152,1897.38,4.85490223328,2
2025-04-01T10:51:19.850,1743497479850,11.8284315358847,46.378993645589,23.4696,1897.38,4.85490223328,2
2025-04-01T10:51:19.950,1743497479950,11.8284349790989,46.3789973438416,23.37816,1897.0752,4.77075187072,2
2025-04-01T10:51:20.040,1743497480040,11.8284383901354,46.3790011174974,23.28672,1897.0752,4.71699799296,2
2025-04-01T10:51:20.150,1743497480150,11.8284417791242,46.3790048149899,23.19528,1897.0752,4.71699799296,2
2025-04-01T10:51:20.250,1743497480250,11.8284451434831,46.3790085235241,23.07336,1896.7704,4.80209071584,2
2025-04-01T10:51:20.350,1743497480350,11.828448306632,46.3790118404445,22.98192,1896.7704,4.80209071584,2
2025-04-01T10:51:20.450,1743497480450,11.8284516519227,46.3790155223756,22.89048,1896.7704,4.80209071584,2
2025-04-01T10:51:20.550,1743497480550,11.8284548480438,46.3790190069399,22.89048,1896.7704,4.80209071584,2
2025-04-01T10:51:20.660,1743497480660,11.8284581937317,46.3790226623727,22.79904,1896.4656,4.80209071584,2
2025-04-01T10:51:20.750,1743497480750,11.8284618286218,46.3790267357911,22.67712,1896.4656,4.80209071584,2
2025-04-01T10:51:20.850,1743497480850,11.8284651665633,46.3790304254301,22.58568,1896.4656,4.80209071584,2
2025-04-01T10:51:20.950,1743497480950,11.8284684959637,46.3790341360647,22.49424,1896.1608,4.80209071584,2
2025-04-01T10:51:21.060,1743497481060,11.8284718128506,46.3790378274166,22.37232,1896.1608,4.80209071584,2
2025-04-01T10:51:21.160,1743497481160,11.8284752296473,46.3790415355332,22.28088,1896.1608,4.71699799296,2
2025-04-01T10:51:21.260,1743497481260,11.8284785735475,46.3790452123085,22.18944,1895.856,4.71699799296,2
2025-04-01T10:51:21.350,1743497481350,11.8284819375092,46.3790489085678,22.098,1895.856,4.71699799296,2
2025-04-01T10:51:21.470,1743497481470,11.828485317957,46.3790525843667,21.97608,1895.856,4.71699799296,2
2025-04-01T10:51:21.570,1743497481570,11.8284886441794,46.3790562833152,21.88464,1895.5512,4.71699799296,2
2025-04-01T10:51:21.670,1743497481670,11.8284920675308,46.3790599866658,21.7932,1895.5512,4.85490223328,2
2025-04-01T10:51:21.770,1743497481770,11.8284955149162,46.379063627128,21.67128,1895.5512,4.85490223328,2
2025-04-01T10:51:21.850,1743497481850,11.8284989507812,46.3790674067103,21.57984,1895.2464,4.93964358272,2
2025-04-01T10:51:21.950,1743497481950,11.8285023073936,46.3790713215931,21.57984,1895.2464,4.93964358272,2
2025-04-01T10:51:22.050,1743497482050,11.8285057353135,46.3790751458131,21.4884,1895.2464,4.93964358272,2
2025-04-01T10:51:22.180,1743497482180,11.8285091098025,46.3790789323326,21.39696,1895.2464,4.93964358272,2
2025-04-01T10:51:22.250,1743497482250,11.828512589167,46.3790826995137,21.27504,1894.9416,4.85490223328,2
2025-04-01T10:51:22.350,1743497482350,11.8285160548261,46.3790862926918,21.1836,1894.9416,4.82597919232,2
2025-04-01T10:51:22.480,1743497482480,11.8285196289361,46.3790899297539,21.09216,1894.9416,4.82597919232,2
2025-04-01T10:51:22.580,1743497482580,11.8285232475387,46.3790934972645,20.97024,1894.6368,4.74342431552,2
2025-04-01T10:51:22.680,1743497482680,11.8285268361485,46.3790970710356,20.8788,1894.6368,4.74342431552,2
2025-04-01T10:51:22.750,1743497482750,11.8285304174091,46.3791007886203,20.78736,1894.6368,4.74342431552,2
2025-04-01T10:51:22.890,1743497482890,11.828533975033,46.3791043755207,20.69592,1894.332,4.74342431552,2
2025-04-01T10:51:22.950,1743497482950,11.8285374808149,46.3791080041126,20.574,1894.332,4.77075187072,2
2025-04-01T10:51:23.050,1743497483050,11.8285410235417,46.3791116217935,20.48256,1894.332,4.77075187072,2
2025-04-01T10:51:23.150,1743497483150,11.8285444361672,46.3791151570248,20.39112,1894.332,4.77075187072,2
2025-04-01T10:51:23.250,1743497483250,11.8285478986483,46.3791188506035,20.29968,1894.0272,4.85490223328,2
2025-04-01T10:51:23.350,1743497483350,11.8285512830686,46.3791226799022,20.17776,1894.0272,4.8877476032,2
2025-04-01T10:51:23.450,1743497483450,11.8285545465246,46.3791265379088,20.08632,1894.0272,4.92443662304,2
2025-04-01T10:51:23.550,1743497483550,11.8285577176185,46.3791304566199,19.99488,1893.7224,4.96488480224,2
2025-04-01T10:51:23.650,1743497483650,11.8285605760722,46.3791345256191,19.99488,1893.7224,4.96589153632,2
2025-04-01T10:51:23.750,1743497483750,11.8285633395817,46.3791386646409,19.87296,1893.7224,4.93964358272,2
2025-04-01T10:51:23.850,1743497483850,11.828565510187,46.3791428822154,19.78152,1893.7224,4.83839617536,2
2025-04-01T10:51:24.050,1743497484050,11.8285683869142,46.3791512130841,19.69008,1893.4176,4.66905474112,2
2025-04-01T10:51:24.150,1743497484150,11.8285692714039,46.3791553228156,19.69008,1893.4176,4.51775002976,2
2025-04-01T10:51:24.250,1743497484250,11.8285695186955,46.3791593001928,19.69008,1893.4176,4.30000712768,2
2025-04-01T10:51:24.350,1743497484350,11.8285695500786,46.3791629978908,19.69008,1893.4176,4.10488176736,2
2025-04-01T10:51:24.450,1743497484450,11.8285689585646,46.379166569144,19.69008,1893.4176,3.83275957856,2
2025-04-01T10:51:24.550,1743497484550,11.8285684484881,46.3791694719284,19.69008,1893.4176,3.68782384608,2
2025-04-01T10:51:24.650,1743497484650,11.8285671395303,46.3791725804983,19.69008,1893.4176,3.5440146544,2
2025-04-01T10:51:24.750,1743497484750,11.8285660462824,46.3791761968345,19.69008,1893.4176,3.45398884512,2
2025-04-01T10:51:24.850,1743497484850,11.828564129126,46.3791798226944,19.78152,1893.7224,3.48855844832,2
2025-04-01T10:51:24.950,1743497484950,11.8285617912758,46.3791826514139,19.78152,1893.7224,3.55106179296,2
2025-04-01T10:51:25.050,1743497485050,11.8285590553754,46.3791855458908,19.87296,1893.7224,3.58050831776,2
2025-04-01T10:51:25.150,1743497485150,11.8285559929307,46.3791881117859,19.87296,1893.7224,3.61248419488,2
2025-04-01T10:51:25.250,1743497485250,11.8285525735517,46.3791904779762,19.99488,1893.7224,3.67967967136,2
2025-04-01T10:51:25.350,1743497485350,11.8285489166138,46.3791922476045,19.99488,1893.7224,3.64006075136,2
2025-04-01T10:51:25.650,1743497485650,11.8285359243643,46.3791972959087,20.29968,1894.0272,3.64006075136,2
2025-04-01T15:02:34.350,1743512554350,11.8238954041332,46.3789800174463,21.7932,1895.5512,1.60000265216,3
2025-04-01T15:02:34.450,1743512554450,11.8238931479173,46.3789801007909,21.7932,1895.5512,1.30000215488,3
2025-04-01T15:02:34.550,1743512554550,11.8238916472825,46.3789800638783,21.67128,1895.2464,1.0000016576,3
2025-04-01T15:02:34.650,1743512554650,11.8238905254315,46.3789799936865,21.67128,1895.2464,0.70000116032,3
2025-04-01T15:02:34.750,1743512554750,11.8238898350005,46.3789799817028,21.67128,1895.2464,0.40000066304,3
2025-04-01T15:02:34.850,1743512554850,11.8238897360839,46.3789800228805,21.7932,1895.5512,0.10000016576,3
2025-04-01T15:02:34.950,1743512554950,11.8238897315156,46.3789800097277,21.7932,1895.5512,0,3
2025-04-01T15:02:35.050,1743512555050,11.8238899315342,46.3789799238502,21.7932,1895.5512,0.30000049728,3
2025-04-01T15:02:35.150,1743512555150,11.8238905536374,46.378979924636,21.7932,1895.5512,0.5000008288,3
2025-04-01T15:02:35.250,1743512555250,11.823891431375,46.3789798382467,21.7932,1895.5512,0.80000132608,3
2025-04-01T15:02:35.350,1743512555350,11.823892853552,46.3789798273035,21.7932,1895.5512,1.10000182336,3
2025-04-01T15:02:35.450,1743512555450,11.8238943885498,46.3789799472503,21.88464,1895.5512,1.40000232064,3
2025-04-01T15:02:35.550,1743512555550,11.8238965859722,46.378979924105,21.88464,1895.5512,1.70000281792,3
2025-04-01T15:02:35.650,1743512555650,11.8238995081883,46.3789798766838,21.88464,1895.5512,2.0000033152,3
2025-04-01T15:02:35.750,1743512555750,11.8239022776594,46.3789798158315,21.97608,1895.5512,2.10000348096,3
2025-04-01T15:02:35.850,1743512555850,11.8239048908102,46.3789797364779,21.97608,1895.5512,2.20000364672,3
2025-04-01T15:02:35.950,1743512555950,11.8239078696352,46.3789796522662,22.098,1895.856,2.20000364672,3
2025-04-01T15:02:36.050,1743512556050,11.8239109138088,46.3789794710325,22.098,1895.856,2.30000381248,3
2025-04-01T15:02:36.140,1743512556140,11.8239139969135,46.378979394927,22.098,1895.856,2.30000381248,3
2025-04-01T15:02:36.240,1743512556240,11.8239168728492,46.378979276494,22.18944,1895.856,2.30000381248,3
2025-04-01T15:02:36.350,1743512556350,11.8239199597278,46.3789792434568,22.18944,1895.856,2.30000381248,3
2025-04-01T15:02:36.450,1743512556450,11.8239232059061,46.3789793034719,22.18944,1895.856,2.30000381248,3
2025-04-01T15:02:36.550,1743512556550,11.823926274511,46.3789793125052,22.18944,1895.856,2.30000381248,3
2025-04-01T15:02:36.640,1743512556640,11.8239295949762,46.3789792237479,22.28088,1895.856,2.30000381248,3
2025-04-01T15:02:36.750,1743512556750,11.82393264491,46.3789792056149,22.28088,1895.856,2.30000381248,3
2025-04-01T15:02:36.850,1743512556850,11.8239354578806,46.3789790262782,22.28088,1895.856,2.30000381248,3
2025-04-01T15:02:36.950,1743512556950,11.8239384315412,46.3789789927078,22.28088,1895.856,2.20000364672,3
2025-04-01T15:02:37.050,1743512557050,11.8239416679868,46.3789791915114,22.28088,1895.856,2.20000364672,3
2025-04-01T15:02:37.150,1743512557150,11.8239446708458,46.3789791980825,22.28088,1895.856,2.30000381248,3
2025-04-01T15:02:37.250,1743512557250,11.8239474089336,46.3789793165733,22.28088,1895.856,2.30000381248,3
2025-04-01T15:02:37.360,1743512557360,11.8239505550034,46.3789793263945,22.37232,1896.1608,2.40000397824,3
2025-04-01T15:02:37.460,1743512557460,11.8239537549015,46.378979134678,22.37232,1896.1608,2.60000430976,3
2025-04-01T15:02:37.560,1743512557560,11.823957292666,46.3789790982428,22.37232,1896.1608,2.70000447552,3
2025-04-01T15:02:37.660,1743512557660,11.8239613778493,46.3789791820948,22.49424,1896.1608,2.90000480704,3
2025-04-01T15:02:37.760,1743512557760,11.8239654179441,46.378979130552,22.49424,1896.1608,3.10161761184,3
2025-04-01T15:02:37.850,1743512557850,11.8239693080747,46.3789789770649,22.58568,1896.1608,3.20156726208,3
2025-04-01T15:02:37.950,1743512557950,11.8239736580292,46.3789788803641,22.58568,1896.1608,3.40147550336,3
2025-04-01T15:02:38.050,1743512558050,11.8239784378149,46.3789785758392,22.67712,1896.4656,3.50143364736,3
2025-04-01T15:02:38.170,1743512558170,11.8239831081564,46.3789784382712,22.67712,1896.4656,3.6013944736,3
2025-04-01T15:02:38.270,1743512558270,11.8239873838241,46.3789782312993,22.79904,1896.4656,3.7054072704,3
2025-04-01T15:02:38.370,1743512558370,11.8239923143684,46.3789780788442,22.79904,1896.4656,3.80132149056,3
2025-04-01T15:02:38.450,1743512558450,11.82399730033,46.3789777036436,22.89048,1896.4656,3.90513088416,3
2025-04-01T15:02:38.550,1743512558550,11.8240025379533,46.3789775352887,22.98192,1896.7704,4.00500319648,3
2025-04-01T15:02:38.680,1743512558680,11.8240083583513,46.3789774124664,22.98192,1896.7704,4.20476614976,3
2025-04-01T15:02:38.780,1743512558780,11.8240139119918,46.3789772608206,23.07336,1896.7704,4.2011969824,3
2025-04-01T15:02:38.880,1743512558880,11.8240191378961,46.3789770352318,23.19528,1896.7704,4.30116943168,3
2025-04-01T15:02:38.980,1743512558980,11.8240249008906,46.3789768903926,23.19528,1896.7704,4.40114322208,3
2025-04-01T15:02:39.090,1743512559090,11.8240311014627,46.3789764934492,23.28672,1897.0752,4.6010943792,3
2025-04-01T15:02:39.190,1743512559190,11.8240371681595,46.3789763285136,23.37816,1897.0752,4.70107129888,3
2025-04-01T15:02:39.290,1743512559290,11.8240430189476,46.3789760892538,23.37816,1897.0752,4.80417258112,3
2025-04-01T15:02:39.390,1743512559390,11.8240492918204,46.3789759052153,23.4696,1897.0752,4.80417258112,3
2025-04-01T15:02:39.490,1743512559490,11.8240556753289,46.3789757605495,23.59152,1897.38,4.90408780928,3
2025-04-01T15:02:39.590,1743512559590,11.8240621837745,46.3789755811871,23.68296,1897.38,5.00400661376,3
2025-04-01T15:02:39.650,1743512559650,11.8240694207878,46.3789752863914,23.68296,1897.38,5.10392810048,3
2025-04-01T15:02:39.750,1743512559750,11.8240762142647,46.378975107119,23.7744,1897.38,5.20385316352,3
2025-04-01T15:02:39.850,1743512559850,11.8240826124717,46.3789747559802,23.7744,1897.38,5.3037809088,3
2025-04-01T15:02:39.950,1743512559950,11.8240895545224,46.3789745481154,23.89632,1897.38,5.3037809088,3
2025-04-01T15:02:40.050,1743512560050,11.8240970815326,46.3789743250799,23.98776,1897.6848,5.40371133632,3
2025-04-01T15:02:40.150,1743512560150,11.8241042273757,46.3789741128013,24.0792,1897.6848,5.50364399904,3
2025-04-01T15:02:40.250,1743512560250,11.8241108841964,46.3789739168443,24.0792,1897.6848,5.50364399904,3
2025-04-01T15:02:40.350,1743512560350,11.8241180340119,46.378973716635,24.17064,1897.6848,5.50364399904,3
2025-04-01T15:02:40.450,1743512560450,11.8241253125384,46.3789734102432,24.17064,1897.6848,5.50091794912,3
2025-04-01T15:02:40.550,1743512560550,11.824132422827,46.3789732141577,24.29256,1897.9896,5.50091794912,3
2025-04-01T15:02:40.650,1743512560650,11.8241401105273,46.3789730655544,24.384,1897.9896,5.40093477088,3
2025-04-01T15:02:40.750,1743512560750,11.8241472043297,46.378972899999,24.384,1897.9896,5.40093477088,3
2025-04-01T15:02:40.850,1743512560850,11.8241535995573,46.3789727508551,24.47544,1897.9896,5.40093477088,3
2025-04-01T15:02:40.950,1743512560950,11.8241605465736,46.3789726004425,24.59736,1898.2944,5.30095203968,3
2025-04-01T15:02:41.050,1743512561050,11.824167657458,46.3789724105877,24.59736,1898.2944,5.30095203968,3
2025-04-01T15:02:41.150,1743512561150,11.8241745701116,46.3789722476529,24.6888,1898.2944,5.30095203968,3
2025-04-01T15:02:41.250,1743512561250,11.8241817292627,46.3789719507162,24.78024,1898.2944,5.30095203968,3
2025-04-01T15:02:41.350,1743512561350,11.8241886355603,46.3789717755396,24.78024,1898.2944,5.30095203968,3
2025-04-01T15:02:41.450,1743512561450,11.8241955990627,46.3789716586664,24.87168,1898.5992,5.30095203968,3
2025-04-01T15:02:41.540,1743512561540,11.8242024368335,46.3789714896263,24.9936,1898.5992,5.20096975552,3
2025-04-01T15:02:41.650,1743512561650,11.8242099749669,46.3789712268273,24.9936,1898.5992,5.20096975552,3
2025-04-01T15:02:41.750,1743512561750,11.8242167962516,46.3789710411508,25.08504,1898.5992,5.20096975552,3
2025-04-01T15:02:41.850,1743512561850,11.8242228955234,46.3789707926094,25.17648,1898.904,5.10098836544,3
2025-04-01T15:02:41.950,1743512561950,11.8242295720083,46.3789705979638,25.17648,1898.904,5.10098836544,3
2025-04-01T15:02:42.040,1743512562040,11.824236473936,46.3789703598624,25.2984,1898.904,5.10098836544,3
2025-04-01T15:02:42.140,1743512562140,11.8242431178459,46.3789701933156,25.38984,1898.904,5.10098836544,3
2025-04-01T15:02:42.250,1743512562250,11.824250239059,46.3789700357722,25.38984,1898.904,5.10098836544,3
2025-04-01T15:02:42.350,1743512562350,11.8242568883318,46.3789698969709,25.48128,1899.2088,5.00100786944,3
2025-04-01T15:02:42.450,1743512562450,11.8242629337754,46.3789697571986,25.57272,1899.2088,5.00100786944,3
2025-04-01T15:02:42.550,1743512562550,11.8242695355761,46.3789696297537,25.69464,1899.2088,5.10098836544,3
2025-04-01T15:02:42.650,1743512562650,11.824276903088,46.378969362166,25.69464,1899.2088,5.10098836544,3
2025-04-01T15:02:42.750,1743512562750,11.8242835692442,46.3789692377754,25.78608,1899.5136,5.10000845376,3
2025-04-01T15:02:42.860,1743512562860,11.8242896778515,46.3789692797614,25.87752,1899.5136,5.10000845376,3
2025-04-01T15:02:42.950,1743512562950,11.8242963002103,46.3789691746514,25.87752,1899.5136,5.10000845376,3
2025-04-01T15:02:43.060,1743512563060,11.8243035204395,46.3789689860888,25.99944,1899.5136,5.10000845376,3
2025-04-01T15:02:43.150,1743512563150,11.8243102060612,46.3789688766173,26.09088,1899.8184,5.000008288,3
2025-04-01T15:02:43.270,1743512563270,11.8243163087097,46.3789688259288,26.09088,1899.8184,5.10000845376,3
2025-04-01T15:02:43.370,1743512563370,11.8243229459655,46.3789687026998,26.18232,1899.8184,5.10098836544,3
2025-04-01T15:02:43.470,1743512563470,11.8243296225497,46.3789684371719,26.27376,1899.8184,5.10098836544,3
2025-04-01T15:02:43.570,1743512563570,11.8243362279258,46.3789682882186,26.39568,1900.1232,5.00100786944,3
2025-04-01T15:02:43.680,1743512563680,11.8243424942437,46.3789682050249,26.39568,1900.1232,5.00100786944,3
2025-04-01T15:02:43.780,1743512563780,11.8243490116275,46.3789680853554,26.48712,1900.1232,5.000008288,3
2025-04-01T15:02:43.880,1743512563880,11.8243561442617,46.3789680960267,26.57856,1900.1232,5.000008288,3
2025-04-01T15:02:43.980,1743512563980,11.8243626602551,46.3789680193485,26.57856,1900.1232,4.90000812224,3
2025-04-01T15:02:44.080,1743512564080,11.8243692866858,46.3789678875207,26.67,1900.428,4.90000812224,3
2025-04-01T15:02:44.150,1743512564150,11.824375814001,46.3789678043945,26.79192,1900.428,4.90000812224,3
2025-04-01T15:02:44.280,1743512564280,11.8243823083439,46.378967732963,26.79192,1900.428,5.000008288,3
2025-04-01T15:02:44.390,1743512564390,11.8243888642616,46.378967640978,26.88336,1900.428,5.000008288,3
2025-04-01T15:02:44.490,1743512564490,11.8243955131372,46.3789674810354,26.9748,1900.7328,5.000008288,3
2025-04-01T15:02:44.590,1743512564590,11.8244020706439,46.3789673748057,27.09672,1900.7328,5.000008288,3
2025-04-01T15:02:44.690,1743512564690,11.8244081229401,46.3789672495971,27.09672,1900.7328,5.000008288,3
2025-04-01T15:02:44.750,1743512564750,11.8244146223481,46.378967139933,27.18816,1900.7328,5.000008288,3
2025-04-01T15:02:44.850,1743512564850,11.8244215461249,46.3789670356324,27.18816,1900.7328,5.000008288,3
2025-04-01T15:02:44.950,1743512564950,11.8244280463274,46.3789669491843,27.2796,1901.0376,4.90000812224,3
2025-04-01T15:02:45.050,1743512565050,11.8244346974872,46.378966906541,27.37104,1901.0376,4.90000812224,3
2025-04-01T15:02:45.150,1743512565150,11.8244411723646,46.3789668479765,27.49296,1901.0376,4.90000812224,3
2025-04-01T15:02:45.250,1743512565250,11.8244471641786,46.3789668125862,27.49296,1901.0376,4.90000812224,3
2025-04-01T15:02:45.350,1743512565350,11.8244535537452,46.3789667735689,27.5844,1901.3424,4.90000812224,3
2025-04-01T15:02:45.450,1743512565450,11.8244605098984,46.3789666651723,27.67584,1901.3424,4.90000812224,3
2025-04-01T15:02:45.550,1743512565550,11.8244669062184,46.3789666219932,27.67584,1901.3424,4.90000812224,3
2025-04-01T15:02:45.650,1743512565650,11.8244728888955,46.3789666020472,27.79776,1901.3424,4.90000812224,3
2025-04-01T15:02:45.750,1743512565750,11.8244792332743,46.378966564359,27.8892,1901.6472,4.80000795648,3
2025-04-01T15:02:45.850,1743512565850,11.8244862647075,46.3789664957329,27.8892,1901.6472,4.80000795648,3
2025-04-01T15:02:45.950,1743512565950,11.824492668774,46.3789664638534,27.98064,1901.6472,4.80000795648,3
2025-04-01T15:02:46.050,1743512566050,11.8244990353991,46.378966421686,28.07208,1901.6472,4.80000795648,3
2025-04-01T15:02:46.150,1743512566150,11.8245054111611,46.378966397741,28.07208,1901.6472,4.80000795648,3
2025-04-01T15:02:46.250,1743512566250,11.8245119135485,46.3789664841516,28.194,1901.952,4.80000795648,3
2025-04-01T15:02:46.350,1743512566350,11.8245182488897,46.3789664557815,28.28544,1901.952,4.80000795648,3
2025-04-01T15:02:46.450,1743512566450,11.8245245445053,46.3789663229533,28.28544,1901.952,4.80000795648,3
2025-04-01T15:02:46.550,1743512566550,11.8245308495557,46.3789662765138,28.37688,1901.952,4.80000795648,3
2025-04-01T15:02:46.650,1743512566650,11.8245366515806,46.3789661387419,28.4988,1902.2568,4.80000795648,3
2025-04-01T15:02:46.750,1743512566750,11.8245429556379,46.3789660513415,28.4988,1902.2568,4.80000795648,3
2025-04-01T15:02:46.850,1743512566850,11.8245498104908,46.3789659509634,28.59024,1902.2568,4.80000795648,3
2025-04-01T15:02:46.950,1743512566950,11.8245561831741,46.3789658560118,28.68168,1902.2568,4.80000795648,3
2025-04-01T15:02:47.040,1743512567040,11.8245626448427,46.3789658056386,28.68168,1902.2568,4.80000795648,3
2025-04-01T15:02:47.150,1743512567150,11.8245690116665,46.3789657229803,28.77312,1902.5616,4.80000795648,3
2025-04-01T15:02:47.240,1743512567240,11.8245752615976,46.3789654799795,28.89504,1902.5616,4.80000795648,3
2025-04-01T15:02:47.340,1743512567340,11.8245815757849,46.3789653745853,28.89504,1902.5616,4.80000795648,3
2025-04-01T15:02:47.450,1743512567450,11.8245878152881,46.3789652687714,28.98648,1902.5616,4.80104911264,3
2025-04-01T15:02:47.540,1743512567540,11.8245940978935,46.3789651593942,29.07792,1902.8664,4.70000779072,3
2025-04-01T15:02:47.650,1743512567650,11.8246004249916,46.3789650491509,29.07792,1902.8664,4.70000779072,3
2025-04-01T15:02:47.750,1743512567750,11.8246067124635,46.3789649536492,29.19984,1902.8664,4.80000795648,3
2025-04-01T15:02:47.850,1743512567850,11.8246128387486,46.3789647219609,29.29128,1902.8664,4.70000779072,3
2025-04-01T15:02:47.950,1743512567950,11.8246191221486,46.3789646113552,29.38272,1903.1712,4.80000795648,3
2025-04-01T15:02:48.050,1743512568050,11.8246254853971,46.3789645570954,29.38272,1903.1712,4.80000795648,3
2025-04-01T15:02:48.150,1743512568150,11.8246318189506,46.3789644566107,29.47416,1903.1712,4.80000795648,3
2025-04-01T15:02:48.260,1743512568260,11.8246382227192,46.3789642271235,29.59608,1903.1712,4.80000795648,3
2025-04-01T15:02:48.360,1743512568360,11.8246446043408,46.3789641176623,29.68752,1903.476,4.80000795648,3
2025-04-01T15:02:48.460,1743512568460,11.8246509715618,46.3789638996016,29.68752,1903.476,4.80000795648,3
2025-04-01T15:02:48.560,1743512568560,11.8246573660941,46.378963781471,29.77896,1903.476,4.80000795648,3
2025-04-01T15:02:48.670,1743512568670,11.824663782277,46.3789637160561,29.8704,1903.476,4.80000795648,3
2025-04-01T15:02:48.770,1743512568770,11.8246701837613,46.3789636107935,29.99232,1903.7808,4.80000795648,3
2025-04-01T15:02:48.870,1743512568870,11.8246764825549,46.3789635539114,29.99232,1903.7808,4.80000795648,3
2025-04-01T15:02:48.970,1743512568970,11.8246828755976,46.3789634676913,30.08376,1903.7808,4.80000795648,3
2025-04-01T15:02:49.070,1743512569070,11.8246893052871,46.3789634098547,30.1752,1903.7808,4.80000795648,3
2025-04-01T15:02:49.170,1743512569170,11.8246956913778,46.3789633438702,30.1752,1903.7808,4.80000795648,3
2025-04-01T15:02:49.280,1743512569280,11.8247020653521,46.3789631289703,30.29712,1903.7808,4.80000795648,3
2025-04-01T15:02:49.380,1743512569380,11.8247084414121,46.3789630400621,30.38856,1904.0856,4.80000795648,3
2025-04-01T15:02:49.480,1743512569480,11.8247148179686,46.3789630726946,30.48,1904.0856,4.80000795648,3
2025-04-01T15:02:49.580,1743512569580,11.8247211785356,46.3789629708916,30.48,1904.0856,4.80000795648,3
2025-04-01T15:02:49.680,1743512569680,11.8247274413775,46.3789627498601,30.57144,1904.0856,4.80104911264,3
2025-04-01T15:02:49.790,1743512569790,11.8247337893316,46.3789626309577,30.69336,1904.3904,4.80104911264,3
2025-04-01T15:02:49.890,1743512569890,11.8247402600379,46.3789625001261,30.7848,1904.3904,4.80104911264,3
2025-04-01T15:02:49.990,1743512569990,11.8247466302383,46.3789623860856,30.7848,1904.3904,4.90102826752,3
2025-04-01T15:02:50.090,1743512570090,11.8247534778412,46.3789624642281,30.87624,1904.3904,4.90000812224,3
2025-04-01T15:02:50.190,1743512570190,11.8247598820071,46.3789623789664,30.99816,1904.6952,4.80000795648,3
2025-04-01T15:02:50.290,1743512570290,11.8247657781816,46.3789623216823,31.0896,1904.6952,4.80000795648,3
2025-04-01T15:02:50.350,1743512570350,11.8247721175947,46.3789622384688,31.0896,1904.6952,4.80000795648,3
2025-04-01T15:02:50.450,1743512570450,11.8247783728888,46.3789621273036,31.18104,1904.6952,4.80000795648,3
2025-04-01T15:02:50.550,1743512570550,11.8247847049526,46.378962005144,31.27248,1905,4.80104911264,3
2025-04-01T15:02:50.650,1743512570650,11.8247910617457,46.3789619396385,31.27248,1905,4.80104911264,3
2025-04-01T15:02:50.750,1743512570750,11.8247974041382,46.3789617690632,31.3944,1905,4.80104911264,3
2025-04-01T15:02:50.850,1743512570850,11.8248038700773,46.3789615141418,31.48584,1905,4.80104911264,3
2025-04-01T15:02:50.950,1743512570950,11.8248102617296,46.3789613209522,31.48584,1905,4.90102826752,3
2025-04-01T15:02:51.050,1743512571050,11.824816717936,46.3789610805025,31.57728,1905.3048,4.90102826752,3
2025-04-01T15:02:51.150,1743512571150,11.8248231710636,46.3789608755138,31.6992,1905.3048,4.90102826752,3
2025-04-01T15:02:51.250,1743512571250,11.8248297387004,46.3789606289133,31.79064,1905.3048,4.90102826752,3
2025-04-01T15:02:51.350,1743512571350,11.8248362069237,46.3789604364656,31.79064,1905.3048,4.90102826752,3
2025-04-01T15:02:51.450,1743512571450,11.824842608706,46.3789602707961,31.88208,1905.6096,4.90102826752,3
2025-04-01T15:02:51.550,1743512571550,11.8248490532926,46.378960109073,31.97352,1905.6096,4.90102826752,3
2025-04-01T15:02:51.650,1743512571650,11.8248555837859,46.3789599810361,31.97352,1905.6096,4.90102826752,3
2025-04-01T15:02:51.750,1743512571750,11.8248620099994,46.3789598496676,32.09544,1905.6096,4.90102826752,3
2025-04-01T15:02:51.850,1743512571850,11.8248678708182,46.3789596883594,32.18688,1905.9144,4.90102826752,3
2025-04-01T15:02:51.950,1743512571950,11.8248742251284,46.3789595770412,32.27832,1905.9144,4.80000795648,3
2025-04-01T15:02:52.050,1743512572050,11.8248811967746,46.3789593296113,32.27832,1905.9144,4.80000795648,3
2025-04-01T15:02:52.150,1743512572150,11.8248876081903,46.3789592074454,32.36976,1905.9144,4.90102826752,3
2025-04-01T15:02:52.230,1743512572230,11.8248940811808,46.3789590680996,32.49168,1906.2192,4.90102826752,3
2025-04-01T15:02:52.350,1743512572350,11.8249005017334,46.3789589261239,32.49168,1906.2192,4.80104911264,3
2025-04-01T15:02:52.450,1743512572450,11.8249066927713,46.3789585444469,32.58312,1906.2192,4.90102826752,3
2025-04-01T15:02:52.550,1743512572550,11.8249131047829,46.3789583547339,32.67456,1906.2192,4.90102826752,3
2025-04-01T15:02:52.650,1743512572650,11.824920019125,46.3789583162876,32.67456,1906.2192,4.90102826752,3
2025-04-01T15:02:52.750,1743512572750,11.8249265206185,46.3789581778916,32.79648,1906.524,4.90102826752,3
2025-04-01T15:02:52.850,1743512572850,11.8249325497746,46.3789579808637,32.88792,1906.524,5.000008288,3
2025-04-01T15:02:52.950,1743512572950,11.8249390444155,46.3789578930788,32.88792,1906.524,5.000008288,3
2025-04-01T15:02:53.050,1743512573050,11.8249462446826,46.3789577299407,32.97936,1906.524,5.000008288,3
2025-04-01T15:02:53.150,1743512573150,11.8249527944428,46.3789576909681,32.97936,1906.524,5.000008288,3
2025-04-01T15:02:53.240,1743512573240,11.8249593927675,46.3789576337357,33.0708,1906.8288,5.000008288,3
2025-04-01T15:02:53.350,1743512573350,11.8249659214731,46.378957609091,33.19272,1906.8288,4.90000812224,3
2025-04-01T15:02:53.450,1743512573450,11.8249724205832,46.3789576806838,33.19272,1906.8288,4.90000812224,3
2025-04-01T15:02:53.550,1743512573550,11.8249789263472,46.3789576792714,33.28416,1906.8288,4.90000812224,3
2025-04-01T15:02:53.650,1743512573650,11.8249854458166,46.3789574720124,33.28416,1906.8288,4.90000812224,3
2025-04-01T15:02:53.750,1743512573750,11.8249919573409,46.3789574764832,33.3756,1907.1336,4.90000812224,3
2025-04-01T15:02:53.860,1743512573860,11.8249980436026,46.378957449713,33.3756,1907.1336,4.90000812224,3
2025-04-01T15:02:53.950,1743512573950,11.8250045208635,46.3789574743388,33.49752,1907.1336,4.90000812224,3
2025-04-01T15:02:54.050,1743512574050,11.8250115317387,46.3789575661716,33.49752,1907.1336,4.90000812224,3
2025-04-01T15:02:54.160,1743512574160,11.8250180338282,46.3789575718077,33.58896,1907.1336,4.90000812224,3
2025-04-01T15:02:54.270,1743512574270,11.8250245810062,46.3789573751756,33.6804,1907.4384,4.90000812224,3
2025-04-01T15:02:54.370,1743512574370,11.8250310398941,46.3789573411762,33.6804,1907.4384,4.90000812224,3
2025-04-01T15:02:54.470,1743512574470,11.8250374429674,46.3789574044106,33.77184,1907.4384,4.90000812224,3
2025-04-01T15:02:54.570,1743512574570,11.8250438818932,46.3789573856069,33.77184,1907.4384,4.90000812224,3
2025-04-01T15:02:54.680,1743512574680,11.8250503739519,46.3789574182638,33.89376,1907.4384,4.90000812224,3
2025-04-01T15:02:54.780,1743512574780,11.8250568286686,46.3789574332068,33.9852,1907.7432,4.90000812224,3
2025-04-01T15:02:54.880,1743512574880,11.8250633939217,46.378957389635,33.9852,1907.7432,4.90000812224,3
2025-04-01T15:02:54.980,1743512574980,11.825069852313,46.3789574204762,34.07664,1907.7432,4.90000812224,3
2025-04-01T15:02:55.080,1743512575080,11.8250762630336,46.3789573521514,34.07664,1907.7432,4.90000812224,3
2025-04-01T15:02:55.180,1743512575180,11.8250827015621,46.3789573748136,34.19856,1907.7432,4.90000812224,3
2025-04-01T15:02:55.290,1743512575290,11.8250896027946,46.3789575246387,34.19856,1907.7432,4.90000812224,3
2025-04-01T15:02:55.390,1743512575390,11.8250960885966,46.3789575413862,34.29,1908.048,4.90000812224,3
2025-04-01T15:02:55.490,1743512575490,11.825101986956,46.3789574337006,34.38144,1908.048,4.90000812224,3
2025-04-01T15:02:55.590,1743512575590,11.8251084249879,46.3789574336727,34.38144,1908.048,4.90000812224,3
2025-04-01T15:02:55.650,1743512575650,11.8251149301561,46.3789575301312,34.47288,1908.048,4.90000812224,3
2025-04-01T15:02:55.750,1743512575750,11.8251214070198,46.3789575425359,34.47288,1908.048,4.90000812224,3
2025-04-01T15:02:55.850,1743512575850,11.8251279205801,46.3789575277342,34.5948,1908.3528,4.90000812224,3
2025-04-01T15:02:55.950,1743512575950,11.8251344254503,46.3789575333375,34.5948,1908.3528,4.90000812224,3
2025-04-01T15:02:56.050,1743512576050,11.8251410636993,46.3789575116886,34.68624,1908.3528,4.90000812224,3
2025-04-01T15:02:56.150,1743512576150,11.8251475545166,46.3789575216525,34.68624,1908.3528,4.90000812224,3
2025-04-01T15:02:56.250,1743512576250,11.8251540209027,46.3789576784726,34.77768,1908.3528,4.90000812224,3
2025-04-01T15:02:56.350,1743512576350,11.825160465241,46.3789577244701,34.77768,1908.3528,4.90000812224,3
2025-04-01T15:02:56.450,1743512576450,11.825166863299,46.3789577407513,34.8996,1908.6576,4.90000812224,3
2025-04-01T15:02:56.550,1743512576550,11.825173293932,46.3789577934948,34.99104,1908.6576,4.80104911264,3
2025-04-01T15:02:56.650,1743512576650,11.825179783359,46.3789577860447,34.99104,1908.6576,4.90102826752,3
2025-04-01T15:02:56.750,1743512576750,11.8251862246186,46.3789578437904,35.08248,1908.6576,4.90102826752,3
2025-04-01T15:02:56.850,1743512576850,11.8251921841555,46.3789579507079,35.08248,1908.6576,4.90102826752,3
2025-04-01T15:02:56.950,1743512576950,11.8251985879737,46.378958042183,35.17392,1908.9624,4.90102826752,3
2025-04-01T15:02:57.050,1743512577050,11.8252057810902,46.3789581561744,35.17392,1908.9624,4.90102826752,3
2025-04-01T15:02:57.150,1743512577150,11.8252122579539,46.3789582628398,35.29584,1908.9624,4.90102826752,3
2025-04-01T15:02:57.250,1743512577250,11.8252186704621,46.378958304256,35.29584,1908.9624,4.90102826752,3
2025-04-01T15:02:57.350,1743512577350,11.8252251254767,46.378958401709,35.29584,1908.9624,4.90102826752,3
2025-04-01T15:02:57.450,1743512577450,11.825231508141,46.3789585193803,35.38728,1908.9624,4.90102826752,3
2025-04-01T15:02:57.550,1743512577550,11.8252379335104,46.3789586211202,35.38728,1908.9624,4.80104911264,3
2025-04-01T15:02:57.650,1743512577650,11.825244318161,46.3789587284974,35.47872,1909.2672,4.90102826752,3
2025-04-01T15:02:57.750,1743512577750,11.8252507505321,46.3789588325198,35.47872,1909.2672,4.90102826752,3
2025-04-01T15:02:57.850,1743512577850,11.8252577186029,46.3789589440209,35.57016,1909.2672,4.90102826752,3
2025-04-01T15:02:57.950,1743512577950,11.8252642232746,46.3789590261109,35.57016,1909.2672,4.90102826752,3
2025-04-01T15:02:58.050,1743512578050,11.8252701743698,46.3789589179503,35.57016,1909.2672,4.90000812224,3
2025-04-01T15:02:58.150,1743512578150,11.8252766059463,46.3789589717456,35.69208,1909.2672,4.90000812224,3
2025-04-01T15:02:58.250,1743512578250,11.825283069204,46.3789589136703,35.69208,1909.2672,4.90000812224,3
2025-04-01T15:02:58.350,1743512578350,11.8252894907497,46.3789589708494,35.78352,1909.572,4.80104911264,3
2025-04-01T15:02:58.450,1743512578450,11.8252957240458,46.3789591901634,35.78352,1909.572,4.80104911264,3
2025-04-01T15:02:58.550,1743512578550,11.8253021373981,46.3789592640711,35.87496,1909.572,4.80104911264,3
2025-04-01T15:02:58.650,1743512578650,11.8253087821522,46.3789591680057,35.87496,1909.572,4.90102826752,3
2025-04-01T15:02:58.740,1743512578740,11.8253152436719,46.3789592202772,35.99688,1909.572,4.90102826752,3
2025-04-01T15:02:58.840,1743512578840,11.8253216521082,46.3789592407752,35.99688,1909.572,4.90000812224,3
2025-04-01T15:02:58.950,1743512578950,11.8253281196364,46.3789592740608,35.99688,1909.572,4.90000812224,3
2025-04-01T15:02:59.050,1743512579050,11.8253346133835,46.3789593039238,36.08832,1909.8768,4.90000812224,3
2025-04-01T15:02:59.150,1743512579150,11.8253410910914,46.3789593400469,36.08832,1909.8768,4.90000812224,3
2025-04-01T15:02:59.250,1743512579250,11.8253475156662,46.3789592486725,36.17976,1909.8768,4.90000812224,3
2025-04-01T15:02:59.360,1743512579360,11.8253539847338,46.3789592785685,36.17976,1909.8768,4.90000812224,3
2025-04-01T15:02:59.450,1743512579450,11.8253605470075,46.3789592413687,36.17976,1909.8768,4.90000812224,3
2025-04-01T15:02:59.560,1743512579560,11.825367013195,46.3789592950526,36.2712,1909.8768,4.90102826752,3
2025-04-01T15:02:59.650,1743512579650,11.8253733481389,46.3789594794582,36.2712,1909.8768,4.90102826752,3
2025-04-01T15:02:59.760,1743512579760,11.8253797824465,46.3789595680731,36.39312,1910.1816,4.90102826752,3
2025-04-01T15:02:59.850,1743512579850,11.8253862800669,46.3789594106909,36.39312,1910.1816,4.90102826752,3
2025-04-01T15:02:59.950,1743512579950,11.8253927199361,46.3789594841526,36.39312,1910.1816,4.90102826752,3
2025-04-01T15:03:00.070,1743512580070,11.8253991735603,46.378959688513,36.48456,1910.1816,4.90102826752,3
2025-04-01T15:03:00.170,1743512580170,11.8254056281777,46.3789597886486,36.48456,1910.1816,4.90102826752,3
2025-04-01T15:03:00.270,1743512580270,11.8254121576281,46.3789599397543,36.576,1910.1816,4.90102826752,3
2025-04-01T15:03:00.370,1743512580370,11.8254186247591,46.378960047713,36.576,1910.1816,4.90102826752,3
2025-04-01T15:03:00.470,1743512580470,11.8254251010765,46.3789601685494,36.69792,1910.1816,4.90102826752,3
2025-04-01T15:03:00.580,1743512580580,11.8254315761526,46.3789602585082,36.69792,1910.1816,4.90102826752,3
2025-04-01T15:03:00.650,1743512580650,11.825438164099,46.3789603091367,36.69792,1910.1816,4.90102826752,3
2025-04-01T15:03:00.780,1743512580780,11.825444639473,46.3789603788141,36.78936,1910.4864,4.90102826752,3
2025-04-01T15:03:00.880,1743512580880,11.825451005105,46.3789604455482,36.78936,1910.4864,4.90102826752,3
2025-04-01T15:03:00.980,1743512580980,11.8254574420444,46.3789605044877,36.8808,1910.4864,4.90000812224,3
2025-04-01T15:03:01.080,1743512581080,11.825463944978,46.3789606178386,36.8808,1910.4864,4.90000812224,3
2025-04-01T15:03:01.180,1743512581180,11.8254703839038,46.3789606837588,36.97224,1910.4864,4.90102826752,3
2025-04-01T15:03:01.290,1743512581290,11.8254767900559,46.3789608461803,36.97224,1910.4864,4.90102826752,3
2025-04-01T15:03:01.390,1743512581390,11.8254832304713,46.37896092631,37.09416,1910.7912,4.90000812224,3
2025-04-01T15:03:01.450,1743512581450,11.8254897051501,46.3789609449951,37.09416,1910.7912,4.90102826752,3
2025-04-01T15:03:01.590,1743512581590,11.8254961393584,46.3789610218514,37.1856,1910.7912,4.90102826752,3
2025-04-01T15:03:01.690,1743512581690,11.8255026069859,46.3789611744553,37.1856,1910.7912,4.90000812224,3
2025-04-01T15:03:01.750,1743512581750,11.8255090250061,46.3789612428264,37.1856,1910.7912,4.90000812224,3
2025-04-01T15:03:01.850,1743512581850,11.8255149437249,46.3789612048705,37.27704,1910.7912,4.90000812224,3
2025-04-01T15:03:01.950,1743512581950,11.8255213064768,46.3789612592904,37.27704,1910.7912,4.90000812224,3
2025-04-01T15:03:02.050,1743512582050,11.8255283223674,46.3789614167964,37.39896,1911.096,4.90000812224,3
2025-04-01T15:03:02.150,1743512582150,11.8255347349252,46.3789614889398,37.39896,1911.096,4.90000812224,3
2025-04-01T15:03:02.250,1743512582250,11.8255412113917,46.3789615180909,37.4904,1911.096,4.80000795648,3
2025-04-01T15:03:02.350,1743512582350,11.8255476064703,46.3789615901192,37.4904,1911.096,4.80104911264,3
2025-04-01T15:03:02.450,1743512582450,11.8255540768785,46.378961628226,37.4904,1911.096,4.80104911264,3
2025-04-01T15:03:02.550,1743512582550,11.825560463292,46.378961705396,37.58184,1911.096,4.80104911264,3
2025-04-01T15:03:02.650,1743512582650,11.825566640277,46.3789617315926,37.58184,1911.096,4.80000795648,3
2025-04-01T15:03:02.750,1743512582750,11.825573030514,46.3789617948612,37.67328,1911.4008,4.80000795648,3
2025-04-01T15:03:02.850,1743512582850,11.8255790426874,46.3789617728078,37.67328,1911.4008,4.90000812224,3
2025-04-01T15:03:02.950,1743512582950,11.8255854569336,46.3789618143599,37.67328,1911.4008,4.90000812224,3
2025-04-01T15:03:03.050,1743512583050,11.8255930670945,46.3789619686385,37.7952,1911.4008,4.90000812224,3
2025-04-01T15:03:03.150,1743512583150,11.8255996164575,46.378962013831,37.7952,1911.4008,5.000008288,3
2025-04-01T15:03:03.250,1743512583250,11.8256054466627,46.3789618824754,37.88664,1911.4008,4.90000812224,3
2025-04-01T15:03:03.350,1743512583350,11.8256119198766,46.3789619358033,37.88664,1911.4008,4.90000812224,3
2025-04-01T15:03:03.450,1743512583450,11.825618470034,46.3789620518102,37.88664,1911.4008,4.90000812224,3
2025-04-01T15:03:03.550,1743512583550,11.8256249550415,46.3789621314557,37.97808,1911.7056,4.90102826752,3
2025-04-01T15:03:03.650,1743512583650,11.8256313682945,46.3789622459253,37.97808,1911.7056,4.90102826752,3
2025-04-01T15:03:03.750,1743512583750,11.8256378894523,46.3789623524934,37.97808,1911.7056,5.00100786944,3
2025-04-01T15:03:03.850,1743512583850,11.8256439978858,46.378962413768,38.1,1911.7056,5.00100786944,3
2025-04-01T15:03:03.950,1743512583950,11.8256505108501,46.3789625158681,38.1,1911.7056,5.00100786944,3
2025-04-01T15:03:04.050,1743512584050,11.825657948155,46.3789626683131,38.1,1911.7056,5.00100786944,3
2025-04-01T15:03:04.150,1743512584150,11.8256645461818,46.378962770031,38.19144,1911.7056,5.00100786944,3
2025-04-01T15:03:04.250,1743512584250,11.8256710743908,46.3789627106668,38.19144,1911.7056,5.00100786944,3
2025-04-01T15:03:04.350,1743512584350,11.825677656006,46.3789628113281,38.19144,1911.7056,5.00100786944,3
2025-04-01T15:03:04.450,1743512584450,11.8256840961235,46.3789631224208,38.28288,1912.0104,5.00100786944,3
2025-04-01T15:03:04.550,1743512584550,11.8256906142522,46.378963283397,38.28288,1912.0104,4.90408780928,3
2025-04-01T15:03:04.640,1743512584640,11.825697308986,46.3789634372524,38.28288,1912.0104,4.90408780928,3
2025-04-01T15:03:04.750,1743512584750,11.825703764522,46.3789636105463,38.37432,1912.0104,4.90408780928,3
2025-04-01T15:03:04.850,1743512584850,11.8257101148348,46.3789638798993,38.37432,1912.0104,4.90408780928,3
2025-04-01T15:03:04.950,1743512584950,11.8257165540833,46.3789641527369,38.49624,1912.0104,4.9091831712,3
2025-04-01T15:03:05.050,1743512585050,11.8257231675534,46.3789642533816,38.49624,1912.0104,4.9091831712,3
2025-04-01T15:03:05.150,1743512585150,11.8257296734913,46.3789645621903,38.49624,1912.0104,4.9091831712,3
2025-04-01T15:03:05.250,1743512585250,11.8257361242354,46.3789649333682,38.58768,1912.3152,4.9091831712,3
2025-04-01T15:03:05.360,1743512585360,11.8257426312906,46.3789651962534,38.58768,1912.3152,4.9091831712,3
2025-04-01T15:03:05.460,1743512585460,11.8257490777394,46.3789654671222,38.58768,1912.3152,4.90408780928,3
2025-04-01T15:03:05.560,1743512585560,11.825755560475,46.3789656527265,38.67912,1912.3152,4.90408780928,3
2025-04-01T15:03:05.660,1743512585660,11.8257622140308,46.3789656151437,38.67912,1912.3152,4.90102826752,3
2025-04-01T15:03:05.770,1743512585770,11.8257686975982,46.3789657338074,38.77056,1912.3152,4.90102826752,3
2025-04-01T15:03:05.870,1743512585870,11.8257751535687,46.3789659215859,38.77056,1912.3152,4.90102826752,3
2025-04-01T15:03:05.950,1743512585950,11.8257816094523,46.3789660328049,38.77056,1912.3152,4.90102826752,3
2025-04-01T15:03:06.050,1743512586050,11.8257880411901,46.3789661185545,38.89248,1912.62,4.90102826752,3
2025-04-01T15:03:06.170,1743512586170,11.8257944460884,46.3789661900893,38.89248,1912.62,4.80104911264,3
2025-04-01T15:03:06.280,1743512586280,11.8258007959295,46.3789661695508,38.98392,1912.62,4.80000795648,3
2025-04-01T15:03:06.380,1743512586380,11.8258071880907,46.3789662074424,38.98392,1912.62,4.80000795648,3
2025-04-01T15:03:06.480,1743512586480,11.8258135153006,46.3789664036703,39.07536,1912.62,4.80000795648,3
2025-04-01T15:03:06.580,1743512586580,11.8258199352201,46.3789664478273,39.07536,1912.62,4.90000812224,3
2025-04-01T15:03:06.680,1743512586680,11.8258265301682,46.378966296394,39.19728,1912.9248,4.90000812224,3
2025-04-01T15:03:06.750,1743512586750,11.8258330048718,46.3789663190335,39.19728,1912.9248,4.90000812224,3
2025-04-01T15:03:06.890,1743512586890,11.8258389818259,46.3789663848981,39.28872,1912.9248,4.90000812224,3
2025-04-01T15:03:06.990,1743512586990,11.8258454119003,46.3789664236425,39.28872,1912.9248,4.90000812224,3
2025-04-01T15:03:07.050,1743512587050,11.8258524701545,46.3789663749115,39.38016,1912.9248,4.90000812224,3
2025-04-01T15:03:07.190,1743512587190,11.8258589191917,46.3789664241676,39.38016,1912.9248,4.90000812224,3
2025-04-01T15:03:07.250,1743512587250,11.8258653573291,46.3789664340814,39.38016,1912.9248,4.90000812224,3
2025-04-01T15:03:07.350,1743512587350,11.8258717630281,46.3789664900654,39.4716,1913.2296,4.80000795648,3
2025-04-01T15:03:07.450,1743512587450,11.8258780898655,46.3789664352842,39.4716,1913.2296,4.80000795648,3
2025-04-01T15:03:07.550,1743512587550,11.8258844864648,46.3789664873173,39.59352,1913.2296,4.90000812224,3
2025-04-01T15:03:07.650,1743512587650,11.825890963341,46.3789665764589,39.59352,1913.2296,4.90000812224,3
2025-04-01T15:03:07.750,1743512587750,11.8258973813239,46.3789666576699,39.59352,1913.2296,4.90102826752,3
2025-04-01T15:03:07.850,1743512587850,11.8259037958711,46.3789666127046,39.68496,1913.2296,4.90102826752,3
2025-04-01T15:03:07.950,1743512587950,11.8259102443962,46.3789667094471,39.68496,1913.2296,4.90102826752,3
2025-04-01T15:03:08.050,1743512588050,11.8259168296487,46.3789669800216,39.7764,1913.5344,4.90102826752,3
2025-04-01T15:03:08.150,1743512588150,11.8259233254938,46.3789671128471,39.7764,1913.5344,5.00100786944,3
2025-04-01T15:03:08.250,1743512588250,11.825930392646,46.3789671182758,39.89832,1913.5344,5.00100786944,3
2025-04-01T15:03:08.350,1743512588350,11.825936964592,46.3789672323121,39.89832,1913.5344,4.90102826752,3
2025-04-01T15:03:08.450,1743512588450,11.8259428300917,46.3789674533029,39.98976,1913.5344,4.90102826752,3
2025-04-01T15:03:08.550,1743512588550,11.8259492927519,46.3789675567824,39.98976,1913.5344,4.90102826752,3
2025-04-01T15:03:08.650,1743512588650,11.8259557811287,46.378967522696,39.98976,1913.5344,4.90102826752,3
2025-04-01T15:03:08.750,1743512588750,11.8259622201958,46.3789675960695,40.0812,1913.8392,4.90102826752,3
2025-04-01T15:03:08.850,1743512588850,11.8259683261241,46.3789676324211,40.0812,1913.8392,4.90000812224,3
2025-04-01T15:03:08.950,1743512588950,11.8259747553784,46.3789677066532,40.17264,1913.8392,4.90102826752,3
2025-04-01T15:03:09.050,1743512589050,11.8259817363787,46.3789677184228,40.17264,1913.8392,4.90102826752,3
2025-04-01T15:03:09.150,1743512589150,11.8259882315783,46.378967809742,40.29456,1913.8392,5.00100786944,3
2025-04-01T15:03:09.250,1743512589250,11.8259948096802,46.3789680455321,40.29456,1913.8392,4.90102826752,3
2025-04-01T15:03:09.350,1743512589350,11.8260013069871,46.378968156514,40.29456,1913.8392,4.90102826752,3
2025-04-01T15:03:09.450,1743512589450,11.8260077984065,46.3789681643772,40.386,1914.144,4.90102826752,3
2025-04-01T15:03:09.550,1743512589550,11.8260142692741,46.3789682663944,40.386,1914.144,4.90102826752,3
2025-04-01T15:03:09.650,1743512589650,11.8260207317186,46.3789683777628,40.47744,1914.144,4.90102826752,3
2025-04-01T15:03:09.750,1743512589750,11.8260271938963,46.3789684960748,40.47744,1914.144,4.90102826752,3
2025-04-01T15:03:09.850,1743512589850,11.826033719908,46.3789686056137,40.47744,1914.144,4.90102826752,3
2025-04-01T15:03:09.950,1743512589950,11.8260402145303,46.3789687389937,40.59936,1914.144,4.90102826752,3
2025-04-01T15:03:10.050,1743512590050,11.8260467867292,46.3789690289248,40.59936,1914.144,4.90102826752,3
2025-04-01T15:03:10.150,1743512590150,11.8260532889118,46.3789691984488,40.59936,1914.144,4.90408780928,3
2025-04-01T15:03:10.250,1743512590250,11.8260599680782,46.3789692872864,40.6908,1914.4488,4.90408780928,3
2025-04-01T15:03:10.350,1743512590350,11.8260664891739,46.3789694540238,40.6908,1914.4488,4.90408780928,3
2025-04-01T15:03:10.450,1743512590450,11.826072932817,46.3789696474628,40.6908,1914.4488,4.90102826752,3
2025-04-01T15:03:10.550,1743512590550,11.8260794591143,46.3789698080552,40.78224,1914.4488,5.00100786944,3
2025-04-01T15:03:10.650,1743512590650,11.8260859239858,46.3789699348342,40.78224,1914.4488,5.00100786944,3
2025-04-01T15:03:10.750,1743512590750,11.8260924510155,46.3789701002998,40.78224,1914.4488,4.90408780928,3
2025-04-01T15:03:10.860,1743512590860,11.8260997842641,46.3789702367309,40.87368,1914.4488,5.00400661376,3
2025-04-01T15:03:10.960,1743512590960,11.8261063924333,46.378970411993,40.87368,1914.4488,5.00400661376,3
2025-04-01T15:03:11.050,1743512591050,11.8261122100753,46.3789705818939,40.87368,1914.4488,5.00400661376,3
2025-04-01T15:03:11.170,1743512591170,11.8261187566451,46.3789707708859,40.9956,1914.7536,5.00400661376,3
2025-04-01T15:03:11.250,1743512591250,11.8261254765302,46.378970920929,40.9956,1914.7536,5.00400661376,3
2025-04-01T15:03:11.370,1743512591370,11.8261320451352,46.3789711194372,40.9956,1914.7536,5.00400661376,3
2025-04-01T15:03:11.470,1743512591470,11.8261385840454,46.3789712546746,40.9956,1914.7536,5.00400661376,3
2025-04-01T15:03:11.570,1743512591570,11.8261451717187,46.3789714595739,41.08704,1914.7536,5.00400661376,3
2025-04-01T15:03:11.670,1743512591670,11.8261518853346,46.3789717246511,41.08704,1914.7536,5.00400661376,3
2025-04-01T15:03:11.780,1743512591780,11.8261584970171,46.3789719467338,41.08704,1914.7536,5.00400661376,3
2025-04-01T15:03:11.880,1743512591880,11.8261651483631,46.378972184771,41.08704,1914.7536,5.00400661376,3
2025-04-01T15:03:11.980,1743512591980,11.826171756011,46.3789724253026,41.17848,1914.7536,5.00400661376,3
2025-04-01T15:03:12.080,1743512592080,11.8261784731898,46.3789724960146,41.17848,1914.7536,5.00400661376,3
2025-04-01T15:03:12.190,1743512592190,11.8261850667475,46.378972729154,41.17848,1914.7536,5.00400661376,3
2025-04-01T15:03:12.290,1743512592290,11.8261917180811,46.3789730774976,41.26992,1915.0584,5.00400661376,3
2025-04-01T15:03:12.390,1743512592390,11.8261982958975,46.3789733266643,41.26992,1915.0584,5.00900005056,3
2025-04-01T15:03:12.490,1743512592490,11.8262044654091,46.3789734373679,41.26992,1915.0584,5.00400661376,3
2025-04-01T15:03:12.590,1743512592590,11.8262109905891,46.3789736822127,41.26992,1915.0584,5.00400661376,3
2025-04-01T15:03:12.650,1743512592650,11.8262181406778,46.3789740050065,41.26992,1915.0584,5.00900005056,3
2025-04-01T15:03:12.750,1743512592750,11.8262247105739,46.3789742793611,41.39184,1915.0584,5.00900005056,3
2025-04-01T15:03:12.850,1743512592850,11.8262313159251,46.3789745704558,41.39184,1915.0584,5.00900005056,3
2025-04-01T15:03:12.950,1743512592950,11.8262378681433,46.3789748526362,41.39184,1915.0584,5.00900005056,3
2025-04-01T15:03:13.050,1743512593050,11.8262446107962,46.3789751072776,41.39184,1915.0584,4.9091831712,3
2025-04-01T15:03:13.150,1743512593150,11.8262511279317,46.3789753827123,41.48328,1915.0584,4.9091831712,3
2025-04-01T15:03:13.250,1743512593250,11.8262575131534,46.3789755659362,41.48328,1915.0584,4.9091831712,3
2025-04-01T15:03:13.350,1743512593350,11.8262639727612,46.3789758207232,41.48328,1915.0584,4.9091831712,3
2025-04-01T15:03:13.450,1743512593450,11.8262704199797,46.3789760077015,41.48328,1915.0584,4.9091831712,3
2025-04-01T15:03:13.550,1743512593550,11.8262768582847,46.3789762478048,41.57472,1915.3632,4.9091831712,3
2025-04-01T15:03:13.650,1743512593650,11.8262834764971,46.378976627855,41.57472,1915.3632,4.9091831712,3
2025-04-01T15:03:13.750,1743512593750,11.8262899318345,46.3789769044191,41.57472,1915.3632,4.9091831712,3
2025-04-01T15:03:13.850,1743512593850,11.8262963310595,46.3789771874773,41.57472,1915.3632,4.9091831712,3
2025-04-01T15:03:13.950,1743512593950,11.8263027677506,46.3789774780614,41.57472,1915.3632,4.9091831712,3
2025-04-01T15:03:14.050,1743512594050,11.8263093074801,46.3789776116213,41.57472,1915.3632,4.9091831712,3
2025-04-01T15:03:14.150,1743512594150,11.8263157335695,46.3789778717547,41.69664,1915.3632,4.9091831712,3
2025-04-01T15:03:14.250,1743512594250,11.8263221221927,46.3789782013625,41.69664,1915.3632,4.9091831712,3
2025-04-01T15:03:14.350,1743512594350,11.8263285287669,46.3789784542226,41.69664,1915.3632,4.80937344448,3
2025-04-01T15:03:14.450,1743512594450,11.826334983856,46.3789787671534,41.69664,1915.3632,4.80417258112,3
2025-04-01T15:03:14.550,1743512594550,11.8263414022734,46.3789790168103,41.69664,1915.3632,4.90408780928,3
2025-04-01T15:03:14.650,1743512594650,11.8263479092292,46.3789792112739,41.69664,1915.3632,4.90408780928,3
2025-04-01T15:03:14.750,1743512594750,11.8263543488253,46.3789794440804,41.78808,1915.3632,4.90408780928,3
2025-04-01T15:03:14.840,1743512594840,11.8263608681954,46.3789795263223,41.78808,1915.3632,4.90408780928,3
2025-04-01T15:03:14.950,1743512594950,11.8263673083626,46.3789797416188,41.78808,1915.3632,4.90408780928,3
2025-04-01T15:03:15.050,1743512595050,11.8263737581632,46.3789800419278,41.78808,1915.3632,4.90408780928,3
2025-04-01T15:03:15.150,1743512595150,11.8263801951523,46.3789802741026,41.78808,1915.3632,4.90408780928,3
2025-04-01T15:03:15.250,1743512595250,11.8263867770903,46.3789804484377,41.78808,1915.3632,4.90408780928,3
2025-04-01T15:03:15.350,1743512595350,11.826393216314,46.3789807076311,41.78808,1915.3632,4.9091831712,3
2025-04-01T15:03:15.450,1743512595450,11.8263992918,46.3789809203819,41.78808,1915.3632,4.9091831712,3
2025-04-01T15:03:15.550,1743512595550,11.8264057067414,46.3789811902936,41.87952,1915.668,4.9091831712,3
2025-04-01T15:03:15.650,1743512595650,11.8264126888156,46.3789815555595,41.87952,1915.668,4.9091831712,3
2025-04-01T15:03:15.750,1743512595750,11.8264191780439,46.3789818406367,41.87952,1915.668,4.9091831712,3
2025-04-01T15:03:15.850,1743512595850,11.8264256671232,46.3789820628854,41.87952,1915.668,4.9091831712,3
2025-04-01T15:03:15.950,1743512595950,11.8264321160796,46.378982357407,41.87952,1915.668,4.9091831712,3
2025-04-01T15:03:16.050,1743512596050,11.8264389705353,46.3789826040107,41.87952,1915.668,4.9091831712,3
2025-04-01T15:03:16.150,1743512596150,11.8264454074251,46.3789829035511,41.87952,1915.668,4.80937344448,3
2025-04-01T15:03:16.260,1743512596260,11.8264512699322,46.378983249836,41.87952,1915.668,4.80937344448,3
2025-04-01T15:03:16.360,1743512596360,11.826457613864,46.3789835736308,41.97096,1915.668,4.80937344448,3
2025-04-01T15:03:16.460,1743512596460,11.8264640157456,46.3789839105612,41.97096,1915.668,4.80937344448,3
2025-04-01T15:03:16.560,1743512596560,11.8264703593299,46.3789842048516,41.97096,1915.668,4.80937344448,3
2025-04-01T15:03:16.660,1743512596660,11.8264767515781,46.3789842880527,41.97096,1915.668,4.80417258112,3
2025-04-01T15:03:16.770,1743512596770,11.8264830873662,46.3789845283745,42.09288,1915.668,4.80417258112,3
2025-04-01T15:03:16.870,1743512596870,11.8264894463938,46.3789848923813,42.09288,1915.668,4.80417258112,3
2025-04-01T15:03:16.970,1743512596970,11.8264957564099,46.378985143567,42.09288,1915.668,4.80417258112,3
2025-04-01T15:03:17.070,1743512597070,11.8265020677668,46.3789853195892,42.09288,1915.668,4.80417258112,3
2025-04-01T15:03:17.170,1743512597170,11.8265083804147,46.3789855546738,42.09288,1915.668,4.80417258112,3
2025-04-01T15:03:17.270,1743512597270,11.8265148162121,46.3789857966592,42.09288,1915.668,4.80417258112,3
2025-04-01T15:03:17.370,1743512597370,11.8265212332888,46.378986058771,42.09288,1915.668,4.9091831712,3
2025-04-01T15:03:17.480,1743512597480,11.8265273287369,46.3789863343781,42.09288,1915.668,4.9091831712,3
2025-04-01T15:03:17.580,1743512597580,11.8265337672654,46.3789865988793,42.09288,1915.668,4.9091831712,3
2025-04-01T15:03:17.680,1743512597680,11.8265408557546,46.3789867561219,42.09288,1915.668,4.9091831712,3
2025-04-01T15:03:17.780,1743512597780,11.8265473239283,46.3789870119388,42.18432,1915.9728,4.9091831712,3
2025-04-01T15:03:17.880,1743512597880,11.826553624013,46.3789873924557,42.18432,1915.9728,4.9091831712,3
2025-04-01T15:03:17.990,1743512597990,11.8265600444663,46.378987693983,42.18432,1915.9728,4.80937344448,3
2025-04-01T15:03:18.090,1743512598090,11.8265665156195,46.3789878455367,42.18432,1915.9728,4.80937344448,3
2025-04-01T15:03:18.190,1743512598190,11.8265729572267,46.3789881606472,42.18432,1915.9728,4.9091831712,3
2025-04-01T15:03:18.290,1743512598290,11.8265795255586,46.3789886232454,42.18432,1915.9728,4.9091831712,3
2025-04-01T15:03:18.390,1743512598390,11.826586019703,46.3789889476055,42.18432,1915.9728,4.9091831712,3
2025-04-01T15:03:18.450,1743512598450,11.8265925475644,46.378989247786,42.18432,1915.9728,4.9091831712,3
2025-04-01T15:03:18.550,1743512598550,11.8265990573011,46.3789895456285,42.18432,1915.9728,4.9091831712,3
2025-04-01T15:03:18.650,1743512598650,11.8266055020863,46.3789897413938,42.18432,1915.9728,4.9091831712,3
2025-04-01T15:03:18.750,1743512598750,11.8266119706076,46.3789900002618,42.27576,1915.9728,4.90408780928,3
2025-04-01T15:03:18.850,1743512598850,11.8266179216036,46.3789901907601,42.27576,1915.9728,4.90408780928,3
2025-04-01T15:03:18.950,1743512598950,11.8266243068004,46.378990426943,42.27576,1915.9728,4.90408780928,3
2025-04-01T15:03:19.050,1743512599050,11.8266313512438,46.378990752213,42.27576,1915.9728,4.90408780928,3
2025-04-01T15:03:19.150,1743512599150,11.8266378080957,46.3789910127554,42.27576,1915.9728,4.9091831712,3
2025-04-01T15:03:19.250,1743512599250,11.8266443688301,46.3789912986762,42.27576,1915.9728,4.9091831712,3
2025-04-01T15:03:19.350,1743512599350,11.8266508335775,46.3789916194863,42.39768,1915.9728,4.9091831712,3
2025-04-01T15:03:19.450,1743512599450,11.826657263267,46.378991819521,42.39768,1915.9728,4.9091831712,3
2025-04-01T15:03:19.550,1743512599550,11.8266637139615,46.3789921395967,42.39768,1915.9728,4.9091831712,3
2025-04-01T15:03:19.650,1743512599650,11.8266700957816,46.3789925459524,42.39768,1915.9728,4.9091831712,3
2025-04-01T15:03:19.750,1743512599750,11.8266765017351,46.3789928575472,42.39768,1915.9728,4.80937344448,3
2025-04-01T15:03:19.850,1743512599850,11.8266825503071,46.3789930631852,42.39768,1915.9728,4.80937344448,3
2025-04-01T15:03:19.950,1743512599950,11.8266889065539,46.3789933739235,42.48912,1916.2776,4.80937344448,3
2025-04-01T15:03:20.050,1743512600050,11.8266957677629,46.3789936729821,42.48912,1916.2776,4.80937344448,3
2025-04-01T15:03:20.150,1743512600150,11.8267021795262,46.3789940098997,42.48912,1916.2776,4.80937344448,3
2025-04-01T15:03:20.250,1743512600250,11.8267086796294,46.378994523165,42.48912,1916.2776,4.81664544416,3
2025-04-01T15:03:20.350,1743512600350,11.8267150804682,46.3789948843306,42.48912,1916.2776,4.81664544416,3
2025-04-01T15:03:20.450,1743512600450,11.8267214341825,46.3789953094938,42.48912,1916.2776,4.81664544416,3
2025-04-01T15:03:20.550,1743512600550,11.8267278302542,46.3789956913725,42.58056,1916.2776,4.81664544416,3
2025-04-01T15:03:20.650,1743512600650,11.8267343558811,46.3789960453654,42.58056,1916.2776,4.91630720064,3
2025-04-01T15:03:20.750,1743512600750,11.8267407650127,46.3789964316761,42.58056,1916.2776,4.91630720064,3
2025-04-01T15:03:20.850,1743512600850,11.8267471291549,46.378996777884,42.58056,1916.2776,4.91630720064,3
2025-04-01T15:03:20.950,1743512600950,11.8267535379389,46.3789971561998,42.58056,1916.2776,4.91630720064,3
2025-04-01T15:03:21.040,1743512601040,11.8267599353514,46.3789974437842,42.58056,1916.2776,4.91630720064,3
2025-04-01T15:03:21.150,1743512601150,11.8267663569468,46.3789978170428,42.58056,1916.2776,4.91630720064,3
2025-04-01T15:03:21.250,1743512601250,11.8267734235869,46.3789981614735,42.672,1916.2776,4.91630720064,3
2025-04-01T15:03:21.350,1743512601350,11.8267799062604,46.3789985679064,42.672,1916.2776,4.91630720064,3
2025-04-01T15:03:21.450,1743512601450,11.8267856608629,46.3789990779771,42.672,1916.2776,4.91630720064,3
2025-04-01T15:03:21.540,1743512601540,11.8267920747118,46.378999508977,42.672,1916.2776,4.91630720064,3
2025-04-01T15:03:21.650,1743512601650,11.8267985926419,46.3789999711855,42.672,1916.2776,4.91630720064,3
2025-04-01T15:03:21.750,1743512601750,11.826805051927,46.3790004120687,42.672,1916.2776,4.91630720064,3
2025-04-01T15:03:21.850,1743512601850,11.8268116349574,46.379000769633,42.672,1916.2776,4.91630720064,3
2025-04-01T15:03:21.950,1743512601950,11.826818139927,46.3790011938326,42.79392,1916.5824,4.91630720064,3
2025-04-01T15:03:22.050,1743512602050,11.8268246625744,46.3790016944141,42.79392,1916.5824,4.91630720064,3
2025-04-01T15:03:22.150,1743512602150,11.8268311784685,46.3790021274908,42.79392,1916.5824,4.91630720064,3
2025-04-01T15:03:22.260,1743512602260,11.8268377363725,46.379002448151,42.79392,1916.5824,4.91630720064,3
2025-04-01T15:03:22.360,1743512602360,11.826844250181,46.3790028566478,42.79392,1916.5824,4.91630720064,3
2025-04-01T15:03:22.460,1743512602460,11.8268508515845,46.3790033376253,42.79392,1916.5824,4.91630720064,3
2025-04-01T15:03:22.560,1743512602560,11.8268573623143,46.3790037199278,42.79392,1916.5824,4.91630720064,3
2025-04-01T15:03:22.660,1743512602660,11.826863964413,46.3790039945029,42.79392,1916.5824,4.91630720064,3
2025-04-01T15:03:22.770,1743512602770,11.8268704663038,46.3790043562937,42.88536,1916.5824,4.91630720064,3
2025-04-01T15:03:22.870,1743512602870,11.8268765400518,46.3790046963738,42.88536,1916.5824,4.91630720064,3
2025-04-01T15:03:22.970,1743512602970,11.826883009467,46.3790050517541,42.88536,1916.5824,4.91630720064,3
2025-04-01T15:03:23.070,1743512603070,11.8268902345626,46.3790052110436,42.88536,1916.5824,4.91630720064,3
2025-04-01T15:03:23.150,1743512603150,11.8268968018021,46.3790055316524,42.88536,1916.5824,4.9091831712,3
2025-04-01T15:03:23.270,1743512603270,11.8269034673624,46.3790058556528,42.88536,1916.5824,5.00900005056,3
2025-04-01T15:03:23.370,1743512603370,11.8269100465196,46.3790061586617,42.88536,1916.5824,5.00900005056,3
2025-04-01T15:03:23.480,1743512603480,11.8269165964784,46.3790065034907,42.88536,1916.5824,4.9091831712,3
2025-04-01T15:03:23.580,1743512603580,11.826923137201,46.3790067974471,42.9768,1916.5824,4.9091831712,3
2025-04-01T15:03:23.680,1743512603680,11.8269295940033,46.3790070186487,42.9768,1916.5824,4.9091831712,3
2025-04-01T15:03:23.780,1743512603780,11.8269361053289,46.3790072946327,42.9768,1916.5824,4.9091831712,3
2025-04-01T15:03:23.880,1743512603880,11.8269432482918,46.3790075988492,42.9768,1916.5824,4.9091831712,3
2025-04-01T15:03:23.980,1743512603980,11.8269498182128,46.3790078827338,42.9768,1916.5824,4.9091831712,3
2025-04-01T15:03:24.080,1743512604080,11.8269557811263,46.379008046434,42.9768,1916.5824,4.9091831712,3
2025-04-01T15:03:24.190,1743512604190,11.8269622817261,46.3790083245205,42.9768,1916.5824,4.9091831712,3
2025-04-01T15:03:24.290,1743512604290,11.826968860188,46.3790085511435,43.09872,1916.5824,4.9091831712,3
2025-04-01T15:03:24.390,1743512604390,11.8269753573118,46.3790088291015,43.09872,1916.5824,4.9091831712,3
2025-04-01T15:03:24.450,1743512604450,11.8269817897821,46.3790091983519,43.09872,1916.5824,4.9091831712,3
2025-04-01T15:03:24.590,1743512604590,11.8269882877997,46.379009484352,43.09872,1916.5824,4.9091831712,3
2025-04-01T15:03:24.650,1743512604650,11.8269948024028,46.379009663224,43.09872,1916.5824,4.9091831712,3
2025-04-01T15:03:24.750,1743512604750,11.8270012984341,46.3790099292861,43.19016,1916.8872,4.9091831712,3
2025-04-01T15:03:24.850,1743512604850,11.8270079691587,46.3790102499848,43.19016,1916.8872,4.90408780928,3
2025-04-01T15:03:24.950,1743512604950,11.827014470553,46.3790105166721,43.19016,1916.8872,4.90408780928,3
2025-04-01T15:03:25.050,1743512605050,11.8270209402661,46.3790108441924,43.19016,1916.8872,4.9091831712,3
2025-04-01T15:03:25.150,1743512605150,11.8270274284516,46.3790111277002,43.19016,1916.8872,4.9091831712,3
2025-04-01T15:03:25.250,1743512605250,11.8270338926031,46.3790113496598,43.19016,1916.8872,4.9091831712,3
2025-04-01T15:03:25.350,1743512605350,11.8270403729428,46.3790116501252,43.19016,1916.8872,4.9091831712,3
2025-04-01T15:03:25.450,1743512605450,11.8270468568578,46.3790119094556,43.19016,1916.8872,4.9091831712,3
2025-04-01T15:03:25.550,1743512605550,11.8270533311393,46.3790122257223,43.19016,1916.8872,4.9091831712,3
2025-04-01T15:03:25.650,1743512605650,11.8270599629329,46.3790124751052,43.19016,1916.8872,4.9091831712,3
2025-04-01T15:03:25.750,1743512605750,11.8270664385055,46.3790127967503,43.2816,1916.8872,4.9091831712,3
2025-04-01T15:03:25.850,1743512605850,11.8270729159651,46.3790131427183,43.19016,1916.8872,4.9091831712,3
2025-04-01T15:03:25.950,1743512605950,11.827079381209,46.3790134819419,43.19016,1916.8872,4.91630720064,3
2025-04-01T15:03:26.050,1743512606050,11.8270858824047,46.3790137882353,43.19016,1916.8872,4.91630720064,3
2025-04-01T15:03:26.150,1743512606150,11.827092345861,46.3790141479493,43.19016,1916.8872,4.91630720064,3
2025-04-01T15:03:26.250,1743512606250,11.8270988549024,46.3790146107188,43.19016,1916.8872,4.91630720064,3
2025-04-01T15:03:26.350,1743512606350,11.827105309917,46.379014999783,43.19016,1916.8872,4.91630720064,3
2025-04-01T15:03:26.450,1743512606450,11.8271118344515,46.3790153945468,43.19016,1916.8872,4.91630720064,3
2025-04-01T15:03:26.550,1743512606550,11.8271182847983,46.3790157774103,43.19016,1916.8872,4.91630720064,3
2025-04-01T15:03:26.650,1743512606650,11.8271246523173,46.3790162415073,43.19016,1916.8872,4.81664544416,3
2025-04-01T15:03:26.730,1743512606730,11.8271310888595,46.3790166375386,43.19016,1916.8872,4.81664544416,3
2025-04-01T15:03:26.850,1743512606850,11.8271370020167,46.3790170363234,43.09872,1916.5824,4.91630720064,3
2025-04-01T15:03:26.950,1743512606950,11.8271433860218,46.3790174411504,43.09872,1916.5824,4.91630720064,3
2025-04-01T15:03:27.040,1743512607040,11.8271500626061,46.3790179000103,43.09872,1916.5824,4.91630720064,3
2025-04-01T15:03:27.150,1743512607150,11.8271565014325,46.3790183221888,43.09872,1916.5824,4.91630720064,3
2025-04-01T15:03:27.250,1743512607250,11.8271630690692,46.3790187430398,42.9768,1916.5824,4.92545229792,3
2025-04-01T15:03:27.350,1743512607350,11.8271695415631,46.3790191848736,42.9768,1916.5824,4.92545229792,3
2025-04-01T15:03:27.450,1743512607450,11.8271760562654,46.3790197498637,42.9768,1916.5824,4.92545229792,3
2025-04-01T15:03:27.540,1743512607540,11.8271825262765,46.3790202062784,42.88536,1916.5824,4.92545229792,3
2025-04-01T15:03:27.650,1743512607650,11.827189094807,46.3790205502338,42.88536,1916.5824,4.92545229792,3
2025-04-01T15:03:27.750,1743512607750,11.8271955563764,46.3790209935364,42.88536,1916.5824,4.92545229792,3
2025-04-01T15:03:27.850,1743512607850,11.8272020405893,46.3790214648361,42.79392,1916.5824,4.92545229792,3
2025-04-01T15:03:27.950,1743512607950,11.8272084838849,46.3790219186687,42.79392,1916.5824,4.92545229792,3
2025-04-01T15:03:28.050,1743512608050,11.8272149671047,46.3790223997018,42.672,1916.2776,4.92545229792,3
2025-04-01T15:03:28.150,1743512608150,11.8272213850751,46.3790228731597,42.672,1916.2776,4.92545229792,3
2025-04-01T15:03:28.250,1743512608250,11.8272277257793,46.3790232157277,42.58056,1916.2776,4.92545229792,3
2025-04-01T15:03:28.350,1743512608350,11.8272341135583,46.3790236989748,42.58056,1916.2776,4.92545229792,3
2025-04-01T15:03:28.460,1743512608460,11.8272405439431,46.3790242055084,42.48912,1916.2776,4.92545229792,3
2025-04-01T15:03:28.560,1743512608560,11.8272469411569,46.3790247136008,42.48912,1916.2776,4.92545229792,3
2025-04-01T15:03:28.650,1743512608650,11.8272534736365,46.3790253254254,42.39768,1915.9728,4.92545229792,3
2025-04-01T15:03:28.760,1743512608760,11.82725988972,46.3790258437095,42.39768,1915.9728,4.92545229792,3
2025-04-01T15:03:28.860,1743512608860,11.8272662778963,46.3790263563881,42.27576,1915.9728,4.92545229792,3
2025-04-01T15:03:28.960,1743512608960,11.8272726829559,46.3790268794211,42.27576,1915.9728,4.92545229792,3
2025-04-01T15:03:29.060,1743512609060,11.8272795488327,46.3790272372081,42.18432,1915.9728,4.92545229792,3
2025-04-01T15:03:29.150,1743512609150,11.8272859845804,46.3790277481995,42.18432,1915.9728,4.82597919232,3
2025-04-01T15:03:29.270,1743512609270,11.8272919017102,46.3790282169941,42.09288,1915.668,4.82597919232,3
2025-04-01T15:03:29.370,1743512609370,11.8272982636676,46.3790287408108,41.97096,1915.668,4.82597919232,3
2025-04-01T15:03:29.470,1743512609470,11.8273044550034,46.3790294148601,41.97096,1915.668,4.83736261888,3
2025-04-01T15:03:29.570,1743512609570,11.8273107786256,46.3790299859095,41.87952,1915.668,4.83736261888,3
2025-04-01T15:03:29.670,1743512609670,11.8273176616836,46.3790305437312,41.87952,1915.668,4.83736261888,3
2025-04-01T15:03:29.770,1743512609770,11.8273240067576,46.3790311274217,41.78808,1915.3632,4.83736261888,3
2025-04-01T15:03:29.880,1743512609880,11.8273297149307,46.3790315416396,41.78808,1915.3632,4.73815058464,3
2025-04-01T15:03:29.980,1743512609980,11.8273359750912,46.3790321136996,41.69664,1915.3632,4.73815058464,3
2025-04-01T15:03:30.080,1743512610080,11.8273426562439,46.3790327090805,41.69664,1915.3632,4.73815058464,3
2025-04-01T15:03:30.190,1743512610190,11.827348951065,46.3790332998451,41.57472,1915.3632,4.73815058464,3
2025-04-01T15:03:30.290,1743512610290,11.8273553345735,46.379033849415,41.48328,1915.0584,4.83736261888,3
2025-04-01T15:03:30.390,1743512610390,11.8273616535279,46.3790344504741,41.48328,1915.0584,4.83736261888,3
2025-04-01T15:03:30.450,1743512610450,11.8273674529706,46.3790351029111,41.39184,1915.0584,4.83736261888,3
2025-04-01T15:03:30.550,1743512610550,11.8273737437199,46.3790357086636,41.26992,1915.0584,4.83736261888,3
2025-04-01T15:03:30.650,1743512610650,11.8273806373052,46.3790363766964,41.17848,1914.7536,4.83736261888,3
2025-04-01T15:03:30.750,1743512610750,11.8273870186289,46.3790369847612,41.08704,1914.7536,4.83736261888,3
2025-04-01T15:03:30.850,1743512610850,11.8273928603793,46.3790375078927,40.9956,1914.7536,4.83736261888,3
2025-04-01T15:03:30.950,1743512610950,11.8273992109156,46.3790381123433,40.9956,1914.7536,4.83736261888,3
2025-04-01T15:03:31.050,1743512611050,11.8274061505827,46.379038613961,40.87368,1914.4488,4.83736261888,3
2025-04-01T15:03:31.150,1743512611150,11.8274125596149,46.3790392267362,40.78224,1914.4488,4.85078097152,3
2025-04-01T15:03:31.250,1743512611250,11.8274189561336,46.3790398996679,40.6908,1914.4488,4.85078097152,3
2025-04-01T15:03:31.350,1743512611350,11.8274253619877,46.3790405313191,40.59936,1914.144,4.85078097152,3
2025-04-01T15:03:31.450,1743512611450,11.8274313652228,46.3790411297746,40.47744,1914.144,4.85078097152,3
2025-04-01T15:03:31.550,1743512611550,11.8274377265843,46.3790417564328,40.386,1914.144,4.85078097152,3
2025-04-01T15:03:31.650,1743512611650,11.8274446487721,46.3790423779865,40.29456,1913.8392,4.85078097152,3
2025-04-01T15:03:31.750,1743512611750,11.8274510567119,46.3790430292246,40.17264,1913.8392,4.85078097152,3
2025-04-01T15:03:31.850,1743512611850,11.8274569064075,46.3790435675151,40.0812,1913.8392,4.85078097152,3
2025-04-01T15:03:31.950,1743512611950,11.8274632283413,46.3790442258787,39.98976,1913.5344,4.85078097152,3
2025-04-01T15:03:32.050,1743512612050,11.8274700685951,46.3790450333659,39.89832,1913.5344,4.85078097152,3
2025-04-01T15:03:32.150,1743512612150,11.8274763706661,46.3790457121299,39.7764,1913.5344,4.85078097152,3
2025-04-01T15:03:32.250,1743512612250,11.8274825379679,46.3790463527651,39.68496,1913.2296,4.75184923136,3
2025-04-01T15:03:32.350,1743512612350,11.8274887722075,46.3790470333791,39.59352,1913.2296,4.75184923136,3
2025-04-01T15:03:32.450,1743512612450,11.827494567181,46.3790475850301,39.4716,1913.2296,4.75184923136,3
2025-04-01T15:03:32.550,1743512612550,11.8275007313049,46.3790482478129,39.38016,1912.9248,4.75184923136,3
2025-04-01T15:03:32.650,1743512612650,11.8275070970362,46.3790488578133,39.28872,1912.9248,4.75184923136,3
2025-04-01T15:03:32.750,1743512612750,11.8275133328648,46.3790495098136,39.19728,1912.9248,4.85078097152,3
2025-04-01T15:03:32.850,1743512612850,11.8275197799343,46.3790502631736,39.07536,1912.62,4.85078097152,3
2025-04-01T15:03:32.950,1743512612950,11.8275260742588,46.3790509256995,38.98392,1912.62,4.85078097152,3
2025-04-01T15:03:33.050,1743512613050,11.827532919081,46.3790516122058,38.77056,1912.3152,4.85078097152,3
2025-04-01T15:03:33.150,1743512613150,11.8275392222444,46.3790522936077,38.67912,1912.3152,4.85078097152,3
2025-04-01T15:03:33.250,1743512613250,11.827545078892,46.3790529244453,38.58768,1912.3152,4.85078097152,3
2025-04-01T15:03:33.350,1743512613350,11.8275513272342,46.3790536193532,38.49624,1912.0104,4.86621770976,3
2025-04-01T15:03:33.450,1743512613450,11.8275575525354,46.3790543048232,38.37432,1912.0104,4.85078097152,3
2025-04-01T15:03:33.550,1743512613550,11.8275638196479,46.379055006831,38.28288,1912.0104,4.85078097152,3
2025-04-01T15:03:33.650,1743512613650,11.8275708356875,46.3790556705902,38.19144,1911.7056,4.85078097152,3
2025-04-01T15:03:33.750,1743512613750,11.8275771978435,46.3790563358824,38.1,1911.7056,4.85078097152,3
2025-04-01T15:03:33.850,1743512613850,11.8275831957156,46.3790569504476,37.97808,1911.7056,4.85078097152,3
2025-04-01T15:03:33.950,1743512613950,11.8275895242042,46.37905760154,37.88664,1911.4008,4.85078097152,3
2025-04-01T15:03:34.060,1743512614060,11.8275963369479,46.3790583374458,37.67328,1911.4008,4.85078097152,3
2025-04-01T15:03:34.150,1743512614150,11.8276026923506,46.3790590116622,37.58184,1911.096,4.85078097152,3
2025-04-01T15:03:34.260,1743512614260,11.8276090098153,46.3790596413093,37.4904,1911.096,4.85078097152,3
2025-04-01T15:03:34.370,1743512614370,11.8276153572728,46.3790603071839,37.39896,1911.096,4.85078097152,3
2025-04-01T15:03:34.450,1743512614450,11.8276212087561,46.3790608705767,37.27704,1910.7912,4.85078097152,3
2025-04-01T15:03:34.570,1743512614570,11.8276275073511,46.3790615254118,37.1856,1910.7912,4.85078097152,3
2025-04-01T15:03:34.670,1743512614670,11.8276342767939,46.3790621807864,37.09416,1910.7912,4.85078097152,3
2025-04-01T15:03:34.770,1743512614770,11.8276406179947,46.3790628324526,36.97224,1910.4864,4.85078097152,3
2025-04-01T15:03:34.870,1743512614870,11.8276463563593,46.3790635661231,36.78936,1910.4864,4.85078097152,3
2025-04-01T15:03:34.970,1743512614970,11.8276526566426,46.3790642338305,36.69792,1910.1816,4.85078097152,3
2025-04-01T15:03:35.080,1743512615080,11.8276596288847,46.3790649273253,36.576,1910.1816,4.85078097152,3
2025-04-01T15:03:35.180,1743512615180,11.8276660173589,46.3790655958549,36.48456,1910.1816,4.85078097152,3
2025-04-01T15:03:35.280,1743512615280,11.8276718844345,46.379066184016,36.39312,1910.1816,4.85078097152,3
2025-04-01T15:03:35.380,1743512615380,11.8276781938547,46.3790668470301,36.2712,1909.8768,4.85078097152,3
2025-04-01T15:03:35.480,1743512615480,11.827684504864,46.3790674885303,36.17976,1909.8768,4.75184923136,3
2025-04-01T15:03:35.580,1743512615580,11.8276907527095,46.3790681554669,36.08832,1909.8768,4.75184923136,3
2025-04-01T15:03:35.690,1743512615690,11.8276974631598,46.3790688793397,35.87496,1909.572,4.75184923136,3
2025-04-01T15:03:35.790,1743512615790,11.8277037193478,46.3790695559455,35.78352,1909.572,4.75184923136,3
2025-04-01T15:03:35.890,1743512615890,11.8277093605832,46.3790701456996,35.69208,1909.2672,4.75184923136,3
2025-04-01T15:03:35.990,1743512615990,11.827715545861,46.3790708009629,35.57016,1909.2672,4.75184923136,3
2025-04-01T15:03:36.050,1743512616050,11.827721933342,46.3790713989131,35.47872,1909.2672,4.75184923136,3
2025-04-01T15:03:36.150,1743512616150,11.8277281247772,46.3790720474704,35.38728,1908.9624,4.75184923136,3
2025-04-01T15:03:36.250,1743512616250,11.8277344566425,46.3790728162722,35.29584,1908.9624,4.75184923136,3
2025-04-01T15:03:36.350,1743512616350,11.8277407181934,46.3790734774963,35.17392,1908.9624,4.75184923136,3
2025-04-01T15:03:36.450,1743512616450,11.8277473128435,46.3790740899803,35.08248,1908.6576,4.85078097152,3
2025-04-01T15:03:36.550,1743512616550,11.8277535992229,46.3790747478301,34.99104,1908.6576,4.75184923136,3
2025-04-01T15:03:36.650,1743512616650,11.8277598798421,46.3790752326786,34.8996,1908.6576,4.75184923136,3
2025-04-01T15:03:36.750,1743512616750,11.8277661441738,46.3790758540954,34.77768,1908.3528,4.75184923136,3
2025-04-01T15:03:36.850,1743512616850,11.8277724498201,46.379076486543,34.68624,1908.3528,4.75184923136,3
2025-04-01T15:03:36.950,1743512616950,11.8277787431515,46.3790771110601,34.5948,1908.3528,4.85078097152,3
2025-04-01T15:03:37.050,1743512617050,11.8277845140911,46.379077709704,34.47288,1908.048,4.85078097152,3
2025-04-01T15:03:37.150,1743512617150,11.8277907704776,46.3790783347264,34.38144,1908.048,4.85078097152,3
2025-04-01T15:03:37.250,1743512617250,11.8277983487339,46.3790789973807,34.29,1908.048,4.85078097152,3
2025-04-01T15:03:37.350,1743512617350,11.8278047622353,46.3790796405083,34.19856,1907.7432,4.85078097152,3
2025-04-01T15:03:37.450,1743512617450,11.8278106781734,46.3790801712792,33.9852,1907.7432,4.85078097152,3
2025-04-01T15:03:37.550,1743512617550,11.8278170402301,46.3790808283239,33.89376,1907.4384,4.85078097152,3
2025-04-01T15:03:37.650,1743512617650,11.8278233858006,46.3790815816669,33.77184,1907.4384,4.85078097152,3
2025-04-01T15:03:37.750,1743512617750,11.8278296987962,46.3790822515496,33.6804,1907.4384,4.85078097152,3
2025-04-01T15:03:37.850,1743512617850,11.8278360699897,46.3790827677696,33.58896,1907.1336,4.75184923136,3
2025-04-01T15:03:37.950,1743512617950,11.8278423271708,46.379083408679,33.49752,1907.1336,4.75184923136,3
2025-04-01T15:03:38.050,1743512618050,11.8278481149937,46.3790840996387,33.3756,1907.1336,4.75184923136,3
2025-04-01T15:03:38.150,1743512618150,11.8278542440597,46.3790847462776,33.28416,1906.8288,4.75184923136,3
2025-04-01T15:03:38.250,1743512618250,11.8278608303675,46.3790854086665,33.19272,1906.8288,4.75184923136,3
2025-04-01T15:03:38.350,1743512618350,11.8278669707553,46.3790860595705,33.0708,1906.8288,4.75184923136,3
2025-04-01T15:03:38.450,1743512618450,11.8278732702441,46.3790868682396,32.97936,1906.524,4.75184923136,3
2025-04-01T15:03:38.550,1743512618550,11.8278795027953,46.3790875655627,32.79648,1906.524,4.75184923136,3
2025-04-01T15:03:38.650,1743512618650,11.8278858876943,46.3790882342893,32.67456,1906.2192,4.86621770976,3
2025-04-01T15:03:38.750,1743512618750,11.8278922199568,46.3790889399541,32.58312,1906.2192,4.86621770976,3
2025-04-01T15:03:38.840,1743512618840,11.8278986765604,46.3790897602793,32.49168,1906.2192,4.86621770976,3
2025-04-01T15:03:38.950,1743512618950,11.8279050145831,46.3790904772235,32.36976,1905.9144,4.86621770976,3
2025-04-01T15:03:39.050,1743512619050,11.8279118344775,46.3790912327418,32.27832,1905.9144,4.85078097152,3
2025-04-01T15:03:39.150,1743512619150,11.8279181959383,46.3790919353406,32.18688,1905.9144,4.85078097152,3
2025-04-01T15:03:39.250,1743512619250,11.8279237557362,46.3790925393716,32.09544,1905.6096,4.75184923136,3
2025-04-01T15:03:39.350,1743512619350,11.8279300158967,46.379093224165,31.97352,1905.6096,4.75184923136,3
2025-04-01T15:03:39.450,1743512619450,11.8279367203882,46.3790939409721,31.88208,1905.6096,4.75184923136,3
2025-04-01T15:03:39.550,1743512619550,11.8279429910759,46.379094633345,31.6992,1905.3048,4.75184923136,3
2025-04-01T15:03:39.650,1743512619650,11.827949177744,46.3790953493728,31.57728,1905.3048,4.75184923136,3
2025-04-01T15:03:39.750,1743512619750,11.8279554005625,46.3790960493937,31.48584,1905,4.75184923136,3
2025-04-01T15:03:39.850,1743512619850,11.8279611718993,46.3790967231904,31.3944,1905,4.75184923136,3
2025-04-01T15:03:39.950,1743512619950,11.8279673281773,46.3790974171563,31.27248,1905,4.75184923136,3
2025-04-01T15:03:40.050,1743512620050,11.8279734256614,46.3790981298182,31.18104,1904.6952,4.75184923136,3
2025-04-01T15:03:40.150,1743512620150,11.8279795795559,46.3790988165986,31.0896,1904.6952,4.75184923136,3
2025-04-01T15:03:40.260,1743512620260,11.8279852166202,46.379099457328,30.99816,1904.6952,4.75184923136,3
2025-04-01T15:03:40.360,1743512620360,11.8279913560149,46.3791001422927,30.87624,1904.3904,4.75184923136,3
2025-04-01T15:03:40.450,1743512620450,11.8279982601275,46.3791007696446,30.7848,1904.3904,4.75184923136,3
2025-04-01T15:03:40.570,1743512620570,11.8280044942678,46.3791014603474,30.69336,1904.3904,4.85078097152,3
2025-04-01T15:03:40.650,1743512620650,11.8280107707157,46.3791022259974,30.57144,1904.0856,4.75184923136,3
2025-04-01T15:03:40.750,1743512620750,11.828016966918,46.3791029099686,30.48,1904.0856,4.75184923136,3
2025-04-01T15:03:40.870,1743512620870,11.8280232064212,46.3791036191021,30.38856,1904.0856,4.75184923136,3
2025-04-01T15:03:40.970,1743512620970,11.8280293758086,46.3791042919738,30.29712,1903.7808,4.75184923136,3
2025-04-01T15:03:41.050,1743512621050,11.8280354583956,46.3791048140262,30.1752,1903.7808,4.75184923136,3
2025-04-01T15:03:41.180,1743512621180,11.8280416494336,46.3791054516639,29.99232,1903.7808,4.75184923136,3
2025-04-01T15:03:41.280,1743512621280,11.8280479340253,46.3791061666725,29.8704,1903.476,4.73815058464,3
2025-04-01T15:03:41.380,1743512621380,11.8280541691587,46.3791068100141,29.77896,1903.476,4.75184923136,3
2025-04-01T15:03:41.480,1743512621480,11.8280603399366,46.3791072763293,29.68752,1903.476,4.75184923136,3
2025-04-01T15:03:41.550,1743512621550,11.8280665871862,46.3791079166392,29.59608,1903.1712,4.75184923136,3
2025-04-01T15:03:41.680,1743512621680,11.8280734489911,46.3791086725343,29.47416,1903.1712,4.75184923136,3
2025-04-01T15:03:41.780,1743512621780,11.828079741528,46.3791093215113,29.38272,1903.1712,4.75184923136,3
2025-04-01T15:03:41.890,1743512621890,11.8280854397697,46.379109945189,29.29128,1902.8664,4.75184923136,3
2025-04-01T15:03:41.990,1743512621990,11.828091668547,46.3791105907574,29.19984,1902.8664,4.75184923136,3
2025-04-01T15:03:42.090,1743512622090,11.8280985402833,46.3791112930907,29.07792,1902.8664,4.75184923136,3
2025-04-01T15:03:42.190,1743512622190,11.8281048449365,46.3791119543148,28.98648,1902.5616,4.75184923136,3
2025-04-01T15:03:42.290,1743512622290,11.8281108784623,46.3791124743289,28.77312,1902.5616,4.75184923136,3
2025-04-01T15:03:42.390,1743512622390,11.8281171843073,46.3791131392357,28.68168,1902.2568,4.75184923136,3
2025-04-01T15:03:42.450,1743512622450,11.8281229441237,46.3791138002543,28.59024,1902.2568,4.75184923136,3
2025-04-01T15:03:42.550,1743512622550,11.828129196935,46.3791144847393,28.4988,1902.2568,4.75184923136,3
2025-04-01T15:03:42.650,1743512622650,11.8281356048747,46.379115165319,28.37688,1901.952,4.85078097152,3
2025-04-01T15:03:42.750,1743512622750,11.8281418739735,46.3791158484509,28.28544,1901.952,4.85078097152,3
2025-04-01T15:03:42.850,1743512622850,11.8281482507287,46.3791164602926,28.194,1901.952,4.85078097152,3
2025-04-01T15:03:42.950,1743512622950,11.828154526978,46.3791171443495,28.07208,1901.6472,4.85078097152,3
2025-04-01T15:03:43.050,1743512623050,11.8281608890347,46.37911789192,27.98064,1901.6472,4.75184923136,3
2025-04-01T15:03:43.150,1743512623150,11.828167155154,46.3791185868194,27.8892,1901.6472,4.75184923136,3
2025-04-01T15:03:43.250,1743512623250,11.828173929364,46.379119238674,27.79776,1901.3424,4.75184923136,3
2025-04-01T15:03:43.350,1743512623350,11.8281802407705,46.3791199298565,27.67584,1901.3424,4.75184923136,3
2025-04-01T15:03:43.450,1743512623450,11.828186012306,46.3791206018375,27.5844,1901.3424,4.75184923136,3
2025-04-01T15:03:43.550,1743512623550,11.8281922623364,46.3791212824857,27.49296,1901.0376,4.75184923136,3
2025-04-01T15:03:43.650,1743512623650,11.8281989515335,46.3791220305016,27.37104,1901.0376,4.75184923136,3
2025-04-01T15:03:43.750,1743512623750,11.8282052339404,46.3791227037159,27.2796,1901.0376,4.75184923136,3
2025-04-01T15:03:43.850,1743512623850,11.8282110487768,46.3791231887015,27.18816,1900.7328,4.75184923136,3
2025-04-01T15:03:43.950,1743512623950,11.8282172920539,46.379123846654,27.09672,1900.7328,4.75184923136,3
2025-04-01T15:03:44.050,1743512624050,11.8282241753106,46.3791245041783,26.88336,1900.428,4.85078097152,3
2025-04-01T15:03:44.150,1743512624150,11.8282304994293,46.3791251385273,26.79192,1900.428,4.85078097152,3
2025-04-01T15:03:44.250,1743512624250,11.8282368501642,46.3791257211814,26.67,1900.428,4.83736261888,3
2025-04-01T15:03:44.350,1743512624350,11.828243186002,46.3791262753675,26.57856,1900.1232,4.83736261888,3
2025-04-01T15:03:44.450,1743512624450,11.8282490324203,46.3791267110392,26.48712,1900.1232,4.82597919232,3
2025-04-01T15:03:44.540,1743512624540,11.828255318601,46.3791271382492,26.39568,1900.1232,4.81664544416,3
2025-04-01T15:03:44.650,1743512624650,11.8282620475237,46.3791274914285,26.27376,1899.8184,4.80937344448,3
2025-04-01T15:03:44.750,1743512624750,11.8282683849506,46.3791277778738,26.18232,1899.8184,4.80937344448,3
2025-04-01T15:03:44.840,1743512624840,11.8282742768546,46.3791280189449,26.09088,1899.8184,4.80417258112,3
2025-04-01T15:03:44.950,1743512624950,11.8282805751517,46.3791281324919,25.99944,1899.5136,4.80104911264,3
2025-04-01T15:03:45.040,1743512625040,11.8282870712823,46.3791279589426,25.78608,1899.5136,4.80000795648,3
2025-04-01T15:03:45.150,1743512625150,11.8282933940107,46.3791278323091,25.69464,1899.2088,4.80104911264,3
2025-04-01T15:03:45.250,1743512625250,11.8282996269591,46.3791277053673,25.57272,1899.2088,4.80417258112,3
2025-04-01T15:03:45.350,1743512625350,11.8283059534614,46.3791273519824,25.48128,1899.2088,4.81664544416,3
2025-04-01T15:03:45.450,1743512625450,11.8283123941748,46.3791267657654,25.38984,1898.904,4.82597919232,3
2025-04-01T15:03:45.550,1743512625550,11.8283186964444,46.3791261428755,25.2984,1898.904,4.85078097152,3
2025-04-01T15:03:45.650,1743512625650,11.8283250316863,46.3791255143332,25.17648,1898.904,4.76760649728,3
2025-04-01T15:03:45.750,1743512625750,11.8283312590731,46.3791246255525,25.08504,1898.5992,4.80521329024,3
2025-04-01T15:03:45.860,1743512625860,11.8283375210212,46.3791236284663,24.87168,1898.5992,4.827014984,3
2025-04-01T15:03:45.950,1743512625950,11.8283436477036,46.3791224518186,24.78024,1898.2944,4.78017502688,3
2025-04-01T15:03:46.050,1743512626050,11.8283502449359,46.3791209766839,24.6888,1898.2944,4.83839617536,3
2025-04-01T15:03:46.150,1743512626150,11.8283562822356,46.3791194804637,24.59736,1898.2944,4.77598939136,3
2025-04-01T15:03:46.260,1743512626260,11.8283621246812,46.3791178197896,24.47544,1897.9896,4.75395344864,3
2025-04-01T15:03:46.360,1743512626360,11.828367971298,46.37911601054,24.384,1897.9896,4.83322615776,3
2025-04-01T15:03:46.470,1743512626470,11.8283732113048,46.3791142656948,24.29256,1897.9896,4.7854022656,3
2025-04-01T15:03:46.570,1743512626570,11.828378824335,46.379112184645,24.17064,1897.6848,4.78853556896,3
2025-04-01T15:03:46.670,1743512626670,11.8283844337899,46.3791098549018,24.17064,1897.6848,4.8877476032,3
2025-04-01T15:03:46.770,1743512626770,11.8283898783835,46.3791074542281,24.0792,1897.6848,4.85490223328,3
2025-04-01T15:03:46.870,1743512626870,11.8283952204851,46.3791048645378,23.98776,1897.6848,4.88263033632,3
2025-04-01T15:03:46.980,1743512626980,11.8284004449988,46.3791021797482,23.89632,1897.38,4.92037392352,3
2025-04-01T15:03:47.050,1743512627050,11.8284060163171,46.3790991612463,23.7744,1897.38,4.90408780928,3
2025-04-01T15:03:47.180,1743512627180,11.8284110205523,46.379096219747,23.68296,1897.38,4.8918380192,3
2025-04-01T15:03:47.290,1743512627290,11.8284157252564,46.3790931352391,23.59152,1897.38,4.95177535424,3
2025-04-01T15:03:47.390,1743512627390,11.8284204128784,46.3790899687955,23.59152,1897.38,4.94975562752,3
2025-04-01T15:03:47.490,1743512627490,11.8284248909479,46.3790867233195,23.4696,1897.0752,4.95177535424,3
2025-04-01T15:03:47.590,1743512627590,11.8284292687102,46.3790833396653,23.37816,1897.0752,4.8918380192,3
2025-04-01T15:03:47.650,1743512627650,11.8284336377328,46.379079822115,23.37816,1897.0752,4.90408780928,3
2025-04-01T15:03:47.750,1743512627750,11.8284377076216,46.3790762158716,23.28672,1897.0752,5.000008288,3
2025-04-01T15:03:47.850,1743512627850,11.8284410674151,46.379072790363,23.19528,1896.7704,5.02195974016,3
2025-04-01T15:03:47.950,1743512627950,11.8284447299178,46.3790689888168,23.19528,1896.7704,4.9930031712,3
2025-04-01T15:03:48.050,1743512628050,11.8284487527317,46.3790648543118,23.07336,1896.7704,5.02494596736,3
2025-04-01T15:03:48.150,1743512628150,11.8284520855118,46.3790608466887,22.98192,1896.7704,5.01199387744,3
2025-04-01T15:03:48.250,1743512628250,11.8284550776447,46.3790567187098,22.98192,1896.7704,5.05371969696,3
2025-04-01T15:03:48.350,1743512628350,11.828458023696,46.3790525689003,22.98192,1896.7704,4.96589153632,3
2025-04-01T15:03:48.450,1743512628450,11.8284605943402,46.3790486837654,22.89048,1896.4656,5.01598236832,3
2025-04-01T15:03:48.550,1743512628550,11.8284631729295,46.3790444622032,22.89048,1896.4656,5.06952479616,3
2025-04-01T15:03:48.650,1743512628650,11.828465997619,46.3790399204775,22.89048,1896.4656,5.03290015008,3
2025-04-01T15:03:48.750,1743512628750,11.8284682895881,46.3790356039188,22.79904,1896.4656,4.96488480224,3
2025-04-01T15:03:48.850,1743512628850,11.8284701487467,46.3790315895726,22.79904,1896.4656,5.02892462336,3
2025-04-01T15:03:48.950,1743512628950,11.8284721004659,46.3790272232118,22.79904,1896.4656,5.000008288,3
2025-04-01T15:03:49.050,1743512629050,11.8284739739256,46.3790227530247,22.79904,1896.4656,5.06952479616,3
2025-04-01T15:03:49.150,1743512629150,11.8284756052578,46.3790183012725,22.67712,1896.4656,5.02195974016,3
2025-04-01T15:03:49.250,1743512629250,11.8284773285547,46.379013506387,22.67712,1896.4656,5.00100786944,3
2025-04-01T15:03:49.350,1743512629350,11.8284786508216,46.3790089716885,22.67712,1896.4656,5.08036238688,3
2025-04-01T15:03:49.450,1743512629450,11.8284797406937,46.379004798451,22.67712,1896.4656,5.06360375136,3
2025-04-01T15:03:49.550,1743512629550,11.8284807407859,46.3790002611274,22.67712,1896.4656,5.04877051712,3
2025-04-01T15:03:49.650,1743512629650,11.8284816945977,46.3789954010711,22.67712,1896.4656,5.03587967168,3
2025-04-01T15:03:49.750,1743512629750,11.8284824408433,46.3789908008997,22.67712,1896.4656,5.02494596736,3
2025-04-01T15:03:49.850,1743512629850,11.8284829761459,46.3789860470464,22.67712,1896.4656,5.01598236832,3
2025-04-01T15:03:49.950,1743512629950,11.8284835046951,46.3789814317032,22.67712,1896.4656,5.00900005056,3
2025-04-01T15:03:50.050,1743512630050,11.8284839263824,46.37897687736,22.67712,1896.4656,5.00900005056,3
2025-04-01T15:03:50.150,1743512630150,11.8284843349603,46.3789722705512,22.67712,1896.4656,5.00400661376,3
2025-04-01T15:03:50.240,1743512630240,11.8284846936826,46.3789676869938,22.67712,1896.4656,5.00400661376,3
2025-04-01T15:03:50.340,1743512630340,11.8284850502199,46.378963069502,22.67712,1896.4656,5.00400661376,3
2025-04-01T15:03:50.450,1743512630450,11.8284852853955,46.3789588437618,22.67712,1896.4656,5.00400661376,3
2025-04-01T15:03:50.550,1743512630550,11.8284855908855,46.3789542565192,22.67712,1896.4656,5.00400661376,3
2025-04-01T15:03:50.650,1743512630650,11.8284858725401,46.378949308616,22.58568,1896.1608,5.00400661376,3
2025-04-01T15:03:50.750,1743512630750,11.8284861516125,46.3789446999509,22.58568,1896.1608,5.00100786944,3
2025-04-01T15:03:50.850,1743512630850,11.8284863949318,46.3789404484448,22.58568,1896.1608,5.00100786944,3
2025-04-01T15:03:50.960,1743512630960,11.8284866658605,46.3789358985391,22.58568,1896.1608,5.00100786944,3
2025-04-01T15:03:51.060,1743512631060,11.8284868132425,46.3789307978345,22.58568,1896.1608,5.00100786944,3
2025-04-01T15:03:51.150,1743512631150,11.8284870968834,46.3789262287027,22.58568,1896.1608,5.00100786944,3
2025-04-01T15:03:51.250,1743512631250,11.8284873701956,46.3789222332111,22.58568,1896.1608,5.00400661376,3
2025-04-01T15:03:51.360,1743512631360,11.8284877124318,46.3789177329629,22.58568,1896.1608,5.00400661376,3
2025-04-01T15:03:51.470,1743512631470,11.8284880395722,46.3789129329966,22.58568,1896.1608,5.00400661376,3
2025-04-01T15:03:51.570,1743512631570,11.8284883998835,46.3789084324273,22.58568,1896.1608,4.90408780928,3
2025-04-01T15:03:51.670,1743512631670,11.8284887768795,46.3789035468147,22.58568,1896.1608,4.90408780928,3
2025-04-01T15:03:51.750,1743512631750,11.8284891423552,46.3788990225048,22.58568,1896.1608,4.90408780928,3
2025-04-01T15:03:51.870,1743512631870,11.8284894510232,46.3788949638035,22.49424,1896.1608,4.90408780928,3
2025-04-01T15:03:51.950,1743512631950,11.8284898419232,46.3788904977444,22.49424,1896.1608,4.90408780928,3
2025-04-01T15:03:52.080,1743512632080,11.828490225474,46.3788854808137,22.49424,1896.1608,4.9091831712,3
2025-04-01T15:03:52.180,1743512632180,11.8284906572914,46.3788809664856,22.49424,1896.1608,4.9091831712,3
2025-04-01T15:03:52.280,1743512632280,11.8284909228571,46.3788765451928,22.49424,1896.1608,4.9091831712,3
2025-04-01T15:03:52.390,1743512632390,11.8284913800989,46.378872047728,22.49424,1896.1608,4.9091831712,3
2025-04-01T15:03:52.490,1743512632490,11.82849173465,46.3788675811294,22.37232,1896.1608,4.9091831712,3
2025-04-01T15:03:52.590,1743512632590,11.828492207782,46.3788630840672,22.37232,1896.1608,4.9091831712,3
2025-04-01T15:03:52.690,1743512632690,11.828492751427,46.378858933247,22.37232,1896.1608,4.9091831712,3
2025-04-01T15:03:52.790,1743512632790,11.8284932777914,46.37885446646,22.37232,1896.1608,4.91630720064,3
2025-04-01T15:03:52.850,1743512632850,11.8284936772324,46.3788499190904,22.37232,1896.1608,4.91630720064,3
2025-04-01T15:03:52.950,1743512632950,11.8284942155144,46.378845424666,22.28088,1895.856,4.91630720064,3
2025-04-01T15:03:53.050,1743512633050,11.8284946795096,46.3788408427903,22.28088,1895.856,5.01598236832,3
2025-04-01T15:03:53.150,1743512633150,11.8284952376544,46.3788363105797,22.28088,1895.856,5.01598236832,3
2025-04-01T15:03:53.250,1743512633250,11.8284957848747,46.3788313645196,22.28088,1895.856,5.01598236832,3
2025-04-01T15:03:53.350,1743512633350,11.8284963755945,46.3788267934865,22.28088,1895.856,5.01598236832,3
2025-04-01T15:03:53.450,1743512633450,11.8284968560758,46.3788222190019,22.28088,1895.856,5.01598236832,3
2025-04-01T15:03:53.550,1743512633550,11.8284974239534,46.3788176741845,22.28088,1895.856,5.01598236832,3
2025-04-01T15:03:53.650,1743512633650,11.8284979397905,46.378813208134,22.18944,1895.856,4.91630720064,3
2025-04-01T15:03:53.750,1743512633750,11.8284984760862,46.3788086883933,22.18944,1895.856,4.91630720064,3
2025-04-01T15:03:53.850,1743512633850,11.8284988824792,46.378804536691,22.18944,1895.856,4.91630720064,3
2025-04-01T15:03:53.950,1743512633950,11.8284994030834,46.3788000495378,22.18944,1895.856,4.91630720064,3
2025-04-01T15:03:54.050,1743512634050,11.8285000057209,46.3787952318496,22.18944,1895.856,4.91630720064,3
2025-04-01T15:03:54.150,1743512634150,11.8285005724068,46.378790709685,22.18944,1895.856,4.91630720064,3
2025-04-01T15:03:54.250,1743512634250,11.8285010918191,46.3787861023389,22.18944,1895.856,4.91630720064,3
2025-04-01T15:03:54.350,1743512634350,11.8285017051826,46.378781593432,22.18944,1895.856,4.91630720064,3
2025-04-01T15:03:54.450,1743512634450,11.8285022669027,46.3787771936016,22.18944,1895.856,4.92545229792,3
2025-04-01T15:03:54.550,1743512634550,11.828502904896,46.3787727153382,22.18944,1895.856,4.92545229792,3
2025-04-01T15:03:54.650,1743512634650,11.828503493431,46.3787681442538,22.18944,1895.856,4.92545229792,3
2025-04-01T15:03:54.750,1743512634750,11.8285041324174,46.3787636752571,22.18944,1895.856,4.92545229792,3
2025-04-01T15:03:54.850,1743512634850,11.8285046969184,46.3787595772709,22.098,1895.856,4.92545229792,3
2025-04-01T15:03:54.950,1743512634950,11.8285053430554,46.3787551620416,22.098,1895.856,4.82597919232,3
2025-04-01T15:03:55.050,1743512635050,11.8285061083693,46.3787502690894,22.098,1895.856,4.82597919232,3
2025-04-01T15:03:55.150,1743512635150,11.8285067539105,46.3787458322607,22.098,1895.856,4.82597919232,3
2025-04-01T15:03:55.250,1743512635250,11.8285073718424,46.37874144317,22.098,1895.856,4.82597919232,3
2025-04-01T15:03:55.350,1743512635350,11.8285080014933,46.3787370269644,22.098,1895.856,4.82597919232,3
2025-04-01T15:03:55.450,1743512635450,11.8285085796996,46.3787325701634,22.098,1895.856,4.82597919232,3
2025-04-01T15:03:55.540,1743512635540,11.8285092081588,46.3787281722172,22.098,1895.856,4.81664544416,3
2025-04-01T15:03:55.650,1743512635650,11.8285098834942,46.3787238830903,22.098,1895.856,4.81664544416,3
2025-04-01T15:03:55.750,1743512635750,11.8285105189053,46.3787195157704,22.098,1895.856,4.81664544416,3
2025-04-01T15:03:55.850,1743512635850,11.828511179145,46.3787155140481,22.098,1895.856,4.81664544416,3
2025-04-01T15:03:55.950,1743512635950,11.8285118113781,46.3787111789647,22.098,1895.856,4.81664544416,3
2025-04-01T15:03:56.050,1743512636050,11.8285125238569,46.3787063443018,22.098,1895.856,4.81664544416,3
2025-04-01T15:03:56.150,1743512636150,11.8285131572818,46.3787019485823,22.098,1895.856,4.82597919232,3
2025-04-01T15:03:56.250,1743512636250,11.8285137646864,46.3786978012992,21.97608,1895.5512,4.82597919232,3
2025-04-01T15:03:56.360,1743512636360,11.8285144058578,46.3786934183407,21.97608,1895.5512,4.82597919232,3
2025-04-01T15:03:56.460,1743512636460,11.8285149485096,46.3786889295602,21.97608,1895.5512,4.81664544416,3
2025-04-01T15:03:56.560,1743512636560,11.8285155636607,46.3786845408806,21.97608,1895.5512,4.81664544416,3
2025-04-01T15:03:56.670,1743512636670,11.8285162258867,46.3786802659879,21.97608,1895.5512,4.81664544416,3
2025-04-01T15:03:56.770,1743512636770,11.8285168038943,46.3786759109493,21.97608,1895.5512,4.81664544416,3
2025-04-01T15:03:56.850,1743512636850,11.8285173852786,46.378671348789,21.97608,1895.5512,4.81664544416,3
2025-04-01T15:03:56.950,1743512636950,11.8285179086635,46.3786669839527,21.97608,1895.5512,4.81664544416,3
2025-04-01T15:03:57.070,1743512637070,11.8285185045477,46.3786621569464,21.97608,1895.5512,4.81664544416,3
2025-04-01T15:03:57.170,1743512637170,11.8285190305148,46.378657709789,21.97608,1895.5512,4.81664544416,3
2025-04-01T15:03:57.280,1743512637280,11.8285194390927,46.3786537035276,21.88464,1895.5512,4.91630720064,3
2025-04-01T15:03:57.380,1743512637380,11.8285199849226,46.3786492305057,21.88464,1895.5512,4.91630720064,3
2025-04-01T15:03:57.480,1743512637480,11.8285205885533,46.3786442204265,21.88464,1895.5512,5.01598236832,3
2025-04-01T15:03:57.580,1743512637580,11.8285211401434,46.3786396182189,21.88464,1895.5512,5.01598236832,3
2025-04-01T15:03:57.680,1743512637680,11.8285216492271,46.3786351257729,21.88464,1895.5512,5.01598236832,3
2025-04-01T15:03:57.790,1743512637790,11.8285221877078,46.3786305604951,21.88464,1895.5512,5.01598236832,3
2025-04-01T15:03:57.890,1743512637890,11.8285225861556,46.3786263833566,21.88464,1895.5512,4.91630720064,3
2025-04-01T15:03:57.990,1743512637990,11.8285231393348,46.3786219298615,21.88464,1895.5512,4.91630720064,3
2025-04-01T15:03:58.090,1743512638090,11.8285236937057,46.3786172068272,21.88464,1895.5512,4.91630720064,3
2025-04-01T15:03:58.190,1743512638190,11.8285242446999,46.3786127460695,21.88464,1895.5512,4.91630720064,3
2025-04-01T15:03:58.290,1743512638290,11.8285249786306,46.378608214467,21.7932,1895.5512,4.91630720064,3
2025-04-01T15:03:58.390,1743512638390,11.8285255304193,46.3786037441857,21.7932,1895.5512,4.91630720064,3
2025-04-01T15:03:58.450,1743512638450,11.8285260393044,46.3785993628715,21.7932,1895.5512,4.91630720064,3
2025-04-01T15:03:58.550,1743512638550,11.8285265690454,46.3785948857729,21.7932,1895.5512,4.91630720064,3
2025-04-01T15:03:58.650,1743512638650,11.8285270644238,46.3785904221376,21.7932,1895.5512,4.91630720064,3
2025-04-01T15:03:58.750,1743512638750,11.8285275778773,46.3785859063963,21.7932,1895.5512,4.91630720064,3
2025-04-01T15:03:58.850,1743512638850,11.8285281892545,46.3785817251811,21.7932,1895.5512,4.91630720064,3
2025-04-01T15:03:58.950,1743512638950,11.8285287769949,46.3785772366062,21.7932,1895.5512,4.91630720064,3
2025-04-01T15:03:59.050,1743512639050,11.8285294747753,46.3785722719869,21.67128,1895.2464,4.91630720064,3
2025-04-01T15:03:59.150,1743512639150,11.8285300734402,46.3785677378836,21.67128,1895.2464,5.01598236832,3
2025-04-01T15:03:59.250,1743512639250,11.8285304681142,46.3785636288492,21.67128,1895.2464,5.01598236832,3
2025-04-01T15:03:59.350,1743512639350,11.8285310024237,46.3785591170134,21.67128,1895.2464,5.01598236832,3
2025-04-01T15:03:59.450,1743512639450,11.8285316000955,46.3785542367365,21.67128,1895.2464,5.01598236832,3
2025-04-01T15:03:59.550,1743512639550,11.8285321574458,46.3785497111633,21.67128,1895.2464,5.01598236832,3
2025-04-01T15:03:59.650,1743512639650,11.8285326655364,46.3785452876779,21.67128,1895.2464,5.01598236832,3
2025-04-01T15:03:59.750,1743512639750,11.8285332421536,46.3785407604947,21.67128,1895.2464,5.01598236832,3
2025-04-01T15:03:59.850,1743512639850,11.8285338380378,46.3785365143269,21.67128,1895.2464,5.01598236832,3
2025-04-01T15:03:59.950,1743512639950,11.8285344015456,46.378531959943,21.67128,1895.2464,5.11567050016,3
2025-04-01T15:04:00.050,1743512640050,11.8285349235401,46.3785269795995,21.67128,1895.2464,5.11567050016,3
2025-04-01T15:04:00.150,1743512640150,11.8285355031368,46.3785223459092,21.67128,1895.2464,5.11567050016,3
2025-04-01T15:04:00.250,1743512640250,11.8285360457886,46.3785177327049,21.57984,1895.2464,5.01598236832,3
2025-04-01T15:04:00.350,1743512640350,11.8285366337277,46.3785131399868,21.57984,1895.2464,5.01598236832,3
2025-04-01T15:04:00.450,1743512640450,11.8285372131257,46.3785090173864,21.57984,1895.2464,5.01598236832,3
2025-04-01T15:04:00.550,1743512640550,11.828537815366,46.3785045026386,21.57984,1895.2464,5.01598236832,3
2025-04-01T15:04:00.650,1743512640650,11.8285385361872,46.3784997939925,21.57984,1895.2464,5.02494596736,3
2025-04-01T15:04:00.730,1743512640730,11.828539235358,46.3784952484814,21.57984,1895.2464,5.02494596736,3
2025-04-01T15:04:00.850,1743512640850,11.8285398352147,46.3784906945429,21.57984,1895.2464,5.02494596736,3
2025-04-01T15:04:00.950,1743512640950,11.8285405699399,46.3784861398165,21.4884,1895.2464,5.02494596736,3
2025-04-01T15:04:01.050,1743512641050,11.8285414874029,46.378481543604,21.4884,1895.2464,5.02494596736,3
2025-04-01T15:04:01.150,1743512641150,11.8285421877654,46.3784770220048,21.4884,1895.2464,5.02494596736,3
2025-04-01T15:04:01.250,1743512641250,11.8285426249458,46.3784723694042,21.4884,1895.2464,5.02494596736,3
2025-04-01T15:04:01.350,1743512641350,11.8285432756513,46.3784678654134,21.4884,1895.2464,5.01598236832,3
2025-04-01T15:04:01.450,1743512641450,11.8285440062053,46.3784634064371,21.4884,1895.2464,4.91630720064,3
2025-04-01T15:04:01.550,1743512641550,11.828544644,46.3784589539012,21.4884,1895.2464,4.91630720064,3
2025-04-01T15:04:01.650,1743512641650,11.8285451830765,46.3784544192841,21.4884,1895.2464,4.82597919232,3
2025-04-01T15:04:01.750,1743512641750,11.8285458014057,46.3784499947367,21.4884,1895.2464,4.81664544416,3
2025-04-01T15:04:01.850,1743512641850,11.8285465603635,46.3784455418926,21.4884,1895.2464,4.81664544416,3
2025-04-01T15:04:01.950,1743512641950,11.8285471635969,46.3784411390303,21.4884,1895.2464,4.81664544416,3
2025-04-01T15:04:02.050,1743512642050,11.8285476279893,46.378436730584,21.39696,1894.9416,4.81664544416,3
2025-04-01T15:04:02.150,1743512642150,11.82854819686,46.3784323240562,21.39696,1894.9416,4.81664544416,3
2025-04-01T15:04:02.250,1743512642250,11.8285487182587,46.3784278050948,21.39696,1894.9416,4.81664544416,3
2025-04-01T15:04:02.360,1743512642360,11.8285492855404,46.3784233725996,21.39696,1894.9416,4.91630720064,3
2025-04-01T15:04:02.460,1743512642460,11.8285497725764,46.378418824759,21.39696,1894.9416,4.91630720064,3
2025-04-01T15:04:02.560,1743512642560,11.8285503285363,46.3784143550943,21.39696,1894.9416,4.91630720064,3
2025-04-01T15:04:02.660,1743512642660,11.8285508789347,46.3784098110905,21.39696,1894.9416,4.91630720064,3
2025-04-01T15:04:02.770,1743512642770,11.8285514466136,46.3784053222416,21.39696,1894.9416,4.91630720064,3
2025-04-01T15:04:02.850,1743512642850,11.828552038128,46.3784006747454,21.39696,1894.9416,4.91630720064,3
2025-04-01T15:04:02.970,1743512642970,11.8285526083892,46.3783962000791,21.39696,1894.9416,4.91630720064,3
2025-04-01T15:04:03.070,1743512643070,11.8285531051579,46.3783920922438,21.39696,1894.9416,4.81664544416,3
2025-04-01T15:04:03.170,1743512643170,11.8285536360907,46.3783876793783,21.27504,1894.9416,4.81664544416,3
2025-04-01T15:04:03.280,1743512643280,11.8285540436755,46.3783834982316,21.27504,1894.9416,4.80937344448,3
2025-04-01T15:04:03.380,1743512643380,11.8285545380607,46.3783790984182,21.27504,1894.9416,4.9091831712,3
2025-04-01T15:04:03.480,1743512643480,11.8285549601453,46.3783740225986,21.27504,1894.9416,4.9091831712,3
2025-04-01T15:04:03.580,1743512643580,11.8285554890919,46.3783695371069,21.27504,1894.9416,4.91630720064,3
2025-04-01T15:04:03.680,1743512643680,11.8285559983742,46.3783653756926,21.27504,1894.9416,4.91630720064,3
2025-04-01T15:04:03.780,1743512643780,11.8285565571149,46.3783609162367,21.27504,1894.9416,4.91630720064,3
2025-04-01T15:04:03.880,1743512643880,11.8285569849598,46.3783566185455,21.27504,1894.9416,4.81664544416,3
2025-04-01T15:04:03.990,1743512643990,11.8285574956325,46.3783522110927,21.27504,1894.9416,4.81664544416,3
2025-04-01T15:04:04.090,1743512644090,11.8285580265653,46.3783476638687,21.27504,1894.9416,4.80937344448,3
2025-04-01T15:04:04.190,1743512644190,11.8285584838071,46.3783432704616,21.27504,1894.9416,4.80937344448,3
2025-04-01T15:04:04.290,1743512644290,11.8285589197957,46.3783389874326,21.27504,1894.9416,4.80937344448,3
2025-04-01T15:04:04.350,1743512644350,11.8285593744553,46.378334612045,21.27504,1894.9416,4.80937344448,3
2025-04-01T15:04:04.450,1743512644450,11.8285598448065,46.3783300684523,21.1836,1894.9416,4.80937344448,3
2025-04-01T15:04:04.550,1743512644550,11.8285602817882,46.3783256609995,21.1836,1894.9416,4.80937344448,3
2025-04-01T15:04:04.650,1743512644650,11.8285607183727,46.3783212360068,21.1836,1894.9416,4.80937344448,3
2025-04-01T15:04:04.750,1743512644750,11.8285611658817,46.3783168061495,21.1836,1894.9416,4.80937344448,3
2025-04-01T15:04:04.850,1743512644850,11.8285615915417,46.3783123521748,21.1836,1894.9416,4.80937344448,3
2025-04-01T15:04:04.950,1743512644950,11.8285620253453,46.3783079166993,21.1836,1894.9416,4.80937344448,3
2025-04-01T15:04:05.050,1743512645050,11.8285624802036,46.3783033696808,21.1836,1894.9416,4.9091831712,3
2025-04-01T15:04:05.150,1743512645150,11.8285628937472,46.378298906251,21.1836,1894.9416,4.9091831712,3
2025-04-01T15:04:05.250,1743512645250,11.8285633237769,46.3782944119893,21.09216,1894.6368,4.9091831712,3
2025-04-01T15:04:05.350,1743512645350,11.8285637510259,46.3782899523964,21.09216,1894.6368,4.9091831712,3
2025-04-01T15:04:05.450,1743512645450,11.8285641073646,46.3782851695483,21.09216,1894.6368,4.80937344448,3
2025-04-01T15:04:05.550,1743512645550,11.8285644919085,46.3782807073518,21.09216,1894.6368,4.80937344448,3
2025-04-01T15:04:05.650,1743512645650,11.8285648305694,46.378276237139,21.09216,1894.6368,4.80937344448,3
2025-04-01T15:04:05.750,1743512645750,11.8285651922711,46.3782717829587,20.97024,1894.6368,4.80417258112,3
2025-04-01T15:04:05.850,1743512645850,11.8285656199173,46.3782677528198,20.97024,1894.6368,4.80417258112,3
2025-04-01T15:04:05.950,1743512645950,11.8285659967147,46.3782633559183,20.97024,1894.6368,4.80937344448,3
2025-04-01T15:04:06.050,1743512646050,11.8285663274304,46.3782586909165,20.97024,1894.6368,4.80937344448,3
2025-04-01T15:04:06.150,1743512646150,11.8285667397823,46.3782542481783,20.97024,1894.6368,4.9091831712,3
2025-04-01T15:04:06.250,1743512646250,11.8285672854135,46.3782497399395,20.97024,1894.6368,4.9091831712,3
2025-04-01T15:04:06.350,1743512646350,11.8285677176282,46.3782452669861,20.97024,1894.6368,4.9091831712,3
2025-04-01T15:04:06.450,1743512646450,11.8285681285896,46.3782412306122,20.97024,1894.6368,4.9091831712,3
2025-04-01T15:04:06.550,1743512646550,11.8285685570303,46.3782367911628,20.97024,1894.6368,4.9091831712,3
2025-04-01T15:04:06.650,1743512646650,11.8285689117801,46.3782322597658,20.8788,1894.6368,4.9091831712,3
2025-04-01T15:04:06.750,1743512646750,11.8285693308853,46.3782277954454,20.8788,1894.6368,4.9091831712,3
2025-04-01T15:04:06.850,1743512646850,11.8285696729228,46.3782233018688,20.8788,1894.6368,4.9091831712,3
2025-04-01T15:04:06.950,1743512646950,11.8285700564736,46.3782188052776,20.8788,1894.6368,4.90408780928,3
2025-04-01T15:04:07.050,1743512647050,11.8285703788469,46.3782143021775,20.8788,1894.6368,5.00400661376,3
2025-04-01T15:04:07.150,1743512647150,11.8285707524663,46.3782097835929,20.8788,1894.6368,5.00900005056,3
2025-04-01T15:04:07.250,1743512647250,11.8285711530991,46.3782048280176,20.8788,1894.6368,5.00900005056,3
2025-04-01T15:04:07.350,1743512647350,11.8285715583003,46.3782002651721,20.78736,1894.332,5.00900005056,3
2025-04-01T15:04:07.450,1743512647450,11.8285720334186,46.3781961748767,20.78736,1894.332,5.00900005056,3
2025-04-01T15:04:07.550,1743512647550,11.8285724813249,46.3781916645139,20.78736,1894.332,5.00900005056,3
2025-04-01T15:04:07.650,1743512647650,11.8285728317048,46.3781867175031,20.78736,1894.332,5.00900005056,3
2025-04-01T15:04:07.750,1743512647750,11.8285732220089,46.3781821801453,20.78736,1894.332,4.90408780928,3
2025-04-01T15:04:07.850,1743512647850,11.828573602183,46.3781780177718,20.78736,1894.332,4.90408780928,3
2025-04-01T15:04:07.950,1743512647950,11.82857389218,46.3781735646193,20.78736,1894.332,4.90408780928,3
2025-04-01T15:04:08.050,1743512648050,11.8285740935888,46.3781688387759,20.78736,1894.332,4.90408780928,3
2025-04-01T15:04:08.150,1743512648150,11.8285743800105,46.3781643871993,20.78736,1894.332,4.90408780928,3
2025-04-01T15:04:08.250,1743512648250,11.8285746851032,46.378160322323,20.78736,1894.332,4.90408780928,3
2025-04-01T15:04:08.360,1743512648360,11.8285750267434,46.3781559106223,20.78736,1894.332,4.90408780928,3
2025-04-01T15:04:08.460,1743512648460,11.8285753101856,46.3781513118063,20.78736,1894.332,4.90408780928,3
2025-04-01T15:04:08.570,1743512648570,11.8285756973117,46.3781468681089,20.78736,1894.332,4.9091831712,3
2025-04-01T15:04:08.670,1743512648670,11.8285762578401,46.3781423550055,20.69592,1894.332,4.9091831712,3
2025-04-01T15:04:08.770,1743512648770,11.8285766916438,46.3781378996605,20.69592,1894.332,4.9091831712,3
2025-04-01T15:04:08.870,1743512648870,11.8285770549345,46.3781335311244,20.69592,1894.332,4.9091831712,3
2025-04-01T15:04:08.970,1743512648970,11.8285774980737,46.3781290681742,20.69592,1894.332,4.9091831712,3
2025-04-01T15:04:09.070,1743512649070,11.8285778975147,46.3781245529469,20.69592,1894.332,4.9091831712,3
2025-04-01T15:04:09.180,1743512649180,11.8285783474072,46.3781200754029,20.69592,1894.332,4.9091831712,3
2025-04-01T15:04:09.280,1743512649280,11.8285787099034,46.3781154532232,20.574,1894.332,4.9091831712,3
2025-04-01T15:04:09.380,1743512649380,11.828579154433,46.3781109719794,20.574,1894.332,4.9091831712,3
2025-04-01T15:04:09.480,1743512649480,11.8285796047229,46.3781064285237,20.574,1894.332,4.9091831712,3
2025-04-01T15:04:09.590,1743512649590,11.8285799988009,46.3781019460467,20.574,1894.332,4.9091831712,3
2025-04-01T15:04:09.690,1743512649690,11.8285803978447,46.3780974643233,20.574,1894.332,4.90408780928,3
2025-04-01T15:04:09.790,1743512649790,11.8285807428616,46.378092987396,20.574,1894.332,4.90408780928,3
2025-04-01T15:04:09.890,1743512649890,11.828581130385,46.3780884629876,20.574,1894.332,4.90408780928,3
2025-04-01T15:04:09.990,1743512649990,11.8285814819566,46.3780839805106,20.574,1894.332,4.90408780928,3
2025-04-01T15:04:10.090,1743512650090,11.8285817683783,46.3780794538411,20.574,1894.332,4.90408780928,3
2025-04-01T15:04:10.150,1743512650150,11.8285821314704,46.3780749438209,20.574,1894.332,5.00400661376,3
2025-04-01T15:04:10.250,1743512650250,11.8285825452126,46.378070387827,20.574,1894.332,5.00400661376,3
2025-04-01T15:04:10.350,1743512650350,11.8285829400852,46.378065871983,20.48256,1894.0272,5.00900005056,3
2025-04-01T15:04:10.450,1743512650450,11.828583373293,46.378061387382,20.48256,1894.0272,4.9091831712,3
2025-04-01T15:04:10.550,1743512650550,11.8285838305347,46.3780569330647,20.48256,1894.0272,4.9091831712,3
2025-04-01T15:04:10.650,1743512650650,11.8285841286754,46.3780520747127,20.48256,1894.0272,4.9091831712,3
2025-04-01T15:04:10.750,1743512650750,11.8285846079649,46.3780476368392,20.48256,1894.0272,4.80937344448,3
2025-04-01T15:04:10.850,1743512650850,11.8285850294537,46.3780436373265,20.48256,1894.0272,4.80937344448,3
2025-04-01T15:04:10.950,1743512650950,11.828585494442,46.3780392563207,20.48256,1894.0272,4.80937344448,3
2025-04-01T15:04:11.050,1743512651050,11.8285860507992,46.3780347848061,20.39112,1894.0272,4.9091831712,3
2025-04-01T15:04:11.150,1743512651150,11.8285864744728,46.3780303173338,20.39112,1894.0272,4.9091831712,3
2025-04-01T15:04:11.250,1743512651250,11.8285868913931,46.3780257704524,20.39112,1894.0272,5.00900005056,3
2025-04-01T15:04:11.350,1743512651350,11.8285872765329,46.3780212300799,20.39112,1894.0272,5.00900005056,3
2025-04-01T15:04:11.450,1743512651450,11.8285875037634,46.3780167554821,20.39112,1894.0272,5.00900005056,3
2025-04-01T15:04:11.550,1743512651550,11.8285878791704,46.378012230183,20.29968,1894.0272,5.00900005056,3
2025-04-01T15:04:11.650,1743512651650,11.8285881681743,46.3780077383194,20.29968,1894.0272,4.9091831712,3
2025-04-01T15:04:11.750,1743512651750,11.8285885803275,46.3780032691343,20.29968,1894.0272,4.9091831712,3
2025-04-01T15:04:11.850,1743512651850,11.8285890069805,46.3779988050879,20.29968,1894.0272,4.9091831712,3
2025-04-01T15:04:11.950,1743512651950,11.8285894542909,46.3779943861931,20.29968,1894.0272,4.80937344448,3
2025-04-01T15:04:12.050,1743512652050,11.8285899951551,46.3779895011886,20.29968,1894.0272,4.80937344448,3
2025-04-01T15:04:12.150,1743512652150,11.8285904498147,46.3779850546136,20.29968,1894.0272,4.80937344448,3
2025-04-01T15:04:12.250,1743512652250,11.8285909225495,46.3779810753815,20.17776,1893.7224,4.80937344448,3
2025-04-01T15:04:12.330,1743512652330,11.8285913915103,46.3779767030771,20.17776,1893.7224,4.80937344448,3
2025-04-01T15:04:12.450,1743512652450,11.8285918273003,46.3779723841461,20.17776,1893.7224,4.80937344448,3
2025-04-01T15:04:12.550,1743512652550,11.828592303809,46.3779680302038,20.17776,1893.7224,4.80937344448,3
2025-04-01T15:04:12.650,1743512652650,11.8285929155834,46.3779632888759,20.17776,1893.7224,4.80937344448,3
2025-04-01T15:04:12.740,1743512652740,11.828593356935,46.3779588551132,20.17776,1893.7224,4.80937344448,3
2025-04-01T15:04:12.850,1743512652850,11.8285935921106,46.377954665128,20.17776,1893.7224,4.9091831712,3
2025-04-01T15:04:12.940,1743512652940,11.8285939508329,46.3779501857341,20.08632,1893.7224,4.90408780928,3
2025-04-01T15:04:13.050,1743512653050,11.8285943768901,46.3779457296355,20.08632,1893.7224,5.00400661376,3
2025-04-01T15:04:13.150,1743512653150,11.8285947429616,46.3779411954294,20.08632,1893.7224,5.00400661376,3
2025-04-01T15:04:13.250,1743512653250,11.8285949829043,46.377936089463,20.08632,1893.7224,5.00400661376,3
2025-04-01T15:04:13.350,1743512653350,11.8285953364622,46.3779314780402,20.08632,1893.7224,5.00400661376,3
2025-04-01T15:04:13.450,1743512653450,11.8285956383769,46.377927704491,20.08632,1893.7224,5.00400661376,3
2025-04-01T15:04:13.550,1743512653550,11.8285960159688,46.3779231880304,20.08632,1893.7224,5.00900005056,3
2025-04-01T15:04:13.650,1743512653650,11.8285964275261,46.3779182621908,20.08632,1893.7224,5.00900005056,3
2025-04-01T15:04:13.750,1743512653750,11.8285968609325,46.3779137295605,20.08632,1893.7224,5.00900005056,3
2025-04-01T15:04:13.860,1743512653860,11.8285975052819,46.3779091417755,19.99488,1893.7224,5.00900005056,3
2025-04-01T15:04:13.960,1743512653960,11.8285979535855,46.3779046090082,19.99488,1893.7224,5.00900005056,3
2025-04-01T15:04:14.050,1743512654050,11.8285983015818,46.3779000825443,19.99488,1893.7224,4.9091831712,3
2025-04-01T15:04:14.160,1743512654160,11.8285986757971,46.3778956084262,19.99488,1893.7224,4.90408780928,3
2025-04-01T15:04:14.260,1743512654260,11.8285989912184,46.3778910808661,19.99488,1893.7224,4.9091831712,3
2025-04-01T15:04:14.370,1743512654370,11.8285993765569,46.3778866413481,19.99488,1893.7224,4.80937344448,3
2025-04-01T15:04:14.470,1743512654470,11.8285997183957,46.3778822608219,19.87296,1893.4176,4.80937344448,3
2025-04-01T15:04:14.570,1743512654570,11.8286001186313,46.377877835144,19.87296,1893.4176,4.80937344448,3
2025-04-01T15:04:14.670,1743512654670,11.8286005317776,46.3778733296458,19.87296,1893.4176,4.80937344448,3
2025-04-01T15:04:14.770,1743512654770,11.8286009276434,46.3778688791654,19.87296,1893.4176,4.9091831712,3
2025-04-01T15:04:14.870,1743512654870,11.828601369988,46.3778645553013,19.87296,1893.4176,4.9091831712,3
2025-04-01T15:04:14.980,1743512654980,11.8286017680387,46.3778601087948,19.78152,1893.4176,4.9091831712,3
2025-04-01T15:04:15.080,1743512655080,11.8286020417481,46.3778551249913,19.78152,1893.4176,4.9091831712,3
2025-04-01T15:04:15.150,1743512655150,11.8286023939157,46.3778506409384,19.78152,1893.4176,4.90408780928,3
2025-04-01T15:04:15.290,1743512655290,11.8286026066464,46.3778466589657,19.78152,1893.4176,4.80417258112,3
2025-04-01T15:04:15.390,1743512655390,11.8286029268348,46.3778422695324,19.78152,1893.4176,4.80417258112,3
2025-04-01T15:04:15.490,1743512655490,11.8286033487208,46.3778377652675,19.78152,1893.4176,4.80417258112,3
2025-04-01T15:04:15.590,1743512655590,11.8286036722859,46.377833401459,19.78152,1893.4176,4.80417258112,3
2025-04-01T15:04:15.690,1743512655690,11.8286039003109,46.3778288114814,19.69008,1893.4176,4.80417258112,3
2025-04-01T15:04:15.750,1743512655750,11.828604220698,46.3778244321885,19.69008,1893.4176,4.80417258112,3
2025-04-01T15:04:15.850,1743512655850,11.8286046193445,46.3778199125761,19.69008,1893.4176,4.80417258112,3
2025-04-01T15:04:15.950,1743512655950,11.8286049391357,46.3778155334887,19.69008,1893.4176,4.80417258112,3
2025-04-01T15:04:16.050,1743512656050,11.8286051365719,46.3778116238681,19.69008,1893.4176,4.80417258112,3
2025-04-01T15:04:16.150,1743512656150,11.8286054517947,46.3778073076092,19.69008,1893.4176,4.70426092928,3
2025-04-01T15:04:16.250,1743512656250,11.8286057155727,46.377802978675,19.69008,1893.4176,4.70426092928,3
2025-04-01T15:04:16.350,1743512656350,11.8286060766785,46.377798664403,19.69008,1893.4176,4.70426092928,3
2025-04-01T15:04:16.450,1743512656450,11.8286063426414,46.3777943018963,19.69008,1893.4176,4.70957221152,3
2025-04-01T15:04:16.550,1743512656550,11.8286067698904,46.3777899661105,19.69008,1893.4176,4.80937344448,3
2025-04-01T15:04:16.650,1743512656650,11.8286073246585,46.3777855533136,19.59864,1893.1128,4.80937344448,3
2025-04-01T15:04:16.750,1743512656750,11.8286077675991,46.3777811998508,19.59864,1893.1128,4.80937344448,3
2025-04-01T15:04:16.850,1743512656850,11.8286080991093,46.3777767871909,19.59864,1893.1128,4.80937344448,3
2025-04-01T15:04:16.950,1743512656950,11.8286085017284,46.3777724004297,19.59864,1893.1128,4.80937344448,3
2025-04-01T15:04:17.050,1743512657050,11.8286089899562,46.3777676694477,19.59864,1893.1128,4.80937344448,3
2025-04-01T15:04:17.150,1743512657150,11.8286093842329,46.3777632644614,19.59864,1893.1128,4.80937344448,3
2025-04-01T15:04:17.250,1743512657250,11.8286096462233,46.3777591912263,19.59864,1893.1128,4.80937344448,3
2025-04-01T15:04:17.350,1743512657350,11.8286100228221,46.3777548263901,19.47672,1893.1128,4.80937344448,3
2025-04-01T15:04:17.450,1743512657450,11.8286104230576,46.3777506314718,19.47672,1893.1128,4.80937344448,3
2025-04-01T15:04:17.550,1743512657550,11.8286108034303,46.3777462712946,19.47672,1893.1128,4.80937344448,3
2025-04-01T15:04:17.650,1743512657650,11.8286112443846,46.3777415822439,19.47672,1893.1128,4.80937344448,3
2025-04-01T15:04:17.730,1743512657730,11.8286116547502,46.3777371601288,19.47672,1893.1128,4.9091831712,3
2025-04-01T15:04:17.850,1743512657850,11.8286122649356,46.3777324995804,19.47672,1893.1128,4.9091831712,3
2025-04-01T15:04:17.950,1743512657950,11.8286127027118,46.3777280366303,19.47672,1893.1128,4.9091831712,3
2025-04-01T15:04:18.050,1743512658050,11.8286131085089,46.3777236324662,19.47672,1893.1128,4.9091831712,3
2025-04-01T15:04:18.150,1743512658150,11.8286135321826,46.3777192000739,19.47672,1893.1128,4.9091831712,3
2025-04-01T15:04:18.240,1743512658240,11.8286140090886,46.3777147589116,19.38528,1893.1128,4.9091831712,3
2025-04-01T15:04:18.350,1743512658350,11.8286144287896,46.3777103499515,19.38528,1893.1128,4.9091831712,3
2025-04-01T15:04:18.450,1743512658450,11.8286149337021,46.3777055851228,19.38528,1893.1128,4.9091831712,3
2025-04-01T15:04:18.550,1743512658550,11.8286153915398,46.3777011323129,19.38528,1893.1128,4.9091831712,3
2025-04-01T15:04:18.640,1743512658640,11.8286157000092,46.3776971687023,19.38528,1893.1128,4.9091831712,3
2025-04-01T15:04:18.740,1743512658740,11.8286161421552,46.3776927501501,19.38528,1893.1128,4.9091831712,3
2025-04-01T15:04:18.850,1743512658850,11.828616681629,46.3776882188216,19.38528,1893.1128,4.9091831712,3
2025-04-01T15:04:18.950,1743512658950,11.8286171426447,46.3776837843738,19.38528,1893.1128,4.9091831712,3
2025-04-01T15:04:19.050,1743512659050,11.8286176058454,46.3776792541416,19.29384,1892.808,4.9091831712,3
2025-04-01T15:04:19.150,1743512659150,11.8286180545462,46.3776747842028,19.29384,1892.808,4.9091831712,3
2025-04-01T15:04:19.250,1743512659250,11.8286184378983,46.3776705933954,19.29384,1892.808,4.9091831712,3
2025-04-01T15:04:19.350,1743512659350,11.8286188395243,46.3776661216753,19.29384,1892.808,4.9091831712,3
2025-04-01T15:04:19.450,1743512659450,11.8286192159244,46.3776612235159,19.29384,1892.808,4.90408780928,3
2025-04-01T15:04:19.560,1743512659560,11.8286195841809,46.3776567047942,19.29384,1892.808,4.90408780928,3
2025-04-01T15:04:19.660,1743512659660,11.8286199834233,46.3776521268754,19.17192,1892.808,5.00400661376,3
2025-04-01T15:04:19.760,1743512659760,11.8286203075843,46.3776475821179,19.17192,1892.808,5.00400661376,3
2025-04-01T15:04:19.860,1743512659860,11.828620485555,46.3776429463721,19.17192,1892.808,5.00400661376,3
2025-04-01T15:04:19.950,1743512659950,11.8286207719767,46.3776384055886,19.17192,1892.808,5.00400661376,3
2025-04-01T15:04:20.060,1743512660060,11.8286210766721,46.3776338369878,19.17192,1892.808,4.90408780928,3
2025-04-01T15:04:20.150,1743512660150,11.8286213589226,46.3776292974375,19.17192,1892.808,4.90408780928,3
2025-04-01T15:04:20.270,1743512660270,11.8286214725379,46.3776247672053,19.17192,1892.808,5.00400661376,3
2025-04-01T15:04:20.370,1743512660370,11.8286217158573,46.3776202153222,19.17192,1892.808,5.00100786944,3
2025-04-01T15:04:20.470,1743512660470,11.8286220370388,46.3776154943434,19.17192,1892.808,5.00400661376,3
2025-04-01T15:04:20.570,1743512660570,11.8286223246522,46.3776109497229,19.17192,1892.808,5.00400661376,3
2025-04-01T15:04:20.650,1743512660650,11.8286225721428,46.3776062502579,19.08048,1892.808,5.00400661376,3
2025-04-01T15:04:20.770,1743512660770,11.8286228945161,46.3776016874124,19.08048,1892.808,5.00400661376,3
2025-04-01T15:04:20.880,1743512660880,11.8286232343687,46.377597218707,19.08048,1892.808,5.00400661376,3
2025-04-01T15:04:20.980,1743512660980,11.8286235678652,46.3775926617538,19.08048,1892.808,5.00400661376,3
2025-04-01T15:04:21.080,1743512661080,11.8286239208272,46.3775877356401,19.08048,1892.808,5.00400661376,3
2025-04-01T15:04:21.180,1743512661180,11.8286242914671,46.3775831363445,19.08048,1892.808,5.00900005056,3
2025-04-01T15:04:21.280,1743512661280,11.8286245872243,46.3775788441344,18.98904,1892.5032,5.00900005056,3
2025-04-01T15:04:21.390,1743512661390,11.828624971371,46.3775742784113,18.98904,1892.5032,4.9091831712,3
2025-04-01T15:04:21.490,1743512661490,11.8286255634812,46.3775696456802,18.98904,1892.5032,4.9091831712,3
2025-04-01T15:04:21.590,1743512661590,11.8286259800042,46.3775651002376,18.98904,1892.5032,5.00900005056,3
2025-04-01T15:04:21.690,1743512661690,11.8286263083364,46.3775606531829,18.98904,1892.5032,5.00900005056,3
2025-04-01T15:04:21.790,1743512661790,11.8286267502838,46.37755611514,18.98904,1892.5032,5.00900005056,3
2025-04-01T15:04:21.890,1743512661890,11.8286273825169,46.3775515887446,18.8976,1892.5032,5.00900005056,3
2025-04-01T15:04:21.950,1743512661950,11.8286278651831,46.3775470371356,18.8976,1892.5032,5.00900005056,3
2025-04-01T15:04:22.050,1743512662050,11.8286283722805,46.3775424364697,18.8976,1892.5032,5.00900005056,3
2025-04-01T15:04:22.150,1743512662150,11.8286288086664,46.3775378854088,18.8976,1892.5032,5.00900005056,3
2025-04-01T15:04:22.250,1743512662250,11.8286291916213,46.3775329793016,18.8976,1892.5032,5.00900005056,3
2025-04-01T15:04:22.350,1743512662350,11.8286295930486,46.3775284309814,18.8976,1892.5032,4.9091831712,3
2025-04-01T15:04:22.450,1743512662450,11.8286298890044,46.3775243322586,18.8976,1892.5032,4.9091831712,3
2025-04-01T15:04:22.550,1743512662550,11.8286303095,46.3775198462873,18.77568,1892.5032,4.9091831712,3
2025-04-01T15:04:22.650,1743512662650,11.8286308595011,46.377515324688,18.77568,1892.5032,4.9091831712,3
2025-04-01T15:04:22.750,1743512662750,11.8286312935034,46.3775108263839,18.77568,1892.5032,4.9091831712,3
2025-04-01T15:04:22.850,1743512662850,11.8286316901636,46.377506337809,18.77568,1892.5032,4.9091831712,3
2025-04-01T15:04:22.950,1743512662950,11.8286321130427,46.3775018366273,18.77568,1892.5032,4.9091831712,3
2025-04-01T15:04:23.050,1743512663050,11.8286325804145,46.3774971468914,18.77568,1892.5032,4.9091831712,3
2025-04-01T15:04:23.150,1743512663150,11.8286330334851,46.377492642695,18.77568,1892.5032,4.9091831712,3
2025-04-01T15:04:23.250,1743512663250,11.8286334212071,46.3774885732968,18.77568,1892.5032,4.9091831712,3
2025-04-01T15:04:23.350,1743512663350,11.8286338967226,46.3774841326826,18.77568,1892.5032,4.9091831712,3
2025-04-01T15:04:23.450,1743512663450,11.8286343535672,46.3774791591564,18.77568,1892.5032,4.9091831712,3
2025-04-01T15:04:23.550,1743512663550,11.8286348161719,46.3774746753775,18.77568,1892.5032,4.9091831712,3
2025-04-01T15:04:23.650,1743512663650,11.8286352618933,46.3774698325785,18.77568,1892.5032,4.9091831712,3
2025-04-01T15:04:23.750,1743512663750,11.8286356919231,46.377465327971,18.77568,1892.5032,4.9091831712,3
2025-04-01T15:04:23.850,1743512663850,11.8286359809269,46.3774613517536,18.77568,1892.5032,4.9091831712,3
2025-04-01T15:04:23.950,1743512663950,11.8286363974499,46.3774569125097,18.77568,1892.5032,4.9091831712,3
2025-04-01T15:04:24.050,1743512664050,11.8286368560821,46.3774523909104,18.77568,1892.5032,4.9091831712,3
2025-04-01T15:04:24.150,1743512664150,11.828637278564,46.3774479533109,18.77568,1892.5032,4.9091831712,3
2025-04-01T15:04:24.250,1743512664250,11.8286378474348,46.3774432246583,18.77568,1892.5032,4.9091831712,3
2025-04-01T15:04:24.350,1743512664350,11.8286382732933,46.377438743209,18.77568,1892.5032,4.9091831712,3
2025-04-01T15:04:24.450,1743512664450,11.8286385676601,46.3774346606558,18.77568,1892.5032,4.9091831712,3
2025-04-01T15:04:24.550,1743512664550,11.8286389716696,46.3774302151086,18.77568,1892.5032,4.90408780928,3
2025-04-01T15:04:24.650,1743512664650,11.8286393530355,46.3774255408572,18.77568,1892.5032,4.90408780928,3
2025-04-01T15:04:24.740,1743512664740,11.8286397469149,46.3774210616003,18.77568,1892.5032,4.90408780928,3
2025-04-01T15:04:24.850,1743512664850,11.8286400478364,46.3774169394453,18.77568,1892.5032,4.90408780928,3
2025-04-01T15:04:24.950,1743512664950,11.8286404162915,46.377412480469,18.77568,1892.5032,4.90408780928,3
2025-04-01T15:04:25.040,1743512665040,11.8286408175201,46.3774074889917,18.77568,1892.5032,4.90408780928,3
2025-04-01T15:04:25.140,1743512665140,11.8286411661124,46.3774029691738,18.77568,1892.5032,4.90408780928,3
2025-04-01T15:04:25.240,1743512665240,11.8286415327798,46.3773985709021,18.77568,1892.5032,4.90408780928,3
2025-04-01T15:04:25.350,1743512665350,11.8286418710434,46.3773940639651,18.77568,1892.5032,4.90408780928,3
2025-04-01T15:04:25.450,1743512665450,11.8286421234996,46.3773900569158,18.77568,1892.5032,4.90408780928,3
2025-04-01T15:04:25.550,1743512665550,11.8286424617632,46.377385609039,18.77568,1892.5032,4.90408780928,3
2025-04-01T15:04:25.650,1743512665650,11.8286427013086,46.3773810767513,18.77568,1892.5032,4.90408780928,3
2025-04-01T15:04:25.750,1743512665750,11.828643042353,46.377376631204,18.77568,1892.5032,4.90408780928,3
2025-04-01T15:04:25.850,1743512665850,11.8286434650335,46.3773722432096,18.77568,1892.5032,4.90408780928,3
2025-04-01T15:04:25.960,1743512665960,11.828643822564,46.3773678197243,18.77568,1892.5032,4.80417258112,3
2025-04-01T15:04:26.060,1743512666060,11.8286441922108,46.3773632335836,18.77568,1892.5032,4.90408780928,3
2025-04-01T15:04:26.150,1743512666150,11.8286445614604,46.3773587988617,18.77568,1892.5032,4.90408780928,3
2025-04-01T15:04:26.270,1743512666270,11.828644795047,46.3773541572236,18.77568,1892.5032,4.90408780928,3
2025-04-01T15:04:26.370,1743512666370,11.8286451674745,46.3773496876959,18.77568,1892.5032,4.90408780928,3
2025-04-01T15:04:26.470,1743512666470,11.828645520238,46.3773455655409,18.77568,1892.5032,4.9091831712,3
2025-04-01T15:04:26.570,1743512666570,11.828645915905,46.377341126434,18.77568,1892.5032,4.9091831712,3
2025-04-01T15:04:26.650,1743512666650,11.8286464784197,46.3773366363518,18.77568,1892.5032,4.9091831712,3
2025-04-01T15:04:26.780,1743512666780,11.8286469012988,46.3773321875158,18.77568,1892.5032,4.9091831712,3
2025-04-01T15:04:26.880,1743512666880,11.8286472290351,46.3773275734208,18.77568,1892.5032,4.9091831712,3
2025-04-01T15:04:26.980,1743512666980,11.8286476435719,46.3773230936159,18.8976,1892.5032,4.9091831712,3
2025-04-01T15:04:27.090,1743512667090,11.8286479091376,46.3773186401208,18.8976,1892.5032,4.9091831712,3
2025-04-01T15:04:27.190,1743512667190,11.8286483437357,46.3773141459276,18.8976,1892.5032,4.9091831712,3
2025-04-01T15:04:27.290,1743512667290,11.8286487360261,46.3773098653652,18.8976,1892.5032,4.9091831712,3
2025-04-01T15:04:27.390,1743512667390,11.8286491777749,46.3773053946043,18.8976,1892.5032,4.9091831712,3
2025-04-01T15:04:27.450,1743512667450,11.8286496282634,46.377300496993,18.8976,1892.5032,4.9091831712,3
2025-04-01T15:04:27.550,1743512667550,11.8286500529302,46.377295981286,18.8976,1892.5032,4.9091831712,3
2025-04-01T15:04:27.650,1743512667650,11.8286504760079,46.3772912856578,18.8976,1892.5032,5.00900005056,3
2025-04-01T15:04:27.750,1743512667750,11.8286508949145,46.3772867314453,18.8976,1892.5032,5.00900005056,3
2025-04-01T15:04:27.850,1743512667850,11.8286511680281,46.3772822023093,18.8976,1892.5032,5.00900005056,3
2025-04-01T15:04:27.950,1743512667950,11.8286515845511,46.3772776353529,18.8976,1892.5032,5.00900005056,3
2025-04-01T15:04:28.050,1743512668050,11.8286521194565,46.3772730119398,18.8976,1892.5032,5.00900005056,3
2025-04-01T15:04:28.150,1743512668150,11.8286525363768,46.3772684149737,18.8976,1892.5032,5.00900005056,3
2025-04-01T15:04:28.250,1743512668250,11.8286527431486,46.3772638581576,18.8976,1892.5032,5.00900005056,3
2025-04-01T15:04:28.350,1743512668350,11.8286531139872,46.3772592710576,18.98904,1892.5032,5.00400661376,3
2025-04-01T15:04:28.450,1743512668450,11.8286535893042,46.377254622705,18.8976,1892.5032,5.00400661376,3
2025-04-01T15:04:28.550,1743512668550,11.8286539496155,46.3772500578041,18.98904,1892.5032,5.00400661376,3
2025-04-01T15:04:28.650,1743512668650,11.8286542952283,46.3772453388807,18.98904,1892.5032,5.00400661376,3
2025-04-01T15:04:28.750,1743512668750,11.8286546527588,46.377240766032,18.98904,1892.5032,5.00400661376,3
2025-04-01T15:04:28.850,1743512668850,11.8286551040417,46.3772361805765,18.98904,1892.5032,5.00900005056,3
2025-04-01T15:04:28.950,1743512668950,11.828655483024,46.3772316071796,18.98904,1892.5032,5.00900005056,3
2025-04-01T15:04:29.050,1743512669050,11.8286560185253,46.3772268390622,18.98904,1892.5032,5.00900005056,3
2025-04-01T15:04:29.150,1743512669150,11.8286564060486,46.3772222538807,18.98904,1892.5032,5.00900005056,3
2025-04-01T15:04:29.250,1743512669250,11.828656823962,46.3772181654352,18.98904,1892.5032,5.00900005056,3
2025-04-01T15:04:29.350,1743512669350,11.8286572027457,46.377213653017,18.98904,1892.5032,5.00900005056,3
2025-04-01T15:04:29.450,1743512669450,11.8286574599691,46.3772086455072,18.98904,1892.5032,5.00900005056,3
2025-04-01T15:04:29.530,1743512669530,11.8286578151161,46.3772041014349,18.98904,1892.5032,5.00400661376,3
2025-04-01T15:04:29.650,1743512669650,11.8286582499129,46.3771991085873,18.98904,1892.5032,5.00400661376,3
2025-04-01T15:04:29.750,1743512669750,11.8286586030736,46.377194515595,18.98904,1892.5032,5.00400661376,3
2025-04-01T15:04:29.850,1743512669850,11.8286589860285,46.3771902102301,18.98904,1892.5032,5.00400661376,3
2025-04-01T15:04:29.950,1743512669950,11.828659340381,46.37718565821,18.98904,1892.5032,5.00400661376,3
2025-04-01T15:04:30.050,1743512670050,11.8286596593776,46.3771811775829,18.98904,1892.5032,4.90408780928,3
2025-04-01T15:04:30.150,1743512670150,11.8286600024083,46.3771766703718,18.98904,1892.5032,4.90408780928,3
2025-04-01T15:04:30.250,1743512670250,11.8286603525895,46.3771718503199,19.08048,1892.808,4.90408780928,3
2025-04-01T15:04:30.350,1743512670350,11.8286606858874,46.3771673317352,19.08048,1892.808,4.90408780928,3
2025-04-01T15:04:30.450,1743512670450,11.8286609937609,46.3771632014954,19.08048,1892.808,4.90408780928,3
2025-04-01T15:04:30.550,1743512670550,11.8286613222917,46.3771587271717,19.08048,1892.808,4.90408780928,3
2025-04-01T15:04:30.650,1743512670650,11.8286617048493,46.3771540943036,19.08048,1892.808,4.90408780928,3
2025-04-01T15:04:30.750,1743512670750,11.8286620760851,46.3771496057286,19.08048,1892.808,4.9091831712,3
2025-04-01T15:04:30.850,1743512670850,11.8286623718423,46.3771452758352,19.08048,1892.808,4.90408780928,3
2025-04-01T15:04:30.960,1743512670960,11.8286626817022,46.3771407942488,19.08048,1892.808,4.90408780928,3
2025-04-01T15:04:31.050,1743512671050,11.8286630217535,46.3771362721014,19.08048,1892.808,4.90102826752,3
2025-04-01T15:04:31.150,1743512671150,11.8286632875178,46.3771318132622,19.08048,1892.808,4.90102826752,3
2025-04-01T15:04:31.250,1743512671250,11.8286635224948,46.3771270988609,19.17192,1892.808,4.80417258112,3
2025-04-01T15:04:31.370,1743512671370,11.8286638349367,46.3771227001781,19.17192,1892.808,4.80417258112,3
2025-04-01T15:04:31.450,1743512671450,11.8286640635576,46.3771182147549,19.17192,1892.808,4.70426092928,3
2025-04-01T15:04:31.570,1743512671570,11.8286643863281,46.3771138732138,19.17192,1892.808,4.70426092928,3
2025-04-01T15:04:31.670,1743512671670,11.8286647531942,46.3771100633516,19.17192,1892.808,4.70426092928,3
2025-04-01T15:04:31.770,1743512671770,11.8286650533212,46.3771057533276,19.17192,1892.808,4.70426092928,3
2025-04-01T15:04:31.870,1743512671870,11.8286654003244,46.3771013454637,19.17192,1892.808,4.80417258112,3
2025-04-01T15:04:31.980,1743512671980,11.8286656821777,46.377096951851,19.29384,1892.808,4.80104911264,3
2025-04-01T15:04:32.080,1743512672080,11.8286658941138,46.3770921893518,19.29384,1892.808,4.90102826752,3
2025-04-01T15:04:32.180,1743512672180,11.8286661471659,46.3770876887182,19.29384,1892.808,4.90102826752,3
2025-04-01T15:04:32.280,1743512672280,11.8286665630931,46.3770834252846,19.29384,1892.808,4.90102826752,3
2025-04-01T15:04:32.380,1743512672380,11.8286668322341,46.3770789272546,19.29384,1892.808,4.90102826752,3
2025-04-01T15:04:32.480,1743512672480,11.8286670205335,46.3770741838028,19.29384,1892.808,5.00100786944,3
2025-04-01T15:04:32.590,1743512672590,11.8286672487572,46.3770696523373,19.29384,1892.808,5.00100786944,3
2025-04-01T15:04:32.690,1743512672690,11.8286674269266,46.3770651597885,19.29384,1892.808,4.90102826752,3
2025-04-01T15:04:32.790,1743512672790,11.8286676199931,46.3770606583327,19.29384,1892.808,4.90102826752,3
2025-04-01T15:04:32.890,1743512672890,11.828667792005,46.3770565852346,19.29384,1892.808,4.90102826752,3
2025-04-01T15:04:32.990,1743512672990,11.8286679803044,46.3770521409206,19.38528,1893.1128,4.90102826752,3
2025-04-01T15:04:33.050,1743512673050,11.82866817059,46.3770476879737,19.38528,1893.1128,4.90102826752,3
2025-04-01T15:04:33.150,1743512673150,11.8286683338623,46.3770432150203,19.38528,1893.1128,4.90102826752,3
2025-04-01T15:04:33.250,1743512673250,11.8286683654442,46.3770387761875,19.38528,1893.1128,4.90102826752,3
2025-04-01T15:04:33.350,1743512673350,11.8286684850183,46.3770343048784,19.38528,1893.1128,4.90000812224,3
2025-04-01T15:04:33.450,1743512673450,11.8286686580234,46.3770296876318,19.38528,1893.1128,4.90000812224,3
2025-04-01T15:04:33.550,1743512673550,11.8286687728304,46.3770252382476,19.38528,1893.1128,4.90102826752,3
2025-04-01T15:04:33.650,1743512673650,11.8286687547552,46.3770208990361,19.38528,1893.1128,4.90000812224,3
2025-04-01T15:04:33.750,1743512673750,11.8286688685691,46.3770164876094,19.38528,1893.1128,4.90000812224,3
2025-04-01T15:04:33.850,1743512673850,11.8286689464313,46.3770119734098,19.47672,1893.1128,4.80000795648,3
2025-04-01T15:04:33.950,1743512673950,11.8286690675944,46.3770075708902,19.47672,1893.1128,4.80000795648,3
2025-04-01T15:04:34.050,1743512674050,11.8286691873671,46.3770027898919,19.47672,1893.1128,4.80104911264,3
2025-04-01T15:04:34.150,1743512674150,11.8286693478585,46.3769983539368,19.47672,1893.1128,4.80104911264,3
2025-04-01T15:04:34.250,1743512674250,11.8286694648504,46.3769943975888,19.47672,1893.1128,4.80104911264,3
2025-04-01T15:04:34.350,1743512674350,11.8286696579169,46.3769900470037,19.59864,1893.1128,4.80104911264,3
2025-04-01T15:04:34.450,1743512674450,11.8286699336126,46.376985863459,19.59864,1893.1128,4.80104911264,3
2025-04-01T15:04:34.550,1743512674550,11.8286702021577,46.3769815493241,19.59864,1893.1128,4.80417258112,3
2025-04-01T15:04:34.650,1743512674650,11.8286704436893,46.3769771343346,19.59864,1893.1128,4.80417258112,3
2025-04-01T15:04:34.750,1743512674750,11.8286708075758,46.3769728034819,19.69008,1893.4176,4.80417258112,3
2025-04-01T15:04:34.850,1743512674850,11.8286711966882,46.3769684322052,19.69008,1893.4176,4.80937344448,3
2025-04-01T15:04:34.950,1743512674950,11.8286716026839,46.3769640570917,19.69008,1893.4176,4.80937344448,3
2025-04-01T15:04:35.050,1743512675050,11.828672030926,46.3769595951007,19.69008,1893.4176,4.9091831712,3
2025-04-01T15:04:35.150,1743512675150,11.8286724577777,46.3769551721634,19.69008,1893.4176,4.9091831712,3
2025-04-01T15:04:35.250,1743512675250,11.8286729160125,46.3769510580932,19.78152,1893.4176,4.9091831712,3
2025-04-01T15:04:35.330,1743512675330,11.8286733859665,46.3769466407742,19.78152,1893.4176,4.9091831712,3
2025-04-01T15:04:35.450,1743512675450,11.8286738847215,46.3769416525857,19.78152,1893.4176,4.9091831712,3
2025-04-01T15:04:35.550,1743512675550,11.8286743697712,46.3769371596258,19.78152,1893.4176,4.9091831712,3
2025-04-01T15:04:35.650,1743512675650,11.8286748597867,46.3769326407671,19.78152,1893.4176,4.9091831712,3
2025-04-01T15:04:35.740,1743512675740,11.8286753313297,46.3769281209492,19.78152,1893.4176,4.9091831712,3
2025-04-01T15:04:35.850,1743512675850,11.8286756997848,46.3769236751279,19.78152,1893.4176,4.9091831712,3
2025-04-01T15:04:35.940,1743512675940,11.8286761196845,46.3769191712056,19.78152,1893.4176,4.9091831712,3
2025-04-01T15:04:36.040,1743512676040,11.8286765942069,46.3769145081907,19.78152,1893.4176,4.9091831712,3
2025-04-01T15:04:36.150,1743512676150,11.8286769896754,46.3769099964576,19.78152,1893.4176,4.9091831712,3
2025-04-01T15:04:36.250,1743512676250,11.8286772268373,46.3769054277198,19.78152,1893.4176,4.9091831712,3
2025-04-01T15:04:36.350,1743512676350,11.8286775976759,46.3769009111906,19.78152,1893.4176,4.9091831712,3
2025-04-01T15:04:36.450,1743512676450,11.8286779657337,46.3768964563253,19.87296,1893.4176,4.9091831712,3
2025-04-01T15:04:36.550,1743512676550,11.8286783536543,46.3768919318483,19.87296,1893.4176,5.00900005056,3
2025-04-01T15:04:36.660,1743512676660,11.8286788422793,46.3768869302308,19.87296,1893.4176,5.00900005056,3
2025-04-01T15:04:36.750,1743512676750,11.8286792319876,46.3768823610819,19.87296,1893.4176,5.00900005056,3
2025-04-01T15:04:36.860,1743512676860,11.8286796375861,46.3768781510902,19.87296,1893.4176,5.00900005056,3
2025-04-01T15:04:36.950,1743512676950,11.8286800473557,46.3768736405904,19.87296,1893.4176,5.00900005056,3
2025-04-01T15:04:37.060,1743512677060,11.8286804605021,46.3768690962441,19.99488,1893.7224,4.9091831712,3
2025-04-01T15:04:37.150,1743512677150,11.8286808764292,46.3768645949253,19.99488,1893.7224,4.9091831712,3
2025-04-01T15:04:37.260,1743512677260,11.8286812641512,46.3768603837004,19.99488,1893.7224,4.9091831712,3
2025-04-01T15:04:37.370,1743512677370,11.8286816755099,46.3768559175985,19.99488,1893.7224,4.9091831712,3
2025-04-01T15:04:37.450,1743512677450,11.8286822481546,46.3768509169402,19.99488,1893.7224,4.9091831712,3
2025-04-01T15:04:37.570,1743512677570,11.8286826765953,46.3768464191842,19.99488,1893.7224,4.9091831712,3
2025-04-01T15:04:37.650,1743512677650,11.8286828748261,46.3768418423616,19.99488,1893.7224,4.9091831712,3
2025-04-01T15:04:37.770,1743512677770,11.8286832843971,46.3768373663935,19.99488,1893.7224,4.9091831712,3
2025-04-01T15:04:37.880,1743512677880,11.8286838602199,46.3768328245137,20.08632,1893.7224,4.9091831712,3
2025-04-01T15:04:37.980,1743512677980,11.8286842974002,46.3768283718409,20.08632,1893.7224,4.80937344448,3
2025-04-01T15:04:38.080,1743512678080,11.8286846716155,46.3768239389004,20.08632,1893.7224,4.80937344448,3
2025-04-01T15:04:38.180,1743512678180,11.8286850778099,46.3768195076043,20.08632,1893.7224,4.80937344448,3
2025-04-01T15:04:38.290,1743512678290,11.8286853723754,46.3768151318056,20.08632,1893.7224,4.90408780928,3
2025-04-01T15:04:38.390,1743512678390,11.8286857301045,46.3768106831066,20.08632,1893.7224,4.90408780928,3
2025-04-01T15:04:38.490,1743512678490,11.8286861569562,46.3768063188184,20.08632,1893.7224,4.90408780928,3
2025-04-01T15:04:38.590,1743512678590,11.828686533555,46.3768018734082,20.17776,1893.7224,4.90408780928,3
2025-04-01T15:04:38.690,1743512678690,11.828686782436,46.3767973456425,20.17776,1893.7224,4.90408780928,3
2025-04-01T15:04:38.750,1743512678750,11.8286871606238,46.3767929144834,20.17776,1893.7224,4.90408780928,3
2025-04-01T15:04:38.850,1743512678850,11.8286875400034,46.3767885063455,20.17776,1893.7224,4.90408780928,3
2025-04-01T15:04:38.950,1743512678950,11.8286879384512,46.3767840839564,20.17776,1893.7224,4.90408780928,3
2025-04-01T15:04:39.050,1743512679050,11.8286883243855,46.3767793048766,20.17776,1893.7224,4.90408780928,3
2025-04-01T15:04:39.150,1743512679150,11.8286887192581,46.37677483576,20.17776,1893.7224,4.9091831712,3
2025-04-01T15:04:39.250,1743512679250,11.8286891739177,46.3767705372466,20.17776,1893.7224,4.9091831712,3
2025-04-01T15:04:39.350,1743512679350,11.828689576934,46.3767660774481,20.17776,1893.7224,4.9091831712,3
2025-04-01T15:04:39.450,1743512679450,11.8286899441973,46.3767619463861,20.17776,1893.7224,4.9091831712,3
2025-04-01T15:04:39.550,1743512679550,11.8286903178167,46.3767575013869,20.17776,1893.7224,4.90408780928,3
2025-04-01T15:04:39.650,1743512679650,11.8286908648384,46.3767526395406,20.17776,1893.7224,4.90408780928,3
2025-04-01T15:04:39.750,1743512679750,11.8286912225675,46.3767481312333,20.17776,1893.7224,4.90408780928,3
2025-04-01T15:04:39.850,1743512679850,11.8286915175302,46.3767441710484,20.17776,1893.7224,4.90408780928,3
2025-04-01T15:04:39.950,1743512679950,11.8286918655266,46.3767397131684,20.29968,1894.0272,4.90408780928,3
2025-04-01T15:04:40.050,1743512680050,11.8286921684344,46.3767351125024,20.29968,1894.0272,4.90408780928,3
2025-04-01T15:04:40.150,1743512680150,11.8286925225882,46.3767306431118,20.29968,1894.0272,4.90408780928,3
2025-04-01T15:04:40.250,1743512680250,11.828693082322,46.3767257479671,20.29968,1894.0272,4.90408780928,3
2025-04-01T15:04:40.350,1743512680350,11.8286934642838,46.3767212300676,20.29968,1894.0272,4.90408780928,3
2025-04-01T15:04:40.450,1743512680450,11.8286938178417,46.3767170929763,20.29968,1894.0272,4.90408780928,3
2025-04-01T15:04:40.550,1743512680550,11.8286941954337,46.3767126128972,20.29968,1894.0272,4.90408780928,3
2025-04-01T15:04:40.650,1743512680650,11.8286946632027,46.376708082391,20.29968,1894.0272,4.90408780928,3
2025-04-01T15:04:40.750,1743512680750,11.8286950558904,46.3767036132744,20.39112,1894.0272,4.9091831712,3
2025-04-01T15:04:40.850,1743512680850,11.8286953522434,46.376699122507,20.39112,1894.0272,4.9091831712,3
2025-04-01T15:04:40.950,1743512680950,11.8286957753211,46.3766946777819,20.39112,1894.0272,4.9091831712,3
2025-04-01T15:04:41.050,1743512681050,11.8286963173771,46.3766898474527,20.39112,1894.0272,4.9091831712,3
2025-04-01T15:04:41.150,1743512681150,11.8286967307221,46.3766853392824,20.39112,1894.0272,4.9091831712,3
2025-04-01T15:04:41.250,1743512681250,11.8286970358149,46.3766814685785,20.39112,1894.0272,5.00400661376,3
2025-04-01T15:04:41.340,1743512681340,11.8286973945372,46.376676963834,20.39112,1894.0272,5.00400661376,3
2025-04-01T15:04:41.450,1743512681450,11.8286979941953,46.3766718828757,20.39112,1894.0272,5.00400661376,3
2025-04-01T15:04:41.540,1743512681540,11.8286983701982,46.3766673039976,20.39112,1894.0272,5.00400661376,3
2025-04-01T15:04:41.650,1743512681650,11.8286985865041,46.3766627786985,20.39112,1894.0272,5.00400661376,3
2025-04-01T15:04:41.750,1743512681750,11.8286989851506,46.3766582429851,20.39112,1894.0272,5.00400661376,3
2025-04-01T15:04:41.850,1743512681850,11.8286993947216,46.3766534299217,20.39112,1894.0272,4.9091831712,3
2025-04-01T15:04:41.950,1743512681950,11.828699846799,46.3766489443615,20.39112,1894.0272,4.9091831712,3
2025-04-01T15:04:42.050,1743512682050,11.8287002877533,46.3766444853852,20.39112,1894.0272,4.9091831712,3
2025-04-01T15:04:42.150,1743512682150,11.8287007493648,46.3766400335345,20.39112,1894.0272,4.80937344448,3
2025-04-01T15:04:42.260,1743512682260,11.8287010379714,46.3766359335785,20.39112,1894.0272,4.80937344448,3
2025-04-01T15:04:42.360,1743512682360,11.8287014717752,46.3766315077636,20.39112,1894.0272,4.9091831712,3
2025-04-01T15:04:42.450,1743512682450,11.8287019280239,46.3766270613941,20.39112,1894.0272,4.9091831712,3
2025-04-01T15:04:42.560,1743512682560,11.8287023099857,46.3766225761079,20.39112,1894.0272,4.90408780928,3
2025-04-01T15:04:42.660,1743512682660,11.828702507422,46.3766179762641,20.39112,1894.0272,4.90408780928,3
2025-04-01T15:04:42.760,1743512682760,11.8287028476718,46.376613459735,20.48256,1894.0272,4.90408780928,3
2025-04-01T15:04:42.860,1743512682860,11.8287033162354,46.3766091018873,20.48256,1894.0272,4.90408780928,3
2025-04-01T15:04:42.960,1743512682960,11.8287037363336,46.3766046612731,20.48256,1894.0272,4.9091831712,3
2025-04-01T15:04:43.050,1743512683050,11.8287040136183,46.3765998624609,20.48256,1894.0272,4.9091831712,3
2025-04-01T15:04:43.170,1743512683170,11.8287044865517,46.3765954155433,20.48256,1894.0272,4.80937344448,3
2025-04-01T15:04:43.270,1743512683270,11.8287050607854,46.3765917063986,20.48256,1894.0272,4.9091831712,3
2025-04-01T15:04:43.370,1743512683370,11.8287055476228,46.3765872934646,20.48256,1894.0272,4.9091831712,3
2025-04-01T15:04:43.450,1743512683450,11.8287060616722,46.3765823622807,20.48256,1894.0272,4.9091831712,3
2025-04-01T15:04:43.550,1743512683550,11.8287065268591,46.3765778841202,20.48256,1894.0272,4.9091831712,3
2025-04-01T15:04:43.680,1743512683680,11.8287068510201,46.3765733212747,20.48256,1894.0272,4.9091831712,3
2025-04-01T15:04:43.780,1743512683780,11.8287073094536,46.3765688442103,20.48256,1894.0272,4.9091831712,3
2025-04-01T15:04:43.880,1743512683880,11.8287077051207,46.3765644468978,20.48256,1894.0272,4.9091831712,3
2025-04-01T15:04:43.980,1743512683980,11.8287081556092,46.3765600109427,20.48256,1894.0272,4.9091831712,3
2025-04-01T15:04:44.080,1743512684080,11.8287086086798,46.3765555300415,20.574,1894.332,4.80937344448,3
2025-04-01T15:04:44.180,1743512684180,11.8287090617504,46.3765511116263,20.574,1894.332,4.80937344448,3
2025-04-01T15:04:44.290,1743512684290,11.828709336453,46.3765467222615,20.574,1894.332,4.80937344448,3
2025-04-01T15:04:44.390,1743512684390,11.828709792503,46.3765422983651,20.574,1894.332,4.9091831712,3
2025-04-01T15:04:44.490,1743512684490,11.8287103746817,46.3765374902348,20.574,1894.332,4.91630720064,3
2025-04-01T15:04:44.590,1743512684590,11.8287108913133,46.376533024681,20.574,1894.332,4.81664544416,3
2025-04-01T15:04:44.650,1743512684650,11.8287114164858,46.3765289282878,20.574,1894.332,4.81664544416,3
2025-04-01T15:04:44.750,1743512684750,11.8287119615212,46.3765244991841,20.574,1894.332,4.81664544416,3
2025-04-01T15:04:44.850,1743512684850,11.828712444386,46.3765200259567,20.574,1894.332,4.91630720064,3
2025-04-01T15:04:44.950,1743512684950,11.8287130172293,46.3765155883571,20.574,1894.332,4.91630720064,3
2025-04-01T15:04:45.050,1743512685050,11.8287135624633,46.3765111118409,20.48256,1894.0272,4.91630720064,3
2025-04-01T15:04:45.150,1743512685150,11.8287141509982,46.3765066649233,20.48256,1894.0272,4.91630720064,3
2025-04-01T15:04:45.250,1743512685250,11.8287147325811,46.3765025334502,20.48256,1894.0272,4.91630720064,3
2025-04-01T15:04:45.350,1743512685350,11.8287153274722,46.3764981120203,20.48256,1894.0272,4.91630720064,3
2025-04-01T15:04:45.450,1743512685450,11.8287158615831,46.3764932449668,20.48256,1894.0272,4.91630720064,3
2025-04-01T15:04:45.550,1743512685550,11.8287164117828,46.3764888084636,20.48256,1894.0272,4.91630720064,3
2025-04-01T15:04:45.650,1743512685650,11.8287169774755,46.3764843990924,20.574,1894.332,4.81664544416,3
2025-04-01T15:04:45.750,1743512685750,11.8287175360176,46.3764800015058,20.574,1894.332,4.81664544416,3
2025-04-01T15:04:45.850,1743512685850,11.8287180236495,46.376475620637,20.574,1894.332,4.81664544416,3
2025-04-01T15:04:45.950,1743512685950,11.8287185879517,46.3764712159248,20.574,1894.332,4.81664544416,3
2025-04-01T15:04:46.050,1743512686050,11.828719188603,46.3764667347495,20.574,1894.332,4.81664544416,3
2025-04-01T15:04:46.150,1743512686150,11.8287197604532,46.3764622856394,20.48256,1894.0272,4.91630720064,3
2025-04-01T15:04:46.250,1743512686250,11.8287203692482,46.376457530403,20.48256,1894.0272,4.91630720064,3
2025-04-01T15:04:46.350,1743512686350,11.8287209240164,46.3764530404577,20.48256,1894.0272,4.91630720064,3
2025-04-01T15:04:46.450,1743512686450,11.8287213409367,46.3764488845932,20.48256,1894.0272,4.91630720064,3
2025-04-01T15:04:46.550,1743512686550,11.8287218571711,46.3764444341128,20.48256,1894.0272,4.91630720064,3
2025-04-01T15:04:46.650,1743512686650,11.8287223334811,46.3764399830843,20.48256,1894.0272,4.91630720064,3
2025-04-01T15:04:46.750,1743512686750,11.8287229023518,46.3764355835793,20.48256,1894.0272,4.81664544416,3
2025-04-01T15:04:46.850,1743512686850,11.8287235905979,46.3764310939082,20.48256,1894.0272,4.81664544416,3
2025-04-01T15:04:46.950,1743512686950,11.8287242442828,46.3764267256461,20.574,1894.332,4.82597919232,3
2025-04-01T15:04:47.050,1743512687050,11.8287250441579,46.3764220224813,20.574,1894.332,4.82597919232,3
2025-04-01T15:04:47.150,1743512687150,11.8287257200892,46.3764175755637,20.574,1894.332,4.82597919232,3
2025-04-01T15:04:47.240,1743512687240,11.8287262351318,46.3764138486049,20.48256,1894.0272,4.82597919232,3
2025-04-01T15:04:47.340,1743512687340,11.8287268687553,46.3764094408781,20.48256,1894.0272,4.92545229792,3
2025-04-01T15:04:47.450,1743512687450,11.8287275494537,46.3764041904129,20.48256,1894.0272,4.92545229792,3
2025-04-01T15:04:47.550,1743512687550,11.828728177317,46.3763996938903,20.48256,1894.0272,4.92545229792,3
2025-04-01T15:04:47.650,1743512687650,11.8287287571123,46.3763957235652,20.48256,1894.0272,4.92545229792,3
2025-04-01T15:04:47.750,1743512687750,11.8287293919275,46.3763912824028,20.48256,1894.0272,4.91630720064,3
2025-04-01T15:04:47.860,1743512687860,11.8287299327917,46.3763868332928,20.48256,1894.0272,4.91630720064,3
2025-04-01T15:04:47.960,1743512687960,11.8287305634358,46.3763823926786,20.48256,1894.0272,4.91630720064,3
2025-04-01T15:04:48.050,1743512688050,11.8287312931953,46.3763777868054,20.48256,1894.0272,4.91630720064,3
2025-04-01T15:04:48.150,1743512688150,11.8287319446953,46.3763733154964,20.48256,1894.0272,4.92545229792,3
2025-04-01T15:04:48.260,1743512688260,11.8287326500235,46.3763690023207,20.39112,1894.0272,4.92545229792,3
2025-04-01T15:04:48.360,1743512688360,11.8287333233726,46.3763645353966,20.39112,1894.0272,4.92545229792,3
2025-04-01T15:04:48.460,1743512688460,11.8287340253241,46.3763599306198,20.39112,1894.0272,4.92545229792,3
2025-04-01T15:04:48.570,1743512688570,11.8287346984746,46.3763554680807,20.39112,1894.0272,4.92545229792,3
2025-04-01T15:04:48.670,1743512688670,11.828735469946,46.376350917842,20.39112,1894.0272,4.92545229792,3
2025-04-01T15:04:48.770,1743512688770,11.8287361542196,46.3763464637988,20.39112,1894.0272,4.92545229792,3
2025-04-01T15:04:48.870,1743512688870,11.8287367300424,46.3763420881371,20.39112,1894.0272,4.92545229792,3
2025-04-01T15:04:48.980,1743512688980,11.8287374073641,46.3763376371086,20.39112,1894.0272,4.92545229792,3
2025-04-01T15:04:49.080,1743512689080,11.8287381712876,46.3763332110197,20.39112,1894.0272,4.92545229792,3
2025-04-01T15:04:49.180,1743512689180,11.8287388470202,46.3763287438215,20.39112,1894.0272,4.92545229792,3
2025-04-01T15:04:49.280,1743512689280,11.8287395223556,46.3763246118003,20.39112,1894.0272,4.92545229792,3
2025-04-01T15:04:49.390,1743512689390,11.8287401951089,46.3763201687196,20.39112,1894.0272,4.92545229792,3
2025-04-01T15:04:49.490,1743512689490,11.8287409761144,46.3763151665539,20.39112,1894.0272,4.92545229792,3
2025-04-01T15:04:49.590,1743512689590,11.8287416552237,46.3763106766087,20.39112,1894.0272,4.92545229792,3
2025-04-01T15:04:49.650,1743512689650,11.828742291628,46.3763059580964,20.39112,1894.0272,4.92545229792,3
2025-04-01T15:04:49.750,1743512689750,11.8287429361761,46.376301458285,20.39112,1894.0272,4.91630720064,3
2025-04-01T15:04:49.850,1743512689850,11.82874357119,46.37629733613,20.39112,1894.0272,4.91630720064,3
2025-04-01T15:04:49.950,1743512689950,11.8287441978615,46.3762928848274,20.39112,1894.0272,4.91630720064,3
2025-04-01T15:04:50.050,1743512690050,11.8287449200731,46.3762883589802,20.39112,1894.0272,4.91630720064,3
2025-04-01T15:04:50.150,1743512690150,11.8287455556829,46.3762838937005,20.39112,1894.0272,4.92545229792,3
2025-04-01T15:04:50.250,1743512690250,11.8287462121486,46.3762793045451,20.39112,1894.0272,4.92545229792,3
2025-04-01T15:04:50.350,1743512690350,11.8287468570939,46.3762747989784,20.39112,1894.0272,4.92545229792,3
2025-04-01T15:04:50.450,1743512690450,11.8287475505044,46.3762703564458,20.39112,1894.0272,4.92545229792,3
2025-04-01T15:04:50.550,1743512690550,11.8287481886964,46.3762658615675,20.39112,1894.0272,4.92545229792,3
2025-04-01T15:04:50.650,1743512690650,11.828748837217,46.3762613338018,20.39112,1894.0272,4.91630720064,3
2025-04-01T15:04:50.750,1743512690750,11.8287494710392,46.3762568740033,20.39112,1894.0272,4.91630720064,3
2025-04-01T15:04:50.850,1743512690850,11.8287501056558,46.376252428182,20.39112,1894.0272,4.82597919232,3
2025-04-01T15:04:50.950,1743512690950,11.8287507748337,46.3762480103149,20.39112,1894.0272,4.82597919232,3
2025-04-01T15:04:51.050,1743512691050,11.8287515186958,46.3762435781966,20.39112,1894.0272,4.82597919232,3
2025-04-01T15:04:51.150,1743512691150,11.8287521682096,46.3762391597814,20.39112,1894.0272,4.81664544416,3
2025-04-01T15:04:51.250,1743512691250,11.8287525853286,46.3762350633881,20.39112,1894.0272,4.81664544416,3
2025-04-01T15:04:51.350,1743512691350,11.8287531484391,46.3762306307217,20.39112,1894.0272,4.91630720064,3
2025-04-01T15:04:51.450,1743512691450,11.8287538225828,46.3762257529798,20.39112,1894.0272,4.91630720064,3
2025-04-01T15:04:51.550,1743512691550,11.8287543783441,46.37622122494,20.39112,1894.0272,4.91630720064,3
2025-04-01T15:04:51.650,1743512691650,11.8287547815591,46.3762166958041,20.39112,1894.0272,5.01598236832,3
2025-04-01T15:04:51.750,1743512691750,11.8287553283821,46.3762121578982,20.39112,1894.0272,5.01598236832,3
2025-04-01T15:04:51.850,1743512691850,11.8287560511896,46.3762076282141,20.39112,1894.0272,5.01598236832,3
2025-04-01T15:04:51.950,1743512691950,11.8287566270123,46.3762031171662,20.39112,1894.0272,4.91630720064,3
2025-04-01T15:04:52.050,1743512692050,11.8287570274465,46.3761987193055,20.39112,1894.0272,4.91630720064,3
2025-04-01T15:04:52.150,1743512692150,11.8287575973104,46.3761942745804,20.39112,1894.0272,4.91630720064,3
2025-04-01T15:04:52.240,1743512692240,11.8287581987561,46.3761894316444,20.39112,1894.0272,4.81664544416,3
2025-04-01T15:04:52.350,1743512692350,11.8287587527298,46.3761850066517,20.39112,1894.0272,4.81664544416,3
2025-04-01T15:04:52.450,1743512692450,11.8287592052046,46.3761810171423,20.39112,1894.0272,4.81664544416,3
2025-04-01T15:04:52.550,1743512692550,11.8287596767477,46.3761766450434,20.39112,1894.0272,4.80937344448,3
2025-04-01T15:04:52.650,1743512692650,11.8287600293127,46.3761721770231,20.39112,1894.0272,4.80417258112,3
2025-04-01T15:04:52.750,1743512692750,11.8287603346043,46.3761677701184,20.39112,1894.0272,4.80417258112,3
2025-04-01T15:04:52.850,1743512692850,11.8287605826909,46.3761634013083,20.39112,1894.0272,4.90102826752,3
2025-04-01T15:04:52.950,1743512692950,11.8287607179568,46.3761589875521,20.39112,1894.0272,4.90000812224,3
2025-04-01T15:04:53.050,1743512693050,11.828760790059,46.3761542451965,20.39112,1894.0272,4.90000812224,3
2025-04-01T15:04:53.150,1743512693150,11.828760715971,46.3761497851239,20.39112,1894.0272,4.90000812224,3
2025-04-01T15:04:53.250,1743512693250,11.8287606442666,46.376146133258,20.39112,1894.0272,4.90102826752,3
2025-04-01T15:04:53.360,1743512693360,11.8287602863391,46.3761417260793,20.39112,1894.0272,4.9091831712,3
2025-04-01T15:04:53.460,1743512693460,11.8287598020843,46.3761367732446,20.39112,1894.0272,4.91630720064,3
2025-04-01T15:04:53.550,1743512693550,11.8287590774896,46.3761323090612,20.39112,1894.0272,4.93660594592,3
2025-04-01T15:04:53.660,1743512693660,11.8287580617061,46.3761277659481,20.39112,1894.0272,4.94975562752,3
2025-04-01T15:04:53.770,1743512693770,11.8287569327047,46.3761232995721,20.39112,1894.0272,4.96488480224,3
2025-04-01T15:04:53.870,1743512693870,11.8287556471843,46.3761188699204,20.48256,1894.0272,5.00100786944,3
2025-04-01T15:04:53.950,1743512693950,11.8287541763438,46.3761144446537,20.48256,1894.0272,4.92443662304,3
2025-04-01T15:04:54.050,1743512694050,11.8287525609022,46.3761097340892,20.48256,1894.0272,4.94773455968,3
2025-04-01T15:04:54.150,1743512694150,11.8287507647091,46.3761053439023,20.574,1894.332,5.000008288,3
2025-04-01T15:04:54.270,1743512694270,11.8287489023728,46.3761013993389,20.574,1894.332,4.93356652096,3
2025-04-01T15:04:54.370,1743512694370,11.8287467778474,46.3760971437161,20.69592,1894.332,4.96488480224,3
2025-04-01T15:04:54.480,1743512694480,11.8287445345425,46.3760927650398,20.69592,1894.332,4.90408780928,3
2025-04-01T15:04:54.550,1743512694550,11.8287420904246,46.3760885919094,20.78736,1894.332,4.88467777952,3
2025-04-01T15:04:54.680,1743512694680,11.8287394431102,46.3760842244696,20.78736,1894.332,4.92443662304,3
2025-04-01T15:04:54.750,1743512694750,11.8287366647013,46.3760801373944,20.8788,1894.6368,4.87545668544,3
2025-04-01T15:04:54.850,1743512694850,11.8287335668986,46.3760761185605,20.8788,1894.6368,4.8764821952,3
2025-04-01T15:04:54.950,1743512694950,11.8287304140758,46.3760721808487,20.97024,1894.6368,4.92443662304,3
2025-04-01T15:04:55.090,1743512695090,11.8287271468434,46.3760683442655,21.09216,1894.6368,4.8877476032,3
2025-04-01T15:04:55.150,1743512695150,11.8287236205999,46.3760645745533,21.09216,1894.6368,4.9091831712,3
2025-04-01T15:04:55.290,1743512695290,11.8287199096324,46.3760609870917,21.1836,1894.9416,4.88263033632,3
2025-04-01T15:04:55.350,1743512695350,11.8287160181119,46.3760573549582,21.27504,1894.9416,4.92037392352,3
2025-04-01T15:04:55.450,1743512695450,11.8287122221314,46.3760539875679,21.39696,1894.9416,4.98197558848,3
2025-04-01T15:04:55.550,1743512695550,11.8287080284976,46.3760505083605,21.39696,1894.9416,4.96790500448,3
2025-04-01T15:04:55.650,1743512695650,11.8287036163729,46.376047140148,21.4884,1895.2464,4.957830064,3
2025-04-01T15:04:55.750,1743512695750,11.8286991301599,46.3760438522354,21.57984,1895.2464,4.95177535424,3
2025-04-01T15:04:55.850,1743512695850,11.8286944580311,46.3760406259866,21.57984,1895.2464,4.94975562752,3
2025-04-01T15:04:55.950,1743512695950,11.8286896806294,46.3760375230653,21.67128,1895.2464,5.02494596736,3
2025-04-01T15:04:56.050,1743512696050,11.8286848188107,46.3760344804375,21.7932,1895.5512,5.03290015008,3
2025-04-01T15:04:56.150,1743512696150,11.8286798046443,46.3760315622335,21.88464,1895.5512,5.04480750752,3
2025-04-01T15:04:56.250,1743512696250,11.8286744923372,46.3760287764011,21.97608,1895.5512,4.92037392352,3
2025-04-01T15:04:56.350,1743512696350,11.8286692509403,46.3760260736093,21.97608,1895.5512,4.94065568128,3
2025-04-01T15:04:56.450,1743512696450,11.828663992064,46.3760234176819,22.098,1895.856,4.96488480224,3
2025-04-01T15:04:56.550,1743512696550,11.8286585993124,46.376020956064,22.18944,1895.856,4.85490223328,3
2025-04-01T15:04:56.650,1743512696650,11.8286530754663,46.3760187386346,22.28088,1895.856,4.8877476032,3
2025-04-01T15:04:56.750,1743512696750,11.8286475118947,46.3760165157239,22.49424,1896.1608,4.92443662304,3
2025-04-01T15:04:56.850,1743512696850,11.8286419735487,46.3760142769178,22.58568,1896.1608,4.8764821952,3
2025-04-01T15:04:56.950,1743512696950,11.8286362435267,46.3760122474944,22.67712,1896.4656,4.91935735456,3
2025-04-01T15:04:57.050,1743512697050,11.8286305268128,46.3760104173135,22.79904,1896.4656,4.92443662304,3
2025-04-01T15:04:57.150,1743512697150,11.8286246309364,46.3760086054947,22.89048,1896.4656,4.88467777952,3
2025-04-01T15:04:57.250,1743512697250,11.8286184681039,46.3760069531796,22.98192,1896.7704,4.93964358272,3
2025-04-01T15:04:57.350,1743512697350,11.8286123825376,46.3760053718463,23.07336,1896.7704,4.90408780928,3
2025-04-01T15:04:57.450,1743512697450,11.8286058532363,46.3760036504677,23.19528,1896.7704,4.96488480224,3
2025-04-01T15:04:57.550,1743512697550,11.8285995960554,46.3760022664585,23.28672,1897.0752,4.90408780928,3
2025-04-01T15:04:57.650,1743512697650,11.8285938479581,46.376001203375,23.37816,1897.0752,4.97293465152,3
2025-04-01T15:04:57.750,1743512697750,11.8285875653527,46.3760000424517,23.4696,1897.0752,4.94773455968,3
2025-04-01T15:04:57.850,1743512697850,11.8285812088577,46.3759989357925,23.59152,1897.38,4.92443662304,3
2025-04-01T15:04:57.940,1743512697940,11.828574871431,46.3759979543792,23.68296,1897.38,4.90306811104,3
2025-04-01T15:04:58.050,1743512698050,11.8285685415521,46.3759971354843,23.7744,1897.38,4.98197558848,3
2025-04-01T15:04:58.150,1743512698150,11.8285621459274,46.3759963138487,23.89632,1897.38,4.96488480224,3
2025-04-01T15:04:58.240,1743512698240,11.8285556511872,46.3759956229404,23.98776,1897.6848,4.96488480224,3
2025-04-01T15:04:58.350,1743512698350,11.8285491997479,46.3759949262767,24.0792,1897.6848,4.94975562752,3
2025-04-01T15:04:58.450,1743512698450,11.8285427435416,46.3759942655151,24.17064,1897.6848,4.94975562752,3
2025-04-01T15:04:58.550,1743512698550,11.8285362809791,46.3759936655951,24.29256,1897.9896,4.93660594592,3
2025-04-01T15:04:58.650,1743512698650,11.8285299028335,46.3759929752349,24.384,1897.9896,4.93660594592,3
2025-04-01T15:04:58.750,1743512698750,11.8285234523874,46.3759924391711,24.47544,1897.9896,4.92545229792,3
2025-04-01T15:04:58.850,1743512698850,11.8285167610054,46.3759920826174,24.59736,1898.2944,4.92545229792,3
2025-04-01T15:04:58.950,1743512698950,11.8285102757995,46.3759916024622,24.6888,1898.2944,4.92545229792,3
2025-04-01T15:04:59.050,1743512699050,11.8285038207849,46.375991118196,24.78024,1898.2944,4.92545229792,3
2025-04-01T15:04:59.150,1743512699150,11.8284973260446,46.3759906665431,24.9936,1898.5992,4.92545229792,3
2025-04-01T15:04:59.260,1743512699260,11.8284909085706,46.3759901792622,25.08504,1898.5992,4.91630720064,3
2025-04-01T15:04:59.360,1743512699360,11.8284844738161,46.3759897418605,25.17648,1898.904,4.91630720064,3
2025-04-01T15:04:59.460,1743512699460,11.828477959213,46.375989251839,25.2984,1898.904,4.91630720064,3
2025-04-01T15:04:59.550,1743512699550,11.8284715326023,46.3759888125188,25.38984,1898.904,4.91630720064,3
2025-04-01T15:04:59.660,1743512699660,11.8284650233622,46.3759883863536,25.48128,1899.2088,4.91630720064,3
2025-04-01T15:04:59.750,1743512699750,11.8284585981417,46.3759879434706,25.57272,1899.2088,4.91630720064,3
2025-04-01T15:04:59.870,1743512699870,11.8284522591259,46.3759874962027,25.69464,1899.2088,4.91630720064,3
2025-04-01T15:04:59.950,1743512699950,11.8284458795899,46.3759870429054,25.78608,1899.5136,4.91630720064,3
2025-04-01T15:05:00.070,1743512700070,11.8284389403201,46.375986521915,25.87752,1899.5136,4.81664544416,3
2025-04-01T15:05:00.170,1743512700170,11.8284325599896,46.3759860434041,25.99944,1899.5136,4.81664544416,3
2025-04-01T15:05:00.280,1743512700280,11.8284268416864,46.3759856007952,26.09088,1899.8184,4.82597919232,3
2025-04-01T15:05:00.380,1743512700380,11.8284205646425,46.3759850976188,26.18232,1899.8184,4.82597919232,3
2025-04-01T15:05:00.450,1743512700450,11.8284144621926,46.3759844681001,26.27376,1899.8184,4.82597919232,3
2025-04-01T15:05:00.550,1743512700550,11.8284081948816,46.3759839155926,26.39568,1900.1232,4.83736261888,3
2025-04-01T15:05:00.650,1743512700650,11.828401882482,46.3759834749022,26.48712,1900.1232,4.83736261888,3
2025-04-01T15:05:00.780,1743512700780,11.8283955762398,46.3759828955367,26.57856,1900.1232,4.83736261888,3
2025-04-01T15:05:00.890,1743512700890,11.8283891538002,46.3759821966806,26.67,1900.428,4.83736261888,3
2025-04-01T15:05:00.990,1743512700990,11.8283828274966,46.3759815759318,26.79192,1900.428,4.83736261888,3
2025-04-01T15:05:01.090,1743512701090,11.8283763093183,46.375980990537,26.88336,1900.428,4.83736261888,3
2025-04-01T15:05:01.190,1743512701190,11.8283699653368,46.3759803588259,26.9748,1900.7328,4.83736261888,3
2025-04-01T15:05:01.250,1743512701250,11.8283635842118,46.3759797076564,27.09672,1900.7328,4.83736261888,3
2025-04-01T15:05:01.350,1743512701350,11.8283572491686,46.3759790616941,27.18816,1900.7328,4.83736261888,3
2025-04-01T15:05:01.450,1743512701450,11.8283510762058,46.3759784669812,27.2796,1901.0376,4.85078097152,3
2025-04-01T15:05:01.550,1743512701550,11.8283447789018,46.3759777979977,27.37104,1901.0376,4.85078097152,3
2025-04-01T15:05:01.650,1743512701650,11.8283382911136,46.3759770569361,27.49296,1901.0376,4.85078097152,3
2025-04-01T15:05:01.750,1743512701750,11.8283319868577,46.3759763652056,27.67584,1901.3424,4.85078097152,3
2025-04-01T15:05:01.850,1743512701850,11.8283252954757,46.3759756359286,27.79776,1901.3424,4.85078097152,3
2025-04-01T15:05:01.950,1743512701950,11.8283189594392,46.3759749318653,27.8892,1901.6472,4.85078097152,3
2025-04-01T15:05:02.050,1743512702050,11.8283127618466,46.3759743201606,27.98064,1901.6472,4.85078097152,3
2025-04-01T15:05:02.150,1743512702150,11.8283064699055,46.3759736097939,28.07208,1901.6472,4.85078097152,3
2025-04-01T15:05:02.250,1743512702250,11.828300784376,46.3759729092934,28.194,1901.952,4.75184923136,3
2025-04-01T15:05:02.350,1743512702350,11.8282945885709,46.3759721816608,28.28544,1901.952,4.76760649728,3
2025-04-01T15:05:02.450,1743512702450,11.8282878379978,46.3759713761948,28.37688,1901.952,4.76760649728,3
2025-04-01T15:05:02.550,1743512702550,11.8282816050494,46.3759706219783,28.4988,1902.2568,4.76760649728,3
2025-04-01T15:05:02.650,1743512702650,11.8282754477782,46.3759699110635,28.59024,1902.2568,4.76760649728,3
2025-04-01T15:05:02.750,1743512702750,11.8282692205899,46.3759691464326,28.68168,1902.2568,4.76760649728,3
2025-04-01T15:05:02.850,1743512702850,11.8282629689704,46.3759683401445,28.77312,1902.5616,4.76760649728,3
2025-04-01T15:05:02.950,1743512702950,11.8282567648231,46.3759675903129,28.89504,1902.5616,4.76760649728,3
2025-04-01T15:05:03.050,1743512703050,11.8282506697225,46.3759668873459,28.98648,1902.5616,4.75184923136,3
2025-04-01T15:05:03.150,1743512703150,11.8282444661711,46.3759661920525,29.19984,1902.8664,4.75184923136,3
2025-04-01T15:05:03.250,1743512703250,11.8282387726965,46.3759656137833,29.29128,1902.8664,4.75184923136,3
2025-04-01T15:05:03.350,1743512703350,11.8282325907955,46.3759649571326,29.38272,1903.1712,4.75184923136,3
2025-04-01T15:05:03.450,1743512703450,11.8282262428414,46.3759643659825,29.47416,1903.1712,4.75184923136,3
2025-04-01T15:05:03.550,1743512703550,11.8282200295571,46.37596370111,29.59608,1903.1712,4.75184923136,3
2025-04-01T15:05:03.650,1743512703650,11.8282134265646,46.3759628789263,29.68752,1903.476,4.75184923136,3
2025-04-01T15:05:03.750,1743512703750,11.8282072039448,46.3759621784257,29.77896,1903.476,4.75184923136,3
2025-04-01T15:05:03.850,1743512703850,11.8282014349914,46.375961579602,29.8704,1903.476,4.75184923136,3
2025-04-01T15:05:03.950,1743512703950,11.8281952942064,46.3759608974635,29.99232,1903.7808,4.75184923136,3
2025-04-01T15:05:04.050,1743512704050,11.8281890600662,46.3759602868551,30.08376,1903.7808,4.75184923136,3
2025-04-01T15:05:04.150,1743512704150,11.82818288472,46.3759596244491,30.1752,1903.7808,4.75184923136,3
2025-04-01T15:05:04.240,1743512704240,11.8281764769789,46.3759589099715,30.29712,1903.7808,4.75184923136,3
2025-04-01T15:05:04.350,1743512704350,11.8281702531674,46.3759582420842,30.48,1904.0856,4.75184923136,3
2025-04-01T15:05:04.450,1743512704450,11.8281640686842,46.3759575122592,30.57144,1904.0856,4.75184923136,3
2025-04-01T15:05:04.550,1743512704550,11.8281578476535,46.3759568331354,30.69336,1904.3904,4.75184923136,3
2025-04-01T15:05:04.650,1743512704650,11.8281514804325,46.3759562184161,30.7848,1904.3904,4.85078097152,3
2025-04-01T15:05:04.750,1743512704750,11.8281452230529,46.3759555362777,30.87624,1904.3904,4.85078097152,3
2025-04-01T15:05:04.850,1743512704850,11.8281383987889,46.375954700939,30.99816,1904.6952,4.85078097152,3
2025-04-01T15:05:04.950,1743512704950,11.828132007534,46.3759540105788,31.0896,1904.6952,4.85078097152,3
2025-04-01T15:05:05.060,1743512705060,11.8281256522307,46.3759534572492,31.18104,1904.6952,4.94975562752,3
2025-04-01T15:05:05.150,1743512705150,11.8281192327705,46.3759527874435,31.27248,1905,4.85078097152,3
2025-04-01T15:05:05.270,1743512705270,11.8281127124072,46.3759520847505,31.3944,1905,4.85078097152,3
2025-04-01T15:05:05.370,1743512705370,11.8281063142002,46.3759513995974,31.48584,1905,4.85078097152,3
2025-04-01T15:05:05.470,1743512705470,11.828100592719,46.3759506925194,31.57728,1905.3048,4.85078097152,3
2025-04-01T15:05:05.570,1743512705570,11.8280942445663,46.3759500144919,31.6992,1905.3048,4.85078097152,3
2025-04-01T15:05:05.680,1743512705680,11.8280877726683,46.3759492794597,31.79064,1905.3048,4.85078097152,3
2025-04-01T15:05:05.780,1743512705780,11.8280814030638,46.3759486085578,31.88208,1905.6096,4.85078097152,3
2025-04-01T15:05:05.880,1743512705880,11.8280748608515,46.3759480840046,31.97352,1905.6096,4.85078097152,3
2025-04-01T15:05:05.980,1743512705980,11.828068477343,46.3759474429754,32.09544,1905.6096,4.85078097152,3
2025-04-01T15:05:06.080,1743512706080,11.8280620235201,46.3759466994472,32.18688,1905.9144,4.85078097152,3
2025-04-01T15:05:06.180,1743512706180,11.8280556586827,46.3759460189532,32.27832,1905.9144,4.85078097152,3
2025-04-01T15:05:06.290,1743512706290,11.8280491285867,46.3759453453107,32.36976,1905.9144,4.85078097152,3
2025-04-01T15:05:06.390,1743512706390,11.8280427367359,46.3759446596094,32.49168,1906.2192,4.94975562752,3
2025-04-01T15:05:06.490,1743512706490,11.828036327803,46.3759438533213,32.58312,1906.2192,4.94975562752,3
2025-04-01T15:05:06.590,1743512706590,11.8280299522395,46.3759431667979,32.67456,1906.2192,4.85078097152,3
2025-04-01T15:05:06.690,1743512706690,11.8280235399298,46.3759426312823,32.79648,1906.524,4.85078097152,3
2025-04-01T15:05:06.750,1743512706750,11.8280172507695,46.3759419762759,32.88792,1906.524,4.85078097152,3
2025-04-01T15:05:06.850,1743512706850,11.8280105554149,46.3759411902683,32.97936,1906.524,4.75184923136,3
2025-04-01T15:05:06.950,1743512706950,11.8280043161103,46.375940513063,33.19272,1906.8288,4.75184923136,3
2025-04-01T15:05:07.050,1743512707050,11.8279985721841,46.3759399463043,33.28416,1906.8288,4.75184923136,3
2025-04-01T15:05:07.150,1743512707150,11.8279923743929,46.3759392542997,33.3756,1907.1336,4.75184923136,3
2025-04-01T15:05:07.250,1743512707250,11.8279860526578,46.3759384197833,33.49752,1907.1336,4.75184923136,3
2025-04-01T15:05:07.350,1743512707350,11.8279798032233,46.3759377239418,33.58896,1907.1336,4.85078097152,3
2025-04-01T15:05:07.450,1743512707450,11.827973505125,46.3759371689678,33.6804,1907.4384,4.85078097152,3
2025-04-01T15:05:07.550,1743512707550,11.8279671794173,46.375936502999,33.77184,1907.4384,4.85078097152,3
2025-04-01T15:05:07.650,1743512707650,11.8279608167648,46.3759358471705,33.89376,1907.4384,4.85078097152,3
2025-04-01T15:05:07.750,1743512707750,11.8279544614615,46.3759351787351,33.9852,1907.7432,4.85078097152,3
2025-04-01T15:05:07.850,1743512707850,11.8279475563557,46.3759343938237,34.07664,1907.7432,4.85078097152,3
2025-04-01T15:05:07.950,1743512707950,11.8279411817854,46.3759337092188,34.19856,1907.7432,4.85078097152,3
2025-04-01T15:05:08.050,1743512708050,11.8279354755985,46.3759331235499,34.29,1908.048,4.85078097152,3
2025-04-01T15:05:08.150,1743512708150,11.8279292136503,46.3759324441521,34.38144,1908.048,4.85078097152,3
2025-04-01T15:05:08.250,1743512708250,11.8279228521894,46.3759316551298,34.47288,1908.048,4.75184923136,3
2025-04-01T15:05:08.350,1743512708350,11.8279166136793,46.375930975732,34.5948,1908.3528,4.75184923136,3
2025-04-01T15:05:08.450,1743512708450,11.82791041271,46.3759304084253,34.68624,1908.3528,4.75184923136,3
2025-04-01T15:05:08.550,1743512708550,11.8279041606934,46.3759297441008,34.77768,1908.3528,4.75184923136,3
2025-04-01T15:05:08.650,1743512708650,11.8278977297128,46.3759290257863,34.8996,1908.6576,4.75184923136,3
2025-04-01T15:05:08.750,1743512708750,11.8278914272446,46.3759283718762,34.99104,1908.6576,4.85078097152,3
2025-04-01T15:05:08.850,1743512708850,11.8278852298506,46.3759276617836,35.08248,1908.6576,4.85078097152,3
2025-04-01T15:05:08.950,1743512708950,11.8278789325467,46.3759270084216,35.17392,1908.9624,4.85078097152,3
2025-04-01T15:05:09.050,1743512709050,11.8278725154701,46.3759264274118,35.29584,1908.9624,4.85078097152,3
2025-04-01T15:05:09.150,1743512709150,11.8278662004883,46.3759257861085,35.38728,1908.9624,4.85078097152,3
2025-04-01T15:05:09.250,1743512709250,11.8278597434874,46.3759251478199,35.47872,1909.2672,4.85078097152,3
2025-04-01T15:05:09.340,1743512709340,11.8278534219508,46.3759245018575,35.57016,1909.2672,4.85078097152,3
2025-04-01T15:05:09.450,1743512709450,11.827847168941,46.3759238432884,35.57016,1909.2672,4.85078097152,3
2025-04-01T15:05:09.540,1743512709540,11.8278408539591,46.3759232003407,35.69208,1909.2672,4.85078097152,3
2025-04-01T15:05:09.640,1743512709640,11.8278344569439,46.3759225360163,35.78352,1909.572,4.85078097152,3
2025-04-01T15:05:09.750,1743512709750,11.8278281369964,46.3759218911502,35.87496,1909.572,4.85078097152,3
2025-04-01T15:05:09.850,1743512709850,11.8278217370018,46.3759212342254,35.87496,1909.572,4.85078097152,3
2025-04-01T15:05:09.950,1743512709950,11.8278154190405,46.3759205918259,35.99688,1909.572,4.85078097152,3
2025-04-01T15:05:10.050,1743512710050,11.8278091954276,46.3759197863599,36.08832,1909.8768,4.83736261888,3
2025-04-01T15:05:10.150,1743512710150,11.8278028943497,46.3759191412198,36.08832,1909.8768,4.83736261888,3
2025-04-01T15:05:10.250,1743512710250,11.8277965036906,46.3759186824413,36.17976,1909.8768,4.83736261888,3
2025-04-01T15:05:10.350,1743512710350,11.8277902258522,46.3759180603223,36.2712,1909.8768,4.83736261888,3
2025-04-01T15:05:10.460,1743512710460,11.8277834907719,46.3759173589996,36.2712,1909.8768,4.73815058464,3
2025-04-01T15:05:10.560,1743512710560,11.8277771924748,46.3759167061857,36.39312,1910.1816,4.75184923136,3
2025-04-01T15:05:10.660,1743512710660,11.8277714801305,46.3759160478906,36.39312,1910.1816,4.75184923136,3
2025-04-01T15:05:10.750,1743512710750,11.827765252545,46.3759153750703,36.48456,1910.1816,4.75184923136,3
2025-04-01T15:05:10.860,1743512710860,11.8277589391522,46.3759148179038,36.576,1910.1816,4.75184923136,3
2025-04-01T15:05:10.950,1743512710950,11.8277527046148,46.3759141908517,36.576,1910.1816,4.73815058464,3
2025-04-01T15:05:11.070,1743512711070,11.8277465977952,46.3759134410202,36.69792,1910.1816,4.73815058464,3
2025-04-01T15:05:11.150,1743512711150,11.8277403729905,46.3759128216418,36.78936,1910.4864,4.73815058464,3
2025-04-01T15:05:11.270,1743512711270,11.8277340460909,46.3759122477576,36.78936,1910.4864,4.73815058464,3
2025-04-01T15:05:11.370,1743512711370,11.8277278151288,46.3759116341345,36.8808,1910.4864,4.73815058464,3
2025-04-01T15:05:11.470,1743512711470,11.8277216932134,46.3759109533664,36.8808,1910.4864,4.73815058464,3
2025-04-01T15:05:11.580,1743512711580,11.8277154630458,46.375910347417,36.97224,1910.4864,4.73815058464,3
2025-04-01T15:05:11.680,1743512711680,11.8277091560092,46.3759096499311,36.97224,1910.4864,4.73815058464,3
2025-04-01T15:05:11.780,1743512711780,11.8277029000199,46.3759090313749,37.09416,1910.7912,4.73815058464,3
2025-04-01T15:05:11.880,1743512711880,11.8276962245282,46.3759084336474,37.09416,1910.7912,4.83736261888,3
2025-04-01T15:05:11.980,1743512711980,11.8276898849166,46.375907818928,37.1856,1910.7912,4.83736261888,3
2025-04-01T15:05:12.080,1743512712080,11.827684107621,46.3759072946489,37.1856,1910.7912,4.83736261888,3
2025-04-01T15:05:12.190,1743512712190,11.8276777686052,46.3759067278903,37.1856,1910.7912,4.83736261888,3
2025-04-01T15:05:12.290,1743512712290,11.827671421247,46.3759062307432,37.27704,1910.7912,4.82597919232,3
2025-04-01T15:05:12.390,1743512712390,11.8276650568069,46.3759057116712,37.27704,1910.7912,4.92545229792,3
2025-04-01T15:05:12.450,1743512712450,11.8276586389357,46.3759052098651,37.39896,1911.096,4.92545229792,3
2025-04-01T15:05:12.550,1743512712550,11.8276522447013,46.3759047031259,37.39896,1911.096,4.92545229792,3
2025-04-01T15:05:12.650,1743512712650,11.8276459589179,46.3759042004976,37.39896,1911.096,4.92545229792,3
2025-04-01T15:05:12.750,1743512712750,11.827639531314,46.3759037091058,37.4904,1911.096,4.92545229792,3
2025-04-01T15:05:12.850,1743512712850,11.8276324692922,46.3759030900015,37.4904,1911.096,4.92545229792,3
2025-04-01T15:05:12.950,1743512712950,11.827625935025,46.3759026205346,37.4904,1911.096,4.91630720064,3
2025-04-01T15:05:13.050,1743512713050,11.8276195155648,46.3759022160202,37.58184,1911.096,4.91630720064,3
2025-04-01T15:05:13.150,1743512713150,11.8276129933145,46.3759017783444,37.58184,1911.096,4.91630720064,3
2025-04-01T15:05:13.250,1743512713250,11.8276072266454,46.3759013675266,37.58184,1911.096,4.91630720064,3
2025-04-01T15:05:13.350,1743512713350,11.8276007916922,46.3759009421836,37.67328,1911.4008,4.91630720064,3
2025-04-01T15:05:13.450,1743512713450,11.8275947525055,46.3759007133424,37.67328,1911.4008,4.91630720064,3
2025-04-01T15:05:13.550,1743512713550,11.8275883507232,46.3759003291086,37.67328,1911.4008,4.91630720064,3
2025-04-01T15:05:13.650,1743512713650,11.8275811581033,46.3758998300431,37.7952,1911.4008,4.91630720064,3
2025-04-01T15:05:13.750,1743512713750,11.8275746826301,46.3758994260768,37.7952,1911.4008,4.91630720064,3
2025-04-01T15:05:13.850,1743512713850,11.8275687558668,46.3758990703453,37.7952,1911.4008,4.91630720064,3
2025-04-01T15:05:13.950,1743512713950,11.8275623480263,46.375898648017,37.7952,1911.4008,4.91630720064,3
2025-04-01T15:05:14.050,1743512714050,11.8275552589909,46.3758981670395,37.88664,1911.4008,4.91630720064,3
2025-04-01T15:05:14.150,1743512714150,11.8275488083461,46.3758977567698,37.88664,1911.4008,4.91630720064,3
2025-04-01T15:05:14.250,1743512714250,11.8275424319882,46.3758974010384,37.88664,1911.4008,4.91630720064,3
2025-04-01T15:05:14.350,1743512714350,11.8275359937577,46.3758970107752,37.88664,1911.4008,4.91630720064,3
2025-04-01T15:05:14.450,1743512714450,11.8275295138153,46.3758967084856,37.88664,1911.4008,4.91630720064,3
2025-04-01T15:05:14.550,1743512714550,11.8275230744923,46.3758963357624,37.88664,1911.4008,4.91630720064,3
2025-04-01T15:05:14.650,1743512714650,11.8275166015018,46.3758957977801,37.88664,1911.4008,4.91630720064,3
2025-04-01T15:05:14.730,1743512714730,11.8275101722095,46.375895403406,37.88664,1911.4008,4.91630720064,3
2025-04-01T15:05:14.850,1743512714850,11.8275038613989,46.3758950019063,37.88664,1911.4008,4.91630720064,3
2025-04-01T15:05:14.950,1743512714950,11.8274974407469,46.3758946075322,37.88664,1911.4008,4.91630720064,3
2025-04-01T15:05:15.040,1743512715040,11.827490920781,46.37589420384,37.88664,1911.4008,4.91630720064,3
2025-04-01T15:05:15.150,1743512715150,11.8274844646739,46.3758938154952,37.88664,1911.4008,4.91630720064,3
2025-04-01T15:05:15.240,1743512715240,11.8274780507754,46.3758935814469,37.88664,1911.4008,4.9091831712,3
2025-04-01T15:05:15.350,1743512715350,11.8274715877163,46.3758932229749,37.88664,1911.4008,4.9091831712,3
2025-04-01T15:05:15.450,1743512715450,11.8274650614936,46.3758928272304,37.7952,1911.4008,4.9091831712,3
2025-04-01T15:05:15.550,1743512715550,11.827458578671,46.3758924780764,37.7952,1911.4008,4.9091831712,3
2025-04-01T15:05:15.650,1743512715650,11.8274516176514,46.3758920283419,37.7952,1911.4008,4.9091831712,3
2025-04-01T15:05:15.750,1743512715750,11.8274450898396,46.3758916786398,37.7952,1911.4008,4.9091831712,3
2025-04-01T15:05:15.850,1743512715850,11.8274392512672,46.3758914045786,37.7952,1911.4008,4.9091831712,3
2025-04-01T15:05:15.950,1743512715950,11.8274327862219,46.3758910628242,37.7952,1911.4008,4.9091831712,3
2025-04-01T15:05:16.050,1743512716050,11.8274257256897,46.3758906983228,37.7952,1911.4008,4.9091831712,3
2025-04-01T15:05:16.170,1743512716170,11.8274191904294,46.3758903595831,37.67328,1911.4008,4.9091831712,3
2025-04-01T15:05:16.270,1743512716270,11.827413348083,46.375890184458,37.67328,1911.4008,4.9091831712,3
2025-04-01T15:05:16.370,1743512716370,11.8274068725103,46.3758898539401,37.67328,1911.4008,4.9091831712,3
2025-04-01T15:05:16.470,1743512716470,11.8274001656354,46.3758894332561,37.67328,1911.4008,4.9091831712,3
2025-04-01T15:05:16.580,1743512716580,11.8273936801314,46.3758890676584,37.67328,1911.4008,4.91630720064,3
2025-04-01T15:05:16.650,1743512716650,11.8273868905278,46.3758887324815,37.67328,1911.4008,4.91630720064,3
2025-04-01T15:05:16.780,1743512716780,11.8273803970786,46.3758883518105,37.58184,1911.096,4.91630720064,3
2025-04-01T15:05:16.880,1743512716880,11.8273743578917,46.3758879588066,37.58184,1911.096,4.91630720064,3
2025-04-01T15:05:16.980,1743512716980,11.8273679762701,46.3758875690916,37.58184,1911.096,4.91630720064,3
2025-04-01T15:05:17.050,1743512717050,11.8273615267177,46.3758872456993,37.58184,1911.096,4.91630720064,3
2025-04-01T15:05:17.180,1743512717180,11.8273551483736,46.3758868647542,37.58184,1911.096,4.91630720064,3
2025-04-01T15:05:17.290,1743512717290,11.827348693657,46.3758864243378,37.58184,1911.096,4.91630720064,3
2025-04-01T15:05:17.390,1743512717390,11.8273422504609,46.3758860496961,37.58184,1911.096,4.9091831712,3
2025-04-01T15:05:17.490,1743512717490,11.8273355627536,46.3758856514851,37.4904,1911.096,5.00900005056,3
2025-04-01T15:05:17.590,1743512717590,11.8273290110073,46.3758852809543,37.4904,1911.096,5.00900005056,3
2025-04-01T15:05:17.650,1743512717650,11.8273223249883,46.3758848769881,37.4904,1911.096,5.00900005056,3
2025-04-01T15:05:17.750,1743512717750,11.8273156950818,46.3758845165975,37.4904,1911.096,5.00900005056,3
2025-04-01T15:05:17.850,1743512717850,11.8273090121415,46.3758842729571,37.4904,1911.096,5.10882408256,3
2025-04-01T15:05:17.950,1743512717950,11.8273023779643,46.375883936958,37.4904,1911.096,5.10882408256,3
2025-04-01T15:05:18.050,1743512718050,11.8272953321305,46.375883466943,37.39896,1911.096,5.00900005056,3
2025-04-01T15:05:18.150,1743512718150,11.8272886936828,46.3758831169668,37.39896,1911.096,5.00900005056,3
2025-04-01T15:05:18.250,1743512718250,11.827282114029,46.3758829574632,37.39896,1911.096,5.00900005056,3
2025-04-01T15:05:18.350,1743512718350,11.8272755132214,46.3758826444852,37.39896,1911.096,5.00900005056,3
2025-04-01T15:05:18.450,1743512718450,11.8272694617197,46.3758823172562,37.39896,1911.096,5.00900005056,3
2025-04-01T15:05:18.550,1743512718550,11.8272629251682,46.3758819998932,37.39896,1911.096,5.00900005056,3
2025-04-01T15:05:18.650,1743512718650,11.8272558284856,46.3758815805795,37.39896,1911.096,5.00900005056,3
2025-04-01T15:05:18.750,1743512718750,11.8272492616434,46.3758812363586,37.39896,1911.096,5.00900005056,3
2025-04-01T15:05:18.850,1743512718850,11.8272426901335,46.3758811070017,37.27704,1910.7912,5.00900005056,3
2025-04-01T15:05:18.950,1743512718950,11.827236131137,46.3758807934757,37.27704,1910.7912,4.9091831712,3
2025-04-01T15:05:19.050,1743512719050,11.8272302156954,46.3758803851244,37.27704,1910.7912,4.9091831712,3
2025-04-01T15:05:19.150,1743512719150,11.8272238016974,46.3758800315854,37.27704,1910.7912,4.9091831712,3
2025-04-01T15:05:19.250,1743512719250,11.8272173484704,46.3758797292959,37.27704,1910.7912,4.91630720064,3
2025-04-01T15:05:19.350,1743512719350,11.8272109648626,46.3758793502692,37.27704,1910.7912,4.91630720064,3
2025-04-01T15:05:19.450,1743512719450,11.8272044381433,46.375878995634,37.27704,1910.7912,4.91630720064,3
2025-04-01T15:05:19.550,1743512719550,11.8271980056731,46.3758786141407,37.27704,1910.7912,4.91630720064,3
2025-04-01T15:05:19.650,1743512719650,11.8271913193561,46.3758782477208,37.27704,1910.7912,4.91630720064,3
2025-04-01T15:05:19.730,1743512719730,11.8271848469616,46.3758778793826,37.1856,1910.7912,4.91630720064,3
2025-04-01T15:05:19.850,1743512719850,11.8271778077818,46.37587742033,37.1856,1910.7912,4.91630720064,3
2025-04-01T15:05:19.950,1743512719950,11.8271713083738,46.3758770437698,37.1856,1910.7912,4.91630720064,3
2025-04-01T15:05:20.040,1743512720040,11.8271653209296,46.3758768127362,37.1856,1910.7912,4.91630720064,3
2025-04-01T15:05:20.150,1743512720150,11.8271589073289,46.3758764452201,37.1856,1910.7912,4.91630720064,3
2025-04-01T15:05:20.250,1743512720250,11.8271524086161,46.375875965887,37.1856,1910.7912,4.91630720064,3
2025-04-01T15:05:20.340,1743512720340,11.827145969889,46.3758755819272,37.1856,1910.7912,4.91630720064,3
2025-04-01T15:05:20.450,1743512720450,11.8271390264481,46.3758752382544,37.09416,1910.7912,4.91630720064,3
2025-04-01T15:05:20.550,1743512720550,11.8271325189957,46.3758748614202,37.09416,1910.7912,4.91630720064,3
2025-04-01T15:05:20.650,1743512720650,11.8271258945514,46.3758744204557,37.09416,1910.7912,4.91630720064,3
2025-04-01T15:05:20.750,1743512720750,11.8271193623698,46.3758740532136,37.09416,1910.7912,4.91630720064,3
2025-04-01T15:05:20.850,1743512720850,11.8271129488684,46.3758736577433,37.09416,1910.7912,4.91630720064,3
2025-04-01T15:05:20.950,1743512720950,11.827106419269,46.3758732915975,37.09416,1910.7912,4.91630720064,3
2025-04-01T15:05:21.060,1743512721060,11.8271005502071,46.3758729101042,36.97224,1910.4864,4.91630720064,3
2025-04-01T15:05:21.150,1743512721150,11.827094102939,46.3758725346403,36.97224,1910.4864,4.91630720064,3
2025-04-01T15:05:21.250,1743512721250,11.8270874291355,46.3758722172774,36.97224,1910.4864,4.91630720064,3
2025-04-01T15:05:21.360,1743512721360,11.8270809845489,46.3758718327695,36.97224,1910.4864,4.91630720064,3
2025-04-01T15:05:21.450,1743512721450,11.8270744906033,46.3758714819711,36.97224,1910.4864,4.91630720064,3
2025-04-01T15:05:21.570,1743512721570,11.8270679927844,46.3758711111663,36.97224,1910.4864,4.91630720064,3
2025-04-01T15:05:21.670,1743512721670,11.8270615122462,46.3758706526618,36.8808,1910.4864,5.01598236832,3
2025-04-01T15:05:21.770,1743512721770,11.8270549268324,46.375870299671,36.8808,1910.4864,5.01598236832,3
2025-04-01T15:05:21.870,1743512721870,11.8270481693073,46.3758700856292,36.8808,1910.4864,5.00900005056,3
2025-04-01T15:05:21.980,1743512721980,11.8270414997744,46.3758697814212,36.8808,1910.4864,5.10882408256,3
2025-04-01T15:05:22.050,1743512722050,11.8270347564512,46.3758693933505,36.8808,1910.4864,5.00900005056,3
2025-04-01T15:05:22.180,1743512722180,11.8270281027091,46.3758690962681,36.78936,1910.4864,5.00900005056,3
2025-04-01T15:05:22.280,1743512722280,11.827021521665,46.3758687805496,36.78936,1910.4864,5.00900005056,3
2025-04-01T15:05:22.380,1743512722380,11.8270149388331,46.3758684656532,36.78936,1910.4864,5.00900005056,3
2025-04-01T15:05:22.480,1743512722480,11.8270084208533,46.3758681699411,36.78936,1910.4864,5.00900005056,3
2025-04-01T15:05:22.590,1743512722590,11.8270019181679,46.3758678498376,36.78936,1910.4864,4.9091831712,3
2025-04-01T15:05:22.690,1743512722690,11.8269953592707,46.3758675319266,36.78936,1910.4864,4.9091831712,3
2025-04-01T15:05:22.790,1743512722790,11.8269889178621,46.375867184691,36.69792,1910.1816,4.9091831712,3
2025-04-01T15:05:22.850,1743512722850,11.8269823836941,46.3758668648615,36.69792,1910.1816,4.91630720064,3
2025-04-01T15:05:22.950,1743512722950,11.8269759802235,46.3758664885754,36.69792,1910.1816,4.91630720064,3
2025-04-01T15:05:23.050,1743512723050,11.8269697385353,46.375866025412,36.69792,1910.1816,4.81664544416,3
2025-04-01T15:05:23.150,1743512723150,11.8269633744923,46.3758656444668,36.69792,1910.1816,4.81664544416,3
2025-04-01T15:05:23.250,1743512723250,11.8269574024418,46.375865354236,36.576,1910.1816,4.81664544416,3
2025-04-01T15:05:23.350,1743512723350,11.8269511044426,46.3758649864458,36.576,1910.1816,4.81664544416,3
2025-04-01T15:05:23.450,1743512723450,11.8269436685034,46.3758644966984,36.576,1910.1816,4.81664544416,3
2025-04-01T15:05:23.550,1743512723550,11.8269372759573,46.3758641124645,36.576,1910.1816,4.81664544416,3
2025-04-01T15:05:23.650,1743512723650,11.8269320687242,46.375863711513,36.576,1910.1816,4.81664544416,3
2025-04-01T15:05:23.750,1743512723750,11.8269257486774,46.3758633420784,36.48456,1910.1816,4.81664544416,3
2025-04-01T15:05:23.850,1743512723850,11.8269186242863,46.3758628937142,36.48456,1910.1816,4.9091831712,3
2025-04-01T15:05:23.950,1743512723950,11.826912164902,46.3758625547005,36.48456,1910.1816,4.9091831712,3
2025-04-01T15:05:24.050,1743512724050,11.8269056857541,46.3758623568283,36.39312,1910.1816,4.9091831712,3
2025-04-01T15:05:24.150,1743512724150,11.8268991994556,46.3758620419319,36.39312,1910.1816,4.9091831712,3
2025-04-01T15:05:24.250,1743512724250,11.8268926929963,46.3758616185073,36.2712,1909.8768,4.9091831712,3
2025-04-01T15:05:24.350,1743512724350,11.8268862059033,46.3758613060775,36.2712,1909.8768,4.9091831712,3
2025-04-01T15:05:24.450,1743512724450,11.8268799117774,46.3758611260193,36.2712,1909.8768,4.9091831712,3
2025-04-01T15:05:24.550,1743512724550,11.8268734452424,46.3758608442843,36.17976,1909.8768,4.9091831712,3
2025-04-01T15:05:24.650,1743512724650,11.8268665188834,46.3758604416884,36.17976,1909.8768,4.90408780928,3
2025-04-01T15:05:24.750,1743512724750,11.826859984219,46.3758601651606,36.17976,1909.8768,4.90408780928,3
2025-04-01T15:05:24.850,1743512724850,11.826853961419,46.3758599308383,36.08832,1909.8768,4.90408780928,3
2025-04-01T15:05:24.950,1743512724950,11.8268474696582,46.375859670206,36.08832,1909.8768,4.90408780928,3
2025-04-01T15:05:25.050,1743512725050,11.8268412037375,46.3758593755902,36.08832,1909.8768,4.90408780928,3
2025-04-01T15:05:25.150,1743512725150,11.8268347541851,46.3758591215354,35.99688,1909.572,4.90408780928,3
2025-04-01T15:05:25.250,1743512725250,11.8268282086954,46.3758589417513,35.99688,1909.572,4.90408780928,3
2025-04-01T15:05:25.350,1743512725350,11.8268217566602,46.3758586822153,35.87496,1909.572,4.90408780928,3
2025-04-01T15:05:25.450,1743512725450,11.8268153770249,46.375858430627,35.87496,1909.572,4.90408780928,3
2025-04-01T15:05:25.540,1743512725540,11.8268089333321,46.3758581732835,35.87496,1909.572,4.90408780928,3
2025-04-01T15:05:25.650,1743512725650,11.8268020315036,46.3758578973039,35.78352,1909.572,4.90408780928,3
2025-04-01T15:05:25.740,1743512725740,11.8267956013174,46.3758576405085,35.78352,1909.572,4.90408780928,3
2025-04-01T15:05:25.850,1743512725850,11.826789786183,46.3758572850511,35.78352,1909.572,4.80417258112,3
2025-04-01T15:05:25.950,1743512725950,11.8267834418042,46.3758570109899,35.69208,1909.2672,4.80417258112,3
2025-04-01T15:05:26.040,1743512726040,11.826776519517,46.3758567665272,35.69208,1909.2672,4.80417258112,3
2025-04-01T15:05:26.150,1743512726150,11.8267701408749,46.3758565061691,35.69208,1909.2672,4.80417258112,3
2025-04-01T15:05:26.250,1743512726250,11.8267642936622,46.3758563285774,35.57016,1909.2672,4.80417258112,3
2025-04-01T15:05:26.350,1743512726350,11.8267579831991,46.3758560832926,35.57016,1909.2672,4.80417258112,3
2025-04-01T15:05:26.450,1743512726450,11.8267514978938,46.3758558799391,35.47872,1909.2672,4.80417258112,3
2025-04-01T15:05:26.550,1743512726550,11.8267451520253,46.3758556436984,35.47872,1909.2672,4.80417258112,3
2025-04-01T15:05:26.650,1743512726650,11.8267387420993,46.3758554088279,35.47872,1909.2672,4.80417258112,3
2025-04-01T15:05:26.760,1743512726760,11.8267323432469,46.3758551777943,35.38728,1908.9624,4.90408780928,3
2025-04-01T15:05:26.860,1743512726860,11.8267258885799,46.3758547573843,35.38728,1908.9624,4.90408780928,3
2025-04-01T15:05:26.950,1743512726950,11.8267194480155,46.3758545208695,35.29584,1908.9624,4.90408780928,3
2025-04-01T15:05:27.060,1743512727060,11.8267129118614,46.3758544433102,35.29584,1908.9624,4.90408780928,3
2025-04-01T15:05:27.150,1743512727150,11.8267064593296,46.3758542344755,35.17392,1908.9624,4.90408780928,3
2025-04-01T15:05:27.250,1743512727250,11.8266999174152,46.3758539798726,35.17392,1908.9624,4.90408780928,3
2025-04-01T15:05:27.370,1743512727370,11.8266934780425,46.3758537633642,35.08248,1908.6576,4.90408780928,3
2025-04-01T15:05:27.450,1743512727450,11.826686924111,46.3758536035865,35.08248,1908.6576,4.90408780928,3
2025-04-01T15:05:27.570,1743512727570,11.8266805338491,46.3758533689901,34.99104,1908.6576,4.80417258112,3
2025-04-01T15:05:27.670,1743512727670,11.8266737200129,46.3758531280903,34.99104,1908.6576,4.80417258112,3
2025-04-01T15:05:27.780,1743512727780,11.8266673167905,46.375852894042,34.8996,1908.6576,4.80417258112,3
2025-04-01T15:05:27.880,1743512727880,11.8266614760332,46.3758525912043,34.8996,1908.6576,4.80417258112,3
2025-04-01T15:05:27.980,1743512727980,11.8266550986822,46.375852388125,34.77768,1908.3528,4.80417258112,3
2025-04-01T15:05:28.080,1743512728080,11.8266481282279,46.3758521538026,34.77768,1908.3528,4.90102826752,3
2025-04-01T15:05:28.180,1743512728180,11.8266416385031,46.3758519800478,34.68624,1908.3528,4.90102826752,3
2025-04-01T15:05:28.280,1743512728280,11.8266355040246,46.3758520781617,34.5948,1908.3528,4.90102826752,3
2025-04-01T15:05:28.390,1743512728390,11.8266289718431,46.3758519657966,34.5948,1908.3528,5.00100786944,3
2025-04-01T15:05:28.490,1743512728490,11.8266224553036,46.3758516325382,34.47288,1908.048,5.00100786944,3
2025-04-01T15:05:28.550,1743512728550,11.8266158475937,46.3758515127734,34.38144,1908.048,5.00100786944,3
2025-04-01T15:05:28.690,1743512728690,11.8266086595919,46.3758515681338,34.38144,1908.048,5.00100786944,3
2025-04-01T15:05:28.750,1743512728750,11.8266020080348,46.3758514829008,34.29,1908.048,5.000008288,3
2025-04-01T15:05:28.850,1743512728850,11.8265954100575,46.3758514368585,34.19856,1907.7432,5.000008288,3
2025-04-01T15:05:28.950,1743512728950,11.8265888235014,46.3758513664247,34.19856,1907.7432,5.000008288,3
2025-04-01T15:05:29.050,1743512729050,11.8265825465568,46.3758513075016,34.07664,1907.7432,5.000008288,3
2025-04-01T15:05:29.150,1743512729150,11.8265759847797,46.375851242275,34.07664,1907.7432,5.000008288,3
2025-04-01T15:05:29.250,1743512729250,11.8265699053708,46.3758511301839,33.9852,1907.7432,5.000008288,3
2025-04-01T15:05:29.350,1743512729350,11.8265633561568,46.3758510698905,33.89376,1907.4384,5.000008288,3
2025-04-01T15:05:29.450,1743512729450,11.8265566707833,46.3758511066147,33.77184,1907.4384,5.000008288,3
2025-04-01T15:05:29.550,1743512729550,11.8265501177954,46.3758510619427,33.77184,1907.4384,5.000008288,3
2025-04-01T15:05:29.650,1743512729650,11.8265435404259,46.3758508922988,33.6804,1907.4384,5.000008288,3
2025-04-01T15:05:29.750,1743512729750,11.8265370181756,46.3758508232354,33.58896,1907.1336,5.000008288,3
2025-04-01T15:05:29.850,1743512729850,11.8265300207078,46.3758507788374,33.58896,1907.1336,5.000008288,3
2025-04-01T15:05:29.950,1743512729950,11.8265234772043,46.3758507070334,33.49752,1907.1336,4.90000812224,3
2025-04-01T15:05:30.050,1743512730050,11.826516881412,46.3758506670204,33.3756,1907.1336,4.90000812224,3
2025-04-01T15:05:30.150,1743512730150,11.8265103616943,46.3758506012458,33.3756,1907.1336,4.90000812224,3
2025-04-01T15:05:30.250,1743512730250,11.826504506586,46.3758504691482,33.28416,1906.8288,4.90000812224,3
2025-04-01T15:05:30.350,1743512730350,11.8264980874734,46.3758503847374,33.19272,1906.8288,4.90000812224,3
2025-04-01T15:05:30.450,1743512730450,11.826491646462,46.3758503617162,33.19272,1906.8288,4.90000812224,3
2025-04-01T15:05:30.550,1743512730550,11.8264852457225,46.375850266891,33.0708,1906.8288,4.90102826752,3
2025-04-01T15:05:30.650,1743512730650,11.8264783454831,46.3758502238634,32.97936,1906.524,4.90102826752,3
2025-04-01T15:05:30.750,1743512730750,11.8264718922561,46.3758501210905,32.97936,1906.524,4.90102826752,3
2025-04-01T15:05:30.850,1743512730850,11.8264660625227,46.3758499794008,32.88792,1906.524,4.90102826752,3
2025-04-01T15:05:30.950,1743512730950,11.8264596728567,46.3758498659394,32.88792,1906.524,4.90102826752,3
2025-04-01T15:05:31.050,1743512731050,11.8264532328881,46.3758497631665,32.79648,1906.524,4.90102826752,3
2025-04-01T15:05:31.150,1743512731150,11.8264468265374,46.3758496532679,32.67456,1906.2192,4.90102826752,3
2025-04-01T15:05:31.240,1743512731240,11.8264397463907,46.375849416479,32.67456,1906.2192,4.90102826752,3
2025-04-01T15:05:31.340,1743512731340,11.8264332651572,46.375849295344,32.58312,1906.2192,4.90102826752,3
2025-04-01T15:05:31.450,1743512731450,11.826427291319,46.3758492503979,32.49168,1906.2192,4.90102826752,3
2025-04-01T15:05:31.540,1743512731540,11.8264208630199,46.3758491399512,32.49168,1906.2192,4.90102826752,3
2025-04-01T15:05:31.650,1743512731650,11.8264142605736,46.3758489053548,32.36976,1905.9144,4.90102826752,3
2025-04-01T15:05:31.750,1743512731750,11.8264078328703,46.3758487924416,32.27832,1905.9144,4.90102826752,3
2025-04-01T15:05:31.850,1743512731850,11.8264013003907,46.375848736259,32.27832,1905.9144,4.90102826752,3
2025-04-01T15:05:31.950,1743512731950,11.8263948890246,46.3758486430782,32.18688,1905.9144,4.90000812224,3
2025-04-01T15:05:32.050,1743512732050,11.826388507403,46.3758485770295,32.09544,1905.6096,4.90000812224,3
2025-04-01T15:05:32.150,1743512732150,11.8263820949445,46.3758484879596,32.09544,1905.6096,4.90102826752,3
2025-04-01T15:05:32.260,1743512732260,11.8263754272242,46.3758483988897,31.97352,1905.6096,4.90102826752,3
2025-04-01T15:05:32.360,1743512732360,11.826368929604,46.3758482925539,31.88208,1905.6096,5.00100786944,3
2025-04-01T15:05:32.460,1743512732460,11.8263623095047,46.3758481563455,31.79064,1905.3048,5.00100786944,3
2025-04-01T15:05:32.560,1743512732560,11.8263557388142,46.3758480236998,31.79064,1905.3048,5.00100786944,3
2025-04-01T15:05:32.650,1743512732650,11.8263489865031,46.3758479014685,31.6992,1905.3048,5.00100786944,3
2025-04-01T15:05:32.760,1743512732760,11.8263423808043,46.3758477526533,31.57728,1905.3048,5.00100786944,3
2025-04-01T15:05:32.870,1743512732870,11.826335682942,46.3758476816714,31.57728,1905.3048,5.00100786944,3
2025-04-01T15:05:32.950,1743512732950,11.8263290860821,46.3758475298415,31.48584,1905,5.00100786944,3
2025-04-01T15:05:33.050,1743512733050,11.8263226104101,46.3758473297768,31.3944,1905,5.00100786944,3
2025-04-01T15:05:33.150,1743512733150,11.8263160291425,46.3758471524591,31.3944,1905,5.00100786944,3
2025-04-01T15:05:33.270,1743512733270,11.8263092991522,46.3758469567794,31.27248,1905,5.00100786944,3
2025-04-01T15:05:33.370,1743512733370,11.8263027107092,46.375846780284,31.18104,1904.6952,5.00100786944,3
2025-04-01T15:05:33.480,1743512733480,11.8262961153142,46.3758466586008,31.0896,1904.6952,5.00100786944,3
2025-04-01T15:05:33.580,1743512733580,11.8262895269208,46.3758464884088,31.0896,1904.6952,5.00100786944,3
2025-04-01T15:05:33.680,1743512733680,11.8262829334376,46.375846243124,30.99816,1904.6952,5.00100786944,3
2025-04-01T15:05:33.780,1743512733780,11.8262763609345,46.3758460649842,30.87624,1904.3904,5.00100786944,3
2025-04-01T15:05:33.880,1743512733880,11.8262692819049,46.3758457862639,30.87624,1904.3904,5.00100786944,3
2025-04-01T15:05:33.980,1743512733980,11.8262626931391,46.3758456012725,30.7848,1904.3904,5.00100786944,3
2025-04-01T15:05:34.080,1743512734080,11.8262568734363,46.3758455420753,30.69336,1904.3904,4.90102826752,3
2025-04-01T15:05:34.190,1743512734190,11.8262504058832,46.3758453866826,30.69336,1904.3904,4.90102826752,3
2025-04-01T15:05:34.290,1743512734290,11.8262438141876,46.3758451657892,30.57144,1904.0856,4.90102826752,3
2025-04-01T15:05:34.390,1743512734390,11.8262373795075,46.3758450103965,30.48,1904.0856,4.90102826752,3
2025-04-01T15:05:34.490,1743512734490,11.826231021324,46.3758449144751,30.48,1904.0856,4.90102826752,3
2025-04-01T15:05:34.590,1743512734590,11.8262246261212,46.3758447346909,30.38856,1904.0856,4.90102826752,3
2025-04-01T15:05:34.650,1743512734650,11.8262181553157,46.3758445305153,30.38856,1904.0856,4.80417258112,3
2025-04-01T15:05:34.750,1743512734750,11.8262117777908,46.3758443389465,30.29712,1903.7808,4.80417258112,3
2025-04-01T15:05:34.850,1743512734850,11.8262048659068,46.3758439928072,30.1752,1903.7808,4.80417258112,3
2025-04-01T15:05:34.950,1743512734950,11.826198446397,46.3758437932906,30.1752,1903.7808,4.80417258112,3
2025-04-01T15:05:35.050,1743512735050,11.8261921718111,46.3758437294343,30.08376,1903.7808,4.80104911264,3
2025-04-01T15:05:35.150,1743512735150,11.8261857841562,46.3758435702047,29.99232,1903.7808,4.80104911264,3
2025-04-01T15:05:35.250,1743512735250,11.8261800794838,46.3758434394776,29.99232,1903.7808,4.80104911264,3
2025-04-01T15:05:35.350,1743512735350,11.8261737663393,46.3758433336899,29.8704,1903.476,4.80104911264,3
2025-04-01T15:05:35.450,1743512735450,11.8261672726419,46.3758432161177,29.77896,1903.476,4.80000795648,3
2025-04-01T15:05:35.550,1743512735550,11.8261609568035,46.3758431744604,29.77896,1903.476,4.80000795648,3
2025-04-01T15:05:35.650,1743512735650,11.8261540994802,46.3758431629498,29.68752,1903.476,4.80000795648,3
2025-04-01T15:05:35.750,1743512735750,11.8261477506943,46.3758431972075,29.68752,1903.476,4.80000795648,3
2025-04-01T15:05:35.850,1743512735850,11.8261414315537,46.3758432542122,29.59608,1903.1712,4.80104911264,3
2025-04-01T15:05:35.950,1743512735950,11.8261350742145,46.3758433821989,29.47416,1903.1712,4.80104911264,3
2025-04-01T15:05:36.050,1743512736050,11.8261288523147,46.3758436302243,29.47416,1903.1712,4.80417258112,3
2025-04-01T15:05:36.150,1743512736150,11.8261225010708,46.3758438730426,29.38272,1903.1712,4.80937344448,3
2025-04-01T15:05:36.250,1743512736250,11.8261166892387,46.3758441514888,29.29128,1902.8664,4.80937344448,3
2025-04-01T15:05:36.350,1743512736350,11.8261103889677,46.3758445201012,29.29128,1902.8664,4.81664544416,3
2025-04-01T15:05:36.450,1743512736450,11.8261034587106,46.3758450186186,29.19984,1902.8664,4.82597919232,3
2025-04-01T15:05:36.550,1743512736550,11.826097095487,46.3758455563268,29.07792,1902.8664,4.83736261888,3
2025-04-01T15:05:36.650,1743512736650,11.8260913210094,46.3758461946154,29.07792,1902.8664,4.85078097152,3
2025-04-01T15:05:36.750,1743512736750,11.826084994321,46.3758469356771,28.98648,1902.5616,4.86621770976,3
2025-04-01T15:05:36.850,1743512736850,11.8260784394089,46.3758477142851,28.89504,1902.5616,4.98197558848,3
2025-04-01T15:05:36.950,1743512736950,11.8260720473595,46.3758486482858,28.89504,1902.5616,5.00100786944,3
2025-04-01T15:05:37.050,1743512737050,11.8260656228715,46.3758497258946,28.77312,1902.5616,5.02195974016,3
2025-04-01T15:05:37.150,1743512737150,11.8260592298102,46.3758508547529,28.68168,1902.2568,5.04480750752,3
2025-04-01T15:05:37.250,1743512737250,11.8260528084195,46.3758519452425,28.68168,1902.2568,4.97293465152,3
2025-04-01T15:05:37.350,1743512737350,11.826046481973,46.3758532484038,28.59024,1902.2568,5.000008288,3
2025-04-01T15:05:37.450,1743512737450,11.8260401746133,46.3758547121648,28.4988,1902.2568,5.02892462336,3
2025-04-01T15:05:37.540,1743512737540,11.8260339469656,46.3758562200498,28.4988,1902.2568,4.96488480224,3
2025-04-01T15:05:37.650,1743512737650,11.8260272022518,46.3758578372852,28.37688,1901.952,4.998007784,3
2025-04-01T15:05:37.750,1743512737750,11.8260210450984,46.3758595296133,28.28544,1901.952,4.93964358272,3
2025-04-01T15:05:37.850,1743512737850,11.8260154106596,46.375861148219,28.28544,1901.952,4.97695488224,3
2025-04-01T15:05:37.950,1743512737950,11.8260094480437,46.3758629948437,28.194,1901.952,4.92443662304,3
2025-04-01T15:05:38.050,1743512738050,11.8260035532407,46.3758650771609,28.194,1901.952,4.87545668544,3
2025-04-01T15:05:38.150,1743512738150,11.8259977434971,46.3758671076807,28.07208,1901.6472,4.91935735456,3
2025-04-01T15:05:38.250,1743512738250,11.8259918944313,46.3758691280601,28.07208,1901.6472,4.8764821952,3
2025-04-01T15:05:38.360,1743512738360,11.8259862262226,46.3758713142466,27.98064,1901.6472,4.92443662304,3
2025-04-01T15:05:38.450,1743512738450,11.8259806604283,46.3758734834413,27.98064,1901.6472,4.8877476032,3
2025-04-01T15:05:38.560,1743512738560,11.8259751601115,46.3758758351608,27.8892,1901.6472,4.85490223328,3
2025-04-01T15:05:38.660,1743512738660,11.8259696272375,46.3758783162372,27.8892,1901.6472,4.9091831712,3
2025-04-01T15:05:38.760,1743512738760,11.8259642910716,46.3758808502074,27.79776,1901.3424,4.88263033632,3
2025-04-01T15:05:38.860,1743512738860,11.8259591182148,46.3758834414564,27.79776,1901.3424,4.8600490048,3
2025-04-01T15:05:38.970,1743512738970,11.8259539617843,46.3758861299972,27.67584,1901.3424,4.92037392352,3
2025-04-01T15:05:39.070,1743512739070,11.8259483480157,46.3758891030135,27.67584,1901.3424,4.84149505664,3
2025-04-01T15:05:39.170,1743512739170,11.825943324109,46.3758919658572,27.5844,1901.3424,4.827014984,3
2025-04-01T15:05:39.270,1743512739270,11.8259389059861,46.3758946149331,27.5844,1901.3424,4.8918380192,3
2025-04-01T15:05:39.380,1743512739380,11.8259341260932,46.3758976024746,27.49296,1901.0376,4.88365405792,3
2025-04-01T15:05:39.450,1743512739450,11.8259293576633,46.3759007719929,27.49296,1901.0376,4.87955693632,3
2025-04-01T15:05:39.580,1743512739580,11.8259247624123,46.3759039173937,27.37104,1901.0376,4.87955693632,3
2025-04-01T15:05:39.680,1743512739680,11.8259202545204,46.3759070510099,27.37104,1901.0376,4.95177535424,3
2025-04-01T15:05:39.780,1743512739780,11.8259158438445,46.3759103282342,27.2796,1901.0376,4.88365405792,3
2025-04-01T15:05:39.880,1743512739880,11.8259115152981,46.3759137624955,27.2796,1901.0376,4.8918380192,3
2025-04-01T15:05:39.990,1743512739990,11.8259072986787,46.3759171836019,27.2796,1901.0376,4.90408780928,3
2025-04-01T15:05:40.090,1743512740090,11.8259030781643,46.3759207702413,27.18816,1900.7328,4.98197558848,3
2025-04-01T15:05:40.190,1743512740190,11.8258990602102,46.3759243193344,27.18816,1900.7328,4.92037392352,3
2025-04-01T15:05:40.290,1743512740290,11.8258951314214,46.3759278818564,27.09672,1900.7328,4.94065568128,3
2025-04-01T15:05:40.350,1743512740350,11.8258913286559,46.3759315350926,27.09672,1900.7328,4.88263033632,3
2025-04-01T15:05:40.450,1743512740450,11.8258876288419,46.3759352716435,27.09672,1900.7328,4.9091831712,3
2025-04-01T15:05:40.550,1743512740550,11.8258840409299,46.3759390443705,26.9748,1900.7328,4.9930031712,3
2025-04-01T15:05:40.650,1743512740650,11.8258806897701,46.3759428593029,26.9748,1900.7328,4.93964358272,3
2025-04-01T15:05:40.750,1743512740750,11.8258773365806,46.375946744121,26.9748,1900.7328,4.97394004448,3
2025-04-01T15:05:40.850,1743512740850,11.8258740080272,46.3759506399014,26.9748,1900.7328,4.92443662304,3
2025-04-01T15:05:40.950,1743512740950,11.8258708773012,46.3759546154337,26.88336,1900.428,4.96488480224,3
2025-04-01T15:05:41.050,1743512741050,11.8258679083577,46.3759585580786,26.88336,1900.428,4.91935735456,3
2025-04-01T15:05:41.150,1743512741150,11.8258649959177,46.3759626122665,26.88336,1900.428,4.96589153632,3
2025-04-01T15:05:41.250,1743512741250,11.8258621504712,46.3759667886857,26.88336,1900.428,4.96589153632,3
2025-04-01T15:05:41.350,1743512741350,11.8258594431023,46.3759709461947,26.79192,1900.428,5.01598236832,3
2025-04-01T15:05:41.450,1743512741450,11.8258567324932,46.3759750694459,26.79192,1900.428,4.97695488224,3
2025-04-01T15:05:41.550,1743512741550,11.8258541759824,46.3759792962924,26.79192,1900.428,4.97695488224,3
2025-04-01T15:05:41.650,1743512741650,11.8258515110827,46.3759839186092,26.79192,1900.428,5.03290015008,3
2025-04-01T15:05:41.750,1743512741750,11.8258490624393,46.3759881983494,26.67,1900.428,5.03290015008,3
2025-04-01T15:05:41.850,1743512741850,11.8258469878684,46.375991982861,26.67,1900.428,4.998007784,3
2025-04-01T15:05:41.950,1743512741950,11.8258446853967,46.3759962310842,26.67,1900.428,4.998007784,3
2025-04-01T15:05:42.050,1743512742050,11.825842363869,46.376000611679,26.67,1900.428,4.998007784,3
2025-04-01T15:05:42.150,1743512742150,11.8258401501841,46.3760049264991,26.67,1900.428,4.96488480224,3
2025-04-01T15:05:42.250,1743512742250,11.8258378705298,46.3760093457365,26.67,1900.428,5.0596523648,3
2025-04-01T15:05:42.350,1743512742350,11.8258357045156,46.3760137224945,26.67,1900.428,5.0596523648,3
2025-04-01T15:05:42.450,1743512742450,11.8258334131919,46.3760180104565,26.57856,1900.1232,5.0596523648,3
2025-04-01T15:05:42.530,1743512742530,11.8258312977285,46.3760223735114,26.57856,1900.1232,5.02892462336,3
2025-04-01T15:05:42.650,1743512742650,11.8258293178908,46.3760267135451,26.57856,1900.1232,5.02892462336,3
2025-04-01T15:05:42.750,1743512742750,11.8258273020518,46.3760310579638,26.57856,1900.1232,5.02892462336,3
2025-04-01T15:05:42.850,1743512742850,11.8258253854398,46.3760354056712,26.57856,1900.1232,5.000008288,3
2025-04-01T15:05:42.950,1743512742950,11.8258234736075,46.3760397522824,26.48712,1900.1232,5.000008288,3
2025-04-01T15:05:43.050,1743512743050,11.8258215620606,46.3760441671348,26.48712,1900.1232,5.000008288,3
2025-04-01T15:05:43.150,1743512743150,11.8258196832378,46.376048518131,26.48712,1900.1232,5.000008288,3
2025-04-01T15:05:43.250,1743512743250,11.8258177395009,46.3760529009183,26.48712,1900.1232,5.000008288,3
2025-04-01T15:05:43.350,1743512743350,11.8258158538751,46.3760572214936,26.48712,1900.1232,5.000008288,3
2025-04-01T15:05:43.450,1743512743450,11.8258139713529,46.3760613707807,26.39568,1900.1232,4.90408780928,3
2025-04-01T15:05:43.550,1743512743550,11.8258120796565,46.3760656510691,26.39568,1900.1232,4.90408780928,3
2025-04-01T15:05:43.650,1743512743650,11.8258102762131,46.376069665518,26.39568,1900.1232,4.90408780928,3
2025-04-01T15:05:43.750,1743512743750,11.8258083724749,46.3760739134672,26.39568,1900.1232,4.90408780928,3
2025-04-01T15:05:43.850,1743512743850,11.8258062444608,46.3760785722341,26.39568,1900.1232,4.90408780928,3
2025-04-01T15:05:43.950,1743512743950,11.8258042821398,46.3760828522484,26.27376,1899.8184,4.90408780928,3
2025-04-01T15:05:44.050,1743512744050,11.8258023185153,46.3760871651501,26.27376,1899.8184,4.93356652096,3
2025-04-01T15:05:44.150,1743512744150,11.8258003059414,46.3760914270763,26.27376,1899.8184,4.93356652096,3
2025-04-01T15:05:44.250,1743512744250,11.8257983546566,46.3760956887285,26.27376,1899.8184,4.93356652096,3
2025-04-01T15:05:44.360,1743512744360,11.8257963188183,46.3760999322927,26.27376,1899.8184,4.93356652096,3
2025-04-01T15:05:44.460,1743512744460,11.8257943287142,46.3761042057295,26.27376,1899.8184,4.93356652096,3
2025-04-01T15:05:44.570,1743512744570,11.8257922883074,46.3761084427162,26.18232,1899.8184,4.93356652096,3
2025-04-01T15:05:44.670,1743512744670,11.8257901271597,46.3761126402381,26.18232,1899.8184,4.93356652096,3
2025-04-01T15:05:44.750,1743512744750,11.8257880434025,46.3761168640698,26.18232,1899.8184,4.93356652096,3
2025-04-01T15:05:44.870,1743512744870,11.8257860556819,46.3761210972197,26.18232,1899.8184,4.87032600736,3
2025-04-01T15:05:44.970,1743512744970,11.8257839431856,46.376125305978,26.18232,1899.8184,4.87032600736,3
2025-04-01T15:05:45.070,1743512745070,11.825781822198,46.3761293971641,26.09088,1899.8184,4.87032600736,3
2025-04-01T15:05:45.170,1743512745170,11.825779700242,46.3761335708427,26.09088,1899.8184,4.87032600736,3
2025-04-01T15:05:45.280,1743512745280,11.8257775567597,46.3761378662044,26.09088,1899.8184,4.87032600736,3
2025-04-01T15:05:45.380,1743512745380,11.8257754340714,46.3761420393348,26.09088,1899.8184,4.87032600736,3
2025-04-01T15:05:45.490,1743512745490,11.8257733806917,46.3761462250721,26.09088,1899.8184,4.87032600736,3
2025-04-01T15:05:45.590,1743512745590,11.8257712495244,46.3761503888844,25.99944,1899.5136,4.87032600736,3
2025-04-01T15:05:45.690,1743512745690,11.8257690064799,46.3761544647231,25.99944,1899.5136,4.87032600736,3
2025-04-01T15:05:45.790,1743512745790,11.8257668265246,46.376158612914,25.99944,1899.5136,4.87032600736,3
2025-04-01T15:05:45.890,1743512745890,11.8257647081191,46.3761627005373,25.99944,1899.5136,4.87032600736,3
2025-04-01T15:05:45.990,1743512745990,11.825762516693,46.3761668402322,25.99944,1899.5136,4.87032600736,3
2025-04-01T15:05:46.050,1743512746050,11.8257603172721,46.3761711235353,25.87752,1899.5136,4.87032600736,3
2025-04-01T15:05:46.150,1743512746150,11.8257581489737,46.3761752840589,25.87752,1899.5136,4.87032600736,3
2025-04-01T15:05:46.250,1743512746250,11.8257561171824,46.3761794717145,25.87752,1899.5136,4.87032600736,3
2025-04-01T15:05:46.350,1743512746350,11.8257539705842,46.3761836336085,25.87752,1899.5136,4.87032600736,3
2025-04-01T15:05:46.450,1743512746450,11.8257517351744,46.3761877719331,25.87752,1899.5136,4.87032600736,3
2025-04-01T15:05:46.550,1743512746550,11.8257495480809,46.3761919269755,25.87752,1899.5136,4.87032600736,3
2025-04-01T15:05:46.650,1743512746650,11.8257475081087,46.3761958523546,25.78608,1899.5136,4.87032600736,3
2025-04-01T15:05:46.750,1743512746750,11.8257453004696,46.3761999857461,25.78608,1899.5136,4.87032600736,3
2025-04-01T15:05:46.850,1743512746850,11.8257427373359,46.3762047648259,25.78608,1899.5136,4.90408780928,3
2025-04-01T15:05:46.950,1743512746950,11.8257404797294,46.3762089659106,25.78608,1899.5136,4.90408780928,3
2025-04-01T15:05:47.050,1743512747050,11.825738428125,46.3762128989634,25.69464,1899.2088,4.90408780928,3
2025-04-01T15:05:47.150,1743512747150,11.8257361793326,46.3762170860709,25.69464,1899.2088,4.90408780928,3
2025-04-01T15:05:47.250,1743512747250,11.8257338657627,46.3762212194625,25.69464,1899.2088,4.90408780928,3
2025-04-01T15:05:47.350,1743512747350,11.8257315979517,46.3762254005406,25.69464,1899.2088,4.90408780928,3
2025-04-01T15:05:47.450,1743512747450,11.8257293297434,46.3762296682222,25.57272,1899.2088,4.90408780928,3
2025-04-01T15:05:47.550,1743512747550,11.825727053739,46.3762338717734,25.57272,1899.2088,4.90408780928,3
2025-04-01T15:05:47.650,1743512747650,11.8257248032583,46.3762379741961,25.57272,1899.2088,4.90408780928,3
2025-04-01T15:05:47.750,1743512747750,11.8257225387991,46.3762421867913,25.57272,1899.2088,4.90408780928,3
2025-04-01T15:05:47.850,1743512747850,11.8257201939948,46.3762464539247,25.48128,1899.2088,4.90408780928,3
2025-04-01T15:05:47.950,1743512747950,11.825717937878,46.3762506840599,25.48128,1899.2088,4.90408780928,3
2025-04-01T15:05:48.050,1743512748050,11.8257156269399,46.3762550602697,25.48128,1899.2088,4.90408780928,3
2025-04-01T15:05:48.150,1743512748150,11.8257133810772,46.3762593147963,25.48128,1899.2088,4.998007784,3
2025-04-01T15:05:48.250,1743512748250,11.8257110441436,46.3762636170096,25.38984,1898.904,4.998007784,3
2025-04-01T15:05:48.350,1743512748350,11.8257088006894,46.3762678630403,25.38984,1898.904,4.998007784,3
2025-04-01T15:05:48.450,1743512748450,11.8257066113116,46.3762720961901,25.38984,1898.904,4.90408780928,3
2025-04-01T15:05:48.540,1743512748540,11.8257043877946,46.3762763189256,25.38984,1898.904,4.90408780928,3
2025-04-01T15:05:48.650,1743512748650,11.825702167108,46.3762805049369,25.38984,1898.904,4.87032600736,3
2025-04-01T15:05:48.740,1743512748740,11.8256999768116,46.3762847049253,25.38984,1898.904,4.87032600736,3
2025-04-01T15:05:48.850,1743512748850,11.8256977772789,46.3762889786362,25.38984,1898.904,4.87032600736,3
2025-04-01T15:05:48.950,1743512748950,11.8256956093778,46.3762931816393,25.2984,1898.904,4.87032600736,3
2025-04-01T15:05:49.050,1743512749050,11.8256933528389,46.3762973591547,25.2984,1898.904,4.87032600736,3
2025-04-01T15:05:49.150,1743512749150,11.8256911858813,46.3763015679131,25.2984,1898.904,4.87032600736,3
2025-04-01T15:05:49.250,1743512749250,11.8256890081232,46.3763057964039,25.2984,1898.904,4.87032600736,3
2025-04-01T15:05:49.350,1743512749350,11.8256868675086,46.3763100098213,25.2984,1898.904,4.87032600736,3
2025-04-01T15:05:49.450,1743512749450,11.8256846541465,46.3763145307355,25.2984,1898.904,4.87032600736,3
2025-04-01T15:05:49.550,1743512749550,11.8256825374417,46.376318780603,25.2984,1898.904,4.87032600736,3
2025-04-01T15:05:49.650,1743512749650,11.8256808351496,46.3763224497348,25.17648,1898.904,4.87032600736,3
2025-04-01T15:05:49.750,1743512749750,11.8256787757738,46.3763266321833,25.17648,1898.904,4.87032600736,3
2025-04-01T15:05:49.850,1743512749850,11.8256764362332,46.3763313230155,25.17648,1898.904,4.83839617536,3
2025-04-01T15:05:49.950,1743512749950,11.8256743728105,46.3763355786383,25.17648,1898.904,4.93356652096,3
2025-04-01T15:05:50.050,1743512750050,11.8256723276367,46.3763398016479,25.17648,1898.904,4.93356652096,3
2025-04-01T15:05:50.150,1743512750150,11.8256702300003,46.3763440822103,25.08504,1898.5992,4.96488480224,3
2025-04-01T15:05:50.250,1743512750250,11.8256678878776,46.3763484460874,25.08504,1898.5992,4.96488480224,3
2025-04-01T15:05:50.370,1743512750370,11.8256657530232,46.3763527236351,25.08504,1898.5992,4.96488480224,3
2025-04-01T15:05:50.470,1743512750470,11.8256637498592,46.376356912387,25.08504,1898.5992,4.93356652096,3
2025-04-01T15:05:50.570,1743512750570,11.8256616643638,46.3763611770539,25.08504,1898.5992,4.93356652096,3
2025-04-01T15:05:50.650,1743512750650,11.8256595200498,46.3763655384644,25.08504,1898.5992,4.93356652096,3
2025-04-01T15:05:50.770,1743512750770,11.8256574550628,46.3763698113531,24.9936,1898.5992,4.93356652096,3
2025-04-01T15:05:50.870,1743512750870,11.8256554575845,46.3763739959941,24.9936,1898.5992,4.93356652096,3
2025-04-01T15:05:50.980,1743512750980,11.8256534351039,46.3763782603869,24.9936,1898.5992,4.93356652096,3
2025-04-01T15:05:51.050,1743512751050,11.8256514863641,46.3763824466723,24.9936,1898.5992,4.93356652096,3
2025-04-01T15:05:51.150,1743512751150,11.8256494423324,46.3763866902364,24.9936,1898.5992,4.93356652096,3
2025-04-01T15:05:51.250,1743512751250,11.825647326894,46.3763910453435,24.9936,1898.5992,4.93356652096,3
2025-04-01T15:05:51.380,1743512751380,11.8256452473079,46.3763952998701,24.9936,1898.5992,4.93356652096,3
2025-04-01T15:05:51.480,1743512751480,11.8256430808468,46.3763996437407,24.9936,1898.5992,4.93356652096,3
2025-04-01T15:05:51.550,1743512751550,11.825641009901,46.3764039275919,24.87168,1898.5992,4.93356652096,3
2025-04-01T15:05:51.650,1743512751650,11.8256388611675,46.3764080565984,24.87168,1898.5992,4.93356652096,3
2025-04-01T15:05:51.790,1743512751790,11.8256367845608,46.3764123368868,24.87168,1898.5992,4.93356652096,3
2025-04-01T15:05:51.890,1743512751890,11.8256348395204,46.3764167720198,24.87168,1898.5992,4.93356652096,3
2025-04-01T15:05:51.990,1743512751990,11.8256327600088,46.3764210662853,24.87168,1898.5992,4.93356652096,3
2025-04-01T15:05:52.050,1743512752050,11.825630384889,46.3764257094307,24.87168,1898.5992,4.93356652096,3
2025-04-01T15:05:52.150,1743512752150,11.8256282675884,46.3764300365836,24.78024,1898.2944,4.96488480224,3
2025-04-01T15:05:52.250,1743512752250,11.825626448503,46.3764339534667,24.78024,1898.2944,4.93356652096,3
2025-04-01T15:05:52.350,1743512752350,11.8256243724425,46.3764382323848,24.78024,1898.2944,4.93356652096,3
2025-04-01T15:05:52.450,1743512752450,11.8256222725963,46.3764423808497,24.78024,1898.2944,4.93356652096,3
2025-04-01T15:05:52.550,1743512752550,11.8256202194773,46.3764466509978,24.78024,1898.2944,4.93356652096,3
2025-04-01T15:05:52.650,1743512752650,11.8256181707778,46.3764510093936,24.78024,1898.2944,4.93356652096,3
2025-04-01T15:05:52.750,1743512752750,11.8256161563913,46.3764552902301,24.78024,1898.2944,4.93356652096,3
2025-04-01T15:05:52.850,1743512752850,11.8256140749679,46.3764596541071,24.6888,1898.2944,4.93356652096,3
2025-04-01T15:05:52.950,1743512752950,11.8256121084011,46.3764639535798,24.6888,1898.2944,4.90408780928,3
2025-04-01T15:05:53.050,1743512753050,11.8256101893312,46.3764681738487,24.6888,1898.2944,4.90408780928,3
2025-04-01T15:05:53.150,1743512753150,11.8256082755746,46.3764724618108,24.6888,1898.2944,4.90408780928,3
2025-04-01T15:05:53.250,1743512753250,11.8256062562473,46.3764768223991,24.6888,1898.2944,4.90408780928,3
2025-04-01T15:05:53.350,1743512753350,11.8256043692559,46.3764811021394,24.6888,1898.2944,4.90408780928,3
2025-04-01T15:05:53.450,1743512753450,11.8256023569799,46.3764853996936,24.6888,1898.2944,4.90408780928,3
2025-04-01T15:05:53.550,1743512753550,11.8256004584433,46.3764896838188,24.6888,1898.2944,4.90408780928,3
2025-04-01T15:05:53.650,1743512753650,11.8255985958831,46.376493985484,24.6888,1898.2944,4.90408780928,3
2025-04-01T15:05:53.750,1743512753750,11.8255966917601,46.3764982633058,24.6888,1898.2944,4.90408780928,3
2025-04-01T15:05:53.850,1743512753850,11.8255947731123,46.3765024216369,24.6888,1898.2944,4.90408780928,3
2025-04-01T15:05:53.950,1743512753950,11.8255928896962,46.3765066860297,24.6888,1898.2944,4.90408780928,3
2025-04-01T15:05:54.050,1743512754050,11.8255908895117,46.3765110548398,24.59736,1898.2944,4.90408780928,3
2025-04-01T15:05:54.150,1743512754150,11.8255890106392,46.3765153354023,24.59736,1898.2944,4.90408780928,3
2025-04-01T15:05:54.250,1743512754250,11.8255871933166,46.3765195863661,24.59736,1898.2944,4.90408780928,3
2025-04-01T15:05:54.350,1743512754350,11.8255853377084,46.3765238674766,24.59736,1898.2944,4.90408780928,3
2025-04-01T15:05:54.450,1743512754450,11.8255834575448,46.3765282486195,24.59736,1898.2944,4.8764821952,3
2025-04-01T15:05:54.550,1743512754550,11.8255816313585,46.3765325349373,24.59736,1898.2944,4.8764821952,3
2025-04-01T15:05:54.650,1743512754650,11.8255797822057,46.3765370722951,24.59736,1898.2944,4.8764821952,3
2025-04-01T15:05:54.730,1743512754730,11.8255779902081,46.3765413824561,24.59736,1898.2944,4.8764821952,3
2025-04-01T15:05:54.850,1743512754850,11.8255763885459,46.3765453656621,24.59736,1898.2944,4.8764821952,3
2025-04-01T15:05:54.950,1743512754950,11.8255746508731,46.3765496374545,24.59736,1898.2944,4.8764821952,3
2025-04-01T15:05:55.050,1743512755050,11.8255729441616,46.3765538083925,24.59736,1898.2944,4.8764821952,3
2025-04-01T15:05:55.150,1743512755150,11.8255712221556,46.376558066756,24.59736,1898.2944,4.8764821952,3
2025-04-01T15:05:55.250,1743512755250,11.82556939078,46.3765624273443,24.59736,1898.2944,4.8764821952,3
2025-04-01T15:05:55.350,1743512755350,11.8255676785814,46.3765667051661,24.59736,1898.2944,4.8764821952,3
2025-04-01T15:05:55.450,1743512755450,11.8255660883899,46.3765710797315,24.59736,1898.2944,4.8764821952,3
2025-04-01T15:05:55.550,1743512755550,11.8255643967989,46.3765753723526,24.59736,1898.2944,4.85078097152,3
2025-04-01T15:05:55.650,1743512755650,11.8255627564787,46.3765795863182,24.59736,1898.2944,4.85078097152,3
2025-04-01T15:05:55.750,1743512755750,11.8255610854208,46.3765838655103,24.59736,1898.2944,4.85078097152,3
2025-04-01T15:05:55.850,1743512755850,11.8255594372797,46.3765885374322,24.59736,1898.2944,4.85078097152,3
2025-04-01T15:05:55.950,1743512755950,11.8255577657253,46.3765928560891,24.59736,1898.2944,4.85078097152,3
2025-04-01T15:05:56.050,1743512756050,11.8255561705185,46.3765968154518,24.47544,1897.9896,4.85078097152,3
2025-04-01T15:05:56.150,1743512756150,11.8255544837194,46.3766010886145,24.47544,1897.9896,4.85078097152,3
2025-04-01T15:05:56.250,1743512756250,11.8255528092849,46.3766052496863,24.47544,1897.9896,4.8764821952,3
2025-04-01T15:05:56.360,1743512756360,11.825551078316,46.3766095088719,24.47544,1897.9896,4.8764821952,3
2025-04-01T15:05:56.450,1743512756450,11.8255493808654,46.376613855209,24.47544,1897.9896,4.8764821952,3
2025-04-01T15:05:56.560,1743512756560,11.825547604063,46.3766181409786,24.47544,1897.9896,4.8764821952,3
2025-04-01T15:05:56.650,1743512756650,11.825545788255,46.3766225317137,24.47544,1897.9896,4.8764821952,3
2025-04-01T15:05:56.770,1743512756770,11.8255439627142,46.3766268199498,24.47544,1897.9896,4.90408780928,3
2025-04-01T15:05:56.870,1743512756870,11.825542100601,46.3766311355921,24.47544,1897.9896,4.90408780928,3
2025-04-01T15:05:56.970,1743512756970,11.8255402371471,46.3766353988886,24.47544,1897.9896,4.90408780928,3
2025-04-01T15:05:57.050,1743512757050,11.8255383539545,46.3766398142892,24.384,1897.9896,4.90408780928,3
2025-04-01T15:05:57.170,1743512757170,11.8255364842437,46.3766441006069,24.384,1897.9896,4.90408780928,3
2025-04-01T15:05:57.280,1743512757280,11.8255346018952,46.3766487327899,24.384,1897.9896,4.90408780928,3
2025-04-01T15:05:57.380,1743512757380,11.8255327482982,46.3766530572021,24.384,1897.9896,4.90408780928,3
2025-04-01T15:05:57.480,1743512757480,11.8255309666045,46.3766570199906,24.384,1897.9896,4.8764821952,3
2025-04-01T15:05:57.580,1743512757580,11.8255291653459,46.3766612978124,24.384,1897.9896,4.8764821952,3
2025-04-01T15:05:57.650,1743512757650,11.8255275748813,46.3766656079734,24.384,1897.9896,4.8764821952,3
2025-04-01T15:05:57.780,1743512757780,11.8255258134477,46.3766698904543,24.384,1897.9896,4.8764821952,3
2025-04-01T15:05:57.880,1743512757880,11.8255239709738,46.3766742244586,24.384,1897.9896,4.8764821952,3
2025-04-01T15:05:57.990,1743512757990,11.8255222118244,46.3766785259868,24.384,1897.9896,4.8764821952,3
2025-04-01T15:05:58.090,1743512758090,11.8255204000386,46.376682716246,24.384,1897.9896,4.8764821952,3
2025-04-01T15:05:58.190,1743512758190,11.8255186801182,46.3766870222961,24.384,1897.9896,4.8764821952,3
2025-04-01T15:05:58.290,1743512758290,11.8255170446148,46.3766914071389,24.384,1897.9896,4.8764821952,3
2025-04-01T15:05:58.390,1743512758390,11.825515338946,46.3766957484059,24.384,1897.9896,4.8764821952,3
2025-04-01T15:05:58.450,1743512758450,11.8255134704518,46.376700108446,24.384,1897.9896,4.97293465152,3
2025-04-01T15:05:58.550,1743512758550,11.8255117488431,46.3767044641013,24.384,1897.9896,4.97293465152,3
2025-04-01T15:05:58.650,1743512758650,11.8255100683504,46.3767090398276,24.384,1897.9896,4.97293465152,3
2025-04-01T15:05:58.750,1743512758750,11.8255083420243,46.3767134200113,24.384,1897.9896,4.97293465152,3
2025-04-01T15:05:58.850,1743512758850,11.8255066646104,46.3767177530565,24.29256,1897.9896,4.97293465152,3
2025-04-01T15:05:58.950,1743512758950,11.8255049352055,46.3767221288552,24.29256,1897.9896,4.97293465152,3
2025-04-01T15:05:59.050,1743512759050,11.8255032450794,46.3767264281908,24.29256,1897.9896,4.97293465152,3
2025-04-01T15:05:59.150,1743512759150,11.8255015115033,46.3767307820646,24.29256,1897.9896,4.97293465152,3
2025-04-01T15:05:59.250,1743512759250,11.8254996920703,46.3767350659158,24.29256,1897.9896,4.97293465152,3
2025-04-01T15:05:59.350,1743512759350,11.8254979612254,46.3767394115678,24.29256,1897.9896,4.97293465152,3
2025-04-01T15:05:59.450,1743512759450,11.8254963562114,46.3767438798621,24.29256,1897.9896,4.97293465152,3
2025-04-01T15:05:59.550,1743512759550,11.8254946542668,46.3767482293509,24.29256,1897.9896,4.97293465152,3
2025-04-01T15:05:59.650,1743512759650,11.8254928976996,46.3767525610258,24.17064,1897.6848,4.97293465152,3
2025-04-01T15:05:59.750,1743512759750,11.8254911965993,46.3767569090073,24.17064,1897.6848,4.97293465152,3
2025-04-01T15:05:59.850,1743512759850,11.8254892655869,46.3767615881918,24.17064,1897.6848,4.97293465152,3
2025-04-01T15:05:59.950,1743512759950,11.8254875515757,46.37676597509,24.17064,1897.6848,4.97293465152,3
2025-04-01T15:06:00.050,1743512760050,11.8254862061686,46.3767699524036,24.17064,1897.6848,4.94773455968,3
2025-04-01T15:06:00.150,1743512760150,11.8254845631669,46.3767743018925,24.17064,1897.6848,4.94773455968,3
2025-04-01T15:06:00.250,1743512760250,11.8254829106807,46.3767786601512,24.17064,1897.6848,4.94773455968,3
2025-04-01T15:06:00.350,1743512760350,11.8254812677288,46.3767830169027,24.17064,1897.6848,4.94773455968,3
2025-04-01T15:06:00.450,1743512760450,11.8254795235759,46.3767873781762,24.17064,1897.6848,4.97293465152,3
2025-04-01T15:06:00.550,1743512760550,11.8254778226245,46.3767917372571,24.17064,1897.6848,4.97293465152,3
2025-04-01T15:06:00.650,1743512760650,11.8254760712216,46.3767962289837,24.17064,1897.6848,4.97293465152,3
2025-04-01T15:06:00.730,1743512760730,11.8254743434058,46.3768006051935,24.17064,1897.6848,4.97293465152,3
2025-04-01T15:06:00.830,1743512760830,11.8254725125517,46.3768049204247,24.17064,1897.6848,4.97293465152,3
2025-04-01T15:06:00.950,1743512760950,11.825470761695,46.3768092903311,24.17064,1897.6848,4.97293465152,3
2025-04-01T15:06:01.040,1743512761040,11.8254690918786,46.3768136235133,24.17064,1897.6848,4.97293465152,3
2025-04-01T15:06:01.150,1743512761150,11.8254673512513,46.3768179830054,24.0792,1897.6848,4.97293465152,3
2025-04-01T15:06:01.240,1743512761240,11.8254655811277,46.3768224459555,24.0792,1897.6848,4.97293465152,3
2025-04-01T15:06:01.350,1743512761350,11.8254638235673,46.3768268109288,24.0792,1897.6848,4.97293465152,3
2025-04-01T15:06:01.450,1743512761450,11.8254621718261,46.3768312338661,24.0792,1897.6848,4.97293465152,3
2025-04-01T15:06:01.550,1743512761550,11.8254604010569,46.3768355943173,24.0792,1897.6848,4.97293465152,3
2025-04-01T15:06:01.650,1743512761650,11.8254585715435,46.3768398573398,24.0792,1897.6848,4.97293465152,3
2025-04-01T15:06:01.750,1743512761750,11.8254568040517,46.3768441943589,24.0792,1897.6848,4.97293465152,3
2025-04-01T15:06:01.850,1743512761850,11.8254550871108,46.3768486541574,24.0792,1897.6848,4.97293465152,3
2025-04-01T15:06:01.950,1743512761950,11.8254533437027,46.376853007483,24.0792,1897.6848,4.97293465152,3
2025-04-01T15:06:02.060,1743512762060,11.8254515447283,46.3768573688935,24.0792,1897.6848,4.97293465152,3
2025-04-01T15:06:02.150,1743512762150,11.8254498069314,46.3768617378407,24.0792,1897.6848,4.97293465152,3
2025-04-01T15:06:02.260,1743512762260,11.8254480946086,46.3768661184355,24.0792,1897.6848,4.97293465152,3
2025-04-01T15:06:02.360,1743512762360,11.825446342014,46.3768704956045,24.0792,1897.6848,4.97293465152,3
2025-04-01T15:06:02.470,1743512762470,11.8254444190957,46.3768753364851,23.98776,1897.6848,4.97293465152,3
2025-04-01T15:06:02.570,1743512762570,11.8254426539378,46.3768797522968,23.98776,1897.6848,4.97293465152,3
2025-04-01T15:06:02.670,1743512762670,11.8254409070537,46.3768836443774,23.98776,1897.6848,4.97293465152,3
2025-04-01T15:06:02.770,1743512762770,11.8254391822173,46.3768879908515,23.98776,1897.6848,4.97293465152,3
2025-04-01T15:06:02.870,1743512762870,11.8254375758128,46.3768924433874,23.98776,1897.6848,4.97293465152,3
2025-04-01T15:06:02.980,1743512762980,11.8254358971574,46.3768967782139,23.98776,1897.6848,4.8764821952,3
2025-04-01T15:06:03.080,1743512763080,11.8254341954115,46.3769010290407,23.98776,1897.6848,4.85078097152,3
2025-04-01T15:06:03.180,1743512763180,11.825432504193,46.3769053550973,23.98776,1897.6848,4.8764821952,3
2025-04-01T15:06:03.280,1743512763280,11.8254307946509,46.3769096934866,23.98776,1897.6848,4.8764821952,3
2025-04-01T15:06:03.380,1743512763380,11.8254290844137,46.3769140172137,23.98776,1897.6848,4.8764821952,3
2025-04-01T15:06:03.490,1743512763490,11.8254271501737,46.3769183989047,23.98776,1897.6848,4.8764821952,3
2025-04-01T15:06:03.550,1743512763550,11.8254254014523,46.3769227135878,23.98776,1897.6848,4.8764821952,3
2025-04-01T15:06:03.690,1743512763690,11.8254235823172,46.3769271180259,23.98776,1897.6848,4.8764821952,3
2025-04-01T15:06:03.790,1743512763790,11.8254218266935,46.3769314321608,23.98776,1897.6848,4.8764821952,3
2025-04-01T15:06:03.890,1743512763890,11.8254202263968,46.3769356786026,23.98776,1897.6848,4.8764821952,3
2025-04-01T15:06:03.950,1743512763950,11.8254184973892,46.3769399979447,23.98776,1897.6848,4.97293465152,3
2025-04-01T15:06:04.050,1743512764050,11.8254166072446,46.3769443018024,23.98776,1897.6848,4.97293465152,3
2025-04-01T15:06:04.150,1743512764150,11.8254148562887,46.3769486401917,23.98776,1897.6848,4.97293465152,3
2025-04-01T15:06:04.250,1743512764250,11.8254132490898,46.3769531058825,23.89632,1897.38,4.97293465152,3
2025-04-01T15:06:04.350,1743512764350,11.8254114896921,46.3769574572898,23.89632,1897.38,4.97293465152,3
2025-04-01T15:06:04.450,1743512764450,11.8254096489066,46.3769616764625,23.89632,1897.38,4.97293465152,3
2025-04-01T15:06:04.550,1743512764550,11.8254078812161,46.3769660095076,23.89632,1897.38,4.97293465152,3
2025-04-01T15:06:04.650,1743512764650,11.8254062640858,46.3769700336858,23.89632,1897.38,4.97293465152,3
2025-04-01T15:06:04.750,1743512764750,11.8254045133284,46.3769743352139,23.89632,1897.38,4.97293465152,3
2025-04-01T15:06:04.850,1743512764850,11.8254024950687,46.3769792326881,23.89632,1897.38,4.97293465152,3
2025-04-01T15:06:04.950,1743512764950,11.8254007181918,46.3769835945097,23.89632,1897.38,4.97293465152,3
2025-04-01T15:06:05.050,1743512765050,11.8253988616153,46.3769882715017,23.89632,1897.38,4.97293465152,3
2025-04-01T15:06:05.150,1743512765150,11.8253970799216,46.3769926577148,23.89632,1897.38,4.97293465152,3
2025-04-01T15:06:05.250,1743512765250,11.8253955212872,46.3769965802162,23.89632,1897.38,4.97293465152,3
2025-04-01T15:06:05.350,1743512765350,11.825393790343,46.377000893666,23.89632,1897.38,4.8764821952,3
2025-04-01T15:06:05.450,1743512765450,11.8253919802952,46.377005181491,23.7744,1897.38,4.8764821952,3
2025-04-01T15:06:05.550,1743512765550,11.8253902307296,46.3770094509539,23.7744,1897.38,4.8764821952,3
2025-04-01T15:06:05.650,1743512765650,11.825388532261,46.3770137829028,23.7744,1897.38,4.8764821952,3
2025-04-01T15:06:05.750,1743512765750,11.8253867828444,46.3770180733315,23.7744,1897.38,4.8764821952,3
2025-04-01T15:06:05.850,1743512765850,11.8253848275996,46.3770222642759,23.7744,1897.38,4.8764821952,3
2025-04-01T15:06:05.950,1743512765950,11.8253829997746,46.377026578959,23.7744,1897.38,4.97293465152,3
2025-04-01T15:06:06.050,1743512766050,11.8253810225316,46.3770313351547,23.68296,1897.38,5.000008288,3
2025-04-01T15:06:06.150,1743512766150,11.8253790994645,46.3770356982095,23.68296,1897.38,5.000008288,3
2025-04-01T15:06:06.240,1743512766240,11.8253773722942,46.3770395646654,23.68296,1897.38,5.000008288,3
2025-04-01T15:06:06.340,1743512766340,11.8253754478366,46.377043864001,23.68296,1897.38,4.90408780928,3
2025-04-01T15:06:06.450,1743512766450,11.8253734829085,46.3770481906057,23.68296,1897.38,4.90408780928,3
2025-04-01T15:06:06.540,1743512766540,11.8253715452918,46.377052492545,23.68296,1897.38,5.000008288,3
2025-04-01T15:06:06.650,1743512766650,11.8253696487911,46.3770568679326,23.59152,1897.38,4.90408780928,3
2025-04-01T15:06:06.750,1743512766750,11.8253677088405,46.3770611560317,23.59152,1897.38,4.90408780928,3
2025-04-01T15:06:06.850,1743512766850,11.8253656719595,46.3770653894556,23.59152,1897.38,4.90408780928,3
2025-04-01T15:06:06.950,1743512766950,11.8253637009236,46.3770696560409,23.59152,1897.38,4.90408780928,3
2025-04-01T15:06:07.050,1743512767050,11.8253618120701,46.3770738857649,23.59152,1897.38,4.93356652096,3
2025-04-01T15:06:07.150,1743512767150,11.8253597940588,46.3770781465949,23.59152,1897.38,4.93356652096,3
2025-04-01T15:06:07.260,1743512767260,11.8253576795142,46.3770824059176,23.4696,1897.0752,4.93356652096,3
2025-04-01T15:06:07.360,1743512767360,11.8253556058869,46.377086663733,23.4696,1897.0752,4.93356652096,3
2025-04-01T15:06:07.450,1743512767450,11.8253535937847,46.3770909638908,23.4696,1897.0752,4.93356652096,3
2025-04-01T15:06:07.560,1743512767560,11.825351500096,46.3770952066327,23.4696,1897.0752,4.96488480224,3
2025-04-01T15:06:07.660,1743512767660,11.8253491618962,46.3770998211388,23.4696,1897.0752,4.96488480224,3
2025-04-01T15:06:07.760,1743512767760,11.8253470445211,46.3771040869019,23.4696,1897.0752,4.96488480224,3
2025-04-01T15:06:07.850,1743512767850,11.825345216845,46.3771078741541,23.4696,1897.0752,4.87032600736,3
2025-04-01T15:06:07.950,1743512767950,11.8253431318959,46.3771120657836,23.4696,1897.0752,4.87032600736,3
2025-04-01T15:06:08.070,1743512768070,11.8253410141733,46.3771162765975,23.37816,1897.0752,4.87032600736,3
2025-04-01T15:06:08.170,1743512768170,11.825338897841,46.3771204532907,23.37816,1897.0752,4.87032600736,3
2025-04-01T15:06:08.280,1743512768280,11.8253368627476,46.3771247138467,23.37816,1897.0752,4.87032600736,3
2025-04-01T15:06:08.380,1743512768380,11.8253347051503,46.3771289093131,23.37816,1897.0752,4.87032600736,3
2025-04-01T15:06:08.450,1743512768450,11.8253324661156,46.3771332512652,23.37816,1897.0752,4.87032600736,3
2025-04-01T15:06:08.580,1743512768580,11.8253302717721,46.3771374590644,23.37816,1897.0752,4.87032600736,3
2025-04-01T15:06:08.690,1743512768690,11.8253280098951,46.377141650831,23.37816,1897.0752,4.87032600736,3
2025-04-01T15:06:08.790,1743512768790,11.8253257961357,46.3771458409532,23.28672,1897.0752,4.90408780928,3
2025-04-01T15:06:08.890,1743512768890,11.8253235097778,46.3771501468663,23.28672,1897.0752,4.90408780928,3
2025-04-01T15:06:08.990,1743512768990,11.8253212695016,46.3771543389069,23.28672,1897.0752,4.90408780928,3
2025-04-01T15:06:09.050,1743512769050,11.8253190312614,46.3771584729836,23.28672,1897.0752,4.90408780928,3
2025-04-01T15:06:09.150,1743512769150,11.8253167755418,46.3771626606393,23.28672,1897.0752,4.90408780928,3
2025-04-01T15:06:09.250,1743512769250,11.8253145749416,46.3771668641905,23.28672,1897.0752,4.90408780928,3
2025-04-01T15:06:09.350,1743512769350,11.8253122946418,46.3771710582866,23.19528,1896.7704,4.90408780928,3
2025-04-01T15:06:09.450,1743512769450,11.8253099682604,46.3771752752668,23.19528,1896.7704,4.90408780928,3
2025-04-01T15:06:09.550,1743512769550,11.8253076486323,46.3771794653891,23.19528,1896.7704,4.90408780928,3
2025-04-01T15:06:09.650,1743512769650,11.8253051746206,46.3771836468784,23.19528,1896.7704,4.93964358272,3
2025-04-01T15:06:09.750,1743512769750,11.8253027881541,46.3771878357673,23.19528,1896.7704,4.93964358272,3
2025-04-01T15:06:09.850,1743512769850,11.8253005364072,46.3771919986204,23.07336,1896.7704,4.93964358272,3
2025-04-01T15:06:09.950,1743512769950,11.8252981494441,46.3771961732582,23.07336,1896.7704,4.93964358272,3
2025-04-01T15:06:10.050,1743512770050,11.8252957043824,46.3772003411814,23.07336,1896.7704,4.93964358272,3
2025-04-01T15:06:10.150,1743512770150,11.8252933122054,46.3772045091047,23.07336,1896.7704,4.93964358272,3
2025-04-01T15:06:10.250,1743512770250,11.8252908649091,46.3772085543856,23.07336,1896.7704,4.93964358272,3
2025-04-01T15:06:10.350,1743512770350,11.8252884462649,46.3772126991506,23.07336,1896.7704,4.93964358272,3
2025-04-01T15:06:10.450,1743512770450,11.8252859757788,46.3772169414815,23.07336,1896.7704,4.93964358272,3
2025-04-01T15:06:10.550,1743512770550,11.8252834993835,46.3772210851504,22.98192,1896.7704,4.97695488224,3
2025-04-01T15:06:10.650,1743512770650,11.8252811596443,46.37722518771,22.98192,1896.7704,4.88467777952,3
2025-04-01T15:06:10.750,1743512770750,11.8252786319534,46.3772293253495,22.98192,1896.7704,4.88467777952,3
2025-04-01T15:06:10.850,1743512770850,11.825276016866,46.3772334746366,22.98192,1896.7704,4.88467777952,3
2025-04-01T15:06:10.950,1743512770950,11.8252734597284,46.3772376130983,22.98192,1896.7704,4.88467777952,3
2025-04-01T15:06:11.050,1743512771050,11.8252708692213,46.3772419205187,22.89048,1896.4656,4.88467777952,3
2025-04-01T15:06:11.150,1743512771150,11.8252682950017,46.3772460678874,22.89048,1896.4656,4.88467777952,3
2025-04-01T15:06:11.250,1743512771250,11.8252656928748,46.3772501893573,22.89048,1896.4656,4.88467777952,3
2025-04-01T15:06:11.350,1743512771350,11.825263097104,46.3772543224747,22.89048,1896.4656,4.88467777952,3
2025-04-01T15:06:11.450,1743512771450,11.8252605228844,46.377258418731,22.79904,1896.4656,4.92443662304,3
2025-04-01T15:06:11.550,1743512771550,11.8252579010933,46.3772625343086,22.79904,1896.4656,4.92443662304,3
2025-04-01T15:06:11.650,1743512771650,11.825255186543,46.3772666487899,22.79904,1896.4656,4.92443662304,3
2025-04-01T15:06:11.750,1743512771750,11.8252525132577,46.3772707517606,22.79904,1896.4656,4.92443662304,3
2025-04-01T15:06:11.850,1743512771850,11.8252498421076,46.3772749002255,22.79904,1896.4656,4.92443662304,3
2025-04-01T15:06:11.950,1743512771950,11.8252471555141,46.3772789905894,22.67712,1896.4656,4.92443662304,3
2025-04-01T15:06:12.050,1743512772050,11.8252444272584,46.3772831491946,22.67712,1896.4656,4.92443662304,3
2025-04-01T15:06:12.150,1743512772150,11.8252417411615,46.3772872314738,22.67712,1896.4656,4.92443662304,3
2025-04-01T15:06:12.240,1743512772240,11.8252389844524,46.3772912493485,22.58568,1896.1608,4.92443662304,3
2025-04-01T15:06:12.350,1743512772350,11.8252362764567,46.3772953061399,22.58568,1896.1608,4.92443662304,3
2025-04-01T15:06:12.450,1743512772450,11.825233504205,46.3772995031137,22.58568,1896.1608,4.92443662304,3
2025-04-01T15:06:12.550,1743512772550,11.8252307471482,46.3773035651122,22.58568,1896.1608,4.96589153632,3
2025-04-01T15:06:12.650,1743512772650,11.8252279398883,46.3773076408139,22.49424,1896.1608,4.96589153632,3
2025-04-01T15:06:12.750,1743512772750,11.825225096329,46.3773116951388,22.49424,1896.1608,4.96589153632,3
2025-04-01T15:06:12.850,1743512772850,11.8252220471897,46.3773160668266,22.49424,1896.1608,4.91935735456,3
2025-04-01T15:06:12.950,1743512772950,11.8252191441414,46.3773201267697,22.49424,1896.1608,4.91935735456,3
2025-04-01T15:06:13.060,1743512773060,11.825216438132,46.3773237012133,22.37232,1896.1608,4.91935735456,3
2025-04-01T15:06:13.150,1743512773150,11.8252135543505,46.3773276914079,22.37232,1896.1608,4.91935735456,3
2025-04-01T15:06:13.260,1743512773260,11.8252105629623,46.3773318468613,22.37232,1896.1608,4.91935735456,3
2025-04-01T15:06:13.360,1743512773360,11.8252076784857,46.3773358396595,22.37232,1896.1608,4.91935735456,3
2025-04-01T15:06:13.470,1743512773470,11.8252047527441,46.3773399111132,22.28088,1895.856,4.91935735456,3
2025-04-01T15:06:13.570,1743512773570,11.8252017938813,46.3773439392652,22.28088,1895.856,4.91935735456,3
2025-04-01T15:06:13.650,1743512773650,11.8251985925929,46.3773479402852,22.28088,1895.856,4.96488480224,3
2025-04-01T15:06:13.770,1743512773770,11.8251955688283,46.3773519739184,22.18944,1895.856,4.96488480224,3
2025-04-01T15:06:13.850,1743512773850,11.8251924667049,46.3773560944291,22.18944,1895.856,4.91935735456,3
2025-04-01T15:06:13.950,1743512773950,11.8251894765084,46.377360126418,22.18944,1895.856,4.91935735456,3
2025-04-01T15:06:14.070,1743512774070,11.8251863973266,46.3773641995161,22.098,1895.856,4.91935735456,3
2025-04-01T15:06:14.150,1743512774150,11.8251834469551,46.3773682167057,22.098,1895.856,4.91935735456,3
2025-04-01T15:06:14.280,1743512774280,11.8251806151148,46.377372255272,22.098,1895.856,4.91935735456,3
2025-04-01T15:06:14.380,1743512774380,11.8251776962755,46.3773762531403,21.97608,1895.5512,4.91935735456,3
2025-04-01T15:06:14.480,1743512774480,11.8251748355349,46.3773802678633,21.97608,1895.5512,4.91935735456,3
2025-04-01T15:06:14.580,1743512774580,11.8251719422193,46.3773842568246,21.97608,1895.5512,4.91935735456,3
2025-04-01T15:06:14.680,1743512774680,11.8251688332929,46.3773881902884,21.97608,1895.5512,4.91935735456,3
2025-04-01T15:06:14.790,1743512774790,11.8251659477734,46.3773921767832,21.88464,1895.5512,4.87545668544,3
2025-04-01T15:06:14.890,1743512774890,11.8251631592341,46.3773963455286,21.88464,1895.5512,4.87545668544,3
2025-04-01T15:06:14.990,1743512774990,11.8251603092691,46.3774003558667,21.88464,1895.5512,4.87545668544,3
2025-04-01T15:06:15.090,1743512775090,11.8251574535438,46.3774043749747,21.88464,1895.5512,4.87545668544,3
2025-04-01T15:06:15.190,1743512775190,11.8251545963289,46.3774083854498,21.7932,1895.5512,4.87545668544,3
2025-04-01T15:06:15.250,1743512775250,11.8251517819183,46.3774123790701,21.7932,1895.5512,4.87545668544,3
2025-04-01T15:06:15.350,1743512775350,11.8251489055854,46.3774163833788,21.7932,1895.5512,4.87545668544,3
2025-04-01T15:06:15.450,1743512775450,11.8251460120711,46.3774203460302,21.7932,1895.5512,4.87545668544,3
2025-04-01T15:06:15.550,1743512775550,11.825143141846,46.3774243519832,21.7932,1895.5512,4.87545668544,3
2025-04-01T15:06:15.650,1743512775650,11.8251401673412,46.3774283727356,21.67128,1895.2464,4.91935735456,3
2025-04-01T15:06:15.750,1743512775750,11.8251372760615,46.3774323938991,21.67128,1895.2464,4.91935735456,3
2025-04-01T15:06:15.850,1743512775850,11.8251344874726,46.3774364241066,21.67128,1895.2464,4.91935735456,3
2025-04-01T15:06:15.950,1743512775950,11.8251315959446,46.3774404604805,21.57984,1895.2464,4.91935735456,3
2025-04-01T15:06:16.050,1743512776050,11.8251286220853,46.377444459582,21.57984,1895.2464,4.91935735456,3
2025-04-01T15:06:16.150,1743512776150,11.8251257337354,46.3774484928042,21.57984,1895.2464,4.91935735456,3
2025-04-01T15:06:16.250,1743512776250,11.8251229925192,46.377452600571,21.57984,1895.2464,4.87545668544,3
2025-04-01T15:06:16.350,1743512776350,11.825120138085,46.3774566387262,21.57984,1895.2464,4.87545668544,3
2025-04-01T15:06:16.450,1743512776450,11.8251172583754,46.377460710591,21.4884,1895.2464,4.87545668544,3
2025-04-01T15:06:16.550,1743512776550,11.825114427429,46.3774647629975,21.4884,1895.2464,4.87545668544,3
2025-04-01T15:06:16.650,1743512776650,11.8251115239834,46.377468851443,21.4884,1895.2464,4.87545668544,3
2025-04-01T15:06:16.750,1743512776750,11.8251087089272,46.3774729234448,21.4884,1895.2464,4.96589153632,3
2025-04-01T15:06:16.850,1743512776850,11.8251059219769,46.3774770090127,21.39696,1894.9416,4.96589153632,3
2025-04-01T15:06:16.950,1743512776950,11.8251031324444,46.3774810827959,21.39696,1894.9416,4.96589153632,3
2025-04-01T15:06:17.050,1743512777050,11.8251002895804,46.3774851131404,21.39696,1894.9416,4.87545668544,3
2025-04-01T15:06:17.150,1743512777150,11.8250975170306,46.3774891700689,21.39696,1894.9416,4.87545668544,3
2025-04-01T15:06:17.250,1743512777250,11.8250947896687,46.3774933245631,21.27504,1894.9416,4.87545668544,3
2025-04-01T15:06:17.350,1743512777350,11.8250920306257,46.3774973903986,21.27504,1894.9416,4.87545668544,3
2025-04-01T15:06:17.450,1743512777450,11.8250894388275,46.3775010729594,21.27504,1894.9416,4.83322615776,3
2025-04-01T15:06:17.550,1743512777550,11.8250867167292,46.3775051046742,21.27504,1894.9416,4.92443662304,3
2025-04-01T15:06:17.650,1743512777650,11.8250838109993,46.3775095189786,21.1836,1894.9416,4.92443662304,3
2025-04-01T15:06:17.750,1743512777750,11.8250810859217,46.3775135930358,21.1836,1894.9416,4.92443662304,3
2025-04-01T15:06:17.850,1743512777850,11.8250785231232,46.3775177950797,21.1836,1894.9416,4.92443662304,3
2025-04-01T15:06:17.950,1743512777950,11.8250758033092,46.3775218680408,21.1836,1894.9416,4.92443662304,3
2025-04-01T15:06:18.050,1743512778050,11.8250727644985,46.3775261501105,21.1836,1894.9416,4.83322615776,3
2025-04-01T15:06:18.150,1743512778150,11.82507000625,46.3775302201939,21.09216,1894.6368,4.83322615776,3
2025-04-01T15:06:18.250,1743512778250,11.8250675739501,46.3775337946376,21.09216,1894.6368,4.83322615776,3
2025-04-01T15:06:18.340,1743512778340,11.8250648469855,46.3775378016869,21.09216,1894.6368,4.83322615776,3
2025-04-01T15:06:18.450,1743512778450,11.8250620413642,46.3775418144915,21.09216,1894.6368,4.83322615776,3
2025-04-01T15:06:18.550,1743512778550,11.8250593066531,46.3775458171558,20.97024,1894.6368,4.83322615776,3
2025-04-01T15:06:18.650,1743512778650,11.8250566836702,46.3775499113566,20.97024,1894.6368,4.83322615776,3
2025-04-01T15:06:18.750,1743512778750,11.8250539651473,46.3775539255315,20.97024,1894.6368,4.83322615776,3
2025-04-01T15:06:18.850,1743512778850,11.8250511721389,46.3775578920198,20.97024,1894.6368,4.83322615776,3
2025-04-01T15:06:18.950,1743512778950,11.8250484475578,46.3775618948211,20.8788,1894.6368,4.83322615776,3
2025-04-01T15:06:19.050,1743512779050,11.8250456646794,46.3775660371197,20.8788,1894.6368,4.83322615776,3
2025-04-01T15:06:19.150,1743512779150,11.8250429233143,46.3775700526649,20.8788,1894.6368,4.87545668544,3
2025-04-01T15:06:19.250,1743512779250,11.8250401105423,46.3775740221678,20.8788,1894.6368,4.87545668544,3
2025-04-01T15:06:19.360,1743512779360,11.8250373633177,46.3775780366168,20.78736,1894.332,4.87545668544,3
2025-04-01T15:06:19.460,1743512779460,11.825034737852,46.377582016397,20.78736,1894.332,4.87545668544,3
2025-04-01T15:06:19.570,1743512779570,11.8250319970827,46.3775860189243,20.78736,1894.332,4.87545668544,3
2025-04-01T15:06:19.650,1743512779650,11.8250292114235,46.3775901283355,20.78736,1894.332,4.87545668544,3
2025-04-01T15:06:19.770,1743512779770,11.8250264514867,46.3775941294925,20.69592,1894.332,4.87545668544,3
2025-04-01T15:06:19.870,1743512779870,11.8250236600673,46.3775980735077,20.69592,1894.332,4.87545668544,3
2025-04-01T15:06:19.950,1743512779950,11.8250208942709,46.3776020721982,20.69592,1894.332,4.87545668544,3
2025-04-01T15:06:20.050,1743512780050,11.8250181430736,46.377606081577,20.69592,1894.332,4.87545668544,3
2025-04-01T15:06:20.180,1743512780180,11.8250153864141,46.3776101084958,20.574,1894.332,4.87545668544,3
2025-04-01T15:06:20.280,1743512780280,11.825012535307,46.3776141820049,20.574,1894.332,4.87545668544,3
2025-04-01T15:06:20.380,1743512780380,11.8250097812296,46.3776182255044,20.574,1894.332,4.87545668544,3
2025-04-01T15:06:20.480,1743512780480,11.8250071017371,46.3776222568081,20.574,1894.332,4.87545668544,3
2025-04-01T15:06:20.580,1743512780580,11.8250043394167,46.37762627989,20.48256,1894.0272,4.87545668544,3
2025-04-01T15:06:20.680,1743512780680,11.8250013580096,46.3776304738491,20.48256,1894.0272,4.87545668544,3
2025-04-01T15:06:20.790,1743512780790,11.8249985460322,46.3776344855574,20.48256,1894.0272,4.87545668544,3
2025-04-01T15:06:20.890,1743512780890,11.8249959786652,46.3776381387937,20.48256,1894.0272,4.87545668544,3
2025-04-01T15:06:20.990,1743512780990,11.824993191417,46.3776421070633,20.39112,1894.0272,4.87545668544,3
2025-04-01T15:06:21.050,1743512781050,11.8249904676304,46.3776460630002,20.39112,1894.0272,4.87545668544,3
2025-04-01T15:06:21.150,1743512781150,11.824987664194,46.3776500345586,20.39112,1894.0272,4.87545668544,3
2025-04-01T15:06:21.250,1743512781250,11.8249849460684,46.3776540918982,20.39112,1894.0272,4.87545668544,3
2025-04-01T15:06:21.350,1743512781350,11.8249820987352,46.3776580725006,20.39112,1894.0272,4.87545668544,3
2025-04-01T15:06:21.450,1743512781450,11.8249791477181,46.3776620918826,20.29968,1894.0272,4.91935735456,3
2025-04-01T15:06:21.550,1743512781550,11.8249762789331,46.377666081392,20.29968,1894.0272,4.91935735456,3
2025-04-01T15:06:21.650,1743512781650,11.8249733232483,46.3776701142031,20.29968,1894.0272,4.91935735456,3
2025-04-01T15:06:21.750,1743512781750,11.8249704642953,46.3776741178267,20.29968,1894.0272,4.87545668544,3
2025-04-01T15:06:21.850,1743512781850,11.8249676838004,46.3776780212808,20.17776,1893.7224,4.87545668544,3
2025-04-01T15:06:21.950,1743512781950,11.8249648516622,46.3776820175047,20.17776,1893.7224,4.87545668544,3
2025-04-01T15:06:22.050,1743512782050,11.8249619292476,46.377686069089,20.17776,1893.7224,4.87545668544,3
2025-04-01T15:06:22.150,1743512782150,11.8249590987978,46.3776900739458,20.08632,1893.7224,4.87545668544,3
2025-04-01T15:06:22.250,1743512782250,11.8249562941696,46.3776940851061,20.08632,1893.7224,4.87545668544,3
2025-04-01T15:06:22.350,1743512782350,11.8249534750416,46.3776980906481,20.08632,1893.7224,4.87545668544,3
2025-04-01T15:06:22.450,1743512782450,11.824950598808,46.377702091531,20.08632,1893.7224,4.87545668544,3
2025-04-01T15:06:22.550,1743512782550,11.8249477544542,46.3777060954286,19.99488,1893.7224,4.87545668544,3
2025-04-01T15:06:22.650,1743512782650,11.8249448324368,46.3777100853491,19.99488,1893.7224,4.87545668544,3
2025-04-01T15:06:22.750,1743512782750,11.8249419771585,46.3777140910281,19.99488,1893.7224,4.87545668544,3
2025-04-01T15:06:22.850,1743512782850,11.8249392387728,46.3777180842373,19.87296,1893.4176,4.87545668544,3
2025-04-01T15:06:22.950,1743512782950,11.8249364020662,46.377722092794,19.87296,1893.4176,4.87545668544,3
2025-04-01T15:06:23.050,1743512783050,11.8249335589041,46.3777262441365,19.87296,1893.4176,4.87545668544,3
2025-04-01T15:06:23.150,1743512783150,11.8249307277591,46.3777302629705,19.87296,1893.4176,4.87545668544,3
2025-04-01T15:06:23.250,1743512783250,11.8249278722821,46.3777342239775,19.78152,1893.4176,4.87545668544,3
2025-04-01T15:06:23.350,1743512783350,11.8249250271338,46.3777382393857,19.78152,1893.4176,4.87545668544,3
2025-04-01T15:06:23.450,1743512783450,11.8249221340169,46.3777423657887,19.78152,1893.4176,4.87545668544,3
2025-04-01T15:06:23.550,1743512783550,11.8249192812214,46.377746395311,19.69008,1893.4176,4.87545668544,3
2025-04-01T15:06:23.650,1743512783650,11.8249164637817,46.3777502016105,19.69008,1893.4176,4.87545668544,3
2025-04-01T15:06:23.730,1743512783730,11.8249136060205,46.3777542013972,19.69008,1893.4176,4.91935735456,3
2025-04-01T15:06:23.850,1743512783850,11.8249105129844,46.3777584812744,19.59864,1893.1128,4.91935735456,3
2025-04-01T15:06:23.950,1743512783950,11.8249076084463,46.3777624980529,19.59864,1893.1128,4.91935735456,3
2025-04-01T15:06:24.050,1743512784050,11.824904816729,46.3777661025063,19.59864,1893.1128,4.91935735456,3
2025-04-01T15:06:24.150,1743512784150,11.8249018903418,46.3777700637874,19.59864,1893.1128,4.91935735456,3
2025-04-01T15:06:24.240,1743512784240,11.8248988612639,46.3777741766243,19.47672,1893.1128,4.91935735456,3
2025-04-01T15:06:24.350,1743512784350,11.8248958876033,46.3777781313279,19.47672,1893.1128,4.91935735456,3
2025-04-01T15:06:24.450,1743512784450,11.8248929165248,46.3777822193623,19.47672,1893.1128,4.96488480224,3
2025-04-01T15:06:24.550,1743512784550,11.8248899157514,46.377786165433,19.38528,1893.1128,4.8764821952,3
2025-04-01T15:06:24.650,1743512784650,11.8248868726702,46.3777901160257,19.38528,1893.1128,4.8764821952,3
2025-04-01T15:06:24.750,1743512784750,11.8248838399178,46.377794037842,19.38528,1893.1128,4.8764821952,3
2025-04-01T15:06:24.850,1743512784850,11.8248803486324,46.3777983181303,19.29384,1892.808,4.8764821952,3
2025-04-01T15:06:24.960,1743512784960,11.8248772494388,46.3778022392614,19.29384,1892.808,4.8764821952,3
2025-04-01T15:06:25.060,1743512785060,11.8248742777644,46.3778060512477,19.29384,1892.808,4.8764821952,3
2025-04-01T15:06:25.150,1743512785150,11.8248711645676,46.3778099394914,19.29384,1892.808,4.78853556896,3
2025-04-01T15:06:25.260,1743512785260,11.82486831207,46.377813515922,19.17192,1892.808,4.78853556896,3
2025-04-01T15:06:25.360,1743512785360,11.8248651788117,46.3778173619604,19.17192,1892.808,4.83736261888,3
2025-04-01T15:06:25.450,1743512785450,11.8248619124727,46.3778212245109,19.17192,1892.808,4.83736261888,3
2025-04-01T15:06:25.550,1743512785550,11.8248586966844,46.3778250871985,19.08048,1892.808,4.83736261888,3
2025-04-01T15:06:25.650,1743512785650,11.8248553063021,46.377828889113,19.08048,1892.808,4.8877476032,3
2025-04-01T15:06:25.770,1743512785770,11.824851981765,46.3778327507043,19.08048,1892.808,4.8877476032,3
2025-04-01T15:06:25.870,1743512785870,11.824848442511,46.3778370084511,18.98904,1892.5032,4.97394004448,3
2025-04-01T15:06:25.980,1743512785980,11.82484502154,46.3778409027927,18.98904,1892.5032,5.02494596736,3
2025-04-01T15:06:26.050,1743512786050,11.8248416336405,46.3778447547234,18.98904,1892.5032,4.93964358272,3
2025-04-01T15:06:26.180,1743512786180,11.8248381676802,46.377848619809,18.8976,1892.5032,4.93964358272,3
2025-04-01T15:06:26.280,1743512786280,11.8248348679716,46.3778524446076,18.8976,1892.5032,4.93964358272,3
2025-04-01T15:06:26.380,1743512786380,11.8248313746007,46.3778562702283,18.8976,1892.5032,4.93964358272,3
2025-04-01T15:06:26.480,1743512786480,11.8248277499365,46.3778600832423,18.77568,1892.5032,4.93964358272,3
2025-04-01T15:06:26.580,1743512786580,11.8248242054189,46.3778638976266,18.77568,1892.5032,4.9930031712,3
2025-04-01T15:06:26.690,1743512786690,11.8248209836718,46.3778673864946,18.77568,1892.5032,4.9930031712,3
2025-04-01T15:06:26.790,1743512786790,11.8248174483903,46.3778711735413,18.68424,1892.1984,4.9930031712,3
2025-04-01T15:06:26.890,1743512786890,11.8248136068243,46.3778752536964,18.68424,1892.1984,4.9930031712,3
2025-04-01T15:06:26.990,1743512786990,11.8248100131462,46.3778790804819,18.68424,1892.1984,4.9930031712,3
2025-04-01T15:06:27.090,1743512787090,11.8248063953347,46.3778830279229,18.5928,1892.1984,4.9930031712,3
2025-04-01T15:06:27.190,1743512787190,11.8248027756363,46.3778868566269,18.5928,1892.1984,4.9930031712,3
2025-04-01T15:06:27.250,1743512787250,11.8247993283471,46.3778902601249,18.5928,1892.1984,4.9930031712,3
2025-04-01T15:06:27.350,1743512787350,11.8247957157,46.3778940151063,18.47088,1892.1984,4.9091831712,3
2025-04-01T15:06:27.450,1743512787450,11.8247920621355,46.3778978617613,18.47088,1892.1984,4.9091831712,3
2025-04-01T15:06:27.550,1743512787550,11.8247884345912,46.3779016059859,18.47088,1892.1984,4.9091831712,3
2025-04-01T15:06:27.650,1743512787650,11.824784671682,46.3779053465107,18.37944,1891.8936,4.96488480224,3
2025-04-01T15:06:27.750,1743512787750,11.8247810150388,46.3779090824449,18.37944,1891.8936,4.96488480224,3
2025-04-01T15:06:27.850,1743512787850,11.8247771538086,46.3779130509201,18.37944,1891.8936,4.96488480224,3
2025-04-01T15:06:27.950,1743512787950,11.8247734598233,46.3779167962409,18.288,1891.8936,4.96488480224,3
2025-04-01T15:06:28.050,1743512788050,11.824769626997,46.3779206198748,18.288,1891.8936,4.96488480224,3
2025-04-01T15:06:28.150,1743512788150,11.8247659050051,46.3779243541646,18.288,1891.8936,4.96488480224,3
2025-04-01T15:06:28.250,1743512788250,11.8247623006011,46.377928019117,18.288,1891.8936,4.88263033632,3
2025-04-01T15:06:28.350,1743512788350,11.8247585784106,46.3779317090089,18.19656,1891.8936,4.88263033632,3
2025-04-01T15:06:28.450,1743512788450,11.8247548461894,46.3779353675894,18.19656,1891.8936,4.88263033632,3
2025-04-01T15:06:28.550,1743512788550,11.8247511030436,46.3779390195924,18.19656,1891.8936,4.88263033632,3
2025-04-01T15:06:28.650,1743512788650,11.8247476653878,46.377942285443,18.07464,1891.5888,4.88263033632,3
2025-04-01T15:06:28.750,1743512788750,11.8247439160846,46.3779458710547,18.07464,1891.5888,4.88263033632,3
2025-04-01T15:06:28.850,1743512788850,11.8247398612915,46.3779498515886,18.07464,1891.5888,4.8600490048,3
2025-04-01T15:06:28.950,1743512788950,11.8247360391911,46.3779534557679,18.07464,1891.5888,4.8600490048,3
2025-04-01T15:06:29.050,1743512789050,11.8247321925601,46.3779570293894,18.07464,1891.5888,4.8600490048,3
2025-04-01T15:06:29.150,1743512789150,11.8247283342101,46.3779606031479,17.9832,1891.5888,4.8600490048,3
2025-04-01T15:06:29.250,1743512789250,11.8247247195767,46.3779638198731,17.9832,1891.5888,4.8600490048,3
2025-04-01T15:06:29.350,1743512789350,11.8247208514939,46.3779673412859,17.9832,1891.5888,4.8600490048,3
2025-04-01T15:06:29.450,1743512789450,11.8247170122122,46.377970935599,17.89176,1891.5888,4.8600490048,3
2025-04-01T15:06:29.550,1743512789550,11.8247131030134,46.3779744549563,17.89176,1891.5888,4.92037392352,3
2025-04-01T15:06:29.650,1743512789650,11.8247089869434,46.3779779623235,17.89176,1891.5888,4.92037392352,3
2025-04-01T15:06:29.750,1743512789750,11.8247049959099,46.3779814653057,17.76984,1891.284,4.92037392352,3
2025-04-01T15:06:29.850,1743512789850,11.8247006434726,46.3779854174742,17.76984,1891.284,4.98197558848,3
2025-04-01T15:06:29.950,1743512789950,11.8246965534229,46.3779889292949,17.76984,1891.284,4.90408780928,3
2025-04-01T15:06:30.050,1743512790050,11.8246924991263,46.3779923504013,17.6784,1891.284,4.90408780928,3
2025-04-01T15:06:30.150,1743512790150,11.8246883735222,46.3779958222775,17.6784,1891.284,4.90408780928,3
2025-04-01T15:06:30.250,1743512790250,11.8246842064049,46.3779992936056,17.6784,1891.284,4.90408780928,3
2025-04-01T15:06:30.350,1743512790350,11.8246800641161,46.3780027353351,17.58696,1891.284,4.90408780928,3
2025-04-01T15:06:30.450,1743512790450,11.8246760767571,46.3780061282132,17.58696,1891.284,4.827014984,3
2025-04-01T15:06:30.550,1743512790550,11.8246719200678,46.3780095344517,17.58696,1891.284,4.827014984,3
2025-04-01T15:06:30.650,1743512790650,11.8246681094878,46.3780125824923,17.49552,1891.284,4.8918380192,3
2025-04-01T15:06:30.760,1743512790760,11.8246639318432,46.3780159294651,17.49552,1891.284,4.8918380192,3
2025-04-01T15:06:30.860,1743512790860,11.8246592793782,46.378019619357,17.49552,1891.284,4.8918380192,3
2025-04-01T15:06:30.960,1743512790960,11.8246550061935,46.3780229885288,17.49552,1891.284,4.8918380192,3
2025-04-01T15:06:31.060,1743512791060,11.8246506425337,46.3780263228948,17.3736,1890.9792,4.8918380192,3
2025-04-01T15:06:31.150,1743512791150,11.8246463288288,46.3780296788432,17.3736,1890.9792,4.8918380192,3
2025-04-01T15:06:31.270,1743512791270,11.8246424800129,46.378032815337,17.3736,1890.9792,4.81664544416,3
2025-04-01T15:06:31.370,1743512791370,11.8246382455607,46.3780361296965,17.3736,1890.9792,4.81664544416,3
2025-04-01T15:06:31.470,1743512791470,11.8246339094108,46.378039408154,17.28216,1890.9792,4.81664544416,3
2025-04-01T15:06:31.570,1743512791570,11.8246297154787,46.3780426859264,17.28216,1890.9792,4.81664544416,3
2025-04-01T15:06:31.670,1743512791670,11.8246256030834,46.3780460174147,17.28216,1890.9792,4.81664544416,3
2025-04-01T15:06:31.780,1743512791780,11.8246214210689,46.3780492859376,17.19072,1890.9792,4.81664544416,3
2025-04-01T15:06:31.880,1743512791880,11.8246169644512,46.3780529430792,17.19072,1890.9792,4.81664544416,3
2025-04-01T15:06:31.980,1743512791980,11.8246127351633,46.3780562522316,17.19072,1890.9792,4.81664544416,3
2025-04-01T15:06:32.080,1743512792080,11.8246084960432,46.37805966217,17.09928,1890.6744,4.81664544416,3
2025-04-01T15:06:32.180,1743512792180,11.8246042378549,46.3780629838607,17.09928,1890.6744,4.81664544416,3
2025-04-01T15:06:32.280,1743512792280,11.8245998567159,46.3780662464912,17.09928,1890.6744,4.81664544416,3
2025-04-01T15:06:32.380,1743512792380,11.8245955837298,46.3780695770203,16.97736,1890.6744,4.81664544416,3
2025-04-01T15:06:32.490,1743512792490,11.8245916342095,46.3780726090968,16.97736,1890.6744,4.81664544416,3
2025-04-01T15:06:32.590,1743512792590,11.8245873948908,46.3780759298283,16.97736,1890.6744,4.8918380192,3
2025-04-01T15:06:32.690,1743512792690,11.82458329342,46.3780792863248,16.88592,1890.6744,4.8918380192,3
2025-04-01T15:06:32.790,1743512792790,11.8245790456597,46.3780826561817,16.88592,1890.6744,4.8918380192,3
2025-04-01T15:06:32.850,1743512792850,11.8245742473024,46.3780862733104,16.88592,1890.6744,4.957830064,3
2025-04-01T15:06:32.950,1743512792950,11.8245698969507,46.3780896950334,16.79448,1890.3696,4.957830064,3
2025-04-01T15:06:33.050,1743512793050,11.8245654446035,46.3780932586517,16.79448,1890.3696,4.957830064,3
2025-04-01T15:06:33.150,1743512793150,11.8245610698205,46.3780966969554,16.79448,1890.3696,4.957830064,3
2025-04-01T15:06:33.250,1743512793250,11.8245567674374,46.3781000674975,16.67256,1890.3696,4.957830064,3
2025-04-01T15:06:33.350,1743512793350,11.8245524288047,46.3781034882613,16.67256,1890.3696,4.957830064,3
2025-04-01T15:06:33.450,1743512793450,11.824548157507,46.3781068141314,16.67256,1890.3696,4.8918380192,3
2025-04-01T15:06:33.550,1743512793550,11.8245438582027,46.3781102147518,16.58112,1890.3696,4.8918380192,3
2025-04-01T15:06:33.650,1743512793650,11.8245391083106,46.3781138538739,16.58112,1890.3696,4.8918380192,3
2025-04-01T15:06:33.750,1743512793750,11.8245347910304,46.3781172623049,16.58112,1890.3696,4.8918380192,3
2025-04-01T15:06:33.850,1743512793850,11.8245308401197,46.3781203513176,16.48968,1890.0648,4.8918380192,3
2025-04-01T15:06:33.950,1743512793950,11.8245265801438,46.3781237129527,16.48968,1890.0648,4.8918380192,3
2025-04-01T15:06:34.050,1743512794050,11.8245223399313,46.3781271221374,16.48968,1890.0648,4.8918380192,3
2025-04-01T15:06:34.150,1743512794150,11.824518100414,46.378130501655,16.48968,1890.0648,4.8918380192,3
2025-04-01T15:06:34.250,1743512794250,11.824513792668,46.378133945303,16.39824,1890.0648,4.8918380192,3
2025-04-01T15:06:34.350,1743512794350,11.8245095668561,46.378137339894,16.39824,1890.0648,4.8918380192,3
2025-04-01T15:06:34.450,1743512794450,11.8245056951979,46.3781405329129,16.39824,1890.0648,4.8918380192,3
2025-04-01T15:06:34.550,1743512794550,11.8245014989816,46.3781439039346,16.27632,1890.0648,4.8918380192,3
2025-04-01T15:06:34.650,1743512794650,11.8244971709755,46.3781473051716,16.27632,1890.0648,4.8918380192,3
2025-04-01T15:06:34.750,1743512794750,11.8244929530094,46.378150655159,16.27632,1890.0648,4.8918380192,3
2025-04-01T15:06:34.850,1743512794850,11.8244887438822,46.3781540289899,16.18488,1889.76,4.8918380192,3
2025-04-01T15:06:34.950,1743512794950,11.8244845175737,46.3781573581487,16.18488,1889.76,4.8918380192,3
2025-04-01T15:06:35.050,1743512795050,11.8244798433589,46.3781610283768,16.18488,1889.76,4.8918380192,3
2025-04-01T15:06:35.150,1743512795150,11.8244755841775,46.378164432834,16.18488,1889.76,4.8918380192,3
2025-04-01T15:06:35.250,1743512795250,11.8244713580676,46.3781679399271,16.09344,1889.76,4.96790500448,3
2025-04-01T15:06:35.350,1743512795350,11.8244671377179,46.378171390358,16.09344,1889.76,4.8918380192,3
2025-04-01T15:06:35.450,1743512795450,11.8244629734807,46.3781747571318,16.09344,1889.76,4.8918380192,3
2025-04-01T15:06:35.550,1743512795550,11.8244587658432,46.3781781741958,16.09344,1889.76,4.8918380192,3
2025-04-01T15:06:35.650,1743512795650,11.8244548559492,46.3781812675249,15.97152,1889.76,4.8918380192,3
2025-04-01T15:06:35.750,1743512795750,11.8244506747293,46.3781846665009,15.97152,1889.76,4.8918380192,3
2025-04-01T15:06:35.850,1743512795850,11.8244462821691,46.3781883465952,15.97152,1889.76,4.96790500448,3
2025-04-01T15:06:35.950,1743512795950,11.8244420826754,46.3781918191566,15.97152,1889.76,4.96790500448,3
2025-04-01T15:06:36.050,1743512796050,11.8244377322243,46.3781953177538,15.97152,1889.76,4.96790500448,3
2025-04-01T15:06:36.150,1743512796150,11.8244335206143,46.3781988257376,15.88008,1889.4552,4.96790500448,3
2025-04-01T15:06:36.260,1743512796260,11.8244293472402,46.3782023906576,15.88008,1889.4552,4.96790500448,3
2025-04-01T15:06:36.360,1743512796360,11.824425136524,46.3782059000803,15.88008,1889.4552,4.96790500448,3
2025-04-01T15:06:36.460,1743512796460,11.8244209504376,46.3782092607561,15.78864,1889.4552,4.96790500448,3
2025-04-01T15:06:36.560,1743512796560,11.8244167186669,46.378212715572,15.78864,1889.4552,4.8918380192,3
2025-04-01T15:06:36.660,1743512796660,11.8244124741839,46.3782161165349,15.78864,1889.4552,4.8918380192,3
2025-04-01T15:06:36.760,1743512796760,11.8244081584928,46.3782194980394,15.6972,1889.4552,4.957830064,3
2025-04-01T15:06:36.870,1743512796870,11.8244036713856,46.3782227401839,15.6972,1889.4552,4.957830064,3
2025-04-01T15:06:36.970,1743512796970,11.8243992644249,46.3782261188793,15.6972,1889.4552,4.957830064,3
2025-04-01T15:06:37.050,1743512797050,11.8243949143711,46.3782294933953,15.57528,1889.1504,4.957830064,3
2025-04-01T15:06:37.170,1743512797170,11.8243905463415,46.3782329379339,15.57528,1889.1504,5.03290015008,3
2025-04-01T15:06:37.270,1743512797270,11.824386237801,46.3782364220059,15.48384,1889.1504,5.03290015008,3
2025-04-01T15:06:37.370,1743512797370,11.8243819241954,46.3782399136831,15.48384,1889.1504,5.03290015008,3
2025-04-01T15:06:37.480,1743512797480,11.8243779502439,46.3782431924147,15.48384,1889.1504,4.96790500448,3
2025-04-01T15:06:37.580,1743512797580,11.8243736773571,46.3782466469565,15.3924,1889.1504,4.96790500448,3
2025-04-01T15:06:37.680,1743512797680,11.8243691319526,46.3782500838899,15.3924,1889.1504,5.03290015008,3
2025-04-01T15:06:37.780,1743512797780,11.8243648150697,46.3782534759458,15.3924,1889.1504,4.957830064,3
2025-04-01T15:06:37.880,1743512797880,11.8243604905396,46.3782569379559,15.27048,1888.8456,4.957830064,3
2025-04-01T15:06:37.950,1743512797950,11.8243561808073,46.3782603017149,15.27048,1888.8456,4.957830064,3
2025-04-01T15:06:38.050,1743512798050,11.8243514232681,46.3782639450165,15.17904,1888.8456,4.8918380192,3
2025-04-01T15:06:38.190,1743512798190,11.8243471260493,46.3782673417314,15.17904,1888.8456,4.8918380192,3
2025-04-01T15:06:38.290,1743512798290,11.8243428739192,46.3782708508115,15.17904,1888.8456,4.8918380192,3
2025-04-01T15:06:38.390,1743512798390,11.8243386342033,46.3782742637646,15.0876,1888.8456,4.8918380192,3
2025-04-01T15:06:38.490,1743512798490,11.8243343585357,46.3782776593833,15.0876,1888.8456,4.8918380192,3
2025-04-01T15:06:38.550,1743512798550,11.8243301442442,46.3782810841895,15.0876,1888.8456,4.8918380192,3
2025-04-01T15:06:38.650,1743512798650,11.8243263410134,46.3782842207518,14.99616,1888.5408,4.96790500448,3
2025-04-01T15:06:38.750,1743512798750,11.8243221684338,46.37828763624,14.99616,1888.5408,4.96790500448,3
2025-04-01T15:06:38.850,1743512798850,11.8243173424672,46.3782917388681,14.99616,1888.5408,4.96790500448,3
2025-04-01T15:06:38.950,1743512798950,11.8243130998712,46.378295207113,14.99616,1888.5408,4.96790500448,3
2025-04-01T15:06:39.050,1743512799050,11.8243092524457,46.3782983338092,14.87424,1888.5408,4.8918380192,3
2025-04-01T15:06:39.150,1743512799150,11.8243050061751,46.3783017226448,14.87424,1888.5408,4.8918380192,3
2025-04-01T15:06:39.250,1743512799250,11.8243007225624,46.3783050613958,14.87424,1888.5408,4.8918380192,3
2025-04-01T15:06:39.350,1743512799350,11.8242964045871,46.3783084294714,14.87424,1888.5408,4.957830064,3
2025-04-01T15:06:39.450,1743512799450,11.8242921148169,46.378311995008,14.7828,1888.5408,4.957830064,3
2025-04-01T15:06:39.550,1743512799550,11.8242877640679,46.3783154076185,14.7828,1888.5408,4.957830064,3
2025-04-01T15:06:39.650,1743512799650,11.8242837960752,46.3783186000208,14.7828,1888.5408,4.957830064,3
2025-04-01T15:06:39.750,1743512799750,11.8242794846546,46.378322018044,14.69136,1888.236,4.957830064,3
2025-04-01T15:06:39.850,1743512799850,11.824274706458,46.3783256557959,14.69136,1888.236,4.957830064,3
2025-04-01T15:06:39.950,1743512799950,11.8242703638528,46.3783291053361,14.69136,1888.236,5.03290015008,3
2025-04-01T15:06:40.050,1743512800050,11.8242660383295,46.378332667584,14.69136,1888.236,5.03290015008,3
2025-04-01T15:06:40.150,1743512800150,11.8242616931421,46.3783361176039,14.59992,1888.236,5.03290015008,3
2025-04-01T15:06:40.250,1743512800250,11.8242573415986,46.3783394206584,14.59992,1888.236,5.03290015008,3
2025-04-01T15:06:40.350,1743512800350,11.8242530168699,46.3783428482738,14.59992,1888.236,4.957830064,3
2025-04-01T15:06:40.450,1743512800450,11.8242487038603,46.3783464560158,14.478,1888.236,4.96790500448,3
2025-04-01T15:06:40.550,1743512800550,11.824244441898,46.3783499097355,14.478,1888.236,4.96790500448,3
2025-04-01T15:06:40.650,1743512800650,11.8242405340896,46.3783529936781,14.478,1888.236,4.96790500448,3
2025-04-01T15:06:40.750,1743512800750,11.8242363803797,46.37835641499,14.38656,1887.9312,4.90408780928,3
2025-04-01T15:06:40.850,1743512800850,11.8242318762898,46.3783602584933,14.38656,1887.9312,4.90408780928,3
2025-04-01T15:06:40.950,1743512800950,11.8242277410523,46.3783637135148,14.38656,1887.9312,4.90408780928,3
2025-04-01T15:06:41.050,1743512801050,11.8242235885341,46.3783670171859,14.38656,1887.9312,4.90408780928,3
2025-04-01T15:06:41.150,1743512801150,11.8242195240081,46.3783704606968,14.29512,1887.9312,4.84149505664,3
2025-04-01T15:06:41.230,1743512801230,11.8242155657482,46.3783739562794,14.29512,1887.9312,4.84149505664,3
2025-04-01T15:06:41.350,1743512801350,11.8242115957692,46.3783774018457,14.29512,1887.9312,4.84149505664,3
2025-04-01T15:06:41.450,1743512801450,11.8242076949127,46.378380881841,14.29512,1887.9312,4.84149505664,3
2025-04-01T15:06:41.550,1743512801550,11.824203783529,46.3783843242557,14.29512,1887.9312,4.78017502688,3
2025-04-01T15:06:41.650,1743512801650,11.8242001047388,46.3783875153562,14.29512,1887.9312,4.78017502688,3
2025-04-01T15:06:41.740,1743512801740,11.824196239834,46.3783909299536,14.1732,1887.9312,4.78017502688,3
2025-04-01T15:06:41.850,1743512801850,11.8241920058783,46.378394705524,14.1732,1887.9312,4.78017502688,3
2025-04-01T15:06:41.950,1743512801950,11.8241881165423,46.378398175242,14.1732,1887.9312,4.78017502688,3
2025-04-01T15:06:42.050,1743512802050,11.8241842766647,46.3784015639749,14.1732,1887.9312,4.78017502688,3
2025-04-01T15:06:42.150,1743512802150,11.824180423479,46.3784050519865,14.1732,1887.9312,4.78017502688,3
2025-04-01T15:06:42.250,1743512802250,11.824176558177,46.378408599675,14.1732,1887.9312,4.78017502688,3
2025-04-01T15:06:42.360,1743512802360,11.8241727314088,46.3784121110845,14.1732,1887.9312,4.78017502688,3
2025-04-01T15:06:42.460,1743512802460,11.8241688524015,46.3784155757324,14.1732,1887.9312,4.78017502688,3
2025-04-01T15:06:42.550,1743512802550,11.8241650131197,46.3784191028662,14.1732,1887.9312,4.8600490048,3
2025-04-01T15:06:42.650,1743512802650,11.8241615975117,46.3784223932797,14.1732,1887.9312,4.8600490048,3
2025-04-01T15:06:42.760,1743512802760,11.8241577772982,46.378425928978,14.08176,1887.6264,4.8600490048,3
2025-04-01T15:06:42.870,1743512802870,11.8241534915006,46.3784296596023,14.08176,1887.6264,4.8600490048,3
2025-04-01T15:06:42.950,1743512802950,11.8241495862743,46.3784332494276,14.08176,1887.6264,4.8600490048,3
2025-04-01T15:06:43.050,1743512803050,11.8241456472813,46.3784369527828,14.08176,1887.6264,4.92037392352,3
2025-04-01T15:06:43.170,1743512803170,11.8241417112677,46.3784405803601,14.08176,1887.6264,5.000008288,3
2025-04-01T15:06:43.270,1743512803270,11.8241377015631,46.3784442987202,14.08176,1887.6264,5.000008288,3
2025-04-01T15:06:43.370,1743512803370,11.8241337784603,46.3784479500038,14.08176,1887.6264,5.000008288,3
2025-04-01T15:06:43.480,1743512803480,11.8241302639355,46.3784512962572,13.99032,1887.6264,4.94065568128,3
2025-04-01T15:06:43.580,1743512803580,11.8241263998252,46.3784549295555,13.99032,1887.6264,4.94065568128,3
2025-04-01T15:06:43.680,1743512803680,11.824122420908,46.378458552371,13.99032,1887.6264,4.94065568128,3
2025-04-01T15:06:43.780,1743512803780,11.8241185774551,46.3784622025926,13.99032,1887.6264,4.94065568128,3
2025-04-01T15:06:43.880,1743512803880,11.8241144354642,46.3784662380757,13.99032,1887.6264,4.94065568128,3
2025-04-01T15:06:43.950,1743512803950,11.8241106200178,46.3784699355044,13.99032,1887.6264,5.02195974016,3
2025-04-01T15:06:44.090,1743512804090,11.8241065175539,46.3784740546105,13.99032,1887.6264,4.88263033632,3
2025-04-01T15:06:44.190,1743512804190,11.8241027400455,46.3784777714632,13.99032,1887.6264,4.88263033632,3
2025-04-01T15:06:44.290,1743512804290,11.8240993931627,46.3784809966843,13.99032,1887.6264,4.88263033632,3
2025-04-01T15:06:44.390,1743512804390,11.8240957103999,46.3784846289891,13.99032,1887.6264,4.88263033632,3
2025-04-01T15:06:44.450,1743512804450,11.8240923100861,46.3784878679133,13.99032,1887.6264,4.82597919232,3
2025-04-01T15:06:44.550,1743512804550,11.8240886896925,46.3784914489344,13.99032,1887.6264,4.74342431552,3
2025-04-01T15:06:44.650,1743512804650,11.8240850776413,46.3784951153256,13.99032,1887.6264,4.82597919232,3
2025-04-01T15:06:44.750,1743512804750,11.824081476316,46.3784987226566,13.99032,1887.6264,4.82597919232,3
2025-04-01T15:06:44.850,1743512804850,11.8240777055609,46.378502367534,13.99032,1887.6264,4.82597919232,3
2025-04-01T15:06:44.950,1743512804950,11.8240741246943,46.3785060019286,13.99032,1887.6264,4.82597919232,3
2025-04-01T15:06:45.050,1743512805050,11.8240702260228,46.3785101204866,13.99032,1887.6264,4.82597919232,3
2025-04-01T15:06:45.150,1743512805150,11.82406667356,46.3785138189087,13.99032,1887.6264,4.82597919232,3
2025-04-01T15:06:45.250,1743512805250,11.8240631063987,46.3785175314792,13.99032,1887.6264,4.85490223328,3
2025-04-01T15:06:45.350,1743512805350,11.8240596087572,46.378521239699,13.99032,1887.6264,4.85490223328,3
2025-04-01T15:06:45.450,1743512805450,11.8240562694223,46.378524883994,13.99032,1887.6264,4.85490223328,3
2025-04-01T15:06:45.550,1743512805550,11.8240527932326,46.3785285914944,13.99032,1887.6264,4.85490223328,3
2025-04-01T15:06:45.650,1743512805650,11.8240494968014,46.3785318982145,13.99032,1887.6264,4.85490223328,3
2025-04-01T15:06:45.750,1743512805750,11.8240460218035,46.3785355935534,13.99032,1887.6264,4.85490223328,3
2025-04-01T15:06:45.850,1743512805850,11.8240423092465,46.3785396866922,13.99032,1887.6264,4.85490223328,3
2025-04-01T15:06:45.950,1743512805950,11.8240388080297,46.3785434649347,13.99032,1887.6264,4.93964358272,3
2025-04-01T15:06:46.050,1743512806050,11.8240352772173,46.3785472522897,13.99032,1887.6264,4.93964358272,3
2025-04-01T15:06:46.150,1743512806150,11.8240318081783,46.3785510667425,13.99032,1887.6264,4.93964358272,3
2025-04-01T15:06:46.250,1743512806250,11.8240285355824,46.3785547797926,13.99032,1887.6264,4.93964358272,3
2025-04-01T15:06:46.350,1743512806350,11.8240251410289,46.3785586003432,13.99032,1887.6264,4.8877476032,3
2025-04-01T15:06:46.450,1743512806450,11.824021739722,46.378562512122,14.08176,1887.6264,4.8877476032,3
2025-04-01T15:06:46.550,1743512806550,11.8240184059487,46.3785663513088,14.08176,1887.6264,4.8877476032,3
2025-04-01T15:06:46.650,1743512806650,11.8240152225368,46.3785701815887,14.08176,1887.6264,4.8877476032,3
2025-04-01T15:06:46.740,1743512806740,11.8240119489478,46.3785740305389,14.08176,1887.6264,4.83736261888,3
2025-04-01T15:06:46.850,1743512806850,11.8240090013074,46.3785775369469,14.08176,1887.6264,4.83736261888,3
2025-04-01T15:06:46.950,1743512806950,11.8240058081628,46.3785813613001,14.08176,1887.6264,4.83736261888,3
2025-04-01T15:06:47.040,1743512807040,11.8240024384378,46.3785853497475,14.1732,1887.9312,4.83736261888,3
2025-04-01T15:06:47.150,1743512807150,11.8239992677381,46.3785891970876,14.1732,1887.9312,4.83736261888,3
2025-04-01T15:06:47.250,1743512807250,11.8239961075657,46.378592998728,14.1732,1887.9312,4.83736261888,3
2025-04-01T15:06:47.350,1743512807350,11.8239929668588,46.3785968480209,14.1732,1887.9312,4.83736261888,3
2025-04-01T15:06:47.450,1743512807450,11.8239898178096,46.3786009288269,14.29512,1887.9312,4.92443662304,3
2025-04-01T15:06:47.550,1743512807550,11.8239866987532,46.3786048100821,14.29512,1887.9312,4.92443662304,3
2025-04-01T15:06:47.650,1743512807650,11.8239836291552,46.3786085341632,14.29512,1887.9312,4.8764821952,3
2025-04-01T15:06:47.750,1743512807750,11.8239805152631,46.3786124015783,14.29512,1887.9312,4.92443662304,3
2025-04-01T15:06:47.850,1743512807850,11.8239769447251,46.3786167063609,14.29512,1887.9312,4.92443662304,3
2025-04-01T15:06:47.950,1743512807950,11.8239737837582,46.3786206183795,14.38656,1887.9312,4.92443662304,3
2025-04-01T15:06:48.060,1743512808060,11.823970631531,46.3786245386199,14.38656,1887.9312,4.92443662304,3
2025-04-01T15:06:48.150,1743512808150,11.8239674874474,46.3786284400529,14.38656,1887.9312,4.8764821952,3
2025-04-01T15:06:48.270,1743512808270,11.8239645332523,46.3786323312771,14.38656,1887.9312,4.78853556896,3
2025-04-01T15:06:48.370,1743512808370,11.8239614163808,46.3786362157867,14.478,1888.236,4.78853556896,3
2025-04-01T15:06:48.470,1743512808470,11.8239582846122,46.3786400852916,14.478,1888.236,4.78853556896,3
2025-04-01T15:06:48.570,1743512808570,11.823955159597,46.3786439634293,14.478,1888.236,4.78853556896,3
2025-04-01T15:06:48.670,1743512808670,11.8239521831555,46.3786474171833,14.478,1888.236,4.78853556896,3
2025-04-01T15:06:48.770,1743512808770,11.8239490472158,46.3786512644206,14.478,1888.236,4.83736261888,3
2025-04-01T15:06:48.870,1743512808870,11.8239456737168,46.3786555697171,14.478,1888.236,4.83736261888,3
2025-04-01T15:06:48.950,1743512808950,11.8239424869282,46.3786594772137,14.59992,1888.236,4.92443662304,3
2025-04-01T15:06:49.080,1743512809080,11.8239392397567,46.3786632964968,14.59992,1888.236,4.92443662304,3
2025-04-01T15:06:49.180,1743512809180,11.8239360188042,46.3786672039762,14.59992,1888.236,4.92443662304,3
2025-04-01T15:06:49.280,1743512809280,11.8239328524743,46.3786711573095,14.59992,1888.236,4.92443662304,3
2025-04-01T15:06:49.380,1743512809380,11.8239296301313,46.3786750717604,14.59992,1888.236,4.92443662304,3
2025-04-01T15:06:49.490,1743512809490,11.8239264063979,46.378678967558,14.59992,1888.236,4.92443662304,3
2025-04-01T15:06:49.590,1743512809590,11.8239231832604,46.3786828795766,14.69136,1888.236,4.92443662304,3
2025-04-01T15:06:49.690,1743512809690,11.8239201136624,46.3786864689223,14.69136,1888.236,4.92443662304,3
2025-04-01T15:06:49.790,1743512809790,11.8239168859564,46.3786903600266,14.69136,1888.236,4.92443662304,3
2025-04-01T15:06:49.890,1743512809890,11.8239134087736,46.3786945674318,14.69136,1888.236,4.97394004448,3
2025-04-01T15:06:49.990,1743512809990,11.823910124856,46.3786985060343,14.69136,1888.236,4.97394004448,3
2025-04-01T15:06:50.050,1743512810050,11.8239067773773,46.3787025571219,14.69136,1888.236,4.97394004448,3
2025-04-01T15:06:50.150,1743512810150,11.8239034875008,46.378706514549,14.7828,1888.5408,4.97394004448,3
2025-04-01T15:06:50.250,1743512810250,11.8239002603907,46.3787103734168,14.7828,1888.5408,4.97394004448,3
2025-04-01T15:06:50.350,1743512810350,11.8238969858086,46.3787143061099,14.7828,1888.5408,4.97394004448,3
2025-04-01T15:06:50.450,1743512810450,11.8238939328953,46.3787179411039,14.7828,1888.5408,4.92443662304,3
2025-04-01T15:06:50.550,1743512810550,11.8238906793677,46.3787218321054,14.7828,1888.5408,4.97394004448,3
2025-04-01T15:06:50.650,1743512810650,11.8238874619904,46.3787259655484,14.7828,1888.5408,4.97394004448,3
2025-04-01T15:06:50.750,1743512810750,11.8238842021067,46.3787298813524,14.87424,1888.5408,4.97394004448,3
2025-04-01T15:06:50.850,1743512810850,11.8238805215288,46.3787340231542,14.87424,1888.5408,4.97394004448,3
2025-04-01T15:06:50.950,1743512810950,11.8238772032485,46.378737950623,14.87424,1888.5408,4.97394004448,3
2025-04-01T15:06:51.050,1743512811050,11.823873842859,46.378741927457,14.87424,1888.5408,4.97394004448,3
2025-04-01T15:06:51.150,1743512811150,11.823870525969,46.3787458371632,14.87424,1888.5408,4.97394004448,3
2025-04-01T15:06:51.250,1743512811250,11.8238676458622,46.3787494555937,14.87424,1888.5408,4.97394004448,3
2025-04-01T15:06:51.350,1743512811350,11.8238643877662,46.3787533131255,14.99616,1888.5408,4.97394004448,3
2025-04-01T15:06:51.450,1743512811450,11.8238606817638,46.378757445044,14.99616,1888.5408,4.8877476032,3
2025-04-01T15:06:51.550,1743512811550,11.8238573648739,46.3787613235414,14.99616,1888.5408,4.8877476032,3
2025-04-01T15:06:51.650,1743512811650,11.823854308584,46.37876490249,14.99616,1888.5408,4.8877476032,3
2025-04-01T15:06:51.750,1743512811750,11.8238510030158,46.3787687461474,14.99616,1888.5408,4.8877476032,3
2025-04-01T15:06:51.850,1743512811850,11.8238473796428,46.3787728646026,15.0876,1888.8456,4.8877476032,3
2025-04-01T15:06:51.950,1743512811950,11.8238440462667,46.3787767411302,15.0876,1888.8456,4.8877476032,3
2025-04-01T15:06:52.050,1743512812050,11.8238407939309,46.3787807160973,15.0876,1888.8456,4.8877476032,3
2025-04-01T15:06:52.150,1743512812150,11.8238374822053,46.3787846063451,15.0876,1888.8456,4.97394004448,3
2025-04-01T15:06:52.250,1743512812250,11.8238341154597,46.3787884081225,15.0876,1888.8456,4.8877476032,3
2025-04-01T15:06:52.350,1743512812350,11.8238308289599,46.3787922765654,15.0876,1888.8456,4.8877476032,3
2025-04-01T15:06:52.450,1743512812450,11.8238277567797,46.3787957599522,15.17904,1888.8456,4.83736261888,3
2025-04-01T15:06:52.550,1743512812550,11.8238245064301,46.3787995799204,15.17904,1888.8456,4.83736261888,3
2025-04-01T15:06:52.650,1743512812650,11.8238213716821,46.3788035695326,15.17904,1888.8456,4.8877476032,3
2025-04-01T15:06:52.750,1743512812750,11.823818094915,46.3788074162733,15.17904,1888.8456,4.8877476032,3
2025-04-01T15:06:52.850,1743512812850,11.8238146213075,46.3788112930236,15.17904,1888.8456,4.8877476032,3
2025-04-01T15:06:52.950,1743512812950,11.8238112668769,46.3788151634791,15.17904,1888.8456,4.97394004448,3
2025-04-01T15:06:53.050,1743512813050,11.8238075263133,46.3788193551343,15.27048,1888.8456,4.97394004448,3
2025-04-01T15:06:53.150,1743512813150,11.8238041158695,46.3788232659196,15.27048,1888.8456,4.97394004448,3
2025-04-01T15:06:53.250,1743512813250,11.8238011076476,46.3788269227444,15.27048,1888.8456,4.97394004448,3
2025-04-01T15:06:53.350,1743512813350,11.8237977599703,46.3788308141998,15.27048,1888.8456,4.97394004448,3
2025-04-01T15:06:53.450,1743512813450,11.8237940533721,46.378835052514,15.27048,1888.8456,4.97394004448,3
2025-04-01T15:06:53.550,1743512813550,11.82379066875,46.3788389737393,15.27048,1888.8456,4.97394004448,3
2025-04-01T15:06:53.660,1743512813660,11.8237875322143,46.3788425257185,15.27048,1888.8456,4.97394004448,3
2025-04-01T15:06:53.760,1743512813760,11.8237841678523,46.3788464022033,15.3924,1889.1504,4.97394004448,3
2025-04-01T15:06:53.850,1743512813850,11.8237805710954,46.3788505968647,15.3924,1889.1504,4.97394004448,3
2025-04-01T15:06:53.950,1743512813950,11.8237771840898,46.3788545027683,15.3924,1889.1504,4.97394004448,3
2025-04-01T15:06:54.060,1743512814060,11.8237737472285,46.378858376975,15.3924,1889.1504,4.97394004448,3
2025-04-01T15:06:54.150,1743512814150,11.8237703733323,46.3788622835808,15.3924,1889.1504,4.97394004448,3
2025-04-01T15:06:54.270,1743512814270,11.8237671396675,46.3788661807916,15.3924,1889.1504,4.97394004448,3
2025-04-01T15:06:54.370,1743512814370,11.8237638160242,46.3788700903179,15.3924,1889.1504,4.97394004448,3
2025-04-01T15:06:54.470,1743512814470,11.8237604419294,46.3788739876742,15.3924,1889.1504,4.97394004448,3
2025-04-01T15:06:54.570,1743512814570,11.8237571337791,46.3788778998983,15.48384,1889.1504,4.97394004448,3
2025-04-01T15:06:54.670,1743512814670,11.8237540953657,46.3788814972689,15.48384,1889.1504,4.97394004448,3
2025-04-01T15:06:54.770,1743512814770,11.8237508152219,46.3788853873069,15.48384,1889.1504,4.97394004448,3
2025-04-01T15:06:54.880,1743512814880,11.8237475213729,46.3788893405375,15.48384,1889.1504,4.97394004448,3
2025-04-01T15:06:54.980,1743512814980,11.8237442342771,46.3788932495328,15.48384,1889.1504,4.97394004448,3
2025-04-01T15:06:55.050,1743512815050,11.8237408985175,46.3788972111908,15.48384,1889.1504,4.97394004448,3
2025-04-01T15:06:55.180,1743512815180,11.823737594737,46.3789011371222,15.48384,1889.1504,4.97394004448,3
2025-04-01T15:06:55.280,1743512815280,11.8237340031445,46.3789055201707,15.57528,1889.1504,4.97394004448,3
2025-04-01T15:06:55.380,1743512815380,11.8237306802957,46.3789094963624,15.57528,1889.1504,4.97394004448,3
2025-04-01T15:06:55.490,1743512815490,11.8237274311379,46.3789134611678,15.57528,1889.1504,4.97394004448,3
2025-04-01T15:06:55.590,1743512815590,11.8237241523846,46.3789174309276,15.57528,1889.1504,4.92443662304,3
2025-04-01T15:06:55.690,1743512815690,11.8237210704716,46.3789210454613,15.57528,1889.1504,4.92443662304,3
2025-04-01T15:06:55.790,1743512815790,11.8237178258823,46.3789249639289,15.6972,1889.4552,4.92443662304,3
2025-04-01T15:06:55.890,1743512815890,11.8237144503971,46.3789291897883,15.6972,1889.4552,4.92443662304,3
2025-04-01T15:06:55.950,1743512815950,11.8237111809792,46.378933117985,15.6972,1889.4552,4.92443662304,3
2025-04-01T15:06:56.050,1743512816050,11.8237078011242,46.3789368688427,15.6972,1889.4552,4.92443662304,3
2025-04-01T15:06:56.150,1743512816150,11.8237045269393,46.3789407655824,15.6972,1889.4552,4.92443662304,3
2025-04-01T15:06:56.250,1743512816250,11.8237013367741,46.3789446084134,15.78864,1889.4552,4.92443662304,3
2025-04-01T15:06:56.350,1743512816350,11.8236981168146,46.3789485043849,15.78864,1889.4552,4.92443662304,3
2025-04-01T15:06:56.450,1743512816450,11.8236950041143,46.3789524315167,15.78864,1889.4552,4.92443662304,3
2025-04-01T15:06:56.550,1743512816550,11.8236918195107,46.378956334418,15.78864,1889.4552,4.92443662304,3
2025-04-01T15:06:56.650,1743512816650,11.8236888680964,46.378959959408,15.78864,1889.4552,4.92443662304,3
2025-04-01T15:06:56.750,1743512816750,11.8236856906433,46.3789638306284,15.88008,1889.4552,4.92443662304,3
2025-04-01T15:06:56.850,1743512816850,11.8236821852553,46.378968050832,15.88008,1889.4552,4.92443662304,3
2025-04-01T15:06:56.950,1743512816950,11.8236789527823,46.3789719502727,15.88008,1889.4552,4.92443662304,3
2025-04-01T15:06:57.050,1743512817050,11.8236754360725,46.3789761163835,15.88008,1889.4552,4.92443662304,3
2025-04-01T15:06:57.150,1743512817150,11.8236721698327,46.3789800271046,15.97152,1889.76,4.83736261888,3
2025-04-01T15:06:57.250,1743512817250,11.8236691216866,46.3789835460123,15.97152,1889.76,4.83736261888,3
2025-04-01T15:06:57.350,1743512817350,11.8236659011312,46.3789873968745,15.97152,1889.76,4.83736261888,3
2025-04-01T15:06:57.450,1743512817450,11.8236626771992,46.3789912778321,15.97152,1889.76,4.83736261888,3
2025-04-01T15:06:57.550,1743512817550,11.823659461411,46.378995115396,16.09344,1889.76,4.83736261888,3
2025-04-01T15:06:57.650,1743512817650,11.8236564543808,46.3789985860389,16.09344,1889.76,4.83736261888,3
2025-04-01T15:06:57.750,1743512817750,11.8236532360104,46.3790023818726,16.09344,1889.76,4.83736261888,3
2025-04-01T15:06:57.850,1743512817850,11.8236498420527,46.3790062605714,16.09344,1889.76,4.8877476032,3
2025-04-01T15:06:57.950,1743512817950,11.8236465748198,46.3790100681127,16.09344,1889.76,4.8877476032,3
2025-04-01T15:06:58.050,1743512818050,11.8236429373441,46.3790142838896,16.18488,1889.76,4.8877476032,3
2025-04-01T15:06:58.150,1743512818150,11.8236396242281,46.3790181368095,16.18488,1889.76,4.8877476032,3
2025-04-01T15:06:58.250,1743512818250,11.8236365407262,46.3790218796852,16.18488,1889.76,4.8877476032,3
2025-04-01T15:06:58.340,1743512818340,11.8236332530346,46.3790257169664,16.18488,1889.76,4.8877476032,3
2025-04-01T15:06:58.450,1743512818450,11.8236297802216,46.3790295885952,16.18488,1889.76,4.8877476032,3
2025-04-01T15:06:58.550,1743512818550,11.8236264814068,46.3790334203481,16.27632,1890.0648,4.8877476032,3
2025-04-01T15:06:58.640,1743512818640,11.8236234598768,46.3790369695182,16.27632,1890.0648,4.8877476032,3
2025-04-01T15:06:58.750,1743512818750,11.8236201940343,46.3790407866687,16.27632,1890.0648,4.8877476032,3
2025-04-01T15:06:58.850,1743512818850,11.8236166155512,46.3790450134552,16.27632,1890.0648,4.8877476032,3
2025-04-01T15:06:58.950,1743512818950,11.8236133354074,46.3790488895461,16.27632,1890.0648,4.92443662304,3
2025-04-01T15:06:59.050,1743512819050,11.8236100582431,46.3790526593697,16.39824,1890.0648,4.92443662304,3
2025-04-01T15:06:59.150,1743512819150,11.8236067826678,46.3790565380213,16.39824,1890.0648,4.92443662304,3
2025-04-01T15:06:59.250,1743512819250,11.8236037418708,46.3790601529318,16.39824,1890.0648,4.92443662304,3
2025-04-01T15:06:59.350,1743512819350,11.8236004974801,46.3790639979767,16.39824,1890.0648,4.92443662304,3
2025-04-01T15:06:59.450,1743512819450,11.8235970451259,46.3790681472124,16.48968,1890.0648,4.83736261888,3
2025-04-01T15:06:59.550,1743512819550,11.8235937860367,46.3790720174452,16.48968,1890.0648,4.83736261888,3
2025-04-01T15:06:59.660,1743512819660,11.8235903388467,46.3790762646321,16.48968,1890.0648,4.83736261888,3
2025-04-01T15:06:59.750,1743512819750,11.8235870805521,46.3790801700047,16.48968,1890.0648,4.83736261888,3
2025-04-01T15:06:59.850,1743512819850,11.8235841805824,46.3790836326828,16.48968,1890.0648,4.83736261888,3
2025-04-01T15:06:59.950,1743512819950,11.8235809852529,46.3790874913879,16.58112,1890.3696,4.83736261888,3
2025-04-01T15:07:00.070,1743512820070,11.8235777807864,46.3790914559834,16.58112,1890.3696,4.83736261888,3
2025-04-01T15:07:00.150,1743512820150,11.8235745818815,46.3790953309009,16.58112,1890.3696,4.83736261888,3
2025-04-01T15:07:00.270,1743512820270,11.8235712719436,46.379099153841,16.58112,1890.3696,4.83736261888,3
2025-04-01T15:07:00.370,1743512820370,11.8235680422513,46.3791030387104,16.67256,1890.3696,4.83736261888,3
2025-04-01T15:07:00.480,1743512820480,11.8235648290453,46.3791069087291,16.67256,1890.3696,4.92443662304,3
2025-04-01T15:07:00.580,1743512820580,11.8235616225925,46.3791108047837,16.67256,1890.3696,4.92443662304,3
2025-04-01T15:07:00.650,1743512820650,11.8235587426843,46.379114356309,16.79448,1890.3696,4.92443662304,3
2025-04-01T15:07:00.780,1743512820780,11.8235556091281,46.3791182411783,16.79448,1890.3696,4.92443662304,3
2025-04-01T15:07:00.880,1743512820880,11.8235522463551,46.3791225707121,16.79448,1890.3696,4.92443662304,3
2025-04-01T15:07:00.990,1743512820990,11.8235490984976,46.3791265107706,16.88592,1890.6744,4.92443662304,3
2025-04-01T15:07:01.090,1743512821090,11.8235458906545,46.3791304282361,16.88592,1890.6744,4.92443662304,3
2025-04-01T15:07:01.190,1743512821190,11.8235427386258,46.3791343643378,16.88592,1890.6744,4.92443662304,3
2025-04-01T15:07:01.290,1743512821290,11.8235396052682,46.3791383632167,16.88592,1890.6744,4.8764821952,3
2025-04-01T15:07:01.390,1743512821390,11.8235364848214,46.3791423028298,16.97736,1890.6744,4.8764821952,3
2025-04-01T15:07:01.450,1743512821450,11.8235334072783,46.3791461206056,16.97736,1890.6744,4.8764821952,3
2025-04-01T15:07:01.550,1743512821550,11.823530339468,46.3791500362212,16.97736,1890.6744,4.8764821952,3
2025-04-01T15:07:01.650,1743512821650,11.8235275324563,46.3791536962576,17.09928,1890.6744,4.8764821952,3
2025-04-01T15:07:01.750,1743512821750,11.8235245836242,46.3791575073188,17.09928,1890.6744,4.74131562784,3
2025-04-01T15:07:01.850,1743512821850,11.8235212764671,46.3791615261014,17.09928,1890.6744,4.65296353632,3
2025-04-01T15:07:01.950,1743512821950,11.8235184553528,46.3791651679298,17.09928,1890.6744,4.42945381824,3
2025-04-01T15:07:02.050,1743512822050,11.8235159264205,46.3791686687708,17.19072,1890.9792,4.29418890208,3
2025-04-01T15:07:02.150,1743512822150,11.8235133720637,46.379171954919,17.19072,1890.9792,3.98246791008,3
2025-04-01T15:07:02.250,1743512822250,11.8235110568552,46.3791748920332,17.19072,1890.9792,3.71214818656,3
2025-04-01T15:07:02.350,1743512822350,11.8235088407621,46.379177696553,17.19072,1890.9792,3.40000563584,3
2025-04-01T15:07:02.450,1743512822450,11.8235067742359,46.3791803023957,17.19072,1890.9792,3.04138612448,3
2025-04-01T15:07:02.550,1743512822550,11.8235049605633,46.3791826363353,17.19072,1890.9792,2.81780488,3
2025-04-01T15:07:02.650,1743512822650,11.8235035395783,46.3791845829921,17.19072,1890.9792,2.45967845376,3
2025-04-01T15:07:02.750,1743512822750,11.823502164675,46.3791864177121,17.19072,1890.9792,2.14709422752,3
2025-04-01T15:07:02.850,1743512822850,11.8235007311764,46.3791882728839,17.19072,1890.9792,1.78885693536,3
2025-04-01T15:07:02.950,1743512822950,11.8234997457828,46.3791896045473,17.19072,1890.9792,1.4317841824,3
2025-04-01T15:07:03.050,1743512823050,11.8234988511622,46.3791907635864,17.19072,1890.9792,1.20830620416,3
2025-04-01T15:07:03.150,1743512823150,11.8234982582575,46.379191570885,17.19072,1890.9792,0.85440162368,3
2025-04-01T15:07:03.250,1743512823250,11.8234977938653,46.3791919433855,17.19072,1890.9792,0.53851734816,3
2025-04-01T15:07:03.350,1743512823350,11.8234975678266,46.3791922794187,17.19072,1890.9792,0.31622804928,3
2025-04-01T15:07:03.450,1743512823450,11.8234973989929,46.3791926233655,17.19072,1890.9792,0.10000016576,3
2025-04-01T15:07:03.550,1743512823550,11.8234974627526,46.3791926403744,17.19072,1890.9792,0.10000016576,3
2025-04-01T15:07:03.650,1743512823650,11.8234977724139,46.3791925155565,17.19072,1890.9792,0.28284310208,3
2025-04-01T15:07:03.750,1743512823750,11.8234983391,46.3791921298152,17.19072,1890.9792,0.7071077552,3
2025-04-01T15:07:03.850,1743512823850,11.8234989705388,46.3791913808058,17.19072,1890.9792,0.98995085728,3
2025-04-01T15:07:03.950,1743512823950,11.8235001609169,46.3791905231139,17.19072,1890.9792,1.34536419776,3
2025-04-01T15:07:04.050,1743512824050,11.823501869317,46.3791896286636,17.19072,1890.9792,1.69705905952,3
2025-04-01T15:07:04.150,1743512824150,11.8235035679843,46.3791884289262,17.19072,1890.9792,1.83848061056,3
2025-04-01T15:07:04.250,1743512824250,11.82350546667,46.3791869067558,17.19072,1890.9792,2.05183179168,3
2025-04-01T15:07:04.340,1743512824340,11.8235073431093,46.3791855119725,17.19072,1890.9792,2.05183179168,3
2025-04-01T15:07:04.450,1743512824450,11.8235089073052,46.3791840932945,17.28216,1890.9792,2.12603238496,3
2025-04-01T15:07:04.550,1743512824550,11.8235107831486,46.3791826306468,17.28216,1890.9792,2.12603238496,3
2025-04-01T15:07:04.650,1743512824650,11.8235125519314,46.3791811236183,17.28216,1890.9792,2.12603238496,3
2025-04-01T15:07:04.750,1743512824750,11.8235144482334,46.3791796229618,17.3736,1890.9792,2.20227505696,3
2025-04-01T15:07:04.850,1743512824850,11.8235162535638,46.3791779339224,17.3736,1890.9792,2.20227505696,3
2025-04-01T15:07:04.950,1743512824950,11.8235181458933,46.3791764361778,17.3736,1890.9792,2.12603238496,3
2025-04-01T15:07:05.060,1743512825060,11.8235199770454,46.3791751034351,17.3736,1890.9792,2.12603238496,3
2025-04-01T15:07:05.150,1743512825150,11.8235218942035,46.3791736453951,17.49552,1891.284,2.12603238496,3
2025-04-01T15:07:05.260,1743512825260,11.8235237406499,46.3791722030108,17.49552,1891.284,2.20227505696,3
2025-04-01T15:07:05.360,1743512825360,11.8235257833409,46.3791706667262,17.49552,1891.284,2.26716023072,3
2025-04-01T15:07:05.460,1743512825460,11.8235279952631,46.3791689724625,17.49552,1891.284,2.47588767712,3
2025-04-01T15:07:05.560,1743512825560,11.8235303646973,46.3791672723921,17.58696,1891.284,2.61725468928,3
2025-04-01T15:07:05.670,1743512825670,11.8235329653346,46.3791654557772,17.58696,1891.284,2.82843146784,3
2025-04-01T15:07:05.770,1743512825770,11.8235357097786,46.3791635966656,17.58696,1891.284,2.96985301888,3
2025-04-01T15:07:05.870,1743512825870,11.8235390399767,46.379161387064,17.6784,1891.284,3.04138612448,3
2025-04-01T15:07:05.950,1743512825950,11.8235421421498,46.3791594100205,17.6784,1891.284,3.18277101824,3
2025-04-01T15:07:06.070,1743512826070,11.8235452669665,46.3791574539599,17.6784,1891.284,3.33017038816,3
2025-04-01T15:07:06.170,1743512826170,11.8235486662871,46.3791554298292,17.6784,1891.284,3.40588287072,3
2025-04-01T15:07:06.280,1743512826280,11.8235521166552,46.3791534352287,17.76984,1891.284,3.48282068992,3
2025-04-01T15:07:06.380,1743512826380,11.8235558468902,46.3791513491773,17.76984,1891.284,3.62353994112,3
2025-04-01T15:07:06.480,1743512826480,11.8235595882484,46.3791493792251,17.76984,1891.284,3.78021762624,3
2025-04-01T15:07:06.580,1743512826580,11.823563605501,46.3791472041895,17.76984,1891.284,3.92046525024,3
2025-04-01T15:07:06.680,1743512826680,11.82356744518,46.3791450928388,17.89176,1891.5888,4.06079468256,3
2025-04-01T15:07:06.790,1743512826790,11.8235716751632,46.3791428105425,17.89176,1891.5888,4.06079468256,3
2025-04-01T15:07:06.890,1743512826890,11.8235762956491,46.3791402940951,17.89176,1891.5888,4.2011969824,3
2025-04-01T15:07:06.990,1743512826990,11.8235807538559,46.379137887923,17.9832,1891.5888,4.34166544416,3
2025-04-01T15:07:07.090,1743512827090,11.8235851496935,46.3791353275231,17.9832,1891.5888,4.4204142224,3
2025-04-01T15:07:07.150,1743512827150,11.8235897769328,46.3791328127543,17.9832,1891.5888,4.4204142224,3
2025-04-01T15:07:07.250,1743512827250,11.8235944570071,46.3791303607798,17.9832,1891.5888,4.56070923264,3
2025-04-01T15:07:07.350,1743512827350,11.8235993065112,46.3791277395553,18.07464,1891.5888,4.70107129888,3
2025-04-01T15:07:07.450,1743512827450,11.8236044460122,46.3791248450062,18.07464,1891.5888,4.78017502688,3
2025-04-01T15:07:07.550,1743512827550,11.8236095434041,46.379122087659,18.07464,1891.5888,4.92037392352,3
2025-04-01T15:07:07.650,1743512827650,11.8236139275226,46.3791195974358,18.19656,1891.8936,4.92037392352,3
2025-04-01T15:07:07.750,1743512827750,11.8236191121122,46.3791167754615,18.19656,1891.8936,5.0606403232,3
2025-04-01T15:07:07.850,1743512827850,11.8236247869158,46.3791137107546,18.19656,1891.8936,5.20096975552,3
2025-04-01T15:07:07.950,1743512827950,11.8236301651678,46.3791107673026,18.288,1891.8936,5.20096975552,3
2025-04-01T15:07:08.050,1743512828050,11.8236355650702,46.3791077056104,18.288,1891.8936,5.341356856,3
2025-04-01T15:07:08.150,1743512828150,11.8236410773961,46.3791046890698,18.37944,1891.8936,5.341356856,3
2025-04-01T15:07:08.250,1743512828250,11.8236463187933,46.3791019586662,18.37944,1891.8936,5.42034077728,3
2025-04-01T15:07:08.350,1743512828350,11.823651926262,46.3790989271978,18.47088,1892.1984,5.42034077728,3
2025-04-01T15:07:08.450,1743512828450,11.8236579921642,46.3790956490914,18.47088,1892.1984,5.4817967072,3
2025-04-01T15:07:08.550,1743512828550,11.8236636973579,46.3790925676068,18.5928,1892.1984,5.4817967072,3
2025-04-01T15:07:08.650,1743512828650,11.8236689429262,46.3790896187251,18.5928,1892.1984,5.4817967072,3
2025-04-01T15:07:08.750,1743512828750,11.8236745855521,46.3790865661882,18.5928,1892.1984,5.42034077728,3
2025-04-01T15:07:08.850,1743512828850,11.8236802498283,46.3790835362614,18.68424,1892.1984,5.42034077728,3
2025-04-01T15:07:08.950,1743512828950,11.8236858050578,46.3790805385882,18.68424,1892.1984,5.42034077728,3
2025-04-01T15:07:09.050,1743512829050,11.823691699544,46.379077231517,18.68424,1892.1984,5.341356856,3
2025-04-01T15:07:09.150,1743512829150,11.8236972071027,46.3790742558715,18.77568,1892.5032,5.28016020928,3
2025-04-01T15:07:09.250,1743512829250,11.8237022713236,46.3790715501762,18.77568,1892.5032,5.28016020928,3
2025-04-01T15:07:09.350,1743512829350,11.8237076732123,46.3790686180379,18.77568,1892.5032,5.20096975552,3
2025-04-01T15:07:09.450,1743512829450,11.8237131571343,46.3790656362088,18.77568,1892.5032,5.20096975552,3
2025-04-01T15:07:09.530,1743512829530,11.8237185635914,46.3790626864278,18.8976,1892.5032,5.341356856,3
2025-04-01T15:07:09.650,1743512829650,11.8237240024249,46.3790595648104,18.8976,1892.5032,5.341356856,3
2025-04-01T15:07:09.740,1743512829740,11.8237294752237,46.3790565751535,18.8976,1892.5032,5.341356856,3
2025-04-01T15:07:09.850,1743512829850,11.8237350954046,46.3790535858562,18.98904,1892.5032,5.341356856,3
2025-04-01T15:07:09.950,1743512829950,11.823740573765,46.3790506209762,18.98904,1892.5032,5.341356856,3
2025-04-01T15:07:10.040,1743512830040,11.8237470546012,46.3790473147271,18.98904,1892.5032,5.28016020928,3
2025-04-01T15:07:10.150,1743512830150,11.8237525897693,46.3790443664535,19.08048,1892.808,5.28016020928,3
2025-04-01T15:07:10.250,1743512830250,11.8237573109595,46.3790417190905,19.08048,1892.808,5.20096975552,3
2025-04-01T15:07:10.350,1743512830350,11.8237627124509,46.3790388089798,19.08048,1892.808,5.20096975552,3
2025-04-01T15:07:10.450,1743512830450,11.8237679808615,46.379036075416,19.17192,1892.808,5.20096975552,3
2025-04-01T15:07:10.550,1743512830550,11.8237733885104,46.379033168183,19.17192,1892.808,5.20096975552,3
2025-04-01T15:07:10.650,1743512830650,11.8237784668339,46.3790304455559,19.17192,1892.808,5.20096975552,3
2025-04-01T15:07:10.750,1743512830750,11.8237838867977,46.3790275341092,19.29384,1892.808,5.28016020928,3
2025-04-01T15:07:10.850,1743512830850,11.8237896738261,46.3790245108797,19.29384,1892.808,5.28016020928,3
2025-04-01T15:07:10.950,1743512830950,11.8237951374881,46.3790215794736,19.38528,1893.1128,5.28016020928,3
2025-04-01T15:07:11.060,1743512831060,11.8238006917245,46.3790186955401,19.38528,1893.1128,5.28016020928,3
2025-04-01T15:07:11.160,1743512831160,11.8238061968997,46.3790157588412,19.38528,1893.1128,5.28016020928,3
2025-04-01T15:07:11.260,1743512831260,11.8238112756205,46.3790129597682,19.47672,1893.1128,5.28016020928,3
2025-04-01T15:07:11.360,1743512831360,11.8238168026448,46.3790100074179,19.47672,1893.1128,5.28016020928,3
2025-04-01T15:07:11.470,1743512831470,11.8238224965167,46.3790069642547,19.59864,1893.1128,5.341356856,3
2025-04-01T15:07:11.570,1743512831570,11.8238280189725,46.3790039916067,19.59864,1893.1128,5.341356856,3
2025-04-01T15:07:11.670,1743512831670,11.8238334933604,46.3790011345441,19.59864,1893.1128,5.28016020928,3
2025-04-01T15:07:11.770,1743512831770,11.8238389653647,46.3789981977339,19.69008,1893.4176,5.28016020928,3
2025-04-01T15:07:11.870,1743512831870,11.8238449091107,46.3789950614627,19.69008,1893.4176,5.28016020928,3
2025-04-01T15:07:11.950,1743512831950,11.8238504218338,46.3789921226677,19.78152,1893.4176,5.28016020928,3
2025-04-01T15:07:12.080,1743512832080,11.8238555581567,46.3789893136428,19.78152,1893.4176,5.28016020928,3
2025-04-01T15:07:12.180,1743512832180,11.8238610657155,46.3789863411061,19.87296,1893.4176,5.341356856,3
2025-04-01T15:07:12.280,1743512832280,11.823866632664,46.3789832866145,19.87296,1893.4176,5.341356856,3
2025-04-01T15:07:12.390,1743512832390,11.8238721142025,46.3789803056076,19.87296,1893.4176,5.341356856,3
2025-04-01T15:07:12.490,1743512832490,11.8238781443517,46.3789771158303,19.99488,1893.7224,5.28016020928,3
2025-04-01T15:07:12.590,1743512832590,11.823883606226,46.3789741677204,19.99488,1893.7224,5.20096975552,3
2025-04-01T15:07:12.690,1743512832690,11.8238888952939,46.3789712647214,19.99488,1893.7224,5.20096975552,3
2025-04-01T15:07:12.750,1743512832750,11.8238943253877,46.378968326846,20.08632,1893.7224,5.20096975552,3
2025-04-01T15:07:12.850,1743512832850,11.8238996180309,46.3789654672702,20.08632,1893.7224,5.20096975552,3
2025-04-01T15:07:12.950,1743512832950,11.8239050155497,46.3789625237974,20.17776,1893.7224,5.20096975552,3
2025-04-01T15:07:13.050,1743512833050,11.8239100158124,46.378959896655,20.17776,1893.7224,5.20096975552,3
2025-04-01T15:07:13.150,1743512833150,11.8239152973324,46.3789570155081,20.29968,1894.0272,5.12250752992,3
2025-04-01T15:07:13.250,1743512833250,11.8239206048727,46.3789540399467,20.29968,1894.0272,5.0606403232,3
2025-04-01T15:07:13.350,1743512833350,11.8239257995922,46.3789512236666,20.29968,1894.0272,5.0606403232,3
2025-04-01T15:07:13.450,1743512833450,11.8239309812023,46.3789484717075,20.39112,1894.0272,4.98197558848,3
2025-04-01T15:07:13.550,1743512833550,11.8239360821694,46.3789457208966,20.39112,1894.0272,4.92037392352,3
2025-04-01T15:07:13.650,1743512833650,11.8239411297056,46.3789428696128,20.48256,1894.0272,4.92037392352,3
2025-04-01T15:07:13.750,1743512833750,11.8239461506256,46.378940146156,20.48256,1894.0272,4.84149505664,3
2025-04-01T15:07:13.850,1743512833850,11.8239516603692,46.3789370686507,20.48256,1894.0272,4.84149505664,3
2025-04-01T15:07:13.950,1743512833950,11.8239566741387,46.3789343387107,20.574,1894.332,4.78017502688,3
2025-04-01T15:07:14.050,1743512834050,11.8239616406346,46.3789316987195,20.574,1894.332,4.78017502688,3
2025-04-01T15:07:14.150,1743512834150,11.823966649041,46.3789289820018,20.574,1894.332,4.78017502688,3
2025-04-01T15:07:14.250,1743512834250,11.8239716794952,46.378926243946,20.69592,1894.332,4.78017502688,3
2025-04-01T15:07:14.350,1743512834350,11.8239766696279,46.3789235350519,20.69592,1894.332,4.78017502688,3
2025-04-01T15:07:14.450,1743512834450,11.8239815958023,46.3789209132344,20.69592,1894.332,4.78017502688,3
2025-04-01T15:07:14.550,1743512834550,11.8239865406478,46.3789182171056,20.78736,1894.332,4.70107129888,3
2025-04-01T15:07:14.650,1743512834650,11.8239910937987,46.3789157434354,20.78736,1894.332,4.70107129888,3
2025-04-01T15:07:14.750,1743512834750,11.8239959822338,46.3789130734495,20.78736,1894.332,4.70107129888,3
2025-04-01T15:07:14.850,1743512834850,11.824000908011,46.3789103449129,20.8788,1894.6368,4.70107129888,3
2025-04-01T15:07:14.950,1743512834950,11.8240058123364,46.3789076586932,20.8788,1894.6368,4.76340968576,3
2025-04-01T15:07:15.050,1743512835050,11.8240108598726,46.3789047405191,20.8788,1894.6368,4.76340968576,3
2025-04-01T15:07:15.150,1743512835150,11.8240157997523,46.3789020181618,20.97024,1894.6368,4.84149505664,3
2025-04-01T15:07:15.250,1743512835250,11.8240211076899,46.3788992317598,20.97024,1894.6368,4.78017502688,3
2025-04-01T15:07:15.340,1743512835340,11.8240260966308,46.3788965190461,21.09216,1894.6368,4.78017502688,3
2025-04-01T15:07:15.450,1743512835450,11.8240307123496,46.3788940899942,21.09216,1894.6368,4.78017502688,3
2025-04-01T15:07:15.550,1743512835550,11.8240356915577,46.3788914279904,21.09216,1894.6368,4.78017502688,3
2025-04-01T15:07:15.650,1743512835650,11.8240408401956,46.3788886292256,21.1836,1894.9416,4.78017502688,3
2025-04-01T15:07:15.750,1743512835750,11.824045857739,46.3788859510479,21.1836,1894.9416,4.78017502688,3
2025-04-01T15:07:15.850,1743512835850,11.8240511895119,46.3788830138394,21.1836,1894.9416,4.78017502688,3
2025-04-01T15:07:15.950,1743512835950,11.8240562394316,46.3788802945139,21.27504,1894.9416,4.84149505664,3
2025-04-01T15:07:16.050,1743512836050,11.8240609695602,46.378877899587,21.27504,1894.9416,4.84149505664,3
2025-04-01T15:07:16.150,1743512836150,11.8240659873021,46.3788752000753,21.27504,1894.9416,4.78017502688,3
2025-04-01T15:07:16.260,1743512836260,11.8240713170888,46.3788722247038,21.39696,1894.9416,4.84149505664,3
2025-04-01T15:07:16.360,1743512836360,11.8240763479402,46.3788694959788,21.39696,1894.9416,4.84149505664,3
2025-04-01T15:07:16.460,1743512836460,11.8240810055695,46.3788670290166,21.39696,1894.9416,4.84149505664,3
2025-04-01T15:07:16.560,1743512836560,11.8240860098048,46.3788643263189,21.4884,1895.2464,4.78017502688,3
2025-04-01T15:07:16.660,1743512836660,11.8240911320251,46.3788616350976,21.4884,1895.2464,4.78017502688,3
2025-04-01T15:07:16.750,1743512836750,11.8240961481781,46.3788589229362,21.57984,1895.2464,4.84149505664,3
2025-04-01T15:07:16.850,1743512836850,11.8241011458586,46.3788560696247,21.57984,1895.2464,4.84149505664,3
2025-04-01T15:07:16.970,1743512836970,11.8241061822716,46.3788533115238,21.67128,1895.2464,4.84149505664,3
2025-04-01T15:07:17.070,1743512837070,11.8241117222067,46.3788503603639,21.67128,1895.2464,4.84149505664,3
2025-04-01T15:07:17.150,1743512837150,11.8241168160233,46.3788475569402,21.67128,1895.2464,4.90408780928,3
2025-04-01T15:07:17.270,1743512837270,11.8241213369965,46.3788449667446,21.7932,1895.5512,4.90408780928,3
2025-04-01T15:07:17.380,1743512837380,11.8241263813546,46.3788421974158,21.7932,1895.5512,4.84149505664,3
2025-04-01T15:07:17.480,1743512837480,11.8241314624589,46.3788395117356,21.7932,1895.5512,4.92037392352,3
2025-04-01T15:07:17.580,1743512837580,11.8241365227073,46.3788367837815,21.88464,1895.5512,4.92037392352,3
2025-04-01T15:07:17.680,1743512837680,11.8241417625155,46.3788339964331,21.88464,1895.5512,4.92037392352,3
2025-04-01T15:07:17.780,1743512837780,11.8241468640785,46.3788312690185,21.97608,1895.5512,4.92037392352,3
2025-04-01T15:07:17.890,1743512837890,11.8241524540679,46.3788283496326,21.97608,1895.5512,4.92037392352,3
2025-04-01T15:07:17.990,1743512837990,11.8241575979387,46.3788255884143,22.098,1895.856,4.92037392352,3
2025-04-01T15:07:18.090,1743512838090,11.8241622734445,46.378822992609,22.098,1895.856,4.92037392352,3
2025-04-01T15:07:18.190,1743512838190,11.8241673575282,46.3788202284788,22.098,1895.856,4.92037392352,3
2025-04-01T15:07:18.250,1743512838250,11.8241724267149,46.378817406102,22.18944,1895.856,4.92037392352,3
2025-04-01T15:07:18.350,1743512838350,11.8241775078192,46.3788146224449,22.18944,1895.856,4.92037392352,3
2025-04-01T15:07:18.450,1743512838450,11.8241826169301,46.3788118652347,22.18944,1895.856,4.92037392352,3
2025-04-01T15:07:18.550,1743512838550,11.8241877238561,46.3788090860226,22.28088,1895.856,4.92037392352,3
2025-04-01T15:07:18.650,1743512838650,11.8241928792473,46.3788062245663,22.28088,1895.856,4.92037392352,3
2025-04-01T15:07:18.750,1743512838750,11.8241979965019,46.3788034415601,22.28088,1895.856,4.92037392352,3
2025-04-01T15:07:18.850,1743512838850,11.8242032772274,46.3788007767942,22.37232,1896.1608,4.92037392352,3
2025-04-01T15:07:18.950,1743512838950,11.8242084197078,46.3787980128696,22.37232,1896.1608,4.92037392352,3
2025-04-01T15:07:19.050,1743512839050,11.82421363866,46.378795318899,22.37232,1896.1608,4.92037392352,3
2025-04-01T15:07:19.150,1743512839150,11.8242187938526,46.3787925678895,22.49424,1896.1608,4.92037392352,3
2025-04-01T15:07:19.250,1743512839250,11.8242241315844,46.3787897279299,22.49424,1896.1608,4.92037392352,3
2025-04-01T15:07:19.350,1743512839350,11.8242292929344,46.3787869789244,22.49424,1896.1608,4.92037392352,3
2025-04-01T15:07:19.450,1743512839450,11.8242343942988,46.3787842915828,22.58568,1896.1608,4.92037392352,3
2025-04-01T15:07:19.550,1743512839550,11.8242395320121,46.3787815573252,22.58568,1896.1608,4.92037392352,3
2025-04-01T15:07:19.650,1743512839650,11.8242446333765,46.3787786953551,22.58568,1896.1608,4.92037392352,3
2025-04-01T15:07:19.750,1743512839750,11.8242497696995,46.3787759531155,22.67712,1896.4656,4.92037392352,3
2025-04-01T15:07:19.850,1743512839850,11.8242549092004,46.3787733616096,22.67712,1896.4656,4.92037392352,3
2025-04-01T15:07:19.950,1743512839950,11.8242600359892,46.3787706166466,22.79904,1896.4656,4.92037392352,3
2025-04-01T15:07:20.050,1743512840050,11.8242655916159,46.3787675842446,22.79904,1896.4656,4.92037392352,3
2025-04-01T15:07:20.150,1743512840150,11.8242707501852,46.378764802112,22.79904,1896.4656,4.98197558848,3
2025-04-01T15:07:20.250,1743512840250,11.8242756974142,46.3787620351213,22.89048,1896.4656,4.98197558848,3
2025-04-01T15:07:20.350,1743512840350,11.8242808331413,46.3787592664519,22.89048,1896.4656,4.92037392352,3
2025-04-01T15:07:20.450,1743512840450,11.8242862217218,46.378756367946,22.89048,1896.4656,4.92037392352,3
2025-04-01T15:07:20.550,1743512840550,11.8242913757226,46.3787536158745,22.98192,1896.7704,4.92037392352,3
2025-04-01T15:07:20.650,1743512840650,11.8242957065095,46.3787512681632,22.98192,1896.7704,4.92037392352,3
2025-04-01T15:07:20.750,1743512840750,11.8243007629839,46.3787485668786,23.07336,1896.7704,4.84149505664,3
2025-04-01T15:07:20.850,1743512840850,11.8243060776748,46.378745608302,23.07336,1896.7704,4.84149505664,3
2025-04-01T15:07:20.950,1743512840950,11.8243111502381,46.3787428656684,23.19528,1896.7704,4.84149505664,3
2025-04-01T15:07:21.040,1743512841040,11.8243162295548,46.3787401998234,23.19528,1896.7704,4.84149505664,3
2025-04-01T15:07:21.150,1743512841150,11.8243212858306,46.3787374299036,23.19528,1896.7704,4.84149505664,3
2025-04-01T15:07:21.250,1743512841250,11.824326006425,46.3787347708587,23.28672,1897.0752,4.84149505664,3
2025-04-01T15:07:21.350,1743512841350,11.8243310114548,46.3787319907302,23.28672,1897.0752,4.84149505664,3
2025-04-01T15:07:21.450,1743512841450,11.8243360270119,46.3787291814312,23.28672,1897.0752,4.84149505664,3
2025-04-01T15:07:21.550,1743512841550,11.8243410271753,46.3787264138239,23.37816,1897.0752,4.84149505664,3
2025-04-01T15:07:21.650,1743512841650,11.8243461192041,46.3787237309014,23.37816,1897.0752,4.84149505664,3
2025-04-01T15:07:21.760,1743512841760,11.8243511293982,46.3787209727149,23.4696,1897.0752,4.84149505664,3
2025-04-01T15:07:21.860,1743512841860,11.824356623351,46.3787179393195,23.4696,1897.0752,4.84149505664,3
2025-04-01T15:07:21.950,1743512841950,11.8243616295725,46.3787151633019,23.4696,1897.0752,4.84149505664,3
2025-04-01T15:07:22.050,1743512842050,11.8243664496795,46.3787124831029,23.59152,1897.38,4.76340968576,3
2025-04-01T15:07:22.160,1743512842160,11.8243714091242,46.3787097738021,23.59152,1897.38,4.70107129888,3
2025-04-01T15:07:22.260,1743512842260,11.8243759174845,46.3787072738326,23.68296,1897.38,4.78017502688,3
2025-04-01T15:07:22.360,1743512842360,11.8243808706724,46.3787046349998,23.68296,1897.38,4.78017502688,3
2025-04-01T15:07:22.450,1743512842450,11.824386245349,46.3787017758217,23.7744,1897.38,4.78017502688,3
2025-04-01T15:07:22.570,1743512842570,11.8243912581252,46.378699070135,23.7744,1897.38,4.78017502688,3
2025-04-01T15:07:22.650,1743512842650,11.8243958453409,46.3786964705271,23.7744,1897.38,4.84149505664,3
2025-04-01T15:07:22.770,1743512842770,11.8244008157101,46.3786937280135,23.89632,1897.38,4.84149505664,3
2025-04-01T15:07:22.870,1743512842870,11.8244061330825,46.3786907607011,23.89632,1897.38,4.84149505664,3
2025-04-01T15:07:22.950,1743512842950,11.8244111423828,46.3786879801615,23.89632,1897.38,4.84149505664,3
2025-04-01T15:07:23.080,1743512843080,11.8244161622103,46.3786852705009,23.98776,1897.6848,4.84149505664,3
2025-04-01T15:07:23.180,1743512843180,11.8244211771715,46.3786825056855,23.98776,1897.6848,4.84149505664,3
2025-04-01T15:07:23.280,1743512843280,11.8244257939827,46.3786799886386,23.98776,1897.6848,4.84149505664,3
2025-04-01T15:07:23.380,1743512843380,11.824430762167,46.3786772443436,24.0792,1897.6848,4.84149505664,3
2025-04-01T15:07:23.480,1743512843480,11.824435769779,46.3786743657585,24.0792,1897.6848,4.84149505664,3
2025-04-01T15:07:23.580,1743512843580,11.8244407154189,46.3786716221315,24.17064,1897.6848,4.84149505664,3
2025-04-01T15:07:23.690,1743512843690,11.8244457199522,46.3786688957703,24.17064,1897.6848,4.84149505664,3
2025-04-01T15:07:23.790,1743512843790,11.8244506831707,46.3786661634141,24.17064,1897.6848,4.84149505664,3
2025-04-01T15:07:23.890,1743512843890,11.8244561311411,46.3786632389752,24.29256,1897.9896,4.84149505664,3
2025-04-01T15:07:23.990,1743512843990,11.8244611652699,46.3786605085716,24.29256,1897.9896,4.84149505664,3
2025-04-01T15:07:24.090,1743512844090,11.8244660788314,46.3786577919054,24.384,1897.9896,4.84149505664,3
2025-04-01T15:07:24.150,1743512844150,11.8244711005459,46.3786550588297,24.384,1897.9896,4.84149505664,3
2025-04-01T15:07:24.250,1743512844250,11.8244757082203,46.378652653223,24.47544,1897.9896,4.84149505664,3
2025-04-01T15:07:24.350,1743512844350,11.8244806674663,46.3786499218944,24.47544,1897.9896,4.84149505664,3
2025-04-01T15:07:24.450,1743512844450,11.824485652236,46.3786470148926,24.47544,1897.9896,4.84149505664,3
2025-04-01T15:07:24.550,1743512844550,11.8244906362112,46.378644219057,24.59736,1898.2944,4.90408780928,3
2025-04-01T15:07:24.650,1743512844650,11.82449572536,46.3786414709422,24.59736,1898.2944,4.90408780928,3
2025-04-01T15:07:24.750,1743512844750,11.8245007775639,46.3786386720576,24.59736,1898.2944,4.90408780928,3
2025-04-01T15:07:24.850,1743512844850,11.8245058951165,46.3786357447752,24.6888,1898.2944,4.90408780928,3
2025-04-01T15:07:24.950,1743512844950,11.8245108982593,46.3786329182447,24.6888,1898.2944,4.90408780928,3
2025-04-01T15:07:25.050,1743512845050,11.8245154099963,46.378630314937,24.78024,1898.2944,4.90408780928,3
2025-04-01T15:07:25.150,1743512845150,11.8245203217702,46.3786274911471,24.78024,1898.2944,4.90408780928,3
2025-04-01T15:07:25.250,1743512845250,11.8245257603057,46.3786242638362,24.87168,1898.5992,4.90408780928,3
2025-04-01T15:07:25.350,1743512845350,11.8245307240209,46.3786213997593,24.87168,1898.5992,4.90408780928,3
2025-04-01T15:07:25.450,1743512845450,11.8245355890179,46.3786186678827,24.87168,1898.5992,4.90408780928,3
2025-04-01T15:07:25.550,1743512845550,11.8245405530309,46.3786158243603,24.9936,1898.5992,4.90408780928,3
2025-04-01T15:07:25.650,1743512845650,11.8245458695095,46.3786127429528,24.9936,1898.5992,4.827014984,3
2025-04-01T15:07:25.750,1743512845750,11.8245508302452,46.3786098858645,24.9936,1898.5992,4.827014984,3
2025-04-01T15:07:25.850,1743512845850,11.8245551605355,46.3786072867705,25.08504,1898.5992,4.90408780928,3
2025-04-01T15:07:25.950,1743512845950,11.8245600858161,46.3786044570882,25.08504,1898.5992,4.90408780928,3
2025-04-01T15:07:26.050,1743512846050,11.8245650890582,46.3786016010276,25.08504,1898.5992,4.90408780928,3
2025-04-01T15:07:26.150,1743512846150,11.8245700672732,46.3785987710028,25.08504,1898.5992,4.90408780928,3
2025-04-01T15:07:26.250,1743512846250,11.8245751709218,46.3785958956208,25.17648,1898.904,4.90408780928,3
2025-04-01T15:07:26.350,1743512846350,11.8245802052493,46.3785930641229,25.17648,1898.904,4.90408780928,3
2025-04-01T15:07:26.450,1743512846450,11.8245852426554,46.3785901763397,25.17648,1898.904,4.98197558848,3
2025-04-01T15:07:26.550,1743512846550,11.8245902972429,46.3785873670407,25.2984,1898.904,4.98197558848,3
2025-04-01T15:07:26.650,1743512846650,11.8245953679192,46.3785845535966,25.2984,1898.904,4.92037392352,3
2025-04-01T15:07:26.750,1743512846750,11.824600458657,46.3785817936972,25.2984,1898.904,4.92037392352,3
2025-04-01T15:07:26.850,1743512846850,11.8246054127387,46.3785791362967,25.2984,1898.904,4.92037392352,3
2025-04-01T15:07:26.950,1743512846950,11.8246104845075,46.3785763478607,25.38984,1898.904,4.92037392352,3
2025-04-01T15:07:27.050,1743512847050,11.8246156847887,46.378573499371,25.38984,1898.904,4.98197558848,3
2025-04-01T15:07:27.150,1743512847150,11.8246207811873,46.3785706660232,25.38984,1898.904,4.98197558848,3
2025-04-01T15:07:27.250,1743512847250,11.8246259453182,46.3785678259266,25.48128,1899.2088,4.98197558848,3
2025-04-01T15:07:27.340,1743512847340,11.8246310587989,46.3785649737713,25.48128,1899.2088,4.98197558848,3
2025-04-01T15:07:27.450,1743512847450,11.8246362021731,46.3785621189439,25.48128,1899.2088,4.98197558848,3
2025-04-01T15:07:27.540,1743512847540,11.8246413020478,46.3785592507903,25.57272,1899.2088,4.98197558848,3
2025-04-01T15:07:27.650,1743512847650,11.8246465247739,46.3785563482078,25.57272,1899.2088,4.98197558848,3
2025-04-01T15:07:27.750,1743512847750,11.8246516400423,46.378553477896,25.69464,1899.2088,4.98197558848,3
2025-04-01T15:07:27.850,1743512847850,11.8246568469775,46.3785506744208,25.69464,1899.2088,4.98197558848,3
2025-04-01T15:07:27.950,1743512847950,11.824661973369,46.3785478223683,25.69464,1899.2088,4.98197558848,3
2025-04-01T15:07:28.050,1743512848050,11.8246675644508,46.3785448010488,25.78608,1899.5136,4.98197558848,3
2025-04-01T15:07:28.150,1743512848150,11.8246726951129,46.3785419319017,25.78608,1899.5136,4.98197558848,3
2025-04-01T15:07:28.250,1743512848250,11.8246777745288,46.3785391047888,25.87752,1899.5136,4.90408780928,3
2025-04-01T15:07:28.360,1743512848360,11.8246828698351,46.3785362299207,25.87752,1899.5136,4.90408780928,3
2025-04-01T15:07:28.450,1743512848450,11.824687808821,46.3785333455632,25.87752,1899.5136,4.90408780928,3
2025-04-01T15:07:28.570,1743512848570,11.8246928803912,46.3785304647685,25.99944,1899.5136,4.96790500448,3
2025-04-01T15:07:28.670,1743512848670,11.8246975567909,46.3785277353584,25.99944,1899.5136,4.90408780928,3
2025-04-01T15:07:28.780,1743512848780,11.8247026118749,46.3785248844364,25.99944,1899.5136,4.90408780928,3
2025-04-01T15:07:28.880,1743512848880,11.824707839964,46.3785219493091,26.09088,1899.8184,4.98197558848,3
2025-04-01T15:07:28.980,1743512848980,11.8247129158047,46.3785190994149,26.09088,1899.8184,4.98197558848,3
2025-04-01T15:07:29.080,1743512849080,11.8247179649299,46.378516310602,26.09088,1899.8184,4.90408780928,3
2025-04-01T15:07:29.180,1743512849180,11.8247230222981,46.3785134640308,26.18232,1899.8184,4.90408780928,3
2025-04-01T15:07:29.280,1743512849280,11.8247280071672,46.3785106003649,26.18232,1899.8184,4.90408780928,3
2025-04-01T15:07:29.390,1743512849390,11.8247330288817,46.3785077494086,26.27376,1899.8184,4.90408780928,3
2025-04-01T15:07:29.490,1743512849490,11.8247381560677,46.3785046961952,26.27376,1899.8184,4.90408780928,3
2025-04-01T15:07:29.590,1743512849590,11.8247431370635,46.3785017781282,26.27376,1899.8184,4.96790500448,3
2025-04-01T15:07:29.690,1743512849690,11.8247480818097,46.3784988469747,26.39568,1900.1232,4.96790500448,3
2025-04-01T15:07:29.790,1743512849790,11.824753049994,46.3784958816322,26.39568,1900.1232,4.96790500448,3
2025-04-01T15:07:29.890,1743512849890,11.824758000401,46.3784929769257,26.39568,1900.1232,4.96790500448,3
2025-04-01T15:07:29.950,1743512849950,11.8247629982802,46.3784900095619,26.48712,1900.1232,4.96790500448,3
2025-04-01T15:07:30.050,1743512850050,11.8247680999425,46.3784869792668,26.48712,1900.1232,4.96790500448,3
2025-04-01T15:07:30.150,1743512850150,11.8247731057668,46.3784840041266,26.48712,1900.1232,4.96790500448,3
2025-04-01T15:07:30.250,1743512850250,11.8247783020754,46.3784810758851,26.57856,1900.1232,5.03290015008,3
2025-04-01T15:07:30.350,1743512850350,11.8247833223995,46.3784780969422,26.57856,1900.1232,5.03290015008,3
2025-04-01T15:07:30.450,1743512850450,11.824788273899,46.3784750139931,26.57856,1900.1232,5.03290015008,3
2025-04-01T15:07:30.550,1743512850550,11.8247932666139,46.3784720147355,26.67,1900.428,5.03290015008,3
2025-04-01T15:07:30.650,1743512850650,11.8247983499031,46.3784690927288,26.67,1900.428,5.03290015008,3
2025-04-01T15:07:30.750,1743512850750,11.824803318286,46.3784660789117,26.79192,1900.428,5.03290015008,3
2025-04-01T15:07:30.850,1743512850850,11.8248086127169,46.3784627470807,26.79192,1900.428,4.957830064,3
2025-04-01T15:07:30.950,1743512850950,11.8248136057296,46.3784596886601,26.79192,1900.428,5.03290015008,3
2025-04-01T15:07:31.050,1743512851050,11.8248181659319,46.3784569401,26.88336,1900.428,5.03290015008,3
2025-04-01T15:07:31.150,1743512851150,11.8248231241848,46.3784539359435,26.88336,1900.428,5.03290015008,3
2025-04-01T15:07:31.250,1743512851250,11.8248280579071,46.3784508876632,26.88336,1900.428,5.03290015008,3
2025-04-01T15:07:31.350,1743512851350,11.8248330245023,46.3784479000874,26.9748,1900.7328,5.03290015008,3
2025-04-01T15:07:31.450,1743512851450,11.8248379864298,46.3784450188817,26.9748,1900.7328,5.03290015008,3
2025-04-01T15:07:31.550,1743512851550,11.8248429478607,46.3784420581982,26.9748,1900.7328,4.96790500448,3
2025-04-01T15:07:31.650,1743512851650,11.824848015657,46.3784389444172,27.09672,1900.7328,4.8918380192,3
2025-04-01T15:07:31.750,1743512851750,11.8248529616942,46.3784359752378,27.09672,1900.7328,4.8918380192,3
2025-04-01T15:07:31.850,1743512851850,11.8248578254001,46.3784331315099,27.09672,1900.7328,4.8918380192,3
2025-04-01T15:07:31.950,1743512851950,11.8248627607114,46.3784301719569,27.18816,1900.7328,4.8918380192,3
2025-04-01T15:07:32.050,1743512852050,11.8248676829133,46.3784270996276,27.18816,1900.7328,4.8918380192,3
2025-04-01T15:07:32.150,1743512852150,11.8248726106768,46.3784241491187,27.18816,1900.7328,4.8918380192,3
2025-04-01T15:07:32.250,1743512852250,11.8248775815425,46.3784212720581,27.2796,1901.0376,4.8918380192,3
2025-04-01T15:07:32.350,1743512852350,11.8248825236072,46.3784183553271,27.2796,1901.0376,4.8918380192,3
2025-04-01T15:07:32.450,1743512852450,11.8248873584128,46.3784154964231,27.2796,1901.0376,4.8918380192,3
2025-04-01T15:07:32.550,1743512852550,11.8248923047479,46.3784126018569,27.2796,1901.0376,4.96790500448,3
2025-04-01T15:07:32.650,1743512852650,11.8248973235824,46.3784096493267,27.37104,1901.0376,4.96790500448,3
2025-04-01T15:07:32.740,1743512852740,11.8249022689244,46.3784067419138,27.37104,1901.0376,4.96790500448,3
2025-04-01T15:07:32.850,1743512852850,11.8249072273759,46.3784038192905,27.37104,1901.0376,4.8918380192,3
2025-04-01T15:07:32.950,1743512852950,11.8249121392491,46.37840089862,27.49296,1901.0376,4.8918380192,3
2025-04-01T15:07:33.050,1743512853050,11.8249170247048,46.3783979597243,27.49296,1901.0376,4.8918380192,3
2025-04-01T15:07:33.150,1743512853150,11.8249219150269,46.3783950562854,27.49296,1901.0376,4.827014984,3
2025-04-01T15:07:33.250,1743512853250,11.8249268606669,46.3783922055689,27.49296,1901.0376,4.827014984,3
2025-04-01T15:07:33.350,1743512853350,11.8249317617149,46.3783893290222,27.5844,1901.3424,4.827014984,3
2025-04-01T15:07:33.450,1743512853450,11.824937022081,46.378386148199,27.5844,1901.3424,4.827014984,3
2025-04-01T15:07:33.550,1743512853550,11.8249419485534,46.3783832357502,27.5844,1901.3424,4.8918380192,3
2025-04-01T15:07:33.650,1743512853650,11.8249464100375,46.3783805780071,27.67584,1901.3424,4.8918380192,3
2025-04-01T15:07:33.750,1743512853750,11.8249512908254,46.3783776878944,27.67584,1901.3424,4.8918380192,3
2025-04-01T15:07:33.850,1743512853850,11.8249567400868,46.3783745218705,27.67584,1901.3424,4.827014984,3
2025-04-01T15:07:33.950,1743512853950,11.824961705391,46.3783716199046,27.67584,1901.3424,4.827014984,3
2025-04-01T15:07:34.050,1743512854050,11.824966590946,46.3783687761767,27.79776,1901.3424,4.827014984,3
2025-04-01T15:07:34.150,1743512854150,11.824971557144,46.3783658846252,27.79776,1901.3424,4.827014984,3
2025-04-01T15:07:34.250,1743512854250,11.8249764061514,46.3783630287015,27.79776,1901.3424,4.827014984,3
2025-04-01T15:07:34.370,1743512854370,11.8249813399731,46.3783601459199,27.8892,1901.6472,4.827014984,3
2025-04-01T15:07:34.450,1743512854450,11.8249862647571,46.3783573879047,27.8892,1901.6472,4.827014984,3
2025-04-01T15:07:34.570,1743512854570,11.824991197387,46.3783545088914,27.8892,1901.6472,4.827014984,3
2025-04-01T15:07:34.670,1743512854670,11.8249957628528,46.3783519151074,27.98064,1901.6472,4.827014984,3
2025-04-01T15:07:34.770,1743512854770,11.8250006775069,46.3783490532914,27.98064,1901.6472,4.827014984,3
2025-04-01T15:07:34.870,1743512854870,11.8250055903732,46.3783461861998,27.98064,1901.6472,4.8918380192,3
2025-04-01T15:07:34.970,1743512854970,11.8250105051265,46.3783433071865,28.07208,1901.6472,4.8918380192,3
2025-04-01T15:07:35.050,1743512855050,11.8250155606078,46.3783404309139,28.07208,1901.6472,4.8918380192,3
2025-04-01T15:07:35.180,1743512855180,11.8250204989979,46.3783375323052,28.07208,1901.6472,4.96790500448,3
2025-04-01T15:07:35.280,1743512855280,11.8250255191234,46.3783345080395,28.194,1901.952,4.96790500448,3
2025-04-01T15:07:35.380,1743512855380,11.825030478568,46.3783315798322,28.194,1901.952,4.96790500448,3
2025-04-01T15:07:35.480,1743512855480,11.8250358629774,46.3783284105881,28.194,1901.952,4.96790500448,3
2025-04-01T15:07:35.590,1743512855590,11.8250408668154,46.3783254482602,28.28544,1901.952,4.96790500448,3
2025-04-01T15:07:35.690,1743512855690,11.8250453808366,46.3783226511913,28.28544,1901.952,4.96790500448,3
2025-04-01T15:07:35.790,1743512855790,11.8250503195246,46.3783197051015,28.28544,1901.952,4.8918380192,3
2025-04-01T15:07:35.890,1743512855890,11.8250557440569,46.3783166621996,28.37688,1901.952,4.8918380192,3
2025-04-01T15:07:35.990,1743512855990,11.8250606996283,46.3783137075454,28.37688,1901.952,4.8918380192,3
2025-04-01T15:07:36.050,1743512856050,11.8250655114923,46.3783107800918,28.37688,1901.952,4.8918380192,3
2025-04-01T15:07:36.150,1743512856150,11.825070442831,46.3783078377019,28.4988,1902.2568,4.8918380192,3
2025-04-01T15:07:36.250,1743512856250,11.8250753253073,46.3783047853449,28.4988,1902.2568,4.8918380192,3
2025-04-01T15:07:36.350,1743512856350,11.8250802338038,46.3783018470659,28.4988,1902.2568,4.8918380192,3
2025-04-01T15:07:36.450,1743512856450,11.8250846480145,46.3782993294024,28.59024,1902.2568,4.8918380192,3
2025-04-01T15:07:36.550,1743512856550,11.8250894943404,46.3782964429209,28.59024,1902.2568,4.8918380192,3
2025-04-01T15:07:36.650,1743512856650,11.8250943966795,46.3782934440744,28.59024,1902.2568,4.8918380192,3
2025-04-01T15:07:36.750,1743512856750,11.825099255519,46.3782905409437,28.68168,1902.2568,4.8918380192,3
2025-04-01T15:07:36.850,1743512856850,11.8251044554029,46.3782874186326,28.68168,1902.2568,4.8918380192,3
2025-04-01T15:07:36.950,1743512856950,11.8251093594303,46.3782844793258,28.77312,1902.5616,4.8918380192,3
2025-04-01T15:07:37.050,1743512857050,11.8251143315872,46.3782814097715,28.77312,1902.5616,4.8918380192,3
2025-04-01T15:07:37.150,1743512857150,11.8251192507103,46.3782784641614,28.77312,1902.5616,4.8918380192,3
2025-04-01T15:07:37.250,1743512857250,11.8251236533012,46.3782758610592,28.89504,1902.5616,4.8918380192,3
2025-04-01T15:07:37.350,1743512857350,11.8251285318546,46.3782729632728,28.89504,1902.5616,4.8918380192,3
2025-04-01T15:07:37.450,1743512857450,11.8251338819509,46.378269786355,28.89504,1902.5616,4.8918380192,3
2025-04-01T15:07:37.550,1743512857550,11.8251388488938,46.3782668721248,28.98648,1902.5616,4.96790500448,3
2025-04-01T15:07:37.650,1743512857650,11.8251435872157,46.3782641304162,28.98648,1902.5616,4.96790500448,3
2025-04-01T15:07:37.750,1743512857750,11.8251485585284,46.3782612310539,28.98648,1902.5616,4.96790500448,3
2025-04-01T15:07:37.850,1743512857850,11.8251538552435,46.3782581293659,29.07792,1902.8664,4.96790500448,3
2025-04-01T15:07:37.950,1743512857950,11.825158832068,46.3782552011586,29.07792,1902.8664,4.96790500448,3
2025-04-01T15:07:38.050,1743512858050,11.8251638392331,46.3782523163215,29.07792,1902.8664,4.8918380192,3
2025-04-01T15:07:38.150,1743512858150,11.8251687960459,46.378249382633,29.07792,1902.8664,4.8918380192,3
2025-04-01T15:07:38.250,1743512858250,11.8251736040863,46.3782464804616,29.19984,1902.8664,4.8918380192,3
2025-04-01T15:07:38.350,1743512858350,11.8251785332402,46.3782435447862,29.19984,1902.8664,4.8918380192,3
2025-04-01T15:07:38.450,1743512858450,11.8251832751374,46.3782406727615,29.29128,1902.8664,4.8918380192,3
2025-04-01T15:07:38.550,1743512858550,11.8251881763344,46.3782377434579,29.29128,1902.8664,4.8918380192,3
2025-04-01T15:07:38.650,1743512858650,11.8251931595151,46.3782347581089,29.29128,1902.8664,4.8918380192,3
2025-04-01T15:07:38.750,1743512858750,11.8251980851929,46.3782318258592,29.38272,1903.1712,4.8918380192,3
2025-04-01T15:07:38.850,1743512858850,11.8252029633987,46.3782290052895,29.38272,1903.1712,4.8918380192,3
2025-04-01T15:07:38.950,1743512858950,11.8252078709021,46.3782260830431,29.38272,1903.1712,4.8918380192,3
2025-04-01T15:07:39.050,1743512859050,11.8252127396234,46.3782230795375,29.47416,1903.1712,4.8918380192,3
2025-04-01T15:07:39.150,1743512859150,11.8252176275619,46.3782201514673,29.47416,1903.1712,4.8918380192,3
2025-04-01T15:07:39.250,1743512859250,11.8252222432807,46.378217504995,29.47416,1903.1712,4.8918380192,3
2025-04-01T15:07:39.350,1743512859350,11.8252271078308,46.3782146074141,29.59608,1903.1712,4.8918380192,3
2025-04-01T15:07:39.450,1743512859450,11.8252324350849,46.3782113856187,29.59608,1903.1712,4.8918380192,3
2025-04-01T15:07:39.550,1743512859550,11.8252373810228,46.3782084639204,29.68752,1903.476,4.96790500448,3
2025-04-01T15:07:39.650,1743512859650,11.8252419747436,46.3782057000814,29.68752,1903.476,4.96790500448,3
2025-04-01T15:07:39.750,1743512859750,11.8252469168579,46.3782027850975,29.68752,1903.476,4.96790500448,3
2025-04-01T15:07:39.850,1743512859850,11.8252524258567,46.3781996941664,29.77896,1903.476,4.96790500448,3
2025-04-01T15:07:39.950,1743512859950,11.8252574127617,46.3781967442398,29.77896,1903.476,4.96790500448,3
2025-04-01T15:07:40.050,1743512860050,11.8252617845652,46.3781939072949,29.77896,1903.476,5.03290015008,3
2025-04-01T15:07:40.150,1743512860150,11.8252666841235,46.3781909642883,29.8704,1903.476,4.957830064,3
2025-04-01T15:07:40.250,1743512860250,11.8252721388472,46.3781878697944,29.8704,1903.476,4.8918380192,3
2025-04-01T15:07:40.370,1743512860370,11.8252771135365,46.3781849363115,29.8704,1903.476,4.96790500448,3
2025-04-01T15:07:40.450,1743512860450,11.8252820578358,46.3781820398268,29.99232,1903.7808,4.96790500448,3
2025-04-01T15:07:40.550,1743512860550,11.8252870577012,46.3781791410812,29.99232,1903.7808,4.96790500448,3
2025-04-01T15:07:40.650,1743512860650,11.8252916885157,46.3781763344201,29.99232,1903.7808,4.96790500448,3
2025-04-01T15:07:40.770,1743512860770,11.8252966555082,46.3781734604769,30.08376,1903.7808,4.96790500448,3
2025-04-01T15:07:40.870,1743512860870,11.8253021388344,46.3781704072977,30.08376,1903.7808,4.96790500448,3
2025-04-01T15:07:40.980,1743512860980,11.8253071331382,46.3781675076614,30.08376,1903.7808,4.96790500448,3
2025-04-01T15:07:41.050,1743512861050,11.8253120673571,46.3781647722562,30.1752,1903.7808,4.8918380192,3
2025-04-01T15:07:41.150,1743512861150,11.8253170148841,46.378161889269,30.1752,1903.7808,4.8918380192,3
2025-04-01T15:07:41.280,1743512861280,11.8253217762469,46.3781589542102,30.1752,1903.7808,4.8918380192,3
2025-04-01T15:07:41.380,1743512861380,11.8253266744645,46.3781560682769,30.29712,1903.7808,4.8918380192,3
2025-04-01T15:07:41.480,1743512861480,11.8253311460786,46.378153383162,30.29712,1903.7808,4.8918380192,3
2025-04-01T15:07:41.590,1743512861590,11.8253359913121,46.3781505306641,30.29712,1903.7808,4.827014984,3
2025-04-01T15:07:41.690,1743512861690,11.8253410323929,46.378147728388,30.38856,1904.0856,4.827014984,3
2025-04-01T15:07:41.790,1743512861790,11.8253458923745,46.3781448800011,30.38856,1904.0856,4.827014984,3
2025-04-01T15:07:41.890,1743512861890,11.8253512246937,46.3781418181889,30.38856,1904.0856,4.827014984,3
2025-04-01T15:07:41.990,1743512861990,11.8253561212229,46.3781389402034,30.48,1904.0856,4.827014984,3
2025-04-01T15:07:42.090,1743512862090,11.8253604791224,46.378136174583,30.48,1904.0856,4.8918380192,3
2025-04-01T15:07:42.150,1743512862150,11.8253652981867,46.3781332999547,30.48,1904.0856,4.8918380192,3
2025-04-01T15:07:42.250,1743512862250,11.8253702381658,46.3781304473883,30.57144,1904.0856,4.8918380192,3
2025-04-01T15:07:42.350,1743512862350,11.8253750700912,46.3781275602217,30.57144,1904.0856,4.8918380192,3
2025-04-01T15:07:42.450,1743512862450,11.8253802963926,46.3781244764847,30.57144,1904.0856,4.8918380192,3
2025-04-01T15:07:42.550,1743512862550,11.8253851867644,46.378121561912,30.69336,1904.3904,4.8918380192,3
2025-04-01T15:07:42.650,1743512862650,11.8253896803766,46.3781188572702,30.69336,1904.3904,4.8918380192,3
2025-04-01T15:07:42.750,1743512862750,11.8253945307247,46.3781159607855,30.69336,1904.3904,4.8918380192,3
2025-04-01T15:07:42.850,1743512862850,11.8253997416822,46.3781128114108,30.7848,1904.3904,4.8918380192,3
2025-04-01T15:07:42.950,1743512862950,11.8254045694861,46.378109860525,30.7848,1904.3904,4.81664544416,3
2025-04-01T15:07:43.050,1743512863050,11.8254090422423,46.3781071584182,30.7848,1904.3904,4.81664544416,3
2025-04-01T15:07:43.150,1743512863150,11.8254137964049,46.3781042139043,30.87624,1904.3904,4.81664544416,3
2025-04-01T15:07:43.250,1743512863250,11.8254185725655,46.3781014238239,30.87624,1904.3904,4.81664544416,3
2025-04-01T15:07:43.350,1743512863350,11.8254232795042,46.3780984984258,30.99816,1904.6952,4.81664544416,3
2025-04-01T15:07:43.450,1743512863450,11.8254280196138,46.3780954732694,30.99816,1904.6952,4.81664544416,3
2025-04-01T15:07:43.550,1743512863550,11.8254327196005,46.3780925497897,30.99816,1904.6952,4.81664544416,3
2025-04-01T15:07:43.650,1743512863650,11.825437311037,46.3780895738272,31.0896,1904.6952,4.81664544416,3
2025-04-01T15:07:43.750,1743512863750,11.8254420322273,46.3780866305466,31.0896,1904.6952,4.81664544416,3
2025-04-01T15:07:43.850,1743512863850,11.8254472931397,46.3780834183434,31.18104,1904.6952,4.81664544416,3
2025-04-01T15:07:43.950,1743512863950,11.8254520706907,46.3780804549877,31.18104,1904.6952,4.81664544416,3
2025-04-01T15:07:44.050,1743512864050,11.8254567222618,46.3780773653584,31.18104,1904.6952,4.81664544416,3
2025-04-01T15:07:44.150,1743512864150,11.8254614906759,46.3780744131708,31.27248,1905,4.81664544416,3
2025-04-01T15:07:44.250,1743512864250,11.8254658515549,46.3780717983526,31.27248,1905,4.81664544416,3
2025-04-01T15:07:44.350,1743512864350,11.8254705902245,46.3780688974829,31.27248,1905,4.81664544416,3
2025-04-01T15:07:44.450,1743512864450,11.8254752308711,46.3780659935986,31.3944,1905,4.81664544416,3
2025-04-01T15:07:44.550,1743512864550,11.8254800006259,46.3780630917012,31.3944,1905,4.81664544416,3
2025-04-01T15:07:44.650,1743512864650,11.8254848772426,46.3780600870994,31.3944,1905,4.8918380192,3
2025-04-01T15:07:44.750,1743512864750,11.825489710906,46.3780571710193,31.48584,1905,4.8918380192,3
2025-04-01T15:07:44.850,1743512864850,11.8254945613039,46.3780542580224,31.48584,1905,4.8918380192,3
2025-04-01T15:07:44.950,1743512864950,11.8254994192496,46.3780513241969,31.48584,1905,4.8918380192,3
2025-04-01T15:07:45.050,1743512865050,11.825504288666,46.378048411063,31.48584,1905,4.8918380192,3
2025-04-01T15:07:45.150,1743512865150,11.8255091562452,46.3780454813484,31.57728,1905.3048,4.8918380192,3
2025-04-01T15:07:45.250,1743512865250,11.8255140383242,46.378042462838,31.57728,1905.3048,4.8918380192,3
2025-04-01T15:07:45.340,1743512865340,11.8255188945816,46.378039540112,31.57728,1905.3048,4.8918380192,3
2025-04-01T15:07:45.450,1743512865450,11.8255238516923,46.3780366122473,31.6992,1905.3048,4.8918380192,3
2025-04-01T15:07:45.550,1743512865550,11.8255287128161,46.3780336943173,31.6992,1905.3048,4.8918380192,3
2025-04-01T15:07:45.650,1743512865650,11.8255335058104,46.3780307202048,31.6992,1905.3048,4.8918380192,3
2025-04-01T15:07:45.750,1743512865750,11.8255383501998,46.3780277894625,31.79064,1905.3048,4.8918380192,3
2025-04-01T15:07:45.850,1743512865850,11.8255431467694,46.3780247768443,31.79064,1905.3048,4.8918380192,3
2025-04-01T15:07:45.950,1743512865950,11.8255479579878,46.3780218265066,31.79064,1905.3048,4.8918380192,3
2025-04-01T15:07:46.050,1743512866050,11.8255529685295,46.3780189094674,31.79064,1905.3048,4.957830064,3
2025-04-01T15:07:46.160,1743512866160,11.8255579436905,46.3780159250775,31.79064,1905.3048,5.03290015008,3
2025-04-01T15:07:46.250,1743512866250,11.8255632865618,46.3780126228452,31.79064,1905.3048,5.10882408256,3
2025-04-01T15:07:46.360,1743512866360,11.8255684731375,46.3780095870689,31.79064,1905.3048,5.10882408256,3
2025-04-01T15:07:46.450,1743512866450,11.8255738392483,46.3780065891816,31.88208,1905.6096,5.10882408256,3
2025-04-01T15:07:46.560,1743512866560,11.8255790615772,46.3780035825243,31.88208,1905.6096,5.10882408256,3
2025-04-01T15:07:46.660,1743512866660,11.8255837497704,46.3780007692857,31.88208,1905.6096,5.04480750752,3
2025-04-01T15:07:46.760,1743512866760,11.8255888301299,46.377997818948,31.88208,1905.6096,4.96790500448,3
2025-04-01T15:07:46.870,1743512866870,11.8255937919084,46.3779949149266,31.88208,1905.6096,4.96790500448,3
2025-04-01T15:07:46.970,1743512866970,11.8255987976583,46.3779919520506,31.97352,1905.6096,4.96790500448,3
2025-04-01T15:07:47.050,1743512867050,11.825603833823,46.3779888841407,31.97352,1905.6096,4.96790500448,3
2025-04-01T15:07:47.150,1743512867150,11.8256088518629,46.3779858881718,31.97352,1905.6096,4.96790500448,3
2025-04-01T15:07:47.280,1743512867280,11.8256139024281,46.3779829031653,31.97352,1905.6096,5.03290015008,3
2025-04-01T15:07:47.380,1743512867380,11.8256189212626,46.3779799169941,32.09544,1905.6096,5.03290015008,3
2025-04-01T15:07:47.480,1743512867480,11.8256240401062,46.377976716781,32.09544,1905.6096,5.03290015008,3
2025-04-01T15:07:47.580,1743512867580,11.8256290266884,46.3779737145772,32.09544,1905.6096,5.03290015008,3
2025-04-01T15:07:47.680,1743512867680,11.8256340410538,46.3779708623535,32.18688,1905.9144,5.03290015008,3
2025-04-01T15:07:47.780,1743512867780,11.825638958141,46.3779678642606,32.18688,1905.9144,4.957830064,3
2025-04-01T15:07:47.880,1743512867880,11.825643783462,46.3779647982005,32.18688,1905.9144,4.957830064,3
2025-04-01T15:07:47.990,1743512867990,11.8256486264858,46.3779617854454,32.27832,1905.9144,4.957830064,3
2025-04-01T15:07:48.090,1743512868090,11.8256541006503,46.3779586394279,32.27832,1905.9144,4.957830064,3
2025-04-01T15:07:48.150,1743512868150,11.8256589581242,46.377955598376,32.27832,1905.9144,4.88365405792,3
2025-04-01T15:07:48.290,1743512868290,11.8256635308897,46.3779525835653,32.27832,1905.9144,4.88365405792,3
2025-04-01T15:07:48.390,1743512868390,11.8256683203584,46.3779495576552,32.36976,1905.9144,4.88365405792,3
2025-04-01T15:07:48.450,1743512868450,11.8256726777118,46.3779468435583,32.36976,1905.9144,4.88365405792,3
2025-04-01T15:07:48.550,1743512868550,11.8256773804545,46.3779438553317,32.36976,1905.9144,4.88365405792,3
2025-04-01T15:07:48.650,1743512868650,11.825682115077,46.37794090979,32.49168,1906.2192,4.88365405792,3
2025-04-01T15:07:48.750,1743512868750,11.8256868096263,46.3779379227281,32.49168,1906.2192,4.88365405792,3
2025-04-01T15:07:48.850,1743512868850,11.8256919141439,46.3779346655788,32.49168,1906.2192,4.88365405792,3
2025-04-01T15:07:48.950,1743512868950,11.8256966318085,46.3779316453555,32.49168,1906.2192,4.88365405792,3
2025-04-01T15:07:49.050,1743512869050,11.8257013947852,46.3779286056053,32.58312,1906.2192,4.81041325952,3
2025-04-01T15:07:49.150,1743512869150,11.8257061004328,46.3779255637997,32.58312,1906.2192,4.81041325952,3
2025-04-01T15:07:49.250,1743512869250,11.8257104928937,46.3779229095166,32.58312,1906.2192,4.81041325952,3
2025-04-01T15:07:49.350,1743512869350,11.8257151573757,46.3779198964874,32.67456,1906.2192,4.81041325952,3
2025-04-01T15:07:49.450,1743512869450,11.8257202030497,46.3779165926107,32.67456,1906.2192,4.87955693632,3
2025-04-01T15:07:49.550,1743512869550,11.8257248816839,46.377913523947,32.67456,1906.2192,4.87955693632,3
2025-04-01T15:07:49.650,1743512869650,11.8257291794489,46.3779107419514,32.67456,1906.2192,4.87955693632,3
2025-04-01T15:07:49.750,1743512869750,11.8257338044039,46.3779076823318,32.79648,1906.524,4.87955693632,3
2025-04-01T15:07:49.850,1743512869850,11.8257385439672,46.3779044981514,32.79648,1906.524,4.87955693632,3
2025-04-01T15:07:49.950,1743512869950,11.8257431593384,46.3779014261305,32.79648,1906.524,4.87955693632,3
2025-04-01T15:07:50.050,1743512870050,11.8257477629161,46.3778983726772,32.79648,1906.524,4.87955693632,3
2025-04-01T15:07:50.150,1743512870150,11.825752353856,46.3778952827738,32.79648,1906.524,4.87955693632,3
2025-04-01T15:07:50.250,1743512870250,11.8257571824296,46.3778921778656,32.79648,1906.524,4.87955693632,3
2025-04-01T15:07:50.350,1743512870350,11.825761846477,46.3778890788496,32.79648,1906.524,4.87955693632,3
2025-04-01T15:07:50.450,1743512870450,11.8257666419914,46.3778858945322,32.88792,1906.524,4.95177535424,3
2025-04-01T15:07:50.550,1743512870550,11.8257713804251,46.377882767699,32.88792,1906.524,4.95177535424,3
2025-04-01T15:07:50.650,1743512870650,11.8257760171116,46.3778796875248,32.88792,1906.524,4.95177535424,3
2025-04-01T15:07:50.730,1743512870730,11.8257807521934,46.3778765431517,32.88792,1906.524,4.95177535424,3
2025-04-01T15:07:50.840,1743512870840,11.8257856536138,46.3778734444784,32.88792,1906.524,4.95177535424,3
2025-04-01T15:07:50.950,1743512870950,11.8257903907812,46.3778702907187,32.88792,1906.524,5.02096418208,3
2025-04-01T15:07:51.050,1743512871050,11.8257951251679,46.3778670691289,32.97936,1906.524,5.02096418208,3
2025-04-01T15:07:51.150,1743512871150,11.8257998366254,46.3778639110528,32.97936,1906.524,5.02096418208,3
2025-04-01T15:07:51.250,1743512871250,11.8258043844382,46.3778607527026,32.97936,1906.524,4.94975562752,3
2025-04-01T15:07:51.350,1743512871350,11.8258090472443,46.3778575960653,32.97936,1906.524,4.94975562752,3
2025-04-01T15:07:51.450,1743512871450,11.8258136434603,46.3778544270267,32.97936,1906.524,4.94975562752,3
2025-04-01T15:07:51.550,1743512871550,11.825818271643,46.3778512759392,32.97936,1906.524,4.94975562752,3
2025-04-01T15:07:51.650,1743512871650,11.825823313481,46.3778479143726,32.97936,1906.524,4.94975562752,3
2025-04-01T15:07:51.750,1743512871750,11.8258279789437,46.3778447493079,32.97936,1906.524,4.94975562752,3
2025-04-01T15:07:51.850,1743512871850,11.8258321953084,46.3778417523797,33.0708,1906.8288,4.94975562752,3
2025-04-01T15:07:51.950,1743512871950,11.8258368228083,46.3778385838893,33.0708,1906.8288,4.94975562752,3
2025-04-01T15:07:52.050,1743512872050,11.8258413686224,46.3778352551415,33.0708,1906.8288,4.94975562752,3
2025-04-01T15:07:52.150,1743512872150,11.8258459888848,46.3778320431439,33.0708,1906.8288,4.94975562752,3
2025-04-01T15:07:52.250,1743512872250,11.8258505403226,46.3778288802717,33.0708,1906.8288,4.94975562752,3
2025-04-01T15:07:52.360,1743512872360,11.8258551361103,46.3778256780032,33.0708,1906.8288,4.94975562752,3
2025-04-01T15:07:52.460,1743512872460,11.8258598151543,46.3778224853953,33.0708,1906.8288,4.94975562752,3
2025-04-01T15:07:52.550,1743512872550,11.825864372644,46.3778193039555,33.19272,1906.8288,4.87955693632,3
2025-04-01T15:07:52.650,1743512872650,11.8258688559027,46.3778159945976,33.19272,1906.8288,4.87955693632,3
2025-04-01T15:07:52.770,1743512872770,11.825873395578,46.3778128164464,33.19272,1906.8288,4.87955693632,3
2025-04-01T15:07:52.850,1743512872850,11.8258780039413,46.3778097819034,33.19272,1906.8288,4.87955693632,3
2025-04-01T15:07:52.950,1743512872950,11.8258825588923,46.377806640134,33.19272,1906.8288,4.80833407648,3
2025-04-01T15:07:53.050,1743512873050,11.8258871170586,46.3778034499242,33.19272,1906.8288,4.87955693632,3
2025-04-01T15:07:53.180,1743512873180,11.8258916929587,46.3778003328887,33.19272,1906.8288,4.87955693632,3
2025-04-01T15:07:53.280,1743512873280,11.8258962779211,46.377797138568,33.19272,1906.8288,4.87955693632,3
2025-04-01T15:07:53.380,1743512873380,11.8259008866321,46.3777940137218,33.19272,1906.8288,4.87955693632,3
2025-04-01T15:07:53.480,1743512873480,11.8259054640063,46.3777910286468,33.19272,1906.8288,4.87955693632,3
2025-04-01T15:07:53.580,1743512873580,11.8259100510947,46.3777879227108,33.28416,1906.8288,4.87955693632,3
2025-04-01T15:07:53.690,1743512873690,11.8259146796312,46.3777846865958,33.28416,1906.8288,4.87955693632,3
2025-04-01T15:07:53.790,1743512873790,11.8259192758783,46.3777815710677,33.28416,1906.8288,4.87955693632,3
2025-04-01T15:07:53.890,1743512873890,11.8259238865724,46.3777784951414,33.28416,1906.8288,4.87955693632,3
2025-04-01T15:07:53.990,1743512873990,11.8259285380256,46.3777753986605,33.28416,1906.8288,4.87955693632,3
2025-04-01T15:07:54.090,1743512874090,11.8259332384452,46.3777723804242,33.28416,1906.8288,4.87955693632,3
2025-04-01T15:07:54.190,1743512874190,11.8259379060339,46.3777692947687,33.28416,1906.8288,4.87955693632,3
2025-04-01T15:07:54.250,1743512874250,11.8259428515637,46.3777660090486,33.28416,1906.8288,4.87955693632,3
2025-04-01T15:07:54.350,1743512874350,11.8259475113896,46.3777628828321,33.28416,1906.8288,4.87955693632,3
2025-04-01T15:07:54.450,1743512874450,11.8259521800594,46.3777597340055,33.28416,1906.8288,4.87955693632,3
2025-04-01T15:07:54.550,1743512874550,11.825956789107,46.3777565913453,33.28416,1906.8288,4.87955693632,3
2025-04-01T15:07:54.650,1743512874650,11.8259607759393,46.3777537127431,33.28416,1906.8288,4.80833407648,3
2025-04-01T15:07:54.750,1743512874750,11.8259652998337,46.3777505828268,33.28416,1906.8288,4.80833407648,3
2025-04-01T15:07:54.850,1743512874850,11.825970346298,46.3777472051591,33.28416,1906.8288,4.87955693632,3
2025-04-01T15:07:54.950,1743512874950,11.8259749325523,46.3777440396148,33.28416,1906.8288,4.94975562752,3
2025-04-01T15:07:55.050,1743512875050,11.8259790810777,46.3777410745463,33.28416,1906.8288,4.94975562752,3
2025-04-01T15:07:55.150,1743512875150,11.8259836472171,46.3777379328454,33.28416,1906.8288,4.94975562752,3
2025-04-01T15:07:55.250,1743512875250,11.8259882403993,46.3777348064918,33.3756,1907.1336,4.87955693632,3
2025-04-01T15:07:55.350,1743512875350,11.8259927757545,46.3777316972671,33.3756,1907.1336,4.80833407648,3
2025-04-01T15:07:55.450,1743512875450,11.8259972301718,46.3777286048972,33.3756,1907.1336,4.80833407648,3
2025-04-01T15:07:55.550,1743512875550,11.8260016514431,46.3777255134865,33.3756,1907.1336,4.80833407648,3
2025-04-01T15:07:55.650,1743512875650,11.8260061615197,46.3777223479422,33.3756,1907.1336,4.73815058464,3
2025-04-01T15:07:55.750,1743512875750,11.8260105367496,46.3777192513243,33.3756,1907.1336,4.73815058464,3
2025-04-01T15:07:55.850,1743512875850,11.8260152505844,46.3777160480966,33.3756,1907.1336,4.73815058464,3
2025-04-01T15:07:55.950,1743512875950,11.8260196833853,46.3777129480529,33.49752,1907.1336,4.73815058464,3
2025-04-01T15:07:56.050,1743512876050,11.826024045214,46.3777097657909,33.49752,1907.1336,4.80833407648,3
2025-04-01T15:07:56.150,1743512876150,11.8260285468768,46.3777066887684,33.49752,1907.1336,4.80833407648,3
2025-04-01T15:07:56.250,1743512876250,11.8260330557647,46.3777036131162,33.49752,1907.1336,4.73815058464,3
2025-04-01T15:07:56.350,1743512876350,11.8260376061286,46.3777005429452,33.49752,1907.1336,4.73815058464,3
2025-04-01T15:07:56.450,1743512876450,11.8260420277443,46.3776976336481,33.58896,1907.1336,4.87955693632,3
2025-04-01T15:07:56.550,1743512876550,11.8260465901439,46.3776945662178,33.58896,1907.1336,4.87955693632,3
2025-04-01T15:07:56.650,1743512876650,11.8260507937777,46.3776916597984,33.58896,1907.1336,4.87955693632,3
2025-04-01T15:07:56.750,1743512876750,11.8260553166503,46.3776885778428,33.58896,1907.1336,4.80833407648,3
2025-04-01T15:07:56.840,1743512876840,11.8260604301931,46.3776853081552,33.58896,1907.1336,4.80833407648,3
2025-04-01T15:07:56.950,1743512876950,11.8260649749396,46.377682165495,33.6804,1907.4384,4.87955693632,3
2025-04-01T15:07:57.050,1743512877050,11.8260695483755,46.3776789920029,33.6804,1907.4384,4.87955693632,3
2025-04-01T15:07:57.150,1743512877150,11.8260740716577,46.3776758063151,33.6804,1907.4384,4.87955693632,3
2025-04-01T15:07:57.250,1743512877250,11.8260780308239,46.3776728705712,33.6804,1907.4384,4.87955693632,3
2025-04-01T15:07:57.340,1743512877340,11.826082521109,46.3776696735098,33.6804,1907.4384,4.87955693632,3
2025-04-01T15:07:57.450,1743512877450,11.8260874439067,46.3776663786086,33.6804,1907.4384,4.94975562752,3
2025-04-01T15:07:57.550,1743512877550,11.8260920757516,46.3776631683924,33.6804,1907.4384,4.94975562752,3
2025-04-01T15:07:57.650,1743512877650,11.8260965266091,46.3776600195658,33.77184,1907.4384,5.02096418208,3
2025-04-01T15:07:57.750,1743512877750,11.8261011712034,46.3776567867395,33.77184,1907.4384,5.02096418208,3
2025-04-01T15:07:57.850,1743512877850,11.826106157438,46.3776533527522,33.77184,1907.4384,5.02096418208,3
2025-04-01T15:07:57.950,1743512877950,11.8261107957756,46.3776500955344,33.77184,1907.4384,5.02096418208,3
2025-04-01T15:07:58.060,1743512878060,11.8261148814306,46.3776471582831,33.77184,1907.4384,4.94975562752,3
2025-04-01T15:07:58.150,1743512878150,11.8261194473806,46.3776439638254,33.77184,1907.4384,4.94975562752,3
2025-04-01T15:07:58.250,1743512878250,11.8261241120612,46.3776405839652,33.77184,1907.4384,4.94975562752,3
2025-04-01T15:07:58.360,1743512878360,11.8261287147202,46.3776374045808,33.77184,1907.4384,4.94975562752,3
2025-04-01T15:07:58.450,1743512878450,11.8261337291848,46.3776340973469,33.89376,1907.4384,4.94975562752,3
2025-04-01T15:07:58.560,1743512878560,11.8261383932944,46.377630897682,33.89376,1907.4384,4.94975562752,3
2025-04-01T15:07:58.670,1743512878670,11.8261426397512,46.3776278242222,33.89376,1907.4384,4.94975562752,3
2025-04-01T15:07:58.770,1743512878770,11.8261472241488,46.3776246282572,33.89376,1907.4384,4.94975562752,3
2025-04-01T15:07:58.870,1743512878870,11.8261517542837,46.3776213374669,33.89376,1907.4384,4.94975562752,3
2025-04-01T15:07:58.970,1743512878970,11.826156347992,46.3776181302653,33.9852,1907.7432,4.94975562752,3
2025-04-01T15:07:59.070,1743512879070,11.8261610836821,46.3776149308744,33.9852,1907.7432,4.94975562752,3
2025-04-01T15:07:59.180,1743512879180,11.8261657285372,46.377611759986,33.9852,1907.7432,4.94975562752,3
2025-04-01T15:07:59.280,1743512879280,11.8261704172766,46.3776085056458,33.9852,1907.7432,4.94975562752,3
2025-04-01T15:07:59.380,1743512879380,11.8261750818579,46.3776053372239,34.07664,1907.7432,5.02096418208,3
2025-04-01T15:07:59.450,1743512879450,11.8261800270509,46.3776020562998,34.07664,1907.7432,4.94975562752,3
2025-04-01T15:07:59.580,1743512879580,11.826184716138,46.3775988656789,34.07664,1907.7432,4.94975562752,3
2025-04-01T15:07:59.690,1743512879690,11.8261891279899,46.37759582264,34.07664,1907.7432,5.02096418208,3
2025-04-01T15:07:59.790,1743512879790,11.8261938025522,46.3775926444889,34.07664,1907.7432,5.02096418208,3
2025-04-01T15:07:59.890,1743512879890,11.8261984388538,46.377589512243,34.07664,1907.7432,5.02096418208,3
2025-04-01T15:07:59.990,1743512879990,11.8262031320127,46.3775863457395,34.07664,1907.7432,5.02096418208,3
2025-04-01T15:08:00.050,1743512880050,11.8262077960229,46.3775831337419,34.07664,1907.7432,5.02096418208,3
2025-04-01T15:08:00.190,1743512880190,11.8262125144572,46.3775799761453,34.19856,1907.7432,5.02096418208,3
2025-04-01T15:08:00.250,1743512880250,11.8262174768316,46.3775767720954,34.19856,1907.7432,5.02096418208,3
2025-04-01T15:08:00.350,1743512880350,11.8262222503355,46.3775736138138,34.19856,1907.7432,5.02096418208,3
2025-04-01T15:08:00.450,1743512880450,11.8262268255839,46.3775705239104,34.19856,1907.7432,5.02096418208,3
2025-04-01T15:08:00.550,1743512880550,11.8262315911427,46.377567362614,34.19856,1907.7432,5.02096418208,3
2025-04-01T15:08:00.650,1743512880650,11.8262365552551,46.3775642052916,34.19856,1907.7432,5.02096418208,3
2025-04-01T15:08:00.750,1743512880750,11.8262413398822,46.3775610442693,34.19856,1907.7432,5.02096418208,3
2025-04-01T15:08:00.950,1743512880950,11.8262513574648,46.3775543015408,34.19856,1907.7432,5.02096418208,3
2025-04-01T15:08:01.050,1743512881050,11.8262556958492,46.3775514896725,34.19856,1907.7432,4.95177535424,3
2025-04-01T15:08:01.150,1743512881150,11.8262603933531,46.3775483450939,34.19856,1907.7432,4.95177535424,3
2025-04-01T15:08:01.250,1743512881250,11.826265131253,46.3775452146294,34.19856,1907.7432,4.95177535424,3
2025-04-01T15:08:01.350,1743512881350,11.826269811228,46.3775420832058,34.29,1908.048,4.95177535424,3
2025-04-01T15:08:01.450,1743512881450,11.8262743622437,46.3775390017983,34.29,1908.048,4.87955693632,3
2025-04-01T15:08:01.550,1743512881550,11.8262789998612,46.3775358873664,34.29,1908.048,4.87955693632,3
2025-04-01T15:08:01.650,1743512881650,11.8262838017938,46.3775327644386,34.29,1908.048,4.94975562752,3
2025-04-01T15:08:01.750,1743512881750,11.8262884065384,46.377529628767,34.29,1908.048,4.94975562752,3
2025-04-01T15:08:01.850,1743512881850,11.8262929134836,46.3775264280058,34.29,1908.048,4.94975562752,3
2025-04-01T15:08:01.950,1743512881950,11.8262974536989,46.3775232786311,34.29,1908.048,4.87955693632,3
2025-04-01T15:08:02.050,1743512882050,11.8263022423731,46.377519898771,34.29,1908.048,4.87955693632,3
2025-04-01T15:08:02.150,1743512882150,11.8263067941088,46.3775167148646,34.29,1908.048,4.87955693632,3
2025-04-01T15:08:02.250,1743512882250,11.8263108863929,46.377513628661,34.29,1908.048,4.94975562752,3
2025-04-01T15:08:02.350,1743512882350,11.8263154792198,46.3775104628427,34.29,1908.048,4.94975562752,3
2025-04-01T15:08:02.450,1743512882450,11.8263202402598,46.3775073884237,34.29,1908.048,4.87955693632,3
2025-04-01T15:08:02.550,1743512882550,11.826324927435,46.3775042602888,34.29,1908.048,4.95177535424,3
2025-04-01T15:08:02.650,1743512882650,11.8263296275707,46.3775011979286,34.29,1908.048,4.95177535424,3
2025-04-01T15:08:02.750,1743512882750,11.8263343426035,46.377498071438,34.38144,1908.048,4.95177535424,3
2025-04-01T15:08:02.850,1743512882850,11.8263389245804,46.3774949337109,34.38144,1908.048,5.02096418208,3
2025-04-01T15:08:02.950,1743512882950,11.8263435689016,46.3774917689888,34.38144,1908.048,4.94975562752,3
2025-04-01T15:08:03.040,1743512883040,11.8263483380358,46.3774884749098,34.38144,1908.048,4.94975562752,3
2025-04-01T15:08:03.150,1743512883150,11.8263529012672,46.3774852397539,34.47288,1908.048,5.02096418208,3
2025-04-01T15:08:03.250,1743512883250,11.8263573000345,46.3774819048398,34.47288,1908.048,5.02096418208,3
2025-04-01T15:08:03.350,1743512883350,11.8263618436761,46.3774786541995,34.47288,1908.048,5.02096418208,3
2025-04-01T15:08:03.450,1743512883450,11.8263663785781,46.3774754106848,34.47288,1908.048,5.02096418208,3
2025-04-01T15:08:03.550,1743512883550,11.826370921748,46.3774721963576,34.47288,1908.048,4.94975562752,3
2025-04-01T15:08:03.650,1743512883650,11.8263756391147,46.3774690353353,34.5948,1908.3528,4.94975562752,3
2025-04-01T15:08:03.750,1743512883750,11.8263802220101,46.3774658533473,34.5948,1908.3528,4.94975562752,3
2025-04-01T15:08:03.850,1743512883850,11.8263851554345,46.3774625395359,34.5948,1908.3528,4.94975562752,3
2025-04-01T15:08:03.950,1743512883950,11.8263897936975,46.3774593554925,34.5948,1908.3528,4.94975562752,3
2025-04-01T15:08:04.050,1743512884050,11.8263944324076,46.3774560677169,34.5948,1908.3528,4.94975562752,3
2025-04-01T15:08:04.150,1743512884150,11.8263990381453,46.3774528565414,34.5948,1908.3528,4.94975562752,3
2025-04-01T15:08:04.260,1743512884260,11.8264034117365,46.3774496285111,34.5948,1908.3528,4.94975562752,3
2025-04-01T15:08:04.360,1743512884360,11.8264080129554,46.3774464192541,34.68624,1908.3528,4.94975562752,3
2025-04-01T15:08:04.450,1743512884450,11.8264127803763,46.3774432171226,34.68624,1908.3528,4.94975562752,3
2025-04-01T15:08:04.560,1743512884560,11.8264174521578,46.3774400371901,34.68624,1908.3528,4.94975562752,3
2025-04-01T15:08:04.650,1743512884650,11.8264219835093,46.3774369152216,34.68624,1908.3528,4.87955693632,3
2025-04-01T15:08:04.770,1743512884770,11.8264266574758,46.3774337425517,34.68624,1908.3528,4.87955693632,3
2025-04-01T15:08:04.870,1743512884870,11.8264314186896,46.3774306929353,34.68624,1908.3528,5.02096418208,3
2025-04-01T15:08:04.970,1743512884970,11.8264361226986,46.3774274994367,34.68624,1908.3528,5.02096418208,3
2025-04-01T15:08:05.070,1743512885070,11.8264402233251,46.3774247651278,34.68624,1908.3528,5.02096418208,3
2025-04-01T15:08:05.180,1743512885180,11.826444912139,46.3774215773845,34.68624,1908.3528,5.02096418208,3
2025-04-01T15:08:05.280,1743512885280,11.8264501649076,46.3774179489508,34.68624,1908.3528,5.09117717856,3
2025-04-01T15:08:05.380,1743512885380,11.8264549411675,46.3774147168096,34.68624,1908.3528,5.09117717856,3
2025-04-01T15:08:05.480,1743512885480,11.8264600485404,46.3774112889887,34.68624,1908.3528,5.02096418208,3
2025-04-01T15:08:05.580,1743512885580,11.8264648449114,46.3774080487628,34.68624,1908.3528,5.02096418208,3
2025-04-01T15:08:05.680,1743512885680,11.8264691741589,46.3774049754401,34.68624,1908.3528,5.02096418208,3
2025-04-01T15:08:05.790,1743512885790,11.8264739023012,46.3774017996185,34.68624,1908.3528,5.02096418208,3
2025-04-01T15:08:05.890,1743512885890,11.8264785353503,46.3773987591832,34.68624,1908.3528,4.94975562752,3
2025-04-01T15:08:05.990,1743512885990,11.8264831737127,46.3773956463957,34.77768,1908.3528,4.87955693632,3
2025-04-01T15:08:06.090,1743512886090,11.8264883335731,46.3773921491003,34.77768,1908.3528,4.87955693632,3
2025-04-01T15:08:06.190,1743512886190,11.8264930126046,46.3773890337092,34.77768,1908.3528,4.87955693632,3
2025-04-01T15:08:06.290,1743512886290,11.8264976135752,46.3773859947812,34.77768,1908.3528,4.87955693632,3
2025-04-01T15:08:06.350,1743512886350,11.8265023225995,46.377382905974,34.77768,1908.3528,4.95177535424,3
2025-04-01T15:08:06.450,1743512886450,11.8265071315337,46.3773797565994,34.77768,1908.3528,4.95177535424,3
2025-04-01T15:08:06.550,1743512886550,11.8265118548593,46.3773766861543,34.77768,1908.3528,4.95177535424,3
2025-04-01T15:08:06.650,1743512886650,11.8265160513736,46.3773739021033,34.77768,1908.3528,4.81041325952,3
2025-04-01T15:08:06.750,1743512886750,11.8265206444985,46.3773708772894,34.77768,1908.3528,4.81041325952,3
2025-04-01T15:08:06.850,1743512886850,11.8265256044894,46.3773676276084,34.8996,1908.6576,4.81041325952,3
2025-04-01T15:08:06.950,1743512886950,11.8265301691111,46.3773645831991,34.8996,1908.6576,4.73815058464,3
2025-04-01T15:08:07.050,1743512887050,11.8265346307442,46.3773616659543,34.8996,1908.6576,4.73815058464,3
2025-04-01T15:08:07.150,1743512887150,11.8265391959618,46.3773586259301,34.8996,1908.6576,4.73815058464,3
2025-04-01T15:08:07.250,1743512887250,11.8265436554596,46.3773555497297,34.8996,1908.6576,4.81041325952,3
2025-04-01T15:08:07.350,1743512887350,11.8265482436187,46.3773524888768,34.8996,1908.6576,4.87955693632,3
2025-04-01T15:08:07.450,1743512887450,11.8265529832814,46.37734956711,34.8996,1908.6576,4.87955693632,3
2025-04-01T15:08:07.550,1743512887550,11.8265575680142,46.3773464888542,34.8996,1908.6576,4.87955693632,3
2025-04-01T15:08:07.650,1743512887650,11.8265616787212,46.3773435961379,34.8996,1908.6576,4.80833407648,3
2025-04-01T15:08:07.750,1743512887750,11.8265661795833,46.3773405406292,34.8996,1908.6576,4.80833407648,3
2025-04-01T15:08:07.850,1743512887850,11.8265711418584,46.3773372320249,34.8996,1908.6576,4.80833407648,3
2025-04-01T15:08:07.950,1743512887950,11.8265756825951,46.3773341429437,34.8996,1908.6576,4.80833407648,3
2025-04-01T15:08:08.050,1743512888050,11.8265798597431,46.3773311119635,34.8996,1908.6576,4.87955693632,3
2025-04-01T15:08:08.150,1743512888150,11.8265844268476,46.3773280020536,34.8996,1908.6576,4.87955693632,3
2025-04-01T15:08:08.250,1743512888250,11.8265891582176,46.3773249754583,34.8996,1908.6576,4.87955693632,3
2025-04-01T15:08:08.350,1743512888350,11.8265938012477,46.3773218611635,34.8996,1908.6576,4.87955693632,3
2025-04-01T15:08:08.450,1743512888450,11.8265984949279,46.377318542419,34.8996,1908.6576,4.95177535424,3
2025-04-01T15:08:08.550,1743512888550,11.826603182699,46.3773153953738,34.8996,1908.6576,5.02096418208,3
2025-04-01T15:08:08.650,1743512888650,11.8266080181501,46.377312303552,34.8996,1908.6576,5.02096418208,3
2025-04-01T15:08:08.750,1743512888750,11.826612718832,46.3773091511626,34.99104,1908.6576,5.02096418208,3
2025-04-01T15:08:08.850,1743512888850,11.8266173297838,46.3773059266952,34.99104,1908.6576,5.02096418208,3
2025-04-01T15:08:08.950,1743512888950,11.8266219891511,46.3773027696468,34.99104,1908.6576,4.87955693632,3
2025-04-01T15:08:09.050,1743512889050,11.8266266537324,46.3772996097207,34.99104,1908.6576,4.87955693632,3
2025-04-01T15:08:09.150,1743512889150,11.8266313160294,46.3772964455468,34.99104,1908.6576,4.94975562752,3
2025-04-01T15:08:09.250,1743512889250,11.8266360521168,46.3772931405053,34.99104,1908.6576,5.02096418208,3
2025-04-01T15:08:09.350,1743512889350,11.8266407518056,46.3772899352221,34.99104,1908.6576,5.02096418208,3
2025-04-01T15:08:09.450,1743512889450,11.8266454184725,46.377286792699,34.99104,1908.6576,5.02096418208,3
2025-04-01T15:08:09.550,1743512889550,11.8266501085278,46.3772835907045,34.99104,1908.6576,5.02096418208,3
2025-04-01T15:08:09.650,1743512889650,11.8266549869819,46.3772803111507,34.8996,1908.6576,4.94975562752,3
2025-04-01T15:08:09.750,1743512889750,11.8266596396952,46.3772771025788,34.8996,1908.6576,4.94975562752,3
2025-04-01T15:08:09.850,1743512889850,11.8266645804192,46.3772735088139,34.8996,1908.6576,4.94975562752,3
2025-04-01T15:08:09.950,1743512889950,11.8266692035866,46.3772702836613,34.8996,1908.6576,4.94975562752,3
2025-04-01T15:08:10.050,1743512890050,11.8266734013423,46.3772674463053,34.8996,1908.6576,4.94975562752,3
2025-04-01T15:08:10.150,1743512890150,11.826677945406,46.3772642836386,34.8996,1908.6576,4.87955693632,3
2025-04-01T15:08:10.250,1743512890250,11.8266824041093,46.3772611661921,34.8996,1908.6576,4.80833407648,3
2025-04-01T15:08:10.350,1743512890350,11.8266869459881,46.3772580498418,34.8996,1908.6576,4.80833407648,3
2025-04-01T15:08:10.460,1743512890460,11.8266916112646,46.3772548801866,34.8996,1908.6576,4.80833407648,3
2025-04-01T15:08:10.560,1743512890560,11.8266961861653,46.3772517794578,34.8996,1908.6576,4.87955693632,3
2025-04-01T15:08:10.660,1743512890660,11.8267006370228,46.3772485452612,34.8996,1908.6576,4.87955693632,3
2025-04-01T15:08:10.770,1743512890770,11.8267052234439,46.3772454213742,34.99104,1908.6576,4.87955693632,3
2025-04-01T15:08:10.870,1743512890870,11.8267098192502,46.3772420489137,34.8996,1908.6576,4.87955693632,3
2025-04-01T15:08:10.970,1743512890970,11.8267144343234,46.3772389144753,34.99104,1908.6576,4.87955693632,3
2025-04-01T15:08:11.070,1743512891070,11.8267190113594,46.3772359030905,34.99104,1908.6576,4.87955693632,3
2025-04-01T15:08:11.170,1743512891170,11.8267236550847,46.3772328096243,34.99104,1908.6576,4.81041325952,3
2025-04-01T15:08:11.270,1743512891270,11.8267283393798,46.3772296686085,34.99104,1908.6576,4.81041325952,3
2025-04-01T15:08:11.370,1743512891370,11.8267330236253,46.3772265899416,34.99104,1908.6576,4.88365405792,3
2025-04-01T15:08:11.480,1743512891480,11.8267376374074,46.3772235859564,34.99104,1908.6576,4.88365405792,3
2025-04-01T15:08:11.580,1743512891580,11.8267423151478,46.3772205230481,34.99104,1908.6576,4.81041325952,3
2025-04-01T15:08:11.680,1743512891680,11.826746973522,46.3772174194416,34.99104,1908.6576,4.81041325952,3
2025-04-01T15:08:11.780,1743512891780,11.8267516340314,46.377214333101,34.99104,1908.6576,4.81041325952,3
2025-04-01T15:08:11.880,1743512891880,11.8267567079355,46.3772109070615,34.99104,1908.6576,4.87955693632,3
2025-04-01T15:08:11.990,1743512891990,11.8267613910885,46.3772077649494,34.99104,1908.6576,4.87955693632,3
2025-04-01T15:08:12.090,1743512892090,11.8267658884747,46.3772046329776,34.99104,1908.6576,4.87955693632,3
2025-04-01T15:08:12.150,1743512892150,11.826770520332,46.3772014996355,34.99104,1908.6576,4.87955693632,3
2025-04-01T15:08:12.290,1743512892290,11.8267746842216,46.3771987199695,34.8996,1908.6576,4.87955693632,3
2025-04-01T15:08:12.390,1743512892390,11.8267792464598,46.3771956421248,34.99104,1908.6576,4.87955693632,3
2025-04-01T15:08:12.490,1743512892490,11.8267841068387,46.3771922218406,34.8996,1908.6576,4.87955693632,3
2025-04-01T15:08:12.550,1743512892550,11.8267887256362,46.3771890878133,34.99104,1908.6576,4.87955693632,3
2025-04-01T15:08:12.650,1743512892650,11.8267930169953,46.3771863733738,34.8996,1908.6576,4.87955693632,3
2025-04-01T15:08:12.750,1743512892750,11.8267976384247,46.3771832508571,34.99104,1908.6576,4.87955693632,3
2025-04-01T15:08:12.850,1743512892850,11.8268027062209,46.3771796809355,34.99104,1908.6576,4.87955693632,3
2025-04-01T15:08:12.950,1743512892950,11.826807361268,46.3771764971661,34.99104,1908.6576,4.87955693632,3
2025-04-01T15:08:13.050,1743512893050,11.8268120408458,46.3771734364502,34.99104,1908.6576,4.94975562752,3
2025-04-01T15:08:13.150,1743512893150,11.8268166804993,46.3771702445961,34.99104,1908.6576,4.94975562752,3
2025-04-01T15:08:13.250,1743512893250,11.8268207710455,46.3771673018636,34.99104,1908.6576,4.94975562752,3
2025-04-01T15:08:13.350,1743512893350,11.826825347138,46.3771641268642,34.99104,1908.6576,4.94975562752,3
2025-04-01T15:08:13.450,1743512893450,11.8268300626673,46.377160971049,34.8996,1908.6576,4.94975562752,3
2025-04-01T15:08:13.550,1743512893550,11.8268346784854,46.3771577981051,34.8996,1908.6576,4.94975562752,3
2025-04-01T15:08:13.650,1743512893650,11.8268394840926,46.3771545219771,34.8996,1908.6576,4.94975562752,3
2025-04-01T15:08:13.750,1743512893750,11.8268441462903,46.3771513280674,34.8996,1908.6576,4.94975562752,3
2025-04-01T15:08:13.850,1743512893850,11.8268487698549,46.3771480804418,34.8996,1908.6576,4.94975562752,3
2025-04-01T15:08:13.950,1743512893950,11.8268534045427,46.3771448669368,34.8996,1908.6576,4.94975562752,3
2025-04-01T15:08:14.050,1743512894050,11.8268581923727,46.3771416101301,34.8996,1908.6576,4.94975562752,3
2025-04-01T15:08:14.150,1743512894150,11.8268628092833,46.3771384053951,34.8996,1908.6576,4.94975562752,3
2025-04-01T15:08:14.250,1743512894250,11.8268675320626,46.3771352134039,34.8996,1908.6576,4.94975562752,3
2025-04-01T15:08:14.350,1743512894350,11.8268721641682,46.3771320252495,34.8996,1908.6576,4.94975562752,3
2025-04-01T15:08:14.450,1743512894450,11.8268766718333,46.3771288939629,34.8996,1908.6576,4.94975562752,3
2025-04-01T15:08:14.550,1743512894550,11.8268812921206,46.377125707864,34.99104,1908.6576,4.94975562752,3
2025-04-01T15:08:14.650,1743512894650,11.8268859987117,46.3771225039511,34.8996,1908.6576,4.94975562752,3
2025-04-01T15:08:14.750,1743512894750,11.8268906071806,46.3771192941459,34.99104,1908.6576,4.94975562752,3
2025-04-01T15:08:14.850,1743512894850,11.8268952729536,46.3771159848565,34.99104,1908.6576,4.94975562752,3
2025-04-01T15:08:14.950,1743512894950,11.8268998826143,46.3771127560041,34.99104,1908.6576,4.94975562752,3
2025-04-01T15:08:15.050,1743512895050,11.826904764296,46.3771092810447,34.99104,1908.6576,4.94975562752,3
2025-04-01T15:08:15.150,1743512895150,11.8269093849805,46.3771060371189,34.99104,1908.6576,4.94975562752,3
2025-04-01T15:08:15.240,1743512895240,11.8269135411733,46.3771032037368,34.99104,1908.6576,4.94975562752,3
2025-04-01T15:08:15.350,1743512895350,11.8269181181596,46.3771000158565,34.99104,1908.6576,4.94975562752,3
2025-04-01T15:08:15.450,1743512895450,11.8269225225381,46.3770969787099,34.99104,1908.6576,4.94975562752,3
2025-04-01T15:08:15.550,1743512895550,11.8269271058805,46.3770938198801,34.99104,1908.6576,4.94975562752,3
2025-04-01T15:08:15.650,1743512895650,11.8269320302672,46.3770904115176,34.99104,1908.6576,4.94975562752,3
2025-04-01T15:08:15.750,1743512895750,11.8269367045813,46.3770872328183,34.99104,1908.6576,4.94975562752,3
2025-04-01T15:08:15.850,1743512895850,11.8269414135559,46.3770840508304,34.99104,1908.6576,4.94975562752,3
2025-04-01T15:08:15.950,1743512895950,11.8269460946234,46.377080885012,34.99104,1908.6576,4.94975562752,3
2025-04-01T15:08:16.050,1743512896050,11.8269508014131,46.3770776717811,34.99104,1908.6576,4.94975562752,3
2025-04-01T15:08:16.150,1743512896150,11.8269554622205,46.3770744918486,34.99104,1908.6576,4.94975562752,3
2025-04-01T15:08:16.260,1743512896260,11.826959994019,46.3770713605619,34.99104,1908.6576,4.94975562752,3
2025-04-01T15:08:16.360,1743512896360,11.8269646025872,46.3770681614451,34.99104,1908.6576,4.94975562752,3
2025-04-01T15:08:16.460,1743512896460,11.8269693012332,46.3770649804164,34.99104,1908.6576,4.94975562752,3
2025-04-01T15:08:16.550,1743512896550,11.8269738954008,46.3770617844513,35.08248,1908.6576,4.94975562752,3
2025-04-01T15:08:16.650,1743512896650,11.8269783503302,46.377058668238,35.08248,1908.6576,4.94975562752,3
2025-04-01T15:08:16.760,1743512896760,11.8269829297994,46.3770554913202,35.08248,1908.6576,4.94975562752,3
2025-04-01T15:08:16.850,1743512896850,11.8269875221794,46.3770522937107,35.08248,1908.6576,4.94975562752,3
2025-04-01T15:08:16.970,1743512896970,11.8269921102888,46.3770491163818,35.08248,1908.6576,4.94975562752,3
2025-04-01T15:08:17.050,1743512897050,11.8269964308463,46.3770461704976,35.08248,1908.6576,4.94975562752,3
2025-04-01T15:08:17.150,1743512897150,11.8270009994903,46.3770430211229,35.08248,1908.6576,4.94975562752,3
2025-04-01T15:08:17.270,1743512897270,11.827005665164,46.3770397776082,35.08248,1908.6576,4.94975562752,3
2025-04-01T15:08:17.380,1743512897380,11.827010206298,46.3770366283705,35.08248,1908.6576,4.94975562752,3
2025-04-01T15:08:17.450,1743512897450,11.8270151353526,46.3770332401515,35.08248,1908.6576,4.87955693632,3
2025-04-01T15:08:17.580,1743512897580,11.8270196732092,46.3770300644669,35.08248,1908.6576,4.87955693632,3
2025-04-01T15:08:17.680,1743512897680,11.8270245570759,46.3770266751516,35.08248,1908.6576,4.87955693632,3
2025-04-01T15:08:17.780,1743512897780,11.8270290975146,46.3770234782274,35.17392,1908.9624,4.80833407648,3
2025-04-01T15:08:17.890,1743512897890,11.8270331547907,46.3770204946597,35.17392,1908.9624,4.80833407648,3
2025-04-01T15:08:17.990,1743512897990,11.8270376452745,46.3770173252786,35.17392,1908.9624,4.80833407648,3
2025-04-01T15:08:18.090,1743512898090,11.8270424337996,46.3770140216074,35.17392,1908.9624,4.80833407648,3
2025-04-01T15:08:18.190,1743512898190,11.8270469900293,46.37701085113,35.17392,1908.9624,4.80833407648,3
2025-04-01T15:08:18.250,1743512898250,11.8270511606226,46.3770078874318,35.17392,1908.9624,4.80833407648,3
2025-04-01T15:08:18.350,1743512898350,11.8270556965922,46.3770047338092,35.17392,1908.9624,4.80833407648,3
2025-04-01T15:08:18.450,1743512898450,11.8270605955546,46.3770013749147,35.17392,1908.9624,4.80833407648,3
2025-04-01T15:08:18.550,1743512898550,11.8270651753217,46.3769981974488,35.17392,1908.9624,4.80833407648,3
2025-04-01T15:08:18.650,1743512898650,11.8270692439194,46.3769953180244,35.17392,1908.9624,4.87955693632,3
2025-04-01T15:08:18.750,1743512898750,11.8270737997519,46.3769921750901,35.17392,1908.9624,4.87955693632,3
2025-04-01T15:08:18.850,1743512898850,11.8270787756826,46.3769886576512,35.17392,1908.9624,4.87955693632,3
2025-04-01T15:08:18.950,1743512898950,11.8270833889185,46.376985474704,35.17392,1908.9624,4.87955693632,3
2025-04-01T15:08:19.050,1743512899050,11.8270875785801,46.3769827704048,35.17392,1908.9624,4.87955693632,3
2025-04-01T15:08:19.150,1743512899150,11.8270921585459,46.3769796210301,35.17392,1908.9624,4.87955693632,3
2025-04-01T15:08:19.250,1743512899250,11.827096847757,46.376976424928,35.17392,1908.9624,4.94975562752,3
2025-04-01T15:08:19.350,1743512899350,11.8271014576162,46.3769732626724,35.17392,1908.9624,4.94975562752,3
2025-04-01T15:08:19.450,1743512899450,11.8271061288515,46.376970087399,35.17392,1908.9624,4.94975562752,3
2025-04-01T15:08:19.550,1743512899550,11.8271107920424,46.3769669181548,35.17392,1908.9624,4.94975562752,3
2025-04-01T15:08:19.650,1743512899650,11.8271154797638,46.3769636014658,35.17392,1908.9624,5.02096418208,3
2025-04-01T15:08:19.750,1743512899750,11.8271201478211,46.3769604145447,35.17392,1908.9624,4.94975562752,3
2025-04-01T15:08:19.850,1743512899850,11.8271249972259,46.3769573128567,35.17392,1908.9624,4.94975562752,3
2025-04-01T15:08:19.950,1743512899950,11.8271296327082,46.3769541315539,35.17392,1908.9624,4.94975562752,3
2025-04-01T15:08:20.050,1743512900050,11.8271341198154,46.3769508677586,35.17392,1908.9624,4.94975562752,3
2025-04-01T15:08:20.150,1743512900150,11.8271386842881,46.3769476778229,35.17392,1908.9624,4.94975562752,3
2025-04-01T15:08:20.250,1743512900250,11.8271435700418,46.3769441713464,35.17392,1908.9624,4.94975562752,3
2025-04-01T15:08:20.350,1743512900350,11.8271481470281,46.3769409422199,35.17392,1908.9624,4.87955693632,3
2025-04-01T15:08:20.450,1743512900450,11.8271522784917,46.3769379838659,35.17392,1908.9624,4.87955693632,3
2025-04-01T15:08:20.550,1743512900550,11.8271567886397,46.3769347609058,35.29584,1908.9624,4.87955693632,3
2025-04-01T15:08:20.650,1743512900650,11.8271612740585,46.3769313598059,35.17392,1908.9624,4.87955693632,3
2025-04-01T15:08:20.750,1743512900750,11.827165752724,46.3769281054657,35.17392,1908.9624,4.95177535424,3
2025-04-01T15:08:20.850,1743512900850,11.8271702899847,46.376924758904,35.17392,1908.9624,4.95177535424,3
2025-04-01T15:08:20.950,1743512900950,11.8271747775883,46.3769215071674,35.17392,1908.9624,4.95177535424,3
2025-04-01T15:08:21.050,1743512901050,11.827179281976,46.3769182706413,35.17392,1908.9624,4.87955693632,3
2025-04-01T15:08:21.150,1743512901150,11.8271838298633,46.3769150498736,35.17392,1908.9624,4.94975562752,3
2025-04-01T15:08:21.250,1743512901250,11.827188449058,46.3769117601796,35.17392,1908.9624,4.94975562752,3
2025-04-01T15:08:21.350,1743512901350,11.8271930207807,46.376908553115,35.17392,1908.9624,4.94975562752,3
2025-04-01T15:08:21.450,1743512901450,11.8271976826805,46.3769053783897,35.17392,1908.9624,4.94975562752,3
2025-04-01T15:08:21.550,1743512901550,11.8272022311638,46.3769021965388,35.29584,1908.9624,4.87955693632,3
2025-04-01T15:08:21.650,1743512901650,11.8272067060553,46.3768989191775,35.17392,1908.9624,4.87955693632,3
2025-04-01T15:08:21.750,1743512901750,11.8272112277237,46.3768957588404,35.29584,1908.9624,4.87955693632,3
2025-04-01T15:08:21.850,1743512901850,11.8272158628087,46.3768927965125,35.29584,1908.9624,4.87955693632,3
2025-04-01T15:08:21.950,1743512901950,11.8272204070213,46.3768897012649,35.29584,1908.9624,4.80833407648,3
2025-04-01T15:08:22.050,1743512902050,11.8272249867884,46.3768865845035,35.29584,1908.9624,4.87955693632,3
2025-04-01T15:08:22.150,1743512902150,11.8272295670521,46.3768835336539,35.29584,1908.9624,4.87955693632,3
2025-04-01T15:08:22.260,1743512902260,11.8272341975686,46.3768804425172,35.29584,1908.9624,4.81041325952,3
2025-04-01T15:08:22.360,1743512902360,11.8272387906438,46.3768773720722,35.29584,1908.9624,4.87955693632,3
2025-04-01T15:08:22.460,1743512902460,11.8272433259183,46.3768743376662,35.29584,1908.9624,4.87955693632,3
2025-04-01T15:08:22.550,1743512902550,11.827247905884,46.3768712555735,35.29584,1908.9624,4.87955693632,3
2025-04-01T15:08:22.650,1743512902650,11.8272525509004,46.3768681574483,35.29584,1908.9624,4.87955693632,3
2025-04-01T15:08:22.770,1743512902770,11.827257160561,46.3768650846737,35.29584,1908.9624,4.87955693632,3
2025-04-01T15:08:22.850,1743512902850,11.8272620167191,46.3768618371851,35.29584,1908.9624,4.87955693632,3
2025-04-01T15:08:22.970,1743512902970,11.8272666500164,46.37685872152,35.29584,1908.9624,4.87955693632,3
2025-04-01T15:08:23.080,1743512903080,11.8272708879447,46.3768558198967,35.29584,1908.9624,4.87955693632,3
2025-04-01T15:08:23.180,1743512903180,11.8272754852904,46.3768527212233,35.29584,1908.9624,4.87955693632,3
2025-04-01T15:08:23.280,1743512903280,11.8272802316071,46.3768497273784,35.29584,1908.9624,4.87955693632,3
2025-04-01T15:08:23.380,1743512903380,11.827284873644,46.3768466828321,35.29584,1908.9624,4.81041325952,3
2025-04-01T15:08:23.480,1743512903480,11.8272895118077,46.3768436846022,35.29584,1908.9624,4.81041325952,3
2025-04-01T15:08:23.580,1743512903580,11.8272941955566,46.3768406693805,35.29584,1908.9624,4.88365405792,3
2025-04-01T15:08:23.680,1743512903680,11.8272989774278,46.376837766661,35.29584,1908.9624,4.88365405792,3
2025-04-01T15:08:23.790,1743512903790,11.8273036613753,46.37683476802,35.29584,1908.9624,4.88365405792,3
2025-04-01T15:08:23.890,1743512903890,11.8273087975989,46.376831478463,35.29584,1908.9624,4.88365405792,3
2025-04-01T15:08:23.990,1743512903990,11.827313521272,46.3768284592674,35.29584,1908.9624,4.81041325952,3
2025-04-01T15:08:24.090,1743512904090,11.8273181649974,46.3768253953998,35.29584,1908.9624,4.81041325952,3
2025-04-01T15:08:24.190,1743512904190,11.8273228682119,46.3768223744228,35.29584,1908.9624,4.81041325952,3
2025-04-01T15:08:24.250,1743512904250,11.8273273531341,46.3768194610148,35.29584,1908.9624,4.81041325952,3
2025-04-01T15:08:24.350,1743512904350,11.8273320421466,46.3768164499041,35.29584,1908.9624,4.81041325952,3
2025-04-01T15:08:24.450,1743512904450,11.8273367527103,46.3768134655142,35.29584,1908.9624,4.81041325952,3
2025-04-01T15:08:24.550,1743512904550,11.8273414536405,46.376810434671,35.29584,1908.9624,4.81041325952,3
2025-04-01T15:08:24.650,1743512904650,11.8273456860072,46.3768076199251,35.29584,1908.9624,4.81041325952,3
2025-04-01T15:08:24.750,1743512904750,11.8273503240716,46.3768045637312,35.29584,1908.9624,4.81041325952,3
2025-04-01T15:08:24.850,1743512904850,11.8273552886806,46.3768012322429,35.29584,1908.9624,4.87955693632,3
2025-04-01T15:08:24.950,1743512904950,11.8273599792821,46.3767981258958,35.29584,1908.9624,4.87955693632,3
2025-04-01T15:08:25.050,1743512905050,11.8273647440712,46.376795034074,35.17392,1908.9624,4.95177535424,3
2025-04-01T15:08:25.150,1743512905150,11.8273694614876,46.3767919105981,35.29584,1908.9624,4.95177535424,3
2025-04-01T15:08:25.250,1743512905250,11.8273737311963,46.3767890258295,35.29584,1908.9624,4.95177535424,3
2025-04-01T15:08:25.350,1743512905350,11.8273784244793,46.3767859582621,35.29584,1908.9624,4.95177535424,3
2025-04-01T15:08:25.450,1743512905450,11.8273837444338,46.3767826708976,35.29584,1908.9624,4.88365405792,3
2025-04-01T15:08:25.550,1743512905550,11.8273885299795,46.3767796374509,35.29584,1908.9624,4.88365405792,3
2025-04-01T15:08:25.650,1743512905650,11.8273930206619,46.3767767461048,35.29584,1908.9624,4.88365405792,3
2025-04-01T15:08:25.750,1743512905750,11.8273978095843,46.3767737041622,35.29584,1908.9624,4.88365405792,3
2025-04-01T15:08:25.850,1743512905850,11.8274026497528,46.3767706530384,35.29584,1908.9624,5.02494596736,3
2025-04-01T15:08:25.950,1743512905950,11.8274074539696,46.3767675972556,35.29584,1908.9624,5.02494596736,3
2025-04-01T15:08:26.050,1743512906050,11.8274119886482,46.3767647020728,35.29584,1908.9624,5.02494596736,3
2025-04-01T15:08:26.150,1743512906150,11.8274167783651,46.3767616699963,35.29584,1908.9624,5.02494596736,3
2025-04-01T15:08:26.250,1743512906250,11.8274223945734,46.3767581344693,35.17392,1908.9624,5.02494596736,3
2025-04-01T15:08:26.350,1743512906350,11.8274273058507,46.3767550577209,35.17392,1908.9624,5.02494596736,3
2025-04-01T15:08:26.450,1743512906450,11.8274322527817,46.3767520768938,35.17392,1908.9624,5.02494596736,3
2025-04-01T15:08:26.550,1743512906550,11.8274372125242,46.3767489860312,35.17392,1908.9624,5.02494596736,3
2025-04-01T15:08:26.650,1743512906650,11.8274415673451,46.3767461959508,35.17392,1908.9624,5.02494596736,3
2025-04-01T15:08:26.750,1743512906750,11.8274464922284,46.3767431187913,35.17392,1908.9624,5.099027648,3
2025-04-01T15:08:26.840,1743512906840,11.8274516480168,46.3767398981607,35.17392,1908.9624,5.099027648,3
2025-04-01T15:08:26.950,1743512906950,11.8274566350707,46.3767367809882,35.17392,1908.9624,5.099027648,3
2025-04-01T15:08:27.050,1743512907050,11.8274619209605,46.3767335155486,35.08248,1908.6576,5.099027648,3
2025-04-01T15:08:27.150,1743512907150,11.8274669699864,46.3767303817954,35.08248,1908.6576,5.099027648,3
2025-04-01T15:08:27.250,1743512907250,11.8274716832316,46.3767274060385,35.08248,1908.6576,5.099027648,3
2025-04-01T15:08:27.350,1743512907350,11.827476686871,46.376724328742,35.08248,1908.6576,5.099027648,3
2025-04-01T15:08:27.450,1743512907450,11.8274820761468,46.3767211359286,35.08248,1908.6576,5.099027648,3
2025-04-01T15:08:27.550,1743512907550,11.827487112957,46.3767180723351,35.08248,1908.6576,5.03290015008,3
2025-04-01T15:08:27.660,1743512907660,11.827491779326,46.3767153139087,35.08248,1908.6576,5.03290015008,3
2025-04-01T15:08:27.750,1743512907750,11.8274967818729,46.3767122768992,34.99104,1908.6576,5.03290015008,3
2025-04-01T15:08:27.860,1743512907860,11.8275022781099,46.3767088856654,34.99104,1908.6576,5.03290015008,3
2025-04-01T15:08:27.950,1743512907950,11.8275072931704,46.3767058189202,34.99104,1908.6576,5.03290015008,3
2025-04-01T15:08:28.050,1743512908050,11.8275120065149,46.3767026755749,34.99104,1908.6576,5.03290015008,3
2025-04-01T15:08:28.150,1743512908150,11.8275169811546,46.3766996270548,34.99104,1908.6576,5.03290015008,3
2025-04-01T15:08:28.260,1743512908260,11.8275215213948,46.3766969411176,34.99104,1908.6576,4.957830064,3
2025-04-01T15:08:28.370,1743512908370,11.827526431679,46.3766939653607,34.99104,1908.6576,4.957830064,3
2025-04-01T15:08:28.470,1743512908470,11.8275314979855,46.3766909732972,34.99104,1908.6576,5.03290015008,3
2025-04-01T15:08:28.570,1743512908570,11.8275364476973,46.3766880116545,34.8996,1908.6576,5.03290015008,3
2025-04-01T15:08:28.670,1743512908670,11.8275415960372,46.3766850720737,34.8996,1908.6576,5.03290015008,3
2025-04-01T15:08:28.750,1743512908750,11.8275465750467,46.3766821359186,34.8996,1908.6576,5.03290015008,3
2025-04-01T15:08:28.880,1743512908880,11.8275519315488,46.3766789173435,34.8996,1908.6576,4.96790500448,3
2025-04-01T15:08:28.980,1743512908980,11.827556924661,46.3766759994135,34.8996,1908.6576,4.96790500448,3
2025-04-01T15:08:29.080,1743512909080,11.8275618967185,46.3766731584948,34.8996,1908.6576,4.96790500448,3
2025-04-01T15:08:29.150,1743512909150,11.8275668533824,46.3766702963363,34.8996,1908.6576,4.827014984,3
2025-04-01T15:08:29.280,1743512909280,11.8275712338263,46.3766676665817,34.8996,1908.6576,4.827014984,3
2025-04-01T15:08:29.380,1743512909380,11.8275761069671,46.3766648500544,34.8996,1908.6576,4.827014984,3
2025-04-01T15:08:29.490,1743512909490,11.8275811746639,46.3766620172205,34.77768,1908.3528,4.827014984,3
2025-04-01T15:08:29.590,1743512909590,11.8275861021294,46.3766592078187,34.77768,1908.3528,4.827014984,3
2025-04-01T15:08:29.690,1743512909690,11.827591034064,46.3766563596374,34.77768,1908.3528,4.90408780928,3
2025-04-01T15:08:29.750,1743512909750,11.8275960108886,46.3766535315995,34.77768,1908.3528,4.90408780928,3
2025-04-01T15:08:29.850,1743512909850,11.8276015210295,46.3766502524568,34.77768,1908.3528,4.90408780928,3
2025-04-01T15:08:29.950,1743512909950,11.8276065457234,46.3766473786507,34.77768,1908.3528,4.90408780928,3
2025-04-01T15:08:30.050,1743512910050,11.8276115994171,46.3766447054574,34.68624,1908.3528,4.90408780928,3
2025-04-01T15:08:30.150,1743512910150,11.8276166026593,46.3766418683755,34.68624,1908.3528,4.90408780928,3
2025-04-01T15:08:30.250,1743512910250,11.8276215100634,46.3766390680178,34.68624,1908.3528,4.90408780928,3
2025-04-01T15:08:30.350,1743512910350,11.8276265199595,46.3766362602605,34.68624,1908.3528,4.90408780928,3
2025-04-01T15:08:30.450,1743512910450,11.8276311321029,46.3766337054616,34.68624,1908.3528,4.84149505664,3
2025-04-01T15:08:30.550,1743512910550,11.8276361403107,46.3766309347026,34.68624,1908.3528,4.84149505664,3
2025-04-01T15:08:30.650,1743512910650,11.8276418111417,46.3766278309591,34.5948,1908.3528,4.90408780928,3
2025-04-01T15:08:30.750,1743512910750,11.8276469244237,46.3766250086765,34.5948,1908.3528,4.98197558848,3
2025-04-01T15:08:30.850,1743512910850,11.8276519423643,46.3766223286316,34.5948,1908.3528,4.98197558848,3
2025-04-01T15:08:30.950,1743512910950,11.8276570709407,46.3766195058009,34.5948,1908.3528,4.98197558848,3
2025-04-01T15:08:31.050,1743512911050,11.8276622887012,46.3766166484385,34.5948,1908.3528,4.98197558848,3
2025-04-01T15:08:31.150,1743512911150,11.8276674240309,46.3766138173859,34.5948,1908.3528,4.98197558848,3
2025-04-01T15:08:31.250,1743512911250,11.8276720987423,46.3766112480619,34.5948,1908.3528,4.98197558848,3
2025-04-01T15:08:31.350,1743512911350,11.8276771824288,46.376608433453,34.47288,1908.048,4.98197558848,3
2025-04-01T15:08:31.450,1743512911450,11.827682817904,46.3766052743491,34.47288,1908.048,4.98197558848,3
2025-04-01T15:08:31.550,1743512911550,11.8276879709116,46.3766024216457,34.47288,1908.048,4.98197558848,3
2025-04-01T15:08:31.650,1743512911650,11.8276927890324,46.376599746534,34.47288,1908.048,4.98197558848,3
2025-04-01T15:08:31.750,1743512911750,11.8276978973488,46.3765969127408,34.47288,1908.048,4.98197558848,3
2025-04-01T15:08:31.850,1743512911850,11.8277027690993,46.3765940411272,34.47288,1908.048,4.90408780928,3
2025-04-01T15:08:31.950,1743512911950,11.8277077564513,46.3765911955494,34.47288,1908.048,4.90408780928,3
2025-04-01T15:08:32.050,1743512912050,11.8277128274256,46.3765882518577,34.47288,1908.048,4.90408780928,3
2025-04-01T15:08:32.150,1743512912150,11.8277177762437,46.37658538874,34.38144,1908.048,4.96790500448,3
2025-04-01T15:08:32.250,1743512912250,11.8277228484097,46.3765824672472,34.38144,1908.048,4.96790500448,3
2025-04-01T15:08:32.350,1743512912350,11.8277278194741,46.376579566035,34.38144,1908.048,4.96790500448,3
2025-04-01T15:08:32.450,1743512912450,11.8277326922176,46.3765767100428,34.38144,1908.048,4.96790500448,3
2025-04-01T15:08:32.550,1743512912550,11.8277376469945,46.3765737863576,34.29,1908.048,4.96790500448,3
2025-04-01T15:08:32.650,1743512912650,11.8277427247221,46.3765707848389,34.29,1908.048,4.96790500448,3
2025-04-01T15:08:32.750,1743512912750,11.8277476787045,46.3765678570427,34.29,1908.048,4.96790500448,3
2025-04-01T15:08:32.840,1743512912840,11.8277525699204,46.3765649862513,34.29,1908.048,4.96790500448,3
2025-04-01T15:08:32.950,1743512912950,11.8277575175467,46.3765620770913,34.29,1908.048,4.8918380192,3
2025-04-01T15:08:33.050,1743512913050,11.8277624371664,46.3765591279184,34.29,1908.048,4.8918380192,3
2025-04-01T15:08:33.150,1743512913150,11.8277673645327,46.3765562541123,34.29,1908.048,4.827014984,3
2025-04-01T15:08:33.250,1743512913250,11.827772680614,46.376553245468,34.19856,1907.7432,4.827014984,3
2025-04-01T15:08:33.350,1743512913350,11.8277776522742,46.3765503716619,34.19856,1907.7432,4.827014984,3
2025-04-01T15:08:33.450,1743512913450,11.827782188939,46.3765477812351,34.19856,1907.7432,4.827014984,3
2025-04-01T15:08:33.550,1743512913550,11.8277871403392,46.3765449268874,34.19856,1907.7432,4.90408780928,3
2025-04-01T15:08:33.660,1743512913660,11.8277920017609,46.376541944553,34.19856,1907.7432,4.827014984,3
2025-04-01T15:08:33.750,1743512913750,11.8277969410448,46.3765390674582,34.19856,1907.7432,4.827014984,3
2025-04-01T15:08:33.850,1743512913850,11.8278019361432,46.3765362100957,34.19856,1907.7432,4.90408780928,3
2025-04-01T15:08:33.950,1743512913950,11.8278068899269,46.3765333409487,34.07664,1907.7432,4.90408780928,3
2025-04-01T15:08:34.050,1743512914050,11.8278118739021,46.3765305079777,34.07664,1907.7432,4.90408780928,3
2025-04-01T15:08:34.170,1743512914170,11.8278168686031,46.3765276229351,34.07664,1907.7432,4.90408780928,3
2025-04-01T15:08:34.270,1743512914270,11.8278218841601,46.3765246663624,34.07664,1907.7432,4.96790500448,3
2025-04-01T15:08:34.370,1743512914370,11.8278269074637,46.3765217311666,34.07664,1907.7432,4.96790500448,3
2025-04-01T15:08:34.470,1743512914470,11.8278318711788,46.3765188620195,34.07664,1907.7432,4.96790500448,3
2025-04-01T15:08:34.570,1743512914570,11.8278368968659,46.3765159216166,34.07664,1907.7432,4.96790500448,3
2025-04-01T15:08:34.680,1743512914680,11.8278419150052,46.3765129677846,34.07664,1907.7432,4.96790500448,3
2025-04-01T15:08:34.780,1743512914780,11.8278469158638,46.3765100468399,34.07664,1907.7432,4.96790500448,3
2025-04-01T15:08:34.880,1743512914880,11.8278518418397,46.3765072415491,33.9852,1907.7432,4.96790500448,3
2025-04-01T15:08:34.980,1743512914980,11.8278568129041,46.3765043515734,33.9852,1907.7432,4.96790500448,3
2025-04-01T15:08:35.080,1743512915080,11.8278617410648,46.3765015383348,33.9852,1907.7432,4.90408780928,3
2025-04-01T15:08:35.180,1743512915180,11.8278667089511,46.376498670284,33.9852,1907.7432,4.90408780928,3
2025-04-01T15:08:35.280,1743512915280,11.8278712080752,46.3764960102457,33.9852,1907.7432,4.90408780928,3
2025-04-01T15:08:35.390,1743512915390,11.8278761406057,46.376493165216,33.9852,1907.7432,4.90408780928,3
2025-04-01T15:08:35.490,1743512915490,11.8278816725958,46.376489965003,33.9852,1907.7432,4.90408780928,3
2025-04-01T15:08:35.590,1743512915590,11.8278866694818,46.3764870725607,33.9852,1907.7432,4.96790500448,3
2025-04-01T15:08:35.690,1743512915690,11.8278915817523,46.3764840951594,33.89376,1907.4384,4.96790500448,3
2025-04-01T15:08:35.790,1743512915790,11.8278965530153,46.3764812007987,33.89376,1907.4384,4.96790500448,3
2025-04-01T15:08:35.850,1743512915850,11.8279019602669,46.376478194347,33.89376,1907.4384,4.90408780928,3
2025-04-01T15:08:35.950,1743512915950,11.8279069764198,46.3764753188965,33.89376,1907.4384,4.90408780928,3
2025-04-01T15:08:36.050,1743512916050,11.8279113986749,46.376472720522,33.89376,1907.4384,4.90408780928,3
2025-04-01T15:08:36.150,1743512916150,11.8279163600065,46.3764698985134,33.89376,1907.4384,4.90408780928,3
2025-04-01T15:08:36.250,1743512916250,11.8279212834001,46.3764671581751,33.89376,1907.4384,4.90408780928,3
2025-04-01T15:08:36.350,1743512916350,11.8279262661835,46.3764643331519,33.77184,1907.4384,4.90408780928,3
2025-04-01T15:08:36.450,1743512916450,11.8279312453916,46.3764614324878,33.77184,1907.4384,4.90408780928,3
2025-04-01T15:08:36.550,1743512916550,11.8279362782293,46.3764585932134,33.77184,1907.4384,4.90408780928,3
2025-04-01T15:08:36.650,1743512916650,11.8279412868343,46.3764557068005,33.77184,1907.4384,4.98197558848,3
2025-04-01T15:08:36.750,1743512916750,11.8279463357609,46.3764528842438,33.77184,1907.4384,4.90408780928,3
2025-04-01T15:08:36.850,1743512916850,11.8279513711808,46.3764501044408,33.6804,1907.4384,4.84149505664,3
2025-04-01T15:08:36.950,1743512916950,11.8279563960734,46.3764473232674,33.6804,1907.4384,4.84149505664,3
2025-04-01T15:08:37.050,1743512917050,11.8279614336782,46.3764446832355,33.6804,1907.4384,4.84149505664,3
2025-04-01T15:08:37.150,1743512917150,11.8279664416874,46.3764419398825,33.6804,1907.4384,4.84149505664,3
2025-04-01T15:08:37.250,1743512917250,11.8279714800867,46.3764390430553,33.58896,1907.1336,4.84149505664,3
2025-04-01T15:08:37.350,1743512917350,11.8279764988218,46.3764363021689,33.58896,1907.1336,4.84149505664,3
2025-04-01T15:08:37.450,1743512917450,11.8279814545919,46.3764336169169,33.58896,1907.1336,4.84149505664,3
2025-04-01T15:08:37.550,1743512917550,11.8279864500875,46.3764308831561,33.58896,1907.1336,4.84149505664,3
2025-04-01T15:08:37.650,1743512917650,11.827991553041,46.3764281576171,33.49752,1907.1336,4.84149505664,3
2025-04-01T15:08:37.750,1743512917750,11.8279965415846,46.3764254257747,33.49752,1907.1336,4.84149505664,3
2025-04-01T15:08:37.850,1743512917850,11.8280014971559,46.3764226544675,33.3756,1907.1336,4.84149505664,3
2025-04-01T15:08:37.950,1743512917950,11.8280065319798,46.3764199387947,33.3756,1907.1336,4.84149505664,3
2025-04-01T15:08:38.050,1743512918050,11.8280115983857,46.3764172288772,33.28416,1906.8288,4.92037392352,3
2025-04-01T15:08:38.150,1743512918150,11.8280166632025,46.376414542529,33.28416,1906.8288,4.8600490048,3
2025-04-01T15:08:38.250,1743512918250,11.8280222533905,46.37641148565,33.19272,1906.8288,4.8600490048,3
2025-04-01T15:08:38.350,1743512918350,11.8280273660767,46.376408786969,33.19272,1906.8288,4.8600490048,3
2025-04-01T15:08:38.450,1743512918450,11.8280325186871,46.3764061842095,33.0708,1906.8288,4.8600490048,3
2025-04-01T15:08:38.550,1743512918550,11.8280376454759,46.3764035052609,33.0708,1906.8288,4.8600490048,3
2025-04-01T15:08:38.650,1743512918650,11.828042358721,46.3764011801254,32.97936,1906.524,4.8600490048,3
2025-04-01T15:08:38.750,1743512918750,11.8280474847152,46.3763985329679,32.97936,1906.524,4.8600490048,3
2025-04-01T15:08:38.850,1743512918850,11.8280526840032,46.3763958967729,32.88792,1906.524,4.8600490048,3
2025-04-01T15:08:38.950,1743512918950,11.8280578773323,46.3763932296089,32.88792,1906.524,4.94065568128,3
2025-04-01T15:08:39.050,1743512919050,11.8280634786435,46.3763903505957,32.79648,1906.524,4.94065568128,3
2025-04-01T15:08:39.150,1743512919150,11.8280687544032,46.376387662055,32.67456,1906.2192,4.94065568128,3
2025-04-01T15:08:39.250,1743512919250,11.8280735149219,46.3763851406916,32.67456,1906.2192,4.94065568128,3
2025-04-01T15:08:39.350,1743512919350,11.8280787255318,46.3763824866826,32.58312,1906.2192,4.94065568128,3
2025-04-01T15:08:39.460,1743512919460,11.8280843008228,46.3763795945144,32.49168,1906.2192,4.94065568128,3
2025-04-01T15:08:39.560,1743512919560,11.8280895152065,46.3763769174842,32.49168,1906.2192,4.8600490048,3
2025-04-01T15:08:39.670,1743512919670,11.8280941337061,46.3763745452102,32.36976,1905.9144,4.8600490048,3
2025-04-01T15:08:39.770,1743512919770,11.8280992871111,46.3763718944899,32.27832,1905.9144,4.8600490048,3
2025-04-01T15:08:39.870,1743512919870,11.8281044931524,46.3763691075612,32.27832,1905.9144,4.8600490048,3
2025-04-01T15:08:39.950,1743512919950,11.8281096680092,46.3763664373826,32.18688,1905.9144,4.8600490048,3
2025-04-01T15:08:40.080,1743512920080,11.8281151042605,46.37636388368,32.09544,1905.6096,4.94065568128,3
2025-04-01T15:08:40.180,1743512920180,11.8281203031512,46.3763612269304,32.09544,1905.6096,4.94065568128,3
2025-04-01T15:08:40.280,1743512920280,11.8281253735297,46.3763584822072,31.97352,1905.6096,4.8600490048,3
2025-04-01T15:08:40.380,1743512920380,11.8281305295169,46.3763558268279,31.97352,1905.6096,4.8600490048,3
2025-04-01T15:08:40.480,1743512920480,11.8281358422216,46.3763530862155,31.88208,1905.6096,4.8600490048,3
2025-04-01T15:08:40.550,1743512920550,11.8281409570927,46.3763504113778,31.79064,1905.3048,4.8600490048,3
2025-04-01T15:08:40.680,1743512920680,11.8281460904362,46.3763477395549,31.79064,1905.3048,4.8600490048,3
2025-04-01T15:08:40.790,1743512920790,11.8281511886226,46.3763450512882,31.6992,1905.3048,4.8600490048,3
2025-04-01T15:08:40.890,1743512920890,11.8281562816446,46.3763422076288,31.57728,1905.3048,4.8600490048,3
2025-04-01T15:08:40.990,1743512920990,11.8281613736735,46.3763394974373,31.57728,1905.3048,4.8600490048,3
2025-04-01T15:08:41.090,1743512921090,11.8281668295889,46.3763365866329,31.48584,1905,4.8600490048,3
2025-04-01T15:08:41.150,1743512921150,11.8281719545901,46.3763338643826,31.3944,1905,4.8600490048,3
2025-04-01T15:08:41.250,1743512921250,11.8281767415263,46.3763314474366,31.27248,1905,4.8600490048,3
2025-04-01T15:08:41.350,1743512921350,11.8281818041582,46.3763287709546,31.27248,1905,4.78017502688,3
2025-04-01T15:08:41.450,1743512921450,11.828186702922,46.3763261476405,31.18104,1904.6952,4.78017502688,3
2025-04-01T15:08:41.550,1743512921550,11.8281917417186,46.3763234886984,31.0896,1904.6952,4.78017502688,3
2025-04-01T15:08:41.650,1743512921650,11.8281970270125,46.3763208067351,30.99816,1904.6952,4.78017502688,3
2025-04-01T15:08:41.750,1743512921750,11.8282021051374,46.3763181538224,30.99816,1904.6952,4.8600490048,3
2025-04-01T15:08:41.850,1743512921850,11.8282071510845,46.3763154145803,30.87624,1904.3904,4.8600490048,3
2025-04-01T15:08:41.950,1743512921950,11.8282122675446,46.3763127649563,30.7848,1904.3904,4.8600490048,3
2025-04-01T15:08:42.050,1743512922050,11.8282171385004,46.3763103748683,30.69336,1904.3904,4.8600490048,3
2025-04-01T15:08:42.150,1743512922150,11.828222254166,46.3763077627906,30.57144,1904.0856,4.8600490048,3
2025-04-01T15:08:42.250,1743512922250,11.8282278532923,46.3763049078948,30.48,1904.0856,4.8600490048,3
2025-04-01T15:08:42.350,1743512922350,11.8282330118615,46.3763022648482,30.48,1904.0856,4.8600490048,3
2025-04-01T15:08:42.450,1743512922450,11.828238035761,46.3762997582842,30.38856,1904.0856,4.8600490048,3
2025-04-01T15:08:42.550,1743512922550,11.8282431847961,46.3762971371625,30.29712,1903.7808,4.8600490048,3
2025-04-01T15:08:42.650,1743512922650,11.8282483336326,46.376294306384,30.1752,1903.7808,4.8600490048,3
2025-04-01T15:08:42.750,1743512922750,11.8282534906129,46.3762916814255,30.08376,1903.7808,4.8600490048,3
2025-04-01T15:08:42.850,1743512922850,11.8282586577231,46.3762892384437,29.99232,1903.7808,4.80104911264,3
2025-04-01T15:08:42.950,1743512922950,11.8282638363538,46.3762866521278,29.8704,1903.476,4.80104911264,3
2025-04-01T15:08:43.050,1743512923050,11.8282686133586,46.3762841984576,29.77896,1903.476,4.80104911264,3
2025-04-01T15:08:43.150,1743512923150,11.8282737373666,46.3762816392738,29.68752,1903.476,4.80104911264,3
2025-04-01T15:08:43.250,1743512923250,11.8282790429207,46.3762790754309,29.59608,1903.1712,4.80104911264,3
2025-04-01T15:08:43.350,1743512923350,11.8282841689149,46.3762765239208,29.47416,1903.1712,4.80104911264,3
2025-04-01T15:08:43.450,1743512923450,11.8282895286944,46.3762736865648,29.38272,1903.1712,4.80104911264,3
2025-04-01T15:08:43.550,1743512923550,11.828294692428,46.3762711125817,29.29128,1902.8664,4.80104911264,3
2025-04-01T15:08:43.650,1743512923650,11.8282998645039,46.376268665763,29.19984,1902.8664,4.80104911264,3
2025-04-01T15:08:43.750,1743512923750,11.8283050703466,46.3762661263116,29.07792,1902.8664,4.80104911264,3
2025-04-01T15:08:43.850,1743512923850,11.8283104090716,46.376263514234,28.98648,1902.5616,4.80104911264,3
2025-04-01T15:08:43.950,1743512923950,11.8283155998187,46.3762609824563,28.89504,1902.5616,4.80104911264,3
2025-04-01T15:08:44.050,1743512924050,11.8283203831796,46.3762586863713,28.77312,1902.5616,4.80104911264,3
2025-04-01T15:08:44.150,1743512924150,11.8283254918932,46.376256151853,28.68168,1902.2568,4.80104911264,3
2025-04-01T15:08:44.240,1743512924240,11.8283309619112,46.3762533931526,28.4988,1902.2568,4.80104911264,3
2025-04-01T15:08:44.350,1743512924350,11.8283361882125,46.3762508325984,28.37688,1901.952,4.88263033632,3
2025-04-01T15:08:44.450,1743512924450,11.8283414500683,46.3762482040772,28.28544,1901.952,4.88263033632,3
2025-04-01T15:08:44.550,1743512924550,11.8283467395334,46.3762456786029,28.194,1901.952,4.82597919232,3
2025-04-01T15:08:44.650,1743512924650,11.8283520899775,46.3762432896111,28.07208,1901.6472,4.82597919232,3
2025-04-01T15:08:44.750,1743512924750,11.8283573518334,46.3762408000388,27.98064,1901.6472,4.82597919232,3
2025-04-01T15:08:44.850,1743512924850,11.8283625322518,46.3762383195106,27.8892,1901.6472,4.74342431552,3
2025-04-01T15:08:44.950,1743512924950,11.8283677142593,46.3762358200721,27.79776,1901.3424,4.74342431552,3
2025-04-01T15:08:45.060,1743512925060,11.8283727840419,46.3762332893907,27.67584,1901.3424,4.74342431552,3
2025-04-01T15:08:45.150,1743512925150,11.8283779297003,46.3762307633683,27.5844,1901.3424,4.80104911264,3
2025-04-01T15:08:45.260,1743512925260,11.828382795889,46.3762283650584,27.49296,1901.0376,4.80104911264,3
2025-04-01T15:08:45.360,1743512925360,11.828387948698,46.3762258497244,27.37104,1901.0376,4.80104911264,3
2025-04-01T15:08:45.460,1743512925460,11.828393584769,46.3762231176079,27.2796,1901.0376,4.88263033632,3
2025-04-01T15:08:45.560,1743512925560,11.8283988581452,46.3762205817193,27.18816,1900.7328,4.88263033632,3
2025-04-01T15:08:45.670,1743512925670,11.8284041120559,46.3762179896482,26.9748,1900.7328,4.82597919232,3
2025-04-01T15:08:45.770,1743512925770,11.8284094180073,46.376215464448,26.88336,1900.428,4.82597919232,3
2025-04-01T15:08:45.870,1743512925870,11.8284143823184,46.3762131431493,26.79192,1900.428,4.82597919232,3
2025-04-01T15:08:45.950,1743512925950,11.8284196155718,46.3762106483699,26.67,1900.428,4.82597919232,3
2025-04-01T15:08:46.080,1743512926080,11.8284248077092,46.3762080483509,26.57856,1900.1232,4.82597919232,3
2025-04-01T15:08:46.150,1743512926150,11.8284300272573,46.3762055204101,26.48712,1900.1232,4.88263033632,3
2025-04-01T15:08:46.280,1743512926280,11.8284359477638,46.3762027688353,26.39568,1900.1232,4.88263033632,3
2025-04-01T15:08:46.380,1743512926380,11.8284412368317,46.3762002159549,26.27376,1899.8184,4.88263033632,3
2025-04-01T15:08:46.480,1743512926480,11.8284464365169,46.3761976159359,26.18232,1899.8184,4.88263033632,3
2025-04-01T15:08:46.580,1743512926580,11.8284517533927,46.3761950789511,26.09088,1899.8184,4.88263033632,3
2025-04-01T15:08:46.690,1743512926690,11.8284569922077,46.3761926058225,25.99944,1899.5136,4.82597919232,3
2025-04-01T15:08:46.790,1743512926790,11.8284623078918,46.3761900798001,25.87752,1899.5136,4.82597919232,3
2025-04-01T15:08:46.890,1743512926890,11.828467802937,46.3761873948222,25.69464,1899.2088,4.88263033632,3
2025-04-01T15:08:46.990,1743512926990,11.8284731277579,46.3761848419418,25.57272,1899.2088,4.88263033632,3
2025-04-01T15:08:47.050,1743512927050,11.8284780992196,46.3761826294454,25.48128,1899.2088,4.88263033632,3
2025-04-01T15:08:47.150,1743512927150,11.8284833751781,46.3761801174002,25.38984,1898.904,4.88263033632,3
2025-04-01T15:08:47.250,1743512927250,11.8284886306778,46.3761774211857,25.2984,1898.904,4.88263033632,3
2025-04-01T15:08:47.350,1743512927350,11.8284938984925,46.3761749124292,25.17648,1898.904,4.82597919232,3
2025-04-01T15:08:47.450,1743512927450,11.8284996009055,46.3761722170369,24.9936,1898.5992,4.82597919232,3
2025-04-01T15:08:47.550,1743512927550,11.8285048816311,46.3761696910145,24.87168,1898.5992,4.82597919232,3
2025-04-01T15:08:47.650,1743512927650,11.8285099526054,46.3761672803719,24.78024,1898.2944,4.82597919232,3
2025-04-01T15:08:47.750,1743512927750,11.8285151522908,46.3761647598308,24.6888,1898.2944,4.74342431552,3
2025-04-01T15:08:47.850,1743512927850,11.8285202177036,46.376162281495,24.59736,1898.2944,4.74342431552,3
2025-04-01T15:08:47.950,1743512927950,11.8285253661428,46.3761597845231,24.47544,1897.9896,4.74342431552,3
2025-04-01T15:08:48.050,1743512928050,11.8285304186447,46.3761573256457,24.384,1897.9896,4.74342431552,3
2025-04-01T15:08:48.150,1743512928150,11.8285355694674,46.3761548319625,24.29256,1897.9896,4.74342431552,3
2025-04-01T15:08:48.250,1743512928250,11.8285406958589,46.3761523656854,24.17064,1897.6848,4.74342431552,3
2025-04-01T15:08:48.350,1743512928350,11.8285458744896,46.3761498761132,24.0792,1897.6848,4.74342431552,3
2025-04-01T15:08:48.450,1743512928450,11.8285510980103,46.3761474931508,23.98776,1897.6848,4.74342431552,3
2025-04-01T15:08:48.550,1743512928550,11.8285562746547,46.3761449939864,23.89632,1897.38,4.74342431552,3
2025-04-01T15:08:48.650,1743512928650,11.8285612336029,46.3761425753959,23.7744,1897.38,4.74342431552,3
2025-04-01T15:08:48.750,1743512928750,11.8285663051732,46.3761400619803,23.68296,1897.38,4.7201768944,3
2025-04-01T15:08:48.850,1743512928850,11.8285716661446,46.3761374085195,23.59152,1897.38,4.7201768944,3
2025-04-01T15:08:48.950,1743512928950,11.8285766723662,46.3761348772899,23.4696,1897.0752,4.7201768944,3
2025-04-01T15:08:49.050,1743512929050,11.8285808765276,46.3761327012437,23.37816,1897.0752,4.7201768944,3
2025-04-01T15:08:49.150,1743512929150,11.8285858543452,46.3761301990646,23.28672,1897.0752,4.7201768944,3
2025-04-01T15:08:49.250,1743512929250,11.8285914687657,46.3761274518748,23.19528,1896.7704,4.80104911264,3
2025-04-01T15:08:49.350,1743512929350,11.8285966189925,46.3761249102309,23.07336,1896.7704,4.80104911264,3
2025-04-01T15:08:49.450,1743512929450,11.8286019519572,46.3761224694415,22.98192,1896.7704,4.80104911264,3
2025-04-01T15:08:49.550,1743512929550,11.8286071325742,46.3761199124502,22.89048,1896.4656,4.80104911264,3
2025-04-01T15:08:49.650,1743512929650,11.8286123084242,46.3761172729665,22.79904,1896.4656,4.80104911264,3
2025-04-01T15:08:49.750,1743512929750,11.8286174520964,46.3761147085755,22.67712,1896.4656,4.80104911264,3
2025-04-01T15:08:49.840,1743512929840,11.828622525057,46.3761122795708,22.58568,1896.1608,4.80104911264,3
2025-04-01T15:08:49.950,1743512929950,11.8286276552225,46.3761097310753,22.49424,1896.1608,4.80104911264,3
2025-04-01T15:08:50.050,1743512930050,11.8286323619129,46.3761073818224,22.37232,1896.1608,4.80104911264,3
2025-04-01T15:08:50.150,1743512930150,11.8286374348735,46.3761048505928,22.28088,1895.856,4.80104911264,3
2025-04-01T15:08:50.250,1743512930250,11.8286428766864,46.3761021009365,22.18944,1895.856,4.80104911264,3
2025-04-01T15:08:50.350,1743512930350,11.8286479712974,46.3760995480561,22.098,1895.856,4.80104911264,3
2025-04-01T15:08:50.450,1743512930450,11.8286533435904,46.3760969617402,21.97608,1895.5512,4.80104911264,3
2025-04-01T15:08:50.550,1743512930550,11.8286585246046,46.3760944129707,21.88464,1895.5512,4.80104911264,3
2025-04-01T15:08:50.650,1743512930650,11.8286635238741,46.3760918740674,21.67128,1895.2464,4.80104911264,3
2025-04-01T15:08:50.750,1743512930750,11.8286687414359,46.3760893244758,21.57984,1895.2464,4.88263033632,3
2025-04-01T15:08:50.850,1743512930850,11.8286739065598,46.3760868006458,21.4884,1895.2464,4.88263033632,3
2025-04-01T15:08:50.960,1743512930960,11.8286791664293,46.3760842551651,21.39696,1894.9416,4.88263033632,3
2025-04-01T15:08:51.060,1743512931060,11.828684120213,46.3760819341405,21.27504,1894.9416,4.88263033632,3
2025-04-01T15:08:51.150,1743512931150,11.8286894007398,46.3760794360723,21.1836,1894.9416,4.88263033632,3
2025-04-01T15:08:51.260,1743512931260,11.8286948026285,46.3760769412929,21.09216,1894.6368,4.88263033632,3
2025-04-01T15:08:51.360,1743512931360,11.8287000767994,46.3760744547354,20.97024,1894.6368,4.88263033632,3
2025-04-01T15:08:51.470,1743512931470,11.8287058570745,46.3760716853466,20.8788,1894.6368,4.82597919232,3
2025-04-01T15:08:51.570,1743512931570,11.828711165012,46.3760691965965,20.78736,1894.332,4.82597919232,3
2025-04-01T15:08:51.670,1743512931670,11.8287162542601,46.376066705654,20.69592,1894.332,4.82597919232,3
2025-04-01T15:08:51.770,1743512931770,11.8287215459102,46.3760642448581,20.574,1894.332,4.82597919232,3
2025-04-01T15:08:51.870,1743512931870,11.8287268677518,46.3760619375366,20.48256,1894.0272,4.82597919232,3
2025-04-01T15:08:51.980,1743512931980,11.8287321599977,46.3760595011322,20.39112,1894.0272,4.82597919232,3
2025-04-01T15:08:52.080,1743512932080,11.8287370601519,46.3760571474943,20.29968,1894.0272,4.82597919232,3
2025-04-01T15:08:52.180,1743512932180,11.8287423261789,46.3760547042384,20.17776,1893.7224,4.82597919232,3
2025-04-01T15:08:52.280,1743512932280,11.828748101091,46.3760520844871,20.08632,1893.7224,4.82597919232,3
2025-04-01T15:08:52.380,1743512932380,11.8287534457747,46.3760495817598,19.99488,1893.7224,4.82597919232,3
2025-04-01T15:08:52.490,1743512932490,11.8287587854928,46.3760469398095,19.87296,1893.4176,4.88263033632,3
2025-04-01T15:08:52.590,1743512932590,11.828764097403,46.37604431951,19.78152,1893.4176,4.94065568128,3
2025-04-01T15:08:52.690,1743512932690,11.8287692583561,46.3760415810901,19.69008,1893.4176,4.92037392352,3
2025-04-01T15:08:52.790,1743512932790,11.8287743533647,46.3760387645628,19.59864,1893.1128,4.90408780928,3
2025-04-01T15:08:52.890,1743512932890,11.8287790266861,46.3760358329296,19.47672,1893.1128,4.957830064,3
2025-04-01T15:08:52.950,1743512932950,11.828783662467,46.3760327264455,19.38528,1893.1128,4.80833407648,3
2025-04-01T15:08:53.050,1743512933050,11.8287875488243,46.3760296673739,19.29384,1892.808,4.81664544416,3
2025-04-01T15:08:53.150,1743512933150,11.8287914562364,46.3760262462674,19.29384,1892.808,4.78017502688,3
2025-04-01T15:08:53.250,1743512933250,11.828795126288,46.3760225576772,19.17192,1892.808,4.6325011744,3
2025-04-01T15:08:53.350,1743512933350,11.8287981229906,46.3760189055372,19.08048,1892.808,4.5650920128,3
2025-04-01T15:08:53.450,1743512933450,11.8288008535317,46.3760150651171,19.08048,1892.808,4.47772966784,3
2025-04-01T15:08:53.550,1743512933550,11.8288028463681,46.3760113398027,19.08048,1892.808,4.33244256192,3
2025-04-01T15:08:53.650,1743512933650,11.8288041841292,46.3760077057508,18.98904,1892.5032,4.12311205856,3
2025-04-01T15:08:53.750,1743512933750,11.8288051879965,46.3760040410039,18.98904,1892.5032,4.04475622848,3
2025-04-01T15:08:53.850,1743512933850,11.8288057103893,46.376000438195,18.98904,1892.5032,3.91152757952,3
2025-04-01T15:08:53.950,1743512933950,11.8288057993756,46.3759968682733,18.98904,1892.5032,3.90000646464,3
2025-04-01T15:08:54.050,1743512934050,11.8288055945911,46.3759931487143,18.98904,1892.5032,3.91152757952,3
2025-04-01T15:08:54.150,1743512934150,11.8288048185523,46.3759895924957,19.08048,1892.808,3.96232875808,3
2025-04-01T15:08:54.250,1743512934250,11.8288037278864,46.3759862431933,19.08048,1892.808,4.002505584,3
2025-04-01T15:08:54.350,1743512934350,11.8288021696502,46.3759826932782,19.08048,1892.808,4.08044790208,3
2025-04-01T15:08:54.450,1743512934450,11.8288001865486,46.3759790734774,19.17192,1892.808,4.21545442912,3
2025-04-01T15:08:54.550,1743512934550,11.8287977976499,46.3759755619308,19.17192,1892.808,4.24853583616,3
2025-04-01T15:08:54.650,1743512934650,11.8287951110077,46.3759721652159,19.29384,1892.808,4.3046554496,3
2025-04-01T15:08:54.750,1743512934750,11.8287919494458,46.3759688781255,19.29384,1892.808,4.38292857728,3
2025-04-01T15:08:54.850,1743512934850,11.828788210472,46.3759658798957,19.38528,1893.1128,4.34166544416,3
2025-04-01T15:08:54.950,1743512934950,11.8287843936359,46.3759629523737,19.47672,1893.1128,4.24500377312,3
2025-04-01T15:08:55.050,1743512935050,11.8287805726285,46.3759606491632,19.59864,1893.1128,4.24500377312,3
2025-04-01T15:08:55.150,1743512935150,11.8287762842493,46.375958190834,19.69008,1893.4176,4.2011969824,3
2025-04-01T15:08:55.250,1743512935250,11.8287713245073,46.3759557374379,19.69008,1893.4176,4.24382582272,3
2025-04-01T15:08:55.340,1743512935340,11.8287665103597,46.3759537197992,19.78152,1893.4176,4.25441620032,3
2025-04-01T15:08:55.450,1743512935450,11.8287616392058,46.3759518559088,19.87296,1893.4176,4.33820937792,3
2025-04-01T15:08:55.550,1743512935550,11.8287563672204,46.3759502512804,19.99488,1893.7224,4.34626995616,3
2025-04-01T15:08:55.650,1743512935650,11.8287509351407,46.3759487088638,20.08632,1893.7224,4.45982795104,3
2025-04-01T15:08:55.750,1743512935750,11.8287452422624,46.3759474599669,20.17776,1893.7224,4.49222270464,3
2025-04-01T15:08:55.850,1743512935850,11.828739497145,46.3759462571122,20.29968,1894.0272,4.6325011744,3
2025-04-01T15:08:55.950,1743512935950,11.8287334032366,46.3759452576109,20.39112,1894.0272,4.80521329024,3
2025-04-01T15:08:56.050,1743512936050,11.8287275204698,46.3759446130189,20.48256,1894.0272,4.88365405792,3
2025-04-01T15:08:56.150,1743512936150,11.8287211651668,46.3759438785349,20.69592,1894.332,4.96488480224,3
2025-04-01T15:08:56.250,1743512936250,11.8287141676991,46.3759432698449,20.78736,1894.332,4.93660594592,3
2025-04-01T15:08:56.360,1743512936360,11.8287076320417,46.3759427518692,20.8788,1894.6368,5.02494596736,3
2025-04-01T15:08:56.460,1743512936460,11.8287016026871,46.3759424271067,20.97024,1894.6368,5.02494596736,3
2025-04-01T15:08:56.560,1743512936560,11.8286949943318,46.3759420198517,21.1836,1894.9416,5.11567050016,3
2025-04-01T15:08:56.660,1743512936660,11.8286876889907,46.3759416904301,21.27504,1894.9416,5.11567050016,3
2025-04-01T15:08:56.770,1743512936770,11.8286808214259,46.3759412974263,21.39696,1894.9416,5.21537025504,3
2025-04-01T15:08:56.870,1743512936870,11.82867403073,46.3759408556396,21.57984,1895.2464,5.31508163296,3
2025-04-01T15:08:56.970,1743512936970,11.8286670400156,46.3759404248153,21.67128,1895.2464,5.32354141792,3
2025-04-01T15:08:57.070,1743512937070,11.8286599621034,46.3759399112245,21.7932,1895.5512,5.32354141792,3
2025-04-01T15:08:57.150,1743512937150,11.828652991053,46.375939447787,21.97608,1895.5512,5.32354141792,3
2025-04-01T15:08:57.280,1743512937280,11.8286462297538,46.3759391896213,22.098,1895.856,5.22399142144,3
2025-04-01T15:08:57.380,1743512937380,11.8286393631817,46.3759387398868,22.18944,1895.856,5.22399142144,3
2025-04-01T15:08:57.480,1743512937480,11.8286325240204,46.3759381972456,22.37232,1896.1608,5.12445930656,3
2025-04-01T15:08:57.580,1743512937580,11.8286257438515,46.3759377132534,22.49424,1896.1608,5.12445930656,3
2025-04-01T15:08:57.680,1743512937680,11.8286189444158,46.375937201033,22.58568,1896.1608,5.12445930656,3
2025-04-01T15:08:57.790,1743512937790,11.82861223476,46.3759366567473,22.79904,1896.4656,5.13518111392,3
2025-04-01T15:08:57.890,1743512937890,11.8286056897669,46.3759361365791,22.89048,1896.4656,5.13518111392,3
2025-04-01T15:08:57.990,1743512937990,11.8285990466514,46.3759355561174,22.98192,1896.7704,5.03587967168,3
2025-04-01T15:08:58.050,1743512938050,11.8285927702034,46.3759351622914,23.07336,1896.7704,5.03587967168,3
2025-04-01T15:08:58.150,1743512938150,11.8285862363334,46.3759345552458,23.19528,1896.7704,5.03587967168,3
2025-04-01T15:08:58.290,1743512938290,11.8285792039069,46.375933710589,23.37816,1897.0752,5.04877051712,3
2025-04-01T15:08:58.350,1743512938350,11.8285727198925,46.3759330339318,23.4696,1897.0752,4.94975562752,3
2025-04-01T15:08:58.450,1743512938450,11.8285662005223,46.3759323331572,23.59152,1897.38,4.94975562752,3
2025-04-01T15:08:58.550,1743512938550,11.8285597850347,46.3759316236127,23.68296,1897.38,4.94975562752,3
2025-04-01T15:08:58.650,1743512938650,11.8285533925879,46.3759308915951,23.89632,1897.38,4.94975562752,3
2025-04-01T15:08:58.750,1743512938750,11.828546993785,46.3759301606738,23.98776,1897.6848,4.96488480224,3
2025-04-01T15:08:58.850,1743512938850,11.8285406013382,46.3759293891914,24.0792,1897.6848,4.96488480224,3
2025-04-01T15:08:58.950,1743512938950,11.8285342023367,46.375928617435,24.17064,1897.6848,4.96488480224,3
2025-04-01T15:08:59.050,1743512939050,11.8285281680164,46.3759277840148,24.29256,1897.9896,4.96488480224,3
2025-04-01T15:08:59.150,1743512939150,11.8285218244321,46.3759269747119,24.47544,1897.9896,4.98197558848,3
2025-04-01T15:08:59.250,1743512939250,11.8285149207167,46.3759260971679,24.59736,1898.2944,4.98197558848,3
2025-04-01T15:08:59.350,1743512939350,11.8285085630297,46.3759252648439,24.6888,1898.2944,4.88365405792,3
2025-04-01T15:08:59.450,1743512939450,11.8285022579792,46.3759242508173,24.78024,1898.2944,4.88365405792,3
2025-04-01T15:08:59.550,1743512939550,11.8284959813326,46.3759233938278,24.87168,1898.5992,4.88365405792,3
2025-04-01T15:08:59.650,1743512939650,11.8284896880011,46.3759224866852,25.08504,1898.5992,4.88365405792,3
2025-04-01T15:08:59.750,1743512939750,11.8284834572376,46.3759216201035,25.17648,1898.904,4.7854022656,3
2025-04-01T15:08:59.850,1743512939850,11.8284771988647,46.3759209075443,25.2984,1898.904,4.7854022656,3
2025-04-01T15:08:59.950,1743512939950,11.8284709875667,46.3759200464439,25.38984,1898.904,4.7854022656,3
2025-04-01T15:09:00.050,1743512940050,11.8284652732361,46.3759191014808,25.57272,1899.2088,4.7854022656,3
2025-04-01T15:09:00.150,1743512940150,11.8284591398003,46.3759182148927,25.69464,1899.2088,4.7854022656,3
2025-04-01T15:09:00.250,1743512940250,11.8284525062191,46.3759172940469,25.78608,1899.5136,4.7854022656,3
2025-04-01T15:09:00.350,1743512940350,11.8284463592765,46.3759163981408,25.87752,1899.5136,4.7854022656,3
2025-04-01T15:09:00.450,1743512940450,11.8284402079642,46.3759155910304,26.09088,1899.8184,4.7854022656,3
2025-04-01T15:09:00.550,1743512940550,11.8284340862475,46.3759147069089,26.18232,1899.8184,4.7854022656,3
2025-04-01T15:09:00.650,1743512940650,11.8284280151809,46.3759137833225,26.27376,1899.8184,4.7854022656,3
2025-04-01T15:09:00.750,1743512940750,11.8284219073681,46.3759129008453,26.39568,1900.1232,4.68722423488,3
2025-04-01T15:09:00.850,1743512940850,11.8284157600283,46.3759121469029,26.57856,1900.1232,4.68722423488,3
2025-04-01T15:09:00.950,1743512940950,11.8284096615511,46.3759112794991,26.67,1900.428,4.68722423488,3
2025-04-01T15:09:01.050,1743512941050,11.8284040898354,46.3759103992144,26.79192,1900.428,4.68722423488,3
2025-04-01T15:09:01.150,1743512941150,11.8283980412138,46.3759095268775,26.88336,1900.428,4.68722423488,3
2025-04-01T15:09:01.250,1743512941250,11.8283918807646,46.3759085594413,27.09672,1900.7328,4.68722423488,3
2025-04-01T15:09:01.340,1743512941340,11.8283858146638,46.3759076766901,27.18816,1900.7328,4.68722423488,3
2025-04-01T15:09:01.450,1743512941450,11.8283791578431,46.375906803531,27.2796,1901.0376,4.68722423488,3
2025-04-01T15:09:01.550,1743512941550,11.8283730140787,46.3759059248907,27.37104,1901.0376,4.7854022656,3
2025-04-01T15:09:01.650,1743512941650,11.8283669013002,46.3759049914381,27.49296,1901.0376,4.68722423488,3
2025-04-01T15:09:01.750,1743512941750,11.8283607799807,46.3759041166346,27.67584,1901.3424,4.68722423488,3
2025-04-01T15:09:01.850,1743512941850,11.8283547696942,46.3759033539222,27.79776,1901.3424,4.68722423488,3
2025-04-01T15:09:01.950,1743512941950,11.8283487083604,46.3759024999474,27.8892,1901.6472,4.68722423488,3
2025-04-01T15:09:02.050,1743512942050,11.8283430927479,46.3759017786183,27.98064,1901.6472,4.68722423488,3
2025-04-01T15:09:02.150,1743512942150,11.8283370933861,46.3759009525977,28.194,1901.952,4.68722423488,3
2025-04-01T15:09:02.250,1743512942250,11.8283305066811,46.3759000613506,28.28544,1901.952,4.68722423488,3
2025-04-01T15:09:02.360,1743512942360,11.8283244403817,46.3758992240935,28.37688,1901.952,4.68722423488,3
2025-04-01T15:09:02.460,1743512942460,11.828318236433,46.3758983646375,28.4988,1902.2568,4.68722423488,3
2025-04-01T15:09:02.550,1743512942550,11.8283121490789,46.3758975325876,28.68168,1902.2568,4.68722423488,3
2025-04-01T15:09:02.650,1743512942650,11.8283061187311,46.3758968112584,28.77312,1902.5616,4.68722423488,3
2025-04-01T15:09:02.770,1743512942770,11.828300042103,46.3758959890747,28.89504,1902.5616,4.68722423488,3
2025-04-01T15:09:02.850,1743512942850,11.8282940431384,46.3758950978276,28.98648,1902.5616,4.68722423488,3
2025-04-01T15:09:02.950,1743512942950,11.8282879680993,46.3758942696145,29.19984,1902.8664,4.68722423488,3
2025-04-01T15:09:03.080,1743512943080,11.8282822799876,46.3758935924092,29.29128,1902.8664,4.68722423488,3
2025-04-01T15:09:03.150,1743512943150,11.8282762375235,46.3758927918763,29.38272,1903.1712,4.66905474112,3
2025-04-01T15:09:03.280,1743512943280,11.828270294572,46.3758919033698,29.47416,1903.1712,4.68722423488,3
2025-04-01T15:09:03.380,1743512943380,11.8282642401902,46.3758910861192,29.68752,1903.476,4.68722423488,3
2025-04-01T15:09:03.480,1743512943480,11.8282576292527,46.3758902548915,29.77896,1903.476,4.68722423488,3
2025-04-01T15:09:03.580,1743512943580,11.8282514769473,46.3758894236638,29.8704,1903.476,4.7854022656,3
2025-04-01T15:09:03.690,1743512943690,11.8282452680329,46.3758884800709,30.08376,1903.7808,4.7854022656,3
2025-04-01T15:09:03.790,1743512943790,11.8282391149329,46.3758876496654,30.1752,1903.7808,4.7854022656,3
2025-04-01T15:09:03.890,1743512943890,11.8282330194351,46.3758869373802,30.29712,1903.7808,4.7854022656,3
2025-04-01T15:09:03.990,1743512943990,11.8282268828213,46.3758861297218,30.38856,1904.0856,4.7854022656,3
2025-04-01T15:09:04.050,1743512944050,11.8282207527621,46.3758852551924,30.57144,1904.0856,4.7854022656,3
2025-04-01T15:09:04.190,1743512944190,11.82821459708,46.3758844379418,30.69336,1904.3904,4.7854022656,3
2025-04-01T15:09:04.250,1743512944250,11.8282084300761,46.3758835173701,30.7848,1904.3904,4.7854022656,3
2025-04-01T15:09:04.350,1743512944350,11.828202257312,46.3758826946383,30.99816,1904.6952,4.7854022656,3
2025-04-01T15:09:04.450,1743512944450,11.8281957655512,46.375881879032,31.0896,1904.6952,4.7854022656,3
2025-04-01T15:09:04.550,1743512944550,11.828189582657,46.3758810568483,31.18104,1904.6952,4.68722423488,3
2025-04-01T15:09:04.650,1743512944650,11.8281840020031,46.3758803631993,31.27248,1905,4.7854022656,3
2025-04-01T15:09:04.750,1743512944750,11.8281778818755,46.3758795341641,31.48584,1905,4.7854022656,3
2025-04-01T15:09:04.850,1743512944850,11.8281717253989,46.3758785765941,31.57728,1905.3048,4.7854022656,3
2025-04-01T15:09:04.950,1743512944950,11.8281655576006,46.3758777237156,31.6992,1905.3048,4.7854022656,3
2025-04-01T15:09:05.050,1743512945050,11.8281592954538,46.3758769582626,31.79064,1905.3048,4.7854022656,3
2025-04-01T15:09:05.150,1743512945150,11.8281530974639,46.3758761138799,31.97352,1905.6096,4.7854022656,3
2025-04-01T15:09:05.250,1743512945250,11.8281474888035,46.3758753100583,32.09544,1905.6096,4.7854022656,3
2025-04-01T15:09:05.350,1743512945350,11.8281413486144,46.375874471705,32.18688,1905.9144,4.7854022656,3
2025-04-01T15:09:05.450,1743512945450,11.8281345718224,46.3758735259197,32.27832,1905.9144,4.7854022656,3
2025-04-01T15:09:05.550,1743512945550,11.8281283633052,46.3758726875663,32.49168,1906.2192,4.88365405792,3
2025-04-01T15:09:05.650,1743512945650,11.8281219764201,46.3758718568867,32.58312,1906.2192,4.88365405792,3
2025-04-01T15:09:05.750,1743512945750,11.828115751814,46.375871034429,32.67456,1906.2192,4.76760649728,3
2025-04-01T15:09:05.850,1743512945850,11.8281102128719,46.3758702708944,32.79648,1906.524,4.76760649728,3
2025-04-01T15:09:05.950,1743512945950,11.8281041058536,46.375869459125,32.88792,1906.524,4.76760649728,3
2025-04-01T15:09:06.050,1743512946050,11.8280978174879,46.3758685547229,33.0708,1906.8288,4.7854022656,3
2025-04-01T15:09:06.150,1743512946150,11.8280917124559,46.3758677248655,33.19272,1906.8288,4.7854022656,3
2025-04-01T15:09:06.250,1743512946250,11.8280857335528,46.3758668179969,33.28416,1906.8288,4.7854022656,3
2025-04-01T15:09:06.350,1743512946350,11.8280795967404,46.3758659788214,33.3756,1907.1336,4.7854022656,3
2025-04-01T15:09:06.450,1743512946450,11.8280726306559,46.3758651988431,33.49752,1907.1336,4.7854022656,3
2025-04-01T15:09:06.550,1743512946550,11.8280664012828,46.3758643785778,33.6804,1907.4384,4.7854022656,3
2025-04-01T15:09:06.650,1743512946650,11.8280602173955,46.3758635273436,33.77184,1907.4384,4.7854022656,3
2025-04-01T15:09:06.750,1743512946750,11.8280540072892,46.3758626983084,33.89376,1907.4384,4.7854022656,3
2025-04-01T15:09:06.850,1743512946850,11.8280478661069,46.37586180158,33.89376,1907.4384,4.7854022656,3
2025-04-01T15:09:06.950,1743512946950,11.8280416667266,46.3758609815888,33.9852,1907.7432,4.76760649728,3
2025-04-01T15:09:07.050,1743512947050,11.8280350607547,46.375860037996,34.07664,1907.7432,4.76760649728,3
2025-04-01T15:09:07.150,1743512947150,11.8280288164845,46.3758592226638,34.19856,1907.7432,4.76760649728,3
2025-04-01T15:09:07.250,1743512947250,11.8280231776326,46.375858592049,34.29,1908.048,4.76760649728,3
2025-04-01T15:09:07.350,1743512947350,11.8280169726907,46.3758578071376,34.38144,1908.048,4.76760649728,3
2025-04-01T15:09:07.450,1743512947450,11.8280105858055,46.3758570496323,34.47288,1908.048,4.76760649728,3
2025-04-01T15:09:07.560,1743512947560,11.8280043321998,46.3758562902086,34.5948,1908.3528,4.76760649728,3
2025-04-01T15:09:07.650,1743512947650,11.8279980825667,46.3758555250297,34.5948,1908.3528,4.86621770976,3
2025-04-01T15:09:07.750,1743512947750,11.8279917945983,46.3758547905456,34.68624,1908.3528,4.86621770976,3
2025-04-01T15:09:07.850,1743512947850,11.8279854226103,46.3758540160485,34.77768,1908.3528,4.85078097152,3
2025-04-01T15:09:07.950,1743512947950,11.8279791074298,46.3758533133555,34.8996,1908.6576,4.85078097152,3
2025-04-01T15:09:08.060,1743512948060,11.8279732868333,46.3758527150799,34.8996,1908.6576,4.85078097152,3
2025-04-01T15:09:08.150,1743512948150,11.8279670127688,46.3758520482889,34.99104,1908.6576,4.85078097152,3
2025-04-01T15:09:08.250,1743512948250,11.8279600822388,46.3758512677625,35.08248,1908.6576,4.85078097152,3
2025-04-01T15:09:08.370,1743512948370,11.8279536911826,46.3758506179633,35.08248,1908.6576,4.93660594592,3
2025-04-01T15:09:08.470,1743512948470,11.8279472965509,46.3758499796747,35.17392,1908.9624,4.93660594592,3
2025-04-01T15:09:08.570,1743512948570,11.8279408735154,46.3758493441267,35.29584,1908.9624,4.93660594592,3
2025-04-01T15:09:08.670,1743512948670,11.8279343914874,46.3758487847677,35.29584,1908.9624,4.93660594592,3
2025-04-01T15:09:08.780,1743512948780,11.827927974808,46.3758481547009,35.38728,1908.9624,4.93660594592,3
2025-04-01T15:09:08.880,1743512948880,11.8279220670136,46.3758475520403,35.38728,1908.9624,4.93660594592,3
2025-04-01T15:09:08.980,1743512948980,11.8279157123062,46.3758469359506,35.47872,1909.2672,4.93660594592,3
2025-04-01T15:09:09.080,1743512949080,11.8279087791939,46.375846377962,35.57016,1909.2672,4.93660594592,3
2025-04-01T15:09:09.150,1743512949150,11.82790234146,46.3758457851675,35.57016,1909.2672,4.93660594592,3
2025-04-01T15:09:09.250,1743512949250,11.8278963665294,46.3758451731888,35.69208,1909.2672,4.93660594592,3
2025-04-01T15:09:09.390,1743512949390,11.8278899611718,46.3758445806684,35.69208,1909.2672,4.93660594592,3
2025-04-01T15:09:09.490,1743512949490,11.8278828204931,46.3758439823927,35.78352,1909.572,4.93660594592,3
2025-04-01T15:09:09.590,1743512949590,11.8278763509787,46.375843397546,35.87496,1909.572,4.93660594592,3
2025-04-01T15:09:09.690,1743512949690,11.8278699068887,46.3758429521965,35.87496,1909.572,4.93660594592,3
2025-04-01T15:09:09.750,1743512949750,11.8278634391619,46.3758423936597,35.99688,1909.572,4.93660594592,3
2025-04-01T15:09:09.850,1743512949850,11.8278570262564,46.3758417734592,35.99688,1909.572,4.93660594592,3
2025-04-01T15:09:09.950,1743512949950,11.8278505609131,46.3758412135521,36.08832,1909.8768,4.93660594592,3
2025-04-01T15:09:10.050,1743512950050,11.8278446139891,46.375840770121,36.08832,1909.8768,4.93660594592,3
2025-04-01T15:09:10.150,1743512950150,11.82783819294,46.3758402266576,36.17976,1909.8768,4.93660594592,3
2025-04-01T15:09:10.250,1743512950250,11.8278311924927,46.3758396527733,36.17976,1909.8768,4.93660594592,3
2025-04-01T15:09:10.350,1743512950350,11.8278246987457,46.3758391065693,36.2712,1909.8768,4.93660594592,3
2025-04-01T15:09:10.450,1743512950450,11.8278182189026,46.375838420594,36.2712,1909.8768,4.93660594592,3
2025-04-01T15:09:10.550,1743512950550,11.827811732902,46.3758378499985,36.39312,1910.1816,4.93660594592,3
2025-04-01T15:09:10.650,1743512950650,11.8278053295306,46.3758372983133,36.39312,1910.1816,4.93660594592,3
2025-04-01T15:09:10.750,1743512950750,11.8277988782899,46.3758367312806,36.39312,1910.1816,4.93660594592,3
2025-04-01T15:09:10.850,1743512950850,11.8277925118634,46.3758362281042,36.48456,1910.1816,4.93660594592,3
2025-04-01T15:09:10.950,1743512950950,11.8277860786979,46.3758356799817,36.48456,1910.1816,4.92545229792,3
2025-04-01T15:09:11.050,1743512951050,11.8277801528284,46.3758352296991,36.48456,1910.1816,4.92545229792,3
2025-04-01T15:09:11.150,1743512951150,11.8277737577995,46.3758347045977,36.576,1910.1816,4.92545229792,3
2025-04-01T15:09:11.250,1743512951250,11.8277671871833,46.3758341874442,36.576,1910.1816,4.92545229792,3
2025-04-01T15:09:11.350,1743512951350,11.8277607790449,46.3758336637132,36.576,1910.1816,4.92545229792,3
2025-04-01T15:09:11.450,1743512951450,11.8277542555036,46.3758330879105,36.69792,1910.1816,4.93660594592,3
2025-04-01T15:09:11.550,1743512951550,11.8277478706047,46.3758325507505,36.69792,1910.1816,4.93660594592,3
2025-04-01T15:09:11.650,1743512951650,11.8277409464305,46.3758318869742,36.69792,1910.1816,4.83736261888,3
2025-04-01T15:09:11.750,1743512951750,11.8277345529905,46.375831339948,36.69792,1910.1816,4.83736261888,3
2025-04-01T15:09:11.850,1743512951850,11.8277282000707,46.3758307699006,36.69792,1910.1816,4.83736261888,3
2025-04-01T15:09:11.950,1743512951950,11.8277218423838,46.3758302469918,36.69792,1910.1816,4.82597919232,3
2025-04-01T15:09:12.050,1743512952050,11.8277160053011,46.3758298071235,36.69792,1910.1816,4.82597919232,3
2025-04-01T15:09:12.150,1743512952150,11.8277096881344,46.3758293343679,36.78936,1910.4864,4.82597919232,3
2025-04-01T15:09:12.250,1743512952250,11.8277027883917,46.3758289630149,36.69792,1910.1816,4.81664544416,3
2025-04-01T15:09:12.350,1743512952350,11.8276963721096,46.3758285316425,36.78936,1910.4864,4.91630720064,3
2025-04-01T15:09:12.450,1743512952450,11.8276899065678,46.3758279604989,36.78936,1910.4864,4.91630720064,3
2025-04-01T15:09:12.550,1743512952550,11.8276834475807,46.3758275417334,36.78936,1910.4864,4.91630720064,3
2025-04-01T15:09:12.650,1743512952650,11.8276770471888,46.3758272076527,36.69792,1910.1816,4.91630720064,3
2025-04-01T15:09:12.750,1743512952750,11.8276705786675,46.3758268302704,36.69792,1910.1816,4.91630720064,3
2025-04-01T15:09:12.850,1743512952850,11.8276641413308,46.3758264320594,36.69792,1910.1816,4.91630720064,3
2025-04-01T15:09:12.950,1743512952950,11.8276576660561,46.375826058788,36.69792,1910.1816,4.91630720064,3
2025-04-01T15:09:13.050,1743512953050,11.8276513139308,46.3758257214186,36.69792,1910.1816,4.91630720064,3
2025-04-01T15:09:13.150,1743512953150,11.8276448402452,46.3758253582875,36.69792,1910.1816,4.91630720064,3
2025-04-01T15:09:13.250,1743512953250,11.8276387234942,46.3758250973812,36.69792,1910.1816,4.91630720064,3
2025-04-01T15:09:13.360,1743512953360,11.8276322676851,46.3758247446644,36.69792,1910.1816,4.91630720064,3
2025-04-01T15:09:13.450,1743512953450,11.827625741959,46.3758244231906,36.69792,1910.1816,4.91630720064,3
2025-04-01T15:09:13.560,1743512953560,11.827619256753,46.3758240641704,36.69792,1910.1816,5.01598236832,3
2025-04-01T15:09:13.650,1743512953650,11.8276122568023,46.3758235267363,36.69792,1910.1816,5.01598236832,3
2025-04-01T15:09:13.770,1743512953770,11.8276057039634,46.3758231425024,36.576,1910.1816,5.01598236832,3
2025-04-01T15:09:13.870,1743512953870,11.8275991689017,46.3758226601546,36.576,1910.1816,5.01598236832,3
2025-04-01T15:09:13.950,1743512953950,11.827592597491,46.3758222583809,36.576,1910.1816,5.01598236832,3
2025-04-01T15:09:14.070,1743512954070,11.8275861137747,46.3758219651353,36.576,1910.1816,5.01598236832,3
2025-04-01T15:09:14.150,1743512954150,11.8275795441517,46.3758215619913,36.576,1910.1816,5.01598236832,3
2025-04-01T15:09:14.250,1743512954250,11.8275729742307,46.3758211193824,36.576,1910.1816,5.01598236832,3
2025-04-01T15:09:14.370,1743512954370,11.8275664123542,46.3758207115793,36.576,1910.1816,5.01598236832,3
2025-04-01T15:09:14.480,1743512954480,11.8275599227783,46.3758203002133,36.576,1910.1816,5.01598236832,3
2025-04-01T15:09:14.580,1743512954580,11.8275533740112,46.3758199173498,36.576,1910.1816,5.01598236832,3
2025-04-01T15:09:14.680,1743512954680,11.8275467280157,46.375819416914,36.576,1910.1816,5.01598236832,3
2025-04-01T15:09:14.780,1743512954780,11.8275401695159,46.3758190458351,36.576,1910.1816,5.01598236832,3
2025-04-01T15:09:14.880,1743512954880,11.8275334869729,46.3758187150432,36.576,1910.1816,5.00900005056,3
2025-04-01T15:09:14.980,1743512954980,11.8275269210245,46.3758183532824,36.576,1910.1816,5.01598236832,3
2025-04-01T15:09:15.090,1743512955090,11.8275204161542,46.3758179246506,36.576,1910.1816,5.01598236832,3
2025-04-01T15:09:15.150,1743512955150,11.8275138699693,46.3758175439795,36.48456,1910.1816,5.01598236832,3
2025-04-01T15:09:15.290,1743512955290,11.8275077410027,46.3758172331941,36.48456,1910.1816,5.01598236832,3
2025-04-01T15:09:15.350,1743512955350,11.8275012463618,46.3758168489602,36.48456,1910.1816,5.01598236832,3
2025-04-01T15:09:15.450,1743512955450,11.8274945404799,46.3758164956953,36.48456,1910.1816,5.01598236832,3
2025-04-01T15:09:15.550,1743512955550,11.8274880383905,46.3758161026915,36.48456,1910.1816,5.01598236832,3
2025-04-01T15:09:15.650,1743512955650,11.8274809793479,46.3758155975966,36.48456,1910.1816,4.91630720064,3
2025-04-01T15:09:15.750,1743512955750,11.827474453423,46.375815191986,36.48456,1910.1816,4.91630720064,3
2025-04-01T15:09:15.850,1743512955850,11.8274678130884,46.3758147806201,36.48456,1910.1816,4.91630720064,3
2025-04-01T15:09:15.950,1743512955950,11.8274613271871,46.3758143846016,36.48456,1910.1816,4.91630720064,3
2025-04-01T15:09:16.050,1743512956050,11.8274550202496,46.3758141593233,36.48456,1910.1816,4.91630720064,3
2025-04-01T15:09:16.150,1743512956150,11.8274485802314,46.3758137835853,36.39312,1910.1816,4.91630720064,3
2025-04-01T15:09:16.250,1743512956250,11.8274420028619,46.3758133798931,36.39312,1910.1816,4.91630720064,3
2025-04-01T15:09:16.350,1743512956350,11.8274355517206,46.3758129926446,36.39312,1910.1816,4.91630720064,3
2025-04-01T15:09:16.450,1743512956450,11.8274291484486,46.3758123897099,36.39312,1910.1816,4.91630720064,3
2025-04-01T15:09:16.550,1743512956550,11.8274226889648,46.3758119703962,36.39312,1910.1816,4.91630720064,3
2025-04-01T15:09:16.650,1743512956650,11.8274162066389,46.3758116998977,36.39312,1910.1816,4.91630720064,3
2025-04-01T15:09:16.750,1743512956750,11.8274097393094,46.3758112920946,36.39312,1910.1816,4.91630720064,3
2025-04-01T15:09:16.850,1743512956850,11.8274031180431,46.3758108862099,36.39312,1910.1816,4.91630720064,3
2025-04-01T15:09:16.950,1743512956950,11.8273966274741,46.375810487999,36.2712,1909.8768,4.91630720064,3
2025-04-01T15:09:17.050,1743512957050,11.8273906956458,46.3758101558367,36.2712,1909.8768,4.91630720064,3
2025-04-01T15:09:17.150,1743512957150,11.8273842642679,46.3758097666698,36.2712,1909.8768,4.91630720064,3
2025-04-01T15:09:17.250,1743512957250,11.8273776498543,46.3758093720216,36.2712,1909.8768,4.91630720064,3
2025-04-01T15:09:17.350,1743512957350,11.8273711999047,46.3758089718922,36.2712,1909.8768,4.91630720064,3
2025-04-01T15:09:17.450,1743512957450,11.8273642791073,46.3758083519657,36.2712,1909.8768,4.91630720064,3
2025-04-01T15:09:17.550,1743512957550,11.8273577899286,46.3758079293633,36.2712,1909.8768,4.91630720064,3
2025-04-01T15:09:17.650,1743512957650,11.8273517536219,46.3758075662321,36.2712,1909.8768,4.91630720064,3
2025-04-01T15:09:17.750,1743512957750,11.8273453234358,46.3758071480147,36.2712,1909.8768,4.91630720064,3
2025-04-01T15:09:17.850,1743512957850,11.8273384347168,46.3758068991671,36.17976,1909.8768,4.91630720064,3
2025-04-01T15:09:17.950,1743512957950,11.8273319716578,46.3758065036967,36.17976,1909.8768,4.91630720064,3
2025-04-01T15:09:18.050,1743512958050,11.8273254499041,46.3758059744845,36.17976,1909.8768,4.91630720064,3
2025-04-01T15:09:18.150,1743512958150,11.827318982078,46.3758055675036,36.17976,1909.8768,4.91630720064,3
2025-04-01T15:09:18.250,1743512958250,11.8273125864531,46.3758051939581,36.17976,1909.8768,4.91630720064,3
2025-04-01T15:09:18.350,1743512958350,11.8273061478253,46.3758047825922,36.17976,1909.8768,4.91630720064,3
2025-04-01T15:09:18.450,1743512958450,11.8272997587552,46.375804383285,36.17976,1909.8768,4.91630720064,3
2025-04-01T15:09:18.550,1743512958550,11.8272933344286,46.3758039721931,36.08832,1909.8768,4.91630720064,3
2025-04-01T15:09:18.650,1743512958650,11.8272869073213,46.3758037365004,36.08832,1909.8768,4.91630720064,3
2025-04-01T15:09:18.760,1743512958760,11.8272804736592,46.3758033410301,36.08832,1909.8768,4.91630720064,3
2025-04-01T15:09:18.850,1743512958850,11.827274764493,46.375802807981,36.08832,1909.8768,4.91630720064,3
2025-04-01T15:09:18.960,1743512958960,11.8272683775085,46.3758024138809,36.08832,1909.8768,4.91630720064,3
2025-04-01T15:09:19.050,1743512959050,11.8272617276398,46.37580206089,36.08832,1909.8768,4.91630720064,3
2025-04-01T15:09:19.150,1743512959150,11.8272552834505,46.3758016996774,36.08832,1909.8768,4.91630720064,3
2025-04-01T15:09:19.260,1743512959260,11.8272482913457,46.3758013442199,35.99688,1909.572,4.9091831712,3
2025-04-01T15:09:19.360,1743512959360,11.827241778431,46.3758010147983,35.99688,1909.572,4.9091831712,3
2025-04-01T15:09:19.470,1743512959470,11.8272352737594,46.3758006524894,35.99688,1909.572,4.9091831712,3
2025-04-01T15:09:19.570,1743512959570,11.8272287736562,46.3758003184087,35.99688,1909.572,4.9091831712,3
2025-04-01T15:09:19.670,1743512959670,11.8272222711694,46.3757999950165,35.99688,1909.572,4.9091831712,3
2025-04-01T15:09:19.770,1743512959770,11.8272157895386,46.3757996546324,35.99688,1909.572,4.9091831712,3
2025-04-01T15:09:19.870,1743512959870,11.8272094918374,46.375799402222,35.99688,1909.572,4.9091831712,3
2025-04-01T15:09:19.970,1743512959970,11.8272030282818,46.3757990410093,35.99688,1909.572,4.91630720064,3
2025-04-01T15:09:20.080,1743512960080,11.827196018797,46.3757985553728,35.87496,1909.572,4.91630720064,3
2025-04-01T15:09:20.150,1743512960150,11.8271894911838,46.3757981618209,35.87496,1909.572,4.91630720064,3
2025-04-01T15:09:20.280,1743512960280,11.8271836800221,46.3757977797795,35.87496,1909.572,4.91630720064,3
2025-04-01T15:09:20.380,1743512960380,11.8271772179562,46.3757973947235,35.87496,1909.572,4.91630720064,3
2025-04-01T15:09:20.480,1743512960480,11.8271706650179,46.3757970951745,35.87496,1909.572,4.91630720064,3
2025-04-01T15:09:20.580,1743512960580,11.8271642104005,46.3757967183403,35.87496,1909.572,4.91630720064,3
2025-04-01T15:09:20.680,1743512960680,11.8271576954996,46.3757962724427,35.87496,1909.572,4.91630720064,3
2025-04-01T15:09:20.790,1743512960790,11.8271512442589,46.375795871217,35.87496,1909.572,4.91630720064,3
2025-04-01T15:09:20.890,1743512960890,11.8271448803153,46.375795387499,35.87496,1909.572,4.91630720064,3
2025-04-01T15:09:20.990,1743512960990,11.827138421924,46.3757949838068,35.87496,1909.572,4.91630720064,3
2025-04-01T15:09:21.090,1743512961090,11.8271319656184,46.3757945694262,35.78352,1909.572,4.91630720064,3
2025-04-01T15:09:21.150,1743512961150,11.8271254832924,46.3757941840961,35.78352,1909.572,4.91630720064,3
2025-04-01T15:09:21.250,1743512961250,11.8271194610884,46.3757938798881,35.78352,1909.572,4.91630720064,3
2025-04-01T15:09:21.350,1743512961350,11.8271130163031,46.375793512372,35.78352,1909.572,4.91630720064,3
2025-04-01T15:09:21.450,1743512961450,11.8271063490545,46.3757931158054,35.78352,1909.572,5.01598236832,3
2025-04-01T15:09:21.550,1743512961550,11.8270998699066,46.3757927455487,35.78352,1909.572,5.01598236832,3
2025-04-01T15:09:21.650,1743512961650,11.8270929011406,46.3757922722449,35.78352,1909.572,5.01598236832,3
2025-04-01T15:09:21.750,1743512961750,11.8270863473085,46.3757918762264,35.78352,1909.572,5.01598236832,3
2025-04-01T15:09:21.850,1743512961850,11.8270803022622,46.3757915931212,35.78352,1909.572,5.01598236832,3
2025-04-01T15:09:21.950,1743512961950,11.8270738133814,46.3757912091614,35.78352,1909.572,5.01598236832,3
2025-04-01T15:09:22.050,1743512962050,11.8270666924662,46.3757907177696,35.69208,1909.2672,5.01598236832,3
2025-04-01T15:09:22.150,1743512962150,11.8270601881918,46.3757903184624,35.69208,1909.2672,4.91630720064,3
2025-04-01T15:09:22.250,1743512962250,11.8270538012072,46.3757900197356,35.69208,1909.2672,4.91630720064,3
2025-04-01T15:09:22.350,1743512962350,11.8270473434118,46.3757896196062,35.69208,1909.2672,4.91630720064,3
2025-04-01T15:09:22.450,1743512962450,11.827040855127,46.37578915288,35.69208,1909.2672,4.91630720064,3
2025-04-01T15:09:22.550,1743512962550,11.8270343956432,46.3757887585058,35.69208,1909.2672,4.91630720064,3
2025-04-01T15:09:22.650,1743512962650,11.8270279893918,46.3757883893454,35.69208,1909.2672,4.91630720064,3
2025-04-01T15:09:22.750,1743512962750,11.8270215211685,46.3757880048374,35.69208,1909.2672,4.91630720064,3
2025-04-01T15:09:22.850,1743512962850,11.8270149935553,46.3757875038535,35.57016,1909.2672,4.91630720064,3
2025-04-01T15:09:22.950,1743512962950,11.8270085119246,46.3757871081091,35.57016,1909.2672,4.91630720064,3
2025-04-01T15:09:23.050,1743512963050,11.8270021944599,46.3757867205865,35.57016,1909.2672,4.91630720064,3
2025-04-01T15:09:23.150,1743512963150,11.8269957182914,46.375786329227,35.57016,1909.2672,4.91630720064,3
2025-04-01T15:09:23.250,1743512963250,11.8269895925028,46.37578596637,35.57016,1909.2672,4.91630720064,3
2025-04-01T15:09:23.350,1743512963350,11.8269831423546,46.3757855766549,35.57016,1909.2672,4.91630720064,3
2025-04-01T15:09:23.450,1743512963450,11.8269766690662,46.375785156519,35.57016,1909.2672,4.91630720064,3
2025-04-01T15:09:23.550,1743512963550,11.8269702204077,46.3757847654336,35.57016,1909.2672,4.91630720064,3
2025-04-01T15:09:23.650,1743512963650,11.826963153718,46.3757843140548,35.57016,1909.2672,4.91630720064,3
2025-04-01T15:09:23.740,1743512963740,11.8269566681146,46.3757839224213,35.57016,1909.2672,4.91630720064,3
2025-04-01T15:09:23.850,1743512963850,11.8269502121069,46.3757835187291,35.57016,1909.2672,4.91630720064,3
2025-04-01T15:09:23.950,1743512963950,11.826943752921,46.3757831292881,35.47872,1909.2672,4.91630720064,3
2025-04-01T15:09:24.050,1743512964050,11.8269372903585,46.3757827250478,35.47872,1909.2672,4.91630720064,3
2025-04-01T15:09:24.150,1743512964150,11.8269308478575,46.3757823298514,35.47872,1909.2672,4.91630720064,3
2025-04-01T15:09:24.250,1743512964250,11.8269249677718,46.3757819447954,35.47872,1909.2672,4.91630720064,3
2025-04-01T15:09:24.350,1743512964350,11.8269185795956,46.3757815427476,35.47872,1909.2672,4.91630720064,3
2025-04-01T15:09:24.450,1743512964450,11.8269118817582,46.3757811143899,35.47872,1909.2672,4.91630720064,3
2025-04-01T15:09:24.550,1743512964550,11.8269054330997,46.3757807052164,35.47872,1909.2672,4.91630720064,3
2025-04-01T15:09:24.660,1743512964660,11.8268985065421,46.3757802732959,35.47872,1909.2672,4.91630720064,3
2025-04-01T15:09:24.760,1743512964760,11.8268919879666,46.3757798756331,35.47872,1909.2672,4.91630720064,3
2025-04-01T15:09:24.860,1743512964860,11.826885517161,46.3757793645089,35.38728,1908.9624,4.91630720064,3
2025-04-01T15:09:24.960,1743512964960,11.8268790149722,46.3757789739716,35.38728,1908.9624,4.91630720064,3
2025-04-01T15:09:25.050,1743512965050,11.8268725276805,46.3757787908987,35.38728,1908.9624,4.9091831712,3
2025-04-01T15:09:25.150,1743512965150,11.8268660468442,46.3757784299601,35.38728,1908.9624,4.9091831712,3
2025-04-01T15:09:25.270,1743512965270,11.826859108071,46.3757779994099,35.38728,1908.9624,4.9091831712,3
2025-04-01T15:09:25.370,1743512965370,11.8268525841325,46.3757776425822,35.38728,1908.9624,4.9091831712,3
2025-04-01T15:09:25.470,1743512965470,11.8268466496226,46.3757772476599,35.38728,1908.9624,4.9091831712,3
2025-04-01T15:09:25.550,1743512965550,11.826840196495,46.3757769039871,35.29584,1908.9624,4.9091831712,3
2025-04-01T15:09:25.650,1743512965650,11.8268338211302,46.3757766285556,35.29584,1908.9624,4.9091831712,3
2025-04-01T15:09:25.780,1743512965780,11.8268273931289,46.3757763136592,35.29584,1908.9624,4.9091831712,3
2025-04-01T15:09:25.880,1743512965880,11.8268214891086,46.3757760426127,35.29584,1908.9624,4.9091831712,3
2025-04-01T15:09:25.950,1743512965950,11.8268151180143,46.3757757474487,35.17392,1908.9624,4.9091831712,3
2025-04-01T15:09:26.080,1743512966080,11.8268080757558,46.3757755268294,35.17392,1908.9624,4.9091831712,3
2025-04-01T15:09:26.150,1743512966150,11.8268016395116,46.3757752552348,35.17392,1908.9624,4.90408780928,3
2025-04-01T15:09:26.290,1743512966290,11.826795757241,46.3757750285861,35.08248,1908.6576,4.90408780928,3
2025-04-01T15:09:26.390,1743512966390,11.8267893805852,46.3757747800126,35.08248,1908.6576,4.90408780928,3
2025-04-01T15:09:26.490,1743512966490,11.8267822897621,46.3757744810118,35.08248,1908.6576,4.90408780928,3
2025-04-01T15:09:26.550,1743512966550,11.8267758543124,46.3757742439488,34.99104,1908.6576,4.90408780928,3
2025-04-01T15:09:26.650,1743512966650,11.8267693769521,46.3757740754012,34.99104,1908.6576,4.90408780928,3
2025-04-01T15:09:26.750,1743512966750,11.8267629422968,46.375773859715,34.99104,1908.6576,4.90408780928,3
2025-04-01T15:09:26.850,1743512966850,11.8267566180788,46.3757734902804,34.8996,1908.6576,4.90408780928,3
2025-04-01T15:09:26.950,1743512966950,11.8267502104866,46.3757732863789,34.8996,1908.6576,4.90102826752,3
2025-04-01T15:09:27.050,1743512967050,11.8267438570206,46.3757732356776,34.8996,1908.6576,4.90102826752,3
2025-04-01T15:09:27.150,1743512967150,11.8267374438669,46.3757730671299,34.77768,1908.3528,4.90102826752,3
2025-04-01T15:09:27.250,1743512967250,11.8267315176499,46.3757729632607,34.77768,1908.3528,4.90102826752,3
2025-04-01T15:09:27.350,1743512967350,11.8267251256004,46.3757728043052,34.68624,1908.3528,4.90102826752,3
2025-04-01T15:09:27.450,1743512967450,11.8267180967493,46.3757725787528,34.68624,1908.3528,4.90102826752,3
2025-04-01T15:09:27.550,1743512967550,11.8267116219713,46.3757724178788,34.5948,1908.3528,4.90102826752,3
2025-04-01T15:09:27.650,1743512967650,11.8267052072781,46.3757721747865,34.5948,1908.3528,4.90102826752,3
2025-04-01T15:09:27.750,1743512967750,11.8266987399982,46.375772020216,34.47288,1908.048,4.90102826752,3
2025-04-01T15:09:27.850,1743512967850,11.8266922875657,46.3757719377236,34.47288,1908.048,4.90102826752,3
2025-04-01T15:09:27.950,1743512967950,11.8266858531587,46.375771792197,34.47288,1908.048,4.90102826752,3
2025-04-01T15:09:28.050,1743512968050,11.8266794921944,46.3757716727063,34.38144,1908.048,4.90102826752,3
2025-04-01T15:09:28.150,1743512968150,11.8266730845526,46.3757715362239,34.38144,1908.048,4.80104911264,3
2025-04-01T15:09:28.250,1743512968250,11.8266665317633,46.3757713909714,34.29,1908.048,4.80104911264,3
2025-04-01T15:09:28.350,1743512968350,11.8266601224331,46.3757712470892,34.29,1908.048,4.90102826752,3
2025-04-01T15:09:28.450,1743512968450,11.826653800251,46.3757710788156,34.19856,1907.7432,4.80104911264,3
2025-04-01T15:09:28.550,1743512968550,11.8266474028385,46.3757709341113,34.19856,1907.7432,4.80104911264,3
2025-04-01T15:09:28.650,1743512968650,11.8266410281193,46.3757709264376,34.07664,1907.7432,4.80104911264,3
2025-04-01T15:09:28.750,1743512968750,11.8266346446604,46.3757708022879,34.07664,1907.7432,4.80104911264,3
2025-04-01T15:09:28.850,1743512968850,11.8266282564841,46.375770646347,33.9852,1907.7432,4.80104911264,3
2025-04-01T15:09:28.950,1743512968950,11.8266218684569,46.3757705435741,33.9852,1907.7432,4.80104911264,3
2025-04-01T15:09:29.050,1743512969050,11.8266154426903,46.3757704021585,33.89376,1907.4384,4.80104911264,3
2025-04-01T15:09:29.150,1743512969150,11.8266090425964,46.3757702980152,33.77184,1907.4384,4.90102826752,3
2025-04-01T15:09:29.250,1743512969250,11.8266030723832,46.3757701201495,33.77184,1907.4384,4.90102826752,3
2025-04-01T15:09:29.350,1743512969350,11.8265967002958,46.375770001755,33.6804,1907.4384,4.90102826752,3
2025-04-01T15:09:29.450,1743512969450,11.8265898421656,46.3757699107667,33.6804,1907.4384,4.90102826752,3
2025-04-01T15:09:29.560,1743512969560,11.8265833979763,46.3757697931944,33.58896,1907.1336,4.90102826752,3
2025-04-01T15:09:29.650,1743512969650,11.8265769427134,46.3757697202941,33.58896,1907.1336,4.90102826752,3
2025-04-01T15:09:29.760,1743512969760,11.8265704940052,46.3757696103956,33.49752,1907.1336,4.90102826752,3
2025-04-01T15:09:29.850,1743512969850,11.8265639582979,46.3757694015609,33.3756,1907.1336,4.90102826752,3
2025-04-01T15:09:29.950,1743512969950,11.8265575205639,46.375769280974,33.3756,1907.1336,4.90102826752,3
2025-04-01T15:09:30.070,1743512970070,11.8265511055232,46.3757692220508,33.28416,1906.8288,4.90102826752,3
2025-04-01T15:09:30.150,1743512970150,11.8265446751881,46.3757691069451,33.28416,1906.8288,4.90102826752,3
2025-04-01T15:09:30.280,1743512970280,11.8265382417743,46.3757690436369,33.19272,1906.8288,4.90102826752,3
2025-04-01T15:09:30.380,1743512970380,11.8265318091551,46.375768936479,33.0708,1906.8288,4.90102826752,3
2025-04-01T15:09:30.450,1743512970450,11.8265254471977,46.3757687191484,33.0708,1906.8288,4.90102826752,3
2025-04-01T15:09:30.580,1743512970580,11.8265189994827,46.3757686032205,32.97936,1906.524,4.90102826752,3
2025-04-01T15:09:30.680,1743512970680,11.826512458909,46.3757685506008,32.88792,1906.524,4.90102826752,3
2025-04-01T15:09:30.780,1743512970780,11.8265060054338,46.3757684464575,32.79648,1906.524,4.90102826752,3
2025-04-01T15:09:30.890,1743512970890,11.8264995260872,46.3757683790384,32.79648,1906.524,4.90102826752,3
2025-04-01T15:09:30.990,1743512970990,11.8264930888994,46.3757682842132,32.67456,1906.2192,4.90102826752,3
2025-04-01T15:09:31.090,1743512971090,11.8264865272712,46.3757682236457,32.58312,1906.2192,4.90000812224,3
2025-04-01T15:09:31.150,1743512971150,11.8264800944036,46.3757681471826,32.49168,1906.2192,4.90000812224,3
2025-04-01T15:09:31.290,1743512971290,11.8264741859141,46.3757679262893,32.49168,1906.2192,4.90000812224,3
2025-04-01T15:09:31.390,1743512971390,11.8264678079175,46.3757678501003,32.36976,1905.9144,4.90000812224,3
2025-04-01T15:09:31.450,1743512971450,11.82646093201,46.3757679353333,32.27832,1905.9144,4.90000812224,3
2025-04-01T15:09:31.550,1743512971550,11.8264545022212,46.3757679029941,32.18688,1905.9144,4.90000812224,3
2025-04-01T15:09:31.650,1743512971650,11.8264479844401,46.3757678106355,32.09544,1905.6096,4.90000812224,3
2025-04-01T15:09:31.750,1743512971750,11.8264415567865,46.3757677917252,32.09544,1905.6096,4.90000812224,3
2025-04-01T15:09:31.850,1743512971850,11.8264350491354,46.3757678106355,31.97352,1905.6096,4.90000812224,3
2025-04-01T15:09:31.950,1743512971950,11.8264286426356,46.3757677941918,31.88208,1905.6096,4.80000795648,3
2025-04-01T15:09:32.050,1743512972050,11.8264223481621,46.375767719099,31.79064,1905.3048,4.80000795648,3
2025-04-01T15:09:32.150,1743512972150,11.8264159736415,46.3757676971741,31.6992,1905.3048,4.80000795648,3
2025-04-01T15:09:32.250,1743512972250,11.8264099882829,46.3757677481495,31.57728,1905.3048,4.80000795648,3
2025-04-01T15:09:32.350,1743512972350,11.8264036439042,46.3757677437645,31.57728,1905.3048,4.80000795648,3
2025-04-01T15:09:32.450,1743512972450,11.8263968076727,46.3757678070727,31.48584,1905,4.90000812224,3
2025-04-01T15:09:32.550,1743512972550,11.8263903757487,46.3757678407822,31.3944,1905,4.90000812224,3
2025-04-01T15:09:32.650,1743512972650,11.8263838402898,46.3757677645932,31.27248,1905,4.90000812224,3
2025-04-01T15:09:32.750,1743512972750,11.8263773543389,46.3757678092652,31.18104,1904.6952,4.90000812224,3
2025-04-01T15:09:32.850,1743512972850,11.8263708626526,46.3757678681884,31.18104,1904.6952,4.90000812224,3
2025-04-01T15:09:32.950,1743512972950,11.8263643627977,46.3757679136825,31.0896,1904.6952,4.90000812224,3
2025-04-01T15:09:33.050,1743512973050,11.8263577261377,46.3757680063152,30.99816,1904.6952,4.90000812224,3
2025-04-01T15:09:33.150,1743512973150,11.826351231174,46.3757680224848,30.87624,1904.3904,4.90000812224,3
2025-04-01T15:09:33.250,1743512973250,11.8263454713078,46.3757679717835,30.7848,1904.3904,4.90000812224,3
2025-04-01T15:09:33.350,1743512973350,11.826339083777,46.3757679410886,30.7848,1904.3904,4.90000812224,3
2025-04-01T15:09:33.450,1743512973450,11.8263319525828,46.3757677717188,30.69336,1904.3904,4.90000812224,3
2025-04-01T15:09:33.550,1743512973550,11.8263255231416,46.3757677106031,30.57144,1904.0856,4.90000812224,3
2025-04-01T15:09:33.650,1743512973650,11.8263191712149,46.3757676977222,30.48,1904.0856,4.90000812224,3
2025-04-01T15:09:33.750,1743512973750,11.826312741724,46.3757676442803,30.38856,1904.0856,4.90000812224,3
2025-04-01T15:09:33.850,1743512973850,11.8263062684108,46.3757675779575,30.38856,1904.0856,4.90000812224,3
2025-04-01T15:09:33.950,1743512973950,11.8262998264808,46.3757675261599,30.29712,1903.7808,4.90000812224,3
2025-04-01T15:09:34.050,1743512974050,11.8262933222313,46.3757676440062,30.1752,1903.7808,4.90000812224,3
2025-04-01T15:09:34.150,1743512974150,11.8262868799785,46.3757676059117,30.08376,1903.7808,4.90000812224,3
2025-04-01T15:09:34.240,1743512974240,11.8262805602048,46.3757673891293,29.99232,1903.7808,4.90000812224,3
2025-04-01T15:09:34.350,1743512974350,11.8262741292738,46.3757673392501,29.99232,1903.7808,4.90000812224,3
2025-04-01T15:09:34.450,1743512974450,11.8262676320507,46.3757673132143,29.8704,1903.476,4.90000812224,3
2025-04-01T15:09:34.550,1743512974550,11.8262611889538,46.3757672756679,29.77896,1903.476,4.90000812224,3
2025-04-01T15:09:34.650,1743512974650,11.8262548227756,46.3757672723792,29.68752,1903.476,4.90000812224,3
2025-04-01T15:09:34.750,1743512974750,11.8262483827078,46.3757672455212,29.59608,1903.1712,4.90000812224,3
2025-04-01T15:09:34.860,1743512974860,11.8262420275038,46.3757671937236,29.59608,1903.1712,4.90000812224,3
2025-04-01T15:09:34.950,1743512974950,11.8262355825944,46.3757671608363,29.47416,1903.1712,4.90000812224,3
2025-04-01T15:09:35.050,1743512975050,11.8262290607911,46.3757672392178,29.38272,1903.1712,4.90000812224,3
2025-04-01T15:09:35.150,1743512975150,11.8262225840764,46.3757672200335,29.29128,1902.8664,4.90000812224,3
2025-04-01T15:09:35.260,1743512975260,11.826216688473,46.3757671383633,29.19984,1902.8664,4.90000812224,3
2025-04-01T15:09:35.360,1743512975360,11.8262102343274,46.3757671268527,29.19984,1902.8664,4.90000812224,3
2025-04-01T15:09:35.450,1743512975450,11.8262031325054,46.3757670588855,29.07792,1902.8664,5.000008288,3
2025-04-01T15:09:35.550,1743512975550,11.8261965833163,46.3757670424418,28.98648,1902.5616,5.000008288,3
2025-04-01T15:09:35.670,1743512975670,11.8261894881483,46.375767092321,28.89504,1902.5616,5.000008288,3
2025-04-01T15:09:35.770,1743512975770,11.8261828905683,46.3757670758773,28.89504,1902.5616,5.000008288,3
2025-04-01T15:09:35.870,1743512975870,11.8261770320089,46.3757670862916,28.77312,1902.5616,4.90000812224,3
2025-04-01T15:09:35.950,1743512975950,11.8261705332712,46.3757670772476,28.68168,1902.2568,4.90000812224,3
2025-04-01T15:09:36.050,1743512976050,11.8261646674992,46.3757671123274,28.59024,1902.2568,4.90000812224,3
2025-04-01T15:09:36.150,1743512976150,11.8261582396718,46.3757671123274,28.4988,1902.2568,4.90000812224,3
2025-04-01T15:09:36.280,1743512976280,11.8261515522375,46.3757669898221,28.4988,1902.2568,4.90000812224,3
2025-04-01T15:09:36.380,1743512976380,11.826145075796,46.3757669651566,28.37688,1901.952,5.000008288,3
2025-04-01T15:09:36.480,1743512976480,11.826138462239,46.3757669640603,28.28544,1901.952,5.000008288,3
2025-04-01T15:09:36.580,1743512976580,11.8261319594543,46.3757669363801,28.194,1901.952,5.000008288,3
2025-04-01T15:09:36.650,1743512976650,11.8261248892762,46.3757669281583,28.194,1901.952,5.000008288,3
2025-04-01T15:09:36.790,1743512976790,11.8261183508253,46.37576689116,28.07208,1901.6472,5.000008288,3
2025-04-01T15:09:36.890,1743512976890,11.826111962351,46.3757669182921,27.98064,1901.6472,4.90000812224,3
2025-04-01T15:09:36.990,1743512976990,11.8261054712978,46.375766890886,27.8892,1901.6472,4.90000812224,3
2025-04-01T15:09:37.090,1743512977090,11.8260989614618,46.3757667916758,27.8892,1901.6472,4.90000812224,3
2025-04-01T15:09:37.150,1743512977150,11.8260924938839,46.3757667587884,27.79776,1901.3424,4.90000812224,3
2025-04-01T15:09:37.250,1743512977250,11.8260860846779,46.3757668393624,27.67584,1901.3424,4.90000812224,3
2025-04-01T15:09:37.350,1743512977350,11.8260796214078,46.3757668220966,27.5844,1901.3424,4.90000812224,3
2025-04-01T15:09:37.450,1743512977450,11.8260732248023,46.3757667346711,27.49296,1901.0376,4.90000812224,3
2025-04-01T15:09:37.550,1743512977550,11.8260667578079,46.375766729738,27.49296,1901.0376,4.90000812224,3
2025-04-01T15:09:37.650,1743512977650,11.8260601578756,46.3757666590302,27.37104,1901.0376,4.90000812224,3
2025-04-01T15:09:37.750,1743512977750,11.8260536861327,46.3757666480677,27.2796,1901.0376,4.90000812224,3
2025-04-01T15:09:37.850,1743512977850,11.8260472743011,46.3757667127462,27.18816,1900.7328,4.90000812224,3
2025-04-01T15:09:37.950,1743512977950,11.8260408207699,46.3757667072649,27.18816,1900.7328,4.90000812224,3
2025-04-01T15:09:38.050,1743512978050,11.8260345664317,46.3757665762637,27.09672,1900.7328,4.90000812224,3
2025-04-01T15:09:38.150,1743512978150,11.8260281326331,46.375766546665,26.9748,1900.7328,4.90000812224,3
2025-04-01T15:09:38.250,1743512978250,11.8260216816779,46.3757665609162,26.88336,1900.428,4.90000812224,3
2025-04-01T15:09:38.350,1743512978350,11.8260152413742,46.375766528577,26.79192,1900.428,4.90000812224,3
2025-04-01T15:09:38.450,1743512978450,11.8260089362493,46.3757663792136,26.67,1900.428,4.90000812224,3
2025-04-01T15:09:38.550,1743512978550,11.8260025143683,46.3757663345416,26.67,1900.428,4.90000812224,3
2025-04-01T15:09:38.650,1743512978650,11.825996073928,46.3757663789396,26.57856,1900.1232,4.90000812224,3
2025-04-01T15:09:38.750,1743512978750,11.8259896602187,46.3757663485188,26.48712,1900.1232,4.90000812224,3
2025-04-01T15:09:38.850,1743512978850,11.8259837142707,46.3757662605451,26.39568,1900.1232,4.90000812224,3
2025-04-01T15:09:38.950,1743512978950,11.825977357535,46.375766237524,26.39568,1900.1232,4.90000812224,3
2025-04-01T15:09:39.050,1743512979050,11.8259704721043,46.3757661810674,26.27376,1899.8184,4.90000812224,3
2025-04-01T15:09:39.150,1743512979150,11.8259640853924,46.3757661522909,26.18232,1899.8184,4.90000812224,3
2025-04-01T15:09:39.250,1743512979250,11.8259582228293,46.3757660747316,26.09088,1899.8184,4.80000795648,3
2025-04-01T15:09:39.350,1743512979350,11.8259519263139,46.3757660432146,25.99944,1899.5136,4.80000795648,3
2025-04-01T15:09:39.450,1743512979450,11.8259448608145,46.3757659629146,25.99944,1899.5136,4.80000795648,3
2025-04-01T15:09:39.550,1743512979550,11.8259385316742,46.3757659292051,25.87752,1899.5136,4.80000795648,3
2025-04-01T15:09:39.650,1743512979650,11.8259323180904,46.3757658732966,25.78608,1899.5136,4.80000795648,3
2025-04-01T15:09:39.750,1743512979750,11.8259260249095,46.3757658384908,25.69464,1899.2088,4.80000795648,3
2025-04-01T15:09:39.850,1743512979850,11.8259197265814,46.3757659182426,25.57272,1899.2088,4.80000795648,3
2025-04-01T15:09:39.950,1743512979950,11.8259134452981,46.3757658987843,25.57272,1899.2088,4.80000795648,3
2025-04-01T15:09:40.040,1743512980040,11.8259077104467,46.3757659437303,25.48128,1899.2088,4.80000795648,3
2025-04-01T15:09:40.150,1743512980150,11.8259014742426,46.3757659368788,25.38984,1898.904,4.80000795648,3
2025-04-01T15:09:40.250,1743512980250,11.825894450829,46.3757658075219,25.2984,1898.904,4.80000795648,3
2025-04-01T15:09:40.350,1743512980350,11.8258881347237,46.3757657845008,25.17648,1898.904,4.80000795648,3
2025-04-01T15:09:40.450,1743512980450,11.8258819786878,46.3757658135512,25.17648,1898.904,4.80000795648,3
2025-04-01T15:09:40.550,1743512980550,11.8258756749222,46.3757658023147,25.08504,1898.5992,4.80000795648,3
2025-04-01T15:09:40.650,1743512980650,11.8258694969192,46.3757658606898,24.9936,1898.5992,4.80000795648,3
2025-04-01T15:09:40.750,1743512980750,11.8258632011671,46.3757658859034,24.87168,1898.5992,4.80000795648,3
2025-04-01T15:09:40.850,1743512980850,11.8258568269073,46.375766004846,24.78024,1898.2944,4.80000795648,3
2025-04-01T15:09:40.950,1743512980950,11.8258504963332,46.3757660733613,24.6888,1898.2944,4.80000795648,3
2025-04-01T15:09:41.060,1743512981060,11.8258440840857,46.3757661550316,24.59736,1898.2944,4.80000795648,3
2025-04-01T15:09:41.150,1743512981150,11.8258377176965,46.3757662271097,24.47544,1897.9896,4.80000795648,3
2025-04-01T15:09:41.260,1743512981260,11.8258319972332,46.3757661618831,24.384,1897.9896,4.80000795648,3
2025-04-01T15:09:41.360,1743512981360,11.8258256929773,46.3757661980592,24.384,1897.9896,4.80000795648,3
2025-04-01T15:09:41.460,1743512981460,11.8258194024515,46.3757663246755,24.29256,1897.9896,4.80000795648,3
2025-04-01T15:09:41.570,1743512981570,11.8258131087353,46.37576634523,24.17064,1897.6848,4.80000795648,3
2025-04-01T15:09:41.650,1743512981650,11.8258060862403,46.3757663063134,24.0792,1897.6848,4.80000795648,3
2025-04-01T15:09:41.770,1743512981770,11.8257996991069,46.3757663213867,23.98776,1897.6848,4.80000795648,3
2025-04-01T15:09:41.870,1743512981870,11.8257934925884,46.3757663962054,23.89632,1897.38,4.80000795648,3
2025-04-01T15:09:41.950,1743512981950,11.8257871052191,46.3757664485512,23.7744,1897.38,4.80000795648,3
2025-04-01T15:09:42.080,1743512982080,11.8257805661724,46.3757664710242,23.68296,1897.38,4.90000812224,3
2025-04-01T15:09:42.150,1743512982150,11.8257741706718,46.3757665439245,23.68296,1897.38,4.90102826752,3
2025-04-01T15:09:42.280,1743512982280,11.8257678871352,46.3757667017838,23.59152,1897.38,4.80104911264,3
2025-04-01T15:09:42.380,1743512982380,11.8257615168602,46.3757667897574,23.4696,1897.0752,4.80104911264,3
2025-04-01T15:09:42.450,1743512982450,11.8257550851472,46.3757668618355,23.37816,1897.0752,4.80104911264,3
2025-04-01T15:09:42.580,1743512982580,11.8257487199,46.375766953646,23.28672,1897.0752,4.80104911264,3
2025-04-01T15:09:42.690,1743512982690,11.825742427239,46.3757671284971,23.19528,1896.7704,4.80104911264,3
2025-04-01T15:09:42.790,1743512982790,11.8257360704708,46.3757672279813,23.07336,1896.7704,4.80104911264,3
2025-04-01T15:09:42.890,1743512982890,11.825729868831,46.3757672288035,22.98192,1896.7704,4.80104911264,3
2025-04-01T15:09:42.990,1743512982990,11.8257235657916,46.3757673219843,22.89048,1896.4656,4.80104911264,3
2025-04-01T15:09:43.090,1743512983090,11.8257171381874,46.3757674584668,22.79904,1896.4656,4.70107129888,3
2025-04-01T15:09:43.150,1743512983150,11.8257110220319,46.3757675483589,22.79904,1896.4656,4.60000762496,3
2025-04-01T15:09:43.250,1743512983250,11.8257057719689,46.3757676231776,22.67712,1896.4656,4.40000729344,3
2025-04-01T15:09:43.350,1743512983350,11.8257002126171,46.3757676960779,22.58568,1896.1608,4.20000696192,3
2025-04-01T15:09:43.450,1743512983450,11.8256944323164,46.3757679016238,22.49424,1896.1608,3.90000646464,3
2025-04-01T15:09:43.550,1743512983550,11.8256894974013,46.3757679885012,22.37232,1896.1608,3.701357088,3
2025-04-01T15:09:43.650,1743512983650,11.8256849787362,46.3757680805858,22.37232,1896.1608,3.40147550336,3
2025-04-01T15:09:43.750,1743512983750,11.8256808212513,46.3757681819885,22.28088,1895.856,3.10161761184,3
2025-04-01T15:09:43.850,1743512983850,11.825677083542,46.3757682036393,22.18944,1895.856,2.801789672,3
2025-04-01T15:09:43.950,1743512983950,11.8256737212398,46.3757683127157,22.18944,1895.856,2.50200330688,3
2025-04-01T15:09:44.050,1743512984050,11.8256706993861,46.3757683308037,22.18944,1895.856,2.20227505696,3
2025-04-01T15:09:44.150,1743512984150,11.8256681033412,46.3757684130221,22.098,1895.856,1.90263263872,3
2025-04-01T15:09:44.250,1743512984250,11.8256656848451,46.3757685152469,22.098,1895.856,1.60000265216,3
2025-04-01T15:09:44.350,1743512984350,11.8256638274732,46.375768547038,22.098,1895.856,1.30000215488,3
2025-04-01T15:09:44.450,1743512984450,11.8256620758212,46.3757684023337,22.098,1895.856,1.0000016576,3
2025-04-01T15:09:44.550,1743512984550,11.8256609021024,46.3757683708166,22.098,1895.856,0.80000132608,3
2025-04-01T15:09:44.650,1743512984650,11.8256599860786,46.375768309701,22.098,1895.856,0.5000008288,3
2025-04-01T15:09:44.750,1743512984750,11.8256594453875,46.3757682529703,22.098,1895.856,0.30000049728,3
2025-04-01T15:09:44.850,1743512984850,11.8256591229638,46.3757682006246,22.098,1895.856,0.10000016576,3
2025-04-01T15:09:44.950,1743512984950,11.8256591166816,46.3757681367683,22.098,1895.856,0,3
2025-04-01T15:09:45.050,1743512985050,11.8256591108213,46.3757681874697,22.098,1895.856,0.20000033152,3
2025-04-01T15:09:45.150,1743512985150,11.8256596390967,46.3757683181969,22.098,1895.856,0.41231080352,3
2025-04-01T15:09:45.250,1743512985250,11.8256605848883,46.3757685533416,22.098,1895.856,0.76157823808,3
2025-04-01T15:09:45.350,1743512985350,11.825661669968,46.375768980055,22.18944,1895.856,0.9848872352,3
2025-04-01T15:09:45.440,1743512985440,11.8256629396476,46.375769481313,22.18944,1895.856,1.16619190688,3
2025-04-01T15:09:45.540,1743512985540,11.8256644660541,46.3757701631774,22.18944,1895.856,1.38924653824,3
2025-04-01T15:09:45.650,1743512985650,11.8256663278193,46.375770845864,22.18944,1895.856,1.5264359616,3
2025-04-01T15:09:45.750,1743512985750,11.8256681510756,46.3757716565371,22.28088,1895.856,1.61245405728,3
2025-04-01T15:09:45.850,1743512985850,11.8256698674205,46.3757721964377,22.28088,1895.856,1.70000281792,3
2025-04-01T15:09:45.950,1743512985950,11.8256718103008,46.3757730082071,22.37232,1896.1608,1.70000281792,3
2025-04-01T15:09:46.050,1743512986050,11.8256740113229,46.3757738290205,22.37232,1896.1608,1.70000281792,3
2025-04-01T15:09:46.150,1743512986150,11.825676080481,46.3757746654554,22.37232,1896.1608,1.835758584,3
2025-04-01T15:09:46.250,1743512986250,11.8256779298322,46.3757754402266,22.49424,1896.1608,1.835758584,3
2025-04-01T15:09:46.360,1743512986360,11.8256800840775,46.3757763895747,22.49424,1896.1608,1.88679892896,3
2025-04-01T15:09:46.460,1743512986460,11.8256822684398,46.3757773652328,22.58568,1896.1608,2.02484890432,3
2025-04-01T15:09:46.560,1743512986560,11.825684517232,46.3757785099866,22.58568,1896.1608,2.0808683808,3
2025-04-01T15:09:46.650,1743512986650,11.825687111662,46.3757799068767,22.58568,1896.1608,2.1400967104,3
2025-04-01T15:09:46.760,1743512986760,11.8256894430588,46.3757812700574,22.67712,1896.4656,2.34307835168,3
2025-04-01T15:09:46.850,1743512986850,11.8256917831703,46.3757828089112,22.67712,1896.4656,2.40832249856,3
2025-04-01T15:09:46.970,1743512986970,11.8256941631813,46.3757843661272,22.79904,1896.4656,2.47588767712,3
2025-04-01T15:09:47.070,1743512987070,11.8256966517425,46.3757858942927,22.79904,1896.4656,2.54558836576,3
2025-04-01T15:09:47.150,1743512987150,11.8256991173869,46.375787632115,22.89048,1896.4656,2.6870099168,3
2025-04-01T15:09:47.270,1743512987270,11.8257014293181,46.3757894006322,22.89048,1896.4656,2.75862706592,3
2025-04-01T15:09:47.380,1743512987380,11.8257039543275,46.3757913308455,22.98192,1896.7704,2.831964872,3
2025-04-01T15:09:47.480,1743512987480,11.8257068201082,46.375793418644,22.98192,1896.7704,2.973218336,3
2025-04-01T15:09:47.580,1743512987580,11.8257094243951,46.3757955445371,23.07336,1896.7704,3.04795493024,3
2025-04-01T15:09:47.680,1743512987680,11.8257118426171,46.375797562724,23.07336,1896.7704,3.12410461792,3
2025-04-01T15:09:47.780,1743512987780,11.8257144960148,46.3757998429136,23.19528,1896.7704,3.20156726208,3
2025-04-01T15:09:47.890,1743512987890,11.8257175200027,46.3758023694841,23.19528,1896.7704,3.342160448,3
2025-04-01T15:09:47.990,1743512987990,11.8257202690646,46.3758048445312,23.28672,1897.0752,3.42053192448,3
2025-04-01T15:09:48.090,1743512988090,11.8257229355221,46.3758074423577,23.28672,1897.0752,3.5000058016,3
2025-04-01T15:09:48.190,1743512988190,11.8257257459849,46.3758100969148,23.37816,1897.0752,3.58050831776,3
2025-04-01T15:09:48.250,1743512988250,11.825728594038,46.3758127843593,23.37816,1897.0752,3.72022083488,3
2025-04-01T15:09:48.350,1743512988350,11.8257314993208,46.3758156060938,23.4696,1897.0752,3.80132149056,3
2025-04-01T15:09:48.450,1743512988450,11.82573456584,46.3758185284088,23.4696,1897.0752,3.9408185344,3
2025-04-01T15:09:48.550,1743512988550,11.8257375761971,46.3758215074545,23.59152,1897.38,4.022443568,3
2025-04-01T15:09:48.650,1743512988650,11.8257408359069,46.3758245602226,23.59152,1897.38,4.10488176736,3
2025-04-01T15:09:48.750,1743512988750,11.8257439487064,46.37582769055,23.68296,1897.38,4.10488176736,3
2025-04-01T15:09:48.850,1743512988850,11.8257468145119,46.3758307238598,23.7744,1897.38,4.24382582272,3
2025-04-01T15:09:48.950,1743512988950,11.8257499838459,46.375833987381,23.7744,1897.38,4.32666859328,3
2025-04-01T15:09:49.050,1743512989050,11.8257529788838,46.3758371571733,23.89632,1897.38,4.41022260448,3
2025-04-01T15:09:49.150,1743512989150,11.8257562269366,46.3758405371705,23.98776,1897.6848,4.54863334112,3
2025-04-01T15:09:49.250,1743512989250,11.825759655443,46.3758439242933,23.98776,1897.6848,4.54863334112,3
2025-04-01T15:09:49.350,1743512989350,11.8257629987752,46.3758474043229,24.0792,1897.6848,4.6325011744,3
2025-04-01T15:09:49.450,1743512989450,11.8257662688634,46.3758510868838,24.17064,1897.6848,4.68722423488,3
2025-04-01T15:09:49.550,1743512989550,11.8257696810202,46.375854681745,24.29256,1897.9896,4.77075187072,3
2025-04-01T15:09:49.650,1743512989650,11.8257733393393,46.3758583881492,24.29256,1897.9896,4.77075187072,3
2025-04-01T15:09:49.750,1743512989750,11.8257768469865,46.3758621000345,24.384,1897.9896,4.85490223328,3
2025-04-01T15:09:49.850,1743512989850,11.8257807013887,46.375866170392,24.47544,1897.9896,4.9930031712,3
2025-04-01T15:09:49.950,1743512989950,11.8257843282996,46.3758700365739,24.59736,1898.2944,4.9930031712,3
2025-04-01T15:09:50.050,1743512990050,11.8257880516942,46.3758739101554,24.59736,1898.2944,5.13128471328,3
2025-04-01T15:09:50.150,1743512990150,11.8257917934618,46.3758778837693,24.6888,1898.2944,5.21537025504,3
2025-04-01T15:09:50.250,1743512990250,11.8257953675378,46.3758816545778,24.78024,1898.2944,5.21537025504,3
2025-04-01T15:09:50.350,1743512990350,11.8257991510671,46.3758856846483,24.87168,1898.5992,5.30000878528,3
2025-04-01T15:09:50.450,1743512990450,11.8258031967234,46.3758900655171,24.9936,1898.5992,5.30000878528,3
2025-04-01T15:09:50.550,1743512990550,11.8258069940946,46.3758941495776,25.08504,1898.5992,5.30000878528,3
2025-04-01T15:09:50.650,1743512990650,11.8258107017853,46.3758981947214,25.08504,1898.5992,5.30000878528,3
2025-04-01T15:09:50.750,1743512990750,11.825814473037,46.3759022549386,25.17648,1898.904,5.21537025504,3
2025-04-01T15:09:50.850,1743512990850,11.8258182541828,46.3759062340337,25.2984,1898.904,5.21537025504,3
2025-04-01T15:09:50.950,1743512990950,11.8258219844674,46.3759102317649,25.38984,1898.904,5.21537025504,3
2025-04-01T15:09:51.050,1743512991050,11.825825757606,46.3759141286416,25.38984,1898.904,5.13128471328,3
2025-04-01T15:09:51.150,1743512991150,11.8258294834338,46.3759180748493,25.48128,1899.2088,5.13128471328,3
2025-04-01T15:09:51.250,1743512991250,11.8258333287737,46.3759220873798,25.57272,1899.2088,5.13128471328,3
2025-04-01T15:09:51.350,1743512991350,11.8258370422992,46.3759260483869,25.69464,1899.2088,5.21537025504,3
2025-04-01T15:09:51.450,1743512991450,11.825840280756,46.3759297923374,25.78608,1899.5136,5.16237232192,3
2025-04-01T15:09:51.550,1743512991550,11.825843855428,46.3759337278567,25.78608,1899.5136,5.16237232192,3
2025-04-01T15:09:51.650,1743512991650,11.8258477627647,46.3759379749837,25.87752,1899.5136,5.07740924064,3
2025-04-01T15:09:51.750,1743512991750,11.8258513230547,46.3759418806303,25.99944,1899.5136,5.07740924064,3
2025-04-01T15:09:51.860,1743512991860,11.8258548601425,46.3759456919999,26.09088,1899.8184,4.9930031712,3
2025-04-01T15:09:51.950,1743512991950,11.8258584308232,46.3759495285831,26.18232,1899.8184,4.9930031712,3
2025-04-01T15:09:52.060,1743512992060,11.8258621415553,46.3759533821581,26.27376,1899.8184,4.9930031712,3
2025-04-01T15:09:52.150,1743512992150,11.825865721404,46.3759571907871,26.27376,1899.8184,4.9930031712,3
2025-04-01T15:09:52.260,1743512992260,11.8258691156161,46.3759610819085,26.39568,1900.1232,4.9930031712,3
2025-04-01T15:09:52.350,1743512992350,11.8258726468568,46.3759649102699,26.48712,1900.1232,4.9930031712,3
2025-04-01T15:09:52.470,1743512992470,11.8258761136676,46.3759686597016,26.48712,1900.1232,4.93964358272,3
2025-04-01T15:09:52.570,1743512992570,11.825879574234,46.3759724960108,26.57856,1900.1232,4.93964358272,3
2025-04-01T15:09:52.670,1743512992670,11.8258829514262,46.3759764468776,26.57856,1900.1232,4.93964358272,3
2025-04-01T15:09:52.770,1743512992770,11.8258863576182,46.3759803001785,26.67,1900.428,4.93964358272,3
2025-04-01T15:09:52.870,1743512992870,11.8258897180263,46.3759840419366,26.79192,1900.428,4.93964358272,3
2025-04-01T15:09:52.950,1743512992950,11.8258930937102,46.3759878831788,26.79192,1900.428,4.8877476032,3
2025-04-01T15:09:53.080,1743512993080,11.825896482758,46.375991750731,26.88336,1900.428,4.8877476032,3
2025-04-01T15:09:53.180,1743512993180,11.8258998432344,46.3759955980026,26.88336,1900.428,4.8877476032,3
2025-04-01T15:09:53.280,1743512993280,11.8259028938014,46.3759991607987,26.9748,1900.7328,4.8877476032,3
2025-04-01T15:09:53.380,1743512993380,11.8259062104648,46.3760030086184,26.9748,1900.7328,4.97394004448,3
2025-04-01T15:09:53.480,1743512993480,11.8259098663229,46.3760072472495,26.9748,1900.7328,4.97394004448,3
2025-04-01T15:09:53.590,1743512993590,11.8259132049718,46.3760111608439,27.09672,1900.7328,4.97394004448,3
2025-04-01T15:09:53.690,1743512993690,11.8259166018686,46.3760150253814,27.09672,1900.7328,4.97394004448,3
2025-04-01T15:09:53.750,1743512993750,11.8259199277744,46.3760189145843,27.18816,1900.7328,4.97394004448,3
2025-04-01T15:09:53.850,1743512993850,11.8259230807838,46.3760228054317,27.18816,1900.7328,4.8877476032,3
2025-04-01T15:09:53.990,1743512993990,11.8259263686818,46.3760266716135,27.2796,1901.0376,4.8877476032,3
2025-04-01T15:09:54.090,1743512994090,11.8259297139943,46.3760305177889,27.2796,1901.0376,4.8877476032,3
2025-04-01T15:09:54.150,1743512994150,11.8259329745872,46.3760343820523,27.37104,1901.0376,4.8877476032,3
2025-04-01T15:09:54.250,1743512994250,11.8259361588588,46.3760381698526,27.37104,1901.0376,4.92443662304,3
2025-04-01T15:09:54.350,1743512994350,11.8259393842324,46.3760420398713,27.49296,1901.0376,4.92443662304,3
2025-04-01T15:09:54.450,1743512994450,11.825942645226,46.3760460252698,27.49296,1901.0376,4.92443662304,3
2025-04-01T15:09:54.550,1743512994550,11.8259458825479,46.3760499035103,27.5844,1901.3424,4.97394004448,3
2025-04-01T15:09:54.650,1743512994650,11.8259491487912,46.3760537085765,27.5844,1901.3424,4.97394004448,3
2025-04-01T15:09:54.750,1743512994750,11.8259524177379,46.3760575580406,27.67584,1901.3424,4.8877476032,3
2025-04-01T15:09:54.850,1743512994850,11.8259556181558,46.3760614801309,27.67584,1901.3424,4.8877476032,3
2025-04-01T15:09:54.950,1743512994950,11.8259588842022,46.3760653238398,27.79776,1901.3424,4.8877476032,3
2025-04-01T15:09:55.050,1743512995050,11.8259621506597,46.376069106707,27.79776,1901.3424,4.8877476032,3
2025-04-01T15:09:55.150,1743512995150,11.8259653663412,46.3760729635707,27.79776,1901.3424,4.83736261888,3
2025-04-01T15:09:55.250,1743512995250,11.8259686093571,46.3760768464703,27.8892,1901.6472,4.92443662304,3
2025-04-01T15:09:55.350,1743512995350,11.8259717920978,46.3760807178593,27.8892,1901.6472,4.92443662304,3
2025-04-01T15:09:55.450,1743512995450,11.8259749189892,46.3760845980183,27.8892,1901.6472,4.92443662304,3
2025-04-01T15:09:55.550,1743512995550,11.8259780514406,46.376088468037,27.98064,1901.6472,4.92443662304,3
2025-04-01T15:09:55.650,1743512995650,11.8259811539939,46.3760922832434,27.98064,1901.6472,4.83736261888,3
2025-04-01T15:09:55.750,1743512995750,11.8259842771625,46.3760961359963,27.98064,1901.6472,4.83736261888,3
2025-04-01T15:09:55.850,1743512995850,11.8259875026478,46.3760999150266,28.07208,1901.6472,4.83736261888,3
2025-04-01T15:09:55.950,1743512995950,11.8259906519018,46.3761037483211,28.07208,1901.6472,4.83736261888,3
2025-04-01T15:09:56.050,1743512996050,11.8259934886519,46.3761074218379,28.07208,1901.6472,4.83736261888,3
2025-04-01T15:09:56.150,1743512996150,11.8259966312364,46.3761112482809,28.194,1901.952,4.83736261888,3
2025-04-01T15:09:56.250,1743512996250,11.8259999203712,46.3761150059345,28.194,1901.952,4.83736261888,3
2025-04-01T15:09:56.350,1743512996350,11.8260030735171,46.3761188463545,28.28544,1901.952,4.92443662304,3
2025-04-01T15:09:56.450,1743512996450,11.8260066907916,46.3761233828902,28.28544,1901.952,4.92443662304,3
2025-04-01T15:09:56.550,1743512996550,11.8260099020549,46.3761272825075,28.28544,1901.952,4.83736261888,3
2025-04-01T15:09:56.650,1743512996650,11.8260127423555,46.3761309195741,28.37688,1901.952,4.83736261888,3
2025-04-01T15:09:56.750,1743512996750,11.8260159115655,46.3761347668457,28.37688,1901.952,4.83736261888,3
2025-04-01T15:09:56.850,1743512996850,11.8260190189339,46.3761385033966,28.37688,1901.952,4.83736261888,3
2025-04-01T15:09:56.950,1743512996950,11.8260221709377,46.3761423218918,28.4988,1902.2568,4.83736261888,3
2025-04-01T15:09:57.050,1743512997050,11.8260255586447,46.3761461077737,28.4988,1902.2568,4.83736261888,3
2025-04-01T15:09:57.150,1743512997150,11.826028738953,46.3761499251726,28.4988,1902.2568,4.83736261888,3
2025-04-01T15:09:57.250,1743512997250,11.8260315694959,46.3761533769739,28.59024,1902.2568,4.83736261888,3
2025-04-01T15:09:57.360,1743512997360,11.8260347048895,46.3761571809438,28.59024,1902.2568,4.83736261888,3
2025-04-01T15:09:57.460,1743512997460,11.8260378445721,46.3761612014221,28.59024,1902.2568,4.92443662304,3
2025-04-01T15:09:57.550,1743512997550,11.8260409823058,46.3761650591081,28.68168,1902.2568,4.92443662304,3
2025-04-01T15:09:57.650,1743512997650,11.8260443378165,46.3761691957884,28.68168,1902.2568,4.92443662304,3
2025-04-01T15:09:57.750,1743512997750,11.8260474783496,46.3761731082866,28.68168,1902.2568,4.92443662304,3
2025-04-01T15:09:57.850,1743512997850,11.8260505908761,46.3761771665853,28.68168,1902.2568,4.92443662304,3
2025-04-01T15:09:57.950,1743512997950,11.8260537123409,46.3761811021046,28.77312,1902.5616,4.92443662304,3
2025-04-01T15:09:58.070,1743512998070,11.8260568567038,46.376184880861,28.77312,1902.5616,4.92443662304,3
2025-04-01T15:09:58.150,1743512998150,11.8260599827184,46.3761888180247,28.89504,1902.5616,4.8764821952,3
2025-04-01T15:09:58.270,1743512998270,11.8260630166006,46.3761927064054,28.89504,1902.5616,4.8764821952,3
2025-04-01T15:09:58.370,1743512998370,11.8260661438007,46.3761966337029,28.89504,1902.5616,4.92443662304,3
2025-04-01T15:09:58.480,1743512998480,11.8260693832753,46.3762006240345,28.89504,1902.5616,4.92443662304,3
2025-04-01T15:09:58.580,1743512998580,11.8260725575378,46.3762045444805,28.98648,1902.5616,4.92443662304,3
2025-04-01T15:09:58.650,1743512998650,11.826075712732,46.3762083487245,28.98648,1902.5616,4.92443662304,3
2025-04-01T15:09:58.780,1743512998780,11.8260789440381,46.3762122546452,28.98648,1902.5616,4.92443662304,3
2025-04-01T15:09:58.890,1743512998890,11.8260820811075,46.3762162556652,29.07792,1902.8664,4.97394004448,3
2025-04-01T15:09:58.990,1743512998990,11.8260853514191,46.3762201659709,29.07792,1902.8664,4.97394004448,3
2025-04-01T15:09:59.090,1743512999090,11.8260887079725,46.3762241820642,29.07792,1902.8664,4.97394004448,3
2025-04-01T15:09:59.190,1743512999190,11.8260920190277,46.3762281110061,29.19984,1902.8664,4.97394004448,3
2025-04-01T15:09:59.290,1743512999290,11.8260949622611,46.3762316960011,29.19984,1902.8664,4.97394004448,3
2025-04-01T15:09:59.350,1743512999350,11.8260982061553,46.3762356054846,29.19984,1902.8664,4.97394004448,3
2025-04-01T15:09:59.450,1743512999450,11.8261017909573,46.3762398394566,29.29128,1902.8664,4.92443662304,3
2025-04-01T15:09:59.550,1743512999550,11.8261049944555,46.3762437747019,29.29128,1902.8664,4.92443662304,3
2025-04-01T15:09:59.650,1743512999650,11.8261081208984,46.3762476299213,29.29128,1902.8664,4.92443662304,3
2025-04-01T15:09:59.750,1743512999750,11.8261113384495,46.376251540501,29.38272,1903.1712,4.92443662304,3
2025-04-01T15:09:59.850,1743512999850,11.826114698094,46.3762555168555,29.38272,1903.1712,4.97394004448,3
2025-04-01T15:09:59.950,1743512999950,11.826118002942,46.3762594120878,29.47416,1903.1712,4.97394004448,3
2025-04-01T15:10:00.050,1743513000050,11.8261213054065,46.376263342674,29.47416,1903.1712,4.97394004448,3
2025-04-01T15:10:00.150,1743513000150,11.8261246279946,46.3762672258476,29.47416,1903.1712,4.97394004448,3
2025-04-01T15:10:00.250,1743513000250,11.8261279862613,46.3762710550312,29.59608,1903.1712,4.97394004448,3
2025-04-01T15:10:00.350,1743513000350,11.8261313111832,46.3762749236796,29.59608,1903.1712,4.8877476032,3
2025-04-01T15:10:00.450,1743513000450,11.8261346304194,46.3762786558455,29.68752,1903.476,4.8877476032,3
2025-04-01T15:10:00.550,1743513000550,11.8261379786801,46.3762825105168,29.68752,1903.476,4.93964358272,3
2025-04-01T15:10:00.650,1743513000650,11.8261412065226,46.3762864597392,29.68752,1903.476,5.02494596736,3
2025-04-01T15:10:00.750,1743513000750,11.826144548328,46.3762903371575,29.77896,1903.476,5.02494596736,3
2025-04-01T15:10:00.850,1743513000850,11.8261477783554,46.3762941888141,29.77896,1903.476,5.02494596736,3
2025-04-01T15:10:00.950,1743513000950,11.8261511029546,46.3762980840464,29.77896,1903.476,4.97394004448,3
2025-04-01T15:10:01.050,1743513001050,11.8261544770867,46.3763019458433,29.8704,1903.476,4.97394004448,3
2025-04-01T15:10:01.150,1743513001150,11.8261577803459,46.3763058355944,29.8704,1903.476,4.97394004448,3
2025-04-01T15:10:01.250,1743513001250,11.8261611389602,46.3763097639881,29.8704,1903.476,4.8877476032,3
2025-04-01T15:10:01.350,1743513001350,11.8261644057835,46.3763136022157,29.99232,1903.7808,4.8877476032,3
2025-04-01T15:10:01.450,1743513001450,11.8261676068608,46.3763174127631,29.99232,1903.7808,4.8877476032,3
2025-04-01T15:10:01.550,1743513001550,11.8261708737958,46.3763212063187,29.99232,1903.7808,4.8877476032,3
2025-04-01T15:10:01.650,1743513001650,11.8261744836373,46.3763252251527,30.08376,1903.7808,4.8877476032,3
2025-04-01T15:10:01.740,1743513001740,11.8261777856053,46.3763290537881,30.08376,1903.7808,4.8877476032,3
2025-04-01T15:10:01.850,1743513001850,11.8261806895723,46.3763324968194,30.08376,1903.7808,4.8877476032,3
2025-04-01T15:10:01.950,1743513001950,11.8261839392516,46.3763363010634,30.1752,1903.7808,4.8877476032,3
2025-04-01T15:10:02.050,1743513002050,11.8261870967177,46.3763401510756,30.1752,1903.7808,4.8877476032,3
2025-04-01T15:10:02.150,1743513002150,11.8261903292404,46.3763439544975,30.1752,1903.7808,4.83736261888,3
2025-04-01T15:10:02.250,1743513002250,11.8261937059173,46.3763477362684,30.29712,1903.7808,4.8877476032,3
2025-04-01T15:10:02.350,1743513002350,11.8261969866817,46.37635152955,30.29712,1903.7808,4.8877476032,3
2025-04-01T15:10:02.450,1743513002450,11.8262002920016,46.376355159491,30.38856,1904.0856,4.8877476032,3
2025-04-01T15:10:02.550,1743513002550,11.8262035797429,46.3763589481136,30.38856,1904.0856,4.8877476032,3
2025-04-01T15:10:02.650,1743513002650,11.8262068788308,46.3763627973036,30.38856,1904.0856,4.8877476032,3
2025-04-01T15:10:02.760,1743513002760,11.8262101378455,46.3763666070288,30.48,1904.0856,4.8877476032,3
2025-04-01T15:10:02.850,1743513002850,11.8262135031263,46.3763704575892,30.48,1904.0856,4.83736261888,3
2025-04-01T15:10:02.950,1743513002950,11.8262167075183,46.3763742714253,30.48,1904.0856,4.83736261888,3
2025-04-01T15:10:03.070,1743513003070,11.8262197277325,46.3763782165368,30.57144,1904.0856,4.83736261888,3
2025-04-01T15:10:03.150,1743513003150,11.8262228958748,46.376382017218,30.57144,1904.0856,4.83736261888,3
2025-04-01T15:10:03.270,1743513003270,11.8262259066789,46.3763854301025,30.69336,1904.3904,4.83736261888,3
2025-04-01T15:10:03.350,1743513003350,11.8262290799111,46.3763891902227,30.69336,1904.3904,4.83736261888,3
2025-04-01T15:10:03.450,1743513003450,11.8262324840236,46.3763932942897,30.69336,1904.3904,4.83736261888,3
2025-04-01T15:10:03.550,1743513003550,11.8262357001098,46.3763971305989,30.7848,1904.3904,4.83736261888,3
2025-04-01T15:10:03.650,1743513003650,11.8262389765292,46.3764010335049,30.7848,1904.3904,4.92443662304,3
2025-04-01T15:10:03.750,1743513003750,11.8262421844221,46.3764049043458,30.7848,1904.3904,4.92443662304,3
2025-04-01T15:10:03.880,1743513003880,11.8262451664252,46.3764088993364,30.87624,1904.3904,4.92443662304,3
2025-04-01T15:10:03.980,1743513003980,11.8262483293039,46.3764127679848,30.87624,1904.3904,4.83736261888,3
2025-04-01T15:10:04.080,1743513004080,11.8262512976512,46.376416291316,30.87624,1904.3904,4.83736261888,3
2025-04-01T15:10:04.180,1743513004180,11.8262544795733,46.3764201172109,30.99816,1904.6952,4.83736261888,3
2025-04-01T15:10:04.290,1743513004290,11.8262581370358,46.376424253343,30.99816,1904.6952,4.92443662304,3
2025-04-01T15:10:04.390,1743513004390,11.8262614393762,46.3764281463829,31.0896,1904.6952,4.97394004448,3
2025-04-01T15:10:04.490,1743513004490,11.8262644424585,46.3764317563175,31.0896,1904.6952,4.97394004448,3
2025-04-01T15:10:04.590,1743513004590,11.8262677819424,46.376435647987,31.0896,1904.6952,4.97394004448,3
2025-04-01T15:10:04.650,1743513004650,11.8262711549199,46.3764398671597,31.18104,1904.6952,4.97394004448,3
2025-04-01T15:10:04.750,1743513004750,11.8262745118334,46.3764438007606,31.18104,1904.6952,4.97394004448,3
2025-04-01T15:10:04.850,1743513004850,11.8262781011914,46.3764478626222,31.18104,1904.6952,4.97394004448,3
2025-04-01T15:10:04.950,1743513004950,11.8262814671177,46.3764518099261,31.27248,1905,4.97394004448,3
2025-04-01T15:10:05.050,1743513005050,11.8262849114772,46.3764558065611,31.27248,1905,4.97394004448,3
2025-04-01T15:10:05.150,1743513005150,11.8262882561502,46.3764597527688,31.27248,1905,4.97394004448,3
2025-04-01T15:10:05.250,1743513005250,11.8262913599123,46.3764633777768,31.3944,1905,4.97394004448,3
2025-04-01T15:10:05.350,1743513005350,11.8262946555739,46.37646727712,31.3944,1905,4.97394004448,3
2025-04-01T15:10:05.450,1743513005450,11.8262981867587,46.3764715321948,31.3944,1905,4.97394004448,3
2025-04-01T15:10:05.550,1743513005550,11.8263014985588,46.3764754572998,31.48584,1905,4.97394004448,3
2025-04-01T15:10:05.650,1743513005650,11.8263048548267,46.3764794084406,31.48584,1905,4.97394004448,3
2025-04-01T15:10:05.750,1743513005750,11.8263082289959,46.3764833543743,31.48584,1905,4.97394004448,3
2025-04-01T15:10:05.850,1743513005850,11.8263112932558,46.3764867784953,31.48584,1905,5.02494596736,3
2025-04-01T15:10:05.950,1743513005950,11.8263146619876,46.3764907063409,31.57728,1905.3048,4.97394004448,3
2025-04-01T15:10:06.050,1743513006050,11.8263184098012,46.3764951277708,31.57728,1905.3048,5.0606403232,3
2025-04-01T15:10:06.150,1743513006150,11.8263218008787,46.376499120843,31.57728,1905.3048,5.0606403232,3
2025-04-01T15:10:06.250,1743513006250,11.8263248659083,46.3765028203956,31.6992,1905.3048,5.0606403232,3
2025-04-01T15:10:06.350,1743513006350,11.8263282141318,46.3765067578334,31.6992,1905.3048,4.97394004448,3
2025-04-01T15:10:06.450,1743513006450,11.8263317099856,46.3765106593691,31.6992,1905.3048,4.97394004448,3
2025-04-01T15:10:06.550,1743513006550,11.826335067793,46.3765145422687,31.79064,1905.3048,4.97394004448,3
2025-04-01T15:10:06.650,1743513006650,11.8263385839317,46.3765183741929,31.79064,1905.3048,4.8877476032,3
2025-04-01T15:10:06.750,1743513006750,11.8263419126401,46.3765222228348,31.79064,1905.3048,4.8877476032,3
2025-04-01T15:10:06.850,1743513006850,11.8263455018491,46.3765264795539,31.79064,1905.3048,4.8877476032,3
2025-04-01T15:10:06.950,1743513006950,11.8263488062255,46.3765303416248,31.88208,1905.6096,4.8877476032,3
2025-04-01T15:10:07.050,1743513007050,11.8263521021106,46.3765341836892,31.88208,1905.6096,4.83736261888,3
2025-04-01T15:10:07.150,1743513007150,11.8263553888836,46.3765380134209,31.88208,1905.6096,4.83736261888,3
2025-04-01T15:10:07.250,1743513007250,11.8263587320917,46.3765417568233,31.88208,1905.6096,4.83736261888,3
2025-04-01T15:10:07.350,1743513007350,11.8263620244014,46.3765455736742,31.97352,1905.6096,4.8877476032,3
2025-04-01T15:10:07.450,1743513007450,11.8263653130861,46.3765492641827,31.97352,1905.6096,4.8877476032,3
2025-04-01T15:10:07.550,1743513007550,11.8263686189522,46.3765530854186,31.97352,1905.6096,4.8877476032,3
2025-04-01T15:10:07.650,1743513007650,11.8263719496468,46.376557039574,31.97352,1905.6096,4.8877476032,3
2025-04-01T15:10:07.740,1743513007740,11.8263752792985,46.3765608566989,32.09544,1905.6096,4.8877476032,3
2025-04-01T15:10:07.840,1743513007840,11.8263786490235,46.3765645913314,32.09544,1905.6096,4.8877476032,3
2025-04-01T15:10:07.950,1743513007950,11.8263820088667,46.3765683687174,32.09544,1905.6096,4.80209071584,3
2025-04-01T15:10:08.050,1743513008050,11.8263852641324,46.3765720811508,32.09544,1905.6096,4.80209071584,3
2025-04-01T15:10:08.150,1743513008150,11.8263885739215,46.3765758536037,32.18688,1905.9144,4.80209071584,3
2025-04-01T15:10:08.250,1743513008250,11.8263918463685,46.3765794986182,32.18688,1905.9144,4.7507968992,3
2025-04-01T15:10:08.350,1743513008350,11.8263950857439,46.3765832743598,32.18688,1905.9144,4.7507968992,3
2025-04-01T15:10:08.450,1743513008450,11.8263981984939,46.3765871632887,32.18688,1905.9144,4.7507968992,3
2025-04-01T15:10:08.550,1743513008550,11.8264013801678,46.3765909524593,32.18688,1905.9144,4.7507968992,3
2025-04-01T15:10:08.650,1743513008650,11.8264045725676,46.3765946407754,32.27832,1905.9144,4.7507968992,3
2025-04-01T15:10:08.770,1743513008770,11.8264077372588,46.3765984003475,32.27832,1905.9144,4.7507968992,3
2025-04-01T15:10:08.870,1743513008870,11.8264108497108,46.3766022078802,32.27832,1905.9144,4.7507968992,3
2025-04-01T15:10:08.970,1743513008970,11.8264140084432,46.376605971015,32.36976,1905.9144,4.7507968992,3
2025-04-01T15:10:09.070,1743513009070,11.8264172522877,46.3766096648123,32.36976,1905.9144,4.70107129888,3
2025-04-01T15:10:09.150,1743513009150,11.8264203991023,46.3766134569976,32.36976,1905.9144,4.78853556896,3
2025-04-01T15:10:09.270,1743513009270,11.8264232292542,46.3766169688183,32.49168,1906.2192,4.78853556896,3
2025-04-01T15:10:09.380,1743513009380,11.8264263545674,46.3766207799138,32.49168,1906.2192,4.83736261888,3
2025-04-01T15:10:09.480,1743513009480,11.8264299949231,46.3766252054547,32.49168,1906.2192,4.92443662304,3
2025-04-01T15:10:09.580,1743513009580,11.8264331524141,46.3766291198713,32.49168,1906.2192,4.92443662304,3
2025-04-01T15:10:09.680,1743513009680,11.8264360009888,46.3766326654015,32.49168,1906.2192,4.8764821952,3
2025-04-01T15:10:09.780,1743513009780,11.8264390761981,46.3766365628263,32.58312,1906.2192,4.8764821952,3
2025-04-01T15:10:09.880,1743513009880,11.826442141029,46.3766404520293,32.58312,1906.2192,4.8764821952,3
2025-04-01T15:10:09.990,1743513009990,11.8264451985107,46.3766443494541,32.58312,1906.2192,4.8764821952,3
2025-04-01T15:10:10.050,1743513010050,11.8264482412443,46.3766482868919,32.58312,1906.2192,4.8764821952,3
2025-04-01T15:10:10.150,1743513010150,11.8264512946541,46.3766522070638,32.58312,1906.2192,4.8764821952,3
2025-04-01T15:10:10.250,1743513010250,11.8264541636378,46.3766563037311,32.67456,1906.2192,4.8764821952,3
2025-04-01T15:10:10.350,1743513010350,11.8264571797056,46.3766602724119,32.67456,1906.2192,4.96488480224,3
2025-04-01T15:10:10.450,1743513010450,11.8264603579035,46.3766641871026,32.67456,1906.2192,4.96488480224,3
2025-04-01T15:10:10.550,1743513010550,11.8264633916491,46.3766681638681,32.67456,1906.2192,4.96488480224,3
2025-04-01T15:10:10.650,1743513010650,11.8264660563935,46.3766717096724,32.67456,1906.2192,4.96488480224,3
2025-04-01T15:10:10.750,1743513010750,11.826469081747,46.3766756524543,32.67456,1906.2192,4.96488480224,3
2025-04-01T15:10:10.850,1743513010850,11.82647248941,46.3766800984127,32.79648,1906.524,4.96488480224,3
2025-04-01T15:10:10.950,1743513010950,11.8264755715712,46.3766841139579,32.79648,1906.524,4.96488480224,3
2025-04-01T15:10:11.050,1743513011050,11.8264786483694,46.3766880383778,32.79648,1906.524,4.96488480224,3
2025-04-01T15:10:11.150,1743513011150,11.8264817400648,46.3766920488529,32.79648,1906.524,4.96488480224,3
2025-04-01T15:10:11.250,1743513011250,11.8264845114724,46.3766959250379,32.79648,1906.524,4.96488480224,3
2025-04-01T15:10:11.350,1743513011350,11.8264875720329,46.3766999008443,32.79648,1906.524,4.96488480224,3
2025-04-01T15:10:11.450,1743513011450,11.8264907421864,46.3767038566441,32.79648,1906.524,4.96488480224,3
2025-04-01T15:10:11.550,1743513011550,11.8264938218151,46.3767078132662,32.88792,1906.524,4.96488480224,3
2025-04-01T15:10:11.650,1743513011650,11.826496975681,46.3767117923612,32.88792,1906.524,4.96488480224,3
2025-04-01T15:10:11.750,1743513011750,11.8265000525786,46.3767157473389,32.88792,1906.524,4.96488480224,3
2025-04-01T15:10:11.850,1743513011850,11.8265030227633,46.3767198020749,32.88792,1906.524,4.96488480224,3
2025-04-01T15:10:11.950,1743513011950,11.8265060697674,46.3767237718519,32.88792,1906.524,4.96488480224,3
2025-04-01T15:10:12.050,1743513012050,11.8265094003627,46.3767279978761,32.88792,1906.524,4.96488480224,3
2025-04-01T15:10:12.150,1743513012150,11.8265124777072,46.3767319776563,32.97936,1906.524,4.96488480224,3
2025-04-01T15:10:12.250,1743513012250,11.8265153661068,46.3767356795385,32.97936,1906.524,4.8764821952,3
2025-04-01T15:10:12.350,1743513012350,11.8265184303915,46.3767396164281,32.97936,1906.524,4.8764821952,3
2025-04-01T15:10:12.450,1743513012450,11.8265213573745,46.3767436562277,32.97936,1906.524,4.8764821952,3
2025-04-01T15:10:12.550,1743513012550,11.8265244090464,46.3767476038058,32.97936,1906.524,4.96488480224,3
2025-04-01T15:10:12.650,1743513012650,11.8265276151018,46.3767515383659,32.97936,1906.524,4.96488480224,3
2025-04-01T15:10:12.740,1743513012740,11.8265306817701,46.3767554982767,32.97936,1906.524,4.96488480224,3
2025-04-01T15:10:12.850,1743513012850,11.8265337008669,46.3767594853195,32.97936,1906.524,4.96488480224,3
2025-04-01T15:10:12.950,1743513012950,11.82653676684,46.3767634412564,33.0708,1906.8288,4.96488480224,3
2025-04-01T15:10:13.050,1743513013050,11.8265400532902,46.3767676790652,33.0708,1906.8288,4.8764821952,3
2025-04-01T15:10:13.150,1743513013150,11.8265431475677,46.3767716411685,33.0708,1906.8288,4.8764821952,3
2025-04-01T15:10:13.250,1743513013250,11.8265459459887,46.3767751839581,33.0708,1906.8288,4.8764821952,3
2025-04-01T15:10:13.350,1743513013350,11.8265490220421,46.3767790827532,33.0708,1906.8288,4.92443662304,3
2025-04-01T15:10:13.450,1743513013450,11.826552248308,46.3767831668138,33.0708,1906.8288,4.8764821952,3
2025-04-01T15:10:13.550,1743513013550,11.8265553263974,46.3767870934261,33.19272,1906.8288,4.8764821952,3
2025-04-01T15:10:13.650,1743513013650,11.8265586867373,46.3767912480574,33.19272,1906.8288,4.8764821952,3
2025-04-01T15:10:13.760,1743513013760,11.8265617873213,46.3767952129013,33.19272,1906.8288,4.8764821952,3
2025-04-01T15:10:13.850,1743513013850,11.8265648089506,46.376799060447,33.19272,1906.8288,4.8764821952,3
2025-04-01T15:10:13.950,1743513013950,11.8265679092863,46.3768030117248,33.19272,1906.8288,4.8764821952,3
2025-04-01T15:10:14.050,1743513014050,11.8265710506387,46.3768071366204,33.19272,1906.8288,4.8764821952,3
2025-04-01T15:10:14.150,1743513014150,11.8265741488392,46.3768111125638,33.19272,1906.8288,4.8764821952,3
2025-04-01T15:10:14.270,1743513014270,11.8265771541313,46.3768148911831,33.28416,1906.8288,4.8764821952,3
2025-04-01T15:10:14.370,1743513014370,11.8265802244742,46.376818833828,33.28416,1906.8288,4.8764821952,3
2025-04-01T15:10:14.450,1743513014450,11.8265832015116,46.3768227778432,33.28416,1906.8288,4.8764821952,3
2025-04-01T15:10:14.550,1743513014550,11.8265862408685,46.3768267206252,33.28416,1906.8288,4.8764821952,3
2025-04-01T15:10:14.650,1743513014650,11.8265892645338,46.3768306751918,33.28416,1906.8288,4.8764821952,3
2025-04-01T15:10:14.770,1743513014770,11.8265922908309,46.376834650587,33.28416,1906.8288,4.96488480224,3
2025-04-01T15:10:14.880,1743513014880,11.8265951875729,46.3768382184532,33.28416,1906.8288,4.91935735456,3
2025-04-01T15:10:14.980,1743513014980,11.8265981819902,46.3768421890524,33.3756,1907.1336,4.91935735456,3
2025-04-01T15:10:15.080,1743513015080,11.8266013809447,46.3768465341562,33.3756,1907.1336,4.91935735456,3
2025-04-01T15:10:15.180,1743513015180,11.8266043948772,46.3768505460016,33.3756,1907.1336,4.91935735456,3
2025-04-01T15:10:15.280,1743513015280,11.8266072163887,46.3768542900892,33.3756,1907.1336,4.96488480224,3
2025-04-01T15:10:15.380,1743513015380,11.826610257136,46.3768582575366,33.3756,1907.1336,4.96488480224,3
2025-04-01T15:10:15.480,1743513015480,11.8266133409856,46.3768622363576,33.3756,1907.1336,4.8764821952,3
2025-04-01T15:10:15.590,1743513015590,11.8266164207136,46.3768661403599,33.49752,1907.1336,4.8764821952,3
2025-04-01T15:10:15.690,1743513015690,11.8266197540896,46.3768703587104,33.49752,1907.1336,4.78853556896,3
2025-04-01T15:10:15.790,1743513015790,11.8266228929095,46.3768742346214,33.49752,1907.1336,4.78853556896,3
2025-04-01T15:10:15.890,1743513015890,11.8266258935836,46.3768780569535,33.49752,1907.1336,4.8764821952,3
2025-04-01T15:10:15.990,1743513015990,11.8266289961042,46.3768819705479,33.49752,1907.1336,4.8764821952,3
2025-04-01T15:10:16.090,1743513016090,11.8266320331272,46.3768860728335,33.49752,1907.1336,4.8764821952,3
2025-04-01T15:10:16.150,1743513016150,11.8266351179203,46.3768900576839,33.49752,1907.1336,4.96488480224,3
2025-04-01T15:10:16.250,1743513016250,11.8266381542977,46.3768940154022,33.49752,1907.1336,4.96488480224,3
2025-04-01T15:10:16.350,1743513016350,11.8266412506112,46.3768979802461,33.49752,1907.1336,4.8764821952,3
2025-04-01T15:10:16.450,1743513016450,11.8266441157712,46.3769016029245,33.49752,1907.1336,4.8764821952,3
2025-04-01T15:10:16.550,1743513016550,11.8266472045865,46.3769054932237,33.49752,1907.1336,4.8764821952,3
2025-04-01T15:10:16.650,1743513016650,11.8266504437632,46.3769098096882,33.49752,1907.1336,4.8764821952,3
2025-04-01T15:10:16.750,1743513016750,11.8266535368987,46.3769137230085,33.49752,1907.1336,4.8764821952,3
2025-04-01T15:10:16.850,1743513016850,11.8266563773793,46.3769171785096,33.49752,1907.1336,4.8764821952,3
2025-04-01T15:10:16.950,1743513016950,11.8266594316829,46.3769210841563,33.58896,1907.1336,4.8764821952,3
2025-04-01T15:10:17.050,1743513017050,11.8266625381264,46.3769252302917,33.58896,1907.1336,4.8764821952,3
2025-04-01T15:10:17.150,1743513017150,11.8266656074264,46.3769291991095,33.58896,1907.1336,4.96488480224,3
2025-04-01T15:10:17.250,1743513017250,11.8266689026659,46.3769333208534,33.58896,1907.1336,5.01199387744,3
2025-04-01T15:10:17.350,1743513017350,11.8266720201333,46.3769373146107,33.58896,1907.1336,5.01199387744,3
2025-04-01T15:10:17.450,1743513017450,11.826674617642,46.3769408476712,33.58896,1907.1336,5.01199387744,3
2025-04-01T15:10:17.550,1743513017550,11.8266776709029,46.3769447886717,33.58896,1907.1336,4.96488480224,3
2025-04-01T15:10:17.650,1743513017650,11.8266814421049,46.3769493350735,33.58896,1907.1336,4.96488480224,3
2025-04-01T15:10:17.750,1743513017750,11.8266845308209,46.3769533533594,33.58896,1907.1336,4.96488480224,3
2025-04-01T15:10:17.850,1743513017850,11.8266872416967,46.3769570804551,33.6804,1907.4384,4.96488480224,3
2025-04-01T15:10:17.950,1743513017950,11.8266902712711,46.3769610831195,33.6804,1907.4384,4.96488480224,3
2025-04-01T15:10:18.050,1743513018050,11.8266935772365,46.3769654453521,33.6804,1907.4384,4.96488480224,3
2025-04-01T15:10:18.150,1743513018150,11.8266966245385,46.3769694777521,33.6804,1907.4384,4.96488480224,3
2025-04-01T15:10:18.250,1743513018250,11.8266996290858,46.3769734231376,33.6804,1907.4384,4.96488480224,3
2025-04-01T15:10:18.350,1743513018350,11.8267026849785,46.3769774352571,33.6804,1907.4384,4.96488480224,3
2025-04-01T15:10:18.450,1743513018450,11.8267057901806,46.3769813652952,33.77184,1907.4384,4.96488480224,3
2025-04-01T15:10:18.550,1743513018550,11.8267088530749,46.3769853589155,33.77184,1907.4384,4.96488480224,3
2025-04-01T15:10:18.650,1743513018650,11.8267119179556,46.3769893078638,33.77184,1907.4384,4.96488480224,3
2025-04-01T15:10:18.750,1743513018750,11.8267149643638,46.3769933068283,33.77184,1907.4384,4.96488480224,3
2025-04-01T15:10:18.850,1743513018850,11.8267179287386,46.3769974670779,33.77184,1907.4384,4.96488480224,3
2025-04-01T15:10:18.950,1743513018950,11.8267209570219,46.377001482349,33.77184,1907.4384,4.96488480224,3
2025-04-01T15:10:19.050,1743513019050,11.8267241038862,46.3770051627174,33.77184,1907.4384,4.96488480224,3
2025-04-01T15:10:19.150,1743513019150,11.8267271839618,46.377009135235,33.89376,1907.4384,4.96488480224,3
2025-04-01T15:10:19.250,1743513019250,11.8267301959577,46.3770132937031,33.89376,1907.4384,4.8764821952,3
2025-04-01T15:10:19.340,1743513019340,11.8267333081117,46.3770172670429,33.89376,1907.4384,4.8764821952,3
2025-04-01T15:10:19.450,1743513019450,11.826736326712,46.3770210944451,33.89376,1907.4384,4.8764821952,3
2025-04-01T15:10:19.550,1743513019550,11.8267394224792,46.3770250399676,33.89376,1907.4384,4.8764821952,3
2025-04-01T15:10:19.650,1743513019650,11.8267425268372,46.3770292143313,33.89376,1907.4384,4.8764821952,3
2025-04-01T15:10:19.750,1743513019750,11.8267456300033,46.3770331702682,33.89376,1907.4384,4.8764821952,3
2025-04-01T15:10:19.860,1743513019860,11.8267487178254,46.3770368876348,33.9852,1907.7432,4.8764821952,3
2025-04-01T15:10:19.950,1743513019950,11.8267518424434,46.3770408110954,33.9852,1907.7432,4.92443662304,3
2025-04-01T15:10:20.060,1743513020060,11.8267550103126,46.3770447555218,33.9852,1907.7432,4.92443662304,3
2025-04-01T15:10:20.150,1743513020150,11.8267581560348,46.3770486787083,33.9852,1907.7432,4.92443662304,3
2025-04-01T15:10:20.260,1743513020260,11.8267612805535,46.3770526645179,33.9852,1907.7432,4.92443662304,3
2025-04-01T15:10:20.370,1743513020370,11.8267644116269,46.3770566086702,33.9852,1907.7432,4.92443662304,3
2025-04-01T15:10:20.470,1743513020470,11.8267674426414,46.3770604767704,33.9852,1907.7432,4.92443662304,3
2025-04-01T15:10:20.550,1743513020550,11.8267705619461,46.3770644199635,33.9852,1907.7432,4.92443662304,3
2025-04-01T15:10:20.650,1743513020650,11.8267737475925,46.3770684383863,33.9852,1907.7432,4.92443662304,3
2025-04-01T15:10:20.770,1743513020770,11.8267768903353,46.3770723911715,33.9852,1907.7432,4.92443662304,3
2025-04-01T15:10:20.870,1743513020870,11.8267801426215,46.3770763682111,34.07664,1907.7432,4.92443662304,3
2025-04-01T15:10:20.980,1743513020980,11.8267832982751,46.3770803308625,34.07664,1907.7432,5.01199387744,3
2025-04-01T15:10:21.080,1743513021080,11.8267863379299,46.3770842888549,34.07664,1907.7432,5.01199387744,3
2025-04-01T15:10:21.180,1743513021180,11.8267894736214,46.3770882542469,34.07664,1907.7432,5.01199387744,3
2025-04-01T15:10:21.280,1743513021280,11.8267923781595,46.3770917375652,34.07664,1907.7432,5.01199387744,3
2025-04-01T15:10:21.380,1743513021380,11.8267954755655,46.3770956539002,34.07664,1907.7432,4.92443662304,3
2025-04-01T15:10:21.490,1743513021490,11.8267986738745,46.3770996564275,34.07664,1907.7432,5.01199387744,3
2025-04-01T15:10:21.550,1743513021550,11.8268017695921,46.3771035876989,34.07664,1907.7432,5.01199387744,3
2025-04-01T15:10:21.650,1743513021650,11.8268050594686,46.3771080435235,34.07664,1907.7432,5.01199387744,3
2025-04-01T15:10:21.790,1743513021790,11.8268081878605,46.3771120190558,34.19856,1907.7432,5.01199387744,3
2025-04-01T15:10:21.890,1743513021890,11.8268112713624,46.3771159216878,34.19856,1907.7432,4.92443662304,3
2025-04-01T15:10:21.950,1743513021950,11.8268144245828,46.3771198543294,34.19856,1907.7432,4.92443662304,3
2025-04-01T15:10:22.050,1743513022050,11.8268175986592,46.3771237053009,34.19856,1907.7432,4.92443662304,3
2025-04-01T15:10:22.150,1743513022150,11.8268207855471,46.3771275932706,34.19856,1907.7432,4.92443662304,3
2025-04-01T15:10:22.250,1743513022250,11.8268239375757,46.3771313247513,34.29,1908.048,4.92443662304,3
2025-04-01T15:10:22.350,1743513022350,11.8268271402545,46.3771351931256,34.29,1908.048,4.83736261888,3
2025-04-01T15:10:22.450,1743513022450,11.8268303053926,46.3771392275811,34.29,1908.048,4.92443662304,3
2025-04-01T15:10:22.550,1743513022550,11.8268334911881,46.3771431308982,34.29,1908.048,4.92443662304,3
2025-04-01T15:10:22.650,1743513022650,11.8268366872129,46.3771470943718,34.29,1908.048,4.92443662304,3
2025-04-01T15:10:22.750,1743513022750,11.8268398502654,46.3771510253691,34.29,1908.048,4.92443662304,3
2025-04-01T15:10:22.850,1743513022850,11.8268429976263,46.3771549917204,34.38144,1908.048,4.92443662304,3
2025-04-01T15:10:22.950,1743513022950,11.8268461413126,46.3771589412168,34.38144,1908.048,4.92443662304,3
2025-04-01T15:10:23.050,1743513023050,11.8268493532276,46.3771628283643,34.38144,1908.048,4.92443662304,3
2025-04-01T15:10:23.150,1743513023150,11.826852498205,46.3771667578543,34.38144,1908.048,4.92443662304,3
2025-04-01T15:10:23.250,1743513023250,11.8268554881531,46.3771704158866,34.38144,1908.048,4.92443662304,3
2025-04-01T15:10:23.350,1743513023350,11.8268585925111,46.3771743182446,34.38144,1908.048,4.92443662304,3
2025-04-01T15:10:23.450,1743513023450,11.8268617188174,46.3771781674346,34.47288,1908.048,4.8764821952,3
2025-04-01T15:10:23.550,1743513023550,11.8268648086755,46.377182071848,34.47288,1908.048,4.8764821952,3
2025-04-01T15:10:23.650,1743513023650,11.8268681943901,46.377186435451,34.47288,1908.048,4.8764821952,3
2025-04-01T15:10:23.750,1743513023750,11.8268713040116,46.3771904049539,34.47288,1908.048,4.96488480224,3
2025-04-01T15:10:23.850,1743513023850,11.8268743491784,46.3771942719579,34.47288,1908.048,4.8764821952,3
2025-04-01T15:10:23.950,1743513023950,11.8268774509541,46.3771982210433,34.47288,1908.048,4.8764821952,3
2025-04-01T15:10:24.050,1743513024050,11.8268805570997,46.377202176295,34.47288,1908.048,4.8764821952,3
2025-04-01T15:10:24.150,1743513024150,11.8268836975086,46.3772061135958,34.47288,1908.048,4.92443662304,3
2025-04-01T15:10:24.250,1743513024250,11.8268868672152,46.3772100293827,34.47288,1908.048,4.92443662304,3
2025-04-01T15:10:24.350,1743513024350,11.8268900008707,46.3772139779199,34.47288,1908.048,4.8764821952,3
2025-04-01T15:10:24.450,1743513024450,11.8268928274473,46.3772176589734,34.5948,1908.3528,4.8764821952,3
2025-04-01T15:10:24.550,1743513024550,11.8268958826448,46.3772215828451,34.5948,1908.3528,4.8764821952,3
2025-04-01T15:10:24.650,1743513024650,11.8268990550329,46.3772258880731,34.5948,1908.3528,4.8764821952,3
2025-04-01T15:10:24.750,1743513024750,11.8269021238364,46.3772298287996,34.5948,1908.3528,4.8764821952,3
2025-04-01T15:10:24.850,1743513024850,11.8269052319682,46.3772337412977,34.5948,1908.3528,4.8764821952,3
2025-04-01T15:10:24.950,1743513024950,11.8269083491376,46.3772376657176,34.5948,1908.3528,4.92443662304,3
2025-04-01T15:10:25.050,1743513025050,11.8269116324594,46.3772414389927,34.5948,1908.3528,4.92443662304,3
2025-04-01T15:10:25.150,1743513025150,11.8269147710807,46.3772453390211,34.5948,1908.3528,4.8764821952,3
2025-04-01T15:10:25.250,1743513025250,11.8269175052952,46.3772490233633,34.5948,1908.3528,4.8764821952,3
2025-04-01T15:10:25.350,1743513025350,11.8269205751912,46.3772528999594,34.68624,1908.3528,4.8764821952,3
2025-04-01T15:10:25.460,1743513025460,11.8269238142189,46.3772572539703,34.68624,1908.3528,4.8764821952,3
2025-04-01T15:10:25.560,1743513025560,11.8269268913648,46.3772611831862,34.68624,1908.3528,4.8764821952,3
2025-04-01T15:10:25.660,1743513025660,11.8269299463637,46.3772650644414,34.68624,1908.3528,4.8764821952,3
2025-04-01T15:10:25.750,1743513025750,11.8269330173521,46.3772689892724,34.68624,1908.3528,4.8764821952,3
2025-04-01T15:10:25.860,1743513025860,11.8269361366071,46.3772728554542,34.68624,1908.3528,4.8764821952,3
2025-04-01T15:10:25.950,1743513025950,11.8269392360986,46.3772767742558,34.68624,1908.3528,4.8764821952,3
2025-04-01T15:10:26.050,1743513026050,11.8269424401678,46.3772806383822,34.68624,1908.3528,4.92443662304,3
2025-04-01T15:10:26.150,1743513026150,11.8269455599194,46.3772845763681,34.68624,1908.3528,4.92443662304,3
2025-04-01T15:10:26.270,1743513026270,11.8269483506436,46.3772883479988,34.68624,1908.3528,4.92443662304,3
2025-04-01T15:10:26.350,1743513026350,11.826951428584,46.3772922898215,34.77768,1908.3528,4.96488480224,3
2025-04-01T15:10:26.470,1743513026470,11.8269545363186,46.3772962075269,34.77768,1908.3528,4.96488480224,3
2025-04-01T15:10:26.570,1743513026570,11.8269576355122,46.3773001514051,34.77768,1908.3528,5.01199387744,3
2025-04-01T15:10:26.650,1743513026650,11.8269610448634,46.3773044577293,34.77768,1908.3528,4.92443662304,3
2025-04-01T15:10:26.750,1743513026750,11.8269642381074,46.3773084196955,34.77768,1908.3528,4.92443662304,3
2025-04-01T15:10:26.880,1743513026880,11.8269672204083,46.3773120083903,34.77768,1908.3528,4.92443662304,3
2025-04-01T15:10:26.980,1743513026980,11.8269704300391,46.3773159188331,34.77768,1908.3528,4.92443662304,3
2025-04-01T15:10:27.080,1743513027080,11.8269741040623,46.3773201503385,34.77768,1908.3528,4.92443662304,3
2025-04-01T15:10:27.150,1743513027150,11.8269773458708,46.3773240750324,34.77768,1908.3528,4.92443662304,3
2025-04-01T15:10:27.290,1743513027290,11.8269802177346,46.3773278396746,34.77768,1908.3528,4.92443662304,3
2025-04-01T15:10:27.390,1743513027390,11.8269833940953,46.3773317216149,34.77768,1908.3528,4.92443662304,3
2025-04-01T15:10:27.490,1743513027490,11.8269868718739,46.3773359632607,34.77768,1908.3528,4.83736261888,3
2025-04-01T15:10:27.550,1743513027550,11.8269900916347,46.3773398378014,34.8996,1908.6576,4.83736261888,3
2025-04-01T15:10:27.650,1743513027650,11.8269933857817,46.3773439193953,34.8996,1908.6576,4.83736261888,3
2025-04-01T15:10:27.750,1743513027750,11.8269966397066,46.3773478257272,34.8996,1908.6576,4.83736261888,3
2025-04-01T15:10:27.850,1743513027850,11.8269996729556,46.3773512501223,34.8996,1908.6576,4.83736261888,3
2025-04-01T15:10:27.950,1743513027950,11.8270029077129,46.3773551095896,34.8996,1908.6576,4.83736261888,3
2025-04-01T15:10:28.050,1743513028050,11.827006086457,46.3773589324698,34.8996,1908.6576,4.83736261888,3
2025-04-01T15:10:28.150,1743513028150,11.8270093248889,46.377362751239,34.8996,1908.6576,4.83736261888,3
2025-04-01T15:10:28.250,1743513028250,11.8270126470424,46.3773665128665,34.99104,1908.6576,4.8877476032,3
2025-04-01T15:10:28.350,1743513028350,11.8270159364223,46.3773703230028,34.99104,1908.6576,4.8877476032,3
2025-04-01T15:10:28.450,1743513028450,11.8270191473442,46.3773741791814,34.99104,1908.6576,4.8877476032,3
2025-04-01T15:10:28.550,1743513028550,11.8270224447686,46.3773780080909,34.99104,1908.6576,4.8877476032,3
2025-04-01T15:10:28.650,1743513028650,11.827025731765,46.3773818009614,34.99104,1908.6576,4.8877476032,3
2025-04-01T15:10:28.750,1743513028750,11.8270290093266,46.3773856317893,34.99104,1908.6576,4.8877476032,3
2025-04-01T15:10:28.850,1743513028850,11.827032274176,46.3773894098605,35.08248,1908.6576,4.8877476032,3
2025-04-01T15:10:28.950,1743513028950,11.8270355294912,46.3773932352072,35.08248,1908.6576,4.8877476032,3
2025-04-01T15:10:29.050,1743513029050,11.8270385617472,46.3773966966006,35.08248,1908.6576,4.8877476032,3
2025-04-01T15:10:29.150,1743513029150,11.8270417949154,46.3774004913895,35.08248,1908.6576,4.8877476032,3
2025-04-01T15:10:29.250,1743513029250,11.8270449180437,46.3774046127223,35.08248,1908.6576,4.8877476032,3
2025-04-01T15:10:29.350,1743513029350,11.8270481506161,46.3774084573904,35.08248,1908.6576,4.8877476032,3
2025-04-01T15:10:29.450,1743513029450,11.827051443472,46.3774122499868,35.08248,1908.6576,4.83736261888,3
2025-04-01T15:10:29.550,1743513029550,11.8270546701848,46.3774161117836,35.08248,1908.6576,4.92443662304,3
2025-04-01T15:10:29.650,1743513029650,11.8270580679164,46.3774200515509,35.17392,1908.9624,4.92443662304,3
2025-04-01T15:10:29.750,1743513029750,11.8270613014818,46.3774239318469,35.17392,1908.9624,4.92443662304,3
2025-04-01T15:10:29.850,1743513029850,11.8270645276981,46.377427798988,35.17392,1908.9624,4.92443662304,3
2025-04-01T15:10:29.950,1743513029950,11.8270677577875,46.3774316876428,35.17392,1908.9624,4.97394004448,3
2025-04-01T15:10:30.050,1743513030050,11.8270712849253,46.3774359614908,35.17392,1908.9624,4.97394004448,3
2025-04-01T15:10:30.150,1743513030150,11.8270745384529,46.3774398838551,35.17392,1908.9624,4.97394004448,3
2025-04-01T15:10:30.250,1743513030250,11.8270776477765,46.3774437736063,35.17392,1908.9624,4.92443662304,3
2025-04-01T15:10:30.340,1743513030340,11.827080875979,46.3774477002186,35.17392,1908.9624,4.92443662304,3
2025-04-01T15:10:30.450,1743513030450,11.8270837053365,46.3774512819249,35.17392,1908.9624,4.92443662304,3
2025-04-01T15:10:30.550,1743513030550,11.8270868585569,46.3774551989451,35.17392,1908.9624,4.92443662304,3
2025-04-01T15:10:30.650,1743513030650,11.8270899718531,46.3774593006826,35.17392,1908.9624,4.92443662304,3
2025-04-01T15:10:30.750,1743513030750,11.8270931011389,46.377463249905,35.29584,1908.9624,4.92443662304,3
2025-04-01T15:10:30.850,1743513030850,11.8270964962883,46.3774674337238,35.29584,1908.9624,4.92443662304,3
2025-04-01T15:10:30.950,1743513030950,11.8270996384848,46.3774714051451,35.29584,1908.9624,5.01199387744,3
2025-04-01T15:10:31.050,1743513031050,11.8271028908207,46.3774753483382,35.29584,1908.9624,4.92443662304,3
2025-04-01T15:10:31.150,1743513031150,11.8271060381816,46.3774793153745,35.29584,1908.9624,4.8764821952,3
2025-04-01T15:10:31.260,1743513031260,11.8271087645503,46.3774830819351,35.29584,1908.9624,4.8764821952,3
2025-04-01T15:10:31.360,1743513031360,11.8271118498399,46.3774870396534,35.29584,1908.9624,4.96488480224,3
2025-04-01T15:10:31.450,1743513031450,11.8271151440863,46.3774908393754,35.29584,1908.9624,4.96488480224,3
2025-04-01T15:10:31.570,1743513031570,11.8271182409956,46.3774947980529,35.29584,1908.9624,5.01199387744,3
2025-04-01T15:10:31.670,1743513031670,11.8271212647106,46.377498799758,35.29584,1908.9624,5.01199387744,3
2025-04-01T15:10:31.750,1743513031750,11.8271243577467,46.3775027892674,35.38728,1908.9624,5.01199387744,3
2025-04-01T15:10:31.870,1743513031870,11.8271277164478,46.3775072422144,35.38728,1908.9624,5.01199387744,3
2025-04-01T15:10:31.950,1743513031950,11.8271308543739,46.3775113016094,35.38728,1908.9624,5.01199387744,3
2025-04-01T15:10:32.050,1743513032050,11.8271338876229,46.3775148863304,35.38728,1908.9624,5.01199387744,3
2025-04-01T15:10:32.150,1743513032150,11.8271370358776,46.377518903657,35.38728,1908.9624,5.01199387744,3
2025-04-01T15:10:32.280,1743513032280,11.8271401706256,46.3775229063213,35.38728,1908.9624,5.01199387744,3
2025-04-01T15:10:32.380,1743513032380,11.8271433512567,46.3775269054228,35.38728,1908.9624,5.01199387744,3
2025-04-01T15:10:32.450,1743513032450,11.8271467147249,46.3775313080795,35.38728,1908.9624,5.01199387744,3
2025-04-01T15:10:32.590,1743513032590,11.8271499253489,46.3775353407536,35.38728,1908.9624,5.01199387744,3
2025-04-01T15:10:32.650,1743513032650,11.8271530808535,46.3775392424263,35.38728,1908.9624,5.01199387744,3
2025-04-01T15:10:32.790,1743513032790,11.827156278368,46.3775432457758,35.38728,1908.9624,5.01199387744,3
2025-04-01T15:10:32.890,1743513032890,11.827159473499,46.3775471686883,35.38728,1908.9624,5.01199387744,3
2025-04-01T15:10:32.990,1743513032990,11.8271626557191,46.3775511381913,35.38728,1908.9624,5.01199387744,3
2025-04-01T15:10:33.050,1743513033050,11.8271658156929,46.3775550658998,35.38728,1908.9624,5.01199387744,3
2025-04-01T15:10:33.150,1743513033150,11.8271689682181,46.3775590189591,35.38728,1908.9624,4.92443662304,3
2025-04-01T15:10:33.250,1743513033250,11.8271718893416,46.3775627102899,35.47872,1909.2672,4.92443662304,3
2025-04-01T15:10:33.350,1743513033350,11.8271750185281,46.3775666255286,35.47872,1909.2672,4.92443662304,3
2025-04-01T15:10:33.450,1743513033450,11.82717838726,46.3775708727926,35.47872,1909.2672,4.92443662304,3
2025-04-01T15:10:33.550,1743513033550,11.8271815496173,46.3775748198226,35.47872,1909.2672,4.92443662304,3
2025-04-01T15:10:33.650,1743513033650,11.8271847326319,46.377578760549,35.47872,1909.2672,4.92443662304,3
2025-04-01T15:10:33.750,1743513033750,11.8271879080986,46.3775826979868,35.47872,1909.2672,4.92443662304,3
2025-04-01T15:10:33.850,1743513033850,11.8271910698601,46.3775867956133,35.47872,1909.2672,4.92443662304,3
2025-04-01T15:10:33.950,1743513033950,11.827194258337,46.3775907320919,35.47872,1909.2672,4.92443662304,3
2025-04-01T15:10:34.050,1743513034050,11.827197261196,46.3775944878271,35.47872,1909.2672,4.92443662304,3
2025-04-01T15:10:34.150,1743513034150,11.8272004320943,46.377598386074,35.47872,1909.2672,4.92443662304,3
2025-04-01T15:10:34.250,1743513034250,11.827203744813,46.3776021819592,35.57016,1909.2672,4.92443662304,3
2025-04-01T15:10:34.350,1743513034350,11.827206948485,46.3776060521149,35.57016,1909.2672,4.83736261888,3
2025-04-01T15:10:34.450,1743513034450,11.8272102238616,46.3776098985643,35.57016,1909.2672,4.83736261888,3
2025-04-01T15:10:34.550,1743513034550,11.827213442232,46.3776137580317,35.57016,1909.2672,4.83736261888,3
2025-04-01T15:10:34.650,1743513034650,11.8272165528467,46.3776175295254,35.57016,1909.2672,4.83736261888,3
2025-04-01T15:10:34.750,1743513034750,11.8272197538372,46.3776213795376,35.57016,1909.2672,4.83736261888,3
2025-04-01T15:10:34.850,1743513034850,11.8272229345676,46.3776253627436,35.57016,1909.2672,4.83736261888,3
2025-04-01T15:10:34.950,1743513034950,11.8272261465819,46.3776292248145,35.57016,1909.2672,4.83736261888,3
2025-04-01T15:10:35.050,1743513035050,11.8272293569079,46.3776330479687,35.57016,1909.2672,4.92443662304,3
2025-04-01T15:10:35.150,1743513035150,11.827232585607,46.3776369126432,35.57016,1909.2672,4.97394004448,3
2025-04-01T15:10:35.250,1743513035250,11.8272355984967,46.3776404729727,35.57016,1909.2672,4.97394004448,3
2025-04-01T15:10:35.350,1743513035350,11.8272388221308,46.3776443221628,35.69208,1909.2672,4.97394004448,3
2025-04-01T15:10:35.450,1743513035450,11.8272427070969,46.3776488190966,35.69208,1909.2672,4.97394004448,3
2025-04-01T15:10:35.550,1743513035550,11.8272460030316,46.3776527395425,35.69208,1909.2672,4.97394004448,3
2025-04-01T15:10:35.650,1743513035650,11.8272489986407,46.3776562240941,35.69208,1909.2672,4.97394004448,3
2025-04-01T15:10:35.850,1743513035850,11.8272555061925,46.3776640108589,35.69208,1909.2672,4.8877476032,3
2025-04-01T15:10:35.950,1743513035950,11.8272587579324,46.3776678660783,35.69208,1909.2672,4.83736261888,3
2025-04-01T15:10:36.050,1743513036050,11.8272618282256,46.3776714772462,35.69208,1909.2672,4.83736261888,3
2025-04-01T15:10:36.150,1743513036150,11.8272650529521,46.377675316707,35.69208,1909.2672,4.8877476032,3
2025-04-01T15:10:36.250,1743513036250,11.827268248679,46.377679179189,35.69208,1909.2672,4.83736261888,3
2025-04-01T15:10:36.350,1743513036350,11.8272714802582,46.3776830213905,35.69208,1909.2672,4.83736261888,3
2025-04-01T15:10:36.450,1743513036450,11.827275044738,46.3776871939728,35.78352,1909.572,4.83736261888,3
2025-04-01T15:10:36.560,1743513036560,11.8272782998546,46.3776910679654,35.78352,1909.572,4.92443662304,3
2025-04-01T15:10:36.650,1743513036650,11.8272813290318,46.377694753952,35.78352,1909.572,4.92443662304,3
2025-04-01T15:10:36.750,1743513036750,11.8272845666692,46.3776986132823,35.78352,1909.572,4.92443662304,3
2025-04-01T15:10:36.850,1743513036850,11.8272879621165,46.3777027513329,35.78352,1909.572,4.83736261888,3
2025-04-01T15:10:36.950,1743513036950,11.8272912274624,46.3777066213516,35.78352,1909.572,4.83736261888,3
2025-04-01T15:10:37.060,1743513037060,11.8272945348182,46.3777103895565,35.78352,1909.572,4.8877476032,3
2025-04-01T15:10:37.150,1743513037150,11.8272978445575,46.377714249709,35.78352,1909.572,4.8877476032,3
2025-04-01T15:10:37.270,1743513037270,11.8273010311475,46.3777182115382,35.78352,1909.572,4.8877476032,3
2025-04-01T15:10:37.370,1743513037370,11.827304346647,46.3777220963562,35.78352,1909.572,4.97394004448,3
2025-04-01T15:10:37.470,1743513037470,11.8273077500395,46.3777259432168,35.78352,1909.572,4.97394004448,3
2025-04-01T15:10:37.570,1743513037570,11.8273110526282,46.3777298396824,35.78352,1909.572,4.97394004448,3
2025-04-01T15:10:37.650,1743513037650,11.8273141394076,46.3777336788692,35.78352,1909.572,4.97394004448,3
2025-04-01T15:10:37.770,1743513037770,11.8273174205444,46.3777375771162,35.78352,1909.572,4.97394004448,3
2025-04-01T15:10:37.850,1743513037850,11.8273208210568,46.3777415226387,35.78352,1909.572,4.97394004448,3
2025-04-01T15:10:37.980,1743513037980,11.8273241166935,46.3777454448661,35.78352,1909.572,4.97394004448,3
2025-04-01T15:10:38.050,1743513038050,11.8273274286178,46.3777492391069,35.78352,1909.572,4.97394004448,3
2025-04-01T15:10:38.150,1743513038150,11.8273307132307,46.3777531839443,35.78352,1909.572,4.92443662304,3
2025-04-01T15:10:38.280,1743513038280,11.8273339839396,46.3777571549546,35.78352,1909.572,5.01199387744,3
2025-04-01T15:10:38.390,1743513038390,11.8273372549465,46.3777611381606,35.78352,1909.572,5.01199387744,3
2025-04-01T15:10:38.490,1743513038490,11.8273402847195,46.3777649115727,35.78352,1909.572,5.0606403232,3
2025-04-01T15:10:38.590,1743513038590,11.8273435558257,46.3777688947787,35.78352,1909.572,5.0606403232,3
2025-04-01T15:10:38.690,1743513038690,11.8273472221024,46.3777732043916,35.78352,1909.572,5.0606403232,3
2025-04-01T15:10:38.790,1743513038790,11.8273505381978,46.3777772236366,35.78352,1909.572,5.0606403232,3
2025-04-01T15:10:38.890,1743513038890,11.8273536446413,46.3777809322332,35.78352,1909.572,5.0606403232,3
2025-04-01T15:10:38.950,1743513038950,11.8273569493156,46.3777848931032,35.78352,1909.572,5.0606403232,3
2025-04-01T15:10:39.050,1743513039050,11.8273604286833,46.3777891703769,35.78352,1909.572,5.0606403232,3
2025-04-01T15:10:39.150,1743513039150,11.8273637519294,46.3777931200104,35.78352,1909.572,4.97394004448,3
2025-04-01T15:10:39.250,1743513039250,11.8273668243082,46.3777967218602,35.78352,1909.572,4.97394004448,3
2025-04-01T15:10:39.350,1743513039350,11.8273701266983,46.3778006099669,35.78352,1909.572,4.97394004448,3
2025-04-01T15:10:39.450,1743513039450,11.8273732898501,46.3778046590846,35.78352,1909.572,4.97394004448,3
2025-04-01T15:10:39.550,1743513039550,11.8273765748602,46.3778085407509,35.78352,1909.572,4.97394004448,3
2025-04-01T15:10:39.650,1743513039650,11.8273802941706,46.377812656534,35.78352,1909.572,4.97394004448,3
2025-04-01T15:10:39.750,1743513039750,11.8273836173174,46.377816565812,35.78352,1909.572,4.97394004448,3
2025-04-01T15:10:39.850,1743513039850,11.8273867023091,46.3778206023914,35.78352,1909.572,4.97394004448,3
2025-04-01T15:10:39.950,1743513039950,11.8273899949664,46.3778245420902,35.78352,1909.572,4.97394004448,3
2025-04-01T15:10:40.050,1743513040050,11.8273934058074,46.3778284466406,35.78352,1909.572,4.97394004448,3
2025-04-01T15:10:40.150,1743513040150,11.8273967096872,46.3778323891485,35.78352,1909.572,4.97394004448,3
2025-04-01T15:10:40.250,1743513040250,11.8273999868515,46.3778362523842,35.78352,1909.572,4.97394004448,3
2025-04-01T15:10:40.350,1743513040350,11.827403294406,46.3778401795446,35.78352,1909.572,4.97394004448,3
2025-04-01T15:10:40.450,1743513040450,11.8274063645999,46.3778438509374,35.78352,1909.572,4.97394004448,3
2025-04-01T15:10:40.550,1743513040550,11.8274096595414,46.3778477460328,35.78352,1909.572,4.97394004448,3
2025-04-01T15:10:40.650,1743513040650,11.8274132405073,46.3778518939495,35.78352,1909.572,4.97394004448,3
2025-04-01T15:10:40.750,1743513040750,11.8274165905681,46.3778558024053,35.78352,1909.572,4.97394004448,3
2025-04-01T15:10:40.850,1743513040850,11.8274198962356,46.3778596265188,35.78352,1909.572,4.97394004448,3
2025-04-01T15:10:40.950,1743513040950,11.8274232432177,46.3778635081166,35.78352,1909.572,4.97394004448,3
2025-04-01T15:10:41.050,1743513041050,11.8274266710414,46.3778675042719,35.78352,1909.572,4.8877476032,3
2025-04-01T15:10:41.150,1743513041150,11.8274300209036,46.3778713707963,35.78352,1909.572,4.8877476032,3
2025-04-01T15:10:41.250,1743513041250,11.8274330996385,46.3778749181764,35.78352,1909.572,4.8877476032,3
2025-04-01T15:10:41.350,1743513041350,11.8274364206003,46.3778787443453,35.78352,1909.572,4.8877476032,3
2025-04-01T15:10:41.450,1743513041450,11.8274398119758,46.3778825585241,35.78352,1909.572,4.8877476032,3
2025-04-01T15:10:41.550,1743513041550,11.8274431356191,46.3778863890094,35.78352,1909.572,4.8877476032,3
2025-04-01T15:10:41.650,1743513041650,11.8274465068338,46.3778902797197,35.78352,1909.572,4.8877476032,3
2025-04-01T15:10:41.740,1743513041740,11.8274498339531,46.3778941224008,35.78352,1909.572,4.8877476032,3
2025-04-01T15:10:41.850,1743513041850,11.8274532182773,46.377898023731,35.78352,1909.572,4.8877476032,3
2025-04-01T15:10:41.950,1743513041950,11.8274565459924,46.377901865727,35.78352,1909.572,4.8877476032,3
2025-04-01T15:10:42.050,1743513042050,11.827459921279,46.3779057143004,35.78352,1909.572,4.8877476032,3
2025-04-01T15:10:42.150,1743513042150,11.8274632462134,46.3779095347825,35.78352,1909.572,4.8877476032,3
2025-04-01T15:10:42.250,1743513042250,11.8274668796172,46.3779134883213,35.78352,1909.572,4.8877476032,3
2025-04-01T15:10:42.350,1743513042350,11.8274702229246,46.3779172931135,35.78352,1909.572,4.8877476032,3
2025-04-01T15:10:42.450,1743513042450,11.827473554811,46.3779210966038,35.78352,1909.572,4.80209071584,3
2025-04-01T15:10:42.560,1743513042560,11.8274768892795,46.3779248728935,35.78352,1909.572,4.80209071584,3
2025-04-01T15:10:42.650,1743513042650,11.8274802522512,46.3779285727202,35.78352,1909.572,4.80209071584,3
2025-04-01T15:10:42.760,1743513042760,11.8274835805623,46.3779323438713,35.78352,1909.572,4.80209071584,3
2025-04-01T15:10:42.850,1743513042850,11.8274867706282,46.3779360082756,35.78352,1909.572,4.80209071584,3
2025-04-01T15:10:42.970,1743513042970,11.8274900754018,46.377939778536,35.78352,1909.572,4.80209071584,3
2025-04-01T15:10:43.050,1743513043050,11.827493197239,46.3779432237597,35.78352,1909.572,4.80209071584,3
2025-04-01T15:10:43.170,1743513043170,11.8274965153207,46.3779469361932,35.78352,1909.572,4.80209071584,3
2025-04-01T15:10:43.270,1743513043270,11.8275004003862,46.3779513900309,35.78352,1909.572,4.80209071584,3
2025-04-01T15:10:43.370,1743513043370,11.8275038236414,46.3779551508362,35.78352,1909.572,4.80209071584,3
2025-04-01T15:10:43.480,1743513043480,11.8275066870635,46.3779582157315,35.78352,1909.572,4.85490223328,3
2025-04-01T15:10:43.580,1743513043580,11.8275100889663,46.3779619257669,35.78352,1909.572,4.85490223328,3
2025-04-01T15:10:43.650,1743513043650,11.8275137854344,46.3779659099321,35.78352,1909.572,4.85490223328,3
2025-04-01T15:10:43.780,1743513043780,11.8275172042205,46.3779696805351,35.78352,1909.572,4.93964358272,3
2025-04-01T15:10:43.890,1743513043890,11.8275204047145,46.3779735459633,35.78352,1909.572,4.93964358272,3
2025-04-01T15:10:43.990,1743513043990,11.8275237806963,46.3779773431502,35.78352,1909.572,4.8877476032,3
2025-04-01T15:10:44.090,1743513044090,11.8275269894332,46.3779808355125,35.78352,1909.572,4.8877476032,3
2025-04-01T15:10:44.150,1743513044150,11.8275303408845,46.3779845864516,35.78352,1909.572,4.80209071584,3
2025-04-01T15:10:44.250,1743513044250,11.8275340566195,46.377988728065,35.78352,1909.572,4.80209071584,3
2025-04-01T15:10:44.350,1743513044350,11.8275374523648,46.3779925013401,35.78352,1909.572,4.85490223328,3
2025-04-01T15:10:44.450,1743513044450,11.827540575791,46.3779960126812,35.78352,1909.572,4.85490223328,3
2025-04-01T15:10:44.550,1743513044550,11.827543933499,46.3779997769807,35.78352,1909.572,4.8877476032,3
2025-04-01T15:10:44.650,1743513044650,11.8275472773031,46.3780035503928,35.78352,1909.572,4.8877476032,3
2025-04-01T15:10:44.750,1743513044750,11.8275506033299,46.3780073504574,35.78352,1909.572,4.8877476032,3
2025-04-01T15:10:44.850,1743513044850,11.827553919624,46.3780113153698,35.78352,1909.572,4.8877476032,3
2025-04-01T15:10:44.950,1743513044950,11.8275572512124,46.3780151251636,35.78352,1909.572,4.8877476032,3
2025-04-01T15:10:45.050,1743513045050,11.8275609224548,46.3780192360136,35.78352,1909.572,4.8877476032,3
2025-04-01T15:10:45.150,1743513045150,11.8275643074742,46.378023035393,35.78352,1909.572,4.80209071584,3
2025-04-01T15:10:45.250,1743513045250,11.8275673318843,46.3780265592038,35.78352,1909.572,4.8877476032,3
2025-04-01T15:10:45.350,1743513045350,11.8275706949552,46.3780303505669,35.78352,1909.572,4.8877476032,3
2025-04-01T15:10:45.450,1743513045450,11.827574487758,46.378034470598,35.78352,1909.572,4.8877476032,3
2025-04-01T15:10:45.550,1743513045550,11.8275778636405,46.3780383453443,35.78352,1909.572,4.8877476032,3
2025-04-01T15:10:45.650,1743513045650,11.8275809715737,46.3780422134445,35.78352,1909.572,4.97394004448,3
2025-04-01T15:10:45.750,1743513045750,11.827584295217,46.3780461089509,35.78352,1909.572,4.97394004448,3
2025-04-01T15:10:45.850,1743513045850,11.8275876435895,46.3780500335763,35.78352,1909.572,4.97394004448,3
2025-04-01T15:10:45.950,1743513045950,11.8275909771642,46.3780539438135,35.78352,1909.572,4.97394004448,3
2025-04-01T15:10:46.050,1743513046050,11.827594060269,46.3780576004756,35.78352,1909.572,4.97394004448,3
2025-04-01T15:10:46.150,1743513046150,11.8275973691145,46.3780615080406,35.78352,1909.572,4.97394004448,3
2025-04-01T15:10:46.250,1743513046250,11.8276010104633,46.378065776887,35.78352,1909.572,4.97394004448,3
2025-04-01T15:10:46.350,1743513046350,11.8276043490037,46.3780697376199,35.78352,1909.572,4.97394004448,3
2025-04-01T15:10:46.450,1743513046450,11.827607372818,46.3780734669082,35.78352,1909.572,4.97394004448,3
2025-04-01T15:10:46.550,1743513046550,11.8276106711362,46.3780774098272,35.78352,1909.572,4.97394004448,3
2025-04-01T15:10:46.650,1743513046650,11.8276142806053,46.3780816908007,35.78352,1909.572,4.97394004448,3
2025-04-01T15:10:46.750,1743513046750,11.8276176281832,46.3780856340622,35.78352,1909.572,4.97394004448,3
2025-04-01T15:10:46.850,1743513046850,11.8276210217436,46.3780894858558,35.78352,1909.572,4.97394004448,3
2025-04-01T15:10:46.950,1743513046950,11.8276243804448,46.3780933829381,35.78352,1909.572,4.97394004448,3
2025-04-01T15:10:47.050,1743513047050,11.8276273810195,46.3780971000991,35.78352,1909.572,4.97394004448,3
2025-04-01T15:10:47.150,1743513047150,11.8276307016834,46.3781009725844,35.78352,1909.572,4.97394004448,3
2025-04-01T15:10:47.250,1743513047250,11.8276340620729,46.3781048230762,35.78352,1909.572,4.97394004448,3
2025-04-01T15:10:47.340,1743513047340,11.8276374043872,46.378108700015,35.78352,1909.572,4.97394004448,3
2025-04-01T15:10:47.450,1743513047450,11.8276410509997,46.3781129592691,35.78352,1909.572,4.97394004448,3
2025-04-01T15:10:47.550,1743513047550,11.8276444429711,46.3781168793725,35.78352,1909.572,4.97394004448,3
2025-04-01T15:10:47.650,1743513047650,11.827647828785,46.3781207802916,35.69208,1909.2672,4.97394004448,3
2025-04-01T15:10:47.750,1743513047750,11.8276512306877,46.3781246738796,35.69208,1909.2672,4.93964358272,3
2025-04-01T15:10:47.850,1743513047850,11.8276544363459,46.3781280494918,35.69208,1909.2672,4.93964358272,3
2025-04-01T15:10:47.950,1743513047950,11.8276578289132,46.3781318542154,35.69208,1909.2672,4.93964358272,3
2025-04-01T15:10:48.050,1743513048050,11.8276613243697,46.378135585285,35.69208,1909.2672,4.93964358272,3
2025-04-01T15:10:48.150,1743513048150,11.8276647342176,46.378139371304,35.69208,1909.2672,4.93964358272,3
2025-04-01T15:10:48.250,1743513048250,11.8276683043583,46.3781435368977,35.69208,1909.2672,4.93964358272,3
2025-04-01T15:10:48.360,1743513048360,11.8276717334731,46.3781473823194,35.69208,1909.2672,4.93964358272,3
2025-04-01T15:10:48.450,1743513048450,11.8276753673734,46.3781514753554,35.69208,1909.2672,4.93964358272,3
2025-04-01T15:10:48.550,1743513048550,11.8276787998649,46.3781553440038,35.69208,1909.2672,4.93964358272,3
2025-04-01T15:10:48.650,1743513048650,11.8276818343058,46.3781587623011,35.69208,1909.2672,4.93964358272,3
2025-04-01T15:10:48.770,1743513048770,11.827685235414,46.3781625657229,35.69208,1909.2672,4.93964358272,3
2025-04-01T15:10:48.850,1743513048850,11.8276886524125,46.3781662607535,35.69208,1909.2672,4.93964358272,3
2025-04-01T15:10:48.970,1743513048970,11.8276920620617,46.3781700554739,35.69208,1909.2672,4.93964358272,3
2025-04-01T15:10:49.050,1743513049050,11.8276953368425,46.3781738240899,35.57016,1909.2672,4.93964358272,3
2025-04-01T15:10:49.150,1743513049150,11.8276987311974,46.3781776327189,35.57016,1909.2672,4.93964358272,3
2025-04-01T15:10:49.280,1743513049280,11.8277021044977,46.3781814765648,35.57016,1909.2672,4.93964358272,3
2025-04-01T15:10:49.380,1743513049380,11.8277055010375,46.3781852967043,35.57016,1909.2672,4.93964358272,3
2025-04-01T15:10:49.480,1743513049480,11.827708924988,46.3781891153365,35.57016,1909.2672,4.93964358272,3
2025-04-01T15:10:49.590,1743513049590,11.8277123400002,46.3781929354076,35.57016,1909.2672,4.93964358272,3
2025-04-01T15:10:49.690,1743513049690,11.8277154129749,46.3781964257144,35.47872,1909.2672,4.93964358272,3
2025-04-01T15:10:49.790,1743513049790,11.8277187987888,46.378200225642,35.47872,1909.2672,4.93964358272,3
2025-04-01T15:10:49.890,1743513049890,11.8277222610744,46.3782040640751,35.47872,1909.2672,4.93964358272,3
2025-04-01T15:10:49.950,1743513049950,11.8277256466897,46.378207901138,35.47872,1909.2672,4.93964358272,3
2025-04-01T15:10:50.050,1743513050050,11.8277293070075,46.3782120627578,35.47872,1909.2672,5.02494596736,3
2025-04-01T15:10:50.150,1743513050150,11.8277327176499,46.3782159537422,35.38728,1908.9624,5.02494596736,3
2025-04-01T15:10:50.250,1743513050250,11.8277358496172,46.3782195858072,35.38728,1908.9624,5.02494596736,3
2025-04-01T15:10:50.350,1743513050350,11.8277392239106,46.3782234383545,35.38728,1908.9624,5.02494596736,3
2025-04-01T15:10:50.450,1743513050450,11.8277429080638,46.3782277127506,35.38728,1908.9624,5.02494596736,3
2025-04-01T15:10:50.550,1743513050550,11.8277463002338,46.3782315996925,35.29584,1908.9624,4.97394004448,3
2025-04-01T15:10:50.650,1743513050650,11.827749670952,46.3782353363119,35.29584,1908.9624,5.02494596736,3
2025-04-01T15:10:50.750,1743513050750,11.8277530458413,46.3782392055084,35.29584,1908.9624,4.93964358272,3
2025-04-01T15:10:50.850,1743513050850,11.827756453107,46.3782431646656,35.29584,1908.9624,4.97394004448,3
2025-04-01T15:10:50.950,1743513050950,11.827759819654,46.3782470401655,35.29584,1908.9624,4.8877476032,3
2025-04-01T15:10:51.050,1743513051050,11.8277631133044,46.3782509693814,35.17392,1908.9624,4.8877476032,3
2025-04-01T15:10:51.150,1743513051150,11.8277664651529,46.3782548306301,35.17392,1908.9624,4.8877476032,3
2025-04-01T15:10:51.250,1743513051250,11.8277695385249,46.3782582937364,35.17392,1908.9624,4.8877476032,3
2025-04-01T15:10:51.350,1743513051350,11.8277728701133,46.3782621013377,35.08248,1908.6576,4.8877476032,3
2025-04-01T15:10:51.450,1743513051450,11.8277763012144,46.3782660883805,35.08248,1908.6576,4.8877476032,3
2025-04-01T15:10:51.550,1743513051550,11.8277796627956,46.3782699190714,35.08248,1908.6576,4.8877476032,3
2025-04-01T15:10:51.650,1743513051650,11.8277833209286,46.3782741100843,34.99104,1908.6576,4.8877476032,3
2025-04-01T15:10:51.750,1743513051750,11.8277867095232,46.3782779966152,34.99104,1908.6576,4.97394004448,3
2025-04-01T15:10:51.850,1743513051850,11.8277901638638,46.3782817233684,34.99104,1908.6576,4.8877476032,3
2025-04-01T15:10:51.950,1743513051950,11.827793560205,46.3782855747509,34.8996,1908.6576,4.8877476032,3
2025-04-01T15:10:52.050,1743513052050,11.8277966157004,46.3782890875308,34.8996,1908.6576,4.8877476032,3
2025-04-01T15:10:52.150,1743513052150,11.827800002706,46.3782928830049,34.8996,1908.6576,4.93964358272,3
2025-04-01T15:10:52.250,1743513052250,11.8278039045556,46.3782969867978,34.77768,1908.3528,4.93964358272,3
2025-04-01T15:10:52.350,1743513052350,11.827807368033,46.3783008052245,34.77768,1908.3528,4.93964358272,3
2025-04-01T15:10:52.450,1743513052450,11.8278103488443,46.378304370213,34.77768,1908.3528,4.93964358272,3
2025-04-01T15:10:52.550,1743513052550,11.8278137696167,46.378308163426,34.68624,1908.3528,4.93964358272,3
2025-04-01T15:10:52.650,1743513052650,11.8278175489128,46.3783122500902,34.68624,1908.3528,4.93964358272,3
2025-04-01T15:10:52.750,1743513052750,11.8278210000753,46.3783160904417,34.5948,1908.3528,4.93964358272,3
2025-04-01T15:10:52.850,1743513052850,11.8278244224367,46.3783198738571,34.5948,1908.3528,4.93964358272,3
2025-04-01T15:10:52.950,1743513052950,11.8278278587021,46.3783236924893,34.5948,1908.3528,4.93964358272,3
2025-04-01T15:10:53.050,1743513053050,11.8278313108578,46.3783275936824,34.47288,1908.048,4.93964358272,3
2025-04-01T15:10:53.150,1743513053150,11.8278347326234,46.3783314055316,34.47288,1908.048,4.93964358272,3
2025-04-01T15:10:53.250,1743513053250,11.8278377994406,46.3783348087555,34.47288,1908.048,4.93964358272,3
2025-04-01T15:10:53.350,1743513053350,11.8278411832682,46.3783385782623,34.38144,1908.048,4.93964358272,3
2025-04-01T15:10:53.450,1743513053450,11.8278447061354,46.3783423891523,34.38144,1908.048,4.93964358272,3
2025-04-01T15:10:53.550,1743513053550,11.8278481064492,46.3783461570832,34.29,1908.048,4.93964358272,3
2025-04-01T15:10:53.650,1743513053650,11.8278517890134,46.3783502790326,34.29,1908.048,4.93964358272,3
2025-04-01T15:10:53.760,1743513053760,11.827855213957,46.3783540804675,34.19856,1907.7432,4.93964358272,3
2025-04-01T15:10:53.850,1743513053850,11.8278585898394,46.3783578897817,34.19856,1907.7432,4.93964358272,3
2025-04-01T15:10:53.950,1743513053950,11.8278619839957,46.3783616816929,34.07664,1907.7432,4.8877476032,3
2025-04-01T15:10:54.050,1743513054050,11.8278653243238,46.3783656320116,34.07664,1907.7432,4.8877476032,3
2025-04-01T15:10:54.150,1743513054150,11.8278687023911,46.3783694487253,33.9852,1907.7432,4.8877476032,3
2025-04-01T15:10:54.270,1743513054270,11.8278720592053,46.3783732448845,33.9852,1907.7432,4.8877476032,3
2025-04-01T15:10:54.370,1743513054370,11.8278754156223,46.3783770926358,33.89376,1907.4384,4.8877476032,3
2025-04-01T15:10:54.470,1743513054470,11.8278789367019,46.3783809315142,33.77184,1907.4384,4.8877476032,3
2025-04-01T15:10:54.570,1743513054570,11.8278822970913,46.3783847703927,33.77184,1907.4384,4.8877476032,3
2025-04-01T15:10:54.670,1743513054670,11.8278854179354,46.3783885074232,33.6804,1907.4384,4.8877476032,3
2025-04-01T15:10:54.770,1743513054770,11.8278887354212,46.3783922933051,33.6804,1907.4384,4.80209071584,3
2025-04-01T15:10:54.850,1743513054850,11.82789205827,46.378396086758,33.58896,1907.1336,4.8877476032,3
2025-04-01T15:10:54.980,1743513054980,11.8278953489411,46.3783998681864,33.58896,1907.1336,4.80209071584,3
2025-04-01T15:10:55.080,1743513055080,11.8278986137904,46.3784036051826,33.49752,1907.1336,4.80209071584,3
2025-04-01T15:10:55.180,1743513055180,11.8279019263106,46.378407322138,33.49752,1907.1336,4.80209071584,3
2025-04-01T15:10:55.280,1743513055280,11.8279053504597,46.3784110935975,33.3756,1907.1336,4.80209071584,3
2025-04-01T15:10:55.380,1743513055380,11.8279086955548,46.3784148260717,33.28416,1906.8288,4.80209071584,3
2025-04-01T15:10:55.490,1743513055490,11.8279119909929,46.3784186875602,33.28416,1906.8288,4.80209071584,3
2025-04-01T15:10:55.590,1743513055590,11.8279153295333,46.3784224577179,33.19272,1906.8288,4.80209071584,3
2025-04-01T15:10:55.690,1743513055690,11.8279187099842,46.3784262826193,33.19272,1906.8288,4.80209071584,3
2025-04-01T15:10:55.790,1743513055790,11.8279220465384,46.3784300828209,33.0708,1906.8288,4.8877476032,3
2025-04-01T15:10:55.890,1743513055890,11.8279252857647,46.378433859556,33.0708,1906.8288,4.8877476032,3
2025-04-01T15:10:55.950,1743513055950,11.8279286096067,46.378437706348,32.97936,1906.524,4.8877476032,3
2025-04-01T15:10:56.050,1743513056050,11.8279319078256,46.3784416282328,32.88792,1906.524,4.97394004448,3
2025-04-01T15:10:56.150,1743513056150,11.8279352284894,46.3784455430263,32.88792,1906.524,4.97394004448,3
2025-04-01T15:10:56.250,1743513056250,11.8279386297963,46.3784494007465,32.79648,1906.524,4.97394004448,3
2025-04-01T15:10:56.350,1743513056350,11.8279419584053,46.3784533411304,32.79648,1906.524,4.97394004448,3
2025-04-01T15:10:56.450,1743513056450,11.8279452139192,46.3784573211504,32.67456,1906.2192,4.97394004448,3
2025-04-01T15:10:56.550,1743513056550,11.8279485304119,46.3784611925394,32.67456,1906.2192,4.8877476032,3
2025-04-01T15:10:56.650,1743513056650,11.8279516595983,46.3784645889117,32.58312,1906.2192,4.80209071584,3
2025-04-01T15:10:56.750,1743513056750,11.8279550076728,46.378468290417,32.58312,1906.2192,4.85490223328,3
2025-04-01T15:10:56.850,1743513056850,11.8279586944082,46.3784722541646,32.49168,1906.2192,4.77075187072,3
2025-04-01T15:10:56.950,1743513056950,11.8279621398105,46.3784758962672,32.36976,1905.9144,4.77075187072,3
2025-04-01T15:10:57.050,1743513057050,11.8279657739095,46.3784795237759,32.36976,1905.9144,4.77075187072,3
2025-04-01T15:10:57.150,1743513057150,11.827969238976,46.3784831734151,32.27832,1905.9144,4.77075187072,3
2025-04-01T15:10:57.250,1743513057250,11.8279724478122,46.3784869405238,32.27832,1905.9144,4.77075187072,3
2025-04-01T15:10:57.350,1743513057350,11.8279758554752,46.37849064799,32.18688,1905.9144,4.85490223328,3
2025-04-01T15:10:57.450,1743513057450,11.8279793278909,46.3784943954691,32.18688,1905.9144,4.85490223328,3
2025-04-01T15:10:57.550,1743513057550,11.8279827415127,46.3784980978308,32.09544,1905.6096,4.77075187072,3
2025-04-01T15:10:57.650,1743513057650,11.8279861523537,46.3785016985843,32.09544,1905.6096,4.77075187072,3
2025-04-01T15:10:57.750,1743513057750,11.8279896253653,46.3785053392823,31.97352,1905.6096,4.77075187072,3
2025-04-01T15:10:57.850,1743513057850,11.8279930360077,46.3785089477438,31.97352,1905.6096,4.77075187072,3
2025-04-01T15:10:57.950,1743513057950,11.8279965336492,46.3785125833373,31.88208,1905.6096,4.77075187072,3
2025-04-01T15:10:58.050,1743513058050,11.8280001280225,46.3785163320154,31.88208,1905.6096,4.77075187072,3
2025-04-01T15:10:58.150,1743513058150,11.8280036264585,46.3785200272173,31.79064,1905.3048,4.77075187072,3
2025-04-01T15:10:58.250,1743513058250,11.8280070891415,46.3785236248877,31.79064,1905.3048,4.85490223328,3
2025-04-01T15:10:58.350,1743513058350,11.828010560564,46.3785273501336,31.6992,1905.3048,4.85490223328,3
2025-04-01T15:10:58.450,1743513058450,11.8280139594874,46.3785310774006,31.57728,1905.3048,4.85490223328,3
2025-04-01T15:10:58.550,1743513058550,11.8280174166087,46.3785348400558,31.57728,1905.3048,4.85490223328,3
2025-04-01T15:10:58.650,1743513058650,11.8280210022424,46.3785385984973,31.48584,1905,4.85490223328,3
2025-04-01T15:10:58.740,1743513058740,11.828024472076,46.3785423781101,31.48584,1905,4.93964358272,3
2025-04-01T15:10:58.850,1743513058850,11.8280278553077,46.3785461853003,31.3944,1905,4.93964358272,3
2025-04-01T15:10:58.950,1743513058950,11.8280313382507,46.3785499650158,31.27248,1905,4.85490223328,3
2025-04-01T15:10:59.050,1743513059050,11.8280349050147,46.3785538258192,31.27248,1905,4.93964358272,3
2025-04-01T15:10:59.150,1743513059150,11.8280384082178,46.3785576155379,31.18104,1904.6952,4.9091831712,3
2025-04-01T15:10:59.250,1743513059250,11.8280417044504,46.3785609950898,31.18104,1904.6952,4.9930031712,3
2025-04-01T15:10:59.360,1743513059360,11.8280451764689,46.3785647512018,31.0896,1904.6952,4.93964358272,3
2025-04-01T15:10:59.450,1743513059450,11.8280489478198,46.3785689403305,31.0896,1904.6952,4.93964358272,3
2025-04-01T15:10:59.560,1743513059560,11.8280524234136,46.3785727561194,30.99816,1904.6952,4.93964358272,3
2025-04-01T15:10:59.660,1743513059660,11.8280558382272,46.3785766097629,30.99816,1904.6952,4.93964358272,3
2025-04-01T15:10:59.760,1743513059760,11.8280592870061,46.3785804326431,30.87624,1904.3904,4.93964358272,3
2025-04-01T15:10:59.860,1743513059860,11.8280626265397,46.378583778828,30.87624,1904.3904,4.93964358272,3
2025-04-01T15:10:59.950,1743513059950,11.8280660558531,46.3785875164751,30.7848,1904.3904,4.85490223328,3
2025-04-01T15:11:00.070,1743513060070,11.8280696164597,46.3785912562804,30.7848,1904.3904,4.85490223328,3
2025-04-01T15:11:00.150,1743513060150,11.8280730745742,46.3785949165738,30.69336,1904.3904,4.77075187072,3
2025-04-01T15:11:00.270,1743513060270,11.8280767770012,46.3785989285219,30.69336,1904.3904,4.77075187072,3
2025-04-01T15:11:00.350,1743513060350,11.828080278218,46.378602553153,30.57144,1904.0856,4.77075187072,3
2025-04-01T15:11:00.480,1743513060480,11.828083860475,46.3786062102261,30.57144,1904.0856,4.68722423488,3
2025-04-01T15:11:00.580,1743513060580,11.8280873454043,46.3786098473956,30.48,1904.0856,4.77075187072,3
2025-04-01T15:11:00.680,1743513060680,11.8280907075814,46.378613479118,30.38856,1904.0856,4.77075187072,3
2025-04-01T15:11:00.780,1743513060780,11.8280941279566,46.378617185625,30.38856,1904.0856,4.80209071584,3
2025-04-01T15:11:00.880,1743513060880,11.8280974923186,46.378621010081,30.29712,1903.7808,4.80209071584,3
2025-04-01T15:11:00.990,1743513060990,11.8281008763448,46.378624781883,30.29712,1903.7808,4.80209071584,3
2025-04-01T15:11:01.050,1743513061050,11.828104147749,46.3786283761276,30.1752,1903.7808,4.80209071584,3
2025-04-01T15:11:01.150,1743513061150,11.8281075186657,46.378632140804,30.1752,1903.7808,4.80209071584,3
2025-04-01T15:11:01.250,1743513061250,11.8281109161987,46.3786358413501,30.08376,1903.7808,4.8877476032,3
2025-04-01T15:11:01.390,1743513061390,11.8281142666568,46.3786396291847,30.08376,1903.7808,4.8877476032,3
2025-04-01T15:11:01.450,1743513061450,11.8281179460429,46.3786437208504,29.99232,1903.7808,4.8877476032,3
2025-04-01T15:11:01.550,1743513061550,11.8281212885559,46.3786475918626,29.99232,1903.7808,4.8877476032,3
2025-04-01T15:11:01.650,1743513061650,11.8281244795156,46.3786515186805,29.8704,1903.476,4.97394004448,3
2025-04-01T15:11:01.750,1743513061750,11.8281277872687,46.3786554255604,29.8704,1903.476,4.97394004448,3
2025-04-01T15:11:01.850,1743513061850,11.82813104894,46.3786592125043,29.77896,1903.476,4.97394004448,3
2025-04-01T15:11:01.950,1743513061950,11.8281343846996,46.3786631200694,29.77896,1903.476,4.97394004448,3
2025-04-01T15:11:02.050,1743513062050,11.8281374862768,46.3786667926612,29.68752,1903.476,4.97394004448,3
2025-04-01T15:11:02.150,1743513062150,11.8281408536182,46.3786706738993,29.59608,1903.1712,4.97394004448,3
2025-04-01T15:11:02.250,1743513062250,11.8281442767742,46.3786744679003,29.59608,1903.1712,4.97394004448,3
2025-04-01T15:11:02.350,1743513062350,11.8281476347802,46.3786783423554,29.47416,1903.1712,4.97394004448,3
2025-04-01T15:11:02.450,1743513062450,11.8281512925158,46.3786824276492,29.47416,1903.1712,4.97394004448,3
2025-04-01T15:11:02.550,1743513062550,11.8281546584669,46.3786863258448,29.38272,1903.1712,4.97394004448,3
2025-04-01T15:11:02.650,1743513062650,11.8281576114703,46.3786899595028,29.38272,1903.1712,4.97394004448,3
2025-04-01T15:11:02.750,1743513062750,11.828160936504,46.3786938359619,29.29128,1902.8664,4.97394004448,3
2025-04-01T15:11:02.850,1743513062850,11.8281645330622,46.3786980892724,29.19984,1902.8664,4.97394004448,3
2025-04-01T15:11:02.950,1743513062950,11.828167897027,46.3787019979166,29.19984,1902.8664,4.97394004448,3
2025-04-01T15:11:03.050,1743513063050,11.8281712560261,46.3787058739304,29.07792,1902.8664,4.97394004448,3
2025-04-01T15:11:03.150,1743513063150,11.828174636477,46.3787097481285,29.07792,1902.8664,4.8877476032,3
2025-04-01T15:11:03.250,1743513063250,11.82817772852,46.3787131159471,28.98648,1902.5616,4.8877476032,3
2025-04-01T15:11:03.350,1743513063350,11.8281810904985,46.378716896382,28.98648,1902.5616,4.8877476032,3
2025-04-01T15:11:03.450,1743513063450,11.8281844427443,46.3787207920083,28.89504,1902.5616,4.8877476032,3
2025-04-01T15:11:03.550,1743513063550,11.8281877977708,46.3787245874481,28.89504,1902.5616,4.8877476032,3
2025-04-01T15:11:03.650,1743513063650,11.8281913784388,46.3787287908623,28.77312,1902.5616,4.8877476032,3
2025-04-01T15:11:03.750,1743513063750,11.8281947382324,46.3787326693084,28.77312,1902.5616,4.97394004448,3
2025-04-01T15:11:03.850,1743513063850,11.8281980906768,46.3787365004618,28.68168,1902.2568,4.97394004448,3
2025-04-01T15:11:03.950,1743513063950,11.8282014290185,46.3787403835498,28.59024,1902.2568,4.97394004448,3
2025-04-01T15:11:04.050,1743513064050,11.8282046183893,46.3787441044106,28.59024,1902.2568,4.8877476032,3
2025-04-01T15:11:04.150,1743513064150,11.8282079273341,46.3787479464751,28.4988,1902.2568,4.8877476032,3
2025-04-01T15:11:04.250,1743513064250,11.8282110976365,46.3787518612343,28.4988,1902.2568,4.8877476032,3
2025-04-01T15:11:04.350,1743513064350,11.8282143960541,46.3787556919766,28.37688,1901.952,4.8877476032,3
2025-04-01T15:11:04.450,1743513064450,11.8282175528498,46.3787591754148,28.28544,1901.952,4.8877476032,3
2025-04-01T15:11:04.540,1743513064540,11.8282208361716,46.3787629724989,28.28544,1901.952,4.8877476032,3
2025-04-01T15:11:04.650,1743513064650,11.8282239907824,46.3787667241917,28.194,1901.952,4.8877476032,3
2025-04-01T15:11:04.750,1743513064750,11.8282272790699,46.3787705018517,28.194,1901.952,4.8877476032,3
2025-04-01T15:11:04.850,1743513064850,11.8282310541948,46.3787747254437,28.07208,1901.6472,4.8877476032,3
2025-04-01T15:11:04.950,1743513064950,11.8282343992899,46.3787785286771,28.07208,1901.6472,4.8877476032,3
2025-04-01T15:11:05.050,1743513065050,11.8282376291808,46.3787822631211,27.98064,1901.6472,4.8877476032,3
2025-04-01T15:11:05.150,1743513065150,11.8282409742759,46.3787860623121,27.98064,1901.6472,4.8877476032,3
2025-04-01T15:11:05.250,1743513065250,11.8282440196413,46.3787895759656,27.8892,1901.6472,4.8877476032,3
2025-04-01T15:11:05.360,1743513065360,11.8282473569899,46.3787933754478,27.79776,1901.3424,4.8877476032,3
2025-04-01T15:11:05.460,1743513065460,11.828251064184,46.3787974103486,27.79776,1901.3424,4.8877476032,3
2025-04-01T15:11:05.560,1743513065560,11.8282544388747,46.3788012459383,27.67584,1901.3424,4.8877476032,3
2025-04-01T15:11:05.650,1743513065650,11.8282578032368,46.3788050780338,27.5844,1901.3424,4.8877476032,3
2025-04-01T15:11:05.770,1743513065770,11.8282611709755,46.3788088881187,27.5844,1901.3424,4.8877476032,3
2025-04-01T15:11:05.870,1743513065870,11.828264501968,46.3788125841256,27.49296,1901.0376,4.80209071584,3
2025-04-01T15:11:05.950,1743513065950,11.8282678961243,46.3788163255754,27.37104,1901.0376,4.80209071584,3
2025-04-01T15:11:06.070,1743513066070,11.8282712759793,46.3788201159108,27.37104,1901.0376,4.85490223328,3
2025-04-01T15:11:06.150,1743513066150,11.8282747243611,46.3788238158659,27.2796,1901.0376,4.85490223328,3
2025-04-01T15:11:06.270,1743513066270,11.8282781856536,46.3788275548148,27.18816,1900.7328,4.77075187072,3
2025-04-01T15:11:06.380,1743513066380,11.8282816624392,46.3788312388144,27.18816,1900.7328,4.77075187072,3
2025-04-01T15:11:06.480,1743513066480,11.8282852305936,46.3788349774293,27.09672,1900.7328,4.77075187072,3
2025-04-01T15:11:06.580,1743513066580,11.8282887236666,46.3788386587055,26.9748,1900.7328,4.77075187072,3
2025-04-01T15:11:06.680,1743513066680,11.828292162117,46.3788423431248,26.88336,1900.428,4.82597919232,3
2025-04-01T15:11:06.780,1743513066780,11.8282956677036,46.3788460238271,26.88336,1900.428,4.82597919232,3
2025-04-01T15:11:06.880,1743513066880,11.8282990116069,46.378849329725,26.79192,1900.428,4.82597919232,3
2025-04-01T15:11:06.990,1743513066990,11.8283025020978,46.3788529879029,26.67,1900.428,4.9091831712,3
2025-04-01T15:11:07.090,1743513067090,11.8283063521054,46.3788571042342,26.67,1900.428,4.9091831712,3
2025-04-01T15:11:07.190,1743513067190,11.8283098733836,46.3788608434743,26.57856,1900.1232,4.9091831712,3
2025-04-01T15:11:07.250,1743513067250,11.8283133307036,46.3788644985262,26.48712,1900.1232,4.9091831712,3
2025-04-01T15:11:07.350,1743513067350,11.8283168154343,46.378868261387,26.39568,1900.1232,4.85490223328,3
2025-04-01T15:11:07.450,1743513067450,11.8283201619198,46.3788721666825,26.27376,1899.8184,4.85490223328,3
2025-04-01T15:11:07.550,1743513067550,11.8283236099042,46.3788759682716,26.27376,1899.8184,4.93964358272,3
2025-04-01T15:11:07.650,1743513067650,11.8283271663396,46.3788797539993,26.18232,1899.8184,4.93964358272,3
2025-04-01T15:11:07.750,1743513067750,11.8283306053858,46.3788835738948,26.09088,1899.8184,4.93964358272,3
2025-04-01T15:11:07.850,1743513067850,11.8283339717342,46.3788872954708,25.99944,1899.5136,4.93964358272,3
2025-04-01T15:11:07.950,1743513067950,11.8283373788012,46.3788910962762,25.99944,1899.5136,4.93964358272,3
2025-04-01T15:11:08.050,1743513068050,11.8283408019572,46.3788948776574,25.87752,1899.5136,4.85490223328,3
2025-04-01T15:11:08.150,1743513068150,11.828344198497,46.3788986438112,25.78608,1899.5136,4.85490223328,3
2025-04-01T15:11:08.250,1743513068250,11.8283475787493,46.3789023797198,25.69464,1899.2088,4.85490223328,3
2025-04-01T15:11:08.350,1743513068350,11.8283509919738,46.3789061278369,25.69464,1899.2088,4.85490223328,3
2025-04-01T15:11:08.450,1743513068450,11.828354313035,46.3789100764812,25.57272,1899.2088,4.85490223328,3
2025-04-01T15:11:08.550,1743513068550,11.8283577050063,46.3789138609885,25.48128,1899.2088,4.80209071584,3
2025-04-01T15:11:08.650,1743513068650,11.8283612008601,46.3789175926106,25.38984,1898.904,4.80209071584,3
2025-04-01T15:11:08.750,1743513068750,11.8283645872699,46.3789214016314,25.2984,1898.904,4.8877476032,3
2025-04-01T15:11:08.850,1743513068850,11.8283678934339,46.3789251693974,25.2984,1898.904,4.8877476032,3
2025-04-01T15:11:08.950,1743513068950,11.8283712752752,46.3789289845546,25.17648,1898.904,4.8877476032,3
2025-04-01T15:11:09.050,1743513069050,11.8283746769794,46.3789328290385,25.08504,1898.5992,4.93964358272,3
2025-04-01T15:11:09.150,1743513069150,11.828378093382,46.3789366298246,24.9936,1898.5992,4.93964358272,3
2025-04-01T15:11:09.250,1743513069250,11.8283815928111,46.3789405276091,24.87168,1898.5992,4.85490223328,3
2025-04-01T15:11:09.350,1743513069350,11.8283850366244,46.3789443191125,24.78024,1898.2944,4.85490223328,3
2025-04-01T15:11:09.450,1743513069450,11.8283881161538,46.3789477467717,24.6888,1898.2944,4.85490223328,3
2025-04-01T15:11:09.550,1743513069550,11.8283915170634,46.3789514716793,24.59736,1898.2944,4.85490223328,3
2025-04-01T15:11:09.650,1743513069650,11.8283953146333,46.378955544757,24.47544,1897.9896,4.85490223328,3
2025-04-01T15:11:09.750,1743513069750,11.8283987796998,46.3789592837244,24.384,1897.9896,4.85490223328,3
2025-04-01T15:11:09.850,1743513069850,11.8284021891504,46.3789629580893,24.29256,1897.9896,4.85490223328,3
2025-04-01T15:11:09.950,1743513069950,11.828405653621,46.3789667143287,24.17064,1897.6848,4.85490223328,3
2025-04-01T15:11:10.050,1743513070050,11.8284088529231,46.3789702318308,24.0792,1897.6848,4.85490223328,3
2025-04-01T15:11:10.150,1743513070150,11.8284122973323,46.3789739865998,24.0792,1897.6848,4.85490223328,3
2025-04-01T15:11:10.240,1743513070240,11.8284161405866,46.3789782640652,23.98776,1897.6848,4.85490223328,3
2025-04-01T15:11:10.350,1743513070350,11.8284196358445,46.3789820669228,23.89632,1897.38,4.85490223328,3
2025-04-01T15:11:10.450,1743513070450,11.8284230693291,46.3789857497983,23.7744,1897.38,4.85490223328,3
2025-04-01T15:11:10.550,1743513070550,11.8284265588269,46.3789895105758,23.68296,1897.38,4.85490223328,3
2025-04-01T15:11:10.650,1743513070650,11.8284301416798,46.3789932642876,23.59152,1897.38,4.85490223328,3
2025-04-01T15:11:10.750,1743513070750,11.828433635746,46.3789969887027,23.4696,1897.0752,4.77075187072,3
2025-04-01T15:11:10.850,1743513070850,11.828437135771,46.37900059886,23.37816,1897.0752,4.77075187072,3
2025-04-01T15:11:10.950,1743513070950,11.8284406073922,46.3790043273603,23.28672,1897.0752,4.85490223328,3
2025-04-01T15:11:11.050,1743513071050,11.8284440782189,46.3790081313474,23.19528,1896.7704,4.85490223328,3
2025-04-01T15:11:11.160,1743513071160,11.8284475426895,46.379011913902,23.07336,1896.7704,4.85490223328,3
2025-04-01T15:11:11.260,1743513071260,11.8284505946096,46.37901536796,22.98192,1896.7704,4.85490223328,3
2025-04-01T15:11:11.360,1743513071360,11.8284540122039,46.379019123207,22.89048,1896.4656,4.85490223328,3
2025-04-01T15:11:11.460,1743513071460,11.8284576008171,46.3790229286971,22.79904,1896.4656,4.85490223328,3
2025-04-01T15:11:11.570,1743513071570,11.8284610315209,46.3790266576,22.67712,1896.4656,4.85490223328,3
2025-04-01T15:11:11.650,1743513071650,11.828464819358,46.3790307811382,22.58568,1896.1608,4.85490223328,3
2025-04-01T15:11:11.770,1743513071770,11.8284682703218,46.3790345400764,22.49424,1896.1608,4.85490223328,3
2025-04-01T15:11:11.870,1743513071870,11.8284717143337,46.3790382056625,22.37232,1896.1608,4.85490223328,3
2025-04-01T15:11:11.950,1743513071950,11.8284751780098,46.3790419488937,22.28088,1895.856,4.85490223328,3
2025-04-01T15:11:12.080,1743513072080,11.8284786047411,46.3790456824299,22.18944,1895.856,4.85490223328,3
2025-04-01T15:11:12.180,1743513072180,11.8284820793417,46.3790494159746,22.18944,1895.856,4.77075187072,3
2025-04-01T15:11:12.280,1743513072280,11.8284855481821,46.3790531419142,22.098,1895.856,4.77075187072,3
2025-04-01T15:11:12.380,1743513072380,11.8284890025227,46.379056847282,21.97608,1895.5512,4.77075187072,3
2025-04-01T15:11:12.480,1743513072480,11.82849229518,46.3790602838215,21.88464,1895.5512,4.77075187072,3
2025-04-01T15:11:12.590,1743513072590,11.8284957179387,46.3790639392845,21.7932,1895.5512,4.77075187072,3
2025-04-01T15:11:12.650,1743513072650,11.8284994235437,46.3790678612378,21.67128,1895.2464,4.77075187072,3
2025-04-01T15:11:12.790,1743513072790,11.8285028627886,46.3790715349602,21.57984,1895.2464,4.77075187072,3
2025-04-01T15:11:12.890,1743513072890,11.8285061210832,46.3790752367995,21.4884,1895.2464,4.71699799296,3
2025-04-01T15:11:12.950,1743513072950,11.8285094977602,46.3790789203109,21.39696,1894.9416,4.71699799296,3
2025-04-01T15:11:13.090,1743513073090,11.828512594173,46.3790823964522,21.27504,1894.9416,4.71699799296,3
2025-04-01T15:11:13.150,1743513073150,11.828515893385,46.3790860718875,21.1836,1894.9416,4.71699799296,3
2025-04-01T15:11:13.250,1743513073250,11.8285195739629,46.3790901369778,21.09216,1894.6368,4.71699799296,3
2025-04-01T15:11:13.350,1743513073350,11.8285228862844,46.3790938279061,20.97024,1894.6368,4.71699799296,3
2025-04-01T15:11:13.450,1743513073450,11.8285257850623,46.3790970642095,20.8788,1894.6368,4.71699799296,3
2025-04-01T15:11:13.550,1743513073550,11.8285290695759,46.3791006776983,20.78736,1894.332,4.6325011744,3
2025-04-01T15:11:13.650,1743513073650,11.8285327016886,46.3791046508754,20.69592,1894.332,4.6325011744,3
2025-04-01T15:11:13.750,1743513073750,11.8285360865093,46.3791082801998,20.574,1894.332,4.68722423488,3
2025-04-01T15:11:13.850,1743513073850,11.8285395144324,46.3791120110468,20.48256,1894.0272,4.68722423488,3
2025-04-01T15:11:13.950,1743513073950,11.8285429234857,46.379115661748,20.39112,1894.0272,4.6325011744,3
2025-04-01T15:11:14.050,1743513074050,11.8285462292525,46.3791192154315,20.29968,1894.0272,4.71699799296,3
2025-04-01T15:11:14.150,1743513074150,11.8285495117797,46.3791229184613,20.17776,1893.7224,4.66476896864,3
2025-04-01T15:11:14.250,1743513074250,11.828552478091,46.3791264741318,20.17776,1893.7224,4.70107129888,3
2025-04-01T15:11:14.350,1743513074350,11.8285554610871,46.379130291685,20.08632,1893.7224,4.74131562784,3
2025-04-01T15:11:14.450,1743513074450,11.8285584486516,46.3791344905772,19.99488,1893.7224,4.74236974816,3
2025-04-01T15:11:14.550,1743513074550,11.8285609313035,46.3791385108842,19.87296,1893.4176,4.71699799296,3
2025-04-01T15:11:14.650,1743513074650,11.8285630161033,46.3791425062003,19.78152,1893.4176,4.64866301152,3
2025-04-01T15:11:14.850,1743513074850,11.8285658660181,46.379150516856,19.69008,1893.4176,4.47214300896,3
2025-04-01T15:11:14.950,1743513074950,11.8285666118662,46.3791544826934,19.69008,1893.4176,4.31857135776,3
2025-04-01T15:11:15.050,1743513075050,11.8285667723574,46.379157973514,19.69008,1893.4176,4.10122587424,3
2025-04-01T15:11:15.150,1743513075150,11.8285666364956,46.3791616354003,19.69008,1893.4176,3.90128812832,3
2025-04-01T15:11:15.250,1743513075250,11.8285664293263,46.3791651471352,19.69008,1893.4176,3.8210006384,3
2025-04-01T15:11:15.350,1743513075350,11.8285655611228,46.379168505807,19.69008,1893.4176,3.66742988128,3
2025-04-01T15:11:15.450,1743513075450,11.8285644368878,46.3791718007766,19.69008,1893.4176,3.61386778368,3
2025-04-01T15:11:15.550,1743513075550,11.8285628593835,46.3791748875282,19.78152,1893.4176,3.51141560352,3
2025-04-01T15:11:15.650,1743513075650,11.8285608643631,46.3791783185008,19.78152,1893.4176,3.53412523552,3
2025-04-01T15:11:15.750,1743513075750,11.8285585696129,46.3791811862775,19.78152,1893.4176,3.49857661472,3
2025-04-01T15:11:15.850,1743513075850,11.8285560301529,46.379183639331,19.87296,1893.4176,3.5000058016,3
2025-04-01T15:11:15.950,1743513075950,11.8285529927324,46.37918616943,19.87296,1893.4176,3.61248419488,3
2025-04-01T15:11:16.050,1743513076050,11.8285497415881,46.3791886278277,19.99488,1893.7224,3.67967967136,3
2025-04-01T15:11:16.150,1743513076150,11.8285459815587,46.3791907764677,19.99488,1893.7224,3.64006075136,3
2025-04-01T15:11:16.270,1743513076270,11.8285415144135,46.3791929812046,20.08632,1893.7224,3.68917927136,3
2025-04-01T15:11:16.370,1743513076370,11.8285372151091,46.3791947049297,20.17776,1893.7224,3.71214818656,3
2025-04-01T15:11:16.450,1743513076450,11.8285332832666,46.3791960030207,20.29968,1894.0272,3.67696122112,3
2025-04-01T15:11:16.550,1743513076550,11.8285287704371,46.3791971990923,20.29968,1894.0272,3.66879290624,3
2025-04-01T15:11:16.670,1743513076670,11.8285239503299,46.3791983715604,20.39112,1894.0272,3.710800808,3
2025-04-01T15:11:16.770,1743513076770,11.8285191345926,46.3791990602933,20.48256,1894.0272,3.7483387568,3
2025-04-01T15:11:16.880,1743513076880,11.8285142098084,46.379199663108,20.574,1894.332,3.8118296128,3
2025-04-01T15:11:16.980,1743513076980,11.8285090742799,46.3791998675233,20.69592,1894.332,3.90128812832,3
2025-04-01T15:11:17.080,1743513077080,11.8285030582332,46.3791998527239,20.78736,1894.332,4.10122587424,3
2025-04-01T15:11:17.150,1743513077150,11.8284976440296,46.37919966566,20.8788,1894.6368,4.11096776992,3
2025-04-01T15:11:17.280,1743513077280,11.8284931095496,46.379199328222,21.09216,1894.6368,4.11947270592,3
2025-04-01T15:11:17.390,1743513077390,11.8284877491743,46.3791988733317,21.1836,1894.9416,4.13038182304,3
2025-04-01T15:11:17.490,1743513077490,11.8284827795003,46.3791983937759,21.27504,1894.9416,4.1436763456,3
2025-04-01T15:11:17.590,1743513077590,11.8284775232061,46.3791977361316,21.39696,1894.9416,4.15933347456,3
2025-04-01T15:11:17.690,1743513077690,11.8284711827999,46.3791969467839,21.4884,1895.2464,4.0792221184,3
2025-04-01T15:11:17.790,1743513077790,11.828465909225,46.3791961257649,21.57984,1895.2464,4.10000679616,3
2025-04-01T15:11:17.890,1743513077890,11.8284611544665,46.3791953912122,21.67128,1895.2464,4.12311205856,3
2025-04-01T15:11:17.950,1743513077950,11.8284558050156,46.3791944485443,21.7932,1895.5512,4.24500377312,3
2025-04-01T15:11:18.050,1743513078050,11.8284496531073,46.3791932847262,21.88464,1895.5512,4.43847553248,3
2025-04-01T15:11:18.150,1743513078150,11.8284438805785,46.3791922329476,21.97608,1895.5512,4.56070923264,3
2025-04-01T15:11:18.250,1743513078250,11.8284378043475,46.379191154294,22.098,1895.856,4.85078097152,3
2025-04-01T15:11:18.350,1743513078350,11.8284315302828,46.3791900487138,22.18944,1895.856,5.04480750752,3
2025-04-01T15:11:18.450,1743513078450,11.8284249421873,46.3791888978793,22.28088,1895.856,5.16624502944,3
2025-04-01T15:11:18.550,1743513078550,11.8284182150521,46.37918774242,22.37232,1896.1608,5.36004581024,3
2025-04-01T15:11:18.650,1743513078650,11.8284114972525,46.37918647266,22.58568,1896.1608,5.45711428768,3
